<?xml version="1.0"?>
<gpx
 version="1.1"
 creator="Satmap Active 20"
 xmlns:xsi="http://www.w3.org/2001/XMLSchema-instance"
 xmlns="http://www.topografix.com/GPX/1/1"
 xmlns:satmap="http://www.satmap.com/updates/xmlschemas/GpxExtensions/v2/GpxExtensions_v2.xsd"
 xsi:schemaLocation="http://www.topografix.com/GPX/1/1 http://www.topografix.com/GPX/1/1/gpx.xsd">
<metadata>
<time>2024-02-22T10:32:55Z</time>
<extensions>
<satmap:platform>43</satmap:platform>
<satmap:software version="3.13.037">SM15.exe</satmap:software>
<satmap:username>pieter metz</satmap:username>
<satmap:network_ids>
<satmap:network_id type="wifi">00-23-A7-CA-E3-5C</satmap:network_id>
<satmap:network_id type="bluetooth">80-BB-EB-78-4F-29</satmap:network_id>
</satmap:network_ids>
<satmap:snap_type>simple</satmap:snap_type>
</extensions>
</metadata>
<trk>
<name>2024-02-22_1032</name>
<desc>Track 1</desc>
<number>1</number>
<trkseg>
<trkpt lat="52.081201" lon="05.947960"><ele>153.5</ele><time>2024-02-22T10:32:55Z</time><name>PT1</name></trkpt>
<trkpt lat="52.081206" lon="05.947961"><ele>153.5</ele><time>2024-02-22T10:32:57Z</time><name>PT2</name></trkpt>
<trkpt lat="52.081216" lon="05.947961"><ele>153.5</ele><time>2024-02-22T10:32:57Z</time><name>PT3</name></trkpt>
<trkpt lat="52.081228" lon="05.947961"><ele>153.4</ele><time>2024-02-22T10:32:58Z</time><name>PT4</name></trkpt>
<trkpt lat="52.081239" lon="05.947961"><ele>153.3</ele><time>2024-02-22T10:33:00Z</time><name>PT5</name></trkpt>
<trkpt lat="52.081247" lon="05.947956"><ele>153.4</ele><time>2024-02-22T10:33:00Z</time><name>PT6</name></trkpt>
<trkpt lat="52.081253" lon="05.947947"><ele>153.4</ele><time>2024-02-22T10:33:01Z</time><name>PT7</name></trkpt>
<trkpt lat="52.081258" lon="05.947935"><ele>153.5</ele><time>2024-02-22T10:33:03Z</time><name>PT8</name></trkpt>
<trkpt lat="52.081263" lon="05.947919"><ele>153.6</ele><time>2024-02-22T10:33:03Z</time><name>PT9</name></trkpt>
<trkpt lat="52.081267" lon="05.947903"><ele>153.6</ele><time>2024-02-22T10:33:04Z</time><name>PT10</name></trkpt>
<trkpt lat="52.081273" lon="05.947891"><ele>153.7</ele><time>2024-02-22T10:33:06Z</time><name>PT11</name></trkpt>
<trkpt lat="52.081277" lon="05.947887"><ele>153.9</ele><time>2024-02-22T10:33:06Z</time><name>PT12</name></trkpt>
<trkpt lat="52.081277" lon="05.947887"><ele>153.9</ele><time>2024-02-22T10:33:07Z</time><name>PT13</name></trkpt>
<trkpt lat="52.081278" lon="05.947881"><ele>153.9</ele><time>2024-02-22T10:33:09Z</time><name>PT14</name></trkpt>
<trkpt lat="52.081279" lon="05.947871"><ele>153.9</ele><time>2024-02-22T10:33:09Z</time><name>PT15</name></trkpt>
<trkpt lat="52.081280" lon="05.947864"><ele>153.8</ele><time>2024-02-22T10:33:10Z</time><name>PT16</name></trkpt>
<trkpt lat="52.081282" lon="05.947856"><ele>153.8</ele><time>2024-02-22T10:33:12Z</time><name>PT17</name></trkpt>
<trkpt lat="52.081283" lon="05.947845"><ele>153.7</ele><time>2024-02-22T10:33:12Z</time><name>PT18</name></trkpt>
<trkpt lat="52.081285" lon="05.947833"><ele>153.9</ele><time>2024-02-22T10:33:13Z</time><name>PT19</name></trkpt>
<trkpt lat="52.081287" lon="05.947821"><ele>153.9</ele><time>2024-02-22T10:33:15Z</time><name>PT20</name></trkpt>
<trkpt lat="52.081289" lon="05.947806"><ele>153.8</ele><time>2024-02-22T10:33:15Z</time><name>PT21</name></trkpt>
<trkpt lat="52.081289" lon="05.947793"><ele>153.8</ele><time>2024-02-22T10:33:16Z</time><name>PT22</name></trkpt>
<trkpt lat="52.081290" lon="05.947782"><ele>153.6</ele><time>2024-02-22T10:33:18Z</time><name>PT23</name></trkpt>
<trkpt lat="52.081289" lon="05.947771"><ele>153.6</ele><time>2024-02-22T10:33:18Z</time><name>PT24</name></trkpt>
<trkpt lat="52.081291" lon="05.947758"><ele>153.4</ele><time>2024-02-22T10:33:19Z</time><name>PT25</name></trkpt>
<trkpt lat="52.081294" lon="05.947745"><ele>153.4</ele><time>2024-02-22T10:33:21Z</time><name>PT26</name></trkpt>
<trkpt lat="52.081297" lon="05.947731"><ele>153.4</ele><time>2024-02-22T10:33:21Z</time><name>PT27</name></trkpt>
<trkpt lat="52.081301" lon="05.947719"><ele>153.4</ele><time>2024-02-22T10:33:22Z</time><name>PT28</name></trkpt>
<trkpt lat="52.081309" lon="05.947708"><ele>153.5</ele><time>2024-02-22T10:33:24Z</time><name>PT29</name></trkpt>
<trkpt lat="52.081317" lon="05.947696"><ele>153.4</ele><time>2024-02-22T10:33:24Z</time><name>PT30</name></trkpt>
<trkpt lat="52.081329" lon="05.947694"><ele>153.5</ele><time>2024-02-22T10:33:25Z</time><name>PT31</name></trkpt>
<trkpt lat="52.081339" lon="05.947698"><ele>153.8</ele><time>2024-02-22T10:33:27Z</time><name>PT32</name></trkpt>
<trkpt lat="52.081349" lon="05.947703"><ele>153.7</ele><time>2024-02-22T10:33:27Z</time><name>PT33</name></trkpt>
<trkpt lat="52.081358" lon="05.947709"><ele>153.7</ele><time>2024-02-22T10:33:28Z</time><name>PT34</name></trkpt>
<trkpt lat="52.081368" lon="05.947714"><ele>153.8</ele><time>2024-02-22T10:33:30Z</time><name>PT35</name></trkpt>
<trkpt lat="52.081375" lon="05.947715"><ele>153.7</ele><time>2024-02-22T10:33:30Z</time><name>PT36</name></trkpt>
<trkpt lat="52.081383" lon="05.947721"><ele>153.6</ele><time>2024-02-22T10:33:31Z</time><name>PT37</name></trkpt>
<trkpt lat="52.081393" lon="05.947727"><ele>153.5</ele><time>2024-02-22T10:33:33Z</time><name>PT38</name></trkpt>
<trkpt lat="52.081406" lon="05.947732"><ele>153.7</ele><time>2024-02-22T10:33:33Z</time><name>PT39</name></trkpt>
<trkpt lat="52.081415" lon="05.947740"><ele>153.6</ele><time>2024-02-22T10:33:34Z</time><name>PT40</name></trkpt>
<trkpt lat="52.081424" lon="05.947746"><ele>153.6</ele><time>2024-02-22T10:33:36Z</time><name>PT41</name></trkpt>
<trkpt lat="52.081433" lon="05.947753"><ele>153.6</ele><time>2024-02-22T10:33:36Z</time><name>PT42</name></trkpt>
<trkpt lat="52.081440" lon="05.947761"><ele>153.6</ele><time>2024-02-22T10:33:37Z</time><name>PT43</name></trkpt>
<trkpt lat="52.081450" lon="05.947766"><ele>153.7</ele><time>2024-02-22T10:33:39Z</time><name>PT44</name></trkpt>
<trkpt lat="52.081461" lon="05.947774"><ele>153.8</ele><time>2024-02-22T10:33:39Z</time><name>PT45</name></trkpt>
<trkpt lat="52.081472" lon="05.947782"><ele>153.6</ele><time>2024-02-22T10:33:40Z</time><name>PT46</name></trkpt>
<trkpt lat="52.081482" lon="05.947787"><ele>153.7</ele><time>2024-02-22T10:33:42Z</time><name>PT47</name></trkpt>
<trkpt lat="52.081490" lon="05.947792"><ele>153.6</ele><time>2024-02-22T10:33:42Z</time><name>PT48</name></trkpt>
<trkpt lat="52.081500" lon="05.947801"><ele>153.6</ele><time>2024-02-22T10:33:43Z</time><name>PT49</name></trkpt>
<trkpt lat="52.081510" lon="05.947809"><ele>153.8</ele><time>2024-02-22T10:33:45Z</time><name>PT50</name></trkpt>
<trkpt lat="52.081521" lon="05.947817"><ele>153.6</ele><time>2024-02-22T10:33:45Z</time><name>PT51</name></trkpt>
<trkpt lat="52.081531" lon="05.947826"><ele>153.5</ele><time>2024-02-22T10:33:46Z</time><name>PT52</name></trkpt>
<trkpt lat="52.081541" lon="05.947833"><ele>153.5</ele><time>2024-02-22T10:33:48Z</time><name>PT53</name></trkpt>
<trkpt lat="52.081551" lon="05.947841"><ele>153.4</ele><time>2024-02-22T10:33:48Z</time><name>PT54</name></trkpt>
<trkpt lat="52.081560" lon="05.947848"><ele>153.3</ele><time>2024-02-22T10:33:49Z</time><name>PT55</name></trkpt>
<trkpt lat="52.081569" lon="05.947856"><ele>153.2</ele><time>2024-02-22T10:33:51Z</time><name>PT56</name></trkpt>
<trkpt lat="52.081583" lon="05.947863"><ele>153.1</ele><time>2024-02-22T10:33:51Z</time><name>PT57</name></trkpt>
<trkpt lat="52.081593" lon="05.947867"><ele>152.9</ele><time>2024-02-22T10:33:52Z</time><name>PT58</name></trkpt>
<trkpt lat="52.081596" lon="05.947870"><ele>152.9</ele><time>2024-02-22T10:33:54Z</time><name>PT59</name></trkpt>
<trkpt lat="52.081608" lon="05.947879"><ele>152.9</ele><time>2024-02-22T10:33:54Z</time><name>PT60</name></trkpt>
<trkpt lat="52.081621" lon="05.947891"><ele>152.6</ele><time>2024-02-22T10:33:55Z</time><name>PT61</name></trkpt>
<trkpt lat="52.081634" lon="05.947901"><ele>152.6</ele><time>2024-02-22T10:33:57Z</time><name>PT62</name></trkpt>
<trkpt lat="52.081649" lon="05.947910"><ele>152.6</ele><time>2024-02-22T10:33:57Z</time><name>PT63</name></trkpt>
<trkpt lat="52.081659" lon="05.947915"><ele>152.4</ele><time>2024-02-22T10:33:58Z</time><name>PT64</name></trkpt>
<trkpt lat="52.081668" lon="05.947918"><ele>152.6</ele><time>2024-02-22T10:34:00Z</time><name>PT65</name></trkpt>
<trkpt lat="52.081675" lon="05.947922"><ele>152.5</ele><time>2024-02-22T10:34:00Z</time><name>PT66</name></trkpt>
<trkpt lat="52.081682" lon="05.947927"><ele>152.3</ele><time>2024-02-22T10:34:01Z</time><name>PT67</name></trkpt>
<trkpt lat="52.081691" lon="05.947931"><ele>152.3</ele><time>2024-02-22T10:34:03Z</time><name>PT68</name></trkpt>
<trkpt lat="52.081703" lon="05.947939"><ele>152.3</ele><time>2024-02-22T10:34:03Z</time><name>PT69</name></trkpt>
<trkpt lat="52.081720" lon="05.947950"><ele>152.1</ele><time>2024-02-22T10:34:04Z</time><name>PT70</name></trkpt>
<trkpt lat="52.081738" lon="05.947964"><ele>152</ele><time>2024-02-22T10:34:06Z</time><name>PT71</name></trkpt>
<trkpt lat="52.081754" lon="05.947973"><ele>151.9</ele><time>2024-02-22T10:34:06Z</time><name>PT72</name></trkpt>
<trkpt lat="52.081767" lon="05.947978"><ele>151.7</ele><time>2024-02-22T10:34:07Z</time><name>PT73</name></trkpt>
<trkpt lat="52.081775" lon="05.947984"><ele>151.7</ele><time>2024-02-22T10:34:09Z</time><name>PT74</name></trkpt>
<trkpt lat="52.081782" lon="05.947992"><ele>151.6</ele><time>2024-02-22T10:34:09Z</time><name>PT75</name></trkpt>
<trkpt lat="52.081789" lon="05.947999"><ele>151.6</ele><time>2024-02-22T10:34:10Z</time><name>PT76</name></trkpt>
<trkpt lat="52.081797" lon="05.948006"><ele>151.6</ele><time>2024-02-22T10:34:12Z</time><name>PT77</name></trkpt>
<trkpt lat="52.081805" lon="05.948008"><ele>151.5</ele><time>2024-02-22T10:34:12Z</time><name>PT78</name></trkpt>
<trkpt lat="52.081812" lon="05.948012"><ele>151.7</ele><time>2024-02-22T10:34:13Z</time><name>PT79</name></trkpt>
<trkpt lat="52.081820" lon="05.948016"><ele>151.7</ele><time>2024-02-22T10:34:15Z</time><name>PT80</name></trkpt>
<trkpt lat="52.081829" lon="05.948022"><ele>151.8</ele><time>2024-02-22T10:34:15Z</time><name>PT81</name></trkpt>
<trkpt lat="52.081841" lon="05.948026"><ele>151.7</ele><time>2024-02-22T10:34:16Z</time><name>PT82</name></trkpt>
<trkpt lat="52.081855" lon="05.948034"><ele>151.7</ele><time>2024-02-22T10:34:18Z</time><name>PT83</name></trkpt>
<trkpt lat="52.081870" lon="05.948039"><ele>151.7</ele><time>2024-02-22T10:34:18Z</time><name>PT84</name></trkpt>
<trkpt lat="52.081885" lon="05.948049"><ele>151.7</ele><time>2024-02-22T10:34:19Z</time><name>PT85</name></trkpt>
<trkpt lat="52.081903" lon="05.948063"><ele>151.8</ele><time>2024-02-22T10:34:21Z</time><name>PT86</name></trkpt>
<trkpt lat="52.081919" lon="05.948078"><ele>151.7</ele><time>2024-02-22T10:34:21Z</time><name>PT87</name></trkpt>
<trkpt lat="52.081931" lon="05.948085"><ele>151.7</ele><time>2024-02-22T10:34:22Z</time><name>PT88</name></trkpt>
<trkpt lat="52.081941" lon="05.948087"><ele>151.6</ele><time>2024-02-22T10:34:24Z</time><name>PT89</name></trkpt>
<trkpt lat="52.081946" lon="05.948092"><ele>151.5</ele><time>2024-02-22T10:34:24Z</time><name>PT90</name></trkpt>
<trkpt lat="52.081956" lon="05.948100"><ele>151.5</ele><time>2024-02-22T10:34:25Z</time><name>PT91</name></trkpt>
<trkpt lat="52.081964" lon="05.948107"><ele>151.2</ele><time>2024-02-22T10:34:27Z</time><name>PT92</name></trkpt>
<trkpt lat="52.081974" lon="05.948114"><ele>151.3</ele><time>2024-02-22T10:34:27Z</time><name>PT93</name></trkpt>
<trkpt lat="52.081985" lon="05.948123"><ele>151.3</ele><time>2024-02-22T10:34:28Z</time><name>PT94</name></trkpt>
<trkpt lat="52.081996" lon="05.948131"><ele>151.2</ele><time>2024-02-22T10:34:30Z</time><name>PT95</name></trkpt>
<trkpt lat="52.082008" lon="05.948143"><ele>151.2</ele><time>2024-02-22T10:34:30Z</time><name>PT96</name></trkpt>
<trkpt lat="52.082022" lon="05.948156"><ele>151.2</ele><time>2024-02-22T10:34:31Z</time><name>PT97</name></trkpt>
<trkpt lat="52.082036" lon="05.948167"><ele>151.1</ele><time>2024-02-22T10:34:33Z</time><name>PT98</name></trkpt>
<trkpt lat="52.082051" lon="05.948174"><ele>151.2</ele><time>2024-02-22T10:34:33Z</time><name>PT99</name></trkpt>
<trkpt lat="52.082063" lon="05.948179"><ele>151.4</ele><time>2024-02-22T10:34:34Z</time><name>PT100</name></trkpt>
<trkpt lat="52.082075" lon="05.948183"><ele>151.4</ele><time>2024-02-22T10:34:36Z</time><name>PT101</name></trkpt>
<trkpt lat="52.082085" lon="05.948189"><ele>151.2</ele><time>2024-02-22T10:34:36Z</time><name>PT102</name></trkpt>
<trkpt lat="52.082095" lon="05.948192"><ele>151.2</ele><time>2024-02-22T10:34:37Z</time><name>PT103</name></trkpt>
<trkpt lat="52.082104" lon="05.948195"><ele>150.9</ele><time>2024-02-22T10:34:39Z</time><name>PT104</name></trkpt>
<trkpt lat="52.082113" lon="05.948199"><ele>150.8</ele><time>2024-02-22T10:34:39Z</time><name>PT105</name></trkpt>
<trkpt lat="52.082122" lon="05.948203"><ele>150.9</ele><time>2024-02-22T10:34:40Z</time><name>PT106</name></trkpt>
<trkpt lat="52.082130" lon="05.948210"><ele>150.8</ele><time>2024-02-22T10:34:42Z</time><name>PT107</name></trkpt>
<trkpt lat="52.082140" lon="05.948214"><ele>150.9</ele><time>2024-02-22T10:34:42Z</time><name>PT108</name></trkpt>
<trkpt lat="52.082150" lon="05.948219"><ele>151</ele><time>2024-02-22T10:34:43Z</time><name>PT109</name></trkpt>
<trkpt lat="52.082163" lon="05.948226"><ele>150.9</ele><time>2024-02-22T10:34:45Z</time><name>PT110</name></trkpt>
<trkpt lat="52.082180" lon="05.948231"><ele>151.1</ele><time>2024-02-22T10:34:45Z</time><name>PT111</name></trkpt>
<trkpt lat="52.082194" lon="05.948235"><ele>151</ele><time>2024-02-22T10:34:46Z</time><name>PT112</name></trkpt>
<trkpt lat="52.082204" lon="05.948237"><ele>150.7</ele><time>2024-02-22T10:34:48Z</time><name>PT113</name></trkpt>
<trkpt lat="52.082212" lon="05.948235"><ele>150.6</ele><time>2024-02-22T10:34:48Z</time><name>PT114</name></trkpt>
<trkpt lat="52.082221" lon="05.948233"><ele>150.7</ele><time>2024-02-22T10:34:49Z</time><name>PT115</name></trkpt>
<trkpt lat="52.082234" lon="05.948231"><ele>150.6</ele><time>2024-02-22T10:34:51Z</time><name>PT116</name></trkpt>
<trkpt lat="52.082241" lon="05.948228"><ele>150.6</ele><time>2024-02-22T10:34:51Z</time><name>PT117</name></trkpt>
<trkpt lat="52.082247" lon="05.948225"><ele>150.5</ele><time>2024-02-22T10:34:52Z</time><name>PT118</name></trkpt>
<trkpt lat="52.082248" lon="05.948221"><ele>150.4</ele><time>2024-02-22T10:34:54Z</time><name>PT119</name></trkpt>
<trkpt lat="52.082252" lon="05.948215"><ele>150.4</ele><time>2024-02-22T10:34:54Z</time><name>PT120</name></trkpt>
<trkpt lat="52.082259" lon="05.948202"><ele>150.4</ele><time>2024-02-22T10:34:55Z</time><name>PT121</name></trkpt>
<trkpt lat="52.082268" lon="05.948184"><ele>150.5</ele><time>2024-02-22T10:34:57Z</time><name>PT122</name></trkpt>
<trkpt lat="52.082274" lon="05.948161"><ele>150.5</ele><time>2024-02-22T10:34:57Z</time><name>PT123</name></trkpt>
<trkpt lat="52.082281" lon="05.948133"><ele>150.4</ele><time>2024-02-22T10:34:58Z</time><name>PT124</name></trkpt>
<trkpt lat="52.082286" lon="05.948107"><ele>150.2</ele><time>2024-02-22T10:35:00Z</time><name>PT125</name></trkpt>
<trkpt lat="52.082292" lon="05.948082"><ele>150.1</ele><time>2024-02-22T10:35:00Z</time><name>PT126</name></trkpt>
<trkpt lat="52.082294" lon="05.948067"><ele>150</ele><time>2024-02-22T10:35:01Z</time><name>PT127</name></trkpt>
<trkpt lat="52.082293" lon="05.948055"><ele>149.9</ele><time>2024-02-22T10:35:03Z</time><name>PT128</name></trkpt>
<trkpt lat="52.082291" lon="05.948047"><ele>149.8</ele><time>2024-02-22T10:35:03Z</time><name>PT129</name></trkpt>
<trkpt lat="52.082286" lon="05.948035"><ele>149.8</ele><time>2024-02-22T10:35:04Z</time><name>PT130</name></trkpt>
<trkpt lat="52.082287" lon="05.948026"><ele>149.7</ele><time>2024-02-22T10:35:06Z</time><name>PT131</name></trkpt>
<trkpt lat="52.082288" lon="05.948016"><ele>149.5</ele><time>2024-02-22T10:35:06Z</time><name>PT132</name></trkpt>
<trkpt lat="52.082293" lon="05.948007"><ele>149.5</ele><time>2024-02-22T10:35:07Z</time><name>PT133</name></trkpt>
<trkpt lat="52.082299" lon="05.947993"><ele>149.4</ele><time>2024-02-22T10:35:09Z</time><name>PT134</name></trkpt>
<trkpt lat="52.082302" lon="05.947975"><ele>149.6</ele><time>2024-02-22T10:35:09Z</time><name>PT135</name></trkpt>
<trkpt lat="52.082305" lon="05.947954"><ele>149.7</ele><time>2024-02-22T10:35:10Z</time><name>PT136</name></trkpt>
<trkpt lat="52.082308" lon="05.947940"><ele>149.8</ele><time>2024-02-22T10:35:12Z</time><name>PT137</name></trkpt>
<trkpt lat="52.082307" lon="05.947929"><ele>149.8</ele><time>2024-02-22T10:35:12Z</time><name>PT138</name></trkpt>
<trkpt lat="52.082308" lon="05.947922"><ele>149.6</ele><time>2024-02-22T10:35:13Z</time><name>PT139</name></trkpt>
<trkpt lat="52.082308" lon="05.947913"><ele>149.5</ele><time>2024-02-22T10:35:15Z</time><name>PT140</name></trkpt>
<trkpt lat="52.082306" lon="05.947907"><ele>149.5</ele><time>2024-02-22T10:35:15Z</time><name>PT141</name></trkpt>
<trkpt lat="52.082307" lon="05.947898"><ele>149.3</ele><time>2024-02-22T10:35:16Z</time><name>PT142</name></trkpt>
<trkpt lat="52.082316" lon="05.947882"><ele>149.1</ele><time>2024-02-22T10:35:18Z</time><name>PT143</name></trkpt>
<trkpt lat="52.082319" lon="05.947871"><ele>149.1</ele><time>2024-02-22T10:35:18Z</time><name>PT144</name></trkpt>
<trkpt lat="52.082328" lon="05.947857"><ele>149.1</ele><time>2024-02-22T10:35:19Z</time><name>PT145</name></trkpt>
<trkpt lat="52.082341" lon="05.947839"><ele>149</ele><time>2024-02-22T10:35:21Z</time><name>PT146</name></trkpt>
<trkpt lat="52.082336" lon="05.947828"><ele>149.2</ele><time>2024-02-22T10:35:21Z</time><name>PT147</name></trkpt>
<trkpt lat="52.082349" lon="05.947833"><ele>149.2</ele><time>2024-02-22T10:35:22Z</time><name>PT148</name></trkpt>
<trkpt lat="52.082342" lon="05.947824"><ele>149.1</ele><time>2024-02-22T10:35:24Z</time><name>PT149</name></trkpt>
<trkpt lat="52.082359" lon="05.947805"><ele>149.2</ele><time>2024-02-22T10:35:24Z</time><name>PT150</name></trkpt>
<trkpt lat="52.082379" lon="05.947795"><ele>149.2</ele><time>2024-02-22T10:35:25Z</time><name>PT151</name></trkpt>
<trkpt lat="52.082394" lon="05.947774"><ele>149.4</ele><time>2024-02-22T10:35:26Z</time><name>PT152</name></trkpt>
<trkpt lat="52.082425" lon="05.947758"><ele>149.6</ele><time>2024-02-22T10:35:27Z</time><name>PT153</name></trkpt>
<trkpt lat="52.082437" lon="05.947736"><ele>149.7</ele><time>2024-02-22T10:35:28Z</time><name>PT154</name></trkpt>
<trkpt lat="52.082432" lon="05.947717"><ele>149.8</ele><time>2024-02-22T10:35:29Z</time><name>PT155</name></trkpt>
<trkpt lat="52.082453" lon="05.947716"><ele>149.7</ele><time>2024-02-22T10:35:30Z</time><name>PT156</name></trkpt>
<trkpt lat="52.082442" lon="05.947717"><ele>149.6</ele><time>2024-02-22T10:35:31Z</time><name>PT157</name></trkpt>
<trkpt lat="52.082429" lon="05.947712"><ele>149.7</ele><time>2024-02-22T10:35:32Z</time><name>PT158</name></trkpt>
<trkpt lat="52.082423" lon="05.947696"><ele>149.7</ele><time>2024-02-22T10:35:33Z</time><name>PT159</name></trkpt>
<trkpt lat="52.082419" lon="05.947713"><ele>149.4</ele><time>2024-02-22T10:35:34Z</time><name>PT160</name></trkpt>
<trkpt lat="52.082414" lon="05.947718"><ele>149.5</ele><time>2024-02-22T10:35:36Z</time><name>PT161</name></trkpt>
<trkpt lat="52.082409" lon="05.947723"><ele>149.4</ele><time>2024-02-22T10:35:36Z</time><name>PT162</name></trkpt>
<trkpt lat="52.082387" lon="05.947700"><ele>149.3</ele><time>2024-02-22T10:35:37Z</time><name>PT163</name></trkpt>
<trkpt lat="52.082378" lon="05.947686"><ele>149.4</ele><time>2024-02-22T10:35:38Z</time><name>PT164</name></trkpt>
<trkpt lat="52.082395" lon="05.947646"><ele>149.6</ele><time>2024-02-22T10:35:39Z</time><name>PT165</name></trkpt>
<trkpt lat="52.082397" lon="05.947597"><ele>149.4</ele><time>2024-02-22T10:35:40Z</time><name>PT166</name></trkpt>
<trkpt lat="52.082383" lon="05.947585"><ele>149.6</ele><time>2024-02-22T10:35:42Z</time><name>PT167</name></trkpt>
<trkpt lat="52.082377" lon="05.947568"><ele>149.7</ele><time>2024-02-22T10:35:42Z</time><name>PT168</name></trkpt>
<trkpt lat="52.082360" lon="05.947481"><ele>149.5</ele><time>2024-02-22T10:35:43Z</time><name>PT169</name></trkpt>
<trkpt lat="52.082364" lon="05.947463"><ele>149.4</ele><time>2024-02-22T10:35:44Z</time><name>PT170</name></trkpt>
<trkpt lat="52.082358" lon="05.947439"><ele>149.4</ele><time>2024-02-22T10:35:45Z</time><name>PT171</name></trkpt>
<trkpt lat="52.082370" lon="05.947412"><ele>149.4</ele><time>2024-02-22T10:35:46Z</time><name>PT172</name></trkpt>
<trkpt lat="52.082384" lon="05.947392"><ele>149.5</ele><time>2024-02-22T10:35:48Z</time><name>PT173</name></trkpt>
<trkpt lat="52.082395" lon="05.947315"><ele>149.5</ele><time>2024-02-22T10:35:48Z</time><name>PT174</name></trkpt>
<trkpt lat="52.082396" lon="05.947276"><ele>149.4</ele><time>2024-02-22T10:35:49Z</time><name>PT175</name></trkpt>
<trkpt lat="52.082386" lon="05.947188"><ele>149.5</ele><time>2024-02-22T10:35:51Z</time><name>PT176</name></trkpt>
<trkpt lat="52.082377" lon="05.947172"><ele>149.4</ele><time>2024-02-22T10:35:51Z</time><name>PT177</name></trkpt>
<trkpt lat="52.082372" lon="05.947175"><ele>149.4</ele><time>2024-02-22T10:35:53Z</time><name>PT178</name></trkpt>
<trkpt lat="52.082378" lon="05.947172"><ele>149.4</ele><time>2024-02-22T10:35:54Z</time><name>PT179</name></trkpt>
<trkpt lat="52.082388" lon="05.947113"><ele>149.6</ele><time>2024-02-22T10:35:54Z</time><name>PT180</name></trkpt>
<trkpt lat="52.082388" lon="05.947077"><ele>149.7</ele><time>2024-02-22T10:35:55Z</time><name>PT181</name></trkpt>
<trkpt lat="52.082390" lon="05.947034"><ele>149.8</ele><time>2024-02-22T10:35:57Z</time><name>PT182</name></trkpt>
<trkpt lat="52.082395" lon="05.947006"><ele>149.7</ele><time>2024-02-22T10:35:57Z</time><name>PT183</name></trkpt>
<trkpt lat="52.082390" lon="05.946980"><ele>149.8</ele><time>2024-02-22T10:35:58Z</time><name>PT184</name></trkpt>
<trkpt lat="52.082387" lon="05.946960"><ele>149.5</ele><time>2024-02-22T10:36:00Z</time><name>PT185</name></trkpt>
<trkpt lat="52.082391" lon="05.946945"><ele>149.7</ele><time>2024-02-22T10:36:00Z</time><name>PT186</name></trkpt>
<trkpt lat="52.082396" lon="05.946928"><ele>149.7</ele><time>2024-02-22T10:36:01Z</time><name>PT187</name></trkpt>
<trkpt lat="52.082400" lon="05.946914"><ele>149.8</ele><time>2024-02-22T10:36:03Z</time><name>PT188</name></trkpt>
<trkpt lat="52.082405" lon="05.946903"><ele>150</ele><time>2024-02-22T10:36:03Z</time><name>PT189</name></trkpt>
<trkpt lat="52.082408" lon="05.946892"><ele>150.3</ele><time>2024-02-22T10:36:04Z</time><name>PT190</name></trkpt>
<trkpt lat="52.082413" lon="05.946882"><ele>150.5</ele><time>2024-02-22T10:36:06Z</time><name>PT191</name></trkpt>
<trkpt lat="52.082414" lon="05.946875"><ele>150.6</ele><time>2024-02-22T10:36:06Z</time><name>PT192</name></trkpt>
<trkpt lat="52.082419" lon="05.946857"><ele>150.9</ele><time>2024-02-22T10:36:07Z</time><name>PT193</name></trkpt>
<trkpt lat="52.082426" lon="05.946843"><ele>150.6</ele><time>2024-02-22T10:36:09Z</time><name>PT194</name></trkpt>
<trkpt lat="52.082431" lon="05.946840"><ele>150.6</ele><time>2024-02-22T10:36:09Z</time><name>PT195</name></trkpt>
<trkpt lat="52.082432" lon="05.946838"><ele>150.6</ele><time>2024-02-22T10:36:10Z</time><name>PT196</name></trkpt>
<trkpt lat="52.082432" lon="05.946839"><ele>150.6</ele><time>2024-02-22T10:36:12Z</time><name>PT197</name></trkpt>
<trkpt lat="52.082434" lon="05.946839"><ele>150.5</ele><time>2024-02-22T10:36:12Z</time><name>PT198</name></trkpt>
<trkpt lat="52.082437" lon="05.946839"><ele>150.5</ele><time>2024-02-22T10:36:13Z</time><name>PT199</name></trkpt>
<trkpt lat="52.082439" lon="05.946824"><ele>150.4</ele><time>2024-02-22T10:36:15Z</time><name>PT200</name></trkpt>
<trkpt lat="52.082442" lon="05.946810"><ele>150.5</ele><time>2024-02-22T10:36:16Z</time><name>PT201</name></trkpt>
<trkpt lat="52.082448" lon="05.946794"><ele>150.6</ele><time>2024-02-22T10:36:18Z</time><name>PT202</name></trkpt>
<trkpt lat="52.082458" lon="05.946776"><ele>150.8</ele><time>2024-02-22T10:36:18Z</time><name>PT203</name></trkpt>
<trkpt lat="52.082464" lon="05.946756"><ele>150.9</ele><time>2024-02-22T10:36:19Z</time><name>PT204</name></trkpt>
<trkpt lat="52.082470" lon="05.946740"><ele>151</ele><time>2024-02-22T10:36:21Z</time><name>PT205</name></trkpt>
<trkpt lat="52.082473" lon="05.946722"><ele>151</ele><time>2024-02-22T10:36:21Z</time><name>PT206</name></trkpt>
<trkpt lat="52.082479" lon="05.946703"><ele>150.9</ele><time>2024-02-22T10:36:22Z</time><name>PT207</name></trkpt>
<trkpt lat="52.082487" lon="05.946688"><ele>150.9</ele><time>2024-02-22T10:36:24Z</time><name>PT208</name></trkpt>
<trkpt lat="52.082494" lon="05.946671"><ele>150.9</ele><time>2024-02-22T10:36:24Z</time><name>PT209</name></trkpt>
<trkpt lat="52.082503" lon="05.946654"><ele>151</ele><time>2024-02-22T10:36:25Z</time><name>PT210</name></trkpt>
<trkpt lat="52.082515" lon="05.946636"><ele>151.1</ele><time>2024-02-22T10:36:27Z</time><name>PT211</name></trkpt>
<trkpt lat="52.082524" lon="05.946612"><ele>151.3</ele><time>2024-02-22T10:36:27Z</time><name>PT212</name></trkpt>
<trkpt lat="52.082531" lon="05.946589"><ele>151.4</ele><time>2024-02-22T10:36:28Z</time><name>PT213</name></trkpt>
<trkpt lat="52.082542" lon="05.946567"><ele>151.4</ele><time>2024-02-22T10:36:29Z</time><name>PT214</name></trkpt>
<trkpt lat="52.082551" lon="05.946543"><ele>151.7</ele><time>2024-02-22T10:36:30Z</time><name>PT215</name></trkpt>
<trkpt lat="52.082560" lon="05.946520"><ele>151.7</ele><time>2024-02-22T10:36:31Z</time><name>PT216</name></trkpt>
<trkpt lat="52.082569" lon="05.946493"><ele>151.7</ele><time>2024-02-22T10:36:33Z</time><name>PT217</name></trkpt>
<trkpt lat="52.082580" lon="05.946471"><ele>151.7</ele><time>2024-02-22T10:36:33Z</time><name>PT218</name></trkpt>
<trkpt lat="52.082587" lon="05.946452"><ele>151.6</ele><time>2024-02-22T10:36:34Z</time><name>PT219</name></trkpt>
<trkpt lat="52.082594" lon="05.946436"><ele>151.4</ele><time>2024-02-22T10:36:36Z</time><name>PT220</name></trkpt>
<trkpt lat="52.082600" lon="05.946419"><ele>151.4</ele><time>2024-02-22T10:36:36Z</time><name>PT221</name></trkpt>
<trkpt lat="52.082609" lon="05.946404"><ele>151.5</ele><time>2024-02-22T10:36:37Z</time><name>PT222</name></trkpt>
<trkpt lat="52.082614" lon="05.946390"><ele>151.7</ele><time>2024-02-22T10:36:39Z</time><name>PT223</name></trkpt>
<trkpt lat="52.082621" lon="05.946380"><ele>151.8</ele><time>2024-02-22T10:36:39Z</time><name>PT224</name></trkpt>
<trkpt lat="52.082629" lon="05.946372"><ele>151.9</ele><time>2024-02-22T10:36:40Z</time><name>PT225</name></trkpt>
<trkpt lat="52.082635" lon="05.946362"><ele>151.9</ele><time>2024-02-22T10:36:41Z</time><name>PT226</name></trkpt>
<trkpt lat="52.082642" lon="05.946353"><ele>152.1</ele><time>2024-02-22T10:36:42Z</time><name>PT227</name></trkpt>
<trkpt lat="52.082648" lon="05.946341"><ele>152.3</ele><time>2024-02-22T10:36:43Z</time><name>PT228</name></trkpt>
<trkpt lat="52.082654" lon="05.946333"><ele>152.5</ele><time>2024-02-22T10:36:45Z</time><name>PT229</name></trkpt>
<trkpt lat="52.082664" lon="05.946324"><ele>152.7</ele><time>2024-02-22T10:36:45Z</time><name>PT230</name></trkpt>
<trkpt lat="52.082673" lon="05.946310"><ele>152.8</ele><time>2024-02-22T10:36:46Z</time><name>PT231</name></trkpt>
<trkpt lat="52.082683" lon="05.946295"><ele>152.8</ele><time>2024-02-22T10:36:48Z</time><name>PT232</name></trkpt>
<trkpt lat="52.082695" lon="05.946274"><ele>152.7</ele><time>2024-02-22T10:36:48Z</time><name>PT233</name></trkpt>
<trkpt lat="52.082707" lon="05.946252"><ele>152.8</ele><time>2024-02-22T10:36:49Z</time><name>PT234</name></trkpt>
<trkpt lat="52.082718" lon="05.946234"><ele>152.9</ele><time>2024-02-22T10:36:51Z</time><name>PT235</name></trkpt>
<trkpt lat="52.082726" lon="05.946224"><ele>152.9</ele><time>2024-02-22T10:36:51Z</time><name>PT236</name></trkpt>
<trkpt lat="52.082736" lon="05.946211"><ele>153.1</ele><time>2024-02-22T10:36:52Z</time><name>PT237</name></trkpt>
<trkpt lat="52.082742" lon="05.946197"><ele>153.4</ele><time>2024-02-22T10:36:54Z</time><name>PT238</name></trkpt>
<trkpt lat="52.082748" lon="05.946182"><ele>153.4</ele><time>2024-02-22T10:36:54Z</time><name>PT239</name></trkpt>
<trkpt lat="52.082752" lon="05.946171"><ele>153.3</ele><time>2024-02-22T10:36:55Z</time><name>PT240</name></trkpt>
<trkpt lat="52.082755" lon="05.946160"><ele>153.4</ele><time>2024-02-22T10:36:57Z</time><name>PT241</name></trkpt>
<trkpt lat="52.082759" lon="05.946153"><ele>153.4</ele><time>2024-02-22T10:36:57Z</time><name>PT242</name></trkpt>
<trkpt lat="52.082763" lon="05.946142"><ele>153.3</ele><time>2024-02-22T10:36:58Z</time><name>PT243</name></trkpt>
<trkpt lat="52.082770" lon="05.946131"><ele>153.4</ele><time>2024-02-22T10:36:59Z</time><name>PT244</name></trkpt>
<trkpt lat="52.082781" lon="05.946118"><ele>153.3</ele><time>2024-02-22T10:37:00Z</time><name>PT245</name></trkpt>
<trkpt lat="52.082794" lon="05.946106"><ele>153.1</ele><time>2024-02-22T10:37:01Z</time><name>PT246</name></trkpt>
<trkpt lat="52.082801" lon="05.946095"><ele>153.4</ele><time>2024-02-22T10:37:02Z</time><name>PT247</name></trkpt>
<trkpt lat="52.082807" lon="05.946086"><ele>153.4</ele><time>2024-02-22T10:37:03Z</time><name>PT248</name></trkpt>
<trkpt lat="52.082816" lon="05.946074"><ele>153.4</ele><time>2024-02-22T10:37:04Z</time><name>PT249</name></trkpt>
<trkpt lat="52.082823" lon="05.946061"><ele>153.4</ele><time>2024-02-22T10:37:06Z</time><name>PT250</name></trkpt>
<trkpt lat="52.082830" lon="05.946050"><ele>153.5</ele><time>2024-02-22T10:37:06Z</time><name>PT251</name></trkpt>
<trkpt lat="52.082839" lon="05.946047"><ele>153.7</ele><time>2024-02-22T10:37:07Z</time><name>PT252</name></trkpt>
<trkpt lat="52.082844" lon="05.946039"><ele>153.7</ele><time>2024-02-22T10:37:09Z</time><name>PT253</name></trkpt>
<trkpt lat="52.082849" lon="05.946029"><ele>153.8</ele><time>2024-02-22T10:37:09Z</time><name>PT254</name></trkpt>
<trkpt lat="52.082856" lon="05.946017"><ele>154</ele><time>2024-02-22T10:37:10Z</time><name>PT255</name></trkpt>
<trkpt lat="52.082863" lon="05.946006"><ele>153.9</ele><time>2024-02-22T10:37:12Z</time><name>PT256</name></trkpt>
<trkpt lat="52.082875" lon="05.945995"><ele>153.9</ele><time>2024-02-22T10:37:12Z</time><name>PT257</name></trkpt>
<trkpt lat="52.082887" lon="05.945983"><ele>153.8</ele><time>2024-02-22T10:37:13Z</time><name>PT258</name></trkpt>
<trkpt lat="52.082895" lon="05.945972"><ele>153.8</ele><time>2024-02-22T10:37:15Z</time><name>PT259</name></trkpt>
<trkpt lat="52.082903" lon="05.945960"><ele>153.9</ele><time>2024-02-22T10:37:15Z</time><name>PT260</name></trkpt>
<trkpt lat="52.082911" lon="05.945949"><ele>153.9</ele><time>2024-02-22T10:37:16Z</time><name>PT261</name></trkpt>
<trkpt lat="52.082920" lon="05.945935"><ele>153.8</ele><time>2024-02-22T10:37:18Z</time><name>PT262</name></trkpt>
<trkpt lat="52.082929" lon="05.945920"><ele>153.9</ele><time>2024-02-22T10:37:18Z</time><name>PT263</name></trkpt>
<trkpt lat="52.082935" lon="05.945910"><ele>153.9</ele><time>2024-02-22T10:37:19Z</time><name>PT264</name></trkpt>
<trkpt lat="52.082939" lon="05.945901"><ele>153.9</ele><time>2024-02-22T10:37:21Z</time><name>PT265</name></trkpt>
<trkpt lat="52.082945" lon="05.945889"><ele>153.9</ele><time>2024-02-22T10:37:21Z</time><name>PT266</name></trkpt>
<trkpt lat="52.082951" lon="05.945877"><ele>154</ele><time>2024-02-22T10:37:22Z</time><name>PT267</name></trkpt>
<trkpt lat="52.082957" lon="05.945868"><ele>153.9</ele><time>2024-02-22T10:37:23Z</time><name>PT268</name></trkpt>
<trkpt lat="52.082964" lon="05.945858"><ele>153.7</ele><time>2024-02-22T10:37:24Z</time><name>PT269</name></trkpt>
<trkpt lat="52.082972" lon="05.945844"><ele>153.7</ele><time>2024-02-22T10:37:25Z</time><name>PT270</name></trkpt>
<trkpt lat="52.082977" lon="05.945826"><ele>153.7</ele><time>2024-02-22T10:37:26Z</time><name>PT271</name></trkpt>
<trkpt lat="52.082983" lon="05.945809"><ele>153.7</ele><time>2024-02-22T10:37:27Z</time><name>PT272</name></trkpt>
<trkpt lat="52.082987" lon="05.945796"><ele>153.7</ele><time>2024-02-22T10:37:28Z</time><name>PT273</name></trkpt>
<trkpt lat="52.082990" lon="05.945780"><ele>153.9</ele><time>2024-02-22T10:37:30Z</time><name>PT274</name></trkpt>
<trkpt lat="52.083001" lon="05.945756"><ele>153.9</ele><time>2024-02-22T10:37:30Z</time><name>PT275</name></trkpt>
<trkpt lat="52.083008" lon="05.945737"><ele>153.8</ele><time>2024-02-22T10:37:31Z</time><name>PT276</name></trkpt>
<trkpt lat="52.083013" lon="05.945721"><ele>153.8</ele><time>2024-02-22T10:37:33Z</time><name>PT277</name></trkpt>
<trkpt lat="52.083017" lon="05.945706"><ele>153.8</ele><time>2024-02-22T10:37:33Z</time><name>PT278</name></trkpt>
<trkpt lat="52.083022" lon="05.945689"><ele>153.6</ele><time>2024-02-22T10:37:34Z</time><name>PT279</name></trkpt>
<trkpt lat="52.083024" lon="05.945677"><ele>153.5</ele><time>2024-02-22T10:37:36Z</time><name>PT280</name></trkpt>
<trkpt lat="52.083028" lon="05.945660"><ele>153.4</ele><time>2024-02-22T10:37:36Z</time><name>PT281</name></trkpt>
<trkpt lat="52.083031" lon="05.945641"><ele>153.5</ele><time>2024-02-22T10:37:37Z</time><name>PT282</name></trkpt>
<trkpt lat="52.083041" lon="05.945622"><ele>153.5</ele><time>2024-02-22T10:37:38Z</time><name>PT283</name></trkpt>
<trkpt lat="52.083049" lon="05.945603"><ele>153.7</ele><time>2024-02-22T10:37:39Z</time><name>PT284</name></trkpt>
<trkpt lat="52.083054" lon="05.945586"><ele>153.7</ele><time>2024-02-22T10:37:40Z</time><name>PT285</name></trkpt>
<trkpt lat="52.083057" lon="05.945569"><ele>153.9</ele><time>2024-02-22T10:37:42Z</time><name>PT286</name></trkpt>
<trkpt lat="52.083060" lon="05.945554"><ele>153.9</ele><time>2024-02-22T10:37:42Z</time><name>PT287</name></trkpt>
<trkpt lat="52.083064" lon="05.945539"><ele>153.9</ele><time>2024-02-22T10:37:43Z</time><name>PT288</name></trkpt>
<trkpt lat="52.083070" lon="05.945524"><ele>153.8</ele><time>2024-02-22T10:37:45Z</time><name>PT289</name></trkpt>
<trkpt lat="52.083074" lon="05.945510"><ele>153.7</ele><time>2024-02-22T10:37:45Z</time><name>PT290</name></trkpt>
<trkpt lat="52.083079" lon="05.945503"><ele>153.6</ele><time>2024-02-22T10:37:46Z</time><name>PT291</name></trkpt>
<trkpt lat="52.083085" lon="05.945491"><ele>153.7</ele><time>2024-02-22T10:37:48Z</time><name>PT292</name></trkpt>
<trkpt lat="52.083088" lon="05.945468"><ele>153.7</ele><time>2024-02-22T10:37:48Z</time><name>PT293</name></trkpt>
<trkpt lat="52.083092" lon="05.945447"><ele>154</ele><time>2024-02-22T10:37:49Z</time><name>PT294</name></trkpt>
<trkpt lat="52.083094" lon="05.945436"><ele>154</ele><time>2024-02-22T10:37:50Z</time><name>PT295</name></trkpt>
<trkpt lat="52.083099" lon="05.945423"><ele>154</ele><time>2024-02-22T10:37:51Z</time><name>PT296</name></trkpt>
<trkpt lat="52.083104" lon="05.945397"><ele>154</ele><time>2024-02-22T10:37:52Z</time><name>PT297</name></trkpt>
<trkpt lat="52.083110" lon="05.945370"><ele>153.8</ele><time>2024-02-22T10:37:54Z</time><name>PT298</name></trkpt>
<trkpt lat="52.083113" lon="05.945349"><ele>153.6</ele><time>2024-02-22T10:37:54Z</time><name>PT299</name></trkpt>
<trkpt lat="52.083117" lon="05.945337"><ele>153.6</ele><time>2024-02-22T10:37:55Z</time><name>PT300</name></trkpt>
<trkpt lat="52.083122" lon="05.945326"><ele>153.5</ele><time>2024-02-22T10:37:57Z</time><name>PT301</name></trkpt>
<trkpt lat="52.083127" lon="05.945314"><ele>153.4</ele><time>2024-02-22T10:37:57Z</time><name>PT302</name></trkpt>
<trkpt lat="52.083131" lon="05.945301"><ele>153.6</ele><time>2024-02-22T10:37:58Z</time><name>PT303</name></trkpt>
<trkpt lat="52.083135" lon="05.945286"><ele>153.8</ele><time>2024-02-22T10:38:00Z</time><name>PT304</name></trkpt>
<trkpt lat="52.083140" lon="05.945269"><ele>153.7</ele><time>2024-02-22T10:38:00Z</time><name>PT305</name></trkpt>
<trkpt lat="52.083142" lon="05.945248"><ele>153.7</ele><time>2024-02-22T10:38:01Z</time><name>PT306</name></trkpt>
<trkpt lat="52.083146" lon="05.945235"><ele>153.8</ele><time>2024-02-22T10:38:02Z</time><name>PT307</name></trkpt>
<trkpt lat="52.083151" lon="05.945218"><ele>153.7</ele><time>2024-02-22T10:38:03Z</time><name>PT308</name></trkpt>
<trkpt lat="52.083156" lon="05.945192"><ele>153.5</ele><time>2024-02-22T10:38:04Z</time><name>PT309</name></trkpt>
<trkpt lat="52.083166" lon="05.945173"><ele>153.5</ele><time>2024-02-22T10:38:06Z</time><name>PT310</name></trkpt>
<trkpt lat="52.083175" lon="05.945150"><ele>153.5</ele><time>2024-02-22T10:38:06Z</time><name>PT311</name></trkpt>
<trkpt lat="52.083183" lon="05.945127"><ele>153.6</ele><time>2024-02-22T10:38:07Z</time><name>PT312</name></trkpt>
<trkpt lat="52.083190" lon="05.945106"><ele>153.5</ele><time>2024-02-22T10:38:09Z</time><name>PT313</name></trkpt>
<trkpt lat="52.083193" lon="05.945095"><ele>153.5</ele><time>2024-02-22T10:38:09Z</time><name>PT314</name></trkpt>
<trkpt lat="52.083197" lon="05.945077"><ele>153.5</ele><time>2024-02-22T10:38:10Z</time><name>PT315</name></trkpt>
<trkpt lat="52.083200" lon="05.945062"><ele>153.6</ele><time>2024-02-22T10:38:12Z</time><name>PT316</name></trkpt>
<trkpt lat="52.083203" lon="05.945051"><ele>153.5</ele><time>2024-02-22T10:38:12Z</time><name>PT317</name></trkpt>
<trkpt lat="52.083203" lon="05.945041"><ele>153.5</ele><time>2024-02-22T10:38:13Z</time><name>PT318</name></trkpt>
<trkpt lat="52.083207" lon="05.945029"><ele>153.7</ele><time>2024-02-22T10:38:15Z</time><name>PT319</name></trkpt>
<trkpt lat="52.083217" lon="05.945014"><ele>153.7</ele><time>2024-02-22T10:38:15Z</time><name>PT320</name></trkpt>
<trkpt lat="52.083228" lon="05.944994"><ele>153.8</ele><time>2024-02-22T10:38:16Z</time><name>PT321</name></trkpt>
<trkpt lat="52.083242" lon="05.944966"><ele>154</ele><time>2024-02-22T10:38:17Z</time><name>PT322</name></trkpt>
<trkpt lat="52.083254" lon="05.944934"><ele>154.2</ele><time>2024-02-22T10:38:18Z</time><name>PT323</name></trkpt>
<trkpt lat="52.083262" lon="05.944912"><ele>154.3</ele><time>2024-02-22T10:38:19Z</time><name>PT324</name></trkpt>
<trkpt lat="52.083270" lon="05.944892"><ele>154.4</ele><time>2024-02-22T10:38:21Z</time><name>PT325</name></trkpt>
<trkpt lat="52.083279" lon="05.944871"><ele>154.4</ele><time>2024-02-22T10:38:21Z</time><name>PT326</name></trkpt>
<trkpt lat="52.083288" lon="05.944850"><ele>154.4</ele><time>2024-02-22T10:38:22Z</time><name>PT327</name></trkpt>
<trkpt lat="52.083296" lon="05.944829"><ele>154.5</ele><time>2024-02-22T10:38:24Z</time><name>PT328</name></trkpt>
<trkpt lat="52.083301" lon="05.944806"><ele>154.4</ele><time>2024-02-22T10:38:24Z</time><name>PT329</name></trkpt>
<trkpt lat="52.083305" lon="05.944782"><ele>154.6</ele><time>2024-02-22T10:38:25Z</time><name>PT330</name></trkpt>
<trkpt lat="52.083309" lon="05.944759"><ele>154.4</ele><time>2024-02-22T10:38:27Z</time><name>PT331</name></trkpt>
<trkpt lat="52.083316" lon="05.944740"><ele>154.4</ele><time>2024-02-22T10:38:27Z</time><name>PT332</name></trkpt>
<trkpt lat="52.083325" lon="05.944721"><ele>154.5</ele><time>2024-02-22T10:38:28Z</time><name>PT333</name></trkpt>
<trkpt lat="52.083329" lon="05.944704"><ele>154.4</ele><time>2024-02-22T10:38:30Z</time><name>PT334</name></trkpt>
<trkpt lat="52.083336" lon="05.944685"><ele>154.4</ele><time>2024-02-22T10:38:30Z</time><name>PT335</name></trkpt>
<trkpt lat="52.083341" lon="05.944669"><ele>154.4</ele><time>2024-02-22T10:38:31Z</time><name>PT336</name></trkpt>
<trkpt lat="52.083345" lon="05.944653"><ele>154.4</ele><time>2024-02-22T10:38:33Z</time><name>PT337</name></trkpt>
<trkpt lat="52.083350" lon="05.944636"><ele>154.2</ele><time>2024-02-22T10:38:33Z</time><name>PT338</name></trkpt>
<trkpt lat="52.083354" lon="05.944620"><ele>154.4</ele><time>2024-02-22T10:38:34Z</time><name>PT339</name></trkpt>
<trkpt lat="52.083360" lon="05.944605"><ele>154.6</ele><time>2024-02-22T10:38:35Z</time><name>PT340</name></trkpt>
<trkpt lat="52.083364" lon="05.944590"><ele>154.6</ele><time>2024-02-22T10:38:36Z</time><name>PT341</name></trkpt>
<trkpt lat="52.083371" lon="05.944575"><ele>154.7</ele><time>2024-02-22T10:38:37Z</time><name>PT342</name></trkpt>
<trkpt lat="52.083376" lon="05.944561"><ele>154.7</ele><time>2024-02-22T10:38:39Z</time><name>PT343</name></trkpt>
<trkpt lat="52.083381" lon="05.944545"><ele>154.7</ele><time>2024-02-22T10:38:39Z</time><name>PT344</name></trkpt>
<trkpt lat="52.083387" lon="05.944531"><ele>154.6</ele><time>2024-02-22T10:38:40Z</time><name>PT345</name></trkpt>
<trkpt lat="52.083394" lon="05.944518"><ele>154.6</ele><time>2024-02-22T10:38:42Z</time><name>PT346</name></trkpt>
<trkpt lat="52.083403" lon="05.944507"><ele>154.8</ele><time>2024-02-22T10:38:42Z</time><name>PT347</name></trkpt>
<trkpt lat="52.083410" lon="05.944494"><ele>154.8</ele><time>2024-02-22T10:38:43Z</time><name>PT348</name></trkpt>
<trkpt lat="52.083417" lon="05.944478"><ele>154.7</ele><time>2024-02-22T10:38:45Z</time><name>PT349</name></trkpt>
<trkpt lat="52.083424" lon="05.944461"><ele>154.7</ele><time>2024-02-22T10:38:45Z</time><name>PT350</name></trkpt>
<trkpt lat="52.083430" lon="05.944444"><ele>155</ele><time>2024-02-22T10:38:46Z</time><name>PT351</name></trkpt>
<trkpt lat="52.083437" lon="05.944431"><ele>155.1</ele><time>2024-02-22T10:38:48Z</time><name>PT352</name></trkpt>
<trkpt lat="52.083441" lon="05.944417"><ele>155.1</ele><time>2024-02-22T10:38:48Z</time><name>PT353</name></trkpt>
<trkpt lat="52.083447" lon="05.944398"><ele>155.2</ele><time>2024-02-22T10:38:49Z</time><name>PT354</name></trkpt>
<trkpt lat="52.083451" lon="05.944380"><ele>155.2</ele><time>2024-02-22T10:38:51Z</time><name>PT355</name></trkpt>
<trkpt lat="52.083456" lon="05.944363"><ele>155.1</ele><time>2024-02-22T10:38:51Z</time><name>PT356</name></trkpt>
<trkpt lat="52.083462" lon="05.944344"><ele>155.1</ele><time>2024-02-22T10:38:52Z</time><name>PT357</name></trkpt>
<trkpt lat="52.083467" lon="05.944325"><ele>155.1</ele><time>2024-02-22T10:38:54Z</time><name>PT358</name></trkpt>
<trkpt lat="52.083470" lon="05.944309"><ele>155.1</ele><time>2024-02-22T10:38:54Z</time><name>PT359</name></trkpt>
<trkpt lat="52.083472" lon="05.944296"><ele>155.1</ele><time>2024-02-22T10:38:55Z</time><name>PT360</name></trkpt>
<trkpt lat="52.083475" lon="05.944281"><ele>155.1</ele><time>2024-02-22T10:38:57Z</time><name>PT361</name></trkpt>
<trkpt lat="52.083480" lon="05.944262"><ele>155.1</ele><time>2024-02-22T10:38:57Z</time><name>PT362</name></trkpt>
<trkpt lat="52.083485" lon="05.944242"><ele>155.1</ele><time>2024-02-22T10:38:58Z</time><name>PT363</name></trkpt>
<trkpt lat="52.083490" lon="05.944224"><ele>155.2</ele><time>2024-02-22T10:39:00Z</time><name>PT364</name></trkpt>
<trkpt lat="52.083495" lon="05.944210"><ele>155.1</ele><time>2024-02-22T10:39:00Z</time><name>PT365</name></trkpt>
<trkpt lat="52.083495" lon="05.944195"><ele>155.3</ele><time>2024-02-22T10:39:01Z</time><name>PT366</name></trkpt>
<trkpt lat="52.083498" lon="05.944184"><ele>155.3</ele><time>2024-02-22T10:39:03Z</time><name>PT367</name></trkpt>
<trkpt lat="52.083502" lon="05.944169"><ele>155.3</ele><time>2024-02-22T10:39:03Z</time><name>PT368</name></trkpt>
<trkpt lat="52.083494" lon="05.944147"><ele>155.2</ele><time>2024-02-22T10:39:04Z</time><name>PT369</name></trkpt>
<trkpt lat="52.083495" lon="05.944124"><ele>155.2</ele><time>2024-02-22T10:39:06Z</time><name>PT370</name></trkpt>
<trkpt lat="52.083502" lon="05.944107"><ele>155.1</ele><time>2024-02-22T10:39:06Z</time><name>PT371</name></trkpt>
<trkpt lat="52.083511" lon="05.944088"><ele>155.2</ele><time>2024-02-22T10:39:07Z</time><name>PT372</name></trkpt>
<trkpt lat="52.083521" lon="05.944070"><ele>155.2</ele><time>2024-02-22T10:39:09Z</time><name>PT373</name></trkpt>
<trkpt lat="52.083532" lon="05.944051"><ele>155.2</ele><time>2024-02-22T10:39:09Z</time><name>PT374</name></trkpt>
<trkpt lat="52.083541" lon="05.944031"><ele>155.3</ele><time>2024-02-22T10:39:10Z</time><name>PT375</name></trkpt>
<trkpt lat="52.083546" lon="05.944013"><ele>155.4</ele><time>2024-02-22T10:39:12Z</time><name>PT376</name></trkpt>
<trkpt lat="52.083551" lon="05.943997"><ele>155.5</ele><time>2024-02-22T10:39:12Z</time><name>PT377</name></trkpt>
<trkpt lat="52.083556" lon="05.943982"><ele>155.4</ele><time>2024-02-22T10:39:13Z</time><name>PT378</name></trkpt>
<trkpt lat="52.083560" lon="05.943968"><ele>155.5</ele><time>2024-02-22T10:39:15Z</time><name>PT379</name></trkpt>
<trkpt lat="52.083565" lon="05.943957"><ele>155.3</ele><time>2024-02-22T10:39:15Z</time><name>PT380</name></trkpt>
<trkpt lat="52.083573" lon="05.943945"><ele>155.3</ele><time>2024-02-22T10:39:16Z</time><name>PT381</name></trkpt>
<trkpt lat="52.083581" lon="05.943932"><ele>155.3</ele><time>2024-02-22T10:39:18Z</time><name>PT382</name></trkpt>
<trkpt lat="52.083586" lon="05.943919"><ele>155.3</ele><time>2024-02-22T10:39:18Z</time><name>PT383</name></trkpt>
<trkpt lat="52.083594" lon="05.943905"><ele>155.4</ele><time>2024-02-22T10:39:19Z</time><name>PT384</name></trkpt>
<trkpt lat="52.083598" lon="05.943888"><ele>155.6</ele><time>2024-02-22T10:39:21Z</time><name>PT385</name></trkpt>
<trkpt lat="52.083602" lon="05.943867"><ele>155.6</ele><time>2024-02-22T10:39:21Z</time><name>PT386</name></trkpt>
<trkpt lat="52.083608" lon="05.943851"><ele>155.3</ele><time>2024-02-22T10:39:22Z</time><name>PT387</name></trkpt>
<trkpt lat="52.083614" lon="05.943834"><ele>155.2</ele><time>2024-02-22T10:39:23Z</time><name>PT388</name></trkpt>
<trkpt lat="52.083616" lon="05.943817"><ele>155.3</ele><time>2024-02-22T10:39:24Z</time><name>PT389</name></trkpt>
<trkpt lat="52.083616" lon="05.943812"><ele>155.1</ele><time>2024-02-22T10:39:25Z</time><name>PT390</name></trkpt>
<trkpt lat="52.083618" lon="05.943798"><ele>155.2</ele><time>2024-02-22T10:39:27Z</time><name>PT391</name></trkpt>
<trkpt lat="52.083623" lon="05.943786"><ele>155.4</ele><time>2024-02-22T10:39:27Z</time><name>PT392</name></trkpt>
<trkpt lat="52.083626" lon="05.943769"><ele>155.3</ele><time>2024-02-22T10:39:28Z</time><name>PT393</name></trkpt>
<trkpt lat="52.083632" lon="05.943754"><ele>155.3</ele><time>2024-02-22T10:39:29Z</time><name>PT394</name></trkpt>
<trkpt lat="52.083636" lon="05.943743"><ele>155.3</ele><time>2024-02-22T10:39:30Z</time><name>PT395</name></trkpt>
<trkpt lat="52.083644" lon="05.943729"><ele>155.3</ele><time>2024-02-22T10:39:31Z</time><name>PT396</name></trkpt>
<trkpt lat="52.083650" lon="05.943715"><ele>155.5</ele><time>2024-02-22T10:39:33Z</time><name>PT397</name></trkpt>
<trkpt lat="52.083654" lon="05.943701"><ele>155.5</ele><time>2024-02-22T10:39:33Z</time><name>PT398</name></trkpt>
<trkpt lat="52.083664" lon="05.943677"><ele>155.5</ele><time>2024-02-22T10:39:34Z</time><name>PT399</name></trkpt>
<trkpt lat="52.083671" lon="05.943657"><ele>155.4</ele><time>2024-02-22T10:39:36Z</time><name>PT400</name></trkpt>
<trkpt lat="52.083672" lon="05.943638"><ele>155.6</ele><time>2024-02-22T10:39:36Z</time><name>PT401</name></trkpt>
<trkpt lat="52.083671" lon="05.943618"><ele>155.5</ele><time>2024-02-22T10:39:37Z</time><name>PT402</name></trkpt>
<trkpt lat="52.083674" lon="05.943602"><ele>155.4</ele><time>2024-02-22T10:39:39Z</time><name>PT403</name></trkpt>
<trkpt lat="52.083677" lon="05.943588"><ele>155.4</ele><time>2024-02-22T10:39:39Z</time><name>PT404</name></trkpt>
<trkpt lat="52.083684" lon="05.943569"><ele>155.4</ele><time>2024-02-22T10:39:40Z</time><name>PT405</name></trkpt>
<trkpt lat="52.083687" lon="05.943556"><ele>155.2</ele><time>2024-02-22T10:39:41Z</time><name>PT406</name></trkpt>
<trkpt lat="52.083683" lon="05.943541"><ele>155.2</ele><time>2024-02-22T10:39:42Z</time><name>PT407</name></trkpt>
<trkpt lat="52.083681" lon="05.943534"><ele>155.4</ele><time>2024-02-22T10:39:43Z</time><name>PT408</name></trkpt>
<trkpt lat="52.083676" lon="05.943521"><ele>155.2</ele><time>2024-02-22T10:39:44Z</time><name>PT409</name></trkpt>
<trkpt lat="52.083672" lon="05.943507"><ele>155.2</ele><time>2024-02-22T10:39:45Z</time><name>PT410</name></trkpt>
<trkpt lat="52.083667" lon="05.943503"><ele>155.1</ele><time>2024-02-22T10:39:46Z</time><name>PT411</name></trkpt>
<trkpt lat="52.083666" lon="05.943505"><ele>155.2</ele><time>2024-02-22T10:39:48Z</time><name>PT412</name></trkpt>
<trkpt lat="52.083666" lon="05.943501"><ele>155.3</ele><time>2024-02-22T10:39:48Z</time><name>PT413</name></trkpt>
<trkpt lat="52.083663" lon="05.943491"><ele>155.3</ele><time>2024-02-22T10:39:49Z</time><name>PT414</name></trkpt>
<trkpt lat="52.083664" lon="05.943485"><ele>155.6</ele><time>2024-02-22T10:39:51Z</time><name>PT415</name></trkpt>
<trkpt lat="52.083666" lon="05.943482"><ele>155.6</ele><time>2024-02-22T10:39:51Z</time><name>PT416</name></trkpt>
<trkpt lat="52.083667" lon="05.943480"><ele>155.4</ele><time>2024-02-22T10:39:52Z</time><name>PT417</name></trkpt>
<trkpt lat="52.083667" lon="05.943470"><ele>155.3</ele><time>2024-02-22T10:39:54Z</time><name>PT418</name></trkpt>
<trkpt lat="52.083664" lon="05.943446"><ele>155.4</ele><time>2024-02-22T10:39:54Z</time><name>PT419</name></trkpt>
<trkpt lat="52.083647" lon="05.943434"><ele>155.4</ele><time>2024-02-22T10:39:55Z</time><name>PT420</name></trkpt>
<trkpt lat="52.083633" lon="05.943426"><ele>155.6</ele><time>2024-02-22T10:39:57Z</time><name>PT421</name></trkpt>
<trkpt lat="52.083622" lon="05.943412"><ele>155.7</ele><time>2024-02-22T10:39:57Z</time><name>PT422</name></trkpt>
<trkpt lat="52.083609" lon="05.943401"><ele>156</ele><time>2024-02-22T10:39:58Z</time><name>PT423</name></trkpt>
<trkpt lat="52.083599" lon="05.943394"><ele>156.2</ele><time>2024-02-22T10:40:00Z</time><name>PT424</name></trkpt>
<trkpt lat="52.083587" lon="05.943387"><ele>156.3</ele><time>2024-02-22T10:40:00Z</time><name>PT425</name></trkpt>
<trkpt lat="52.083575" lon="05.943379"><ele>156.7</ele><time>2024-02-22T10:40:01Z</time><name>PT426</name></trkpt>
<trkpt lat="52.083572" lon="05.943368"><ele>156.6</ele><time>2024-02-22T10:40:03Z</time><name>PT427</name></trkpt>
<trkpt lat="52.083567" lon="05.943361"><ele>156.7</ele><time>2024-02-22T10:40:03Z</time><name>PT428</name></trkpt>
<trkpt lat="52.083562" lon="05.943359"><ele>156.9</ele><time>2024-02-22T10:40:04Z</time><name>PT429</name></trkpt>
<trkpt lat="52.083556" lon="05.943350"><ele>156.9</ele><time>2024-02-22T10:40:06Z</time><name>PT430</name></trkpt>
<trkpt lat="52.083552" lon="05.943347"><ele>156.9</ele><time>2024-02-22T10:40:06Z</time><name>PT431</name></trkpt>
<trkpt lat="52.083548" lon="05.943337"><ele>157.1</ele><time>2024-02-22T10:40:07Z</time><name>PT432</name></trkpt>
<trkpt lat="52.083542" lon="05.943332"><ele>157.3</ele><time>2024-02-22T10:40:09Z</time><name>PT433</name></trkpt>
<trkpt lat="52.083534" lon="05.943331"><ele>157.1</ele><time>2024-02-22T10:40:09Z</time><name>PT434</name></trkpt>
<trkpt lat="52.083524" lon="05.943326"><ele>157.1</ele><time>2024-02-22T10:40:10Z</time><name>PT435</name></trkpt>
<trkpt lat="52.083509" lon="05.943318"><ele>156.9</ele><time>2024-02-22T10:40:12Z</time><name>PT436</name></trkpt>
<trkpt lat="52.083494" lon="05.943312"><ele>156.9</ele><time>2024-02-22T10:40:12Z</time><name>PT437</name></trkpt>
<trkpt lat="52.083480" lon="05.943308"><ele>156.7</ele><time>2024-02-22T10:40:13Z</time><name>PT438</name></trkpt>
<trkpt lat="52.083462" lon="05.943306"><ele>156.9</ele><time>2024-02-22T10:40:14Z</time><name>PT439</name></trkpt>
<trkpt lat="52.083447" lon="05.943302"><ele>156.9</ele><time>2024-02-22T10:40:15Z</time><name>PT440</name></trkpt>
<trkpt lat="52.083436" lon="05.943303"><ele>156.9</ele><time>2024-02-22T10:40:16Z</time><name>PT441</name></trkpt>
<trkpt lat="52.083422" lon="05.943306"><ele>156.9</ele><time>2024-02-22T10:40:18Z</time><name>PT442</name></trkpt>
<trkpt lat="52.083409" lon="05.943312"><ele>156.9</ele><time>2024-02-22T10:40:18Z</time><name>PT443</name></trkpt>
<trkpt lat="52.083393" lon="05.943316"><ele>156.9</ele><time>2024-02-22T10:40:19Z</time><name>PT444</name></trkpt>
<trkpt lat="52.083378" lon="05.943323"><ele>156.9</ele><time>2024-02-22T10:40:21Z</time><name>PT445</name></trkpt>
<trkpt lat="52.083366" lon="05.943319"><ele>156.9</ele><time>2024-02-22T10:40:21Z</time><name>PT446</name></trkpt>
<trkpt lat="52.083350" lon="05.943309"><ele>156.8</ele><time>2024-02-22T10:40:22Z</time><name>PT447</name></trkpt>
<trkpt lat="52.083336" lon="05.943302"><ele>156.7</ele><time>2024-02-22T10:40:24Z</time><name>PT448</name></trkpt>
<trkpt lat="52.083321" lon="05.943302"><ele>156.8</ele><time>2024-02-22T10:40:24Z</time><name>PT449</name></trkpt>
<trkpt lat="52.083305" lon="05.943300"><ele>156.8</ele><time>2024-02-22T10:40:25Z</time><name>PT450</name></trkpt>
<trkpt lat="52.083289" lon="05.943302"><ele>156.9</ele><time>2024-02-22T10:40:27Z</time><name>PT451</name></trkpt>
<trkpt lat="52.083276" lon="05.943303"><ele>157.1</ele><time>2024-02-22T10:40:27Z</time><name>PT452</name></trkpt>
<trkpt lat="52.083269" lon="05.943303"><ele>157.2</ele><time>2024-02-22T10:40:28Z</time><name>PT453</name></trkpt>
<trkpt lat="52.083260" lon="05.943303"><ele>157.1</ele><time>2024-02-22T10:40:30Z</time><name>PT454</name></trkpt>
<trkpt lat="52.083246" lon="05.943298"><ele>157.1</ele><time>2024-02-22T10:40:30Z</time><name>PT455</name></trkpt>
<trkpt lat="52.083235" lon="05.943291"><ele>157.1</ele><time>2024-02-22T10:40:31Z</time><name>PT456</name></trkpt>
<trkpt lat="52.083223" lon="05.943283"><ele>157.1</ele><time>2024-02-22T10:40:32Z</time><name>PT457</name></trkpt>
<trkpt lat="52.083211" lon="05.943276"><ele>157.1</ele><time>2024-02-22T10:40:33Z</time><name>PT458</name></trkpt>
<trkpt lat="52.083200" lon="05.943274"><ele>157.4</ele><time>2024-02-22T10:40:34Z</time><name>PT459</name></trkpt>
<trkpt lat="52.083190" lon="05.943271"><ele>157.5</ele><time>2024-02-22T10:40:35Z</time><name>PT460</name></trkpt>
<trkpt lat="52.083178" lon="05.943271"><ele>157.7</ele><time>2024-02-22T10:40:36Z</time><name>PT461</name></trkpt>
<trkpt lat="52.083167" lon="05.943269"><ele>157.8</ele><time>2024-02-22T10:40:37Z</time><name>PT462</name></trkpt>
<trkpt lat="52.083155" lon="05.943265"><ele>158</ele><time>2024-02-22T10:40:39Z</time><name>PT463</name></trkpt>
<trkpt lat="52.083142" lon="05.943260"><ele>158.1</ele><time>2024-02-22T10:40:39Z</time><name>PT464</name></trkpt>
<trkpt lat="52.083133" lon="05.943260"><ele>158.1</ele><time>2024-02-22T10:40:40Z</time><name>PT465</name></trkpt>
<trkpt lat="52.083119" lon="05.943234"><ele>158.2</ele><time>2024-02-22T10:40:41Z</time><name>PT466</name></trkpt>
<trkpt lat="52.083108" lon="05.943223"><ele>158.2</ele><time>2024-02-22T10:40:42Z</time><name>PT467</name></trkpt>
<trkpt lat="52.083101" lon="05.943224"><ele>158</ele><time>2024-02-22T10:40:43Z</time><name>PT468</name></trkpt>
<trkpt lat="52.083091" lon="05.943226"><ele>158</ele><time>2024-02-22T10:40:44Z</time><name>PT469</name></trkpt>
<trkpt lat="52.083082" lon="05.943226"><ele>158</ele><time>2024-02-22T10:40:45Z</time><name>PT470</name></trkpt>
<trkpt lat="52.083072" lon="05.943227"><ele>157.9</ele><time>2024-02-22T10:40:46Z</time><name>PT471</name></trkpt>
<trkpt lat="52.083060" lon="05.943227"><ele>158</ele><time>2024-02-22T10:40:48Z</time><name>PT472</name></trkpt>
<trkpt lat="52.083048" lon="05.943218"><ele>158</ele><time>2024-02-22T10:40:48Z</time><name>PT473</name></trkpt>
<trkpt lat="52.083030" lon="05.943212"><ele>158</ele><time>2024-02-22T10:40:50Z</time><name>PT474</name></trkpt>
<trkpt lat="52.083016" lon="05.943210"><ele>158</ele><time>2024-02-22T10:40:51Z</time><name>PT475</name></trkpt>
<trkpt lat="52.083002" lon="05.943213"><ele>157.9</ele><time>2024-02-22T10:40:51Z</time><name>PT476</name></trkpt>
<trkpt lat="52.082986" lon="05.943219"><ele>157.9</ele><time>2024-02-22T10:40:52Z</time><name>PT477</name></trkpt>
<trkpt lat="52.082973" lon="05.943220"><ele>158.2</ele><time>2024-02-22T10:40:53Z</time><name>PT478</name></trkpt>
<trkpt lat="52.082963" lon="05.943218"><ele>158.1</ele><time>2024-02-22T10:40:54Z</time><name>PT479</name></trkpt>
<trkpt lat="52.082956" lon="05.943221"><ele>158.2</ele><time>2024-02-22T10:40:55Z</time><name>PT480</name></trkpt>
<trkpt lat="52.082949" lon="05.943221"><ele>158.2</ele><time>2024-02-22T10:40:57Z</time><name>PT481</name></trkpt>
<trkpt lat="52.082942" lon="05.943220"><ele>158.2</ele><time>2024-02-22T10:40:57Z</time><name>PT482</name></trkpt>
<trkpt lat="52.082933" lon="05.943218"><ele>158.2</ele><time>2024-02-22T10:40:58Z</time><name>PT483</name></trkpt>
<trkpt lat="52.082924" lon="05.943216"><ele>158.3</ele><time>2024-02-22T10:41:00Z</time><name>PT484</name></trkpt>
<trkpt lat="52.082913" lon="05.943216"><ele>158.3</ele><time>2024-02-22T10:41:00Z</time><name>PT485</name></trkpt>
<trkpt lat="52.082902" lon="05.943211"><ele>158.5</ele><time>2024-02-22T10:41:01Z</time><name>PT486</name></trkpt>
<trkpt lat="52.082885" lon="05.943205"><ele>158.3</ele><time>2024-02-22T10:41:03Z</time><name>PT487</name></trkpt>
<trkpt lat="52.082868" lon="05.943198"><ele>158.3</ele><time>2024-02-22T10:41:03Z</time><name>PT488</name></trkpt>
<trkpt lat="52.082855" lon="05.943185"><ele>158.2</ele><time>2024-02-22T10:41:04Z</time><name>PT489</name></trkpt>
<trkpt lat="52.082840" lon="05.943176"><ele>158.3</ele><time>2024-02-22T10:41:06Z</time><name>PT490</name></trkpt>
<trkpt lat="52.082827" lon="05.943168"><ele>158.3</ele><time>2024-02-22T10:41:06Z</time><name>PT491</name></trkpt>
<trkpt lat="52.082817" lon="05.943168"><ele>158.5</ele><time>2024-02-22T10:41:07Z</time><name>PT492</name></trkpt>
<trkpt lat="52.082807" lon="05.943170"><ele>158.5</ele><time>2024-02-22T10:41:09Z</time><name>PT493</name></trkpt>
<trkpt lat="52.082795" lon="05.943168"><ele>158.5</ele><time>2024-02-22T10:41:09Z</time><name>PT494</name></trkpt>
<trkpt lat="52.082781" lon="05.943164"><ele>158.2</ele><time>2024-02-22T10:41:10Z</time><name>PT495</name></trkpt>
<trkpt lat="52.082769" lon="05.943162"><ele>158</ele><time>2024-02-22T10:41:12Z</time><name>PT496</name></trkpt>
<trkpt lat="52.082760" lon="05.943162"><ele>158.1</ele><time>2024-02-22T10:41:12Z</time><name>PT497</name></trkpt>
<trkpt lat="52.082751" lon="05.943160"><ele>158.1</ele><time>2024-02-22T10:41:13Z</time><name>PT498</name></trkpt>
<trkpt lat="52.082742" lon="05.943159"><ele>158.2</ele><time>2024-02-22T10:41:15Z</time><name>PT499</name></trkpt>
<trkpt lat="52.082731" lon="05.943157"><ele>158.3</ele><time>2024-02-22T10:41:15Z</time><name>PT500</name></trkpt>
<trkpt lat="52.082721" lon="05.943155"><ele>158.5</ele><time>2024-02-22T10:41:16Z</time><name>PT501</name></trkpt>
<trkpt lat="52.082709" lon="05.943155"><ele>158.6</ele><time>2024-02-22T10:41:18Z</time><name>PT502</name></trkpt>
<trkpt lat="52.082696" lon="05.943151"><ele>158.6</ele><time>2024-02-22T10:41:18Z</time><name>PT503</name></trkpt>
<trkpt lat="52.082682" lon="05.943146"><ele>158.6</ele><time>2024-02-22T10:41:19Z</time><name>PT504</name></trkpt>
<trkpt lat="52.082671" lon="05.943140"><ele>158.5</ele><time>2024-02-22T10:41:21Z</time><name>PT505</name></trkpt>
<trkpt lat="52.082659" lon="05.943136"><ele>158.4</ele><time>2024-02-22T10:41:21Z</time><name>PT506</name></trkpt>
<trkpt lat="52.082648" lon="05.943135"><ele>158.4</ele><time>2024-02-22T10:41:22Z</time><name>PT507</name></trkpt>
<trkpt lat="52.082637" lon="05.943131"><ele>158.5</ele><time>2024-02-22T10:41:24Z</time><name>PT508</name></trkpt>
<trkpt lat="52.082624" lon="05.943127"><ele>158.4</ele><time>2024-02-22T10:41:24Z</time><name>PT509</name></trkpt>
<trkpt lat="52.082615" lon="05.943128"><ele>158.5</ele><time>2024-02-22T10:41:25Z</time><name>PT510</name></trkpt>
<trkpt lat="52.082600" lon="05.943127"><ele>158.2</ele><time>2024-02-22T10:41:27Z</time><name>PT511</name></trkpt>
<trkpt lat="52.082585" lon="05.943126"><ele>158.2</ele><time>2024-02-22T10:41:27Z</time><name>PT512</name></trkpt>
<trkpt lat="52.082571" lon="05.943124"><ele>158.1</ele><time>2024-02-22T10:41:28Z</time><name>PT513</name></trkpt>
<trkpt lat="52.082562" lon="05.943116"><ele>158.2</ele><time>2024-02-22T10:41:30Z</time><name>PT514</name></trkpt>
<trkpt lat="52.082553" lon="05.943113"><ele>158.1</ele><time>2024-02-22T10:41:30Z</time><name>PT515</name></trkpt>
<trkpt lat="52.082545" lon="05.943112"><ele>158</ele><time>2024-02-22T10:41:31Z</time><name>PT516</name></trkpt>
<trkpt lat="52.082533" lon="05.943115"><ele>158.1</ele><time>2024-02-22T10:41:33Z</time><name>PT517</name></trkpt>
<trkpt lat="52.082521" lon="05.943114"><ele>158.1</ele><time>2024-02-22T10:41:33Z</time><name>PT518</name></trkpt>
<trkpt lat="52.082515" lon="05.943116"><ele>158</ele><time>2024-02-22T10:41:34Z</time><name>PT519</name></trkpt>
<trkpt lat="52.082507" lon="05.943115"><ele>158</ele><time>2024-02-22T10:41:36Z</time><name>PT520</name></trkpt>
<trkpt lat="52.082499" lon="05.943110"><ele>158</ele><time>2024-02-22T10:41:36Z</time><name>PT521</name></trkpt>
<trkpt lat="52.082487" lon="05.943101"><ele>158</ele><time>2024-02-22T10:41:37Z</time><name>PT522</name></trkpt>
<trkpt lat="52.082476" lon="05.943099"><ele>158</ele><time>2024-02-22T10:41:39Z</time><name>PT523</name></trkpt>
<trkpt lat="52.082465" lon="05.943095"><ele>158</ele><time>2024-02-22T10:41:39Z</time><name>PT524</name></trkpt>
<trkpt lat="52.082451" lon="05.943094"><ele>158.2</ele><time>2024-02-22T10:41:40Z</time><name>PT525</name></trkpt>
<trkpt lat="52.082437" lon="05.943095"><ele>158.4</ele><time>2024-02-22T10:41:42Z</time><name>PT526</name></trkpt>
<trkpt lat="52.082421" lon="05.943094"><ele>158.5</ele><time>2024-02-22T10:41:42Z</time><name>PT527</name></trkpt>
<trkpt lat="52.082410" lon="05.943094"><ele>158.4</ele><time>2024-02-22T10:41:43Z</time><name>PT528</name></trkpt>
<trkpt lat="52.082393" lon="05.943088"><ele>158.5</ele><time>2024-02-22T10:41:44Z</time><name>PT529</name></trkpt>
<trkpt lat="52.082377" lon="05.943092"><ele>158.5</ele><time>2024-02-22T10:41:45Z</time><name>PT530</name></trkpt>
<trkpt lat="52.082362" lon="05.943090"><ele>158.3</ele><time>2024-02-22T10:41:46Z</time><name>PT531</name></trkpt>
<trkpt lat="52.082350" lon="05.943087"><ele>158.2</ele><time>2024-02-22T10:41:47Z</time><name>PT532</name></trkpt>
<trkpt lat="52.082340" lon="05.943080"><ele>158.3</ele><time>2024-02-22T10:41:48Z</time><name>PT533</name></trkpt>
<trkpt lat="52.082331" lon="05.943072"><ele>158.2</ele><time>2024-02-22T10:41:49Z</time><name>PT534</name></trkpt>
<trkpt lat="52.082319" lon="05.943072"><ele>158.4</ele><time>2024-02-22T10:41:50Z</time><name>PT535</name></trkpt>
<trkpt lat="52.082310" lon="05.943073"><ele>158.5</ele><time>2024-02-22T10:41:51Z</time><name>PT536</name></trkpt>
<trkpt lat="52.082307" lon="05.943071"><ele>158.6</ele><time>2024-02-22T10:41:52Z</time><name>PT537</name></trkpt>
<trkpt lat="52.082297" lon="05.943068"><ele>158.8</ele><time>2024-02-22T10:41:53Z</time><name>PT538</name></trkpt>
<trkpt lat="52.082288" lon="05.943066"><ele>158.8</ele><time>2024-02-22T10:41:54Z</time><name>PT539</name></trkpt>
<trkpt lat="52.082276" lon="05.943061"><ele>158.8</ele><time>2024-02-22T10:41:55Z</time><name>PT540</name></trkpt>
<trkpt lat="52.082265" lon="05.943059"><ele>158.7</ele><time>2024-02-22T10:41:56Z</time><name>PT541</name></trkpt>
<trkpt lat="52.082253" lon="05.943060"><ele>158.8</ele><time>2024-02-22T10:41:57Z</time><name>PT542</name></trkpt>
<trkpt lat="52.082232" lon="05.943059"><ele>158.7</ele><time>2024-02-22T10:41:58Z</time><name>PT543</name></trkpt>
<trkpt lat="52.082211" lon="05.943052"><ele>158.6</ele><time>2024-02-22T10:42:00Z</time><name>PT544</name></trkpt>
<trkpt lat="52.082194" lon="05.943050"><ele>158.6</ele><time>2024-02-22T10:42:00Z</time><name>PT545</name></trkpt>
<trkpt lat="52.082179" lon="05.943055"><ele>158.6</ele><time>2024-02-22T10:42:01Z</time><name>PT546</name></trkpt>
<trkpt lat="52.082163" lon="05.943053"><ele>158.3</ele><time>2024-02-22T10:42:03Z</time><name>PT547</name></trkpt>
<trkpt lat="52.082148" lon="05.943048"><ele>158.3</ele><time>2024-02-22T10:42:03Z</time><name>PT548</name></trkpt>
<trkpt lat="52.082133" lon="05.943043"><ele>158.4</ele><time>2024-02-22T10:42:04Z</time><name>PT549</name></trkpt>
<trkpt lat="52.082120" lon="05.943044"><ele>158.1</ele><time>2024-02-22T10:42:05Z</time><name>PT550</name></trkpt>
<trkpt lat="52.082107" lon="05.943042"><ele>158</ele><time>2024-02-22T10:42:06Z</time><name>PT551</name></trkpt>
<trkpt lat="52.082094" lon="05.943042"><ele>157.8</ele><time>2024-02-22T10:42:07Z</time><name>PT552</name></trkpt>
<trkpt lat="52.082078" lon="05.943033"><ele>157.6</ele><time>2024-02-22T10:42:09Z</time><name>PT553</name></trkpt>
<trkpt lat="52.082068" lon="05.943032"><ele>157.6</ele><time>2024-02-22T10:42:09Z</time><name>PT554</name></trkpt>
<trkpt lat="52.082057" lon="05.943034"><ele>157.7</ele><time>2024-02-22T10:42:10Z</time><name>PT555</name></trkpt>
<trkpt lat="52.082046" lon="05.943040"><ele>157.9</ele><time>2024-02-22T10:42:11Z</time><name>PT556</name></trkpt>
<trkpt lat="52.082034" lon="05.943044"><ele>158</ele><time>2024-02-22T10:42:12Z</time><name>PT557</name></trkpt>
<trkpt lat="52.082017" lon="05.943040"><ele>158</ele><time>2024-02-22T10:42:13Z</time><name>PT558</name></trkpt>
<trkpt lat="52.082000" lon="05.943038"><ele>158.1</ele><time>2024-02-22T10:42:15Z</time><name>PT559</name></trkpt>
<trkpt lat="52.081985" lon="05.943035"><ele>158.1</ele><time>2024-02-22T10:42:15Z</time><name>PT560</name></trkpt>
<trkpt lat="52.081969" lon="05.943034"><ele>158.2</ele><time>2024-02-22T10:42:16Z</time><name>PT561</name></trkpt>
<trkpt lat="52.081955" lon="05.943031"><ele>158.2</ele><time>2024-02-22T10:42:17Z</time><name>PT562</name></trkpt>
<trkpt lat="52.081944" lon="05.943030"><ele>158.2</ele><time>2024-02-22T10:42:18Z</time><name>PT563</name></trkpt>
<trkpt lat="52.081937" lon="05.943024"><ele>158.1</ele><time>2024-02-22T10:42:19Z</time><name>PT564</name></trkpt>
<trkpt lat="52.081931" lon="05.943021"><ele>158</ele><time>2024-02-22T10:42:21Z</time><name>PT565</name></trkpt>
<trkpt lat="52.081921" lon="05.943023"><ele>158.1</ele><time>2024-02-22T10:42:21Z</time><name>PT566</name></trkpt>
<trkpt lat="52.081913" lon="05.943019"><ele>157.9</ele><time>2024-02-22T10:42:22Z</time><name>PT567</name></trkpt>
<trkpt lat="52.081904" lon="05.943012"><ele>157.8</ele><time>2024-02-22T10:42:24Z</time><name>PT568</name></trkpt>
<trkpt lat="52.081889" lon="05.943004"><ele>157.7</ele><time>2024-02-22T10:42:24Z</time><name>PT569</name></trkpt>
<trkpt lat="52.081874" lon="05.942998"><ele>157.7</ele><time>2024-02-22T10:42:25Z</time><name>PT570</name></trkpt>
<trkpt lat="52.081858" lon="05.942993"><ele>157.7</ele><time>2024-02-22T10:42:27Z</time><name>PT571</name></trkpt>
<trkpt lat="52.081843" lon="05.942986"><ele>157.7</ele><time>2024-02-22T10:42:27Z</time><name>PT572</name></trkpt>
<trkpt lat="52.081833" lon="05.942986"><ele>157.9</ele><time>2024-02-22T10:42:28Z</time><name>PT573</name></trkpt>
<trkpt lat="52.081826" lon="05.942981"><ele>157.7</ele><time>2024-02-22T10:42:30Z</time><name>PT574</name></trkpt>
<trkpt lat="52.081816" lon="05.942980"><ele>157.7</ele><time>2024-02-22T10:42:30Z</time><name>PT575</name></trkpt>
<trkpt lat="52.081809" lon="05.942978"><ele>157.8</ele><time>2024-02-22T10:42:31Z</time><name>PT576</name></trkpt>
<trkpt lat="52.081800" lon="05.942980"><ele>157.7</ele><time>2024-02-22T10:42:33Z</time><name>PT577</name></trkpt>
<trkpt lat="52.081782" lon="05.942971"><ele>157.7</ele><time>2024-02-22T10:42:33Z</time><name>PT578</name></trkpt>
<trkpt lat="52.081771" lon="05.942964"><ele>157.9</ele><time>2024-02-22T10:42:34Z</time><name>PT579</name></trkpt>
<trkpt lat="52.081757" lon="05.942959"><ele>157.7</ele><time>2024-02-22T10:42:36Z</time><name>PT580</name></trkpt>
<trkpt lat="52.081741" lon="05.942964"><ele>157.8</ele><time>2024-02-22T10:42:36Z</time><name>PT581</name></trkpt>
<trkpt lat="52.081727" lon="05.942966"><ele>157.8</ele><time>2024-02-22T10:42:37Z</time><name>PT582</name></trkpt>
<trkpt lat="52.081717" lon="05.942967"><ele>157.8</ele><time>2024-02-22T10:42:39Z</time><name>PT583</name></trkpt>
<trkpt lat="52.081704" lon="05.942967"><ele>157.7</ele><time>2024-02-22T10:42:39Z</time><name>PT584</name></trkpt>
<trkpt lat="52.081694" lon="05.942963"><ele>157.7</ele><time>2024-02-22T10:42:40Z</time><name>PT585</name></trkpt>
<trkpt lat="52.081684" lon="05.942958"><ele>157.7</ele><time>2024-02-22T10:42:41Z</time><name>PT586</name></trkpt>
<trkpt lat="52.081676" lon="05.942953"><ele>157.6</ele><time>2024-02-22T10:42:42Z</time><name>PT587</name></trkpt>
<trkpt lat="52.081669" lon="05.942955"><ele>157.4</ele><time>2024-02-22T10:42:43Z</time><name>PT588</name></trkpt>
<trkpt lat="52.081660" lon="05.942949"><ele>157.3</ele><time>2024-02-22T10:42:44Z</time><name>PT589</name></trkpt>
<trkpt lat="52.081648" lon="05.942949"><ele>157.3</ele><time>2024-02-22T10:42:45Z</time><name>PT590</name></trkpt>
<trkpt lat="52.081637" lon="05.942942"><ele>157.2</ele><time>2024-02-22T10:42:46Z</time><name>PT591</name></trkpt>
<trkpt lat="52.081623" lon="05.942937"><ele>157.1</ele><time>2024-02-22T10:42:48Z</time><name>PT592</name></trkpt>
<trkpt lat="52.081610" lon="05.942938"><ele>157.3</ele><time>2024-02-22T10:42:48Z</time><name>PT593</name></trkpt>
<trkpt lat="52.081597" lon="05.942940"><ele>157.2</ele><time>2024-02-22T10:42:49Z</time><name>PT594</name></trkpt>
<trkpt lat="52.081588" lon="05.942939"><ele>157.3</ele><time>2024-02-22T10:42:50Z</time><name>PT595</name></trkpt>
<trkpt lat="52.081578" lon="05.942935"><ele>157.4</ele><time>2024-02-22T10:42:51Z</time><name>PT596</name></trkpt>
<trkpt lat="52.081563" lon="05.942931"><ele>157.3</ele><time>2024-02-22T10:42:52Z</time><name>PT597</name></trkpt>
<trkpt lat="52.081550" lon="05.942934"><ele>157.2</ele><time>2024-02-22T10:42:53Z</time><name>PT598</name></trkpt>
<trkpt lat="52.081542" lon="05.942930"><ele>157.3</ele><time>2024-02-22T10:42:54Z</time><name>PT599</name></trkpt>
<trkpt lat="52.081531" lon="05.942928"><ele>157.1</ele><time>2024-02-22T10:42:55Z</time><name>PT600</name></trkpt>
<trkpt lat="52.081517" lon="05.942923"><ele>157</ele><time>2024-02-22T10:42:56Z</time><name>PT601</name></trkpt>
<trkpt lat="52.081504" lon="05.942926"><ele>157.2</ele><time>2024-02-22T10:42:57Z</time><name>PT602</name></trkpt>
<trkpt lat="52.081492" lon="05.942925"><ele>157.1</ele><time>2024-02-22T10:42:58Z</time><name>PT603</name></trkpt>
<trkpt lat="52.081480" lon="05.942916"><ele>156.9</ele><time>2024-02-22T10:42:59Z</time><name>PT604</name></trkpt>
<trkpt lat="52.081471" lon="05.942912"><ele>156.9</ele><time>2024-02-22T10:43:00Z</time><name>PT605</name></trkpt>
<trkpt lat="52.081466" lon="05.942904"><ele>156.9</ele><time>2024-02-22T10:43:01Z</time><name>PT606</name></trkpt>
<trkpt lat="52.081461" lon="05.942894"><ele>156.7</ele><time>2024-02-22T10:43:03Z</time><name>PT607</name></trkpt>
<trkpt lat="52.081457" lon="05.942895"><ele>156.5</ele><time>2024-02-22T10:43:03Z</time><name>PT608</name></trkpt>
<trkpt lat="52.081451" lon="05.942893"><ele>156.7</ele><time>2024-02-22T10:43:04Z</time><name>PT609</name></trkpt>
<trkpt lat="52.081447" lon="05.942889"><ele>156.7</ele><time>2024-02-22T10:43:05Z</time><name>PT610</name></trkpt>
<trkpt lat="52.081439" lon="05.942884"><ele>156.8</ele><time>2024-02-22T10:43:06Z</time><name>PT611</name></trkpt>
<trkpt lat="52.081430" lon="05.942878"><ele>156.8</ele><time>2024-02-22T10:43:07Z</time><name>PT612</name></trkpt>
<trkpt lat="52.081423" lon="05.942871"><ele>156.7</ele><time>2024-02-22T10:43:08Z</time><name>PT613</name></trkpt>
<trkpt lat="52.081412" lon="05.942867"><ele>156.8</ele><time>2024-02-22T10:43:09Z</time><name>PT614</name></trkpt>
<trkpt lat="52.081393" lon="05.942862"><ele>156.6</ele><time>2024-02-22T10:43:10Z</time><name>PT615</name></trkpt>
<trkpt lat="52.081375" lon="05.942861"><ele>156.6</ele><time>2024-02-22T10:43:12Z</time><name>PT616</name></trkpt>
<trkpt lat="52.081361" lon="05.942858"><ele>156.7</ele><time>2024-02-22T10:43:12Z</time><name>PT617</name></trkpt>
<trkpt lat="52.081347" lon="05.942850"><ele>156.8</ele><time>2024-02-22T10:43:13Z</time><name>PT618</name></trkpt>
<trkpt lat="52.081331" lon="05.942845"><ele>156.7</ele><time>2024-02-22T10:43:15Z</time><name>PT619</name></trkpt>
<trkpt lat="52.081320" lon="05.942840"><ele>156.6</ele><time>2024-02-22T10:43:15Z</time><name>PT620</name></trkpt>
<trkpt lat="52.081309" lon="05.942837"><ele>156.5</ele><time>2024-02-22T10:43:16Z</time><name>PT621</name></trkpt>
<trkpt lat="52.081299" lon="05.942833"><ele>156.3</ele><time>2024-02-22T10:43:18Z</time><name>PT622</name></trkpt>
<trkpt lat="52.081291" lon="05.942824"><ele>156.3</ele><time>2024-02-22T10:43:18Z</time><name>PT623</name></trkpt>
<trkpt lat="52.081276" lon="05.942824"><ele>156.3</ele><time>2024-02-22T10:43:19Z</time><name>PT624</name></trkpt>
<trkpt lat="52.081259" lon="05.942822"><ele>156.4</ele><time>2024-02-22T10:43:20Z</time><name>PT625</name></trkpt>
<trkpt lat="52.081242" lon="05.942816"><ele>156.4</ele><time>2024-02-22T10:43:21Z</time><name>PT626</name></trkpt>
<trkpt lat="52.081227" lon="05.942810"><ele>156.5</ele><time>2024-02-22T10:43:22Z</time><name>PT627</name></trkpt>
<trkpt lat="52.081217" lon="05.942809"><ele>156.6</ele><time>2024-02-22T10:43:23Z</time><name>PT628</name></trkpt>
<trkpt lat="52.081205" lon="05.942808"><ele>156.6</ele><time>2024-02-22T10:43:24Z</time><name>PT629</name></trkpt>
<trkpt lat="52.081196" lon="05.942805"><ele>156.5</ele><time>2024-02-22T10:43:25Z</time><name>PT630</name></trkpt>
<trkpt lat="52.081185" lon="05.942804"><ele>156.3</ele><time>2024-02-22T10:43:27Z</time><name>PT631</name></trkpt>
<trkpt lat="52.081174" lon="05.942804"><ele>156.3</ele><time>2024-02-22T10:43:27Z</time><name>PT632</name></trkpt>
<trkpt lat="52.081163" lon="05.942804"><ele>156.4</ele><time>2024-02-22T10:43:28Z</time><name>PT633</name></trkpt>
<trkpt lat="52.081151" lon="05.942794"><ele>156.4</ele><time>2024-02-22T10:43:29Z</time><name>PT634</name></trkpt>
<trkpt lat="52.081135" lon="05.942789"><ele>156.5</ele><time>2024-02-22T10:43:30Z</time><name>PT635</name></trkpt>
<trkpt lat="52.081116" lon="05.942785"><ele>156.6</ele><time>2024-02-22T10:43:31Z</time><name>PT636</name></trkpt>
<trkpt lat="52.081101" lon="05.942785"><ele>156.5</ele><time>2024-02-22T10:43:33Z</time><name>PT637</name></trkpt>
<trkpt lat="52.081092" lon="05.942782"><ele>156.4</ele><time>2024-02-22T10:43:33Z</time><name>PT638</name></trkpt>
<trkpt lat="52.081081" lon="05.942779"><ele>156.3</ele><time>2024-02-22T10:43:34Z</time><name>PT639</name></trkpt>
<trkpt lat="52.081073" lon="05.942774"><ele>156.5</ele><time>2024-02-22T10:43:35Z</time><name>PT640</name></trkpt>
<trkpt lat="52.081066" lon="05.942773"><ele>156.4</ele><time>2024-02-22T10:43:36Z</time><name>PT641</name></trkpt>
<trkpt lat="52.081056" lon="05.942775"><ele>156.4</ele><time>2024-02-22T10:43:37Z</time><name>PT642</name></trkpt>
<trkpt lat="52.081042" lon="05.942772"><ele>156.4</ele><time>2024-02-22T10:43:39Z</time><name>PT643</name></trkpt>
<trkpt lat="52.081028" lon="05.942769"><ele>156.4</ele><time>2024-02-22T10:43:39Z</time><name>PT644</name></trkpt>
<trkpt lat="52.081012" lon="05.942767"><ele>156.3</ele><time>2024-02-22T10:43:40Z</time><name>PT645</name></trkpt>
<trkpt lat="52.080994" lon="05.942772"><ele>156.4</ele><time>2024-02-22T10:43:41Z</time><name>PT646</name></trkpt>
<trkpt lat="52.080978" lon="05.942777"><ele>156.4</ele><time>2024-02-22T10:43:42Z</time><name>PT647</name></trkpt>
<trkpt lat="52.080966" lon="05.942779"><ele>156.4</ele><time>2024-02-22T10:43:43Z</time><name>PT648</name></trkpt>
<trkpt lat="52.080955" lon="05.942776"><ele>156.4</ele><time>2024-02-22T10:43:45Z</time><name>PT649</name></trkpt>
<trkpt lat="52.080945" lon="05.942768"><ele>156.5</ele><time>2024-02-22T10:43:45Z</time><name>PT650</name></trkpt>
<trkpt lat="52.080936" lon="05.942757"><ele>156.4</ele><time>2024-02-22T10:43:46Z</time><name>PT651</name></trkpt>
<trkpt lat="52.080928" lon="05.942755"><ele>156.6</ele><time>2024-02-22T10:43:47Z</time><name>PT652</name></trkpt>
<trkpt lat="52.080913" lon="05.942762"><ele>156.6</ele><time>2024-02-22T10:43:48Z</time><name>PT653</name></trkpt>
<trkpt lat="52.080895" lon="05.942772"><ele>156.6</ele><time>2024-02-22T10:43:49Z</time><name>PT654</name></trkpt>
<trkpt lat="52.080878" lon="05.942770"><ele>156.4</ele><time>2024-02-22T10:43:50Z</time><name>PT655</name></trkpt>
<trkpt lat="52.080867" lon="05.942761"><ele>156.4</ele><time>2024-02-22T10:43:51Z</time><name>PT656</name></trkpt>
<trkpt lat="52.080854" lon="05.942758"><ele>156.5</ele><time>2024-02-22T10:43:52Z</time><name>PT657</name></trkpt>
<trkpt lat="52.080841" lon="05.942749"><ele>156.4</ele><time>2024-02-22T10:43:53Z</time><name>PT658</name></trkpt>
<trkpt lat="52.080832" lon="05.942743"><ele>156.5</ele><time>2024-02-22T10:43:54Z</time><name>PT659</name></trkpt>
<trkpt lat="52.080824" lon="05.942736"><ele>156.7</ele><time>2024-02-22T10:43:55Z</time><name>PT660</name></trkpt>
<trkpt lat="52.080816" lon="05.942733"><ele>156.7</ele><time>2024-02-22T10:43:56Z</time><name>PT661</name></trkpt>
<trkpt lat="52.080806" lon="05.942728"><ele>156.7</ele><time>2024-02-22T10:43:57Z</time><name>PT662</name></trkpt>
<trkpt lat="52.080796" lon="05.942723"><ele>156.9</ele><time>2024-02-22T10:43:58Z</time><name>PT663</name></trkpt>
<trkpt lat="52.080785" lon="05.942717"><ele>156.9</ele><time>2024-02-22T10:43:59Z</time><name>PT664</name></trkpt>
<trkpt lat="52.080775" lon="05.942713"><ele>156.8</ele><time>2024-02-22T10:44:00Z</time><name>PT665</name></trkpt>
<trkpt lat="52.080761" lon="05.942710"><ele>156.7</ele><time>2024-02-22T10:44:01Z</time><name>PT666</name></trkpt>
<trkpt lat="52.080749" lon="05.942705"><ele>156.5</ele><time>2024-02-22T10:44:03Z</time><name>PT667</name></trkpt>
<trkpt lat="52.080735" lon="05.942703"><ele>156.6</ele><time>2024-02-22T10:44:03Z</time><name>PT668</name></trkpt>
<trkpt lat="52.080719" lon="05.942698"><ele>156.7</ele><time>2024-02-22T10:44:04Z</time><name>PT669</name></trkpt>
<trkpt lat="52.080706" lon="05.942693"><ele>156.7</ele><time>2024-02-22T10:44:05Z</time><name>PT670</name></trkpt>
<trkpt lat="52.080694" lon="05.942686"><ele>156.7</ele><time>2024-02-22T10:44:06Z</time><name>PT671</name></trkpt>
<trkpt lat="52.080682" lon="05.942685"><ele>156.6</ele><time>2024-02-22T10:44:07Z</time><name>PT672</name></trkpt>
<trkpt lat="52.080672" lon="05.942685"><ele>156.4</ele><time>2024-02-22T10:44:08Z</time><name>PT673</name></trkpt>
<trkpt lat="52.080661" lon="05.942684"><ele>156.4</ele><time>2024-02-22T10:44:09Z</time><name>PT674</name></trkpt>
<trkpt lat="52.080651" lon="05.942684"><ele>156.5</ele><time>2024-02-22T10:44:10Z</time><name>PT675</name></trkpt>
<trkpt lat="52.080644" lon="05.942679"><ele>156.7</ele><time>2024-02-22T10:44:11Z</time><name>PT676</name></trkpt>
<trkpt lat="52.080636" lon="05.942677"><ele>156.8</ele><time>2024-02-22T10:44:12Z</time><name>PT677</name></trkpt>
<trkpt lat="52.080627" lon="05.942672"><ele>156.9</ele><time>2024-02-22T10:44:13Z</time><name>PT678</name></trkpt>
<trkpt lat="52.080618" lon="05.942664"><ele>156.8</ele><time>2024-02-22T10:44:14Z</time><name>PT679</name></trkpt>
<trkpt lat="52.080610" lon="05.942654"><ele>156.8</ele><time>2024-02-22T10:44:15Z</time><name>PT680</name></trkpt>
<trkpt lat="52.080597" lon="05.942652"><ele>156.9</ele><time>2024-02-22T10:44:16Z</time><name>PT681</name></trkpt>
<trkpt lat="52.080582" lon="05.942648"><ele>156.9</ele><time>2024-02-22T10:44:18Z</time><name>PT682</name></trkpt>
<trkpt lat="52.080560" lon="05.942647"><ele>156.9</ele><time>2024-02-22T10:44:18Z</time><name>PT683</name></trkpt>
<trkpt lat="52.080537" lon="05.942647"><ele>157.1</ele><time>2024-02-22T10:44:19Z</time><name>PT684</name></trkpt>
<trkpt lat="52.080521" lon="05.942650"><ele>157.2</ele><time>2024-02-22T10:44:21Z</time><name>PT685</name></trkpt>
<trkpt lat="52.080507" lon="05.942646"><ele>157.2</ele><time>2024-02-22T10:44:21Z</time><name>PT686</name></trkpt>
<trkpt lat="52.080498" lon="05.942643"><ele>157.1</ele><time>2024-02-22T10:44:22Z</time><name>PT687</name></trkpt>
<trkpt lat="52.080491" lon="05.942642"><ele>157.2</ele><time>2024-02-22T10:44:23Z</time><name>PT688</name></trkpt>
<trkpt lat="52.080483" lon="05.942637"><ele>157.2</ele><time>2024-02-22T10:44:24Z</time><name>PT689</name></trkpt>
<trkpt lat="52.080475" lon="05.942635"><ele>157.2</ele><time>2024-02-22T10:44:25Z</time><name>PT690</name></trkpt>
<trkpt lat="52.080466" lon="05.942627"><ele>157.1</ele><time>2024-02-22T10:44:26Z</time><name>PT691</name></trkpt>
<trkpt lat="52.080455" lon="05.942625"><ele>157.2</ele><time>2024-02-22T10:44:27Z</time><name>PT692</name></trkpt>
<trkpt lat="52.080445" lon="05.942616"><ele>157.1</ele><time>2024-02-22T10:44:28Z</time><name>PT693</name></trkpt>
<trkpt lat="52.080432" lon="05.942614"><ele>157.4</ele><time>2024-02-22T10:44:30Z</time><name>PT694</name></trkpt>
<trkpt lat="52.080421" lon="05.942616"><ele>157.3</ele><time>2024-02-22T10:44:30Z</time><name>PT695</name></trkpt>
<trkpt lat="52.080408" lon="05.942614"><ele>157.2</ele><time>2024-02-22T10:44:31Z</time><name>PT696</name></trkpt>
<trkpt lat="52.080396" lon="05.942611"><ele>157.4</ele><time>2024-02-22T10:44:32Z</time><name>PT697</name></trkpt>
<trkpt lat="52.080385" lon="05.942607"><ele>157.4</ele><time>2024-02-22T10:44:33Z</time><name>PT698</name></trkpt>
<trkpt lat="52.080375" lon="05.942606"><ele>157.4</ele><time>2024-02-22T10:44:34Z</time><name>PT699</name></trkpt>
<trkpt lat="52.080364" lon="05.942602"><ele>157.8</ele><time>2024-02-22T10:44:36Z</time><name>PT700</name></trkpt>
<trkpt lat="52.080352" lon="05.942601"><ele>157.9</ele><time>2024-02-22T10:44:36Z</time><name>PT701</name></trkpt>
<trkpt lat="52.080345" lon="05.942599"><ele>158</ele><time>2024-02-22T10:44:37Z</time><name>PT702</name></trkpt>
<trkpt lat="52.080344" lon="05.942593"><ele>158.1</ele><time>2024-02-22T10:44:38Z</time><name>PT703</name></trkpt>
<trkpt lat="52.080337" lon="05.942585"><ele>158.2</ele><time>2024-02-22T10:44:39Z</time><name>PT704</name></trkpt>
<trkpt lat="52.080324" lon="05.942581"><ele>158.3</ele><time>2024-02-22T10:44:40Z</time><name>PT705</name></trkpt>
<trkpt lat="52.080312" lon="05.942575"><ele>158.4</ele><time>2024-02-22T10:44:42Z</time><name>PT706</name></trkpt>
<trkpt lat="52.080298" lon="05.942569"><ele>158.6</ele><time>2024-02-22T10:44:42Z</time><name>PT707</name></trkpt>
<trkpt lat="52.080283" lon="05.942564"><ele>158.7</ele><time>2024-02-22T10:44:43Z</time><name>PT708</name></trkpt>
<trkpt lat="52.080269" lon="05.942560"><ele>158.7</ele><time>2024-02-22T10:44:44Z</time><name>PT709</name></trkpt>
<trkpt lat="52.080260" lon="05.942559"><ele>158.7</ele><time>2024-02-22T10:44:45Z</time><name>PT710</name></trkpt>
<trkpt lat="52.080248" lon="05.942554"><ele>158.6</ele><time>2024-02-22T10:44:46Z</time><name>PT711</name></trkpt>
<trkpt lat="52.080240" lon="05.942548"><ele>158.5</ele><time>2024-02-22T10:44:47Z</time><name>PT712</name></trkpt>
<trkpt lat="52.080231" lon="05.942540"><ele>158.5</ele><time>2024-02-22T10:44:48Z</time><name>PT713</name></trkpt>
<trkpt lat="52.080224" lon="05.942536"><ele>158.6</ele><time>2024-02-22T10:44:49Z</time><name>PT714</name></trkpt>
<trkpt lat="52.080216" lon="05.942528"><ele>158.7</ele><time>2024-02-22T10:44:51Z</time><name>PT715</name></trkpt>
<trkpt lat="52.080208" lon="05.942515"><ele>158.8</ele><time>2024-02-22T10:44:51Z</time><name>PT716</name></trkpt>
<trkpt lat="52.080200" lon="05.942501"><ele>159</ele><time>2024-02-22T10:44:52Z</time><name>PT717</name></trkpt>
<trkpt lat="52.080194" lon="05.942495"><ele>159.1</ele><time>2024-02-22T10:44:53Z</time><name>PT718</name></trkpt>
<trkpt lat="52.080191" lon="05.942486"><ele>159.1</ele><time>2024-02-22T10:44:54Z</time><name>PT719</name></trkpt>
<trkpt lat="52.080187" lon="05.942471"><ele>158.9</ele><time>2024-02-22T10:44:55Z</time><name>PT720</name></trkpt>
<trkpt lat="52.080184" lon="05.942445"><ele>158.9</ele><time>2024-02-22T10:44:56Z</time><name>PT721</name></trkpt>
<trkpt lat="52.080181" lon="05.942429"><ele>158.8</ele><time>2024-02-22T10:44:57Z</time><name>PT722</name></trkpt>
<trkpt lat="52.080179" lon="05.942417"><ele>158.8</ele><time>2024-02-22T10:44:58Z</time><name>PT723</name></trkpt>
<trkpt lat="52.080167" lon="05.942419"><ele>158.6</ele><time>2024-02-22T10:44:59Z</time><name>PT724</name></trkpt>
<trkpt lat="52.080165" lon="05.942414"><ele>158.6</ele><time>2024-02-22T10:45:00Z</time><name>PT725</name></trkpt>
<trkpt lat="52.080166" lon="05.942405"><ele>158.6</ele><time>2024-02-22T10:45:01Z</time><name>PT726</name></trkpt>
<trkpt lat="52.080165" lon="05.942389"><ele>158.6</ele><time>2024-02-22T10:45:02Z</time><name>PT727</name></trkpt>
<trkpt lat="52.080163" lon="05.942366"><ele>158.6</ele><time>2024-02-22T10:45:03Z</time><name>PT728</name></trkpt>
<trkpt lat="52.080157" lon="05.942351"><ele>158.8</ele><time>2024-02-22T10:45:04Z</time><name>PT729</name></trkpt>
<trkpt lat="52.080152" lon="05.942342"><ele>158.8</ele><time>2024-02-22T10:45:05Z</time><name>PT730</name></trkpt>
<trkpt lat="52.080151" lon="05.942329"><ele>158.8</ele><time>2024-02-22T10:45:06Z</time><name>PT731</name></trkpt>
<trkpt lat="52.080153" lon="05.942315"><ele>158.7</ele><time>2024-02-22T10:45:07Z</time><name>PT732</name></trkpt>
<trkpt lat="52.080155" lon="05.942296"><ele>158.6</ele><time>2024-02-22T10:45:09Z</time><name>PT733</name></trkpt>
<trkpt lat="52.080161" lon="05.942283"><ele>158.6</ele><time>2024-02-22T10:45:09Z</time><name>PT734</name></trkpt>
<trkpt lat="52.080161" lon="05.942269"><ele>158.4</ele><time>2024-02-22T10:45:10Z</time><name>PT735</name></trkpt>
<trkpt lat="52.080158" lon="05.942249"><ele>158.2</ele><time>2024-02-22T10:45:11Z</time><name>PT736</name></trkpt>
<trkpt lat="52.080156" lon="05.942227"><ele>158.2</ele><time>2024-02-22T10:45:12Z</time><name>PT737</name></trkpt>
<trkpt lat="52.080153" lon="05.942209"><ele>158</ele><time>2024-02-22T10:45:13Z</time><name>PT738</name></trkpt>
<trkpt lat="52.080150" lon="05.942195"><ele>157.8</ele><time>2024-02-22T10:45:14Z</time><name>PT739</name></trkpt>
<trkpt lat="52.080148" lon="05.942186"><ele>157.7</ele><time>2024-02-22T10:45:15Z</time><name>PT740</name></trkpt>
<trkpt lat="52.080149" lon="05.942175"><ele>157.7</ele><time>2024-02-22T10:45:16Z</time><name>PT741</name></trkpt>
<trkpt lat="52.080150" lon="05.942161"><ele>157.8</ele><time>2024-02-22T10:45:17Z</time><name>PT742</name></trkpt>
<trkpt lat="52.080148" lon="05.942148"><ele>157.8</ele><time>2024-02-22T10:45:18Z</time><name>PT743</name></trkpt>
<trkpt lat="52.080146" lon="05.942136"><ele>158</ele><time>2024-02-22T10:45:19Z</time><name>PT744</name></trkpt>
<trkpt lat="52.080147" lon="05.942119"><ele>157.8</ele><time>2024-02-22T10:45:21Z</time><name>PT745</name></trkpt>
<trkpt lat="52.080148" lon="05.942104"><ele>157.8</ele><time>2024-02-22T10:45:21Z</time><name>PT746</name></trkpt>
<trkpt lat="52.080148" lon="05.942080"><ele>157.5</ele><time>2024-02-22T10:45:22Z</time><name>PT747</name></trkpt>
<trkpt lat="52.080149" lon="05.942057"><ele>157.4</ele><time>2024-02-22T10:45:23Z</time><name>PT748</name></trkpt>
<trkpt lat="52.080142" lon="05.942041"><ele>157.4</ele><time>2024-02-22T10:45:24Z</time><name>PT749</name></trkpt>
<trkpt lat="52.080137" lon="05.942027"><ele>157.2</ele><time>2024-02-22T10:45:25Z</time><name>PT750</name></trkpt>
<trkpt lat="52.080133" lon="05.942014"><ele>157.2</ele><time>2024-02-22T10:45:26Z</time><name>PT751</name></trkpt>
<trkpt lat="52.080128" lon="05.942004"><ele>157.2</ele><time>2024-02-22T10:45:27Z</time><name>PT752</name></trkpt>
<trkpt lat="52.080124" lon="05.941992"><ele>157.3</ele><time>2024-02-22T10:45:28Z</time><name>PT753</name></trkpt>
<trkpt lat="52.080121" lon="05.941971"><ele>157.1</ele><time>2024-02-22T10:45:29Z</time><name>PT754</name></trkpt>
<trkpt lat="52.080114" lon="05.941950"><ele>157.1</ele><time>2024-02-22T10:45:30Z</time><name>PT755</name></trkpt>
<trkpt lat="52.080105" lon="05.941932"><ele>157.1</ele><time>2024-02-22T10:45:31Z</time><name>PT756</name></trkpt>
<trkpt lat="52.080094" lon="05.941920"><ele>156.9</ele><time>2024-02-22T10:45:32Z</time><name>PT757</name></trkpt>
<trkpt lat="52.080082" lon="05.941921"><ele>156.9</ele><time>2024-02-22T10:45:33Z</time><name>PT758</name></trkpt>
<trkpt lat="52.080073" lon="05.941918"><ele>156.9</ele><time>2024-02-22T10:45:34Z</time><name>PT759</name></trkpt>
<trkpt lat="52.080067" lon="05.941912"><ele>156.9</ele><time>2024-02-22T10:45:35Z</time><name>PT760</name></trkpt>
<trkpt lat="52.080060" lon="05.941905"><ele>156.8</ele><time>2024-02-22T10:45:36Z</time><name>PT761</name></trkpt>
<trkpt lat="52.080053" lon="05.941896"><ele>156.6</ele><time>2024-02-22T10:45:37Z</time><name>PT762</name></trkpt>
<trkpt lat="52.080046" lon="05.941883"><ele>156.4</ele><time>2024-02-22T10:45:39Z</time><name>PT763</name></trkpt>
<trkpt lat="52.080042" lon="05.941869"><ele>156.4</ele><time>2024-02-22T10:45:39Z</time><name>PT764</name></trkpt>
<trkpt lat="52.080033" lon="05.941852"><ele>156.3</ele><time>2024-02-22T10:45:40Z</time><name>PT765</name></trkpt>
<trkpt lat="52.080023" lon="05.941825"><ele>156.4</ele><time>2024-02-22T10:45:41Z</time><name>PT766</name></trkpt>
<trkpt lat="52.080016" lon="05.941802"><ele>156.5</ele><time>2024-02-22T10:45:42Z</time><name>PT767</name></trkpt>
<trkpt lat="52.080006" lon="05.941782"><ele>156.4</ele><time>2024-02-22T10:45:43Z</time><name>PT768</name></trkpt>
<trkpt lat="52.079996" lon="05.941767"><ele>156.5</ele><time>2024-02-22T10:45:45Z</time><name>PT769</name></trkpt>
<trkpt lat="52.079989" lon="05.941758"><ele>156.4</ele><time>2024-02-22T10:45:45Z</time><name>PT770</name></trkpt>
<trkpt lat="52.079983" lon="05.941749"><ele>156.3</ele><time>2024-02-22T10:45:46Z</time><name>PT771</name></trkpt>
<trkpt lat="52.079978" lon="05.941743"><ele>156.1</ele><time>2024-02-22T10:45:47Z</time><name>PT772</name></trkpt>
<trkpt lat="52.079973" lon="05.941736"><ele>156.2</ele><time>2024-02-22T10:45:48Z</time><name>PT773</name></trkpt>
<trkpt lat="52.079969" lon="05.941728"><ele>156.3</ele><time>2024-02-22T10:45:49Z</time><name>PT774</name></trkpt>
<trkpt lat="52.079958" lon="05.941728"><ele>156.3</ele><time>2024-02-22T10:45:50Z</time><name>PT775</name></trkpt>
<trkpt lat="52.079952" lon="05.941719"><ele>156.4</ele><time>2024-02-22T10:45:51Z</time><name>PT776</name></trkpt>
<trkpt lat="52.079940" lon="05.941706"><ele>156.6</ele><time>2024-02-22T10:45:52Z</time><name>PT777</name></trkpt>
<trkpt lat="52.079924" lon="05.941690"><ele>156.5</ele><time>2024-02-22T10:45:53Z</time><name>PT778</name></trkpt>
<trkpt lat="52.079907" lon="05.941680"><ele>156.4</ele><time>2024-02-22T10:45:54Z</time><name>PT779</name></trkpt>
<trkpt lat="52.079894" lon="05.941667"><ele>156.3</ele><time>2024-02-22T10:45:55Z</time><name>PT780</name></trkpt>
<trkpt lat="52.079881" lon="05.941651"><ele>156.3</ele><time>2024-02-22T10:45:56Z</time><name>PT781</name></trkpt>
<trkpt lat="52.079869" lon="05.941639"><ele>156.3</ele><time>2024-02-22T10:45:57Z</time><name>PT782</name></trkpt>
<trkpt lat="52.079861" lon="05.941631"><ele>156.3</ele><time>2024-02-22T10:45:58Z</time><name>PT783</name></trkpt>
<trkpt lat="52.079857" lon="05.941627"><ele>156.2</ele><time>2024-02-22T10:45:59Z</time><name>PT784</name></trkpt>
<trkpt lat="52.079855" lon="05.941617"><ele>156.2</ele><time>2024-02-22T10:46:00Z</time><name>PT785</name></trkpt>
<trkpt lat="52.079845" lon="05.941600"><ele>156.3</ele><time>2024-02-22T10:46:01Z</time><name>PT786</name></trkpt>
<trkpt lat="52.079836" lon="05.941588"><ele>156.1</ele><time>2024-02-22T10:46:02Z</time><name>PT787</name></trkpt>
<trkpt lat="52.079825" lon="05.941577"><ele>156</ele><time>2024-02-22T10:46:03Z</time><name>PT788</name></trkpt>
<trkpt lat="52.079812" lon="05.941568"><ele>156.1</ele><time>2024-02-22T10:46:04Z</time><name>PT789</name></trkpt>
<trkpt lat="52.079803" lon="05.941566"><ele>155.8</ele><time>2024-02-22T10:46:05Z</time><name>PT790</name></trkpt>
<trkpt lat="52.079795" lon="05.941562"><ele>155.8</ele><time>2024-02-22T10:46:06Z</time><name>PT791</name></trkpt>
<trkpt lat="52.079787" lon="05.941560"><ele>155.7</ele><time>2024-02-22T10:46:07Z</time><name>PT792</name></trkpt>
<trkpt lat="52.079780" lon="05.941555"><ele>155.6</ele><time>2024-02-22T10:46:08Z</time><name>PT793</name></trkpt>
<trkpt lat="52.079772" lon="05.941544"><ele>155.4</ele><time>2024-02-22T10:46:09Z</time><name>PT794</name></trkpt>
<trkpt lat="52.079762" lon="05.941534"><ele>155.5</ele><time>2024-02-22T10:46:10Z</time><name>PT795</name></trkpt>
<trkpt lat="52.079747" lon="05.941521"><ele>155.5</ele><time>2024-02-22T10:46:11Z</time><name>PT796</name></trkpt>
<trkpt lat="52.079731" lon="05.941512"><ele>155.4</ele><time>2024-02-22T10:46:12Z</time><name>PT797</name></trkpt>
<trkpt lat="52.079715" lon="05.941506"><ele>155.4</ele><time>2024-02-22T10:46:13Z</time><name>PT798</name></trkpt>
<trkpt lat="52.079699" lon="05.941507"><ele>155.3</ele><time>2024-02-22T10:46:14Z</time><name>PT799</name></trkpt>
<trkpt lat="52.079684" lon="05.941507"><ele>155.3</ele><time>2024-02-22T10:46:15Z</time><name>PT800</name></trkpt>
<trkpt lat="52.079674" lon="05.941507"><ele>155.1</ele><time>2024-02-22T10:46:16Z</time><name>PT801</name></trkpt>
<trkpt lat="52.079665" lon="05.941511"><ele>155.1</ele><time>2024-02-22T10:46:17Z</time><name>PT802</name></trkpt>
<trkpt lat="52.079654" lon="05.941510"><ele>155.1</ele><time>2024-02-22T10:46:18Z</time><name>PT803</name></trkpt>
<trkpt lat="52.079646" lon="05.941509"><ele>155</ele><time>2024-02-22T10:46:19Z</time><name>PT804</name></trkpt>
<trkpt lat="52.079634" lon="05.941509"><ele>155.1</ele><time>2024-02-22T10:46:20Z</time><name>PT805</name></trkpt>
<trkpt lat="52.079622" lon="05.941513"><ele>155.1</ele><time>2024-02-22T10:46:21Z</time><name>PT806</name></trkpt>
<trkpt lat="52.079609" lon="05.941518"><ele>155</ele><time>2024-02-22T10:46:22Z</time><name>PT807</name></trkpt>
<trkpt lat="52.079596" lon="05.941526"><ele>154.8</ele><time>2024-02-22T10:46:23Z</time><name>PT808</name></trkpt>
<trkpt lat="52.079578" lon="05.941536"><ele>154.8</ele><time>2024-02-22T10:46:24Z</time><name>PT809</name></trkpt>
<trkpt lat="52.079565" lon="05.941548"><ele>155</ele><time>2024-02-22T10:46:25Z</time><name>PT810</name></trkpt>
<trkpt lat="52.079552" lon="05.941552"><ele>155.1</ele><time>2024-02-22T10:46:26Z</time><name>PT811</name></trkpt>
<trkpt lat="52.079539" lon="05.941559"><ele>155.2</ele><time>2024-02-22T10:46:27Z</time><name>PT812</name></trkpt>
<trkpt lat="52.079531" lon="05.941566"><ele>155.4</ele><time>2024-02-22T10:46:28Z</time><name>PT813</name></trkpt>
<trkpt lat="52.079522" lon="05.941573"><ele>155.4</ele><time>2024-02-22T10:46:29Z</time><name>PT814</name></trkpt>
<trkpt lat="52.079512" lon="05.941577"><ele>155.2</ele><time>2024-02-22T10:46:30Z</time><name>PT815</name></trkpt>
<trkpt lat="52.079504" lon="05.941579"><ele>155.1</ele><time>2024-02-22T10:46:31Z</time><name>PT816</name></trkpt>
<trkpt lat="52.079496" lon="05.941584"><ele>155.2</ele><time>2024-02-22T10:46:33Z</time><name>PT817</name></trkpt>
<trkpt lat="52.079486" lon="05.941586"><ele>155.4</ele><time>2024-02-22T10:46:33Z</time><name>PT818</name></trkpt>
<trkpt lat="52.079474" lon="05.941591"><ele>155.6</ele><time>2024-02-22T10:46:34Z</time><name>PT819</name></trkpt>
<trkpt lat="52.079460" lon="05.941599"><ele>156</ele><time>2024-02-22T10:46:36Z</time><name>PT820</name></trkpt>
<trkpt lat="52.079449" lon="05.941611"><ele>156.1</ele><time>2024-02-22T10:46:36Z</time><name>PT821</name></trkpt>
<trkpt lat="52.079438" lon="05.941622"><ele>156.3</ele><time>2024-02-22T10:46:37Z</time><name>PT822</name></trkpt>
<trkpt lat="52.079429" lon="05.941631"><ele>156.3</ele><time>2024-02-22T10:46:38Z</time><name>PT823</name></trkpt>
<trkpt lat="52.079423" lon="05.941638"><ele>156.2</ele><time>2024-02-22T10:46:39Z</time><name>PT824</name></trkpt>
<trkpt lat="52.079412" lon="05.941639"><ele>156.1</ele><time>2024-02-22T10:46:40Z</time><name>PT825</name></trkpt>
<trkpt lat="52.079404" lon="05.941642"><ele>155.9</ele><time>2024-02-22T10:46:42Z</time><name>PT826</name></trkpt>
<trkpt lat="52.079393" lon="05.941646"><ele>155.7</ele><time>2024-02-22T10:46:42Z</time><name>PT827</name></trkpt>
<trkpt lat="52.079379" lon="05.941649"><ele>155.4</ele><time>2024-02-22T10:46:43Z</time><name>PT828</name></trkpt>
<trkpt lat="52.079365" lon="05.941652"><ele>155.1</ele><time>2024-02-22T10:46:44Z</time><name>PT829</name></trkpt>
<trkpt lat="52.079350" lon="05.941655"><ele>155</ele><time>2024-02-22T10:46:45Z</time><name>PT830</name></trkpt>
<trkpt lat="52.079335" lon="05.941661"><ele>155.1</ele><time>2024-02-22T10:46:46Z</time><name>PT831</name></trkpt>
<trkpt lat="52.079324" lon="05.941666"><ele>155.1</ele><time>2024-02-22T10:46:48Z</time><name>PT832</name></trkpt>
<trkpt lat="52.079311" lon="05.941665"><ele>155.2</ele><time>2024-02-22T10:46:48Z</time><name>PT833</name></trkpt>
<trkpt lat="52.079303" lon="05.941668"><ele>155.5</ele><time>2024-02-22T10:46:49Z</time><name>PT834</name></trkpt>
<trkpt lat="52.079294" lon="05.941669"><ele>155.5</ele><time>2024-02-22T10:46:50Z</time><name>PT835</name></trkpt>
<trkpt lat="52.079286" lon="05.941673"><ele>155.5</ele><time>2024-02-22T10:46:51Z</time><name>PT836</name></trkpt>
<trkpt lat="52.079276" lon="05.941678"><ele>155.6</ele><time>2024-02-22T10:46:52Z</time><name>PT837</name></trkpt>
<trkpt lat="52.079262" lon="05.941680"><ele>155.6</ele><time>2024-02-22T10:46:53Z</time><name>PT838</name></trkpt>
<trkpt lat="52.079245" lon="05.941684"><ele>155.7</ele><time>2024-02-22T10:46:54Z</time><name>PT839</name></trkpt>
<trkpt lat="52.079230" lon="05.941691"><ele>155.7</ele><time>2024-02-22T10:46:55Z</time><name>PT840</name></trkpt>
<trkpt lat="52.079219" lon="05.941695"><ele>155.7</ele><time>2024-02-22T10:46:56Z</time><name>PT841</name></trkpt>
<trkpt lat="52.079212" lon="05.941701"><ele>156</ele><time>2024-02-22T10:46:57Z</time><name>PT842</name></trkpt>
<trkpt lat="52.079203" lon="05.941704"><ele>156.1</ele><time>2024-02-22T10:46:58Z</time><name>PT843</name></trkpt>
<trkpt lat="52.079197" lon="05.941702"><ele>156.2</ele><time>2024-02-22T10:46:59Z</time><name>PT844</name></trkpt>
<trkpt lat="52.079188" lon="05.941703"><ele>156.2</ele><time>2024-02-22T10:47:00Z</time><name>PT845</name></trkpt>
<trkpt lat="52.079176" lon="05.941706"><ele>156.2</ele><time>2024-02-22T10:47:01Z</time><name>PT846</name></trkpt>
<trkpt lat="52.079163" lon="05.941711"><ele>155.8</ele><time>2024-02-22T10:47:02Z</time><name>PT847</name></trkpt>
<trkpt lat="52.079148" lon="05.941718"><ele>155.7</ele><time>2024-02-22T10:47:03Z</time><name>PT848</name></trkpt>
<trkpt lat="52.079137" lon="05.941723"><ele>155.7</ele><time>2024-02-22T10:47:04Z</time><name>PT849</name></trkpt>
<trkpt lat="52.079129" lon="05.941731"><ele>155.7</ele><time>2024-02-22T10:47:05Z</time><name>PT850</name></trkpt>
<trkpt lat="52.079125" lon="05.941733"><ele>155.7</ele><time>2024-02-22T10:47:06Z</time><name>PT851</name></trkpt>
<trkpt lat="52.079119" lon="05.941731"><ele>155.8</ele><time>2024-02-22T10:47:07Z</time><name>PT852</name></trkpt>
<trkpt lat="52.079113" lon="05.941736"><ele>156</ele><time>2024-02-22T10:47:08Z</time><name>PT853</name></trkpt>
<trkpt lat="52.079103" lon="05.941739"><ele>156.2</ele><time>2024-02-22T10:47:09Z</time><name>PT854</name></trkpt>
<trkpt lat="52.079088" lon="05.941736"><ele>156.1</ele><time>2024-02-22T10:47:10Z</time><name>PT855</name></trkpt>
<trkpt lat="52.079071" lon="05.941738"><ele>156</ele><time>2024-02-22T10:47:11Z</time><name>PT856</name></trkpt>
<trkpt lat="52.079058" lon="05.941737"><ele>156.1</ele><time>2024-02-22T10:47:12Z</time><name>PT857</name></trkpt>
<trkpt lat="52.079049" lon="05.941739"><ele>156.2</ele><time>2024-02-22T10:47:13Z</time><name>PT858</name></trkpt>
<trkpt lat="52.079040" lon="05.941736"><ele>156.3</ele><time>2024-02-22T10:47:15Z</time><name>PT859</name></trkpt>
<trkpt lat="52.079035" lon="05.941731"><ele>156.8</ele><time>2024-02-22T10:47:15Z</time><name>PT860</name></trkpt>
<trkpt lat="52.079029" lon="05.941723"><ele>157.2</ele><time>2024-02-22T10:47:16Z</time><name>PT861</name></trkpt>
<trkpt lat="52.079022" lon="05.941709"><ele>157.2</ele><time>2024-02-22T10:47:17Z</time><name>PT862</name></trkpt>
<trkpt lat="52.079011" lon="05.941698"><ele>157</ele><time>2024-02-22T10:47:18Z</time><name>PT863</name></trkpt>
<trkpt lat="52.078994" lon="05.941695"><ele>156.8</ele><time>2024-02-22T10:47:19Z</time><name>PT864</name></trkpt>
<trkpt lat="52.078979" lon="05.941691"><ele>156.4</ele><time>2024-02-22T10:47:20Z</time><name>PT865</name></trkpt>
<trkpt lat="52.078964" lon="05.941690"><ele>156.3</ele><time>2024-02-22T10:47:21Z</time><name>PT866</name></trkpt>
<trkpt lat="52.078954" lon="05.941691"><ele>156.5</ele><time>2024-02-22T10:47:22Z</time><name>PT867</name></trkpt>
<trkpt lat="52.078946" lon="05.941689"><ele>156.7</ele><time>2024-02-22T10:47:23Z</time><name>PT868</name></trkpt>
<trkpt lat="52.078940" lon="05.941686"><ele>156.7</ele><time>2024-02-22T10:47:24Z</time><name>PT869</name></trkpt>
<trkpt lat="52.078933" lon="05.941682"><ele>156.7</ele><time>2024-02-22T10:47:25Z</time><name>PT870</name></trkpt>
<trkpt lat="52.078923" lon="05.941678"><ele>156.8</ele><time>2024-02-22T10:47:27Z</time><name>PT871</name></trkpt>
<trkpt lat="52.078913" lon="05.941672"><ele>156.7</ele><time>2024-02-22T10:47:27Z</time><name>PT872</name></trkpt>
<trkpt lat="52.078899" lon="05.941666"><ele>156.6</ele><time>2024-02-22T10:47:28Z</time><name>PT873</name></trkpt>
<trkpt lat="52.078884" lon="05.941662"><ele>156.6</ele><time>2024-02-22T10:47:29Z</time><name>PT874</name></trkpt>
<trkpt lat="52.078870" lon="05.941662"><ele>156.6</ele><time>2024-02-22T10:47:30Z</time><name>PT875</name></trkpt>
<trkpt lat="52.078861" lon="05.941662"><ele>156.4</ele><time>2024-02-22T10:47:31Z</time><name>PT876</name></trkpt>
<trkpt lat="52.078856" lon="05.941660"><ele>156.5</ele><time>2024-02-22T10:47:33Z</time><name>PT877</name></trkpt>
<trkpt lat="52.078850" lon="05.941654"><ele>156.5</ele><time>2024-02-22T10:47:33Z</time><name>PT878</name></trkpt>
<trkpt lat="52.078842" lon="05.941650"><ele>156.6</ele><time>2024-02-22T10:47:34Z</time><name>PT879</name></trkpt>
<trkpt lat="52.078829" lon="05.941645"><ele>156.8</ele><time>2024-02-22T10:47:35Z</time><name>PT880</name></trkpt>
<trkpt lat="52.078814" lon="05.941636"><ele>156.9</ele><time>2024-02-22T10:47:36Z</time><name>PT881</name></trkpt>
<trkpt lat="52.078799" lon="05.941634"><ele>157</ele><time>2024-02-22T10:47:37Z</time><name>PT882</name></trkpt>
<trkpt lat="52.078787" lon="05.941633"><ele>156.9</ele><time>2024-02-22T10:47:39Z</time><name>PT883</name></trkpt>
<trkpt lat="52.078771" lon="05.941629"><ele>157.1</ele><time>2024-02-22T10:47:39Z</time><name>PT884</name></trkpt>
<trkpt lat="52.078761" lon="05.941622"><ele>156.9</ele><time>2024-02-22T10:47:40Z</time><name>PT885</name></trkpt>
<trkpt lat="52.078752" lon="05.941617"><ele>156.9</ele><time>2024-02-22T10:47:42Z</time><name>PT886</name></trkpt>
<trkpt lat="52.078744" lon="05.941614"><ele>156.9</ele><time>2024-02-22T10:47:42Z</time><name>PT887</name></trkpt>
<trkpt lat="52.078741" lon="05.941612"><ele>156.8</ele><time>2024-02-22T10:47:43Z</time><name>PT888</name></trkpt>
<trkpt lat="52.078733" lon="05.941607"><ele>156.9</ele><time>2024-02-22T10:47:44Z</time><name>PT889</name></trkpt>
<trkpt lat="52.078721" lon="05.941603"><ele>156.8</ele><time>2024-02-22T10:47:45Z</time><name>PT890</name></trkpt>
<trkpt lat="52.078707" lon="05.941598"><ele>156.8</ele><time>2024-02-22T10:47:46Z</time><name>PT891</name></trkpt>
<trkpt lat="52.078693" lon="05.941593"><ele>156.9</ele><time>2024-02-22T10:47:47Z</time><name>PT892</name></trkpt>
<trkpt lat="52.078681" lon="05.941590"><ele>156.9</ele><time>2024-02-22T10:47:48Z</time><name>PT893</name></trkpt>
<trkpt lat="52.078673" lon="05.941589"><ele>156.9</ele><time>2024-02-22T10:47:49Z</time><name>PT894</name></trkpt>
<trkpt lat="52.078666" lon="05.941587"><ele>157</ele><time>2024-02-22T10:47:51Z</time><name>PT895</name></trkpt>
<trkpt lat="52.078656" lon="05.941585"><ele>157.2</ele><time>2024-02-22T10:47:51Z</time><name>PT896</name></trkpt>
<trkpt lat="52.078650" lon="05.941578"><ele>157.3</ele><time>2024-02-22T10:47:52Z</time><name>PT897</name></trkpt>
<trkpt lat="52.078643" lon="05.941571"><ele>157.4</ele><time>2024-02-22T10:47:53Z</time><name>PT898</name></trkpt>
<trkpt lat="52.078633" lon="05.941565"><ele>157.5</ele><time>2024-02-22T10:47:54Z</time><name>PT899</name></trkpt>
<trkpt lat="52.078618" lon="05.941561"><ele>157.5</ele><time>2024-02-22T10:47:55Z</time><name>PT900</name></trkpt>
<trkpt lat="52.078602" lon="05.941555"><ele>157.9</ele><time>2024-02-22T10:47:57Z</time><name>PT901</name></trkpt>
<trkpt lat="52.078588" lon="05.941551"><ele>158</ele><time>2024-02-22T10:47:57Z</time><name>PT902</name></trkpt>
<trkpt lat="52.078575" lon="05.941549"><ele>158.1</ele><time>2024-02-22T10:47:58Z</time><name>PT903</name></trkpt>
<trkpt lat="52.078565" lon="05.941546"><ele>158.3</ele><time>2024-02-22T10:47:59Z</time><name>PT904</name></trkpt>
<trkpt lat="52.078558" lon="05.941536"><ele>158.3</ele><time>2024-02-22T10:48:00Z</time><name>PT905</name></trkpt>
<trkpt lat="52.078550" lon="05.941535"><ele>158.4</ele><time>2024-02-22T10:48:01Z</time><name>PT906</name></trkpt>
<trkpt lat="52.078547" lon="05.941530"><ele>158.4</ele><time>2024-02-22T10:48:02Z</time><name>PT907</name></trkpt>
<trkpt lat="52.078547" lon="05.941525"><ele>158.4</ele><time>2024-02-22T10:48:03Z</time><name>PT908</name></trkpt>
<trkpt lat="52.078546" lon="05.941525"><ele>158.5</ele><time>2024-02-22T10:48:04Z</time><name>PT909</name></trkpt>
<trkpt lat="52.078546" lon="05.941527"><ele>158.4</ele><time>2024-02-22T10:48:06Z</time><name>PT910</name></trkpt>
<trkpt lat="52.078547" lon="05.941527"><ele>158.5</ele><time>2024-02-22T10:48:06Z</time><name>PT911</name></trkpt>
<trkpt lat="52.078548" lon="05.941528"><ele>158.7</ele><time>2024-02-22T10:48:12Z</time><name>PT912</name></trkpt>
<trkpt lat="52.078543" lon="05.941524"><ele>158.8</ele><time>2024-02-22T10:48:13Z</time><name>PT913</name></trkpt>
<trkpt lat="52.078531" lon="05.941517"><ele>158.9</ele><time>2024-02-22T10:48:15Z</time><name>PT914</name></trkpt>
<trkpt lat="52.078516" lon="05.941516"><ele>158.9</ele><time>2024-02-22T10:48:15Z</time><name>PT915</name></trkpt>
<trkpt lat="52.078503" lon="05.941518"><ele>158.8</ele><time>2024-02-22T10:48:16Z</time><name>PT916</name></trkpt>
<trkpt lat="52.078496" lon="05.941510"><ele>158.8</ele><time>2024-02-22T10:48:18Z</time><name>PT917</name></trkpt>
<trkpt lat="52.078491" lon="05.941506"><ele>158.8</ele><time>2024-02-22T10:48:18Z</time><name>PT918</name></trkpt>
<trkpt lat="52.078481" lon="05.941497"><ele>158.9</ele><time>2024-02-22T10:48:19Z</time><name>PT919</name></trkpt>
<trkpt lat="52.078465" lon="05.941490"><ele>158.9</ele><time>2024-02-22T10:48:21Z</time><name>PT920</name></trkpt>
<trkpt lat="52.078450" lon="05.941486"><ele>158.9</ele><time>2024-02-22T10:48:21Z</time><name>PT921</name></trkpt>
<trkpt lat="52.078438" lon="05.941483"><ele>159</ele><time>2024-02-22T10:48:22Z</time><name>PT922</name></trkpt>
<trkpt lat="52.078431" lon="05.941481"><ele>159</ele><time>2024-02-22T10:48:24Z</time><name>PT923</name></trkpt>
<trkpt lat="52.078424" lon="05.941484"><ele>158.8</ele><time>2024-02-22T10:48:24Z</time><name>PT924</name></trkpt>
<trkpt lat="52.078417" lon="05.941478"><ele>158.9</ele><time>2024-02-22T10:48:25Z</time><name>PT925</name></trkpt>
<trkpt lat="52.078405" lon="05.941470"><ele>159</ele><time>2024-02-22T10:48:26Z</time><name>PT926</name></trkpt>
<trkpt lat="52.078393" lon="05.941459"><ele>159.1</ele><time>2024-02-22T10:48:27Z</time><name>PT927</name></trkpt>
<trkpt lat="52.078375" lon="05.941451"><ele>159.3</ele><time>2024-02-22T10:48:28Z</time><name>PT928</name></trkpt>
<trkpt lat="52.078357" lon="05.941445"><ele>159.5</ele><time>2024-02-22T10:48:30Z</time><name>PT929</name></trkpt>
<trkpt lat="52.078341" lon="05.941437"><ele>159.5</ele><time>2024-02-22T10:48:30Z</time><name>PT930</name></trkpt>
<trkpt lat="52.078327" lon="05.941433"><ele>159.6</ele><time>2024-02-22T10:48:31Z</time><name>PT931</name></trkpt>
<trkpt lat="52.078317" lon="05.941429"><ele>159.7</ele><time>2024-02-22T10:48:32Z</time><name>PT932</name></trkpt>
<trkpt lat="52.078313" lon="05.941427"><ele>159.6</ele><time>2024-02-22T10:48:33Z</time><name>PT933</name></trkpt>
<trkpt lat="52.078305" lon="05.941424"><ele>159.5</ele><time>2024-02-22T10:48:34Z</time><name>PT934</name></trkpt>
<trkpt lat="52.078291" lon="05.941420"><ele>159.4</ele><time>2024-02-22T10:48:35Z</time><name>PT935</name></trkpt>
<trkpt lat="52.078276" lon="05.941411"><ele>159.4</ele><time>2024-02-22T10:48:36Z</time><name>PT936</name></trkpt>
<trkpt lat="52.078256" lon="05.941405"><ele>159.3</ele><time>2024-02-22T10:48:37Z</time><name>PT937</name></trkpt>
<trkpt lat="52.078240" lon="05.941398"><ele>159.3</ele><time>2024-02-22T10:48:38Z</time><name>PT938</name></trkpt>
<trkpt lat="52.078229" lon="05.941395"><ele>159.3</ele><time>2024-02-22T10:48:39Z</time><name>PT939</name></trkpt>
<trkpt lat="52.078226" lon="05.941390"><ele>159.5</ele><time>2024-02-22T10:48:40Z</time><name>PT940</name></trkpt>
<trkpt lat="52.078220" lon="05.941386"><ele>159.5</ele><time>2024-02-22T10:48:42Z</time><name>PT941</name></trkpt>
<trkpt lat="52.078212" lon="05.941385"><ele>159.4</ele><time>2024-02-22T10:48:42Z</time><name>PT942</name></trkpt>
<trkpt lat="52.078204" lon="05.941384"><ele>159.6</ele><time>2024-02-22T10:48:43Z</time><name>PT943</name></trkpt>
<trkpt lat="52.078196" lon="05.941378"><ele>159.5</ele><time>2024-02-22T10:48:44Z</time><name>PT944</name></trkpt>
<trkpt lat="52.078187" lon="05.941369"><ele>159.5</ele><time>2024-02-22T10:48:45Z</time><name>PT945</name></trkpt>
<trkpt lat="52.078174" lon="05.941366"><ele>159.7</ele><time>2024-02-22T10:48:46Z</time><name>PT946</name></trkpt>
<trkpt lat="52.078157" lon="05.941352"><ele>159.6</ele><time>2024-02-22T10:48:47Z</time><name>PT947</name></trkpt>
<trkpt lat="52.078141" lon="05.941342"><ele>159.7</ele><time>2024-02-22T10:48:48Z</time><name>PT948</name></trkpt>
<trkpt lat="52.078130" lon="05.941337"><ele>159.8</ele><time>2024-02-22T10:48:49Z</time><name>PT949</name></trkpt>
<trkpt lat="52.078124" lon="05.941334"><ele>160</ele><time>2024-02-22T10:48:50Z</time><name>PT950</name></trkpt>
<trkpt lat="52.078118" lon="05.941339"><ele>160</ele><time>2024-02-22T10:48:51Z</time><name>PT951</name></trkpt>
<trkpt lat="52.078109" lon="05.941333"><ele>160.1</ele><time>2024-02-22T10:48:52Z</time><name>PT952</name></trkpt>
<trkpt lat="52.078096" lon="05.941324"><ele>160</ele><time>2024-02-22T10:48:53Z</time><name>PT953</name></trkpt>
<trkpt lat="52.078084" lon="05.941310"><ele>160</ele><time>2024-02-22T10:48:54Z</time><name>PT954</name></trkpt>
<trkpt lat="52.078070" lon="05.941301"><ele>159.8</ele><time>2024-02-22T10:48:55Z</time><name>PT955</name></trkpt>
<trkpt lat="52.078055" lon="05.941294"><ele>159.9</ele><time>2024-02-22T10:48:56Z</time><name>PT956</name></trkpt>
<trkpt lat="52.078044" lon="05.941289"><ele>159.9</ele><time>2024-02-22T10:48:57Z</time><name>PT957</name></trkpt>
<trkpt lat="52.078037" lon="05.941287"><ele>159.8</ele><time>2024-02-22T10:48:58Z</time><name>PT958</name></trkpt>
<trkpt lat="52.078034" lon="05.941288"><ele>159.9</ele><time>2024-02-22T10:48:59Z</time><name>PT959</name></trkpt>
<trkpt lat="52.078028" lon="05.941283"><ele>159.8</ele><time>2024-02-22T10:49:00Z</time><name>PT960</name></trkpt>
<trkpt lat="52.078020" lon="05.941273"><ele>159.8</ele><time>2024-02-22T10:49:01Z</time><name>PT961</name></trkpt>
<trkpt lat="52.078006" lon="05.941257"><ele>159.8</ele><time>2024-02-22T10:49:02Z</time><name>PT962</name></trkpt>
<trkpt lat="52.077992" lon="05.941242"><ele>159.8</ele><time>2024-02-22T10:49:03Z</time><name>PT963</name></trkpt>
<trkpt lat="52.077976" lon="05.941231"><ele>159.7</ele><time>2024-02-22T10:49:04Z</time><name>PT964</name></trkpt>
<trkpt lat="52.077959" lon="05.941218"><ele>159.7</ele><time>2024-02-22T10:49:05Z</time><name>PT965</name></trkpt>
<trkpt lat="52.077945" lon="05.941209"><ele>159.5</ele><time>2024-02-22T10:49:06Z</time><name>PT966</name></trkpt>
<trkpt lat="52.077937" lon="05.941202"><ele>159.6</ele><time>2024-02-22T10:49:07Z</time><name>PT967</name></trkpt>
<trkpt lat="52.077930" lon="05.941202"><ele>159.5</ele><time>2024-02-22T10:49:09Z</time><name>PT968</name></trkpt>
<trkpt lat="52.077923" lon="05.941202"><ele>159.5</ele><time>2024-02-22T10:49:09Z</time><name>PT969</name></trkpt>
<trkpt lat="52.077916" lon="05.941195"><ele>159.5</ele><time>2024-02-22T10:49:10Z</time><name>PT970</name></trkpt>
<trkpt lat="52.077903" lon="05.941187"><ele>159.7</ele><time>2024-02-22T10:49:11Z</time><name>PT971</name></trkpt>
<trkpt lat="52.077885" lon="05.941176"><ele>159.7</ele><time>2024-02-22T10:49:12Z</time><name>PT972</name></trkpt>
<trkpt lat="52.077867" lon="05.941164"><ele>159.7</ele><time>2024-02-22T10:49:13Z</time><name>PT973</name></trkpt>
<trkpt lat="52.077853" lon="05.941155"><ele>159.8</ele><time>2024-02-22T10:49:14Z</time><name>PT974</name></trkpt>
<trkpt lat="52.077842" lon="05.941149"><ele>159.8</ele><time>2024-02-22T10:49:15Z</time><name>PT975</name></trkpt>
<trkpt lat="52.077837" lon="05.941146"><ele>159.7</ele><time>2024-02-22T10:49:16Z</time><name>PT976</name></trkpt>
<trkpt lat="52.077832" lon="05.941140"><ele>159.8</ele><time>2024-02-22T10:49:17Z</time><name>PT977</name></trkpt>
<trkpt lat="52.077827" lon="05.941134"><ele>159.8</ele><time>2024-02-22T10:49:18Z</time><name>PT978</name></trkpt>
<trkpt lat="52.077821" lon="05.941126"><ele>159.7</ele><time>2024-02-22T10:49:19Z</time><name>PT979</name></trkpt>
<trkpt lat="52.077813" lon="05.941116"><ele>159.7</ele><time>2024-02-22T10:49:21Z</time><name>PT980</name></trkpt>
<trkpt lat="52.077803" lon="05.941104"><ele>159.7</ele><time>2024-02-22T10:49:21Z</time><name>PT981</name></trkpt>
<trkpt lat="52.077786" lon="05.941086"><ele>159.5</ele><time>2024-02-22T10:49:22Z</time><name>PT982</name></trkpt>
<trkpt lat="52.077767" lon="05.941070"><ele>159.4</ele><time>2024-02-22T10:49:23Z</time><name>PT983</name></trkpt>
<trkpt lat="52.077749" lon="05.941059"><ele>159.4</ele><time>2024-02-22T10:49:24Z</time><name>PT984</name></trkpt>
<trkpt lat="52.077736" lon="05.941049"><ele>159.5</ele><time>2024-02-22T10:49:25Z</time><name>PT985</name></trkpt>
<trkpt lat="52.077728" lon="05.941042"><ele>159.7</ele><time>2024-02-22T10:49:26Z</time><name>PT986</name></trkpt>
<trkpt lat="52.077722" lon="05.941038"><ele>159.7</ele><time>2024-02-22T10:49:27Z</time><name>PT987</name></trkpt>
<trkpt lat="52.077716" lon="05.941034"><ele>159.7</ele><time>2024-02-22T10:49:28Z</time><name>PT988</name></trkpt>
<trkpt lat="52.077709" lon="05.941031"><ele>159.7</ele><time>2024-02-22T10:49:29Z</time><name>PT989</name></trkpt>
<trkpt lat="52.077699" lon="05.941023"><ele>159.8</ele><time>2024-02-22T10:49:30Z</time><name>PT990</name></trkpt>
<trkpt lat="52.077691" lon="05.941012"><ele>159.8</ele><time>2024-02-22T10:49:31Z</time><name>PT991</name></trkpt>
<trkpt lat="52.077681" lon="05.941002"><ele>159.8</ele><time>2024-02-22T10:49:32Z</time><name>PT992</name></trkpt>
<trkpt lat="52.077671" lon="05.940990"><ele>159.9</ele><time>2024-02-22T10:49:33Z</time><name>PT993</name></trkpt>
<trkpt lat="52.077657" lon="05.940979"><ele>160.1</ele><time>2024-02-22T10:49:34Z</time><name>PT994</name></trkpt>
<trkpt lat="52.077641" lon="05.940968"><ele>160.2</ele><time>2024-02-22T10:49:35Z</time><name>PT995</name></trkpt>
<trkpt lat="52.077631" lon="05.940957"><ele>160.2</ele><time>2024-02-22T10:49:36Z</time><name>PT996</name></trkpt>
<trkpt lat="52.077624" lon="05.940946"><ele>160.1</ele><time>2024-02-22T10:49:37Z</time><name>PT997</name></trkpt>
<trkpt lat="52.077618" lon="05.940935"><ele>160</ele><time>2024-02-22T10:49:38Z</time><name>PT998</name></trkpt>
<trkpt lat="52.077612" lon="05.940924"><ele>159.8</ele><time>2024-02-22T10:49:39Z</time><name>PT999</name></trkpt>
<trkpt lat="52.077606" lon="05.940915"><ele>159.7</ele><time>2024-02-22T10:49:40Z</time><name>PT1000</name></trkpt>
<trkpt lat="52.077599" lon="05.940904"><ele>159.7</ele><time>2024-02-22T10:49:41Z</time><name>PT1001</name></trkpt>
<trkpt lat="52.077592" lon="05.940893"><ele>159.7</ele><time>2024-02-22T10:49:42Z</time><name>PT1002</name></trkpt>
<trkpt lat="52.077585" lon="05.940882"><ele>159.9</ele><time>2024-02-22T10:49:43Z</time><name>PT1003</name></trkpt>
<trkpt lat="52.077578" lon="05.940869"><ele>159.9</ele><time>2024-02-22T10:49:45Z</time><name>PT1004</name></trkpt>
<trkpt lat="52.077571" lon="05.940859"><ele>159.9</ele><time>2024-02-22T10:49:45Z</time><name>PT1005</name></trkpt>
<trkpt lat="52.077565" lon="05.940848"><ele>159.8</ele><time>2024-02-22T10:49:46Z</time><name>PT1006</name></trkpt>
<trkpt lat="52.077559" lon="05.940836"><ele>159.9</ele><time>2024-02-22T10:49:47Z</time><name>PT1007</name></trkpt>
<trkpt lat="52.077554" lon="05.940824"><ele>159.8</ele><time>2024-02-22T10:49:48Z</time><name>PT1008</name></trkpt>
<trkpt lat="52.077549" lon="05.940818"><ele>159.8</ele><time>2024-02-22T10:49:49Z</time><name>PT1009</name></trkpt>
<trkpt lat="52.077547" lon="05.940810"><ele>159.9</ele><time>2024-02-22T10:49:50Z</time><name>PT1010</name></trkpt>
<trkpt lat="52.077544" lon="05.940794"><ele>159.9</ele><time>2024-02-22T10:49:51Z</time><name>PT1011</name></trkpt>
<trkpt lat="52.077540" lon="05.940773"><ele>159.9</ele><time>2024-02-22T10:49:52Z</time><name>PT1012</name></trkpt>
<trkpt lat="52.077533" lon="05.940750"><ele>159.8</ele><time>2024-02-22T10:49:53Z</time><name>PT1013</name></trkpt>
<trkpt lat="52.077525" lon="05.940725"><ele>159.8</ele><time>2024-02-22T10:49:54Z</time><name>PT1014</name></trkpt>
<trkpt lat="52.077517" lon="05.940704"><ele>159.8</ele><time>2024-02-22T10:49:55Z</time><name>PT1015</name></trkpt>
<trkpt lat="52.077508" lon="05.940685"><ele>159.8</ele><time>2024-02-22T10:49:56Z</time><name>PT1016</name></trkpt>
<trkpt lat="52.077500" lon="05.940672"><ele>159.8</ele><time>2024-02-22T10:49:57Z</time><name>PT1017</name></trkpt>
<trkpt lat="52.077493" lon="05.940662"><ele>160.2</ele><time>2024-02-22T10:49:58Z</time><name>PT1018</name></trkpt>
<trkpt lat="52.077486" lon="05.940650"><ele>160.1</ele><time>2024-02-22T10:49:59Z</time><name>PT1019</name></trkpt>
<trkpt lat="52.077480" lon="05.940638"><ele>160.1</ele><time>2024-02-22T10:50:00Z</time><name>PT1020</name></trkpt>
<trkpt lat="52.077475" lon="05.940624"><ele>160.2</ele><time>2024-02-22T10:50:01Z</time><name>PT1021</name></trkpt>
<trkpt lat="52.077470" lon="05.940613"><ele>160.3</ele><time>2024-02-22T10:50:02Z</time><name>PT1022</name></trkpt>
<trkpt lat="52.077466" lon="05.940599"><ele>160.2</ele><time>2024-02-22T10:50:03Z</time><name>PT1023</name></trkpt>
<trkpt lat="52.077459" lon="05.940584"><ele>160.3</ele><time>2024-02-22T10:50:04Z</time><name>PT1024</name></trkpt>
<trkpt lat="52.077442" lon="05.940566"><ele>160.3</ele><time>2024-02-22T10:50:06Z</time><name>PT1025</name></trkpt>
<trkpt lat="52.077426" lon="05.940547"><ele>160.3</ele><time>2024-02-22T10:50:06Z</time><name>PT1026</name></trkpt>
<trkpt lat="52.077414" lon="05.940527"><ele>160.4</ele><time>2024-02-22T10:50:07Z</time><name>PT1027</name></trkpt>
<trkpt lat="52.077403" lon="05.940510"><ele>160.5</ele><time>2024-02-22T10:50:08Z</time><name>PT1028</name></trkpt>
<trkpt lat="52.077396" lon="05.940492"><ele>160.5</ele><time>2024-02-22T10:50:09Z</time><name>PT1029</name></trkpt>
<trkpt lat="52.077390" lon="05.940480"><ele>160.5</ele><time>2024-02-22T10:50:10Z</time><name>PT1030</name></trkpt>
<trkpt lat="52.077383" lon="05.940470"><ele>160.5</ele><time>2024-02-22T10:50:11Z</time><name>PT1031</name></trkpt>
<trkpt lat="52.077376" lon="05.940462"><ele>160.6</ele><time>2024-02-22T10:50:12Z</time><name>PT1032</name></trkpt>
<trkpt lat="52.077370" lon="05.940452"><ele>160.6</ele><time>2024-02-22T10:50:13Z</time><name>PT1033</name></trkpt>
<trkpt lat="52.077365" lon="05.940448"><ele>160.7</ele><time>2024-02-22T10:50:14Z</time><name>PT1034</name></trkpt>
<trkpt lat="52.077361" lon="05.940440"><ele>160.9</ele><time>2024-02-22T10:50:15Z</time><name>PT1035</name></trkpt>
<trkpt lat="52.077353" lon="05.940425"><ele>160.9</ele><time>2024-02-22T10:50:16Z</time><name>PT1036</name></trkpt>
<trkpt lat="52.077341" lon="05.940405"><ele>161.1</ele><time>2024-02-22T10:50:18Z</time><name>PT1037</name></trkpt>
<trkpt lat="52.077330" lon="05.940389"><ele>161.1</ele><time>2024-02-22T10:50:18Z</time><name>PT1038</name></trkpt>
<trkpt lat="52.077320" lon="05.940380"><ele>161.2</ele><time>2024-02-22T10:50:19Z</time><name>PT1039</name></trkpt>
<trkpt lat="52.077313" lon="05.940373"><ele>161.1</ele><time>2024-02-22T10:50:20Z</time><name>PT1040</name></trkpt>
<trkpt lat="52.077308" lon="05.940369"><ele>161.1</ele><time>2024-02-22T10:50:21Z</time><name>PT1041</name></trkpt>
<trkpt lat="52.077302" lon="05.940369"><ele>160.9</ele><time>2024-02-22T10:50:22Z</time><name>PT1042</name></trkpt>
<trkpt lat="52.077299" lon="05.940362"><ele>161.1</ele><time>2024-02-22T10:50:24Z</time><name>PT1043</name></trkpt>
<trkpt lat="52.077292" lon="05.940349"><ele>161.2</ele><time>2024-02-22T10:50:24Z</time><name>PT1044</name></trkpt>
<trkpt lat="52.077282" lon="05.940337"><ele>161.4</ele><time>2024-02-22T10:50:25Z</time><name>PT1045</name></trkpt>
<trkpt lat="52.077273" lon="05.940330"><ele>161.5</ele><time>2024-02-22T10:50:27Z</time><name>PT1046</name></trkpt>
<trkpt lat="52.077267" lon="05.940323"><ele>161.6</ele><time>2024-02-22T10:50:27Z</time><name>PT1047</name></trkpt>
<trkpt lat="52.077261" lon="05.940315"><ele>161.6</ele><time>2024-02-22T10:50:28Z</time><name>PT1048</name></trkpt>
<trkpt lat="52.077254" lon="05.940303"><ele>161.7</ele><time>2024-02-22T10:50:30Z</time><name>PT1049</name></trkpt>
<trkpt lat="52.077244" lon="05.940288"><ele>161.7</ele><time>2024-02-22T10:50:30Z</time><name>PT1050</name></trkpt>
<trkpt lat="52.077232" lon="05.940275"><ele>161.6</ele><time>2024-02-22T10:50:31Z</time><name>PT1051</name></trkpt>
<trkpt lat="52.077223" lon="05.940260"><ele>161.5</ele><time>2024-02-22T10:50:32Z</time><name>PT1052</name></trkpt>
<trkpt lat="52.077217" lon="05.940248"><ele>161.6</ele><time>2024-02-22T10:50:33Z</time><name>PT1053</name></trkpt>
<trkpt lat="52.077212" lon="05.940242"><ele>161.6</ele><time>2024-02-22T10:50:34Z</time><name>PT1054</name></trkpt>
<trkpt lat="52.077206" lon="05.940231"><ele>161.8</ele><time>2024-02-22T10:50:35Z</time><name>PT1055</name></trkpt>
<trkpt lat="52.077202" lon="05.940213"><ele>161.9</ele><time>2024-02-22T10:50:36Z</time><name>PT1056</name></trkpt>
<trkpt lat="52.077196" lon="05.940193"><ele>161.9</ele><time>2024-02-22T10:50:37Z</time><name>PT1057</name></trkpt>
<trkpt lat="52.077191" lon="05.940178"><ele>161.9</ele><time>2024-02-22T10:50:38Z</time><name>PT1058</name></trkpt>
<trkpt lat="52.077190" lon="05.940169"><ele>161.9</ele><time>2024-02-22T10:50:39Z</time><name>PT1059</name></trkpt>
<trkpt lat="52.077189" lon="05.940159"><ele>161.7</ele><time>2024-02-22T10:50:40Z</time><name>PT1060</name></trkpt>
<trkpt lat="52.077187" lon="05.940146"><ele>161.8</ele><time>2024-02-22T10:50:42Z</time><name>PT1061</name></trkpt>
<trkpt lat="52.077182" lon="05.940125"><ele>161.9</ele><time>2024-02-22T10:50:42Z</time><name>PT1062</name></trkpt>
<trkpt lat="52.077173" lon="05.940095"><ele>162</ele><time>2024-02-22T10:50:43Z</time><name>PT1063</name></trkpt>
<trkpt lat="52.077164" lon="05.940067"><ele>162</ele><time>2024-02-22T10:50:44Z</time><name>PT1064</name></trkpt>
<trkpt lat="52.077158" lon="05.940055"><ele>162</ele><time>2024-02-22T10:50:45Z</time><name>PT1065</name></trkpt>
<trkpt lat="52.077156" lon="05.940050"><ele>162.1</ele><time>2024-02-22T10:50:46Z</time><name>PT1066</name></trkpt>
<trkpt lat="52.077152" lon="05.940041"><ele>162</ele><time>2024-02-22T10:50:48Z</time><name>PT1067</name></trkpt>
<trkpt lat="52.077147" lon="05.940020"><ele>162</ele><time>2024-02-22T10:50:48Z</time><name>PT1068</name></trkpt>
<trkpt lat="52.077141" lon="05.939990"><ele>162.1</ele><time>2024-02-22T10:50:49Z</time><name>PT1069</name></trkpt>
<trkpt lat="52.077136" lon="05.939971"><ele>162</ele><time>2024-02-22T10:50:50Z</time><name>PT1070</name></trkpt>
<trkpt lat="52.077132" lon="05.939959"><ele>162</ele><time>2024-02-22T10:50:51Z</time><name>PT1071</name></trkpt>
<trkpt lat="52.077131" lon="05.939949"><ele>162</ele><time>2024-02-22T10:50:52Z</time><name>PT1072</name></trkpt>
<trkpt lat="52.077129" lon="05.939938"><ele>161.9</ele><time>2024-02-22T10:50:53Z</time><name>PT1073</name></trkpt>
<trkpt lat="52.077125" lon="05.939920"><ele>162</ele><time>2024-02-22T10:50:54Z</time><name>PT1074</name></trkpt>
<trkpt lat="52.077121" lon="05.939895"><ele>162.1</ele><time>2024-02-22T10:50:55Z</time><name>PT1075</name></trkpt>
<trkpt lat="52.077116" lon="05.939873"><ele>162</ele><time>2024-02-22T10:50:56Z</time><name>PT1076</name></trkpt>
<trkpt lat="52.077111" lon="05.939857"><ele>162.1</ele><time>2024-02-22T10:50:57Z</time><name>PT1077</name></trkpt>
<trkpt lat="52.077110" lon="05.939846"><ele>162.2</ele><time>2024-02-22T10:50:58Z</time><name>PT1078</name></trkpt>
<trkpt lat="52.077109" lon="05.939836"><ele>162.2</ele><time>2024-02-22T10:51:00Z</time><name>PT1079</name></trkpt>
<trkpt lat="52.077108" lon="05.939817"><ele>162.3</ele><time>2024-02-22T10:51:00Z</time><name>PT1080</name></trkpt>
<trkpt lat="52.077105" lon="05.939796"><ele>162.4</ele><time>2024-02-22T10:51:01Z</time><name>PT1081</name></trkpt>
<trkpt lat="52.077106" lon="05.939785"><ele>162.4</ele><time>2024-02-22T10:51:02Z</time><name>PT1082</name></trkpt>
<trkpt lat="52.077108" lon="05.939779"><ele>162.4</ele><time>2024-02-22T10:51:03Z</time><name>PT1083</name></trkpt>
<trkpt lat="52.077108" lon="05.939765"><ele>162.3</ele><time>2024-02-22T10:51:04Z</time><name>PT1084</name></trkpt>
<trkpt lat="52.077107" lon="05.939755"><ele>162.4</ele><time>2024-02-22T10:51:06Z</time><name>PT1085</name></trkpt>
<trkpt lat="52.077105" lon="05.939748"><ele>162.4</ele><time>2024-02-22T10:51:06Z</time><name>PT1086</name></trkpt>
<trkpt lat="52.077103" lon="05.939729"><ele>162.5</ele><time>2024-02-22T10:51:07Z</time><name>PT1087</name></trkpt>
<trkpt lat="52.077102" lon="05.939706"><ele>162.6</ele><time>2024-02-22T10:51:08Z</time><name>PT1088</name></trkpt>
<trkpt lat="52.077099" lon="05.939691"><ele>162.6</ele><time>2024-02-22T10:51:09Z</time><name>PT1089</name></trkpt>
<trkpt lat="52.077097" lon="05.939678"><ele>162.6</ele><time>2024-02-22T10:51:10Z</time><name>PT1090</name></trkpt>
<trkpt lat="52.077097" lon="05.939665"><ele>162.5</ele><time>2024-02-22T10:51:11Z</time><name>PT1091</name></trkpt>
<trkpt lat="52.077097" lon="05.939652"><ele>162.5</ele><time>2024-02-22T10:51:12Z</time><name>PT1092</name></trkpt>
<trkpt lat="52.077094" lon="05.939628"><ele>162.7</ele><time>2024-02-22T10:51:13Z</time><name>PT1093</name></trkpt>
<trkpt lat="52.077091" lon="05.939605"><ele>162.6</ele><time>2024-02-22T10:51:14Z</time><name>PT1094</name></trkpt>
<trkpt lat="52.077087" lon="05.939588"><ele>162.7</ele><time>2024-02-22T10:51:15Z</time><name>PT1095</name></trkpt>
<trkpt lat="52.077086" lon="05.939576"><ele>162.9</ele><time>2024-02-22T10:51:16Z</time><name>PT1096</name></trkpt>
<trkpt lat="52.077087" lon="05.939564"><ele>162.9</ele><time>2024-02-22T10:51:17Z</time><name>PT1097</name></trkpt>
<trkpt lat="52.077087" lon="05.939553"><ele>162.9</ele><time>2024-02-22T10:51:18Z</time><name>PT1098</name></trkpt>
<trkpt lat="52.077084" lon="05.939529"><ele>162.8</ele><time>2024-02-22T10:51:19Z</time><name>PT1099</name></trkpt>
<trkpt lat="52.077079" lon="05.939503"><ele>162.8</ele><time>2024-02-22T10:51:20Z</time><name>PT1100</name></trkpt>
<trkpt lat="52.077076" lon="05.939484"><ele>163</ele><time>2024-02-22T10:51:21Z</time><name>PT1101</name></trkpt>
<trkpt lat="52.077073" lon="05.939471"><ele>163.1</ele><time>2024-02-22T10:51:22Z</time><name>PT1102</name></trkpt>
<trkpt lat="52.077069" lon="05.939461"><ele>163.3</ele><time>2024-02-22T10:51:23Z</time><name>PT1103</name></trkpt>
<trkpt lat="52.077067" lon="05.939449"><ele>163.4</ele><time>2024-02-22T10:51:24Z</time><name>PT1104</name></trkpt>
<trkpt lat="52.077065" lon="05.939431"><ele>163.5</ele><time>2024-02-22T10:51:25Z</time><name>PT1105</name></trkpt>
<trkpt lat="52.077059" lon="05.939410"><ele>163.5</ele><time>2024-02-22T10:51:27Z</time><name>PT1106</name></trkpt>
<trkpt lat="52.077052" lon="05.939391"><ele>163.5</ele><time>2024-02-22T10:51:27Z</time><name>PT1107</name></trkpt>
<trkpt lat="52.077049" lon="05.939373"><ele>163.4</ele><time>2024-02-22T10:51:28Z</time><name>PT1108</name></trkpt>
<trkpt lat="52.077048" lon="05.939364"><ele>163.1</ele><time>2024-02-22T10:51:29Z</time><name>PT1109</name></trkpt>
<trkpt lat="52.077046" lon="05.939356"><ele>163.3</ele><time>2024-02-22T10:51:30Z</time><name>PT1110</name></trkpt>
<trkpt lat="52.077045" lon="05.939346"><ele>163.4</ele><time>2024-02-22T10:51:31Z</time><name>PT1111</name></trkpt>
<trkpt lat="52.077038" lon="05.939330"><ele>163.7</ele><time>2024-02-22T10:51:32Z</time><name>PT1112</name></trkpt>
<trkpt lat="52.077033" lon="05.939309"><ele>163.7</ele><time>2024-02-22T10:51:33Z</time><name>PT1113</name></trkpt>
<trkpt lat="52.077027" lon="05.939286"><ele>163.7</ele><time>2024-02-22T10:51:34Z</time><name>PT1114</name></trkpt>
<trkpt lat="52.077021" lon="05.939267"><ele>163.7</ele><time>2024-02-22T10:51:35Z</time><name>PT1115</name></trkpt>
<trkpt lat="52.077017" lon="05.939252"><ele>163.7</ele><time>2024-02-22T10:51:36Z</time><name>PT1116</name></trkpt>
<trkpt lat="52.077013" lon="05.939239"><ele>163.6</ele><time>2024-02-22T10:51:37Z</time><name>PT1117</name></trkpt>
<trkpt lat="52.077009" lon="05.939226"><ele>163.8</ele><time>2024-02-22T10:51:38Z</time><name>PT1118</name></trkpt>
<trkpt lat="52.077005" lon="05.939218"><ele>164</ele><time>2024-02-22T10:51:39Z</time><name>PT1119</name></trkpt>
<trkpt lat="52.077001" lon="05.939208"><ele>164.2</ele><time>2024-02-22T10:51:40Z</time><name>PT1120</name></trkpt>
<trkpt lat="52.076998" lon="05.939194"><ele>164.1</ele><time>2024-02-22T10:51:41Z</time><name>PT1121</name></trkpt>
<trkpt lat="52.076988" lon="05.939174"><ele>164.1</ele><time>2024-02-22T10:51:42Z</time><name>PT1122</name></trkpt>
<trkpt lat="52.076979" lon="05.939149"><ele>164.1</ele><time>2024-02-22T10:51:43Z</time><name>PT1123</name></trkpt>
<trkpt lat="52.076975" lon="05.939127"><ele>163.9</ele><time>2024-02-22T10:51:44Z</time><name>PT1124</name></trkpt>
<trkpt lat="52.076972" lon="05.939116"><ele>164</ele><time>2024-02-22T10:51:45Z</time><name>PT1125</name></trkpt>
<trkpt lat="52.076971" lon="05.939108"><ele>164.1</ele><time>2024-02-22T10:51:46Z</time><name>PT1126</name></trkpt>
<trkpt lat="52.076969" lon="05.939099"><ele>164</ele><time>2024-02-22T10:51:47Z</time><name>PT1127</name></trkpt>
<trkpt lat="52.076966" lon="05.939087"><ele>164</ele><time>2024-02-22T10:51:48Z</time><name>PT1128</name></trkpt>
<trkpt lat="52.076963" lon="05.939071"><ele>164</ele><time>2024-02-22T10:51:49Z</time><name>PT1129</name></trkpt>
<trkpt lat="52.076958" lon="05.939050"><ele>164.1</ele><time>2024-02-22T10:51:51Z</time><name>PT1130</name></trkpt>
<trkpt lat="52.076950" lon="05.939026"><ele>164.2</ele><time>2024-02-22T10:51:51Z</time><name>PT1131</name></trkpt>
<trkpt lat="52.076945" lon="05.939001"><ele>163.9</ele><time>2024-02-22T10:51:52Z</time><name>PT1132</name></trkpt>
<trkpt lat="52.076942" lon="05.938980"><ele>163.8</ele><time>2024-02-22T10:51:53Z</time><name>PT1133</name></trkpt>
<trkpt lat="52.076938" lon="05.938967"><ele>163.8</ele><time>2024-02-22T10:51:54Z</time><name>PT1134</name></trkpt>
<trkpt lat="52.076937" lon="05.938959"><ele>163.7</ele><time>2024-02-22T10:51:55Z</time><name>PT1135</name></trkpt>
<trkpt lat="52.076936" lon="05.938950"><ele>163.8</ele><time>2024-02-22T10:51:56Z</time><name>PT1136</name></trkpt>
<trkpt lat="52.076933" lon="05.938933"><ele>163.9</ele><time>2024-02-22T10:51:57Z</time><name>PT1137</name></trkpt>
<trkpt lat="52.076930" lon="05.938912"><ele>163.7</ele><time>2024-02-22T10:51:58Z</time><name>PT1138</name></trkpt>
<trkpt lat="52.076923" lon="05.938890"><ele>163.9</ele><time>2024-02-22T10:51:59Z</time><name>PT1139</name></trkpt>
<trkpt lat="52.076917" lon="05.938870"><ele>163.9</ele><time>2024-02-22T10:52:00Z</time><name>PT1140</name></trkpt>
<trkpt lat="52.076914" lon="05.938851"><ele>163.8</ele><time>2024-02-22T10:52:01Z</time><name>PT1141</name></trkpt>
<trkpt lat="52.076910" lon="05.938840"><ele>163.8</ele><time>2024-02-22T10:52:03Z</time><name>PT1142</name></trkpt>
<trkpt lat="52.076907" lon="05.938830"><ele>163.6</ele><time>2024-02-22T10:52:03Z</time><name>PT1143</name></trkpt>
<trkpt lat="52.076905" lon="05.938815"><ele>163.7</ele><time>2024-02-22T10:52:04Z</time><name>PT1144</name></trkpt>
<trkpt lat="52.076902" lon="05.938800"><ele>163.6</ele><time>2024-02-22T10:52:05Z</time><name>PT1145</name></trkpt>
<trkpt lat="52.076899" lon="05.938778"><ele>163.6</ele><time>2024-02-22T10:52:06Z</time><name>PT1146</name></trkpt>
<trkpt lat="52.076894" lon="05.938756"><ele>163.7</ele><time>2024-02-22T10:52:07Z</time><name>PT1147</name></trkpt>
<trkpt lat="52.076886" lon="05.938734"><ele>163.7</ele><time>2024-02-22T10:52:08Z</time><name>PT1148</name></trkpt>
<trkpt lat="52.076879" lon="05.938715"><ele>163.8</ele><time>2024-02-22T10:52:09Z</time><name>PT1149</name></trkpt>
<trkpt lat="52.076875" lon="05.938699"><ele>163.7</ele><time>2024-02-22T10:52:10Z</time><name>PT1150</name></trkpt>
<trkpt lat="52.076872" lon="05.938688"><ele>163.6</ele><time>2024-02-22T10:52:11Z</time><name>PT1151</name></trkpt>
<trkpt lat="52.076870" lon="05.938682"><ele>163.6</ele><time>2024-02-22T10:52:12Z</time><name>PT1152</name></trkpt>
<trkpt lat="52.076868" lon="05.938671"><ele>163.6</ele><time>2024-02-22T10:52:13Z</time><name>PT1153</name></trkpt>
<trkpt lat="52.076865" lon="05.938658"><ele>163.7</ele><time>2024-02-22T10:52:14Z</time><name>PT1154</name></trkpt>
<trkpt lat="52.076861" lon="05.938642"><ele>163.7</ele><time>2024-02-22T10:52:15Z</time><name>PT1155</name></trkpt>
<trkpt lat="52.076851" lon="05.938624"><ele>163.7</ele><time>2024-02-22T10:52:16Z</time><name>PT1156</name></trkpt>
<trkpt lat="52.076843" lon="05.938607"><ele>163.4</ele><time>2024-02-22T10:52:17Z</time><name>PT1157</name></trkpt>
<trkpt lat="52.076838" lon="05.938594"><ele>163.3</ele><time>2024-02-22T10:52:18Z</time><name>PT1158</name></trkpt>
<trkpt lat="52.076838" lon="05.938581"><ele>163.1</ele><time>2024-02-22T10:52:19Z</time><name>PT1159</name></trkpt>
<trkpt lat="52.076836" lon="05.938568"><ele>163.1</ele><time>2024-02-22T10:52:20Z</time><name>PT1160</name></trkpt>
<trkpt lat="52.076837" lon="05.938553"><ele>163.2</ele><time>2024-02-22T10:52:21Z</time><name>PT1161</name></trkpt>
<trkpt lat="52.076835" lon="05.938531"><ele>163.5</ele><time>2024-02-22T10:52:22Z</time><name>PT1162</name></trkpt>
<trkpt lat="52.076829" lon="05.938506"><ele>163.7</ele><time>2024-02-22T10:52:23Z</time><name>PT1163</name></trkpt>
<trkpt lat="52.076826" lon="05.938483"><ele>163.6</ele><time>2024-02-22T10:52:24Z</time><name>PT1164</name></trkpt>
<trkpt lat="52.076822" lon="05.938465"><ele>163.5</ele><time>2024-02-22T10:52:25Z</time><name>PT1165</name></trkpt>
<trkpt lat="52.076821" lon="05.938450"><ele>163.5</ele><time>2024-02-22T10:52:26Z</time><name>PT1166</name></trkpt>
<trkpt lat="52.076820" lon="05.938437"><ele>163.5</ele><time>2024-02-22T10:52:27Z</time><name>PT1167</name></trkpt>
<trkpt lat="52.076817" lon="05.938424"><ele>163.5</ele><time>2024-02-22T10:52:28Z</time><name>PT1168</name></trkpt>
<trkpt lat="52.076815" lon="05.938407"><ele>163.7</ele><time>2024-02-22T10:52:30Z</time><name>PT1169</name></trkpt>
<trkpt lat="52.076812" lon="05.938382"><ele>163.7</ele><time>2024-02-22T10:52:30Z</time><name>PT1170</name></trkpt>
<trkpt lat="52.076807" lon="05.938356"><ele>163.7</ele><time>2024-02-22T10:52:31Z</time><name>PT1171</name></trkpt>
<trkpt lat="52.076806" lon="05.938334"><ele>163.7</ele><time>2024-02-22T10:52:32Z</time><name>PT1172</name></trkpt>
<trkpt lat="52.076805" lon="05.938321"><ele>163.7</ele><time>2024-02-22T10:52:33Z</time><name>PT1173</name></trkpt>
<trkpt lat="52.076806" lon="05.938311"><ele>163.7</ele><time>2024-02-22T10:52:34Z</time><name>PT1174</name></trkpt>
<trkpt lat="52.076809" lon="05.938301"><ele>163.7</ele><time>2024-02-22T10:52:35Z</time><name>PT1175</name></trkpt>
<trkpt lat="52.076810" lon="05.938287"><ele>163.6</ele><time>2024-02-22T10:52:36Z</time><name>PT1176</name></trkpt>
<trkpt lat="52.076808" lon="05.938267"><ele>163.7</ele><time>2024-02-22T10:52:37Z</time><name>PT1177</name></trkpt>
<trkpt lat="52.076807" lon="05.938243"><ele>163.7</ele><time>2024-02-22T10:52:38Z</time><name>PT1178</name></trkpt>
<trkpt lat="52.076804" lon="05.938220"><ele>163.6</ele><time>2024-02-22T10:52:39Z</time><name>PT1179</name></trkpt>
<trkpt lat="52.076800" lon="05.938199"><ele>163.7</ele><time>2024-02-22T10:52:40Z</time><name>PT1180</name></trkpt>
<trkpt lat="52.076798" lon="05.938181"><ele>163.6</ele><time>2024-02-22T10:52:42Z</time><name>PT1181</name></trkpt>
<trkpt lat="52.076796" lon="05.938168"><ele>163.7</ele><time>2024-02-22T10:52:42Z</time><name>PT1182</name></trkpt>
<trkpt lat="52.076797" lon="05.938155"><ele>163.7</ele><time>2024-02-22T10:52:43Z</time><name>PT1183</name></trkpt>
<trkpt lat="52.076800" lon="05.938145"><ele>163.7</ele><time>2024-02-22T10:52:44Z</time><name>PT1184</name></trkpt>
<trkpt lat="52.076802" lon="05.938126"><ele>163.6</ele><time>2024-02-22T10:52:45Z</time><name>PT1185</name></trkpt>
<trkpt lat="52.076798" lon="05.938103"><ele>163.8</ele><time>2024-02-22T10:52:46Z</time><name>PT1186</name></trkpt>
<trkpt lat="52.076794" lon="05.938078"><ele>163.9</ele><time>2024-02-22T10:52:47Z</time><name>PT1187</name></trkpt>
<trkpt lat="52.076793" lon="05.938055"><ele>164</ele><time>2024-02-22T10:52:48Z</time><name>PT1188</name></trkpt>
<trkpt lat="52.076793" lon="05.938039"><ele>163.7</ele><time>2024-02-22T10:52:49Z</time><name>PT1189</name></trkpt>
<trkpt lat="52.076793" lon="05.938028"><ele>163.7</ele><time>2024-02-22T10:52:50Z</time><name>PT1190</name></trkpt>
<trkpt lat="52.076792" lon="05.938019"><ele>163.9</ele><time>2024-02-22T10:52:51Z</time><name>PT1191</name></trkpt>
<trkpt lat="52.076789" lon="05.938006"><ele>163.7</ele><time>2024-02-22T10:52:52Z</time><name>PT1192</name></trkpt>
<trkpt lat="52.076788" lon="05.937985"><ele>163.9</ele><time>2024-02-22T10:52:53Z</time><name>PT1193</name></trkpt>
<trkpt lat="52.076788" lon="05.937963"><ele>163.9</ele><time>2024-02-22T10:52:54Z</time><name>PT1194</name></trkpt>
<trkpt lat="52.076788" lon="05.937945"><ele>163.8</ele><time>2024-02-22T10:52:55Z</time><name>PT1195</name></trkpt>
<trkpt lat="52.076787" lon="05.937927"><ele>163.8</ele><time>2024-02-22T10:52:56Z</time><name>PT1196</name></trkpt>
<trkpt lat="52.076787" lon="05.937915"><ele>163.7</ele><time>2024-02-22T10:52:57Z</time><name>PT1197</name></trkpt>
<trkpt lat="52.076789" lon="05.937904"><ele>163.6</ele><time>2024-02-22T10:52:58Z</time><name>PT1198</name></trkpt>
<trkpt lat="52.076791" lon="05.937892"><ele>163.4</ele><time>2024-02-22T10:52:59Z</time><name>PT1199</name></trkpt>
<trkpt lat="52.076794" lon="05.937878"><ele>163.5</ele><time>2024-02-22T10:53:00Z</time><name>PT1200</name></trkpt>
<trkpt lat="52.076797" lon="05.937859"><ele>163.7</ele><time>2024-02-22T10:53:01Z</time><name>PT1201</name></trkpt>
<trkpt lat="52.076796" lon="05.937833"><ele>163.8</ele><time>2024-02-22T10:53:02Z</time><name>PT1202</name></trkpt>
<trkpt lat="52.076792" lon="05.937808"><ele>163.7</ele><time>2024-02-22T10:53:03Z</time><name>PT1203</name></trkpt>
<trkpt lat="52.076797" lon="05.937786"><ele>163.7</ele><time>2024-02-22T10:53:04Z</time><name>PT1204</name></trkpt>
<trkpt lat="52.076798" lon="05.937772"><ele>163.5</ele><time>2024-02-22T10:53:06Z</time><name>PT1205</name></trkpt>
<trkpt lat="52.076797" lon="05.937762"><ele>163.5</ele><time>2024-02-22T10:53:06Z</time><name>PT1206</name></trkpt>
<trkpt lat="52.076795" lon="05.937751"><ele>163.4</ele><time>2024-02-22T10:53:07Z</time><name>PT1207</name></trkpt>
<trkpt lat="52.076793" lon="05.937739"><ele>163.4</ele><time>2024-02-22T10:53:08Z</time><name>PT1208</name></trkpt>
<trkpt lat="52.076792" lon="05.937721"><ele>163.5</ele><time>2024-02-22T10:53:09Z</time><name>PT1209</name></trkpt>
<trkpt lat="52.076794" lon="05.937694"><ele>163.5</ele><time>2024-02-22T10:53:10Z</time><name>PT1210</name></trkpt>
<trkpt lat="52.076796" lon="05.937664"><ele>163.3</ele><time>2024-02-22T10:53:11Z</time><name>PT1211</name></trkpt>
<trkpt lat="52.076798" lon="05.937632"><ele>163.3</ele><time>2024-02-22T10:53:12Z</time><name>PT1212</name></trkpt>
<trkpt lat="52.076796" lon="05.937610"><ele>163.2</ele><time>2024-02-22T10:53:13Z</time><name>PT1213</name></trkpt>
<trkpt lat="52.076794" lon="05.937598"><ele>163.2</ele><time>2024-02-22T10:53:14Z</time><name>PT1214</name></trkpt>
<trkpt lat="52.076793" lon="05.937589"><ele>163.2</ele><time>2024-02-22T10:53:15Z</time><name>PT1215</name></trkpt>
<trkpt lat="52.076792" lon="05.937576"><ele>163.2</ele><time>2024-02-22T10:53:16Z</time><name>PT1216</name></trkpt>
<trkpt lat="52.076791" lon="05.937561"><ele>163.2</ele><time>2024-02-22T10:53:17Z</time><name>PT1217</name></trkpt>
<trkpt lat="52.076792" lon="05.937543"><ele>163.3</ele><time>2024-02-22T10:53:18Z</time><name>PT1218</name></trkpt>
<trkpt lat="52.076793" lon="05.937519"><ele>163.4</ele><time>2024-02-22T10:53:19Z</time><name>PT1219</name></trkpt>
<trkpt lat="52.076793" lon="05.937494"><ele>163.5</ele><time>2024-02-22T10:53:20Z</time><name>PT1220</name></trkpt>
<trkpt lat="52.076797" lon="05.937467"><ele>163.6</ele><time>2024-02-22T10:53:21Z</time><name>PT1221</name></trkpt>
<trkpt lat="52.076797" lon="05.937448"><ele>163.5</ele><time>2024-02-22T10:53:22Z</time><name>PT1222</name></trkpt>
<trkpt lat="52.076794" lon="05.937430"><ele>163.3</ele><time>2024-02-22T10:53:23Z</time><name>PT1223</name></trkpt>
<trkpt lat="52.076789" lon="05.937422"><ele>163.2</ele><time>2024-02-22T10:53:24Z</time><name>PT1224</name></trkpt>
<trkpt lat="52.076787" lon="05.937412"><ele>163.1</ele><time>2024-02-22T10:53:25Z</time><name>PT1225</name></trkpt>
<trkpt lat="52.076785" lon="05.937395"><ele>163.1</ele><time>2024-02-22T10:53:26Z</time><name>PT1226</name></trkpt>
<trkpt lat="52.076785" lon="05.937374"><ele>163.1</ele><time>2024-02-22T10:53:27Z</time><name>PT1227</name></trkpt>
<trkpt lat="52.076782" lon="05.937352"><ele>163.1</ele><time>2024-02-22T10:53:28Z</time><name>PT1228</name></trkpt>
<trkpt lat="52.076777" lon="05.937329"><ele>163.1</ele><time>2024-02-22T10:53:29Z</time><name>PT1229</name></trkpt>
<trkpt lat="52.076775" lon="05.937315"><ele>163.1</ele><time>2024-02-22T10:53:30Z</time><name>PT1230</name></trkpt>
<trkpt lat="52.076774" lon="05.937305"><ele>163</ele><time>2024-02-22T10:53:31Z</time><name>PT1231</name></trkpt>
<trkpt lat="52.076772" lon="05.937293"><ele>162.9</ele><time>2024-02-22T10:53:33Z</time><name>PT1232</name></trkpt>
<trkpt lat="52.076768" lon="05.937280"><ele>162.9</ele><time>2024-02-22T10:53:33Z</time><name>PT1233</name></trkpt>
<trkpt lat="52.076764" lon="05.937258"><ele>162.9</ele><time>2024-02-22T10:53:34Z</time><name>PT1234</name></trkpt>
<trkpt lat="52.076758" lon="05.937230"><ele>162.9</ele><time>2024-02-22T10:53:35Z</time><name>PT1235</name></trkpt>
<trkpt lat="52.076748" lon="05.937202"><ele>163</ele><time>2024-02-22T10:53:36Z</time><name>PT1236</name></trkpt>
<trkpt lat="52.076742" lon="05.937181"><ele>163.1</ele><time>2024-02-22T10:53:37Z</time><name>PT1237</name></trkpt>
<trkpt lat="52.076738" lon="05.937169"><ele>163.2</ele><time>2024-02-22T10:53:38Z</time><name>PT1238</name></trkpt>
<trkpt lat="52.076735" lon="05.937161"><ele>163.3</ele><time>2024-02-22T10:53:39Z</time><name>PT1239</name></trkpt>
<trkpt lat="52.076737" lon="05.937161"><ele>163.2</ele><time>2024-02-22T10:53:40Z</time><name>PT1240</name></trkpt>
<trkpt lat="52.076737" lon="05.937158"><ele>163.1</ele><time>2024-02-22T10:53:41Z</time><name>PT1241</name></trkpt>
<trkpt lat="52.076733" lon="05.937152"><ele>163.1</ele><time>2024-02-22T10:53:42Z</time><name>PT1242</name></trkpt>
<trkpt lat="52.076729" lon="05.937143"><ele>162.9</ele><time>2024-02-22T10:53:43Z</time><name>PT1243</name></trkpt>
<trkpt lat="52.076723" lon="05.937123"><ele>162.8</ele><time>2024-02-22T10:53:45Z</time><name>PT1244</name></trkpt>
<trkpt lat="52.076710" lon="05.937095"><ele>162.8</ele><time>2024-02-22T10:53:45Z</time><name>PT1245</name></trkpt>
<trkpt lat="52.076703" lon="05.937064"><ele>162.8</ele><time>2024-02-22T10:53:46Z</time><name>PT1246</name></trkpt>
<trkpt lat="52.076698" lon="05.937044"><ele>163.1</ele><time>2024-02-22T10:53:47Z</time><name>PT1247</name></trkpt>
<trkpt lat="52.076694" lon="05.937033"><ele>163.1</ele><time>2024-02-22T10:53:48Z</time><name>PT1248</name></trkpt>
<trkpt lat="52.076691" lon="05.937021"><ele>163.2</ele><time>2024-02-22T10:53:49Z</time><name>PT1249</name></trkpt>
<trkpt lat="52.076688" lon="05.937008"><ele>163.3</ele><time>2024-02-22T10:53:50Z</time><name>PT1250</name></trkpt>
<trkpt lat="52.076684" lon="05.936992"><ele>163.2</ele><time>2024-02-22T10:53:51Z</time><name>PT1251</name></trkpt>
<trkpt lat="52.076676" lon="05.936972"><ele>163.1</ele><time>2024-02-22T10:53:52Z</time><name>PT1252</name></trkpt>
<trkpt lat="52.076673" lon="05.936949"><ele>162.9</ele><time>2024-02-22T10:53:53Z</time><name>PT1253</name></trkpt>
<trkpt lat="52.076666" lon="05.936930"><ele>162.8</ele><time>2024-02-22T10:53:54Z</time><name>PT1254</name></trkpt>
<trkpt lat="52.076660" lon="05.936912"><ele>162.6</ele><time>2024-02-22T10:53:55Z</time><name>PT1255</name></trkpt>
<trkpt lat="52.076654" lon="05.936898"><ele>162.9</ele><time>2024-02-22T10:53:57Z</time><name>PT1256</name></trkpt>
<trkpt lat="52.076650" lon="05.936886"><ele>162.8</ele><time>2024-02-22T10:53:57Z</time><name>PT1257</name></trkpt>
<trkpt lat="52.076646" lon="05.936873"><ele>162.6</ele><time>2024-02-22T10:53:58Z</time><name>PT1258</name></trkpt>
<trkpt lat="52.076643" lon="05.936861"><ele>162.7</ele><time>2024-02-22T10:53:59Z</time><name>PT1259</name></trkpt>
<trkpt lat="52.076640" lon="05.936846"><ele>162.6</ele><time>2024-02-22T10:54:00Z</time><name>PT1260</name></trkpt>
<trkpt lat="52.076636" lon="05.936826"><ele>162.6</ele><time>2024-02-22T10:54:01Z</time><name>PT1261</name></trkpt>
<trkpt lat="52.076632" lon="05.936803"><ele>162.7</ele><time>2024-02-22T10:54:02Z</time><name>PT1262</name></trkpt>
<trkpt lat="52.076624" lon="05.936782"><ele>162.7</ele><time>2024-02-22T10:54:03Z</time><name>PT1263</name></trkpt>
<trkpt lat="52.076618" lon="05.936763"><ele>162.6</ele><time>2024-02-22T10:54:04Z</time><name>PT1264</name></trkpt>
<trkpt lat="52.076615" lon="05.936751"><ele>162.5</ele><time>2024-02-22T10:54:05Z</time><name>PT1265</name></trkpt>
<trkpt lat="52.076614" lon="05.936744"><ele>162.4</ele><time>2024-02-22T10:54:06Z</time><name>PT1266</name></trkpt>
<trkpt lat="52.076612" lon="05.936731"><ele>162.6</ele><time>2024-02-22T10:54:07Z</time><name>PT1267</name></trkpt>
<trkpt lat="52.076609" lon="05.936714"><ele>162.8</ele><time>2024-02-22T10:54:09Z</time><name>PT1268</name></trkpt>
<trkpt lat="52.076603" lon="05.936694"><ele>163</ele><time>2024-02-22T10:54:09Z</time><name>PT1269</name></trkpt>
<trkpt lat="52.076596" lon="05.936671"><ele>163.1</ele><time>2024-02-22T10:54:10Z</time><name>PT1270</name></trkpt>
<trkpt lat="52.076590" lon="05.936653"><ele>163.1</ele><time>2024-02-22T10:54:11Z</time><name>PT1271</name></trkpt>
<trkpt lat="52.076585" lon="05.936642"><ele>163</ele><time>2024-02-22T10:54:12Z</time><name>PT1272</name></trkpt>
<trkpt lat="52.076581" lon="05.936631"><ele>163.1</ele><time>2024-02-22T10:54:13Z</time><name>PT1273</name></trkpt>
<trkpt lat="52.076576" lon="05.936622"><ele>163.3</ele><time>2024-02-22T10:54:14Z</time><name>PT1274</name></trkpt>
<trkpt lat="52.076570" lon="05.936609"><ele>163.3</ele><time>2024-02-22T10:54:15Z</time><name>PT1275</name></trkpt>
<trkpt lat="52.076567" lon="05.936591"><ele>163.4</ele><time>2024-02-22T10:54:16Z</time><name>PT1276</name></trkpt>
<trkpt lat="52.076559" lon="05.936570"><ele>163.5</ele><time>2024-02-22T10:54:17Z</time><name>PT1277</name></trkpt>
<trkpt lat="52.076552" lon="05.936546"><ele>163.4</ele><time>2024-02-22T10:54:18Z</time><name>PT1278</name></trkpt>
<trkpt lat="52.076542" lon="05.936526"><ele>163.3</ele><time>2024-02-22T10:54:19Z</time><name>PT1279</name></trkpt>
<trkpt lat="52.076533" lon="05.936515"><ele>163.1</ele><time>2024-02-22T10:54:20Z</time><name>PT1280</name></trkpt>
<trkpt lat="52.076529" lon="05.936504"><ele>163</ele><time>2024-02-22T10:54:21Z</time><name>PT1281</name></trkpt>
<trkpt lat="52.076525" lon="05.936495"><ele>162.9</ele><time>2024-02-22T10:54:22Z</time><name>PT1282</name></trkpt>
<trkpt lat="52.076521" lon="05.936485"><ele>162.8</ele><time>2024-02-22T10:54:23Z</time><name>PT1283</name></trkpt>
<trkpt lat="52.076515" lon="05.936468"><ele>162.8</ele><time>2024-02-22T10:54:24Z</time><name>PT1284</name></trkpt>
<trkpt lat="52.076508" lon="05.936446"><ele>162.6</ele><time>2024-02-22T10:54:25Z</time><name>PT1285</name></trkpt>
<trkpt lat="52.076499" lon="05.936426"><ele>162.4</ele><time>2024-02-22T10:54:26Z</time><name>PT1286</name></trkpt>
<trkpt lat="52.076490" lon="05.936405"><ele>162.3</ele><time>2024-02-22T10:54:27Z</time><name>PT1287</name></trkpt>
<trkpt lat="52.076484" lon="05.936390"><ele>162.2</ele><time>2024-02-22T10:54:28Z</time><name>PT1288</name></trkpt>
<trkpt lat="52.076482" lon="05.936379"><ele>162.2</ele><time>2024-02-22T10:54:29Z</time><name>PT1289</name></trkpt>
<trkpt lat="52.076479" lon="05.936369"><ele>162.2</ele><time>2024-02-22T10:54:30Z</time><name>PT1290</name></trkpt>
<trkpt lat="52.076476" lon="05.936358"><ele>162.5</ele><time>2024-02-22T10:54:31Z</time><name>PT1291</name></trkpt>
<trkpt lat="52.076470" lon="05.936344"><ele>162.8</ele><time>2024-02-22T10:54:32Z</time><name>PT1292</name></trkpt>
<trkpt lat="52.076463" lon="05.936326"><ele>162.7</ele><time>2024-02-22T10:54:33Z</time><name>PT1293</name></trkpt>
<trkpt lat="52.076458" lon="05.936311"><ele>162.6</ele><time>2024-02-22T10:54:34Z</time><name>PT1294</name></trkpt>
<trkpt lat="52.076454" lon="05.936297"><ele>162.5</ele><time>2024-02-22T10:54:36Z</time><name>PT1295</name></trkpt>
<trkpt lat="52.076451" lon="05.936281"><ele>162.2</ele><time>2024-02-22T10:54:36Z</time><name>PT1296</name></trkpt>
<trkpt lat="52.076448" lon="05.936270"><ele>162.5</ele><time>2024-02-22T10:54:37Z</time><name>PT1297</name></trkpt>
<trkpt lat="52.076444" lon="05.936259"><ele>162.4</ele><time>2024-02-22T10:54:38Z</time><name>PT1298</name></trkpt>
<trkpt lat="52.076438" lon="05.936247"><ele>162.3</ele><time>2024-02-22T10:54:39Z</time><name>PT1299</name></trkpt>
<trkpt lat="52.076433" lon="05.936232"><ele>162.4</ele><time>2024-02-22T10:54:40Z</time><name>PT1300</name></trkpt>
<trkpt lat="52.076431" lon="05.936209"><ele>162.4</ele><time>2024-02-22T10:54:41Z</time><name>PT1301</name></trkpt>
<trkpt lat="52.076428" lon="05.936184"><ele>162.5</ele><time>2024-02-22T10:54:42Z</time><name>PT1302</name></trkpt>
<trkpt lat="52.076421" lon="05.936168"><ele>162.6</ele><time>2024-02-22T10:54:43Z</time><name>PT1303</name></trkpt>
<trkpt lat="52.076415" lon="05.936155"><ele>162.6</ele><time>2024-02-22T10:54:44Z</time><name>PT1304</name></trkpt>
<trkpt lat="52.076412" lon="05.936143"><ele>162.7</ele><time>2024-02-22T10:54:45Z</time><name>PT1305</name></trkpt>
<trkpt lat="52.076410" lon="05.936132"><ele>162.6</ele><time>2024-02-22T10:54:46Z</time><name>PT1306</name></trkpt>
<trkpt lat="52.076406" lon="05.936120"><ele>162.5</ele><time>2024-02-22T10:54:47Z</time><name>PT1307</name></trkpt>
<trkpt lat="52.076399" lon="05.936100"><ele>162.4</ele><time>2024-02-22T10:54:48Z</time><name>PT1308</name></trkpt>
<trkpt lat="52.076390" lon="05.936078"><ele>162.5</ele><time>2024-02-22T10:54:49Z</time><name>PT1309</name></trkpt>
<trkpt lat="52.076382" lon="05.936060"><ele>162.6</ele><time>2024-02-22T10:54:50Z</time><name>PT1310</name></trkpt>
<trkpt lat="52.076375" lon="05.936046"><ele>162.7</ele><time>2024-02-22T10:54:51Z</time><name>PT1311</name></trkpt>
<trkpt lat="52.076373" lon="05.936036"><ele>162.8</ele><time>2024-02-22T10:54:52Z</time><name>PT1312</name></trkpt>
<trkpt lat="52.076371" lon="05.936030"><ele>162.7</ele><time>2024-02-22T10:54:53Z</time><name>PT1313</name></trkpt>
<trkpt lat="52.076368" lon="05.936021"><ele>162.6</ele><time>2024-02-22T10:54:54Z</time><name>PT1314</name></trkpt>
<trkpt lat="52.076363" lon="05.936008"><ele>162.5</ele><time>2024-02-22T10:54:55Z</time><name>PT1315</name></trkpt>
<trkpt lat="52.076358" lon="05.935989"><ele>162.6</ele><time>2024-02-22T10:54:56Z</time><name>PT1316</name></trkpt>
<trkpt lat="52.076350" lon="05.935969"><ele>162.6</ele><time>2024-02-22T10:54:57Z</time><name>PT1317</name></trkpt>
<trkpt lat="52.076341" lon="05.935951"><ele>162.7</ele><time>2024-02-22T10:54:58Z</time><name>PT1318</name></trkpt>
<trkpt lat="52.076333" lon="05.935935"><ele>162.7</ele><time>2024-02-22T10:55:00Z</time><name>PT1319</name></trkpt>
<trkpt lat="52.076330" lon="05.935921"><ele>162.6</ele><time>2024-02-22T10:55:00Z</time><name>PT1320</name></trkpt>
<trkpt lat="52.076327" lon="05.935911"><ele>162.7</ele><time>2024-02-22T10:55:01Z</time><name>PT1321</name></trkpt>
<trkpt lat="52.076325" lon="05.935899"><ele>162.7</ele><time>2024-02-22T10:55:02Z</time><name>PT1322</name></trkpt>
<trkpt lat="52.076322" lon="05.935884"><ele>162.8</ele><time>2024-02-22T10:55:03Z</time><name>PT1323</name></trkpt>
<trkpt lat="52.076318" lon="05.935864"><ele>162.8</ele><time>2024-02-22T10:55:04Z</time><name>PT1324</name></trkpt>
<trkpt lat="52.076311" lon="05.935843"><ele>162.9</ele><time>2024-02-22T10:55:05Z</time><name>PT1325</name></trkpt>
<trkpt lat="52.076303" lon="05.935825"><ele>162.9</ele><time>2024-02-22T10:55:06Z</time><name>PT1326</name></trkpt>
<trkpt lat="52.076295" lon="05.935809"><ele>162.9</ele><time>2024-02-22T10:55:07Z</time><name>PT1327</name></trkpt>
<trkpt lat="52.076288" lon="05.935795"><ele>162.9</ele><time>2024-02-22T10:55:08Z</time><name>PT1328</name></trkpt>
<trkpt lat="52.076280" lon="05.935782"><ele>162.8</ele><time>2024-02-22T10:55:09Z</time><name>PT1329</name></trkpt>
<trkpt lat="52.076275" lon="05.935765"><ele>162.6</ele><time>2024-02-22T10:55:10Z</time><name>PT1330</name></trkpt>
<trkpt lat="52.076270" lon="05.935749"><ele>162.5</ele><time>2024-02-22T10:55:12Z</time><name>PT1331</name></trkpt>
<trkpt lat="52.076266" lon="05.935733"><ele>162.4</ele><time>2024-02-22T10:55:12Z</time><name>PT1332</name></trkpt>
<trkpt lat="52.076262" lon="05.935722"><ele>162.3</ele><time>2024-02-22T10:55:13Z</time><name>PT1333</name></trkpt>
<trkpt lat="52.076257" lon="05.935713"><ele>162.3</ele><time>2024-02-22T10:55:14Z</time><name>PT1334</name></trkpt>
<trkpt lat="52.076251" lon="05.935702"><ele>162.3</ele><time>2024-02-22T10:55:15Z</time><name>PT1335</name></trkpt>
<trkpt lat="52.076245" lon="05.935687"><ele>162.4</ele><time>2024-02-22T10:55:16Z</time><name>PT1336</name></trkpt>
<trkpt lat="52.076240" lon="05.935673"><ele>162.3</ele><time>2024-02-22T10:55:17Z</time><name>PT1337</name></trkpt>
<trkpt lat="52.076236" lon="05.935658"><ele>162.4</ele><time>2024-02-22T10:55:18Z</time><name>PT1338</name></trkpt>
<trkpt lat="52.076232" lon="05.935643"><ele>162.3</ele><time>2024-02-22T10:55:19Z</time><name>PT1339</name></trkpt>
<trkpt lat="52.076227" lon="05.935629"><ele>162.1</ele><time>2024-02-22T10:55:20Z</time><name>PT1340</name></trkpt>
<trkpt lat="52.076222" lon="05.935615"><ele>162.1</ele><time>2024-02-22T10:55:21Z</time><name>PT1341</name></trkpt>
<trkpt lat="52.076217" lon="05.935599"><ele>162</ele><time>2024-02-22T10:55:22Z</time><name>PT1342</name></trkpt>
<trkpt lat="52.076211" lon="05.935592"><ele>161.9</ele><time>2024-02-22T10:55:23Z</time><name>PT1343</name></trkpt>
<trkpt lat="52.076208" lon="05.935580"><ele>162</ele><time>2024-02-22T10:55:24Z</time><name>PT1344</name></trkpt>
<trkpt lat="52.076204" lon="05.935567"><ele>162</ele><time>2024-02-22T10:55:25Z</time><name>PT1345</name></trkpt>
<trkpt lat="52.076200" lon="05.935554"><ele>162</ele><time>2024-02-22T10:55:26Z</time><name>PT1346</name></trkpt>
<trkpt lat="52.076195" lon="05.935535"><ele>161.8</ele><time>2024-02-22T10:55:27Z</time><name>PT1347</name></trkpt>
<trkpt lat="52.076191" lon="05.935519"><ele>161.9</ele><time>2024-02-22T10:55:28Z</time><name>PT1348</name></trkpt>
<trkpt lat="52.076186" lon="05.935504"><ele>161.7</ele><time>2024-02-22T10:55:29Z</time><name>PT1349</name></trkpt>
<trkpt lat="52.076179" lon="05.935490"><ele>161.7</ele><time>2024-02-22T10:55:30Z</time><name>PT1350</name></trkpt>
<trkpt lat="52.076172" lon="05.935474"><ele>161.7</ele><time>2024-02-22T10:55:31Z</time><name>PT1351</name></trkpt>
<trkpt lat="52.076165" lon="05.935459"><ele>161.9</ele><time>2024-02-22T10:55:32Z</time><name>PT1352</name></trkpt>
<trkpt lat="52.076159" lon="05.935440"><ele>161.9</ele><time>2024-02-22T10:55:33Z</time><name>PT1353</name></trkpt>
<trkpt lat="52.076153" lon="05.935424"><ele>161.9</ele><time>2024-02-22T10:55:34Z</time><name>PT1354</name></trkpt>
<trkpt lat="52.076151" lon="05.935418"><ele>161.8</ele><time>2024-02-22T10:55:36Z</time><name>PT1355</name></trkpt>
<trkpt lat="52.076146" lon="05.935410"><ele>161.7</ele><time>2024-02-22T10:55:36Z</time><name>PT1356</name></trkpt>
<trkpt lat="52.076141" lon="05.935398"><ele>161.6</ele><time>2024-02-22T10:55:37Z</time><name>PT1357</name></trkpt>
<trkpt lat="52.076135" lon="05.935382"><ele>161.3</ele><time>2024-02-22T10:55:38Z</time><name>PT1358</name></trkpt>
<trkpt lat="52.076129" lon="05.935361"><ele>161.3</ele><time>2024-02-22T10:55:39Z</time><name>PT1359</name></trkpt>
<trkpt lat="52.076122" lon="05.935337"><ele>161.2</ele><time>2024-02-22T10:55:40Z</time><name>PT1360</name></trkpt>
<trkpt lat="52.076115" lon="05.935313"><ele>161.2</ele><time>2024-02-22T10:55:41Z</time><name>PT1361</name></trkpt>
<trkpt lat="52.076108" lon="05.935296"><ele>161.2</ele><time>2024-02-22T10:55:42Z</time><name>PT1362</name></trkpt>
<trkpt lat="52.076102" lon="05.935281"><ele>161.3</ele><time>2024-02-22T10:55:43Z</time><name>PT1363</name></trkpt>
<trkpt lat="52.076097" lon="05.935271"><ele>161.3</ele><time>2024-02-22T10:55:44Z</time><name>PT1364</name></trkpt>
<trkpt lat="52.076091" lon="05.935259"><ele>161.3</ele><time>2024-02-22T10:55:45Z</time><name>PT1365</name></trkpt>
<trkpt lat="52.076084" lon="05.935245"><ele>161.3</ele><time>2024-02-22T10:55:46Z</time><name>PT1366</name></trkpt>
<trkpt lat="52.076078" lon="05.935228"><ele>161.1</ele><time>2024-02-22T10:55:47Z</time><name>PT1367</name></trkpt>
<trkpt lat="52.076072" lon="05.935213"><ele>160.9</ele><time>2024-02-22T10:55:48Z</time><name>PT1368</name></trkpt>
<trkpt lat="52.076063" lon="05.935190"><ele>160.9</ele><time>2024-02-22T10:55:49Z</time><name>PT1369</name></trkpt>
<trkpt lat="52.076054" lon="05.935167"><ele>161.1</ele><time>2024-02-22T10:55:50Z</time><name>PT1370</name></trkpt>
<trkpt lat="52.076046" lon="05.935149"><ele>161.1</ele><time>2024-02-22T10:55:51Z</time><name>PT1371</name></trkpt>
<trkpt lat="52.076039" lon="05.935135"><ele>161.3</ele><time>2024-02-22T10:55:52Z</time><name>PT1372</name></trkpt>
<trkpt lat="52.076030" lon="05.935122"><ele>161.5</ele><time>2024-02-22T10:55:53Z</time><name>PT1373</name></trkpt>
<trkpt lat="52.076023" lon="05.935109"><ele>161.5</ele><time>2024-02-22T10:55:54Z</time><name>PT1374</name></trkpt>
<trkpt lat="52.076018" lon="05.935099"><ele>161.2</ele><time>2024-02-22T10:55:55Z</time><name>PT1375</name></trkpt>
<trkpt lat="52.076013" lon="05.935085"><ele>161.1</ele><time>2024-02-22T10:55:56Z</time><name>PT1376</name></trkpt>
<trkpt lat="52.076009" lon="05.935069"><ele>160.9</ele><time>2024-02-22T10:55:57Z</time><name>PT1377</name></trkpt>
<trkpt lat="52.076003" lon="05.935049"><ele>161</ele><time>2024-02-22T10:55:58Z</time><name>PT1378</name></trkpt>
<trkpt lat="52.075994" lon="05.935030"><ele>160.9</ele><time>2024-02-22T10:55:59Z</time><name>PT1379</name></trkpt>
<trkpt lat="52.075986" lon="05.935014"><ele>161.1</ele><time>2024-02-22T10:56:00Z</time><name>PT1380</name></trkpt>
<trkpt lat="52.075979" lon="05.935004"><ele>160.9</ele><time>2024-02-22T10:56:01Z</time><name>PT1381</name></trkpt>
<trkpt lat="52.075973" lon="05.934995"><ele>161</ele><time>2024-02-22T10:56:02Z</time><name>PT1382</name></trkpt>
<trkpt lat="52.075969" lon="05.934983"><ele>161</ele><time>2024-02-22T10:56:03Z</time><name>PT1383</name></trkpt>
<trkpt lat="52.075964" lon="05.934970"><ele>161</ele><time>2024-02-22T10:56:04Z</time><name>PT1384</name></trkpt>
<trkpt lat="52.075959" lon="05.934954"><ele>160.9</ele><time>2024-02-22T10:56:05Z</time><name>PT1385</name></trkpt>
<trkpt lat="52.075953" lon="05.934933"><ele>161.1</ele><time>2024-02-22T10:56:06Z</time><name>PT1386</name></trkpt>
<trkpt lat="52.075945" lon="05.934909"><ele>161.1</ele><time>2024-02-22T10:56:07Z</time><name>PT1387</name></trkpt>
<trkpt lat="52.075939" lon="05.934895"><ele>161.1</ele><time>2024-02-22T10:56:08Z</time><name>PT1388</name></trkpt>
<trkpt lat="52.075933" lon="05.934885"><ele>161</ele><time>2024-02-22T10:56:09Z</time><name>PT1389</name></trkpt>
<trkpt lat="52.075929" lon="05.934875"><ele>160.9</ele><time>2024-02-22T10:56:10Z</time><name>PT1390</name></trkpt>
<trkpt lat="52.075926" lon="05.934861"><ele>160.9</ele><time>2024-02-22T10:56:11Z</time><name>PT1391</name></trkpt>
<trkpt lat="52.075922" lon="05.934841"><ele>160.9</ele><time>2024-02-22T10:56:12Z</time><name>PT1392</name></trkpt>
<trkpt lat="52.075913" lon="05.934817"><ele>160.9</ele><time>2024-02-22T10:56:13Z</time><name>PT1393</name></trkpt>
<trkpt lat="52.075906" lon="05.934798"><ele>160.9</ele><time>2024-02-22T10:56:15Z</time><name>PT1394</name></trkpt>
<trkpt lat="52.075900" lon="05.934784"><ele>160.8</ele><time>2024-02-22T10:56:15Z</time><name>PT1395</name></trkpt>
<trkpt lat="52.075895" lon="05.934775"><ele>160.7</ele><time>2024-02-22T10:56:16Z</time><name>PT1396</name></trkpt>
<trkpt lat="52.075891" lon="05.934765"><ele>160.5</ele><time>2024-02-22T10:56:17Z</time><name>PT1397</name></trkpt>
<trkpt lat="52.075889" lon="05.934748"><ele>160.3</ele><time>2024-02-22T10:56:18Z</time><name>PT1398</name></trkpt>
<trkpt lat="52.075887" lon="05.934733"><ele>160.3</ele><time>2024-02-22T10:56:19Z</time><name>PT1399</name></trkpt>
<trkpt lat="52.075882" lon="05.934716"><ele>160.4</ele><time>2024-02-22T10:56:20Z</time><name>PT1400</name></trkpt>
<trkpt lat="52.075875" lon="05.934695"><ele>160.4</ele><time>2024-02-22T10:56:21Z</time><name>PT1401</name></trkpt>
<trkpt lat="52.075869" lon="05.934680"><ele>160.3</ele><time>2024-02-22T10:56:22Z</time><name>PT1402</name></trkpt>
<trkpt lat="52.075865" lon="05.934670"><ele>160.4</ele><time>2024-02-22T10:56:23Z</time><name>PT1403</name></trkpt>
<trkpt lat="52.075861" lon="05.934658"><ele>160.4</ele><time>2024-02-22T10:56:24Z</time><name>PT1404</name></trkpt>
<trkpt lat="52.075860" lon="05.934643"><ele>160.3</ele><time>2024-02-22T10:56:25Z</time><name>PT1405</name></trkpt>
<trkpt lat="52.075857" lon="05.934624"><ele>160.5</ele><time>2024-02-22T10:56:26Z</time><name>PT1406</name></trkpt>
<trkpt lat="52.075851" lon="05.934600"><ele>160.5</ele><time>2024-02-22T10:56:27Z</time><name>PT1407</name></trkpt>
<trkpt lat="52.075844" lon="05.934576"><ele>160.3</ele><time>2024-02-22T10:56:28Z</time><name>PT1408</name></trkpt>
<trkpt lat="52.075839" lon="05.934554"><ele>160.4</ele><time>2024-02-22T10:56:29Z</time><name>PT1409</name></trkpt>
<trkpt lat="52.075835" lon="05.934538"><ele>160.4</ele><time>2024-02-22T10:56:30Z</time><name>PT1410</name></trkpt>
<trkpt lat="52.075831" lon="05.934528"><ele>160.3</ele><time>2024-02-22T10:56:31Z</time><name>PT1411</name></trkpt>
<trkpt lat="52.075828" lon="05.934520"><ele>160</ele><time>2024-02-22T10:56:33Z</time><name>PT1412</name></trkpt>
<trkpt lat="52.075827" lon="05.934506"><ele>159.9</ele><time>2024-02-22T10:56:33Z</time><name>PT1413</name></trkpt>
<trkpt lat="52.075827" lon="05.934485"><ele>159.9</ele><time>2024-02-22T10:56:34Z</time><name>PT1414</name></trkpt>
<trkpt lat="52.075827" lon="05.934462"><ele>159.9</ele><time>2024-02-22T10:56:35Z</time><name>PT1415</name></trkpt>
<trkpt lat="52.075825" lon="05.934446"><ele>160.1</ele><time>2024-02-22T10:56:36Z</time><name>PT1416</name></trkpt>
<trkpt lat="52.075822" lon="05.934434"><ele>160.2</ele><time>2024-02-22T10:56:37Z</time><name>PT1417</name></trkpt>
<trkpt lat="52.075820" lon="05.934422"><ele>160.3</ele><time>2024-02-22T10:56:38Z</time><name>PT1418</name></trkpt>
<trkpt lat="52.075818" lon="05.934409"><ele>160.3</ele><time>2024-02-22T10:56:39Z</time><name>PT1419</name></trkpt>
<trkpt lat="52.075817" lon="05.934395"><ele>160.3</ele><time>2024-02-22T10:56:40Z</time><name>PT1420</name></trkpt>
<trkpt lat="52.075815" lon="05.934376"><ele>159.9</ele><time>2024-02-22T10:56:41Z</time><name>PT1421</name></trkpt>
<trkpt lat="52.075809" lon="05.934354"><ele>160</ele><time>2024-02-22T10:56:42Z</time><name>PT1422</name></trkpt>
<trkpt lat="52.075804" lon="05.934335"><ele>160</ele><time>2024-02-22T10:56:43Z</time><name>PT1423</name></trkpt>
<trkpt lat="52.075800" lon="05.934317"><ele>159.9</ele><time>2024-02-22T10:56:44Z</time><name>PT1424</name></trkpt>
<trkpt lat="52.075796" lon="05.934303"><ele>160.1</ele><time>2024-02-22T10:56:45Z</time><name>PT1425</name></trkpt>
<trkpt lat="52.075792" lon="05.934288"><ele>160.1</ele><time>2024-02-22T10:56:46Z</time><name>PT1426</name></trkpt>
<trkpt lat="52.075789" lon="05.934269"><ele>160</ele><time>2024-02-22T10:56:48Z</time><name>PT1427</name></trkpt>
<trkpt lat="52.075784" lon="05.934247"><ele>160.1</ele><time>2024-02-22T10:56:48Z</time><name>PT1428</name></trkpt>
<trkpt lat="52.075777" lon="05.934232"><ele>159.9</ele><time>2024-02-22T10:56:49Z</time><name>PT1429</name></trkpt>
<trkpt lat="52.075771" lon="05.934217"><ele>159.7</ele><time>2024-02-22T10:56:50Z</time><name>PT1430</name></trkpt>
<trkpt lat="52.075768" lon="05.934206"><ele>159.8</ele><time>2024-02-22T10:56:51Z</time><name>PT1431</name></trkpt>
<trkpt lat="52.075764" lon="05.934195"><ele>159.8</ele><time>2024-02-22T10:56:52Z</time><name>PT1432</name></trkpt>
<trkpt lat="52.075761" lon="05.934184"><ele>159.8</ele><time>2024-02-22T10:56:53Z</time><name>PT1433</name></trkpt>
<trkpt lat="52.075759" lon="05.934171"><ele>159.7</ele><time>2024-02-22T10:56:54Z</time><name>PT1434</name></trkpt>
<trkpt lat="52.075756" lon="05.934153"><ele>159.9</ele><time>2024-02-22T10:56:55Z</time><name>PT1435</name></trkpt>
<trkpt lat="52.075756" lon="05.934124"><ele>160</ele><time>2024-02-22T10:56:56Z</time><name>PT1436</name></trkpt>
<trkpt lat="52.075753" lon="05.934095"><ele>160</ele><time>2024-02-22T10:56:57Z</time><name>PT1437</name></trkpt>
<trkpt lat="52.075748" lon="05.934069"><ele>160.2</ele><time>2024-02-22T10:56:58Z</time><name>PT1438</name></trkpt>
<trkpt lat="52.075744" lon="05.934048"><ele>160.2</ele><time>2024-02-22T10:56:59Z</time><name>PT1439</name></trkpt>
<trkpt lat="52.075743" lon="05.934035"><ele>160.2</ele><time>2024-02-22T10:57:00Z</time><name>PT1440</name></trkpt>
<trkpt lat="52.075742" lon="05.934023"><ele>160.2</ele><time>2024-02-22T10:57:01Z</time><name>PT1441</name></trkpt>
<trkpt lat="52.075741" lon="05.934007"><ele>160.3</ele><time>2024-02-22T10:57:03Z</time><name>PT1442</name></trkpt>
<trkpt lat="52.075739" lon="05.933986"><ele>160.2</ele><time>2024-02-22T10:57:03Z</time><name>PT1443</name></trkpt>
<trkpt lat="52.075738" lon="05.933967"><ele>160.3</ele><time>2024-02-22T10:57:04Z</time><name>PT1444</name></trkpt>
<trkpt lat="52.075734" lon="05.933949"><ele>160.4</ele><time>2024-02-22T10:57:05Z</time><name>PT1445</name></trkpt>
<trkpt lat="52.075732" lon="05.933932"><ele>160.4</ele><time>2024-02-22T10:57:06Z</time><name>PT1446</name></trkpt>
<trkpt lat="52.075731" lon="05.933916"><ele>160.4</ele><time>2024-02-22T10:57:07Z</time><name>PT1447</name></trkpt>
<trkpt lat="52.075729" lon="05.933904"><ele>160.7</ele><time>2024-02-22T10:57:08Z</time><name>PT1448</name></trkpt>
<trkpt lat="52.075727" lon="05.933892"><ele>160.5</ele><time>2024-02-22T10:57:09Z</time><name>PT1449</name></trkpt>
<trkpt lat="52.075724" lon="05.933874"><ele>160.5</ele><time>2024-02-22T10:57:10Z</time><name>PT1450</name></trkpt>
<trkpt lat="52.075720" lon="05.933850"><ele>160.5</ele><time>2024-02-22T10:57:11Z</time><name>PT1451</name></trkpt>
<trkpt lat="52.075715" lon="05.933829"><ele>160.6</ele><time>2024-02-22T10:57:12Z</time><name>PT1452</name></trkpt>
<trkpt lat="52.075713" lon="05.933812"><ele>160.3</ele><time>2024-02-22T10:57:13Z</time><name>PT1453</name></trkpt>
<trkpt lat="52.075711" lon="05.933801"><ele>160.4</ele><time>2024-02-22T10:57:14Z</time><name>PT1454</name></trkpt>
<trkpt lat="52.075709" lon="05.933792"><ele>160.3</ele><time>2024-02-22T10:57:15Z</time><name>PT1455</name></trkpt>
<trkpt lat="52.075707" lon="05.933779"><ele>160.3</ele><time>2024-02-22T10:57:16Z</time><name>PT1456</name></trkpt>
<trkpt lat="52.075700" lon="05.933764"><ele>160.5</ele><time>2024-02-22T10:57:18Z</time><name>PT1457</name></trkpt>
<trkpt lat="52.075694" lon="05.933744"><ele>160.7</ele><time>2024-02-22T10:57:18Z</time><name>PT1458</name></trkpt>
<trkpt lat="52.075692" lon="05.933719"><ele>160.9</ele><time>2024-02-22T10:57:19Z</time><name>PT1459</name></trkpt>
<trkpt lat="52.075690" lon="05.933693"><ele>161.3</ele><time>2024-02-22T10:57:20Z</time><name>PT1460</name></trkpt>
<trkpt lat="52.075690" lon="05.933669"><ele>161.4</ele><time>2024-02-22T10:57:21Z</time><name>PT1461</name></trkpt>
<trkpt lat="52.075685" lon="05.933648"><ele>161.5</ele><time>2024-02-22T10:57:22Z</time><name>PT1462</name></trkpt>
<trkpt lat="52.075681" lon="05.933633"><ele>161.4</ele><time>2024-02-22T10:57:23Z</time><name>PT1463</name></trkpt>
<trkpt lat="52.075678" lon="05.933618"><ele>161.4</ele><time>2024-02-22T10:57:24Z</time><name>PT1464</name></trkpt>
<trkpt lat="52.075678" lon="05.933605"><ele>161.2</ele><time>2024-02-22T10:57:25Z</time><name>PT1465</name></trkpt>
<trkpt lat="52.075678" lon="05.933593"><ele>161.2</ele><time>2024-02-22T10:57:26Z</time><name>PT1466</name></trkpt>
<trkpt lat="52.075675" lon="05.933577"><ele>161.1</ele><time>2024-02-22T10:57:27Z</time><name>PT1467</name></trkpt>
<trkpt lat="52.075672" lon="05.933561"><ele>161.2</ele><time>2024-02-22T10:57:28Z</time><name>PT1468</name></trkpt>
<trkpt lat="52.075671" lon="05.933546"><ele>161.1</ele><time>2024-02-22T10:57:29Z</time><name>PT1469</name></trkpt>
<trkpt lat="52.075669" lon="05.933530"><ele>161.1</ele><time>2024-02-22T10:57:30Z</time><name>PT1470</name></trkpt>
<trkpt lat="52.075669" lon="05.933516"><ele>161</ele><time>2024-02-22T10:57:31Z</time><name>PT1471</name></trkpt>
<trkpt lat="52.075666" lon="05.933500"><ele>160.9</ele><time>2024-02-22T10:57:32Z</time><name>PT1472</name></trkpt>
<trkpt lat="52.075665" lon="05.933488"><ele>160.8</ele><time>2024-02-22T10:57:33Z</time><name>PT1473</name></trkpt>
<trkpt lat="52.075674" lon="05.933468"><ele>161</ele><time>2024-02-22T10:57:34Z</time><name>PT1474</name></trkpt>
<trkpt lat="52.075679" lon="05.933453"><ele>161.1</ele><time>2024-02-22T10:57:35Z</time><name>PT1475</name></trkpt>
<trkpt lat="52.075681" lon="05.933450"><ele>161.1</ele><time>2024-02-22T10:57:36Z</time><name>PT1476</name></trkpt>
<trkpt lat="52.075684" lon="05.933445"><ele>161.1</ele><time>2024-02-22T10:57:37Z</time><name>PT1477</name></trkpt>
<trkpt lat="52.075687" lon="05.933438"><ele>161.1</ele><time>2024-02-22T10:57:39Z</time><name>PT1478</name></trkpt>
<trkpt lat="52.075692" lon="05.933433"><ele>161.1</ele><time>2024-02-22T10:57:39Z</time><name>PT1479</name></trkpt>
<trkpt lat="52.075697" lon="05.933424"><ele>161</ele><time>2024-02-22T10:57:40Z</time><name>PT1480</name></trkpt>
<trkpt lat="52.075707" lon="05.933417"><ele>160.8</ele><time>2024-02-22T10:57:41Z</time><name>PT1481</name></trkpt>
<trkpt lat="52.075717" lon="05.933416"><ele>160.8</ele><time>2024-02-22T10:57:42Z</time><name>PT1482</name></trkpt>
<trkpt lat="52.075726" lon="05.933415"><ele>160.5</ele><time>2024-02-22T10:57:43Z</time><name>PT1483</name></trkpt>
<trkpt lat="52.075734" lon="05.933417"><ele>160.5</ele><time>2024-02-22T10:57:45Z</time><name>PT1484</name></trkpt>
<trkpt lat="52.075740" lon="05.933421"><ele>160.5</ele><time>2024-02-22T10:57:45Z</time><name>PT1485</name></trkpt>
<trkpt lat="52.075750" lon="05.933424"><ele>160.4</ele><time>2024-02-22T10:57:46Z</time><name>PT1486</name></trkpt>
<trkpt lat="52.075762" lon="05.933429"><ele>160.6</ele><time>2024-02-22T10:57:48Z</time><name>PT1487</name></trkpt>
<trkpt lat="52.075776" lon="05.933434"><ele>160.6</ele><time>2024-02-22T10:57:48Z</time><name>PT1488</name></trkpt>
<trkpt lat="52.075788" lon="05.933439"><ele>160.7</ele><time>2024-02-22T10:57:49Z</time><name>PT1489</name></trkpt>
<trkpt lat="52.075797" lon="05.933445"><ele>160.4</ele><time>2024-02-22T10:57:50Z</time><name>PT1490</name></trkpt>
<trkpt lat="52.075806" lon="05.933449"><ele>160.5</ele><time>2024-02-22T10:57:51Z</time><name>PT1491</name></trkpt>
<trkpt lat="52.075815" lon="05.933452"><ele>160.3</ele><time>2024-02-22T10:57:52Z</time><name>PT1492</name></trkpt>
<trkpt lat="52.075823" lon="05.933453"><ele>160.3</ele><time>2024-02-22T10:57:53Z</time><name>PT1493</name></trkpt>
<trkpt lat="52.075830" lon="05.933456"><ele>160.2</ele><time>2024-02-22T10:57:54Z</time><name>PT1494</name></trkpt>
<trkpt lat="52.075838" lon="05.933460"><ele>160.1</ele><time>2024-02-22T10:57:55Z</time><name>PT1495</name></trkpt>
<trkpt lat="52.075850" lon="05.933463"><ele>160.1</ele><time>2024-02-22T10:57:56Z</time><name>PT1496</name></trkpt>
<trkpt lat="52.075864" lon="05.933466"><ele>160.1</ele><time>2024-02-22T10:57:57Z</time><name>PT1497</name></trkpt>
<trkpt lat="52.075876" lon="05.933472"><ele>160</ele><time>2024-02-22T10:57:58Z</time><name>PT1498</name></trkpt>
<trkpt lat="52.075889" lon="05.933477"><ele>159.9</ele><time>2024-02-22T10:57:59Z</time><name>PT1499</name></trkpt>
<trkpt lat="52.075900" lon="05.933482"><ele>159.8</ele><time>2024-02-22T10:58:00Z</time><name>PT1500</name></trkpt>
<trkpt lat="52.075909" lon="05.933486"><ele>159.7</ele><time>2024-02-22T10:58:01Z</time><name>PT1501</name></trkpt>
<trkpt lat="52.075915" lon="05.933488"><ele>159.6</ele><time>2024-02-22T10:58:03Z</time><name>PT1502</name></trkpt>
<trkpt lat="52.075922" lon="05.933489"><ele>159.7</ele><time>2024-02-22T10:58:03Z</time><name>PT1503</name></trkpt>
<trkpt lat="52.075932" lon="05.933492"><ele>159.6</ele><time>2024-02-22T10:58:04Z</time><name>PT1504</name></trkpt>
<trkpt lat="52.075943" lon="05.933496"><ele>159.4</ele><time>2024-02-22T10:58:05Z</time><name>PT1505</name></trkpt>
<trkpt lat="52.075956" lon="05.933500"><ele>159.5</ele><time>2024-02-22T10:58:06Z</time><name>PT1506</name></trkpt>
<trkpt lat="52.075969" lon="05.933504"><ele>159.3</ele><time>2024-02-22T10:58:07Z</time><name>PT1507</name></trkpt>
<trkpt lat="52.075983" lon="05.933507"><ele>159.4</ele><time>2024-02-22T10:58:08Z</time><name>PT1508</name></trkpt>
<trkpt lat="52.075997" lon="05.933511"><ele>159.5</ele><time>2024-02-22T10:58:09Z</time><name>PT1509</name></trkpt>
<trkpt lat="52.076009" lon="05.933515"><ele>159.6</ele><time>2024-02-22T10:58:10Z</time><name>PT1510</name></trkpt>
<trkpt lat="52.076020" lon="05.933520"><ele>159.7</ele><time>2024-02-22T10:58:11Z</time><name>PT1511</name></trkpt>
<trkpt lat="52.076028" lon="05.933523"><ele>159.7</ele><time>2024-02-22T10:58:12Z</time><name>PT1512</name></trkpt>
<trkpt lat="52.076036" lon="05.933525"><ele>159.6</ele><time>2024-02-22T10:58:13Z</time><name>PT1513</name></trkpt>
<trkpt lat="52.076043" lon="05.933527"><ele>159.7</ele><time>2024-02-22T10:58:14Z</time><name>PT1514</name></trkpt>
<trkpt lat="52.076052" lon="05.933530"><ele>159.5</ele><time>2024-02-22T10:58:15Z</time><name>PT1515</name></trkpt>
<trkpt lat="52.076063" lon="05.933534"><ele>159.5</ele><time>2024-02-22T10:58:16Z</time><name>PT1516</name></trkpt>
<trkpt lat="52.076075" lon="05.933537"><ele>159.5</ele><time>2024-02-22T10:58:17Z</time><name>PT1517</name></trkpt>
<trkpt lat="52.076088" lon="05.933542"><ele>159.5</ele><time>2024-02-22T10:58:18Z</time><name>PT1518</name></trkpt>
<trkpt lat="52.076101" lon="05.933547"><ele>159.4</ele><time>2024-02-22T10:58:19Z</time><name>PT1519</name></trkpt>
<trkpt lat="52.076113" lon="05.933552"><ele>159.3</ele><time>2024-02-22T10:58:21Z</time><name>PT1520</name></trkpt>
<trkpt lat="52.076126" lon="05.933557"><ele>159.1</ele><time>2024-02-22T10:58:21Z</time><name>PT1521</name></trkpt>
<trkpt lat="52.076138" lon="05.933563"><ele>159</ele><time>2024-02-22T10:58:22Z</time><name>PT1522</name></trkpt>
<trkpt lat="52.076149" lon="05.933568"><ele>158.9</ele><time>2024-02-22T10:58:23Z</time><name>PT1523</name></trkpt>
<trkpt lat="52.076157" lon="05.933571"><ele>158.9</ele><time>2024-02-22T10:58:24Z</time><name>PT1524</name></trkpt>
<trkpt lat="52.076164" lon="05.933573"><ele>158.8</ele><time>2024-02-22T10:58:25Z</time><name>PT1525</name></trkpt>
<trkpt lat="52.076170" lon="05.933575"><ele>158.8</ele><time>2024-02-22T10:58:26Z</time><name>PT1526</name></trkpt>
<trkpt lat="52.076178" lon="05.933577"><ele>158.8</ele><time>2024-02-22T10:58:27Z</time><name>PT1527</name></trkpt>
<trkpt lat="52.076185" lon="05.933580"><ele>158.9</ele><time>2024-02-22T10:58:28Z</time><name>PT1528</name></trkpt>
<trkpt lat="52.076195" lon="05.933584"><ele>159</ele><time>2024-02-22T10:58:29Z</time><name>PT1529</name></trkpt>
<trkpt lat="52.076208" lon="05.933589"><ele>159.1</ele><time>2024-02-22T10:58:30Z</time><name>PT1530</name></trkpt>
<trkpt lat="52.076221" lon="05.933595"><ele>159.1</ele><time>2024-02-22T10:58:31Z</time><name>PT1531</name></trkpt>
<trkpt lat="52.076236" lon="05.933600"><ele>159.1</ele><time>2024-02-22T10:58:32Z</time><name>PT1532</name></trkpt>
<trkpt lat="52.076248" lon="05.933605"><ele>159</ele><time>2024-02-22T10:58:33Z</time><name>PT1533</name></trkpt>
<trkpt lat="52.076261" lon="05.933610"><ele>159</ele><time>2024-02-22T10:58:34Z</time><name>PT1534</name></trkpt>
<trkpt lat="52.076272" lon="05.933614"><ele>158.9</ele><time>2024-02-22T10:58:35Z</time><name>PT1535</name></trkpt>
<trkpt lat="52.076280" lon="05.933620"><ele>158.9</ele><time>2024-02-22T10:58:36Z</time><name>PT1536</name></trkpt>
<trkpt lat="52.076289" lon="05.933626"><ele>159.1</ele><time>2024-02-22T10:58:37Z</time><name>PT1537</name></trkpt>
<trkpt lat="52.076296" lon="05.933631"><ele>159.1</ele><time>2024-02-22T10:58:38Z</time><name>PT1538</name></trkpt>
<trkpt lat="52.076302" lon="05.933634"><ele>159.1</ele><time>2024-02-22T10:58:39Z</time><name>PT1539</name></trkpt>
<trkpt lat="52.076308" lon="05.933635"><ele>158.9</ele><time>2024-02-22T10:58:40Z</time><name>PT1540</name></trkpt>
<trkpt lat="52.076317" lon="05.933639"><ele>158.8</ele><time>2024-02-22T10:58:41Z</time><name>PT1541</name></trkpt>
<trkpt lat="52.076330" lon="05.933648"><ele>158.7</ele><time>2024-02-22T10:58:42Z</time><name>PT1542</name></trkpt>
<trkpt lat="52.076345" lon="05.933656"><ele>158.8</ele><time>2024-02-22T10:58:43Z</time><name>PT1543</name></trkpt>
<trkpt lat="52.076359" lon="05.933665"><ele>158.7</ele><time>2024-02-22T10:58:44Z</time><name>PT1544</name></trkpt>
<trkpt lat="52.076371" lon="05.933672"><ele>158.8</ele><time>2024-02-22T10:58:45Z</time><name>PT1545</name></trkpt>
<trkpt lat="52.076382" lon="05.933681"><ele>158.8</ele><time>2024-02-22T10:58:46Z</time><name>PT1546</name></trkpt>
<trkpt lat="52.076394" lon="05.933689"><ele>158.8</ele><time>2024-02-22T10:58:47Z</time><name>PT1547</name></trkpt>
<trkpt lat="52.076405" lon="05.933699"><ele>158.8</ele><time>2024-02-22T10:58:48Z</time><name>PT1548</name></trkpt>
<trkpt lat="52.076414" lon="05.933709"><ele>158.9</ele><time>2024-02-22T10:58:49Z</time><name>PT1549</name></trkpt>
<trkpt lat="52.076422" lon="05.933716"><ele>159</ele><time>2024-02-22T10:58:50Z</time><name>PT1550</name></trkpt>
<trkpt lat="52.076429" lon="05.933719"><ele>159</ele><time>2024-02-22T10:58:51Z</time><name>PT1551</name></trkpt>
<trkpt lat="52.076437" lon="05.933721"><ele>159.1</ele><time>2024-02-22T10:58:52Z</time><name>PT1552</name></trkpt>
<trkpt lat="52.076445" lon="05.933724"><ele>159.1</ele><time>2024-02-22T10:58:53Z</time><name>PT1553</name></trkpt>
<trkpt lat="52.076454" lon="05.933721"><ele>158.9</ele><time>2024-02-22T10:58:54Z</time><name>PT1554</name></trkpt>
<trkpt lat="52.076461" lon="05.933722"><ele>158.9</ele><time>2024-02-22T10:58:55Z</time><name>PT1555</name></trkpt>
<trkpt lat="52.076469" lon="05.933727"><ele>158.9</ele><time>2024-02-22T10:58:56Z</time><name>PT1556</name></trkpt>
<trkpt lat="52.076482" lon="05.933736"><ele>158.9</ele><time>2024-02-22T10:58:57Z</time><name>PT1557</name></trkpt>
<trkpt lat="52.076496" lon="05.933746"><ele>158.8</ele><time>2024-02-22T10:58:58Z</time><name>PT1558</name></trkpt>
<trkpt lat="52.076509" lon="05.933751"><ele>158.9</ele><time>2024-02-22T10:58:59Z</time><name>PT1559</name></trkpt>
<trkpt lat="52.076524" lon="05.933756"><ele>158.8</ele><time>2024-02-22T10:59:00Z</time><name>PT1560</name></trkpt>
<trkpt lat="52.076538" lon="05.933758"><ele>158.8</ele><time>2024-02-22T10:59:01Z</time><name>PT1561</name></trkpt>
<trkpt lat="52.076549" lon="05.933761"><ele>158.9</ele><time>2024-02-22T10:59:02Z</time><name>PT1562</name></trkpt>
<trkpt lat="52.076558" lon="05.933760"><ele>159.1</ele><time>2024-02-22T10:59:03Z</time><name>PT1563</name></trkpt>
<trkpt lat="52.076566" lon="05.933757"><ele>159.1</ele><time>2024-02-22T10:59:04Z</time><name>PT1564</name></trkpt>
<trkpt lat="52.076573" lon="05.933758"><ele>159.1</ele><time>2024-02-22T10:59:05Z</time><name>PT1565</name></trkpt>
<trkpt lat="52.076583" lon="05.933762"><ele>159.1</ele><time>2024-02-22T10:59:06Z</time><name>PT1566</name></trkpt>
<trkpt lat="52.076597" lon="05.933763"><ele>159.1</ele><time>2024-02-22T10:59:07Z</time><name>PT1567</name></trkpt>
<trkpt lat="52.076610" lon="05.933763"><ele>159</ele><time>2024-02-22T10:59:09Z</time><name>PT1568</name></trkpt>
<trkpt lat="52.076625" lon="05.933767"><ele>159</ele><time>2024-02-22T10:59:09Z</time><name>PT1569</name></trkpt>
<trkpt lat="52.076637" lon="05.933770"><ele>158.7</ele><time>2024-02-22T10:59:10Z</time><name>PT1570</name></trkpt>
<trkpt lat="52.076646" lon="05.933772"><ele>158.6</ele><time>2024-02-22T10:59:11Z</time><name>PT1571</name></trkpt>
<trkpt lat="52.076655" lon="05.933773"><ele>158.6</ele><time>2024-02-22T10:59:12Z</time><name>PT1572</name></trkpt>
<trkpt lat="52.076662" lon="05.933775"><ele>158.7</ele><time>2024-02-22T10:59:13Z</time><name>PT1573</name></trkpt>
<trkpt lat="52.076669" lon="05.933779"><ele>159</ele><time>2024-02-22T10:59:15Z</time><name>PT1574</name></trkpt>
<trkpt lat="52.076679" lon="05.933782"><ele>159.1</ele><time>2024-02-22T10:59:15Z</time><name>PT1575</name></trkpt>
<trkpt lat="52.076692" lon="05.933784"><ele>159.2</ele><time>2024-02-22T10:59:16Z</time><name>PT1576</name></trkpt>
<trkpt lat="52.076708" lon="05.933783"><ele>159.1</ele><time>2024-02-22T10:59:17Z</time><name>PT1577</name></trkpt>
<trkpt lat="52.076726" lon="05.933782"><ele>158.9</ele><time>2024-02-22T10:59:18Z</time><name>PT1578</name></trkpt>
<trkpt lat="52.076743" lon="05.933783"><ele>158.9</ele><time>2024-02-22T10:59:19Z</time><name>PT1579</name></trkpt>
<trkpt lat="52.076756" lon="05.933785"><ele>158.8</ele><time>2024-02-22T10:59:20Z</time><name>PT1580</name></trkpt>
<trkpt lat="52.076768" lon="05.933785"><ele>158.7</ele><time>2024-02-22T10:59:21Z</time><name>PT1581</name></trkpt>
<trkpt lat="52.076778" lon="05.933786"><ele>158.9</ele><time>2024-02-22T10:59:22Z</time><name>PT1582</name></trkpt>
<trkpt lat="52.076785" lon="05.933791"><ele>158.9</ele><time>2024-02-22T10:59:23Z</time><name>PT1583</name></trkpt>
<trkpt lat="52.076792" lon="05.933794"><ele>159.1</ele><time>2024-02-22T10:59:24Z</time><name>PT1584</name></trkpt>
<trkpt lat="52.076800" lon="05.933794"><ele>159.1</ele><time>2024-02-22T10:59:25Z</time><name>PT1585</name></trkpt>
<trkpt lat="52.076808" lon="05.933794"><ele>159.1</ele><time>2024-02-22T10:59:26Z</time><name>PT1586</name></trkpt>
<trkpt lat="52.076816" lon="05.933794"><ele>159.1</ele><time>2024-02-22T10:59:27Z</time><name>PT1587</name></trkpt>
<trkpt lat="52.076828" lon="05.933794"><ele>159.2</ele><time>2024-02-22T10:59:28Z</time><name>PT1588</name></trkpt>
<trkpt lat="52.076843" lon="05.933796"><ele>159.1</ele><time>2024-02-22T10:59:29Z</time><name>PT1589</name></trkpt>
<trkpt lat="52.076860" lon="05.933797"><ele>159.2</ele><time>2024-02-22T10:59:30Z</time><name>PT1590</name></trkpt>
<trkpt lat="52.076875" lon="05.933799"><ele>159.2</ele><time>2024-02-22T10:59:31Z</time><name>PT1591</name></trkpt>
<trkpt lat="52.076888" lon="05.933800"><ele>159.3</ele><time>2024-02-22T10:59:32Z</time><name>PT1592</name></trkpt>
<trkpt lat="52.076900" lon="05.933802"><ele>159.4</ele><time>2024-02-22T10:59:33Z</time><name>PT1593</name></trkpt>
<trkpt lat="52.076911" lon="05.933807"><ele>159.4</ele><time>2024-02-22T10:59:34Z</time><name>PT1594</name></trkpt>
<trkpt lat="52.076921" lon="05.933809"><ele>159.4</ele><time>2024-02-22T10:59:35Z</time><name>PT1595</name></trkpt>
<trkpt lat="52.076929" lon="05.933813"><ele>159.4</ele><time>2024-02-22T10:59:36Z</time><name>PT1596</name></trkpt>
<trkpt lat="52.076937" lon="05.933815"><ele>159.4</ele><time>2024-02-22T10:59:37Z</time><name>PT1597</name></trkpt>
<trkpt lat="52.076944" lon="05.933816"><ele>159.2</ele><time>2024-02-22T10:59:39Z</time><name>PT1598</name></trkpt>
<trkpt lat="52.076950" lon="05.933818"><ele>159.3</ele><time>2024-02-22T10:59:39Z</time><name>PT1599</name></trkpt>
<trkpt lat="52.076958" lon="05.933819"><ele>159.3</ele><time>2024-02-22T10:59:40Z</time><name>PT1600</name></trkpt>
<trkpt lat="52.076967" lon="05.933821"><ele>159.5</ele><time>2024-02-22T10:59:41Z</time><name>PT1601</name></trkpt>
<trkpt lat="52.076977" lon="05.933822"><ele>159.6</ele><time>2024-02-22T10:59:42Z</time><name>PT1602</name></trkpt>
<trkpt lat="52.076989" lon="05.933824"><ele>159.5</ele><time>2024-02-22T10:59:43Z</time><name>PT1603</name></trkpt>
<trkpt lat="52.077003" lon="05.933825"><ele>159.5</ele><time>2024-02-22T10:59:44Z</time><name>PT1604</name></trkpt>
<trkpt lat="52.077019" lon="05.933828"><ele>159.5</ele><time>2024-02-22T10:59:45Z</time><name>PT1605</name></trkpt>
<trkpt lat="52.077035" lon="05.933832"><ele>159.6</ele><time>2024-02-22T10:59:46Z</time><name>PT1606</name></trkpt>
<trkpt lat="52.077050" lon="05.933836"><ele>159.6</ele><time>2024-02-22T10:59:47Z</time><name>PT1607</name></trkpt>
<trkpt lat="52.077062" lon="05.933839"><ele>159.7</ele><time>2024-02-22T10:59:48Z</time><name>PT1608</name></trkpt>
<trkpt lat="52.077073" lon="05.933845"><ele>159.6</ele><time>2024-02-22T10:59:49Z</time><name>PT1609</name></trkpt>
<trkpt lat="52.077082" lon="05.933851"><ele>159.7</ele><time>2024-02-22T10:59:50Z</time><name>PT1610</name></trkpt>
<trkpt lat="52.077089" lon="05.933856"><ele>159.7</ele><time>2024-02-22T10:59:51Z</time><name>PT1611</name></trkpt>
<trkpt lat="52.077097" lon="05.933860"><ele>159.5</ele><time>2024-02-22T10:59:52Z</time><name>PT1612</name></trkpt>
<trkpt lat="52.077105" lon="05.933862"><ele>159.6</ele><time>2024-02-22T10:59:53Z</time><name>PT1613</name></trkpt>
<trkpt lat="52.077111" lon="05.933864"><ele>159.6</ele><time>2024-02-22T10:59:54Z</time><name>PT1614</name></trkpt>
<trkpt lat="52.077120" lon="05.933865"><ele>159.5</ele><time>2024-02-22T10:59:55Z</time><name>PT1615</name></trkpt>
<trkpt lat="52.077130" lon="05.933867"><ele>159.5</ele><time>2024-02-22T10:59:56Z</time><name>PT1616</name></trkpt>
<trkpt lat="52.077142" lon="05.933870"><ele>159.6</ele><time>2024-02-22T10:59:57Z</time><name>PT1617</name></trkpt>
<trkpt lat="52.077158" lon="05.933874"><ele>159.6</ele><time>2024-02-22T10:59:58Z</time><name>PT1618</name></trkpt>
<trkpt lat="52.077175" lon="05.933878"><ele>159.5</ele><time>2024-02-22T10:59:59Z</time><name>PT1619</name></trkpt>
<trkpt lat="52.077190" lon="05.933882"><ele>159.5</ele><time>2024-02-22T11:00:00Z</time><name>PT1620</name></trkpt>
<trkpt lat="52.077204" lon="05.933887"><ele>159.5</ele><time>2024-02-22T11:00:01Z</time><name>PT1621</name></trkpt>
<trkpt lat="52.077214" lon="05.933893"><ele>159.4</ele><time>2024-02-22T11:00:03Z</time><name>PT1622</name></trkpt>
<trkpt lat="52.077222" lon="05.933896"><ele>159.3</ele><time>2024-02-22T11:00:03Z</time><name>PT1623</name></trkpt>
<trkpt lat="52.077230" lon="05.933900"><ele>159.5</ele><time>2024-02-22T11:00:04Z</time><name>PT1624</name></trkpt>
<trkpt lat="52.077238" lon="05.933904"><ele>159.6</ele><time>2024-02-22T11:00:05Z</time><name>PT1625</name></trkpt>
<trkpt lat="52.077246" lon="05.933907"><ele>159.5</ele><time>2024-02-22T11:00:06Z</time><name>PT1626</name></trkpt>
<trkpt lat="52.077254" lon="05.933910"><ele>159.7</ele><time>2024-02-22T11:00:07Z</time><name>PT1627</name></trkpt>
<trkpt lat="52.077263" lon="05.933912"><ele>159.8</ele><time>2024-02-22T11:00:09Z</time><name>PT1628</name></trkpt>
<trkpt lat="52.077273" lon="05.933916"><ele>159.7</ele><time>2024-02-22T11:00:09Z</time><name>PT1629</name></trkpt>
<trkpt lat="52.077283" lon="05.933919"><ele>159.7</ele><time>2024-02-22T11:00:10Z</time><name>PT1630</name></trkpt>
<trkpt lat="52.077296" lon="05.933921"><ele>159.8</ele><time>2024-02-22T11:00:11Z</time><name>PT1631</name></trkpt>
<trkpt lat="52.077311" lon="05.933925"><ele>159.8</ele><time>2024-02-22T11:00:12Z</time><name>PT1632</name></trkpt>
<trkpt lat="52.077328" lon="05.933928"><ele>159.8</ele><time>2024-02-22T11:00:13Z</time><name>PT1633</name></trkpt>
<trkpt lat="52.077344" lon="05.933930"><ele>160</ele><time>2024-02-22T11:00:14Z</time><name>PT1634</name></trkpt>
<trkpt lat="52.077360" lon="05.933934"><ele>160.1</ele><time>2024-02-22T11:00:15Z</time><name>PT1635</name></trkpt>
<trkpt lat="52.077372" lon="05.933938"><ele>160.3</ele><time>2024-02-22T11:00:16Z</time><name>PT1636</name></trkpt>
<trkpt lat="52.077381" lon="05.933940"><ele>160.3</ele><time>2024-02-22T11:00:17Z</time><name>PT1637</name></trkpt>
<trkpt lat="52.077387" lon="05.933942"><ele>160.3</ele><time>2024-02-22T11:00:18Z</time><name>PT1638</name></trkpt>
<trkpt lat="52.077394" lon="05.933945"><ele>160.4</ele><time>2024-02-22T11:00:19Z</time><name>PT1639</name></trkpt>
<trkpt lat="52.077400" lon="05.933947"><ele>160.7</ele><time>2024-02-22T11:00:20Z</time><name>PT1640</name></trkpt>
<trkpt lat="52.077407" lon="05.933948"><ele>160.7</ele><time>2024-02-22T11:00:21Z</time><name>PT1641</name></trkpt>
<trkpt lat="52.077418" lon="05.933949"><ele>160.7</ele><time>2024-02-22T11:00:22Z</time><name>PT1642</name></trkpt>
<trkpt lat="52.077430" lon="05.933949"><ele>160.9</ele><time>2024-02-22T11:00:23Z</time><name>PT1643</name></trkpt>
<trkpt lat="52.077446" lon="05.933950"><ele>160.9</ele><time>2024-02-22T11:00:24Z</time><name>PT1644</name></trkpt>
<trkpt lat="52.077461" lon="05.933948"><ele>160.5</ele><time>2024-02-22T11:00:25Z</time><name>PT1645</name></trkpt>
<trkpt lat="52.077472" lon="05.933947"><ele>160.6</ele><time>2024-02-22T11:00:27Z</time><name>PT1646</name></trkpt>
<trkpt lat="52.077480" lon="05.933945"><ele>160.6</ele><time>2024-02-22T11:00:27Z</time><name>PT1647</name></trkpt>
<trkpt lat="52.077477" lon="05.933942"><ele>160.7</ele><time>2024-02-22T11:00:28Z</time><name>PT1648</name></trkpt>
<trkpt lat="52.077476" lon="05.933940"><ele>160.8</ele><time>2024-02-22T11:00:29Z</time><name>PT1649</name></trkpt>
<trkpt lat="52.077478" lon="05.933947"><ele>160.9</ele><time>2024-02-22T11:00:30Z</time><name>PT1650</name></trkpt>
<trkpt lat="52.077486" lon="05.933948"><ele>160.8</ele><time>2024-02-22T11:00:31Z</time><name>PT1651</name></trkpt>
<trkpt lat="52.077500" lon="05.933947"><ele>160.9</ele><time>2024-02-22T11:00:32Z</time><name>PT1652</name></trkpt>
<trkpt lat="52.077519" lon="05.933948"><ele>160.9</ele><time>2024-02-22T11:00:33Z</time><name>PT1653</name></trkpt>
<trkpt lat="52.077538" lon="05.933949"><ele>161</ele><time>2024-02-22T11:00:34Z</time><name>PT1654</name></trkpt>
<trkpt lat="52.077554" lon="05.933953"><ele>161.2</ele><time>2024-02-22T11:00:35Z</time><name>PT1655</name></trkpt>
<trkpt lat="52.077567" lon="05.933955"><ele>161.1</ele><time>2024-02-22T11:00:36Z</time><name>PT1656</name></trkpt>
<trkpt lat="52.077574" lon="05.933959"><ele>161.1</ele><time>2024-02-22T11:00:37Z</time><name>PT1657</name></trkpt>
<trkpt lat="52.077576" lon="05.933964"><ele>161.2</ele><time>2024-02-22T11:00:38Z</time><name>PT1658</name></trkpt>
<trkpt lat="52.077579" lon="05.933968"><ele>161.1</ele><time>2024-02-22T11:00:39Z</time><name>PT1659</name></trkpt>
<trkpt lat="52.077585" lon="05.933967"><ele>160.9</ele><time>2024-02-22T11:00:40Z</time><name>PT1660</name></trkpt>
<trkpt lat="52.077593" lon="05.933966"><ele>161</ele><time>2024-02-22T11:00:41Z</time><name>PT1661</name></trkpt>
<trkpt lat="52.077602" lon="05.933966"><ele>161.2</ele><time>2024-02-22T11:00:42Z</time><name>PT1662</name></trkpt>
<trkpt lat="52.077612" lon="05.933968"><ele>161.2</ele><time>2024-02-22T11:00:43Z</time><name>PT1663</name></trkpt>
<trkpt lat="52.077627" lon="05.933970"><ele>161.3</ele><time>2024-02-22T11:00:44Z</time><name>PT1664</name></trkpt>
<trkpt lat="52.077645" lon="05.933973"><ele>161.5</ele><time>2024-02-22T11:00:45Z</time><name>PT1665</name></trkpt>
<trkpt lat="52.077662" lon="05.933974"><ele>161.6</ele><time>2024-02-22T11:00:46Z</time><name>PT1666</name></trkpt>
<trkpt lat="52.077676" lon="05.933976"><ele>161.7</ele><time>2024-02-22T11:00:47Z</time><name>PT1667</name></trkpt>
<trkpt lat="52.077688" lon="05.933980"><ele>161.7</ele><time>2024-02-22T11:00:48Z</time><name>PT1668</name></trkpt>
<trkpt lat="52.077698" lon="05.933985"><ele>161.8</ele><time>2024-02-22T11:00:49Z</time><name>PT1669</name></trkpt>
<trkpt lat="52.077708" lon="05.933990"><ele>161.8</ele><time>2024-02-22T11:00:50Z</time><name>PT1670</name></trkpt>
<trkpt lat="52.077716" lon="05.933994"><ele>162</ele><time>2024-02-22T11:00:51Z</time><name>PT1671</name></trkpt>
<trkpt lat="52.077723" lon="05.933994"><ele>161.9</ele><time>2024-02-22T11:00:52Z</time><name>PT1672</name></trkpt>
<trkpt lat="52.077730" lon="05.933993"><ele>161.9</ele><time>2024-02-22T11:00:53Z</time><name>PT1673</name></trkpt>
<trkpt lat="52.077737" lon="05.933991"><ele>161.9</ele><time>2024-02-22T11:00:54Z</time><name>PT1674</name></trkpt>
<trkpt lat="52.077748" lon="05.933994"><ele>161.9</ele><time>2024-02-22T11:00:55Z</time><name>PT1675</name></trkpt>
<trkpt lat="52.077762" lon="05.934007"><ele>161.7</ele><time>2024-02-22T11:00:56Z</time><name>PT1676</name></trkpt>
<trkpt lat="52.077779" lon="05.934021"><ele>161.8</ele><time>2024-02-22T11:00:57Z</time><name>PT1677</name></trkpt>
<trkpt lat="52.077796" lon="05.934030"><ele>161.8</ele><time>2024-02-22T11:00:58Z</time><name>PT1678</name></trkpt>
<trkpt lat="52.077811" lon="05.934036"><ele>161.9</ele><time>2024-02-22T11:00:59Z</time><name>PT1679</name></trkpt>
<trkpt lat="52.077826" lon="05.934042"><ele>161.9</ele><time>2024-02-22T11:01:00Z</time><name>PT1680</name></trkpt>
<trkpt lat="52.077839" lon="05.934050"><ele>162</ele><time>2024-02-22T11:01:01Z</time><name>PT1681</name></trkpt>
<trkpt lat="52.077851" lon="05.934058"><ele>162.1</ele><time>2024-02-22T11:01:02Z</time><name>PT1682</name></trkpt>
<trkpt lat="52.077861" lon="05.934064"><ele>162.3</ele><time>2024-02-22T11:01:03Z</time><name>PT1683</name></trkpt>
<trkpt lat="52.077869" lon="05.934070"><ele>162.2</ele><time>2024-02-22T11:01:04Z</time><name>PT1684</name></trkpt>
<trkpt lat="52.077877" lon="05.934074"><ele>162.4</ele><time>2024-02-22T11:01:05Z</time><name>PT1685</name></trkpt>
<trkpt lat="52.077883" lon="05.934077"><ele>162.3</ele><time>2024-02-22T11:01:06Z</time><name>PT1686</name></trkpt>
<trkpt lat="52.077891" lon="05.934080"><ele>162.4</ele><time>2024-02-22T11:01:07Z</time><name>PT1687</name></trkpt>
<trkpt lat="52.077898" lon="05.934082"><ele>162.3</ele><time>2024-02-22T11:01:09Z</time><name>PT1688</name></trkpt>
<trkpt lat="52.077908" lon="05.934085"><ele>162.3</ele><time>2024-02-22T11:01:09Z</time><name>PT1689</name></trkpt>
<trkpt lat="52.077921" lon="05.934089"><ele>162.3</ele><time>2024-02-22T11:01:10Z</time><name>PT1690</name></trkpt>
<trkpt lat="52.077936" lon="05.934093"><ele>162.2</ele><time>2024-02-22T11:01:11Z</time><name>PT1691</name></trkpt>
<trkpt lat="52.077952" lon="05.934095"><ele>162.2</ele><time>2024-02-22T11:01:12Z</time><name>PT1692</name></trkpt>
<trkpt lat="52.077966" lon="05.934099"><ele>162</ele><time>2024-02-22T11:01:14Z</time><name>PT1693</name></trkpt>
<trkpt lat="52.077982" lon="05.934103"><ele>162</ele><time>2024-02-22T11:01:14Z</time><name>PT1694</name></trkpt>
<trkpt lat="52.077999" lon="05.934107"><ele>161.9</ele><time>2024-02-22T11:01:15Z</time><name>PT1695</name></trkpt>
<trkpt lat="52.078011" lon="05.934110"><ele>161.8</ele><time>2024-02-22T11:01:16Z</time><name>PT1696</name></trkpt>
<trkpt lat="52.078024" lon="05.934113"><ele>161.9</ele><time>2024-02-22T11:01:17Z</time><name>PT1697</name></trkpt>
<trkpt lat="52.078034" lon="05.934116"><ele>161.8</ele><time>2024-02-22T11:01:18Z</time><name>PT1698</name></trkpt>
<trkpt lat="52.078043" lon="05.934120"><ele>161.9</ele><time>2024-02-22T11:01:19Z</time><name>PT1699</name></trkpt>
<trkpt lat="52.078052" lon="05.934122"><ele>162</ele><time>2024-02-22T11:01:20Z</time><name>PT1700</name></trkpt>
<trkpt lat="52.078061" lon="05.934123"><ele>162.1</ele><time>2024-02-22T11:01:21Z</time><name>PT1701</name></trkpt>
<trkpt lat="52.078066" lon="05.934125"><ele>162.2</ele><time>2024-02-22T11:01:22Z</time><name>PT1702</name></trkpt>
<trkpt lat="52.078073" lon="05.934127"><ele>162.3</ele><time>2024-02-22T11:01:23Z</time><name>PT1703</name></trkpt>
<trkpt lat="52.078080" lon="05.934127"><ele>162.3</ele><time>2024-02-22T11:01:24Z</time><name>PT1704</name></trkpt>
<trkpt lat="52.078088" lon="05.934129"><ele>162.1</ele><time>2024-02-22T11:01:25Z</time><name>PT1705</name></trkpt>
<trkpt lat="52.078098" lon="05.934131"><ele>162</ele><time>2024-02-22T11:01:26Z</time><name>PT1706</name></trkpt>
<trkpt lat="52.078108" lon="05.934133"><ele>162</ele><time>2024-02-22T11:01:27Z</time><name>PT1707</name></trkpt>
<trkpt lat="52.078122" lon="05.934136"><ele>161.8</ele><time>2024-02-22T11:01:29Z</time><name>PT1708</name></trkpt>
<trkpt lat="52.078136" lon="05.934139"><ele>161.6</ele><time>2024-02-22T11:01:29Z</time><name>PT1709</name></trkpt>
<trkpt lat="52.078151" lon="05.934140"><ele>161.7</ele><time>2024-02-22T11:01:30Z</time><name>PT1710</name></trkpt>
<trkpt lat="52.078167" lon="05.934141"><ele>161.7</ele><time>2024-02-22T11:01:31Z</time><name>PT1711</name></trkpt>
<trkpt lat="52.078184" lon="05.934145"><ele>161.7</ele><time>2024-02-22T11:01:32Z</time><name>PT1712</name></trkpt>
<trkpt lat="52.078199" lon="05.934149"><ele>161.8</ele><time>2024-02-22T11:01:33Z</time><name>PT1713</name></trkpt>
<trkpt lat="52.078211" lon="05.934152"><ele>161.9</ele><time>2024-02-22T11:01:34Z</time><name>PT1714</name></trkpt>
<trkpt lat="52.078224" lon="05.934155"><ele>161.8</ele><time>2024-02-22T11:01:35Z</time><name>PT1715</name></trkpt>
<trkpt lat="52.078237" lon="05.934159"><ele>161.9</ele><time>2024-02-22T11:01:36Z</time><name>PT1716</name></trkpt>
<trkpt lat="52.078251" lon="05.934162"><ele>161.8</ele><time>2024-02-22T11:01:37Z</time><name>PT1717</name></trkpt>
<trkpt lat="52.078262" lon="05.934166"><ele>161.7</ele><time>2024-02-22T11:01:39Z</time><name>PT1718</name></trkpt>
<trkpt lat="52.078270" lon="05.934168"><ele>161.7</ele><time>2024-02-22T11:01:39Z</time><name>PT1719</name></trkpt>
<trkpt lat="52.078278" lon="05.934171"><ele>161.6</ele><time>2024-02-22T11:01:40Z</time><name>PT1720</name></trkpt>
<trkpt lat="52.078284" lon="05.934172"><ele>161.6</ele><time>2024-02-22T11:01:41Z</time><name>PT1721</name></trkpt>
<trkpt lat="52.078292" lon="05.934173"><ele>161.7</ele><time>2024-02-22T11:01:42Z</time><name>PT1722</name></trkpt>
<trkpt lat="52.078300" lon="05.934174"><ele>161.7</ele><time>2024-02-22T11:01:43Z</time><name>PT1723</name></trkpt>
<trkpt lat="52.078310" lon="05.934175"><ele>161.9</ele><time>2024-02-22T11:01:44Z</time><name>PT1724</name></trkpt>
<trkpt lat="52.078319" lon="05.934177"><ele>162</ele><time>2024-02-22T11:01:45Z</time><name>PT1725</name></trkpt>
<trkpt lat="52.078328" lon="05.934179"><ele>161.9</ele><time>2024-02-22T11:01:46Z</time><name>PT1726</name></trkpt>
<trkpt lat="52.078337" lon="05.934181"><ele>161.8</ele><time>2024-02-22T11:01:47Z</time><name>PT1727</name></trkpt>
<trkpt lat="52.078348" lon="05.934183"><ele>161.7</ele><time>2024-02-22T11:01:48Z</time><name>PT1728</name></trkpt>
<trkpt lat="52.078361" lon="05.934186"><ele>161.5</ele><time>2024-02-22T11:01:49Z</time><name>PT1729</name></trkpt>
<trkpt lat="52.078375" lon="05.934190"><ele>161.4</ele><time>2024-02-22T11:01:50Z</time><name>PT1730</name></trkpt>
<trkpt lat="52.078391" lon="05.934194"><ele>161.4</ele><time>2024-02-22T11:01:51Z</time><name>PT1731</name></trkpt>
<trkpt lat="52.078409" lon="05.934198"><ele>161.3</ele><time>2024-02-22T11:01:52Z</time><name>PT1732</name></trkpt>
<trkpt lat="52.078426" lon="05.934202"><ele>161.2</ele><time>2024-02-22T11:01:54Z</time><name>PT1733</name></trkpt>
<trkpt lat="52.078442" lon="05.934208"><ele>161.1</ele><time>2024-02-22T11:01:54Z</time><name>PT1734</name></trkpt>
<trkpt lat="52.078455" lon="05.934213"><ele>161.2</ele><time>2024-02-22T11:01:55Z</time><name>PT1735</name></trkpt>
<trkpt lat="52.078470" lon="05.934215"><ele>161.3</ele><time>2024-02-22T11:01:56Z</time><name>PT1736</name></trkpt>
<trkpt lat="52.078481" lon="05.934219"><ele>161.4</ele><time>2024-02-22T11:01:57Z</time><name>PT1737</name></trkpt>
<trkpt lat="52.078491" lon="05.934223"><ele>161.4</ele><time>2024-02-22T11:01:58Z</time><name>PT1738</name></trkpt>
<trkpt lat="52.078501" lon="05.934229"><ele>161.4</ele><time>2024-02-22T11:01:59Z</time><name>PT1739</name></trkpt>
<trkpt lat="52.078509" lon="05.934233"><ele>161.4</ele><time>2024-02-22T11:02:00Z</time><name>PT1740</name></trkpt>
<trkpt lat="52.078516" lon="05.934235"><ele>161.4</ele><time>2024-02-22T11:02:01Z</time><name>PT1741</name></trkpt>
<trkpt lat="52.078523" lon="05.934238"><ele>161.2</ele><time>2024-02-22T11:02:02Z</time><name>PT1742</name></trkpt>
<trkpt lat="52.078529" lon="05.934240"><ele>161.2</ele><time>2024-02-22T11:02:03Z</time><name>PT1743</name></trkpt>
<trkpt lat="52.078542" lon="05.934245"><ele>161.2</ele><time>2024-02-22T11:02:04Z</time><name>PT1744</name></trkpt>
<trkpt lat="52.078557" lon="05.934254"><ele>161.4</ele><time>2024-02-22T11:02:05Z</time><name>PT1745</name></trkpt>
<trkpt lat="52.078571" lon="05.934260"><ele>161.4</ele><time>2024-02-22T11:02:06Z</time><name>PT1746</name></trkpt>
<trkpt lat="52.078582" lon="05.934267"><ele>161.5</ele><time>2024-02-22T11:02:07Z</time><name>PT1747</name></trkpt>
<trkpt lat="52.078591" lon="05.934273"><ele>161.5</ele><time>2024-02-22T11:02:08Z</time><name>PT1748</name></trkpt>
<trkpt lat="52.078599" lon="05.934280"><ele>161.5</ele><time>2024-02-22T11:02:09Z</time><name>PT1749</name></trkpt>
<trkpt lat="52.078606" lon="05.934282"><ele>161.4</ele><time>2024-02-22T11:02:10Z</time><name>PT1750</name></trkpt>
<trkpt lat="52.078611" lon="05.934284"><ele>161.3</ele><time>2024-02-22T11:02:11Z</time><name>PT1751</name></trkpt>
<trkpt lat="52.078618" lon="05.934286"><ele>161.2</ele><time>2024-02-22T11:02:12Z</time><name>PT1752</name></trkpt>
<trkpt lat="52.078634" lon="05.934295"><ele>161.1</ele><time>2024-02-22T11:02:13Z</time><name>PT1753</name></trkpt>
<trkpt lat="52.078649" lon="05.934301"><ele>161.1</ele><time>2024-02-22T11:02:14Z</time><name>PT1754</name></trkpt>
<trkpt lat="52.078664" lon="05.934304"><ele>161.3</ele><time>2024-02-22T11:02:15Z</time><name>PT1755</name></trkpt>
<trkpt lat="52.078675" lon="05.934309"><ele>161.4</ele><time>2024-02-22T11:02:16Z</time><name>PT1756</name></trkpt>
<trkpt lat="52.078684" lon="05.934312"><ele>161.3</ele><time>2024-02-22T11:02:17Z</time><name>PT1757</name></trkpt>
<trkpt lat="52.078691" lon="05.934314"><ele>161.3</ele><time>2024-02-22T11:02:18Z</time><name>PT1758</name></trkpt>
<trkpt lat="52.078697" lon="05.934316"><ele>161.2</ele><time>2024-02-22T11:02:19Z</time><name>PT1759</name></trkpt>
<trkpt lat="52.078704" lon="05.934318"><ele>161</ele><time>2024-02-22T11:02:20Z</time><name>PT1760</name></trkpt>
<trkpt lat="52.078717" lon="05.934324"><ele>161.1</ele><time>2024-02-22T11:02:21Z</time><name>PT1761</name></trkpt>
<trkpt lat="52.078729" lon="05.934327"><ele>161.2</ele><time>2024-02-22T11:02:22Z</time><name>PT1762</name></trkpt>
<trkpt lat="52.078737" lon="05.934330"><ele>161.3</ele><time>2024-02-22T11:02:23Z</time><name>PT1763</name></trkpt>
<trkpt lat="52.078745" lon="05.934333"><ele>161.3</ele><time>2024-02-22T11:02:24Z</time><name>PT1764</name></trkpt>
<trkpt lat="52.078753" lon="05.934343"><ele>161.4</ele><time>2024-02-22T11:02:26Z</time><name>PT1765</name></trkpt>
<trkpt lat="52.078762" lon="05.934350"><ele>161.3</ele><time>2024-02-22T11:02:27Z</time><name>PT1766</name></trkpt>
<trkpt lat="52.078771" lon="05.934351"><ele>161.3</ele><time>2024-02-22T11:02:27Z</time><name>PT1767</name></trkpt>
<trkpt lat="52.078779" lon="05.934349"><ele>161.4</ele><time>2024-02-22T11:02:28Z</time><name>PT1768</name></trkpt>
<trkpt lat="52.078788" lon="05.934349"><ele>161.6</ele><time>2024-02-22T11:02:29Z</time><name>PT1769</name></trkpt>
<trkpt lat="52.078797" lon="05.934350"><ele>161.8</ele><time>2024-02-22T11:02:30Z</time><name>PT1770</name></trkpt>
<trkpt lat="52.078802" lon="05.934353"><ele>161.9</ele><time>2024-02-22T11:02:31Z</time><name>PT1771</name></trkpt>
<trkpt lat="52.078806" lon="05.934350"><ele>161.9</ele><time>2024-02-22T11:02:32Z</time><name>PT1772</name></trkpt>
<trkpt lat="52.078812" lon="05.934347"><ele>161.9</ele><time>2024-02-22T11:02:33Z</time><name>PT1773</name></trkpt>
<trkpt lat="52.078820" lon="05.934348"><ele>161.8</ele><time>2024-02-22T11:02:34Z</time><name>PT1774</name></trkpt>
<trkpt lat="52.078829" lon="05.934349"><ele>162</ele><time>2024-02-22T11:02:35Z</time><name>PT1775</name></trkpt>
<trkpt lat="52.078838" lon="05.934347"><ele>162</ele><time>2024-02-22T11:02:36Z</time><name>PT1776</name></trkpt>
<trkpt lat="52.078838" lon="05.934345"><ele>161.9</ele><time>2024-02-22T11:02:37Z</time><name>PT1777</name></trkpt>
<trkpt lat="52.078845" lon="05.934350"><ele>161.7</ele><time>2024-02-22T11:02:38Z</time><name>PT1778</name></trkpt>
<trkpt lat="52.078854" lon="05.934352"><ele>161.8</ele><time>2024-02-22T11:02:39Z</time><name>PT1779</name></trkpt>
<trkpt lat="52.078862" lon="05.934355"><ele>161.8</ele><time>2024-02-22T11:02:40Z</time><name>PT1780</name></trkpt>
<trkpt lat="52.078869" lon="05.934356"><ele>161.6</ele><time>2024-02-22T11:02:41Z</time><name>PT1781</name></trkpt>
<trkpt lat="52.078877" lon="05.934354"><ele>161.7</ele><time>2024-02-22T11:02:42Z</time><name>PT1782</name></trkpt>
<trkpt lat="52.078884" lon="05.934354"><ele>161.6</ele><time>2024-02-22T11:02:43Z</time><name>PT1783</name></trkpt>
<trkpt lat="52.078891" lon="05.934352"><ele>161.8</ele><time>2024-02-22T11:02:44Z</time><name>PT1784</name></trkpt>
<trkpt lat="52.078901" lon="05.934349"><ele>161.7</ele><time>2024-02-22T11:02:45Z</time><name>PT1785</name></trkpt>
<trkpt lat="52.078912" lon="05.934347"><ele>161.8</ele><time>2024-02-22T11:02:46Z</time><name>PT1786</name></trkpt>
<trkpt lat="52.078921" lon="05.934346"><ele>161.9</ele><time>2024-02-22T11:02:47Z</time><name>PT1787</name></trkpt>
<trkpt lat="52.078931" lon="05.934347"><ele>162</ele><time>2024-02-22T11:02:48Z</time><name>PT1788</name></trkpt>
<trkpt lat="52.078941" lon="05.934348"><ele>162.2</ele><time>2024-02-22T11:02:49Z</time><name>PT1789</name></trkpt>
<trkpt lat="52.078948" lon="05.934347"><ele>162.2</ele><time>2024-02-22T11:02:50Z</time><name>PT1790</name></trkpt>
<trkpt lat="52.078947" lon="05.934344"><ele>162.3</ele><time>2024-02-22T11:02:51Z</time><name>PT1791</name></trkpt>
<trkpt lat="52.078946" lon="05.934343"><ele>162.2</ele><time>2024-02-22T11:02:52Z</time><name>PT1792</name></trkpt>
<trkpt lat="52.078946" lon="05.934344"><ele>162</ele><time>2024-02-22T11:02:53Z</time><name>PT1793</name></trkpt>
<trkpt lat="52.078945" lon="05.934342"><ele>162</ele><time>2024-02-22T11:02:54Z</time><name>PT1794</name></trkpt>
<trkpt lat="52.078947" lon="05.934344"><ele>162.4</ele><time>2024-02-22T11:03:05Z</time><name>PT1795</name></trkpt>
<trkpt lat="52.078959" lon="05.934345"><ele>162.3</ele><time>2024-02-22T11:03:06Z</time><name>PT1796</name></trkpt>
<trkpt lat="52.078971" lon="05.934347"><ele>162.2</ele><time>2024-02-22T11:03:07Z</time><name>PT1797</name></trkpt>
<trkpt lat="52.078983" lon="05.934347"><ele>162</ele><time>2024-02-22T11:03:08Z</time><name>PT1798</name></trkpt>
<trkpt lat="52.078994" lon="05.934347"><ele>162</ele><time>2024-02-22T11:03:09Z</time><name>PT1799</name></trkpt>
<trkpt lat="52.079006" lon="05.934347"><ele>161.9</ele><time>2024-02-22T11:03:10Z</time><name>PT1800</name></trkpt>
<trkpt lat="52.079017" lon="05.934348"><ele>162</ele><time>2024-02-22T11:03:12Z</time><name>PT1801</name></trkpt>
<trkpt lat="52.079029" lon="05.934350"><ele>162</ele><time>2024-02-22T11:03:12Z</time><name>PT1802</name></trkpt>
<trkpt lat="52.079039" lon="05.934352"><ele>162</ele><time>2024-02-22T11:03:13Z</time><name>PT1803</name></trkpt>
<trkpt lat="52.079051" lon="05.934354"><ele>161.9</ele><time>2024-02-22T11:03:14Z</time><name>PT1804</name></trkpt>
<trkpt lat="52.079064" lon="05.934357"><ele>161.8</ele><time>2024-02-22T11:03:15Z</time><name>PT1805</name></trkpt>
<trkpt lat="52.079075" lon="05.934358"><ele>161.7</ele><time>2024-02-22T11:03:16Z</time><name>PT1806</name></trkpt>
<trkpt lat="52.079088" lon="05.934359"><ele>161.7</ele><time>2024-02-22T11:03:17Z</time><name>PT1807</name></trkpt>
<trkpt lat="52.079100" lon="05.934362"><ele>161.7</ele><time>2024-02-22T11:03:18Z</time><name>PT1808</name></trkpt>
<trkpt lat="52.079112" lon="05.934365"><ele>161.8</ele><time>2024-02-22T11:03:19Z</time><name>PT1809</name></trkpt>
<trkpt lat="52.079122" lon="05.934369"><ele>161.7</ele><time>2024-02-22T11:03:20Z</time><name>PT1810</name></trkpt>
<trkpt lat="52.079129" lon="05.934372"><ele>161.6</ele><time>2024-02-22T11:03:21Z</time><name>PT1811</name></trkpt>
<trkpt lat="52.079133" lon="05.934373"><ele>161.6</ele><time>2024-02-22T11:03:22Z</time><name>PT1812</name></trkpt>
<trkpt lat="52.079136" lon="05.934373"><ele>161.5</ele><time>2024-02-22T11:03:23Z</time><name>PT1813</name></trkpt>
<trkpt lat="52.079140" lon="05.934373"><ele>161.6</ele><time>2024-02-22T11:03:24Z</time><name>PT1814</name></trkpt>
<trkpt lat="52.079148" lon="05.934372"><ele>161.5</ele><time>2024-02-22T11:03:25Z</time><name>PT1815</name></trkpt>
<trkpt lat="52.079156" lon="05.934369"><ele>161.5</ele><time>2024-02-22T11:03:26Z</time><name>PT1816</name></trkpt>
<trkpt lat="52.079166" lon="05.934368"><ele>161.6</ele><time>2024-02-22T11:03:27Z</time><name>PT1817</name></trkpt>
<trkpt lat="52.079176" lon="05.934370"><ele>161.6</ele><time>2024-02-22T11:03:28Z</time><name>PT1818</name></trkpt>
<trkpt lat="52.079186" lon="05.934373"><ele>161.4</ele><time>2024-02-22T11:03:29Z</time><name>PT1819</name></trkpt>
<trkpt lat="52.079199" lon="05.934377"><ele>161.5</ele><time>2024-02-22T11:03:30Z</time><name>PT1820</name></trkpt>
<trkpt lat="52.079210" lon="05.934382"><ele>161.6</ele><time>2024-02-22T11:03:31Z</time><name>PT1821</name></trkpt>
<trkpt lat="52.079222" lon="05.934384"><ele>161.5</ele><time>2024-02-22T11:03:32Z</time><name>PT1822</name></trkpt>
<trkpt lat="52.079234" lon="05.934385"><ele>161.6</ele><time>2024-02-22T11:03:33Z</time><name>PT1823</name></trkpt>
<trkpt lat="52.079245" lon="05.934384"><ele>161.6</ele><time>2024-02-22T11:03:34Z</time><name>PT1824</name></trkpt>
<trkpt lat="52.079257" lon="05.934386"><ele>161.5</ele><time>2024-02-22T11:03:35Z</time><name>PT1825</name></trkpt>
<trkpt lat="52.079269" lon="05.934388"><ele>161.4</ele><time>2024-02-22T11:03:36Z</time><name>PT1826</name></trkpt>
<trkpt lat="52.079280" lon="05.934390"><ele>161.3</ele><time>2024-02-22T11:03:37Z</time><name>PT1827</name></trkpt>
<trkpt lat="52.079292" lon="05.934393"><ele>161.2</ele><time>2024-02-22T11:03:39Z</time><name>PT1828</name></trkpt>
<trkpt lat="52.079301" lon="05.934400"><ele>161.1</ele><time>2024-02-22T11:03:39Z</time><name>PT1829</name></trkpt>
<trkpt lat="52.079314" lon="05.934406"><ele>161</ele><time>2024-02-22T11:03:40Z</time><name>PT1830</name></trkpt>
<trkpt lat="52.079328" lon="05.934412"><ele>160.9</ele><time>2024-02-22T11:03:41Z</time><name>PT1831</name></trkpt>
<trkpt lat="52.079340" lon="05.934415"><ele>160.9</ele><time>2024-02-22T11:03:42Z</time><name>PT1832</name></trkpt>
<trkpt lat="52.079349" lon="05.934418"><ele>160.9</ele><time>2024-02-22T11:03:43Z</time><name>PT1833</name></trkpt>
<trkpt lat="52.079359" lon="05.934421"><ele>160.9</ele><time>2024-02-22T11:03:44Z</time><name>PT1834</name></trkpt>
<trkpt lat="52.079370" lon="05.934423"><ele>160.9</ele><time>2024-02-22T11:03:45Z</time><name>PT1835</name></trkpt>
<trkpt lat="52.079381" lon="05.934424"><ele>160.9</ele><time>2024-02-22T11:03:46Z</time><name>PT1836</name></trkpt>
<trkpt lat="52.079391" lon="05.934426"><ele>160.9</ele><time>2024-02-22T11:03:47Z</time><name>PT1837</name></trkpt>
<trkpt lat="52.079402" lon="05.934430"><ele>161</ele><time>2024-02-22T11:03:48Z</time><name>PT1838</name></trkpt>
<trkpt lat="52.079412" lon="05.934435"><ele>161</ele><time>2024-02-22T11:03:49Z</time><name>PT1839</name></trkpt>
<trkpt lat="52.079423" lon="05.934438"><ele>161.2</ele><time>2024-02-22T11:03:50Z</time><name>PT1840</name></trkpt>
<trkpt lat="52.079432" lon="05.934441"><ele>161.1</ele><time>2024-02-22T11:03:51Z</time><name>PT1841</name></trkpt>
<trkpt lat="52.079442" lon="05.934441"><ele>161.1</ele><time>2024-02-22T11:03:52Z</time><name>PT1842</name></trkpt>
<trkpt lat="52.079450" lon="05.934441"><ele>160.9</ele><time>2024-02-22T11:03:53Z</time><name>PT1843</name></trkpt>
<trkpt lat="52.079460" lon="05.934445"><ele>161</ele><time>2024-02-22T11:03:54Z</time><name>PT1844</name></trkpt>
<trkpt lat="52.079469" lon="05.934448"><ele>161.1</ele><time>2024-02-22T11:03:55Z</time><name>PT1845</name></trkpt>
<trkpt lat="52.079479" lon="05.934452"><ele>161.1</ele><time>2024-02-22T11:03:56Z</time><name>PT1846</name></trkpt>
<trkpt lat="52.079489" lon="05.934453"><ele>160.9</ele><time>2024-02-22T11:03:57Z</time><name>PT1847</name></trkpt>
<trkpt lat="52.079498" lon="05.934455"><ele>160.9</ele><time>2024-02-22T11:03:58Z</time><name>PT1848</name></trkpt>
<trkpt lat="52.079506" lon="05.934458"><ele>160.7</ele><time>2024-02-22T11:04:00Z</time><name>PT1849</name></trkpt>
<trkpt lat="52.079514" lon="05.934461"><ele>160.7</ele><time>2024-02-22T11:04:00Z</time><name>PT1850</name></trkpt>
<trkpt lat="52.079523" lon="05.934463"><ele>160.6</ele><time>2024-02-22T11:04:01Z</time><name>PT1851</name></trkpt>
<trkpt lat="52.079531" lon="05.934464"><ele>160.7</ele><time>2024-02-22T11:04:02Z</time><name>PT1852</name></trkpt>
<trkpt lat="52.079540" lon="05.934469"><ele>160.6</ele><time>2024-02-22T11:04:03Z</time><name>PT1853</name></trkpt>
<trkpt lat="52.079548" lon="05.934471"><ele>160.7</ele><time>2024-02-22T11:04:04Z</time><name>PT1854</name></trkpt>
<trkpt lat="52.079556" lon="05.934474"><ele>160.8</ele><time>2024-02-22T11:04:05Z</time><name>PT1855</name></trkpt>
<trkpt lat="52.079563" lon="05.934476"><ele>160.8</ele><time>2024-02-22T11:04:06Z</time><name>PT1856</name></trkpt>
<trkpt lat="52.079570" lon="05.934479"><ele>160.7</ele><time>2024-02-22T11:04:07Z</time><name>PT1857</name></trkpt>
<trkpt lat="52.079576" lon="05.934481"><ele>160.8</ele><time>2024-02-22T11:04:08Z</time><name>PT1858</name></trkpt>
<trkpt lat="52.079580" lon="05.934484"><ele>160.8</ele><time>2024-02-22T11:04:09Z</time><name>PT1859</name></trkpt>
<trkpt lat="52.079581" lon="05.934485"><ele>160.9</ele><time>2024-02-22T11:04:10Z</time><name>PT1860</name></trkpt>
<trkpt lat="52.079581" lon="05.934485"><ele>160.8</ele><time>2024-02-22T11:04:11Z</time><name>PT1861</name></trkpt>
<trkpt lat="52.079585" lon="05.934485"><ele>160.9</ele><time>2024-02-22T11:04:12Z</time><name>PT1862</name></trkpt>
<trkpt lat="52.079591" lon="05.934487"><ele>160.9</ele><time>2024-02-22T11:04:13Z</time><name>PT1863</name></trkpt>
<trkpt lat="52.079597" lon="05.934487"><ele>160.9</ele><time>2024-02-22T11:04:15Z</time><name>PT1864</name></trkpt>
<trkpt lat="52.079603" lon="05.934488"><ele>160.9</ele><time>2024-02-22T11:04:15Z</time><name>PT1865</name></trkpt>
<trkpt lat="52.079609" lon="05.934492"><ele>160.8</ele><time>2024-02-22T11:04:16Z</time><name>PT1866</name></trkpt>
<trkpt lat="52.079615" lon="05.934493"><ele>160.7</ele><time>2024-02-22T11:04:17Z</time><name>PT1867</name></trkpt>
<trkpt lat="52.079621" lon="05.934493"><ele>160.6</ele><time>2024-02-22T11:04:18Z</time><name>PT1868</name></trkpt>
<trkpt lat="52.079627" lon="05.934495"><ele>160.7</ele><time>2024-02-22T11:04:19Z</time><name>PT1869</name></trkpt>
<trkpt lat="52.079633" lon="05.934496"><ele>160.4</ele><time>2024-02-22T11:04:20Z</time><name>PT1870</name></trkpt>
<trkpt lat="52.079638" lon="05.934497"><ele>160.4</ele><time>2024-02-22T11:04:21Z</time><name>PT1871</name></trkpt>
<trkpt lat="52.079643" lon="05.934499"><ele>160.5</ele><time>2024-02-22T11:04:22Z</time><name>PT1872</name></trkpt>
<trkpt lat="52.079649" lon="05.934498"><ele>160.4</ele><time>2024-02-22T11:04:23Z</time><name>PT1873</name></trkpt>
<trkpt lat="52.079656" lon="05.934500"><ele>160.3</ele><time>2024-02-22T11:04:24Z</time><name>PT1874</name></trkpt>
<trkpt lat="52.079661" lon="05.934502"><ele>160.6</ele><time>2024-02-22T11:04:25Z</time><name>PT1875</name></trkpt>
<trkpt lat="52.079666" lon="05.934501"><ele>160.5</ele><time>2024-02-22T11:04:26Z</time><name>PT1876</name></trkpt>
<trkpt lat="52.079671" lon="05.934502"><ele>160.3</ele><time>2024-02-22T11:04:27Z</time><name>PT1877</name></trkpt>
<trkpt lat="52.079676" lon="05.934503"><ele>160.2</ele><time>2024-02-22T11:04:28Z</time><name>PT1878</name></trkpt>
<trkpt lat="52.079681" lon="05.934503"><ele>160.3</ele><time>2024-02-22T11:04:30Z</time><name>PT1879</name></trkpt>
<trkpt lat="52.079686" lon="05.934506"><ele>160.3</ele><time>2024-02-22T11:04:30Z</time><name>PT1880</name></trkpt>
<trkpt lat="52.079691" lon="05.934508"><ele>160.2</ele><time>2024-02-22T11:04:31Z</time><name>PT1881</name></trkpt>
<trkpt lat="52.079694" lon="05.934508"><ele>160.3</ele><time>2024-02-22T11:04:32Z</time><name>PT1882</name></trkpt>
<trkpt lat="52.079694" lon="05.934508"><ele>160.3</ele><time>2024-02-22T11:04:33Z</time><name>PT1883</name></trkpt>
<trkpt lat="52.079695" lon="05.934508"><ele>160.3</ele><time>2024-02-22T11:04:34Z</time><name>PT1884</name></trkpt>
<trkpt lat="52.079695" lon="05.934508"><ele>160.3</ele><time>2024-02-22T11:04:35Z</time><name>PT1885</name></trkpt>
<trkpt lat="52.079697" lon="05.934510"><ele>160.4</ele><time>2024-02-22T11:05:23Z</time><name>PT1886</name></trkpt>
<trkpt lat="52.079705" lon="05.934513"><ele>160.4</ele><time>2024-02-22T11:05:24Z</time><name>PT1887</name></trkpt>
<trkpt lat="52.079713" lon="05.934514"><ele>160.5</ele><time>2024-02-22T11:05:25Z</time><name>PT1888</name></trkpt>
<trkpt lat="52.079718" lon="05.934515"><ele>160.6</ele><time>2024-02-22T11:05:26Z</time><name>PT1889</name></trkpt>
<trkpt lat="52.079720" lon="05.934515"><ele>160.6</ele><time>2024-02-22T11:05:27Z</time><name>PT1890</name></trkpt>
<trkpt lat="52.079721" lon="05.934517"><ele>160.7</ele><time>2024-02-22T11:05:28Z</time><name>PT1891</name></trkpt>
<trkpt lat="52.079724" lon="05.934518"><ele>160.4</ele><time>2024-02-22T11:05:38Z</time><name>PT1892</name></trkpt>
<trkpt lat="52.079730" lon="05.934520"><ele>160.3</ele><time>2024-02-22T11:05:39Z</time><name>PT1893</name></trkpt>
<trkpt lat="52.079737" lon="05.934521"><ele>160.3</ele><time>2024-02-22T11:05:40Z</time><name>PT1894</name></trkpt>
<trkpt lat="52.079739" lon="05.934517"><ele>160.3</ele><time>2024-02-22T11:05:41Z</time><name>PT1895</name></trkpt>
<trkpt lat="52.079742" lon="05.934511"><ele>160.3</ele><time>2024-02-22T11:05:42Z</time><name>PT1896</name></trkpt>
<trkpt lat="52.079742" lon="05.934503"><ele>160.3</ele><time>2024-02-22T11:05:43Z</time><name>PT1897</name></trkpt>
<trkpt lat="52.079740" lon="05.934493"><ele>160.3</ele><time>2024-02-22T11:05:44Z</time><name>PT1898</name></trkpt>
<trkpt lat="52.079739" lon="05.934480"><ele>160.3</ele><time>2024-02-22T11:05:45Z</time><name>PT1899</name></trkpt>
<trkpt lat="52.079735" lon="05.934468"><ele>160.2</ele><time>2024-02-22T11:05:46Z</time><name>PT1900</name></trkpt>
<trkpt lat="52.079731" lon="05.934458"><ele>160.3</ele><time>2024-02-22T11:05:47Z</time><name>PT1901</name></trkpt>
<trkpt lat="52.079730" lon="05.934448"><ele>160.4</ele><time>2024-02-22T11:05:48Z</time><name>PT1902</name></trkpt>
<trkpt lat="52.079726" lon="05.934438"><ele>160.5</ele><time>2024-02-22T11:05:49Z</time><name>PT1903</name></trkpt>
<trkpt lat="52.079725" lon="05.934433"><ele>160.6</ele><time>2024-02-22T11:05:50Z</time><name>PT1904</name></trkpt>
<trkpt lat="52.079724" lon="05.934426"><ele>160.8</ele><time>2024-02-22T11:05:51Z</time><name>PT1905</name></trkpt>
<trkpt lat="52.079723" lon="05.934419"><ele>160.7</ele><time>2024-02-22T11:05:52Z</time><name>PT1906</name></trkpt>
<trkpt lat="52.079723" lon="05.934413"><ele>160.9</ele><time>2024-02-22T11:05:53Z</time><name>PT1907</name></trkpt>
<trkpt lat="52.079724" lon="05.934406"><ele>160.9</ele><time>2024-02-22T11:05:54Z</time><name>PT1908</name></trkpt>
<trkpt lat="52.079724" lon="05.934411"><ele>160.7</ele><time>2024-02-22T11:06:11Z</time><name>PT1909</name></trkpt>
<trkpt lat="52.079726" lon="05.934414"><ele>160.8</ele><time>2024-02-22T11:06:12Z</time><name>PT1910</name></trkpt>
<trkpt lat="52.079727" lon="05.934415"><ele>160.8</ele><time>2024-02-22T11:06:13Z</time><name>PT1911</name></trkpt>
<trkpt lat="52.079728" lon="05.934418"><ele>160.9</ele><time>2024-02-22T11:06:57Z</time><name>PT1912</name></trkpt>
<trkpt lat="52.079732" lon="05.934426"><ele>160.9</ele><time>2024-02-22T11:06:58Z</time><name>PT1913</name></trkpt>
<trkpt lat="52.079734" lon="05.934432"><ele>160.8</ele><time>2024-02-22T11:07:00Z</time><name>PT1914</name></trkpt>
<trkpt lat="52.079736" lon="05.934439"><ele>160.8</ele><time>2024-02-22T11:07:00Z</time><name>PT1915</name></trkpt>
<trkpt lat="52.079736" lon="05.934443"><ele>160.6</ele><time>2024-02-22T11:07:07Z</time><name>PT1916</name></trkpt>
<trkpt lat="52.079737" lon="05.934447"><ele>160.6</ele><time>2024-02-22T11:07:09Z</time><name>PT1917</name></trkpt>
<trkpt lat="52.079738" lon="05.934450"><ele>160.7</ele><time>2024-02-22T11:07:09Z</time><name>PT1918</name></trkpt>
<trkpt lat="52.079740" lon="05.934457"><ele>160.7</ele><time>2024-02-22T11:07:12Z</time><name>PT1919</name></trkpt>
<trkpt lat="52.079746" lon="05.934470"><ele>160.7</ele><time>2024-02-22T11:07:13Z</time><name>PT1920</name></trkpt>
<trkpt lat="52.079750" lon="05.934476"><ele>160.6</ele><time>2024-02-22T11:07:15Z</time><name>PT1921</name></trkpt>
<trkpt lat="52.079753" lon="05.934480"><ele>160.7</ele><time>2024-02-22T11:07:15Z</time><name>PT1922</name></trkpt>
<trkpt lat="52.079753" lon="05.934483"><ele>160.6</ele><time>2024-02-22T11:07:16Z</time><name>PT1923</name></trkpt>
<trkpt lat="52.079753" lon="05.934486"><ele>160.5</ele><time>2024-02-22T11:07:18Z</time><name>PT1924</name></trkpt>
<trkpt lat="52.079756" lon="05.934490"><ele>160.4</ele><time>2024-02-22T11:07:27Z</time><name>PT1925</name></trkpt>
<trkpt lat="52.079762" lon="05.934505"><ele>160.3</ele><time>2024-02-22T11:07:27Z</time><name>PT1926</name></trkpt>
<trkpt lat="52.079769" lon="05.934514"><ele>160.3</ele><time>2024-02-22T11:07:28Z</time><name>PT1927</name></trkpt>
<trkpt lat="52.079777" lon="05.934521"><ele>160.1</ele><time>2024-02-22T11:07:30Z</time><name>PT1928</name></trkpt>
<trkpt lat="52.079786" lon="05.934524"><ele>159.9</ele><time>2024-02-22T11:07:30Z</time><name>PT1929</name></trkpt>
<trkpt lat="52.079795" lon="05.934527"><ele>160</ele><time>2024-02-22T11:07:31Z</time><name>PT1930</name></trkpt>
<trkpt lat="52.079804" lon="05.934531"><ele>159.9</ele><time>2024-02-22T11:07:33Z</time><name>PT1931</name></trkpt>
<trkpt lat="52.079813" lon="05.934535"><ele>159.9</ele><time>2024-02-22T11:07:33Z</time><name>PT1932</name></trkpt>
<trkpt lat="52.079822" lon="05.934537"><ele>160</ele><time>2024-02-22T11:07:34Z</time><name>PT1933</name></trkpt>
<trkpt lat="52.079832" lon="05.934540"><ele>160.1</ele><time>2024-02-22T11:07:35Z</time><name>PT1934</name></trkpt>
<trkpt lat="52.079842" lon="05.934542"><ele>160</ele><time>2024-02-22T11:07:36Z</time><name>PT1935</name></trkpt>
<trkpt lat="52.079852" lon="05.934546"><ele>160.1</ele><time>2024-02-22T11:07:37Z</time><name>PT1936</name></trkpt>
<trkpt lat="52.079860" lon="05.934550"><ele>160</ele><time>2024-02-22T11:07:38Z</time><name>PT1937</name></trkpt>
<trkpt lat="52.079869" lon="05.934554"><ele>160</ele><time>2024-02-22T11:07:39Z</time><name>PT1938</name></trkpt>
<trkpt lat="52.079879" lon="05.934559"><ele>160.1</ele><time>2024-02-22T11:07:40Z</time><name>PT1939</name></trkpt>
<trkpt lat="52.079887" lon="05.934564"><ele>159.9</ele><time>2024-02-22T11:07:41Z</time><name>PT1940</name></trkpt>
<trkpt lat="52.079897" lon="05.934568"><ele>159.9</ele><time>2024-02-22T11:07:42Z</time><name>PT1941</name></trkpt>
<trkpt lat="52.079906" lon="05.934572"><ele>159.7</ele><time>2024-02-22T11:07:43Z</time><name>PT1942</name></trkpt>
<trkpt lat="52.079915" lon="05.934575"><ele>159.7</ele><time>2024-02-22T11:07:44Z</time><name>PT1943</name></trkpt>
<trkpt lat="52.079924" lon="05.934578"><ele>159.5</ele><time>2024-02-22T11:07:45Z</time><name>PT1944</name></trkpt>
<trkpt lat="52.079933" lon="05.934581"><ele>159.6</ele><time>2024-02-22T11:07:46Z</time><name>PT1945</name></trkpt>
<trkpt lat="52.079941" lon="05.934586"><ele>159.6</ele><time>2024-02-22T11:07:47Z</time><name>PT1946</name></trkpt>
<trkpt lat="52.079946" lon="05.934594"><ele>159.7</ele><time>2024-02-22T11:07:48Z</time><name>PT1947</name></trkpt>
<trkpt lat="52.079952" lon="05.934598"><ele>159.7</ele><time>2024-02-22T11:07:49Z</time><name>PT1948</name></trkpt>
<trkpt lat="52.079961" lon="05.934598"><ele>159.8</ele><time>2024-02-22T11:07:50Z</time><name>PT1949</name></trkpt>
<trkpt lat="52.079970" lon="05.934601"><ele>159.7</ele><time>2024-02-22T11:07:51Z</time><name>PT1950</name></trkpt>
<trkpt lat="52.079979" lon="05.934604"><ele>159.7</ele><time>2024-02-22T11:07:52Z</time><name>PT1951</name></trkpt>
<trkpt lat="52.079988" lon="05.934607"><ele>159.6</ele><time>2024-02-22T11:07:53Z</time><name>PT1952</name></trkpt>
<trkpt lat="52.079997" lon="05.934611"><ele>159.7</ele><time>2024-02-22T11:07:54Z</time><name>PT1953</name></trkpt>
<trkpt lat="52.080004" lon="05.934614"><ele>159.6</ele><time>2024-02-22T11:07:55Z</time><name>PT1954</name></trkpt>
<trkpt lat="52.080011" lon="05.934619"><ele>159.4</ele><time>2024-02-22T11:07:56Z</time><name>PT1955</name></trkpt>
<trkpt lat="52.080019" lon="05.934624"><ele>159.5</ele><time>2024-02-22T11:07:57Z</time><name>PT1956</name></trkpt>
<trkpt lat="52.080027" lon="05.934627"><ele>159.4</ele><time>2024-02-22T11:07:58Z</time><name>PT1957</name></trkpt>
<trkpt lat="52.080033" lon="05.934629"><ele>159.3</ele><time>2024-02-22T11:07:59Z</time><name>PT1958</name></trkpt>
<trkpt lat="52.080040" lon="05.934634"><ele>159.3</ele><time>2024-02-22T11:08:00Z</time><name>PT1959</name></trkpt>
<trkpt lat="52.080048" lon="05.934640"><ele>159.5</ele><time>2024-02-22T11:08:01Z</time><name>PT1960</name></trkpt>
<trkpt lat="52.080056" lon="05.934645"><ele>159.6</ele><time>2024-02-22T11:08:02Z</time><name>PT1961</name></trkpt>
<trkpt lat="52.080064" lon="05.934649"><ele>159.8</ele><time>2024-02-22T11:08:03Z</time><name>PT1962</name></trkpt>
<trkpt lat="52.080073" lon="05.934651"><ele>159.9</ele><time>2024-02-22T11:08:04Z</time><name>PT1963</name></trkpt>
<trkpt lat="52.080083" lon="05.934654"><ele>159.8</ele><time>2024-02-22T11:08:05Z</time><name>PT1964</name></trkpt>
<trkpt lat="52.080093" lon="05.934660"><ele>159.7</ele><time>2024-02-22T11:08:06Z</time><name>PT1965</name></trkpt>
<trkpt lat="52.080103" lon="05.934662"><ele>159.7</ele><time>2024-02-22T11:08:07Z</time><name>PT1966</name></trkpt>
<trkpt lat="52.080114" lon="05.934664"><ele>159.7</ele><time>2024-02-22T11:08:08Z</time><name>PT1967</name></trkpt>
<trkpt lat="52.080126" lon="05.934664"><ele>159.5</ele><time>2024-02-22T11:08:09Z</time><name>PT1968</name></trkpt>
<trkpt lat="52.080136" lon="05.934662"><ele>159.7</ele><time>2024-02-22T11:08:10Z</time><name>PT1969</name></trkpt>
<trkpt lat="52.080147" lon="05.934661"><ele>159.6</ele><time>2024-02-22T11:08:11Z</time><name>PT1970</name></trkpt>
<trkpt lat="52.080158" lon="05.934665"><ele>159.7</ele><time>2024-02-22T11:08:12Z</time><name>PT1971</name></trkpt>
<trkpt lat="52.080169" lon="05.934670"><ele>159.8</ele><time>2024-02-22T11:08:13Z</time><name>PT1972</name></trkpt>
<trkpt lat="52.080179" lon="05.934675"><ele>159.7</ele><time>2024-02-22T11:08:14Z</time><name>PT1973</name></trkpt>
<trkpt lat="52.080191" lon="05.934679"><ele>159.9</ele><time>2024-02-22T11:08:15Z</time><name>PT1974</name></trkpt>
<trkpt lat="52.080203" lon="05.934684"><ele>159.9</ele><time>2024-02-22T11:08:16Z</time><name>PT1975</name></trkpt>
<trkpt lat="52.080214" lon="05.934686"><ele>159.8</ele><time>2024-02-22T11:08:17Z</time><name>PT1976</name></trkpt>
<trkpt lat="52.080225" lon="05.934686"><ele>159.7</ele><time>2024-02-22T11:08:18Z</time><name>PT1977</name></trkpt>
<trkpt lat="52.080232" lon="05.934689"><ele>159.6</ele><time>2024-02-22T11:08:19Z</time><name>PT1978</name></trkpt>
<trkpt lat="52.080242" lon="05.934692"><ele>159.6</ele><time>2024-02-22T11:08:20Z</time><name>PT1979</name></trkpt>
<trkpt lat="52.080253" lon="05.934693"><ele>159.7</ele><time>2024-02-22T11:08:21Z</time><name>PT1980</name></trkpt>
<trkpt lat="52.080264" lon="05.934693"><ele>159.3</ele><time>2024-02-22T11:08:22Z</time><name>PT1981</name></trkpt>
<trkpt lat="52.080276" lon="05.934693"><ele>159.6</ele><time>2024-02-22T11:08:23Z</time><name>PT1982</name></trkpt>
<trkpt lat="52.080287" lon="05.934696"><ele>159.6</ele><time>2024-02-22T11:08:24Z</time><name>PT1983</name></trkpt>
<trkpt lat="52.080298" lon="05.934700"><ele>159.5</ele><time>2024-02-22T11:08:26Z</time><name>PT1984</name></trkpt>
<trkpt lat="52.080309" lon="05.934703"><ele>159.6</ele><time>2024-02-22T11:08:26Z</time><name>PT1985</name></trkpt>
<trkpt lat="52.080320" lon="05.934706"><ele>159.7</ele><time>2024-02-22T11:08:27Z</time><name>PT1986</name></trkpt>
<trkpt lat="52.080330" lon="05.934710"><ele>159.7</ele><time>2024-02-22T11:08:28Z</time><name>PT1987</name></trkpt>
<trkpt lat="52.080341" lon="05.934711"><ele>159.7</ele><time>2024-02-22T11:08:29Z</time><name>PT1988</name></trkpt>
<trkpt lat="52.080351" lon="05.934712"><ele>159.9</ele><time>2024-02-22T11:08:30Z</time><name>PT1989</name></trkpt>
<trkpt lat="52.080362" lon="05.934712"><ele>159.8</ele><time>2024-02-22T11:08:31Z</time><name>PT1990</name></trkpt>
<trkpt lat="52.080372" lon="05.934714"><ele>159.7</ele><time>2024-02-22T11:08:32Z</time><name>PT1991</name></trkpt>
<trkpt lat="52.080381" lon="05.934715"><ele>159.9</ele><time>2024-02-22T11:08:33Z</time><name>PT1992</name></trkpt>
<trkpt lat="52.080390" lon="05.934720"><ele>160.1</ele><time>2024-02-22T11:08:34Z</time><name>PT1993</name></trkpt>
<trkpt lat="52.080400" lon="05.934724"><ele>160.1</ele><time>2024-02-22T11:08:35Z</time><name>PT1994</name></trkpt>
<trkpt lat="52.080409" lon="05.934726"><ele>160.2</ele><time>2024-02-22T11:08:36Z</time><name>PT1995</name></trkpt>
<trkpt lat="52.080418" lon="05.934729"><ele>160.3</ele><time>2024-02-22T11:08:37Z</time><name>PT1996</name></trkpt>
<trkpt lat="52.080428" lon="05.934729"><ele>160.3</ele><time>2024-02-22T11:08:38Z</time><name>PT1997</name></trkpt>
<trkpt lat="52.080433" lon="05.934731"><ele>160.3</ele><time>2024-02-22T11:08:39Z</time><name>PT1998</name></trkpt>
<trkpt lat="52.080437" lon="05.934732"><ele>160.3</ele><time>2024-02-22T11:08:41Z</time><name>PT1999</name></trkpt>
<trkpt lat="52.080437" lon="05.934733"><ele>160.3</ele><time>2024-02-22T11:08:41Z</time><name>PT2000</name></trkpt>
<trkpt lat="52.080437" lon="05.934734"><ele>160.6</ele><time>2024-02-22T11:08:42Z</time><name>PT2001</name></trkpt>
<trkpt lat="52.080437" lon="05.934733"><ele>160.6</ele><time>2024-02-22T11:08:43Z</time><name>PT2002</name></trkpt>
<trkpt lat="52.080439" lon="05.934735"><ele>160.8</ele><time>2024-02-22T11:08:53Z</time><name>PT2003</name></trkpt>
<trkpt lat="52.080445" lon="05.934738"><ele>160.7</ele><time>2024-02-22T11:08:54Z</time><name>PT2004</name></trkpt>
<trkpt lat="52.080452" lon="05.934739"><ele>160.5</ele><time>2024-02-22T11:08:56Z</time><name>PT2005</name></trkpt>
<trkpt lat="52.080459" lon="05.934742"><ele>160.4</ele><time>2024-02-22T11:08:56Z</time><name>PT2006</name></trkpt>
<trkpt lat="52.080468" lon="05.934749"><ele>160.5</ele><time>2024-02-22T11:08:57Z</time><name>PT2007</name></trkpt>
<trkpt lat="52.080478" lon="05.934753"><ele>160.7</ele><time>2024-02-22T11:08:58Z</time><name>PT2008</name></trkpt>
<trkpt lat="52.080488" lon="05.934756"><ele>160.7</ele><time>2024-02-22T11:08:59Z</time><name>PT2009</name></trkpt>
<trkpt lat="52.080497" lon="05.934759"><ele>160.8</ele><time>2024-02-22T11:09:00Z</time><name>PT2010</name></trkpt>
<trkpt lat="52.080505" lon="05.934764"><ele>161</ele><time>2024-02-22T11:09:01Z</time><name>PT2011</name></trkpt>
<trkpt lat="52.080513" lon="05.934768"><ele>160.9</ele><time>2024-02-22T11:09:02Z</time><name>PT2012</name></trkpt>
<trkpt lat="52.080522" lon="05.934771"><ele>161.1</ele><time>2024-02-22T11:09:03Z</time><name>PT2013</name></trkpt>
<trkpt lat="52.080531" lon="05.934773"><ele>161.2</ele><time>2024-02-22T11:09:04Z</time><name>PT2014</name></trkpt>
<trkpt lat="52.080539" lon="05.934775"><ele>161.2</ele><time>2024-02-22T11:09:05Z</time><name>PT2015</name></trkpt>
<trkpt lat="52.080546" lon="05.934780"><ele>161.1</ele><time>2024-02-22T11:09:06Z</time><name>PT2016</name></trkpt>
<trkpt lat="52.080554" lon="05.934784"><ele>161.2</ele><time>2024-02-22T11:09:07Z</time><name>PT2017</name></trkpt>
<trkpt lat="52.080563" lon="05.934787"><ele>161.1</ele><time>2024-02-22T11:09:08Z</time><name>PT2018</name></trkpt>
<trkpt lat="52.080566" lon="05.934787"><ele>161.1</ele><time>2024-02-22T11:09:09Z</time><name>PT2019</name></trkpt>
<trkpt lat="52.080572" lon="05.934788"><ele>161.2</ele><time>2024-02-22T11:09:10Z</time><name>PT2020</name></trkpt>
<trkpt lat="52.080577" lon="05.934792"><ele>161.2</ele><time>2024-02-22T11:09:11Z</time><name>PT2021</name></trkpt>
<trkpt lat="52.080586" lon="05.934797"><ele>160.9</ele><time>2024-02-22T11:09:13Z</time><name>PT2022</name></trkpt>
<trkpt lat="52.080596" lon="05.934802"><ele>160.9</ele><time>2024-02-22T11:09:13Z</time><name>PT2023</name></trkpt>
<trkpt lat="52.080608" lon="05.934801"><ele>160.7</ele><time>2024-02-22T11:09:14Z</time><name>PT2024</name></trkpt>
<trkpt lat="52.080619" lon="05.934801"><ele>160.7</ele><time>2024-02-22T11:09:15Z</time><name>PT2025</name></trkpt>
<trkpt lat="52.080629" lon="05.934803"><ele>160.7</ele><time>2024-02-22T11:09:16Z</time><name>PT2026</name></trkpt>
<trkpt lat="52.080639" lon="05.934809"><ele>160.7</ele><time>2024-02-22T11:09:17Z</time><name>PT2027</name></trkpt>
<trkpt lat="52.080651" lon="05.934814"><ele>160.5</ele><time>2024-02-22T11:09:18Z</time><name>PT2028</name></trkpt>
<trkpt lat="52.080661" lon="05.934817"><ele>160.4</ele><time>2024-02-22T11:09:19Z</time><name>PT2029</name></trkpt>
<trkpt lat="52.080672" lon="05.934819"><ele>160.4</ele><time>2024-02-22T11:09:20Z</time><name>PT2030</name></trkpt>
<trkpt lat="52.080683" lon="05.934820"><ele>160.6</ele><time>2024-02-22T11:09:21Z</time><name>PT2031</name></trkpt>
<trkpt lat="52.080695" lon="05.934821"><ele>160.7</ele><time>2024-02-22T11:09:22Z</time><name>PT2032</name></trkpt>
<trkpt lat="52.080704" lon="05.934821"><ele>160.9</ele><time>2024-02-22T11:09:23Z</time><name>PT2033</name></trkpt>
<trkpt lat="52.080713" lon="05.934822"><ele>161.1</ele><time>2024-02-22T11:09:24Z</time><name>PT2034</name></trkpt>
<trkpt lat="52.080725" lon="05.934824"><ele>161</ele><time>2024-02-22T11:09:25Z</time><name>PT2035</name></trkpt>
<trkpt lat="52.080737" lon="05.934827"><ele>160.9</ele><time>2024-02-22T11:09:26Z</time><name>PT2036</name></trkpt>
<trkpt lat="52.080748" lon="05.934829"><ele>161</ele><time>2024-02-22T11:09:27Z</time><name>PT2037</name></trkpt>
<trkpt lat="52.080760" lon="05.934832"><ele>160.7</ele><time>2024-02-22T11:09:28Z</time><name>PT2038</name></trkpt>
<trkpt lat="52.080770" lon="05.934834"><ele>160.9</ele><time>2024-02-22T11:09:29Z</time><name>PT2039</name></trkpt>
<trkpt lat="52.080779" lon="05.934835"><ele>161</ele><time>2024-02-22T11:09:30Z</time><name>PT2040</name></trkpt>
<trkpt lat="52.080785" lon="05.934834"><ele>161.1</ele><time>2024-02-22T11:09:31Z</time><name>PT2041</name></trkpt>
<trkpt lat="52.080787" lon="05.934834"><ele>161.1</ele><time>2024-02-22T11:09:32Z</time><name>PT2042</name></trkpt>
<trkpt lat="52.080787" lon="05.934833"><ele>161.1</ele><time>2024-02-22T11:09:33Z</time><name>PT2043</name></trkpt>
<trkpt lat="52.080788" lon="05.934832"><ele>160.9</ele><time>2024-02-22T11:09:34Z</time><name>PT2044</name></trkpt>
<trkpt lat="52.080791" lon="05.934836"><ele>160.9</ele><time>2024-02-22T11:09:38Z</time><name>PT2045</name></trkpt>
<trkpt lat="52.080800" lon="05.934841"><ele>160.9</ele><time>2024-02-22T11:09:39Z</time><name>PT2046</name></trkpt>
<trkpt lat="52.080809" lon="05.934842"><ele>161</ele><time>2024-02-22T11:09:40Z</time><name>PT2047</name></trkpt>
<trkpt lat="52.080818" lon="05.934842"><ele>161</ele><time>2024-02-22T11:09:41Z</time><name>PT2048</name></trkpt>
<trkpt lat="52.080828" lon="05.934842"><ele>161</ele><time>2024-02-22T11:09:42Z</time><name>PT2049</name></trkpt>
<trkpt lat="52.080840" lon="05.934841"><ele>161.2</ele><time>2024-02-22T11:09:43Z</time><name>PT2050</name></trkpt>
<trkpt lat="52.080851" lon="05.934842"><ele>161.1</ele><time>2024-02-22T11:09:44Z</time><name>PT2051</name></trkpt>
<trkpt lat="52.080861" lon="05.934847"><ele>161</ele><time>2024-02-22T11:09:45Z</time><name>PT2052</name></trkpt>
<trkpt lat="52.080871" lon="05.934849"><ele>160.9</ele><time>2024-02-22T11:09:46Z</time><name>PT2053</name></trkpt>
<trkpt lat="52.080881" lon="05.934852"><ele>160.9</ele><time>2024-02-22T11:09:47Z</time><name>PT2054</name></trkpt>
<trkpt lat="52.080890" lon="05.934853"><ele>160.9</ele><time>2024-02-22T11:09:48Z</time><name>PT2055</name></trkpt>
<trkpt lat="52.080901" lon="05.934853"><ele>161</ele><time>2024-02-22T11:09:49Z</time><name>PT2056</name></trkpt>
<trkpt lat="52.080911" lon="05.934853"><ele>160.9</ele><time>2024-02-22T11:09:50Z</time><name>PT2057</name></trkpt>
<trkpt lat="52.080921" lon="05.934854"><ele>160.9</ele><time>2024-02-22T11:09:51Z</time><name>PT2058</name></trkpt>
<trkpt lat="52.080931" lon="05.934857"><ele>161</ele><time>2024-02-22T11:09:52Z</time><name>PT2059</name></trkpt>
<trkpt lat="52.080941" lon="05.934860"><ele>160.9</ele><time>2024-02-22T11:09:53Z</time><name>PT2060</name></trkpt>
<trkpt lat="52.080951" lon="05.934864"><ele>160.9</ele><time>2024-02-22T11:09:54Z</time><name>PT2061</name></trkpt>
<trkpt lat="52.080962" lon="05.934867"><ele>160.9</ele><time>2024-02-22T11:09:55Z</time><name>PT2062</name></trkpt>
<trkpt lat="52.080970" lon="05.934869"><ele>160.9</ele><time>2024-02-22T11:09:56Z</time><name>PT2063</name></trkpt>
<trkpt lat="52.080978" lon="05.934868"><ele>160.8</ele><time>2024-02-22T11:09:57Z</time><name>PT2064</name></trkpt>
<trkpt lat="52.080988" lon="05.934867"><ele>160.8</ele><time>2024-02-22T11:09:58Z</time><name>PT2065</name></trkpt>
<trkpt lat="52.080998" lon="05.934869"><ele>160.9</ele><time>2024-02-22T11:09:59Z</time><name>PT2066</name></trkpt>
<trkpt lat="52.081008" lon="05.934871"><ele>160.9</ele><time>2024-02-22T11:10:00Z</time><name>PT2067</name></trkpt>
<trkpt lat="52.081018" lon="05.934875"><ele>160.8</ele><time>2024-02-22T11:10:01Z</time><name>PT2068</name></trkpt>
<trkpt lat="52.081027" lon="05.934878"><ele>160.8</ele><time>2024-02-22T11:10:02Z</time><name>PT2069</name></trkpt>
<trkpt lat="52.081036" lon="05.934881"><ele>160.9</ele><time>2024-02-22T11:10:03Z</time><name>PT2070</name></trkpt>
<trkpt lat="52.081046" lon="05.934884"><ele>160.8</ele><time>2024-02-22T11:10:04Z</time><name>PT2071</name></trkpt>
<trkpt lat="52.081053" lon="05.934885"><ele>160.7</ele><time>2024-02-22T11:10:05Z</time><name>PT2072</name></trkpt>
<trkpt lat="52.081055" lon="05.934883"><ele>160.8</ele><time>2024-02-22T11:10:06Z</time><name>PT2073</name></trkpt>
<trkpt lat="52.081056" lon="05.934882"><ele>160.8</ele><time>2024-02-22T11:10:07Z</time><name>PT2074</name></trkpt>
<trkpt lat="52.081060" lon="05.934883"><ele>160.9</ele><time>2024-02-22T11:10:08Z</time><name>PT2075</name></trkpt>
<trkpt lat="52.081067" lon="05.934885"><ele>160.9</ele><time>2024-02-22T11:10:09Z</time><name>PT2076</name></trkpt>
<trkpt lat="52.081076" lon="05.934886"><ele>160.9</ele><time>2024-02-22T11:10:10Z</time><name>PT2077</name></trkpt>
<trkpt lat="52.081084" lon="05.934887"><ele>160.9</ele><time>2024-02-22T11:10:11Z</time><name>PT2078</name></trkpt>
<trkpt lat="52.081089" lon="05.934888"><ele>160.9</ele><time>2024-02-22T11:10:12Z</time><name>PT2079</name></trkpt>
<trkpt lat="52.081091" lon="05.934885"><ele>160.8</ele><time>2024-02-22T11:10:13Z</time><name>PT2080</name></trkpt>
<trkpt lat="52.081097" lon="05.934882"><ele>160.8</ele><time>2024-02-22T11:10:14Z</time><name>PT2081</name></trkpt>
<trkpt lat="52.081103" lon="05.934886"><ele>160.8</ele><time>2024-02-22T11:10:15Z</time><name>PT2082</name></trkpt>
<trkpt lat="52.081111" lon="05.934890"><ele>160.7</ele><time>2024-02-22T11:10:16Z</time><name>PT2083</name></trkpt>
<trkpt lat="52.081120" lon="05.934891"><ele>160.6</ele><time>2024-02-22T11:10:17Z</time><name>PT2084</name></trkpt>
<trkpt lat="52.081128" lon="05.934892"><ele>160.6</ele><time>2024-02-22T11:10:18Z</time><name>PT2085</name></trkpt>
<trkpt lat="52.081134" lon="05.934896"><ele>160.7</ele><time>2024-02-22T11:10:19Z</time><name>PT2086</name></trkpt>
<trkpt lat="52.081140" lon="05.934900"><ele>160.8</ele><time>2024-02-22T11:10:20Z</time><name>PT2087</name></trkpt>
<trkpt lat="52.081148" lon="05.934903"><ele>160.6</ele><time>2024-02-22T11:10:21Z</time><name>PT2088</name></trkpt>
<trkpt lat="52.081158" lon="05.934905"><ele>160.7</ele><time>2024-02-22T11:10:22Z</time><name>PT2089</name></trkpt>
<trkpt lat="52.081170" lon="05.934905"><ele>160.7</ele><time>2024-02-22T11:10:23Z</time><name>PT2090</name></trkpt>
<trkpt lat="52.081181" lon="05.934909"><ele>160.5</ele><time>2024-02-22T11:10:24Z</time><name>PT2091</name></trkpt>
<trkpt lat="52.081192" lon="05.934915"><ele>160.4</ele><time>2024-02-22T11:10:26Z</time><name>PT2092</name></trkpt>
<trkpt lat="52.081202" lon="05.934922"><ele>160.4</ele><time>2024-02-22T11:10:26Z</time><name>PT2093</name></trkpt>
<trkpt lat="52.081214" lon="05.934928"><ele>160.3</ele><time>2024-02-22T11:10:27Z</time><name>PT2094</name></trkpt>
<trkpt lat="52.081224" lon="05.934934"><ele>160.2</ele><time>2024-02-22T11:10:28Z</time><name>PT2095</name></trkpt>
<trkpt lat="52.081235" lon="05.934940"><ele>160.2</ele><time>2024-02-22T11:10:29Z</time><name>PT2096</name></trkpt>
<trkpt lat="52.081246" lon="05.934944"><ele>160.3</ele><time>2024-02-22T11:10:30Z</time><name>PT2097</name></trkpt>
<trkpt lat="52.081257" lon="05.934948"><ele>160.3</ele><time>2024-02-22T11:10:31Z</time><name>PT2098</name></trkpt>
<trkpt lat="52.081267" lon="05.934951"><ele>160.2</ele><time>2024-02-22T11:10:32Z</time><name>PT2099</name></trkpt>
<trkpt lat="52.081277" lon="05.934955"><ele>160.3</ele><time>2024-02-22T11:10:33Z</time><name>PT2100</name></trkpt>
<trkpt lat="52.081286" lon="05.934962"><ele>160.1</ele><time>2024-02-22T11:10:34Z</time><name>PT2101</name></trkpt>
<trkpt lat="52.081296" lon="05.934967"><ele>160.1</ele><time>2024-02-22T11:10:35Z</time><name>PT2102</name></trkpt>
<trkpt lat="52.081307" lon="05.934972"><ele>160.1</ele><time>2024-02-22T11:10:36Z</time><name>PT2103</name></trkpt>
<trkpt lat="52.081317" lon="05.934977"><ele>160.1</ele><time>2024-02-22T11:10:37Z</time><name>PT2104</name></trkpt>
<trkpt lat="52.081327" lon="05.934980"><ele>160</ele><time>2024-02-22T11:10:38Z</time><name>PT2105</name></trkpt>
<trkpt lat="52.081336" lon="05.934984"><ele>160.2</ele><time>2024-02-22T11:10:39Z</time><name>PT2106</name></trkpt>
<trkpt lat="52.081346" lon="05.934987"><ele>160.1</ele><time>2024-02-22T11:10:41Z</time><name>PT2107</name></trkpt>
<trkpt lat="52.081358" lon="05.934991"><ele>160.1</ele><time>2024-02-22T11:10:41Z</time><name>PT2108</name></trkpt>
<trkpt lat="52.081369" lon="05.934994"><ele>160.1</ele><time>2024-02-22T11:10:42Z</time><name>PT2109</name></trkpt>
<trkpt lat="52.081378" lon="05.934995"><ele>159.9</ele><time>2024-02-22T11:10:43Z</time><name>PT2110</name></trkpt>
<trkpt lat="52.081387" lon="05.934996"><ele>159.8</ele><time>2024-02-22T11:10:44Z</time><name>PT2111</name></trkpt>
<trkpt lat="52.081392" lon="05.934997"><ele>159.7</ele><time>2024-02-22T11:10:45Z</time><name>PT2112</name></trkpt>
<trkpt lat="52.081393" lon="05.934998"><ele>159.6</ele><time>2024-02-22T11:10:46Z</time><name>PT2113</name></trkpt>
<trkpt lat="52.081393" lon="05.934998"><ele>159.7</ele><time>2024-02-22T11:10:47Z</time><name>PT2114</name></trkpt>
<trkpt lat="52.081393" lon="05.934999"><ele>159.6</ele><time>2024-02-22T11:10:48Z</time><name>PT2115</name></trkpt>
<trkpt lat="52.081395" lon="05.935003"><ele>159.7</ele><time>2024-02-22T11:10:54Z</time><name>PT2116</name></trkpt>
<trkpt lat="52.081402" lon="05.935006"><ele>159.7</ele><time>2024-02-22T11:10:55Z</time><name>PT2117</name></trkpt>
<trkpt lat="52.081410" lon="05.935011"><ele>159.7</ele><time>2024-02-22T11:10:56Z</time><name>PT2118</name></trkpt>
<trkpt lat="52.081419" lon="05.935013"><ele>159.7</ele><time>2024-02-22T11:10:57Z</time><name>PT2119</name></trkpt>
<trkpt lat="52.081428" lon="05.935014"><ele>159.6</ele><time>2024-02-22T11:10:58Z</time><name>PT2120</name></trkpt>
<trkpt lat="52.081438" lon="05.935016"><ele>159.6</ele><time>2024-02-22T11:10:59Z</time><name>PT2121</name></trkpt>
<trkpt lat="52.081447" lon="05.935020"><ele>159.5</ele><time>2024-02-22T11:11:00Z</time><name>PT2122</name></trkpt>
<trkpt lat="52.081457" lon="05.935025"><ele>159.5</ele><time>2024-02-22T11:11:01Z</time><name>PT2123</name></trkpt>
<trkpt lat="52.081467" lon="05.935032"><ele>159.4</ele><time>2024-02-22T11:11:02Z</time><name>PT2124</name></trkpt>
<trkpt lat="52.081477" lon="05.935039"><ele>159.3</ele><time>2024-02-22T11:11:03Z</time><name>PT2125</name></trkpt>
<trkpt lat="52.081488" lon="05.935041"><ele>159.3</ele><time>2024-02-22T11:11:04Z</time><name>PT2126</name></trkpt>
<trkpt lat="52.081499" lon="05.935043"><ele>159.3</ele><time>2024-02-22T11:11:05Z</time><name>PT2127</name></trkpt>
<trkpt lat="52.081509" lon="05.935048"><ele>159.3</ele><time>2024-02-22T11:11:06Z</time><name>PT2128</name></trkpt>
<trkpt lat="52.081520" lon="05.935053"><ele>159.3</ele><time>2024-02-22T11:11:07Z</time><name>PT2129</name></trkpt>
<trkpt lat="52.081529" lon="05.935058"><ele>159.1</ele><time>2024-02-22T11:11:08Z</time><name>PT2130</name></trkpt>
<trkpt lat="52.081539" lon="05.935059"><ele>159.1</ele><time>2024-02-22T11:11:09Z</time><name>PT2131</name></trkpt>
<trkpt lat="52.081550" lon="05.935058"><ele>159.2</ele><time>2024-02-22T11:11:10Z</time><name>PT2132</name></trkpt>
<trkpt lat="52.081560" lon="05.935060"><ele>159.1</ele><time>2024-02-22T11:11:11Z</time><name>PT2133</name></trkpt>
<trkpt lat="52.081570" lon="05.935065"><ele>159</ele><time>2024-02-22T11:11:12Z</time><name>PT2134</name></trkpt>
<trkpt lat="52.081580" lon="05.935072"><ele>159.1</ele><time>2024-02-22T11:11:13Z</time><name>PT2135</name></trkpt>
<trkpt lat="52.081591" lon="05.935078"><ele>158.8</ele><time>2024-02-22T11:11:14Z</time><name>PT2136</name></trkpt>
<trkpt lat="52.081604" lon="05.935082"><ele>158.6</ele><time>2024-02-22T11:11:15Z</time><name>PT2137</name></trkpt>
<trkpt lat="52.081616" lon="05.935085"><ele>158.6</ele><time>2024-02-22T11:11:16Z</time><name>PT2138</name></trkpt>
<trkpt lat="52.081627" lon="05.935085"><ele>158.6</ele><time>2024-02-22T11:11:17Z</time><name>PT2139</name></trkpt>
<trkpt lat="52.081639" lon="05.935087"><ele>158.6</ele><time>2024-02-22T11:11:18Z</time><name>PT2140</name></trkpt>
<trkpt lat="52.081650" lon="05.935089"><ele>158.6</ele><time>2024-02-22T11:11:19Z</time><name>PT2141</name></trkpt>
<trkpt lat="52.081660" lon="05.935092"><ele>158.6</ele><time>2024-02-22T11:11:20Z</time><name>PT2142</name></trkpt>
<trkpt lat="52.081671" lon="05.935095"><ele>158.6</ele><time>2024-02-22T11:11:21Z</time><name>PT2143</name></trkpt>
<trkpt lat="52.081682" lon="05.935101"><ele>158.7</ele><time>2024-02-22T11:11:22Z</time><name>PT2144</name></trkpt>
<trkpt lat="52.081692" lon="05.935105"><ele>158.7</ele><time>2024-02-22T11:11:23Z</time><name>PT2145</name></trkpt>
<trkpt lat="52.081702" lon="05.935108"><ele>158.6</ele><time>2024-02-22T11:11:24Z</time><name>PT2146</name></trkpt>
<trkpt lat="52.081713" lon="05.935111"><ele>158.6</ele><time>2024-02-22T11:11:25Z</time><name>PT2147</name></trkpt>
<trkpt lat="52.081723" lon="05.935114"><ele>158.6</ele><time>2024-02-22T11:11:26Z</time><name>PT2148</name></trkpt>
<trkpt lat="52.081733" lon="05.935117"><ele>158.5</ele><time>2024-02-22T11:11:27Z</time><name>PT2149</name></trkpt>
<trkpt lat="52.081745" lon="05.935119"><ele>158.6</ele><time>2024-02-22T11:11:28Z</time><name>PT2150</name></trkpt>
<trkpt lat="52.081756" lon="05.935122"><ele>158.6</ele><time>2024-02-22T11:11:29Z</time><name>PT2151</name></trkpt>
<trkpt lat="52.081766" lon="05.935125"><ele>158.6</ele><time>2024-02-22T11:11:30Z</time><name>PT2152</name></trkpt>
<trkpt lat="52.081777" lon="05.935128"><ele>158.7</ele><time>2024-02-22T11:11:31Z</time><name>PT2153</name></trkpt>
<trkpt lat="52.081788" lon="05.935129"><ele>158.6</ele><time>2024-02-22T11:11:32Z</time><name>PT2154</name></trkpt>
<trkpt lat="52.081799" lon="05.935130"><ele>158.7</ele><time>2024-02-22T11:11:33Z</time><name>PT2155</name></trkpt>
<trkpt lat="52.081809" lon="05.935130"><ele>158.7</ele><time>2024-02-22T11:11:34Z</time><name>PT2156</name></trkpt>
<trkpt lat="52.081818" lon="05.935132"><ele>158.7</ele><time>2024-02-22T11:11:35Z</time><name>PT2157</name></trkpt>
<trkpt lat="52.081827" lon="05.935137"><ele>158.6</ele><time>2024-02-22T11:11:36Z</time><name>PT2158</name></trkpt>
<trkpt lat="52.081837" lon="05.935142"><ele>158.6</ele><time>2024-02-22T11:11:37Z</time><name>PT2159</name></trkpt>
<trkpt lat="52.081847" lon="05.935145"><ele>158.6</ele><time>2024-02-22T11:11:38Z</time><name>PT2160</name></trkpt>
<trkpt lat="52.081857" lon="05.935145"><ele>158.5</ele><time>2024-02-22T11:11:39Z</time><name>PT2161</name></trkpt>
<trkpt lat="52.081868" lon="05.935146"><ele>158.5</ele><time>2024-02-22T11:11:40Z</time><name>PT2162</name></trkpt>
<trkpt lat="52.081880" lon="05.935149"><ele>158.4</ele><time>2024-02-22T11:11:41Z</time><name>PT2163</name></trkpt>
<trkpt lat="52.081891" lon="05.935152"><ele>158.5</ele><time>2024-02-22T11:11:42Z</time><name>PT2164</name></trkpt>
<trkpt lat="52.081902" lon="05.935155"><ele>158.5</ele><time>2024-02-22T11:11:44Z</time><name>PT2165</name></trkpt>
<trkpt lat="52.081912" lon="05.935160"><ele>158.4</ele><time>2024-02-22T11:11:44Z</time><name>PT2166</name></trkpt>
<trkpt lat="52.081924" lon="05.935166"><ele>158.1</ele><time>2024-02-22T11:11:45Z</time><name>PT2167</name></trkpt>
<trkpt lat="52.081936" lon="05.935169"><ele>158.1</ele><time>2024-02-22T11:11:46Z</time><name>PT2168</name></trkpt>
<trkpt lat="52.081947" lon="05.935174"><ele>158.2</ele><time>2024-02-22T11:11:47Z</time><name>PT2169</name></trkpt>
<trkpt lat="52.081958" lon="05.935177"><ele>158.2</ele><time>2024-02-22T11:11:48Z</time><name>PT2170</name></trkpt>
<trkpt lat="52.081969" lon="05.935179"><ele>158.3</ele><time>2024-02-22T11:11:50Z</time><name>PT2171</name></trkpt>
<trkpt lat="52.081981" lon="05.935182"><ele>158.6</ele><time>2024-02-22T11:11:50Z</time><name>PT2172</name></trkpt>
<trkpt lat="52.081992" lon="05.935186"><ele>158.6</ele><time>2024-02-22T11:11:51Z</time><name>PT2173</name></trkpt>
<trkpt lat="52.082003" lon="05.935190"><ele>158.5</ele><time>2024-02-22T11:11:53Z</time><name>PT2174</name></trkpt>
<trkpt lat="52.082012" lon="05.935197"><ele>158.4</ele><time>2024-02-22T11:11:53Z</time><name>PT2175</name></trkpt>
<trkpt lat="52.082023" lon="05.935203"><ele>158.6</ele><time>2024-02-22T11:11:54Z</time><name>PT2176</name></trkpt>
<trkpt lat="52.082035" lon="05.935208"><ele>158.5</ele><time>2024-02-22T11:11:55Z</time><name>PT2177</name></trkpt>
<trkpt lat="52.082048" lon="05.935214"><ele>158.5</ele><time>2024-02-22T11:11:56Z</time><name>PT2178</name></trkpt>
<trkpt lat="52.082059" lon="05.935219"><ele>158.5</ele><time>2024-02-22T11:11:57Z</time><name>PT2179</name></trkpt>
<trkpt lat="52.082071" lon="05.935224"><ele>158.5</ele><time>2024-02-22T11:11:58Z</time><name>PT2180</name></trkpt>
<trkpt lat="52.082083" lon="05.935227"><ele>158.4</ele><time>2024-02-22T11:11:59Z</time><name>PT2181</name></trkpt>
<trkpt lat="52.082093" lon="05.935230"><ele>158.5</ele><time>2024-02-22T11:12:00Z</time><name>PT2182</name></trkpt>
<trkpt lat="52.082105" lon="05.935234"><ele>158.4</ele><time>2024-02-22T11:12:02Z</time><name>PT2183</name></trkpt>
<trkpt lat="52.082117" lon="05.935236"><ele>158.4</ele><time>2024-02-22T11:12:02Z</time><name>PT2184</name></trkpt>
<trkpt lat="52.082128" lon="05.935239"><ele>158.3</ele><time>2024-02-22T11:12:03Z</time><name>PT2185</name></trkpt>
<trkpt lat="52.082139" lon="05.935244"><ele>158.1</ele><time>2024-02-22T11:12:04Z</time><name>PT2186</name></trkpt>
<trkpt lat="52.082151" lon="05.935248"><ele>158.2</ele><time>2024-02-22T11:12:05Z</time><name>PT2187</name></trkpt>
<trkpt lat="52.082163" lon="05.935254"><ele>158.4</ele><time>2024-02-22T11:12:06Z</time><name>PT2188</name></trkpt>
<trkpt lat="52.082173" lon="05.935259"><ele>158.5</ele><time>2024-02-22T11:12:07Z</time><name>PT2189</name></trkpt>
<trkpt lat="52.082184" lon="05.935264"><ele>158.6</ele><time>2024-02-22T11:12:08Z</time><name>PT2190</name></trkpt>
<trkpt lat="52.082196" lon="05.935267"><ele>158.6</ele><time>2024-02-22T11:12:09Z</time><name>PT2191</name></trkpt>
<trkpt lat="52.082207" lon="05.935268"><ele>158.6</ele><time>2024-02-22T11:12:10Z</time><name>PT2192</name></trkpt>
<trkpt lat="52.082218" lon="05.935270"><ele>158.6</ele><time>2024-02-22T11:12:11Z</time><name>PT2193</name></trkpt>
<trkpt lat="52.082229" lon="05.935273"><ele>158.6</ele><time>2024-02-22T11:12:12Z</time><name>PT2194</name></trkpt>
<trkpt lat="52.082241" lon="05.935276"><ele>158.5</ele><time>2024-02-22T11:12:14Z</time><name>PT2195</name></trkpt>
<trkpt lat="52.082251" lon="05.935279"><ele>158.5</ele><time>2024-02-22T11:12:14Z</time><name>PT2196</name></trkpt>
<trkpt lat="52.082262" lon="05.935284"><ele>158.3</ele><time>2024-02-22T11:12:15Z</time><name>PT2197</name></trkpt>
<trkpt lat="52.082274" lon="05.935287"><ele>158.2</ele><time>2024-02-22T11:12:17Z</time><name>PT2198</name></trkpt>
<trkpt lat="52.082285" lon="05.935292"><ele>158.1</ele><time>2024-02-22T11:12:17Z</time><name>PT2199</name></trkpt>
<trkpt lat="52.082295" lon="05.935294"><ele>158.3</ele><time>2024-02-22T11:12:18Z</time><name>PT2200</name></trkpt>
<trkpt lat="52.082306" lon="05.935294"><ele>158.3</ele><time>2024-02-22T11:12:19Z</time><name>PT2201</name></trkpt>
<trkpt lat="52.082317" lon="05.935295"><ele>158.2</ele><time>2024-02-22T11:12:20Z</time><name>PT2202</name></trkpt>
<trkpt lat="52.082329" lon="05.935297"><ele>158.3</ele><time>2024-02-22T11:12:21Z</time><name>PT2203</name></trkpt>
<trkpt lat="52.082341" lon="05.935299"><ele>158.1</ele><time>2024-02-22T11:12:22Z</time><name>PT2204</name></trkpt>
<trkpt lat="52.082352" lon="05.935302"><ele>158</ele><time>2024-02-22T11:12:23Z</time><name>PT2205</name></trkpt>
<trkpt lat="52.082362" lon="05.935305"><ele>158</ele><time>2024-02-22T11:12:24Z</time><name>PT2206</name></trkpt>
<trkpt lat="52.082373" lon="05.935309"><ele>157.7</ele><time>2024-02-22T11:12:25Z</time><name>PT2207</name></trkpt>
<trkpt lat="52.082382" lon="05.935313"><ele>157.5</ele><time>2024-02-22T11:12:26Z</time><name>PT2208</name></trkpt>
<trkpt lat="52.082392" lon="05.935318"><ele>157.5</ele><time>2024-02-22T11:12:27Z</time><name>PT2209</name></trkpt>
<trkpt lat="52.082402" lon="05.935323"><ele>157.5</ele><time>2024-02-22T11:12:28Z</time><name>PT2210</name></trkpt>
<trkpt lat="52.082412" lon="05.935326"><ele>157.4</ele><time>2024-02-22T11:12:29Z</time><name>PT2211</name></trkpt>
<trkpt lat="52.082422" lon="05.935329"><ele>157.6</ele><time>2024-02-22T11:12:30Z</time><name>PT2212</name></trkpt>
<trkpt lat="52.082433" lon="05.935331"><ele>157.7</ele><time>2024-02-22T11:12:32Z</time><name>PT2213</name></trkpt>
<trkpt lat="52.082444" lon="05.935333"><ele>157.7</ele><time>2024-02-22T11:12:32Z</time><name>PT2214</name></trkpt>
<trkpt lat="52.082454" lon="05.935335"><ele>157.8</ele><time>2024-02-22T11:12:33Z</time><name>PT2215</name></trkpt>
<trkpt lat="52.082465" lon="05.935340"><ele>157.9</ele><time>2024-02-22T11:12:34Z</time><name>PT2216</name></trkpt>
<trkpt lat="52.082475" lon="05.935345"><ele>158</ele><time>2024-02-22T11:12:35Z</time><name>PT2217</name></trkpt>
<trkpt lat="52.082488" lon="05.935350"><ele>158</ele><time>2024-02-22T11:12:36Z</time><name>PT2218</name></trkpt>
<trkpt lat="52.082500" lon="05.935356"><ele>157.9</ele><time>2024-02-22T11:12:37Z</time><name>PT2219</name></trkpt>
<trkpt lat="52.082512" lon="05.935363"><ele>157.8</ele><time>2024-02-22T11:12:38Z</time><name>PT2220</name></trkpt>
<trkpt lat="52.082522" lon="05.935369"><ele>157.6</ele><time>2024-02-22T11:12:39Z</time><name>PT2221</name></trkpt>
<trkpt lat="52.082533" lon="05.935374"><ele>157.6</ele><time>2024-02-22T11:12:40Z</time><name>PT2222</name></trkpt>
<trkpt lat="52.082545" lon="05.935378"><ele>157.5</ele><time>2024-02-22T11:12:41Z</time><name>PT2223</name></trkpt>
<trkpt lat="52.082557" lon="05.935381"><ele>157.5</ele><time>2024-02-22T11:12:42Z</time><name>PT2224</name></trkpt>
<trkpt lat="52.082568" lon="05.935385"><ele>157.4</ele><time>2024-02-22T11:12:43Z</time><name>PT2225</name></trkpt>
<trkpt lat="52.082579" lon="05.935389"><ele>157.4</ele><time>2024-02-22T11:12:44Z</time><name>PT2226</name></trkpt>
<trkpt lat="52.082588" lon="05.935392"><ele>157.4</ele><time>2024-02-22T11:12:45Z</time><name>PT2227</name></trkpt>
<trkpt lat="52.082595" lon="05.935400"><ele>157.4</ele><time>2024-02-22T11:12:46Z</time><name>PT2228</name></trkpt>
<trkpt lat="52.082605" lon="05.935406"><ele>157.4</ele><time>2024-02-22T11:12:47Z</time><name>PT2229</name></trkpt>
<trkpt lat="52.082615" lon="05.935412"><ele>157.5</ele><time>2024-02-22T11:12:48Z</time><name>PT2230</name></trkpt>
<trkpt lat="52.082624" lon="05.935416"><ele>157.6</ele><time>2024-02-22T11:12:49Z</time><name>PT2231</name></trkpt>
<trkpt lat="52.082635" lon="05.935419"><ele>157.5</ele><time>2024-02-22T11:12:50Z</time><name>PT2232</name></trkpt>
<trkpt lat="52.082646" lon="05.935422"><ele>157.6</ele><time>2024-02-22T11:12:51Z</time><name>PT2233</name></trkpt>
<trkpt lat="52.082658" lon="05.935423"><ele>157.5</ele><time>2024-02-22T11:12:52Z</time><name>PT2234</name></trkpt>
<trkpt lat="52.082669" lon="05.935426"><ele>157.6</ele><time>2024-02-22T11:12:53Z</time><name>PT2235</name></trkpt>
<trkpt lat="52.082680" lon="05.935431"><ele>157.5</ele><time>2024-02-22T11:12:54Z</time><name>PT2236</name></trkpt>
<trkpt lat="52.082691" lon="05.935431"><ele>157.5</ele><time>2024-02-22T11:12:55Z</time><name>PT2237</name></trkpt>
<trkpt lat="52.082706" lon="05.935433"><ele>157.4</ele><time>2024-02-22T11:12:56Z</time><name>PT2238</name></trkpt>
<trkpt lat="52.082717" lon="05.935434"><ele>157.2</ele><time>2024-02-22T11:12:57Z</time><name>PT2239</name></trkpt>
<trkpt lat="52.082725" lon="05.935436"><ele>157.1</ele><time>2024-02-22T11:12:58Z</time><name>PT2240</name></trkpt>
<trkpt lat="52.082732" lon="05.935441"><ele>157</ele><time>2024-02-22T11:12:59Z</time><name>PT2241</name></trkpt>
<trkpt lat="52.082741" lon="05.935448"><ele>157.2</ele><time>2024-02-22T11:13:00Z</time><name>PT2242</name></trkpt>
<trkpt lat="52.082752" lon="05.935454"><ele>157.1</ele><time>2024-02-22T11:13:01Z</time><name>PT2243</name></trkpt>
<trkpt lat="52.082760" lon="05.935457"><ele>157.1</ele><time>2024-02-22T11:13:02Z</time><name>PT2244</name></trkpt>
<trkpt lat="52.082768" lon="05.935461"><ele>157.1</ele><time>2024-02-22T11:13:03Z</time><name>PT2245</name></trkpt>
<trkpt lat="52.082779" lon="05.935464"><ele>157</ele><time>2024-02-22T11:13:04Z</time><name>PT2246</name></trkpt>
<trkpt lat="52.082794" lon="05.935466"><ele>156.9</ele><time>2024-02-22T11:13:05Z</time><name>PT2247</name></trkpt>
<trkpt lat="52.082808" lon="05.935470"><ele>156.8</ele><time>2024-02-22T11:13:06Z</time><name>PT2248</name></trkpt>
<trkpt lat="52.082820" lon="05.935476"><ele>156.9</ele><time>2024-02-22T11:13:07Z</time><name>PT2249</name></trkpt>
<trkpt lat="52.082831" lon="05.935482"><ele>156.9</ele><time>2024-02-22T11:13:08Z</time><name>PT2250</name></trkpt>
<trkpt lat="52.082838" lon="05.935488"><ele>156.8</ele><time>2024-02-22T11:13:09Z</time><name>PT2251</name></trkpt>
<trkpt lat="52.082845" lon="05.935491"><ele>156.8</ele><time>2024-02-22T11:13:10Z</time><name>PT2252</name></trkpt>
<trkpt lat="52.082852" lon="05.935494"><ele>156.7</ele><time>2024-02-22T11:13:11Z</time><name>PT2253</name></trkpt>
<trkpt lat="52.082864" lon="05.935498"><ele>156.9</ele><time>2024-02-22T11:13:12Z</time><name>PT2254</name></trkpt>
<trkpt lat="52.082878" lon="05.935503"><ele>156.9</ele><time>2024-02-22T11:13:13Z</time><name>PT2255</name></trkpt>
<trkpt lat="52.082892" lon="05.935508"><ele>156.9</ele><time>2024-02-22T11:13:14Z</time><name>PT2256</name></trkpt>
<trkpt lat="52.082906" lon="05.935511"><ele>156.9</ele><time>2024-02-22T11:13:15Z</time><name>PT2257</name></trkpt>
<trkpt lat="52.082916" lon="05.935513"><ele>156.9</ele><time>2024-02-22T11:13:16Z</time><name>PT2258</name></trkpt>
<trkpt lat="52.082924" lon="05.935513"><ele>156.7</ele><time>2024-02-22T11:13:17Z</time><name>PT2259</name></trkpt>
<trkpt lat="52.082930" lon="05.935514"><ele>156.9</ele><time>2024-02-22T11:13:18Z</time><name>PT2260</name></trkpt>
<trkpt lat="52.082940" lon="05.935514"><ele>157</ele><time>2024-02-22T11:13:19Z</time><name>PT2261</name></trkpt>
<trkpt lat="52.082955" lon="05.935515"><ele>156.9</ele><time>2024-02-22T11:13:20Z</time><name>PT2262</name></trkpt>
<trkpt lat="52.082976" lon="05.935519"><ele>157</ele><time>2024-02-22T11:13:21Z</time><name>PT2263</name></trkpt>
<trkpt lat="52.082993" lon="05.935525"><ele>157</ele><time>2024-02-22T11:13:22Z</time><name>PT2264</name></trkpt>
<trkpt lat="52.083005" lon="05.935534"><ele>156.9</ele><time>2024-02-22T11:13:23Z</time><name>PT2265</name></trkpt>
<trkpt lat="52.083014" lon="05.935540"><ele>157</ele><time>2024-02-22T11:13:24Z</time><name>PT2266</name></trkpt>
<trkpt lat="52.083021" lon="05.935544"><ele>157</ele><time>2024-02-22T11:13:25Z</time><name>PT2267</name></trkpt>
<trkpt lat="52.083028" lon="05.935546"><ele>157</ele><time>2024-02-22T11:13:26Z</time><name>PT2268</name></trkpt>
<trkpt lat="52.083037" lon="05.935549"><ele>157.2</ele><time>2024-02-22T11:13:27Z</time><name>PT2269</name></trkpt>
<trkpt lat="52.083050" lon="05.935551"><ele>157</ele><time>2024-02-22T11:13:28Z</time><name>PT2270</name></trkpt>
<trkpt lat="52.083064" lon="05.935555"><ele>156.9</ele><time>2024-02-22T11:13:29Z</time><name>PT2271</name></trkpt>
<trkpt lat="52.083078" lon="05.935560"><ele>156.9</ele><time>2024-02-22T11:13:30Z</time><name>PT2272</name></trkpt>
<trkpt lat="52.083089" lon="05.935566"><ele>156.9</ele><time>2024-02-22T11:13:31Z</time><name>PT2273</name></trkpt>
<trkpt lat="52.083098" lon="05.935571"><ele>156.9</ele><time>2024-02-22T11:13:32Z</time><name>PT2274</name></trkpt>
<trkpt lat="52.083107" lon="05.935575"><ele>157</ele><time>2024-02-22T11:13:33Z</time><name>PT2275</name></trkpt>
<trkpt lat="52.083114" lon="05.935577"><ele>157</ele><time>2024-02-22T11:13:34Z</time><name>PT2276</name></trkpt>
<trkpt lat="52.083120" lon="05.935580"><ele>157.1</ele><time>2024-02-22T11:13:35Z</time><name>PT2277</name></trkpt>
<trkpt lat="52.083129" lon="05.935583"><ele>157</ele><time>2024-02-22T11:13:36Z</time><name>PT2278</name></trkpt>
<trkpt lat="52.083144" lon="05.935586"><ele>156.9</ele><time>2024-02-22T11:13:37Z</time><name>PT2279</name></trkpt>
<trkpt lat="52.083161" lon="05.935591"><ele>156.9</ele><time>2024-02-22T11:13:38Z</time><name>PT2280</name></trkpt>
<trkpt lat="52.083175" lon="05.935595"><ele>157</ele><time>2024-02-22T11:13:39Z</time><name>PT2281</name></trkpt>
<trkpt lat="52.083189" lon="05.935601"><ele>157.2</ele><time>2024-02-22T11:13:40Z</time><name>PT2282</name></trkpt>
<trkpt lat="52.083201" lon="05.935606"><ele>157</ele><time>2024-02-22T11:13:41Z</time><name>PT2283</name></trkpt>
<trkpt lat="52.083212" lon="05.935610"><ele>157.2</ele><time>2024-02-22T11:13:42Z</time><name>PT2284</name></trkpt>
<trkpt lat="52.083221" lon="05.935612"><ele>157.2</ele><time>2024-02-22T11:13:43Z</time><name>PT2285</name></trkpt>
<trkpt lat="52.083226" lon="05.935615"><ele>157.4</ele><time>2024-02-22T11:13:44Z</time><name>PT2286</name></trkpt>
<trkpt lat="52.083230" lon="05.935619"><ele>157.5</ele><time>2024-02-22T11:13:45Z</time><name>PT2287</name></trkpt>
<trkpt lat="52.083237" lon="05.935621"><ele>157.7</ele><time>2024-02-22T11:13:46Z</time><name>PT2288</name></trkpt>
<trkpt lat="52.083244" lon="05.935620"><ele>157.7</ele><time>2024-02-22T11:13:47Z</time><name>PT2289</name></trkpt>
<trkpt lat="52.083246" lon="05.935618"><ele>157.8</ele><time>2024-02-22T11:13:48Z</time><name>PT2290</name></trkpt>
<trkpt lat="52.083246" lon="05.935616"><ele>158</ele><time>2024-02-22T11:13:49Z</time><name>PT2291</name></trkpt>
<trkpt lat="52.083245" lon="05.935615"><ele>158</ele><time>2024-02-22T11:13:50Z</time><name>PT2292</name></trkpt>
<trkpt lat="52.083244" lon="05.935615"><ele>157.8</ele><time>2024-02-22T11:13:52Z</time><name>PT2293</name></trkpt>
<trkpt lat="52.083243" lon="05.935615"><ele>157.6</ele><time>2024-02-22T11:13:53Z</time><name>PT2294</name></trkpt>
<trkpt lat="52.083244" lon="05.935616"><ele>157.3</ele><time>2024-02-22T11:13:54Z</time><name>PT2295</name></trkpt>
<trkpt lat="52.083243" lon="05.935617"><ele>157.3</ele><time>2024-02-22T11:13:55Z</time><name>PT2296</name></trkpt>
<trkpt lat="52.083245" lon="05.935617"><ele>157.6</ele><time>2024-02-22T11:14:00Z</time><name>PT2297</name></trkpt>
<trkpt lat="52.083257" lon="05.935621"><ele>157.6</ele><time>2024-02-22T11:14:01Z</time><name>PT2298</name></trkpt>
<trkpt lat="52.083271" lon="05.935626"><ele>157.9</ele><time>2024-02-22T11:14:02Z</time><name>PT2299</name></trkpt>
<trkpt lat="52.083282" lon="05.935636"><ele>158</ele><time>2024-02-22T11:14:03Z</time><name>PT2300</name></trkpt>
<trkpt lat="52.083291" lon="05.935645"><ele>158.1</ele><time>2024-02-22T11:14:04Z</time><name>PT2301</name></trkpt>
<trkpt lat="52.083296" lon="05.935650"><ele>158.1</ele><time>2024-02-22T11:14:05Z</time><name>PT2302</name></trkpt>
<trkpt lat="52.083300" lon="05.935649"><ele>158.1</ele><time>2024-02-22T11:14:06Z</time><name>PT2303</name></trkpt>
<trkpt lat="52.083304" lon="05.935644"><ele>158</ele><time>2024-02-22T11:14:07Z</time><name>PT2304</name></trkpt>
<trkpt lat="52.083307" lon="05.935644"><ele>157.9</ele><time>2024-02-22T11:14:08Z</time><name>PT2305</name></trkpt>
<trkpt lat="52.083310" lon="05.935645"><ele>157.7</ele><time>2024-02-22T11:14:09Z</time><name>PT2306</name></trkpt>
<trkpt lat="52.083317" lon="05.935646"><ele>157.6</ele><time>2024-02-22T11:14:10Z</time><name>PT2307</name></trkpt>
<trkpt lat="52.083326" lon="05.935649"><ele>157.5</ele><time>2024-02-22T11:14:11Z</time><name>PT2308</name></trkpt>
<trkpt lat="52.083340" lon="05.935650"><ele>157.5</ele><time>2024-02-22T11:14:12Z</time><name>PT2309</name></trkpt>
<trkpt lat="52.083351" lon="05.935653"><ele>157.4</ele><time>2024-02-22T11:14:13Z</time><name>PT2310</name></trkpt>
<trkpt lat="52.083357" lon="05.935655"><ele>157.3</ele><time>2024-02-22T11:14:14Z</time><name>PT2311</name></trkpt>
<trkpt lat="52.083362" lon="05.935660"><ele>157.2</ele><time>2024-02-22T11:14:15Z</time><name>PT2312</name></trkpt>
<trkpt lat="52.083367" lon="05.935665"><ele>157</ele><time>2024-02-22T11:14:16Z</time><name>PT2313</name></trkpt>
<trkpt lat="52.083380" lon="05.935665"><ele>156.9</ele><time>2024-02-22T11:14:17Z</time><name>PT2314</name></trkpt>
<trkpt lat="52.083394" lon="05.935670"><ele>156.9</ele><time>2024-02-22T11:14:18Z</time><name>PT2315</name></trkpt>
<trkpt lat="52.083406" lon="05.935672"><ele>156.8</ele><time>2024-02-22T11:14:19Z</time><name>PT2316</name></trkpt>
<trkpt lat="52.083415" lon="05.935675"><ele>156.8</ele><time>2024-02-22T11:14:20Z</time><name>PT2317</name></trkpt>
<trkpt lat="52.083418" lon="05.935681"><ele>156.6</ele><time>2024-02-22T11:14:21Z</time><name>PT2318</name></trkpt>
<trkpt lat="52.083424" lon="05.935686"><ele>156.5</ele><time>2024-02-22T11:14:22Z</time><name>PT2319</name></trkpt>
<trkpt lat="52.083435" lon="05.935693"><ele>156.5</ele><time>2024-02-22T11:14:23Z</time><name>PT2320</name></trkpt>
<trkpt lat="52.083445" lon="05.935696"><ele>156.4</ele><time>2024-02-22T11:14:24Z</time><name>PT2321</name></trkpt>
<trkpt lat="52.083458" lon="05.935696"><ele>156.3</ele><time>2024-02-22T11:14:25Z</time><name>PT2322</name></trkpt>
<trkpt lat="52.083472" lon="05.935698"><ele>156.3</ele><time>2024-02-22T11:14:26Z</time><name>PT2323</name></trkpt>
<trkpt lat="52.083480" lon="05.935702"><ele>156.3</ele><time>2024-02-22T11:14:27Z</time><name>PT2324</name></trkpt>
<trkpt lat="52.083490" lon="05.935705"><ele>156.3</ele><time>2024-02-22T11:14:28Z</time><name>PT2325</name></trkpt>
<trkpt lat="52.083496" lon="05.935709"><ele>156.3</ele><time>2024-02-22T11:14:29Z</time><name>PT2326</name></trkpt>
<trkpt lat="52.083504" lon="05.935715"><ele>156.5</ele><time>2024-02-22T11:14:30Z</time><name>PT2327</name></trkpt>
<trkpt lat="52.083510" lon="05.935719"><ele>156.2</ele><time>2024-02-22T11:14:31Z</time><name>PT2328</name></trkpt>
<trkpt lat="52.083516" lon="05.935723"><ele>156.1</ele><time>2024-02-22T11:14:32Z</time><name>PT2329</name></trkpt>
<trkpt lat="52.083525" lon="05.935728"><ele>155.9</ele><time>2024-02-22T11:14:33Z</time><name>PT2330</name></trkpt>
<trkpt lat="52.083531" lon="05.935730"><ele>155.7</ele><time>2024-02-22T11:14:34Z</time><name>PT2331</name></trkpt>
<trkpt lat="52.083537" lon="05.935729"><ele>155.7</ele><time>2024-02-22T11:14:35Z</time><name>PT2332</name></trkpt>
<trkpt lat="52.083544" lon="05.935732"><ele>155.7</ele><time>2024-02-22T11:14:36Z</time><name>PT2333</name></trkpt>
<trkpt lat="52.083551" lon="05.935736"><ele>155.5</ele><time>2024-02-22T11:14:37Z</time><name>PT2334</name></trkpt>
<trkpt lat="52.083557" lon="05.935737"><ele>155.5</ele><time>2024-02-22T11:14:38Z</time><name>PT2335</name></trkpt>
<trkpt lat="52.083564" lon="05.935736"><ele>155.4</ele><time>2024-02-22T11:14:39Z</time><name>PT2336</name></trkpt>
<trkpt lat="52.083574" lon="05.935739"><ele>155.3</ele><time>2024-02-22T11:14:40Z</time><name>PT2337</name></trkpt>
<trkpt lat="52.083587" lon="05.935742"><ele>155.1</ele><time>2024-02-22T11:14:41Z</time><name>PT2338</name></trkpt>
<trkpt lat="52.083601" lon="05.935745"><ele>155.1</ele><time>2024-02-22T11:14:42Z</time><name>PT2339</name></trkpt>
<trkpt lat="52.083616" lon="05.935752"><ele>155</ele><time>2024-02-22T11:14:43Z</time><name>PT2340</name></trkpt>
<trkpt lat="52.083629" lon="05.935752"><ele>154.9</ele><time>2024-02-22T11:14:44Z</time><name>PT2341</name></trkpt>
<trkpt lat="52.083641" lon="05.935758"><ele>154.9</ele><time>2024-02-22T11:14:45Z</time><name>PT2342</name></trkpt>
<trkpt lat="52.083649" lon="05.935762"><ele>155</ele><time>2024-02-22T11:14:46Z</time><name>PT2343</name></trkpt>
<trkpt lat="52.083656" lon="05.935764"><ele>155</ele><time>2024-02-22T11:14:47Z</time><name>PT2344</name></trkpt>
<trkpt lat="52.083663" lon="05.935766"><ele>154.8</ele><time>2024-02-22T11:14:48Z</time><name>PT2345</name></trkpt>
<trkpt lat="52.083673" lon="05.935758"><ele>154.8</ele><time>2024-02-22T11:14:49Z</time><name>PT2346</name></trkpt>
<trkpt lat="52.083685" lon="05.935756"><ele>154.6</ele><time>2024-02-22T11:14:50Z</time><name>PT2347</name></trkpt>
<trkpt lat="52.083698" lon="05.935759"><ele>154.6</ele><time>2024-02-22T11:14:51Z</time><name>PT2348</name></trkpt>
<trkpt lat="52.083718" lon="05.935760"><ele>154.6</ele><time>2024-02-22T11:14:52Z</time><name>PT2349</name></trkpt>
<trkpt lat="52.083735" lon="05.935760"><ele>154.6</ele><time>2024-02-22T11:14:53Z</time><name>PT2350</name></trkpt>
<trkpt lat="52.083744" lon="05.935766"><ele>154.5</ele><time>2024-02-22T11:14:54Z</time><name>PT2351</name></trkpt>
<trkpt lat="52.083747" lon="05.935767"><ele>154.7</ele><time>2024-02-22T11:14:55Z</time><name>PT2352</name></trkpt>
<trkpt lat="52.083748" lon="05.935770"><ele>154.6</ele><time>2024-02-22T11:14:56Z</time><name>PT2353</name></trkpt>
<trkpt lat="52.083752" lon="05.935776"><ele>154.7</ele><time>2024-02-22T11:14:57Z</time><name>PT2354</name></trkpt>
<trkpt lat="52.083765" lon="05.935780"><ele>154.6</ele><time>2024-02-22T11:14:58Z</time><name>PT2355</name></trkpt>
<trkpt lat="52.083783" lon="05.935787"><ele>154.4</ele><time>2024-02-22T11:14:59Z</time><name>PT2356</name></trkpt>
<trkpt lat="52.083798" lon="05.935791"><ele>154.3</ele><time>2024-02-22T11:15:00Z</time><name>PT2357</name></trkpt>
<trkpt lat="52.083812" lon="05.935790"><ele>154.1</ele><time>2024-02-22T11:15:01Z</time><name>PT2358</name></trkpt>
<trkpt lat="52.083823" lon="05.935792"><ele>154.2</ele><time>2024-02-22T11:15:02Z</time><name>PT2359</name></trkpt>
<trkpt lat="52.083831" lon="05.935797"><ele>154.1</ele><time>2024-02-22T11:15:03Z</time><name>PT2360</name></trkpt>
<trkpt lat="52.083839" lon="05.935800"><ele>154.3</ele><time>2024-02-22T11:15:04Z</time><name>PT2361</name></trkpt>
<trkpt lat="52.083854" lon="05.935799"><ele>154.4</ele><time>2024-02-22T11:15:05Z</time><name>PT2362</name></trkpt>
<trkpt lat="52.083869" lon="05.935805"><ele>154.5</ele><time>2024-02-22T11:15:06Z</time><name>PT2363</name></trkpt>
<trkpt lat="52.083883" lon="05.935810"><ele>154.5</ele><time>2024-02-22T11:15:07Z</time><name>PT2364</name></trkpt>
<trkpt lat="52.083890" lon="05.935812"><ele>154.5</ele><time>2024-02-22T11:15:08Z</time><name>PT2365</name></trkpt>
<trkpt lat="52.083898" lon="05.935815"><ele>154.4</ele><time>2024-02-22T11:15:09Z</time><name>PT2366</name></trkpt>
<trkpt lat="52.083908" lon="05.935819"><ele>154.6</ele><time>2024-02-22T11:15:10Z</time><name>PT2367</name></trkpt>
<trkpt lat="52.083914" lon="05.935821"><ele>154.6</ele><time>2024-02-22T11:15:11Z</time><name>PT2368</name></trkpt>
<trkpt lat="52.083920" lon="05.935823"><ele>154.6</ele><time>2024-02-22T11:15:12Z</time><name>PT2369</name></trkpt>
<trkpt lat="52.083930" lon="05.935825"><ele>154.6</ele><time>2024-02-22T11:15:13Z</time><name>PT2370</name></trkpt>
<trkpt lat="52.083936" lon="05.935829"><ele>154.4</ele><time>2024-02-22T11:15:14Z</time><name>PT2371</name></trkpt>
<trkpt lat="52.083948" lon="05.935832"><ele>154.2</ele><time>2024-02-22T11:15:15Z</time><name>PT2372</name></trkpt>
<trkpt lat="52.083961" lon="05.935832"><ele>154.3</ele><time>2024-02-22T11:15:16Z</time><name>PT2373</name></trkpt>
<trkpt lat="52.083970" lon="05.935836"><ele>154.3</ele><time>2024-02-22T11:15:17Z</time><name>PT2374</name></trkpt>
<trkpt lat="52.083974" lon="05.935841"><ele>154.4</ele><time>2024-02-22T11:15:18Z</time><name>PT2375</name></trkpt>
<trkpt lat="52.083981" lon="05.935841"><ele>154.5</ele><time>2024-02-22T11:15:19Z</time><name>PT2376</name></trkpt>
<trkpt lat="52.083982" lon="05.935840"><ele>154.5</ele><time>2024-02-22T11:15:20Z</time><name>PT2377</name></trkpt>
<trkpt lat="52.083985" lon="05.935838"><ele>154.6</ele><time>2024-02-22T11:15:21Z</time><name>PT2378</name></trkpt>
<trkpt lat="52.083995" lon="05.935836"><ele>154.6</ele><time>2024-02-22T11:15:22Z</time><name>PT2379</name></trkpt>
<trkpt lat="52.084007" lon="05.935834"><ele>154.6</ele><time>2024-02-22T11:15:23Z</time><name>PT2380</name></trkpt>
<trkpt lat="52.084022" lon="05.935836"><ele>154.6</ele><time>2024-02-22T11:15:24Z</time><name>PT2381</name></trkpt>
<trkpt lat="52.084033" lon="05.935844"><ele>154.6</ele><time>2024-02-22T11:15:25Z</time><name>PT2382</name></trkpt>
<trkpt lat="52.084045" lon="05.935848"><ele>154.7</ele><time>2024-02-22T11:15:26Z</time><name>PT2383</name></trkpt>
<trkpt lat="52.084051" lon="05.935847"><ele>154.8</ele><time>2024-02-22T11:15:27Z</time><name>PT2384</name></trkpt>
<trkpt lat="52.084056" lon="05.935844"><ele>154.8</ele><time>2024-02-22T11:15:28Z</time><name>PT2385</name></trkpt>
<trkpt lat="52.084063" lon="05.935844"><ele>155</ele><time>2024-02-22T11:15:29Z</time><name>PT2386</name></trkpt>
<trkpt lat="52.084070" lon="05.935849"><ele>154.9</ele><time>2024-02-22T11:15:30Z</time><name>PT2387</name></trkpt>
<trkpt lat="52.084078" lon="05.935853"><ele>155.1</ele><time>2024-02-22T11:15:31Z</time><name>PT2388</name></trkpt>
<trkpt lat="52.084090" lon="05.935855"><ele>155.1</ele><time>2024-02-22T11:15:32Z</time><name>PT2389</name></trkpt>
<trkpt lat="52.084104" lon="05.935865"><ele>155.1</ele><time>2024-02-22T11:15:33Z</time><name>PT2390</name></trkpt>
<trkpt lat="52.084122" lon="05.935870"><ele>155.3</ele><time>2024-02-22T11:15:34Z</time><name>PT2391</name></trkpt>
<trkpt lat="52.084138" lon="05.935880"><ele>155.1</ele><time>2024-02-22T11:15:35Z</time><name>PT2392</name></trkpt>
<trkpt lat="52.084154" lon="05.935896"><ele>155.1</ele><time>2024-02-22T11:15:36Z</time><name>PT2393</name></trkpt>
<trkpt lat="52.084163" lon="05.935902"><ele>155.1</ele><time>2024-02-22T11:15:37Z</time><name>PT2394</name></trkpt>
<trkpt lat="52.084173" lon="05.935903"><ele>155.1</ele><time>2024-02-22T11:15:38Z</time><name>PT2395</name></trkpt>
<trkpt lat="52.084179" lon="05.935905"><ele>155.2</ele><time>2024-02-22T11:15:39Z</time><name>PT2396</name></trkpt>
<trkpt lat="52.084191" lon="05.935907"><ele>155.3</ele><time>2024-02-22T11:15:40Z</time><name>PT2397</name></trkpt>
<trkpt lat="52.084211" lon="05.935909"><ele>155.5</ele><time>2024-02-22T11:15:41Z</time><name>PT2398</name></trkpt>
<trkpt lat="52.084229" lon="05.935911"><ele>155.8</ele><time>2024-02-22T11:15:42Z</time><name>PT2399</name></trkpt>
<trkpt lat="52.084241" lon="05.935918"><ele>155.8</ele><time>2024-02-22T11:15:43Z</time><name>PT2400</name></trkpt>
<trkpt lat="52.084255" lon="05.935924"><ele>155.8</ele><time>2024-02-22T11:15:44Z</time><name>PT2401</name></trkpt>
<trkpt lat="52.084265" lon="05.935928"><ele>155.6</ele><time>2024-02-22T11:15:45Z</time><name>PT2402</name></trkpt>
<trkpt lat="52.084276" lon="05.935933"><ele>155.4</ele><time>2024-02-22T11:15:46Z</time><name>PT2403</name></trkpt>
<trkpt lat="52.084282" lon="05.935937"><ele>155.5</ele><time>2024-02-22T11:15:47Z</time><name>PT2404</name></trkpt>
<trkpt lat="52.084292" lon="05.935939"><ele>155.7</ele><time>2024-02-22T11:15:48Z</time><name>PT2405</name></trkpt>
<trkpt lat="52.084301" lon="05.935941"><ele>155.8</ele><time>2024-02-22T11:15:49Z</time><name>PT2406</name></trkpt>
<trkpt lat="52.084311" lon="05.935947"><ele>155.8</ele><time>2024-02-22T11:15:50Z</time><name>PT2407</name></trkpt>
<trkpt lat="52.084322" lon="05.935950"><ele>155.9</ele><time>2024-02-22T11:15:51Z</time><name>PT2408</name></trkpt>
<trkpt lat="52.084336" lon="05.935951"><ele>155.9</ele><time>2024-02-22T11:15:52Z</time><name>PT2409</name></trkpt>
<trkpt lat="52.084350" lon="05.935957"><ele>156</ele><time>2024-02-22T11:15:53Z</time><name>PT2410</name></trkpt>
<trkpt lat="52.084360" lon="05.935965"><ele>156.2</ele><time>2024-02-22T11:15:54Z</time><name>PT2411</name></trkpt>
<trkpt lat="52.084369" lon="05.935974"><ele>156.4</ele><time>2024-02-22T11:15:55Z</time><name>PT2412</name></trkpt>
<trkpt lat="52.084378" lon="05.935982"><ele>156.6</ele><time>2024-02-22T11:15:56Z</time><name>PT2413</name></trkpt>
<trkpt lat="52.084382" lon="05.935987"><ele>156.5</ele><time>2024-02-22T11:15:57Z</time><name>PT2414</name></trkpt>
<trkpt lat="52.084387" lon="05.935992"><ele>156.3</ele><time>2024-02-22T11:15:58Z</time><name>PT2415</name></trkpt>
<trkpt lat="52.084391" lon="05.936004"><ele>156.3</ele><time>2024-02-22T11:15:59Z</time><name>PT2416</name></trkpt>
<trkpt lat="52.084401" lon="05.936011"><ele>156.2</ele><time>2024-02-22T11:16:00Z</time><name>PT2417</name></trkpt>
<trkpt lat="52.084414" lon="05.936009"><ele>156.3</ele><time>2024-02-22T11:16:01Z</time><name>PT2418</name></trkpt>
<trkpt lat="52.084431" lon="05.936009"><ele>156.5</ele><time>2024-02-22T11:16:02Z</time><name>PT2419</name></trkpt>
<trkpt lat="52.084446" lon="05.936012"><ele>156.5</ele><time>2024-02-22T11:16:03Z</time><name>PT2420</name></trkpt>
<trkpt lat="52.084459" lon="05.936021"><ele>156.9</ele><time>2024-02-22T11:16:04Z</time><name>PT2421</name></trkpt>
<trkpt lat="52.084471" lon="05.936029"><ele>156.8</ele><time>2024-02-22T11:16:05Z</time><name>PT2422</name></trkpt>
<trkpt lat="52.084482" lon="05.936038"><ele>156.6</ele><time>2024-02-22T11:16:06Z</time><name>PT2423</name></trkpt>
<trkpt lat="52.084502" lon="05.936047"><ele>156.9</ele><time>2024-02-22T11:16:07Z</time><name>PT2424</name></trkpt>
<trkpt lat="52.084520" lon="05.936038"><ele>156.8</ele><time>2024-02-22T11:16:08Z</time><name>PT2425</name></trkpt>
<trkpt lat="52.084536" lon="05.936026"><ele>156.9</ele><time>2024-02-22T11:16:09Z</time><name>PT2426</name></trkpt>
<trkpt lat="52.084547" lon="05.936023"><ele>157.1</ele><time>2024-02-22T11:16:10Z</time><name>PT2427</name></trkpt>
<trkpt lat="52.084553" lon="05.936022"><ele>157</ele><time>2024-02-22T11:16:11Z</time><name>PT2428</name></trkpt>
<trkpt lat="52.084559" lon="05.936026"><ele>157.2</ele><time>2024-02-22T11:16:12Z</time><name>PT2429</name></trkpt>
<trkpt lat="52.084560" lon="05.936028"><ele>157.3</ele><time>2024-02-22T11:16:13Z</time><name>PT2430</name></trkpt>
<trkpt lat="52.084567" lon="05.936026"><ele>157.4</ele><time>2024-02-22T11:16:14Z</time><name>PT2431</name></trkpt>
<trkpt lat="52.084579" lon="05.936028"><ele>157.7</ele><time>2024-02-22T11:16:15Z</time><name>PT2432</name></trkpt>
<trkpt lat="52.084590" lon="05.936026"><ele>157.8</ele><time>2024-02-22T11:16:16Z</time><name>PT2433</name></trkpt>
<trkpt lat="52.084601" lon="05.936026"><ele>157.9</ele><time>2024-02-22T11:16:17Z</time><name>PT2434</name></trkpt>
<trkpt lat="52.084609" lon="05.936027"><ele>158</ele><time>2024-02-22T11:16:18Z</time><name>PT2435</name></trkpt>
<trkpt lat="52.084615" lon="05.936031"><ele>158.2</ele><time>2024-02-22T11:16:19Z</time><name>PT2436</name></trkpt>
<trkpt lat="52.084615" lon="05.936032"><ele>158.4</ele><time>2024-02-22T11:16:20Z</time><name>PT2437</name></trkpt>
<trkpt lat="52.084622" lon="05.936035"><ele>158.4</ele><time>2024-02-22T11:16:21Z</time><name>PT2438</name></trkpt>
<trkpt lat="52.084630" lon="05.936039"><ele>158.5</ele><time>2024-02-22T11:16:22Z</time><name>PT2439</name></trkpt>
<trkpt lat="52.084639" lon="05.936040"><ele>158.5</ele><time>2024-02-22T11:16:23Z</time><name>PT2440</name></trkpt>
<trkpt lat="52.084649" lon="05.936039"><ele>158.3</ele><time>2024-02-22T11:16:24Z</time><name>PT2441</name></trkpt>
<trkpt lat="52.084661" lon="05.936038"><ele>158.2</ele><time>2024-02-22T11:16:25Z</time><name>PT2442</name></trkpt>
<trkpt lat="52.084672" lon="05.936041"><ele>158.1</ele><time>2024-02-22T11:16:26Z</time><name>PT2443</name></trkpt>
<trkpt lat="52.084683" lon="05.936043"><ele>158.2</ele><time>2024-02-22T11:16:27Z</time><name>PT2444</name></trkpt>
<trkpt lat="52.084691" lon="05.936044"><ele>158.4</ele><time>2024-02-22T11:16:28Z</time><name>PT2445</name></trkpt>
<trkpt lat="52.084701" lon="05.936048"><ele>158.5</ele><time>2024-02-22T11:16:29Z</time><name>PT2446</name></trkpt>
<trkpt lat="52.084711" lon="05.936051"><ele>158.4</ele><time>2024-02-22T11:16:30Z</time><name>PT2447</name></trkpt>
<trkpt lat="52.084721" lon="05.936053"><ele>158.6</ele><time>2024-02-22T11:16:31Z</time><name>PT2448</name></trkpt>
<trkpt lat="52.084730" lon="05.936054"><ele>158.6</ele><time>2024-02-22T11:16:32Z</time><name>PT2449</name></trkpt>
<trkpt lat="52.084742" lon="05.936058"><ele>158.6</ele><time>2024-02-22T11:16:33Z</time><name>PT2450</name></trkpt>
<trkpt lat="52.084754" lon="05.936061"><ele>158.7</ele><time>2024-02-22T11:16:34Z</time><name>PT2451</name></trkpt>
<trkpt lat="52.084766" lon="05.936062"><ele>158.7</ele><time>2024-02-22T11:16:35Z</time><name>PT2452</name></trkpt>
<trkpt lat="52.084775" lon="05.936068"><ele>158.6</ele><time>2024-02-22T11:16:36Z</time><name>PT2453</name></trkpt>
<trkpt lat="52.084785" lon="05.936072"><ele>158.7</ele><time>2024-02-22T11:16:37Z</time><name>PT2454</name></trkpt>
<trkpt lat="52.084794" lon="05.936076"><ele>158.7</ele><time>2024-02-22T11:16:38Z</time><name>PT2455</name></trkpt>
<trkpt lat="52.084802" lon="05.936080"><ele>158.7</ele><time>2024-02-22T11:16:39Z</time><name>PT2456</name></trkpt>
<trkpt lat="52.084812" lon="05.936082"><ele>158.7</ele><time>2024-02-22T11:16:40Z</time><name>PT2457</name></trkpt>
<trkpt lat="52.084820" lon="05.936087"><ele>158.8</ele><time>2024-02-22T11:16:41Z</time><name>PT2458</name></trkpt>
<trkpt lat="52.084828" lon="05.936089"><ele>158.7</ele><time>2024-02-22T11:16:42Z</time><name>PT2459</name></trkpt>
<trkpt lat="52.084833" lon="05.936088"><ele>158.8</ele><time>2024-02-22T11:16:43Z</time><name>PT2460</name></trkpt>
<trkpt lat="52.084836" lon="05.936088"><ele>159</ele><time>2024-02-22T11:16:44Z</time><name>PT2461</name></trkpt>
<trkpt lat="52.084840" lon="05.936089"><ele>158.9</ele><time>2024-02-22T11:16:45Z</time><name>PT2462</name></trkpt>
<trkpt lat="52.084850" lon="05.936093"><ele>158.8</ele><time>2024-02-22T11:16:46Z</time><name>PT2463</name></trkpt>
<trkpt lat="52.084857" lon="05.936096"><ele>158.9</ele><time>2024-02-22T11:16:47Z</time><name>PT2464</name></trkpt>
<trkpt lat="52.084866" lon="05.936101"><ele>158.8</ele><time>2024-02-22T11:16:48Z</time><name>PT2465</name></trkpt>
<trkpt lat="52.084879" lon="05.936100"><ele>158.8</ele><time>2024-02-22T11:16:49Z</time><name>PT2466</name></trkpt>
<trkpt lat="52.084887" lon="05.936101"><ele>158.9</ele><time>2024-02-22T11:16:50Z</time><name>PT2467</name></trkpt>
<trkpt lat="52.084893" lon="05.936103"><ele>158.8</ele><time>2024-02-22T11:16:51Z</time><name>PT2468</name></trkpt>
<trkpt lat="52.084897" lon="05.936102"><ele>158.6</ele><time>2024-02-22T11:16:52Z</time><name>PT2469</name></trkpt>
<trkpt lat="52.084900" lon="05.936099"><ele>158.7</ele><time>2024-02-22T11:16:53Z</time><name>PT2470</name></trkpt>
<trkpt lat="52.084908" lon="05.936100"><ele>158.6</ele><time>2024-02-22T11:16:54Z</time><name>PT2471</name></trkpt>
<trkpt lat="52.084918" lon="05.936100"><ele>158.6</ele><time>2024-02-22T11:16:55Z</time><name>PT2472</name></trkpt>
<trkpt lat="52.084929" lon="05.936105"><ele>158.7</ele><time>2024-02-22T11:16:56Z</time><name>PT2473</name></trkpt>
<trkpt lat="52.084937" lon="05.936109"><ele>158.9</ele><time>2024-02-22T11:16:57Z</time><name>PT2474</name></trkpt>
<trkpt lat="52.084946" lon="05.936111"><ele>159</ele><time>2024-02-22T11:16:58Z</time><name>PT2475</name></trkpt>
<trkpt lat="52.084957" lon="05.936116"><ele>159.1</ele><time>2024-02-22T11:16:59Z</time><name>PT2476</name></trkpt>
<trkpt lat="52.084968" lon="05.936119"><ele>159.1</ele><time>2024-02-22T11:17:00Z</time><name>PT2477</name></trkpt>
<trkpt lat="52.084980" lon="05.936125"><ele>159.2</ele><time>2024-02-22T11:17:01Z</time><name>PT2478</name></trkpt>
<trkpt lat="52.084993" lon="05.936129"><ele>159.2</ele><time>2024-02-22T11:17:02Z</time><name>PT2479</name></trkpt>
<trkpt lat="52.085004" lon="05.936132"><ele>159.4</ele><time>2024-02-22T11:17:03Z</time><name>PT2480</name></trkpt>
<trkpt lat="52.085014" lon="05.936135"><ele>159.5</ele><time>2024-02-22T11:17:04Z</time><name>PT2481</name></trkpt>
<trkpt lat="52.085024" lon="05.936136"><ele>159.4</ele><time>2024-02-22T11:17:05Z</time><name>PT2482</name></trkpt>
<trkpt lat="52.085035" lon="05.936139"><ele>159.3</ele><time>2024-02-22T11:17:06Z</time><name>PT2483</name></trkpt>
<trkpt lat="52.085046" lon="05.936139"><ele>159.3</ele><time>2024-02-22T11:17:07Z</time><name>PT2484</name></trkpt>
<trkpt lat="52.085056" lon="05.936138"><ele>159.3</ele><time>2024-02-22T11:17:08Z</time><name>PT2485</name></trkpt>
<trkpt lat="52.085067" lon="05.936141"><ele>159.1</ele><time>2024-02-22T11:17:09Z</time><name>PT2486</name></trkpt>
<trkpt lat="52.085078" lon="05.936141"><ele>159.3</ele><time>2024-02-22T11:17:10Z</time><name>PT2487</name></trkpt>
<trkpt lat="52.085091" lon="05.936141"><ele>159.3</ele><time>2024-02-22T11:17:11Z</time><name>PT2488</name></trkpt>
<trkpt lat="52.085101" lon="05.936141"><ele>159.4</ele><time>2024-02-22T11:17:12Z</time><name>PT2489</name></trkpt>
<trkpt lat="52.085109" lon="05.936146"><ele>159.7</ele><time>2024-02-22T11:17:13Z</time><name>PT2490</name></trkpt>
<trkpt lat="52.085119" lon="05.936149"><ele>159.8</ele><time>2024-02-22T11:17:14Z</time><name>PT2491</name></trkpt>
<trkpt lat="52.085130" lon="05.936149"><ele>159.9</ele><time>2024-02-22T11:17:15Z</time><name>PT2492</name></trkpt>
<trkpt lat="52.085139" lon="05.936144"><ele>160</ele><time>2024-02-22T11:17:16Z</time><name>PT2493</name></trkpt>
<trkpt lat="52.085144" lon="05.936141"><ele>160</ele><time>2024-02-22T11:17:17Z</time><name>PT2494</name></trkpt>
<trkpt lat="52.085154" lon="05.936142"><ele>160</ele><time>2024-02-22T11:17:18Z</time><name>PT2495</name></trkpt>
<trkpt lat="52.085164" lon="05.936146"><ele>160</ele><time>2024-02-22T11:17:19Z</time><name>PT2496</name></trkpt>
<trkpt lat="52.085175" lon="05.936147"><ele>159.9</ele><time>2024-02-22T11:17:20Z</time><name>PT2497</name></trkpt>
<trkpt lat="52.085183" lon="05.936148"><ele>159.9</ele><time>2024-02-22T11:17:21Z</time><name>PT2498</name></trkpt>
<trkpt lat="52.085191" lon="05.936151"><ele>160</ele><time>2024-02-22T11:17:22Z</time><name>PT2499</name></trkpt>
<trkpt lat="52.085202" lon="05.936155"><ele>160.2</ele><time>2024-02-22T11:17:23Z</time><name>PT2500</name></trkpt>
<trkpt lat="52.085210" lon="05.936156"><ele>160</ele><time>2024-02-22T11:17:24Z</time><name>PT2501</name></trkpt>
<trkpt lat="52.085219" lon="05.936155"><ele>160.1</ele><time>2024-02-22T11:17:25Z</time><name>PT2502</name></trkpt>
<trkpt lat="52.085229" lon="05.936158"><ele>160.2</ele><time>2024-02-22T11:17:26Z</time><name>PT2503</name></trkpt>
<trkpt lat="52.085241" lon="05.936160"><ele>160.2</ele><time>2024-02-22T11:17:27Z</time><name>PT2504</name></trkpt>
<trkpt lat="52.085251" lon="05.936163"><ele>160.1</ele><time>2024-02-22T11:17:28Z</time><name>PT2505</name></trkpt>
<trkpt lat="52.085263" lon="05.936167"><ele>160.1</ele><time>2024-02-22T11:17:29Z</time><name>PT2506</name></trkpt>
<trkpt lat="52.085269" lon="05.936175"><ele>160.3</ele><time>2024-02-22T11:17:30Z</time><name>PT2507</name></trkpt>
<trkpt lat="52.085278" lon="05.936178"><ele>160.3</ele><time>2024-02-22T11:17:32Z</time><name>PT2508</name></trkpt>
<trkpt lat="52.085290" lon="05.936179"><ele>160.3</ele><time>2024-02-22T11:17:32Z</time><name>PT2509</name></trkpt>
<trkpt lat="52.085301" lon="05.936178"><ele>160.4</ele><time>2024-02-22T11:17:33Z</time><name>PT2510</name></trkpt>
<trkpt lat="52.085311" lon="05.936181"><ele>160.4</ele><time>2024-02-22T11:17:34Z</time><name>PT2511</name></trkpt>
<trkpt lat="52.085324" lon="05.936187"><ele>160.4</ele><time>2024-02-22T11:17:35Z</time><name>PT2512</name></trkpt>
<trkpt lat="52.085337" lon="05.936190"><ele>160.4</ele><time>2024-02-22T11:17:36Z</time><name>PT2513</name></trkpt>
<trkpt lat="52.085350" lon="05.936194"><ele>160.3</ele><time>2024-02-22T11:17:38Z</time><name>PT2514</name></trkpt>
<trkpt lat="52.085363" lon="05.936197"><ele>160.3</ele><time>2024-02-22T11:17:38Z</time><name>PT2515</name></trkpt>
<trkpt lat="52.085375" lon="05.936201"><ele>160.3</ele><time>2024-02-22T11:17:39Z</time><name>PT2516</name></trkpt>
<trkpt lat="52.085382" lon="05.936205"><ele>160.3</ele><time>2024-02-22T11:17:40Z</time><name>PT2517</name></trkpt>
<trkpt lat="52.085391" lon="05.936210"><ele>160.3</ele><time>2024-02-22T11:17:41Z</time><name>PT2518</name></trkpt>
<trkpt lat="52.085402" lon="05.936214"><ele>160.3</ele><time>2024-02-22T11:17:42Z</time><name>PT2519</name></trkpt>
<trkpt lat="52.085412" lon="05.936219"><ele>160.4</ele><time>2024-02-22T11:17:43Z</time><name>PT2520</name></trkpt>
<trkpt lat="52.085422" lon="05.936222"><ele>160.5</ele><time>2024-02-22T11:17:44Z</time><name>PT2521</name></trkpt>
<trkpt lat="52.085435" lon="05.936227"><ele>160.8</ele><time>2024-02-22T11:17:45Z</time><name>PT2522</name></trkpt>
<trkpt lat="52.085443" lon="05.936234"><ele>160.8</ele><time>2024-02-22T11:17:47Z</time><name>PT2523</name></trkpt>
<trkpt lat="52.085452" lon="05.936240"><ele>160.9</ele><time>2024-02-22T11:17:47Z</time><name>PT2524</name></trkpt>
<trkpt lat="52.085462" lon="05.936245"><ele>160.8</ele><time>2024-02-22T11:17:48Z</time><name>PT2525</name></trkpt>
<trkpt lat="52.085473" lon="05.936253"><ele>160.8</ele><time>2024-02-22T11:17:49Z</time><name>PT2526</name></trkpt>
<trkpt lat="52.085483" lon="05.936259"><ele>160.9</ele><time>2024-02-22T11:17:50Z</time><name>PT2527</name></trkpt>
<trkpt lat="52.085497" lon="05.936266"><ele>160.9</ele><time>2024-02-22T11:17:51Z</time><name>PT2528</name></trkpt>
<trkpt lat="52.085507" lon="05.936271"><ele>160.9</ele><time>2024-02-22T11:17:53Z</time><name>PT2529</name></trkpt>
<trkpt lat="52.085516" lon="05.936278"><ele>160.9</ele><time>2024-02-22T11:17:53Z</time><name>PT2530</name></trkpt>
<trkpt lat="52.085524" lon="05.936281"><ele>161.2</ele><time>2024-02-22T11:17:54Z</time><name>PT2531</name></trkpt>
<trkpt lat="52.085535" lon="05.936285"><ele>161.2</ele><time>2024-02-22T11:17:55Z</time><name>PT2532</name></trkpt>
<trkpt lat="52.085547" lon="05.936284"><ele>161.4</ele><time>2024-02-22T11:17:56Z</time><name>PT2533</name></trkpt>
<trkpt lat="52.085556" lon="05.936285"><ele>161.4</ele><time>2024-02-22T11:17:57Z</time><name>PT2534</name></trkpt>
<trkpt lat="52.085569" lon="05.936287"><ele>161.5</ele><time>2024-02-22T11:17:58Z</time><name>PT2535</name></trkpt>
<trkpt lat="52.085580" lon="05.936291"><ele>161.4</ele><time>2024-02-22T11:17:59Z</time><name>PT2536</name></trkpt>
<trkpt lat="52.085590" lon="05.936296"><ele>161.4</ele><time>2024-02-22T11:18:00Z</time><name>PT2537</name></trkpt>
<trkpt lat="52.085600" lon="05.936303"><ele>161.4</ele><time>2024-02-22T11:18:01Z</time><name>PT2538</name></trkpt>
<trkpt lat="52.085611" lon="05.936307"><ele>161.3</ele><time>2024-02-22T11:18:02Z</time><name>PT2539</name></trkpt>
<trkpt lat="52.085623" lon="05.936308"><ele>161.3</ele><time>2024-02-22T11:18:03Z</time><name>PT2540</name></trkpt>
<trkpt lat="52.085639" lon="05.936303"><ele>161.2</ele><time>2024-02-22T11:18:04Z</time><name>PT2541</name></trkpt>
<trkpt lat="52.085649" lon="05.936299"><ele>161.3</ele><time>2024-02-22T11:18:05Z</time><name>PT2542</name></trkpt>
<trkpt lat="52.085660" lon="05.936304"><ele>161.4</ele><time>2024-02-22T11:18:06Z</time><name>PT2543</name></trkpt>
<trkpt lat="52.085670" lon="05.936309"><ele>161.5</ele><time>2024-02-22T11:18:07Z</time><name>PT2544</name></trkpt>
<trkpt lat="52.085680" lon="05.936313"><ele>161.5</ele><time>2024-02-22T11:18:08Z</time><name>PT2545</name></trkpt>
<trkpt lat="52.085692" lon="05.936317"><ele>161.6</ele><time>2024-02-22T11:18:09Z</time><name>PT2546</name></trkpt>
<trkpt lat="52.085701" lon="05.936320"><ele>161.7</ele><time>2024-02-22T11:18:10Z</time><name>PT2547</name></trkpt>
<trkpt lat="52.085710" lon="05.936326"><ele>161.7</ele><time>2024-02-22T11:18:11Z</time><name>PT2548</name></trkpt>
<trkpt lat="52.085721" lon="05.936329"><ele>161.7</ele><time>2024-02-22T11:18:12Z</time><name>PT2549</name></trkpt>
<trkpt lat="52.085733" lon="05.936332"><ele>161.7</ele><time>2024-02-22T11:18:13Z</time><name>PT2550</name></trkpt>
<trkpt lat="52.085744" lon="05.936336"><ele>161.8</ele><time>2024-02-22T11:18:14Z</time><name>PT2551</name></trkpt>
<trkpt lat="52.085757" lon="05.936342"><ele>162</ele><time>2024-02-22T11:18:15Z</time><name>PT2552</name></trkpt>
<trkpt lat="52.085766" lon="05.936347"><ele>161.8</ele><time>2024-02-22T11:18:16Z</time><name>PT2553</name></trkpt>
<trkpt lat="52.085774" lon="05.936349"><ele>161.8</ele><time>2024-02-22T11:18:17Z</time><name>PT2554</name></trkpt>
<trkpt lat="52.085782" lon="05.936349"><ele>161.7</ele><time>2024-02-22T11:18:18Z</time><name>PT2555</name></trkpt>
<trkpt lat="52.085790" lon="05.936354"><ele>161.8</ele><time>2024-02-22T11:18:19Z</time><name>PT2556</name></trkpt>
<trkpt lat="52.085799" lon="05.936356"><ele>161.8</ele><time>2024-02-22T11:18:20Z</time><name>PT2557</name></trkpt>
<trkpt lat="52.085806" lon="05.936360"><ele>161.9</ele><time>2024-02-22T11:18:21Z</time><name>PT2558</name></trkpt>
<trkpt lat="52.085816" lon="05.936361"><ele>161.9</ele><time>2024-02-22T11:18:22Z</time><name>PT2559</name></trkpt>
<trkpt lat="52.085828" lon="05.936364"><ele>161.8</ele><time>2024-02-22T11:18:23Z</time><name>PT2560</name></trkpt>
<trkpt lat="52.085840" lon="05.936366"><ele>161.8</ele><time>2024-02-22T11:18:24Z</time><name>PT2561</name></trkpt>
<trkpt lat="52.085852" lon="05.936370"><ele>161.8</ele><time>2024-02-22T11:18:25Z</time><name>PT2562</name></trkpt>
<trkpt lat="52.085861" lon="05.936373"><ele>161.8</ele><time>2024-02-22T11:18:26Z</time><name>PT2563</name></trkpt>
<trkpt lat="52.085872" lon="05.936377"><ele>161.8</ele><time>2024-02-22T11:18:27Z</time><name>PT2564</name></trkpt>
<trkpt lat="52.085882" lon="05.936381"><ele>161.8</ele><time>2024-02-22T11:18:28Z</time><name>PT2565</name></trkpt>
<trkpt lat="52.085892" lon="05.936378"><ele>161.7</ele><time>2024-02-22T11:18:29Z</time><name>PT2566</name></trkpt>
<trkpt lat="52.085901" lon="05.936377"><ele>161.7</ele><time>2024-02-22T11:18:30Z</time><name>PT2567</name></trkpt>
<trkpt lat="52.085913" lon="05.936380"><ele>161.6</ele><time>2024-02-22T11:18:31Z</time><name>PT2568</name></trkpt>
<trkpt lat="52.085925" lon="05.936381"><ele>161.7</ele><time>2024-02-22T11:18:32Z</time><name>PT2569</name></trkpt>
<trkpt lat="52.085934" lon="05.936382"><ele>161.8</ele><time>2024-02-22T11:18:33Z</time><name>PT2570</name></trkpt>
<trkpt lat="52.085943" lon="05.936386"><ele>162</ele><time>2024-02-22T11:18:34Z</time><name>PT2571</name></trkpt>
<trkpt lat="52.085953" lon="05.936388"><ele>161.9</ele><time>2024-02-22T11:18:35Z</time><name>PT2572</name></trkpt>
<trkpt lat="52.085965" lon="05.936388"><ele>161.9</ele><time>2024-02-22T11:18:36Z</time><name>PT2573</name></trkpt>
<trkpt lat="52.085976" lon="05.936388"><ele>162</ele><time>2024-02-22T11:18:37Z</time><name>PT2574</name></trkpt>
<trkpt lat="52.085983" lon="05.936388"><ele>162.1</ele><time>2024-02-22T11:18:38Z</time><name>PT2575</name></trkpt>
<trkpt lat="52.085994" lon="05.936390"><ele>162</ele><time>2024-02-22T11:18:39Z</time><name>PT2576</name></trkpt>
<trkpt lat="52.086005" lon="05.936392"><ele>162</ele><time>2024-02-22T11:18:40Z</time><name>PT2577</name></trkpt>
<trkpt lat="52.086016" lon="05.936397"><ele>162</ele><time>2024-02-22T11:18:41Z</time><name>PT2578</name></trkpt>
<trkpt lat="52.086026" lon="05.936402"><ele>162.1</ele><time>2024-02-22T11:18:42Z</time><name>PT2579</name></trkpt>
<trkpt lat="52.086036" lon="05.936404"><ele>161.9</ele><time>2024-02-22T11:18:43Z</time><name>PT2580</name></trkpt>
<trkpt lat="52.086046" lon="05.936406"><ele>161.9</ele><time>2024-02-22T11:18:44Z</time><name>PT2581</name></trkpt>
<trkpt lat="52.086047" lon="05.936408"><ele>162.1</ele><time>2024-02-22T11:18:45Z</time><name>PT2582</name></trkpt>
<trkpt lat="52.086053" lon="05.936409"><ele>162.1</ele><time>2024-02-22T11:18:46Z</time><name>PT2583</name></trkpt>
<trkpt lat="52.086061" lon="05.936412"><ele>162.1</ele><time>2024-02-22T11:18:47Z</time><name>PT2584</name></trkpt>
<trkpt lat="52.086072" lon="05.936414"><ele>162.2</ele><time>2024-02-22T11:18:48Z</time><name>PT2585</name></trkpt>
<trkpt lat="52.086082" lon="05.936413"><ele>162</ele><time>2024-02-22T11:18:49Z</time><name>PT2586</name></trkpt>
<trkpt lat="52.086093" lon="05.936415"><ele>162.3</ele><time>2024-02-22T11:18:50Z</time><name>PT2587</name></trkpt>
<trkpt lat="52.086105" lon="05.936417"><ele>162.4</ele><time>2024-02-22T11:18:51Z</time><name>PT2588</name></trkpt>
<trkpt lat="52.086117" lon="05.936425"><ele>162.4</ele><time>2024-02-22T11:18:52Z</time><name>PT2589</name></trkpt>
<trkpt lat="52.086128" lon="05.936430"><ele>162.3</ele><time>2024-02-22T11:18:53Z</time><name>PT2590</name></trkpt>
<trkpt lat="52.086140" lon="05.936432"><ele>162.4</ele><time>2024-02-22T11:18:54Z</time><name>PT2591</name></trkpt>
<trkpt lat="52.086154" lon="05.936437"><ele>162.4</ele><time>2024-02-22T11:18:55Z</time><name>PT2592</name></trkpt>
<trkpt lat="52.086165" lon="05.936443"><ele>162.2</ele><time>2024-02-22T11:18:56Z</time><name>PT2593</name></trkpt>
<trkpt lat="52.086176" lon="05.936449"><ele>162.4</ele><time>2024-02-22T11:18:57Z</time><name>PT2594</name></trkpt>
<trkpt lat="52.086185" lon="05.936449"><ele>162.5</ele><time>2024-02-22T11:18:58Z</time><name>PT2595</name></trkpt>
<trkpt lat="52.086196" lon="05.936449"><ele>162.5</ele><time>2024-02-22T11:18:59Z</time><name>PT2596</name></trkpt>
<trkpt lat="52.086206" lon="05.936452"><ele>162.5</ele><time>2024-02-22T11:19:00Z</time><name>PT2597</name></trkpt>
<trkpt lat="52.086216" lon="05.936455"><ele>162.6</ele><time>2024-02-22T11:19:01Z</time><name>PT2598</name></trkpt>
<trkpt lat="52.086228" lon="05.936458"><ele>162.6</ele><time>2024-02-22T11:19:02Z</time><name>PT2599</name></trkpt>
<trkpt lat="52.086239" lon="05.936464"><ele>162.8</ele><time>2024-02-22T11:19:03Z</time><name>PT2600</name></trkpt>
<trkpt lat="52.086248" lon="05.936474"><ele>162.9</ele><time>2024-02-22T11:19:04Z</time><name>PT2601</name></trkpt>
<trkpt lat="52.086257" lon="05.936484"><ele>162.9</ele><time>2024-02-22T11:19:05Z</time><name>PT2602</name></trkpt>
<trkpt lat="52.086266" lon="05.936494"><ele>162.8</ele><time>2024-02-22T11:19:06Z</time><name>PT2603</name></trkpt>
<trkpt lat="52.086276" lon="05.936499"><ele>162.9</ele><time>2024-02-22T11:19:07Z</time><name>PT2604</name></trkpt>
<trkpt lat="52.086284" lon="05.936502"><ele>162.8</ele><time>2024-02-22T11:19:08Z</time><name>PT2605</name></trkpt>
<trkpt lat="52.086295" lon="05.936503"><ele>162.9</ele><time>2024-02-22T11:19:09Z</time><name>PT2606</name></trkpt>
<trkpt lat="52.086304" lon="05.936505"><ele>163</ele><time>2024-02-22T11:19:10Z</time><name>PT2607</name></trkpt>
<trkpt lat="52.086315" lon="05.936508"><ele>162.9</ele><time>2024-02-22T11:19:11Z</time><name>PT2608</name></trkpt>
<trkpt lat="52.086326" lon="05.936510"><ele>162.8</ele><time>2024-02-22T11:19:12Z</time><name>PT2609</name></trkpt>
<trkpt lat="52.086336" lon="05.936513"><ele>162.9</ele><time>2024-02-22T11:19:13Z</time><name>PT2610</name></trkpt>
<trkpt lat="52.086347" lon="05.936516"><ele>163.1</ele><time>2024-02-22T11:19:14Z</time><name>PT2611</name></trkpt>
<trkpt lat="52.086358" lon="05.936519"><ele>163</ele><time>2024-02-22T11:19:15Z</time><name>PT2612</name></trkpt>
<trkpt lat="52.086367" lon="05.936520"><ele>162.9</ele><time>2024-02-22T11:19:16Z</time><name>PT2613</name></trkpt>
<trkpt lat="52.086371" lon="05.936521"><ele>163</ele><time>2024-02-22T11:19:17Z</time><name>PT2614</name></trkpt>
<trkpt lat="52.086373" lon="05.936520"><ele>162.9</ele><time>2024-02-22T11:19:18Z</time><name>PT2615</name></trkpt>
<trkpt lat="52.086377" lon="05.936523"><ele>162.9</ele><time>2024-02-22T11:19:19Z</time><name>PT2616</name></trkpt>
<trkpt lat="52.086384" lon="05.936526"><ele>163</ele><time>2024-02-22T11:19:20Z</time><name>PT2617</name></trkpt>
<trkpt lat="52.086394" lon="05.936529"><ele>163.1</ele><time>2024-02-22T11:19:21Z</time><name>PT2618</name></trkpt>
<trkpt lat="52.086405" lon="05.936530"><ele>163</ele><time>2024-02-22T11:19:22Z</time><name>PT2619</name></trkpt>
<trkpt lat="52.086413" lon="05.936530"><ele>163.1</ele><time>2024-02-22T11:19:23Z</time><name>PT2620</name></trkpt>
<trkpt lat="52.086423" lon="05.936530"><ele>163</ele><time>2024-02-22T11:19:24Z</time><name>PT2621</name></trkpt>
<trkpt lat="52.086434" lon="05.936528"><ele>163.1</ele><time>2024-02-22T11:19:25Z</time><name>PT2622</name></trkpt>
<trkpt lat="52.086444" lon="05.936530"><ele>163.1</ele><time>2024-02-22T11:19:26Z</time><name>PT2623</name></trkpt>
<trkpt lat="52.086454" lon="05.936535"><ele>163.2</ele><time>2024-02-22T11:19:27Z</time><name>PT2624</name></trkpt>
<trkpt lat="52.086463" lon="05.936536"><ele>163.2</ele><time>2024-02-22T11:19:28Z</time><name>PT2625</name></trkpt>
<trkpt lat="52.086470" lon="05.936536"><ele>163.3</ele><time>2024-02-22T11:19:29Z</time><name>PT2626</name></trkpt>
<trkpt lat="52.086476" lon="05.936537"><ele>163.3</ele><time>2024-02-22T11:19:30Z</time><name>PT2627</name></trkpt>
<trkpt lat="52.086484" lon="05.936539"><ele>163.2</ele><time>2024-02-22T11:19:31Z</time><name>PT2628</name></trkpt>
<trkpt lat="52.086493" lon="05.936544"><ele>163.4</ele><time>2024-02-22T11:19:32Z</time><name>PT2629</name></trkpt>
<trkpt lat="52.086502" lon="05.936547"><ele>163.4</ele><time>2024-02-22T11:19:33Z</time><name>PT2630</name></trkpt>
<trkpt lat="52.086512" lon="05.936549"><ele>163.2</ele><time>2024-02-22T11:19:34Z</time><name>PT2631</name></trkpt>
<trkpt lat="52.086522" lon="05.936549"><ele>163.2</ele><time>2024-02-22T11:19:35Z</time><name>PT2632</name></trkpt>
<trkpt lat="52.086532" lon="05.936550"><ele>163.3</ele><time>2024-02-22T11:19:36Z</time><name>PT2633</name></trkpt>
<trkpt lat="52.086544" lon="05.936551"><ele>163.1</ele><time>2024-02-22T11:19:37Z</time><name>PT2634</name></trkpt>
<trkpt lat="52.086556" lon="05.936555"><ele>163.2</ele><time>2024-02-22T11:19:38Z</time><name>PT2635</name></trkpt>
<trkpt lat="52.086567" lon="05.936559"><ele>163.4</ele><time>2024-02-22T11:19:39Z</time><name>PT2636</name></trkpt>
<trkpt lat="52.086577" lon="05.936563"><ele>163.4</ele><time>2024-02-22T11:19:40Z</time><name>PT2637</name></trkpt>
<trkpt lat="52.086587" lon="05.936566"><ele>163.3</ele><time>2024-02-22T11:19:41Z</time><name>PT2638</name></trkpt>
<trkpt lat="52.086599" lon="05.936569"><ele>163.4</ele><time>2024-02-22T11:19:42Z</time><name>PT2639</name></trkpt>
<trkpt lat="52.086610" lon="05.936569"><ele>163.2</ele><time>2024-02-22T11:19:43Z</time><name>PT2640</name></trkpt>
<trkpt lat="52.086621" lon="05.936569"><ele>163.1</ele><time>2024-02-22T11:19:44Z</time><name>PT2641</name></trkpt>
<trkpt lat="52.086633" lon="05.936571"><ele>163.2</ele><time>2024-02-22T11:19:45Z</time><name>PT2642</name></trkpt>
<trkpt lat="52.086644" lon="05.936575"><ele>163.2</ele><time>2024-02-22T11:19:46Z</time><name>PT2643</name></trkpt>
<trkpt lat="52.086655" lon="05.936579"><ele>163.1</ele><time>2024-02-22T11:19:47Z</time><name>PT2644</name></trkpt>
<trkpt lat="52.086664" lon="05.936584"><ele>163.3</ele><time>2024-02-22T11:19:48Z</time><name>PT2645</name></trkpt>
<trkpt lat="52.086672" lon="05.936586"><ele>163.2</ele><time>2024-02-22T11:19:49Z</time><name>PT2646</name></trkpt>
<trkpt lat="52.086681" lon="05.936588"><ele>163.3</ele><time>2024-02-22T11:19:50Z</time><name>PT2647</name></trkpt>
<trkpt lat="52.086691" lon="05.936589"><ele>163.3</ele><time>2024-02-22T11:19:51Z</time><name>PT2648</name></trkpt>
<trkpt lat="52.086701" lon="05.936592"><ele>163.3</ele><time>2024-02-22T11:19:52Z</time><name>PT2649</name></trkpt>
<trkpt lat="52.086711" lon="05.936595"><ele>163.3</ele><time>2024-02-22T11:19:53Z</time><name>PT2650</name></trkpt>
<trkpt lat="52.086721" lon="05.936596"><ele>163.3</ele><time>2024-02-22T11:19:54Z</time><name>PT2651</name></trkpt>
<trkpt lat="52.086729" lon="05.936597"><ele>163.4</ele><time>2024-02-22T11:19:55Z</time><name>PT2652</name></trkpt>
<trkpt lat="52.086738" lon="05.936598"><ele>163.3</ele><time>2024-02-22T11:19:56Z</time><name>PT2653</name></trkpt>
<trkpt lat="52.086750" lon="05.936598"><ele>163.4</ele><time>2024-02-22T11:19:57Z</time><name>PT2654</name></trkpt>
<trkpt lat="52.086762" lon="05.936598"><ele>163.6</ele><time>2024-02-22T11:19:58Z</time><name>PT2655</name></trkpt>
<trkpt lat="52.086773" lon="05.936599"><ele>163.5</ele><time>2024-02-22T11:19:59Z</time><name>PT2656</name></trkpt>
<trkpt lat="52.086783" lon="05.936602"><ele>163.6</ele><time>2024-02-22T11:20:00Z</time><name>PT2657</name></trkpt>
<trkpt lat="52.086790" lon="05.936604"><ele>163.5</ele><time>2024-02-22T11:20:01Z</time><name>PT2658</name></trkpt>
<trkpt lat="52.086796" lon="05.936603"><ele>163.6</ele><time>2024-02-22T11:20:02Z</time><name>PT2659</name></trkpt>
<trkpt lat="52.086803" lon="05.936605"><ele>163.7</ele><time>2024-02-22T11:20:03Z</time><name>PT2660</name></trkpt>
<trkpt lat="52.086808" lon="05.936607"><ele>163.7</ele><time>2024-02-22T11:20:04Z</time><name>PT2661</name></trkpt>
<trkpt lat="52.086811" lon="05.936607"><ele>163.7</ele><time>2024-02-22T11:20:05Z</time><name>PT2662</name></trkpt>
<trkpt lat="52.086813" lon="05.936608"><ele>163.7</ele><time>2024-02-22T11:20:06Z</time><name>PT2663</name></trkpt>
<trkpt lat="52.086814" lon="05.936608"><ele>163.5</ele><time>2024-02-22T11:20:07Z</time><name>PT2664</name></trkpt>
<trkpt lat="52.086815" lon="05.936610"><ele>163.4</ele><time>2024-02-22T11:20:11Z</time><name>PT2665</name></trkpt>
<trkpt lat="52.086817" lon="05.936610"><ele>163.5</ele><time>2024-02-22T11:20:12Z</time><name>PT2666</name></trkpt>
<trkpt lat="52.086819" lon="05.936610"><ele>163.6</ele><time>2024-02-22T11:20:13Z</time><name>PT2667</name></trkpt>
<trkpt lat="52.086821" lon="05.936609"><ele>163.6</ele><time>2024-02-22T11:20:14Z</time><name>PT2668</name></trkpt>
<trkpt lat="52.086827" lon="05.936613"><ele>163.3</ele><time>2024-02-22T11:21:01Z</time><name>PT2669</name></trkpt>
<trkpt lat="52.086837" lon="05.936615"><ele>163.4</ele><time>2024-02-22T11:21:02Z</time><name>PT2670</name></trkpt>
<trkpt lat="52.086847" lon="05.936617"><ele>163.5</ele><time>2024-02-22T11:21:03Z</time><name>PT2671</name></trkpt>
<trkpt lat="52.086856" lon="05.936625"><ele>163.7</ele><time>2024-02-22T11:21:04Z</time><name>PT2672</name></trkpt>
<trkpt lat="52.086864" lon="05.936622"><ele>163.7</ele><time>2024-02-22T11:21:05Z</time><name>PT2673</name></trkpt>
<trkpt lat="52.086872" lon="05.936624"><ele>164</ele><time>2024-02-22T11:21:06Z</time><name>PT2674</name></trkpt>
<trkpt lat="52.086878" lon="05.936623"><ele>164</ele><time>2024-02-22T11:21:07Z</time><name>PT2675</name></trkpt>
<trkpt lat="52.086881" lon="05.936618"><ele>163.9</ele><time>2024-02-22T11:21:08Z</time><name>PT2676</name></trkpt>
<trkpt lat="52.086881" lon="05.936615"><ele>163.7</ele><time>2024-02-22T11:21:09Z</time><name>PT2677</name></trkpt>
<trkpt lat="52.086880" lon="05.936614"><ele>163.7</ele><time>2024-02-22T11:21:10Z</time><name>PT2678</name></trkpt>
<trkpt lat="52.086880" lon="05.936613"><ele>163.7</ele><time>2024-02-22T11:21:11Z</time><name>PT2679</name></trkpt>
<trkpt lat="52.086880" lon="05.936612"><ele>163.7</ele><time>2024-02-22T11:21:12Z</time><name>PT2680</name></trkpt>
<trkpt lat="52.086881" lon="05.936613"><ele>163.8</ele><time>2024-02-22T11:21:20Z</time><name>PT2681</name></trkpt>
<trkpt lat="52.086885" lon="05.936616"><ele>163.7</ele><time>2024-02-22T11:21:21Z</time><name>PT2682</name></trkpt>
<trkpt lat="52.086888" lon="05.936618"><ele>163.8</ele><time>2024-02-22T11:21:23Z</time><name>PT2683</name></trkpt>
<trkpt lat="52.086894" lon="05.936619"><ele>163.9</ele><time>2024-02-22T11:21:24Z</time><name>PT2684</name></trkpt>
<trkpt lat="52.086897" lon="05.936620"><ele>163.9</ele><time>2024-02-22T11:21:25Z</time><name>PT2685</name></trkpt>
<trkpt lat="52.086901" lon="05.936622"><ele>164</ele><time>2024-02-22T11:21:26Z</time><name>PT2686</name></trkpt>
<trkpt lat="52.086902" lon="05.936622"><ele>163.7</ele><time>2024-02-22T11:21:29Z</time><name>PT2687</name></trkpt>
<trkpt lat="52.086911" lon="05.936627"><ele>163.8</ele><time>2024-02-22T11:21:30Z</time><name>PT2688</name></trkpt>
<trkpt lat="52.086919" lon="05.936629"><ele>163.7</ele><time>2024-02-22T11:21:31Z</time><name>PT2689</name></trkpt>
<trkpt lat="52.086928" lon="05.936630"><ele>163.7</ele><time>2024-02-22T11:21:32Z</time><name>PT2690</name></trkpt>
<trkpt lat="52.086939" lon="05.936635"><ele>163.7</ele><time>2024-02-22T11:21:33Z</time><name>PT2691</name></trkpt>
<trkpt lat="52.086950" lon="05.936640"><ele>163.7</ele><time>2024-02-22T11:21:34Z</time><name>PT2692</name></trkpt>
<trkpt lat="52.086961" lon="05.936643"><ele>163.7</ele><time>2024-02-22T11:21:35Z</time><name>PT2693</name></trkpt>
<trkpt lat="52.086973" lon="05.936646"><ele>163.8</ele><time>2024-02-22T11:21:36Z</time><name>PT2694</name></trkpt>
<trkpt lat="52.086982" lon="05.936649"><ele>164</ele><time>2024-02-22T11:21:37Z</time><name>PT2695</name></trkpt>
<trkpt lat="52.086996" lon="05.936660"><ele>163.9</ele><time>2024-02-22T11:21:38Z</time><name>PT2696</name></trkpt>
<trkpt lat="52.087007" lon="05.936667"><ele>163.7</ele><time>2024-02-22T11:21:39Z</time><name>PT2697</name></trkpt>
<trkpt lat="52.087015" lon="05.936669"><ele>163.7</ele><time>2024-02-22T11:21:40Z</time><name>PT2698</name></trkpt>
<trkpt lat="52.087020" lon="05.936670"><ele>163.7</ele><time>2024-02-22T11:21:41Z</time><name>PT2699</name></trkpt>
<trkpt lat="52.087026" lon="05.936670"><ele>163.7</ele><time>2024-02-22T11:21:42Z</time><name>PT2700</name></trkpt>
<trkpt lat="52.087038" lon="05.936672"><ele>163.7</ele><time>2024-02-22T11:21:43Z</time><name>PT2701</name></trkpt>
<trkpt lat="52.087051" lon="05.936674"><ele>163.7</ele><time>2024-02-22T11:21:44Z</time><name>PT2702</name></trkpt>
<trkpt lat="52.087063" lon="05.936672"><ele>163.5</ele><time>2024-02-22T11:21:45Z</time><name>PT2703</name></trkpt>
<trkpt lat="52.087071" lon="05.936676"><ele>163.4</ele><time>2024-02-22T11:21:46Z</time><name>PT2704</name></trkpt>
<trkpt lat="52.087082" lon="05.936681"><ele>163.5</ele><time>2024-02-22T11:21:47Z</time><name>PT2705</name></trkpt>
<trkpt lat="52.087096" lon="05.936684"><ele>163.5</ele><time>2024-02-22T11:21:48Z</time><name>PT2706</name></trkpt>
<trkpt lat="52.087105" lon="05.936683"><ele>163.5</ele><time>2024-02-22T11:21:49Z</time><name>PT2707</name></trkpt>
<trkpt lat="52.087114" lon="05.936683"><ele>163.4</ele><time>2024-02-22T11:21:50Z</time><name>PT2708</name></trkpt>
<trkpt lat="52.087123" lon="05.936687"><ele>163.3</ele><time>2024-02-22T11:21:51Z</time><name>PT2709</name></trkpt>
<trkpt lat="52.087135" lon="05.936694"><ele>163.5</ele><time>2024-02-22T11:21:52Z</time><name>PT2710</name></trkpt>
<trkpt lat="52.087146" lon="05.936701"><ele>163.7</ele><time>2024-02-22T11:21:53Z</time><name>PT2711</name></trkpt>
<trkpt lat="52.087154" lon="05.936703"><ele>163.6</ele><time>2024-02-22T11:21:54Z</time><name>PT2712</name></trkpt>
<trkpt lat="52.087162" lon="05.936704"><ele>163.7</ele><time>2024-02-22T11:21:55Z</time><name>PT2713</name></trkpt>
<trkpt lat="52.087170" lon="05.936706"><ele>163.8</ele><time>2024-02-22T11:21:56Z</time><name>PT2714</name></trkpt>
<trkpt lat="52.087179" lon="05.936707"><ele>163.8</ele><time>2024-02-22T11:21:57Z</time><name>PT2715</name></trkpt>
<trkpt lat="52.087192" lon="05.936711"><ele>163.7</ele><time>2024-02-22T11:21:58Z</time><name>PT2716</name></trkpt>
<trkpt lat="52.087205" lon="05.936715"><ele>163.7</ele><time>2024-02-22T11:21:59Z</time><name>PT2717</name></trkpt>
<trkpt lat="52.087219" lon="05.936723"><ele>163.7</ele><time>2024-02-22T11:22:00Z</time><name>PT2718</name></trkpt>
<trkpt lat="52.087230" lon="05.936728"><ele>163.5</ele><time>2024-02-22T11:22:01Z</time><name>PT2719</name></trkpt>
<trkpt lat="52.087240" lon="05.936731"><ele>163.3</ele><time>2024-02-22T11:22:02Z</time><name>PT2720</name></trkpt>
<trkpt lat="52.087245" lon="05.936734"><ele>163.3</ele><time>2024-02-22T11:22:03Z</time><name>PT2721</name></trkpt>
<trkpt lat="52.087252" lon="05.936733"><ele>163.1</ele><time>2024-02-22T11:22:04Z</time><name>PT2722</name></trkpt>
<trkpt lat="52.087263" lon="05.936737"><ele>163</ele><time>2024-02-22T11:22:05Z</time><name>PT2723</name></trkpt>
<trkpt lat="52.087276" lon="05.936744"><ele>162.9</ele><time>2024-02-22T11:22:06Z</time><name>PT2724</name></trkpt>
<trkpt lat="52.087289" lon="05.936750"><ele>163.1</ele><time>2024-02-22T11:22:07Z</time><name>PT2725</name></trkpt>
<trkpt lat="52.087305" lon="05.936755"><ele>163.1</ele><time>2024-02-22T11:22:08Z</time><name>PT2726</name></trkpt>
<trkpt lat="52.087315" lon="05.936756"><ele>163.2</ele><time>2024-02-22T11:22:09Z</time><name>PT2727</name></trkpt>
<trkpt lat="52.087321" lon="05.936759"><ele>163.1</ele><time>2024-02-22T11:22:10Z</time><name>PT2728</name></trkpt>
<trkpt lat="52.087332" lon="05.936763"><ele>163.1</ele><time>2024-02-22T11:22:11Z</time><name>PT2729</name></trkpt>
<trkpt lat="52.087342" lon="05.936770"><ele>163</ele><time>2024-02-22T11:22:12Z</time><name>PT2730</name></trkpt>
<trkpt lat="52.087348" lon="05.936774"><ele>163.1</ele><time>2024-02-22T11:22:14Z</time><name>PT2731</name></trkpt>
<trkpt lat="52.087355" lon="05.936780"><ele>163.1</ele><time>2024-02-22T11:22:14Z</time><name>PT2732</name></trkpt>
<trkpt lat="52.087367" lon="05.936782"><ele>163.3</ele><time>2024-02-22T11:22:15Z</time><name>PT2733</name></trkpt>
<trkpt lat="52.087379" lon="05.936785"><ele>163.3</ele><time>2024-02-22T11:22:16Z</time><name>PT2734</name></trkpt>
<trkpt lat="52.087390" lon="05.936787"><ele>163.5</ele><time>2024-02-22T11:22:17Z</time><name>PT2735</name></trkpt>
<trkpt lat="52.087406" lon="05.936791"><ele>163.5</ele><time>2024-02-22T11:22:18Z</time><name>PT2736</name></trkpt>
<trkpt lat="52.087417" lon="05.936792"><ele>163.7</ele><time>2024-02-22T11:22:19Z</time><name>PT2737</name></trkpt>
<trkpt lat="52.087427" lon="05.936797"><ele>163.5</ele><time>2024-02-22T11:22:20Z</time><name>PT2738</name></trkpt>
<trkpt lat="52.087438" lon="05.936802"><ele>163.6</ele><time>2024-02-22T11:22:21Z</time><name>PT2739</name></trkpt>
<trkpt lat="52.087448" lon="05.936806"><ele>163.5</ele><time>2024-02-22T11:22:22Z</time><name>PT2740</name></trkpt>
<trkpt lat="52.087457" lon="05.936808"><ele>163.4</ele><time>2024-02-22T11:22:23Z</time><name>PT2741</name></trkpt>
<trkpt lat="52.087467" lon="05.936811"><ele>163.2</ele><time>2024-02-22T11:22:24Z</time><name>PT2742</name></trkpt>
<trkpt lat="52.087482" lon="05.936814"><ele>163.2</ele><time>2024-02-22T11:22:25Z</time><name>PT2743</name></trkpt>
<trkpt lat="52.087498" lon="05.936817"><ele>163.1</ele><time>2024-02-22T11:22:26Z</time><name>PT2744</name></trkpt>
<trkpt lat="52.087516" lon="05.936822"><ele>162.8</ele><time>2024-02-22T11:22:27Z</time><name>PT2745</name></trkpt>
<trkpt lat="52.087534" lon="05.936825"><ele>162.7</ele><time>2024-02-22T11:22:29Z</time><name>PT2746</name></trkpt>
<trkpt lat="52.087547" lon="05.936830"><ele>162.8</ele><time>2024-02-22T11:22:29Z</time><name>PT2747</name></trkpt>
<trkpt lat="52.087558" lon="05.936833"><ele>162.9</ele><time>2024-02-22T11:22:30Z</time><name>PT2748</name></trkpt>
<trkpt lat="52.087567" lon="05.936839"><ele>162.8</ele><time>2024-02-22T11:22:31Z</time><name>PT2749</name></trkpt>
<trkpt lat="52.087574" lon="05.936840"><ele>162.9</ele><time>2024-02-22T11:22:32Z</time><name>PT2750</name></trkpt>
<trkpt lat="52.087583" lon="05.936842"><ele>162.8</ele><time>2024-02-22T11:22:33Z</time><name>PT2751</name></trkpt>
<trkpt lat="52.087594" lon="05.936839"><ele>162.9</ele><time>2024-02-22T11:22:34Z</time><name>PT2752</name></trkpt>
<trkpt lat="52.087607" lon="05.936839"><ele>162.9</ele><time>2024-02-22T11:22:35Z</time><name>PT2753</name></trkpt>
<trkpt lat="52.087618" lon="05.936839"><ele>163.1</ele><time>2024-02-22T11:22:36Z</time><name>PT2754</name></trkpt>
<trkpt lat="52.087632" lon="05.936849"><ele>163.1</ele><time>2024-02-22T11:22:38Z</time><name>PT2755</name></trkpt>
<trkpt lat="52.087646" lon="05.936855"><ele>163.1</ele><time>2024-02-22T11:22:38Z</time><name>PT2756</name></trkpt>
<trkpt lat="52.087657" lon="05.936859"><ele>163</ele><time>2024-02-22T11:22:39Z</time><name>PT2757</name></trkpt>
<trkpt lat="52.087669" lon="05.936861"><ele>162.8</ele><time>2024-02-22T11:22:40Z</time><name>PT2758</name></trkpt>
<trkpt lat="52.087679" lon="05.936861"><ele>162.7</ele><time>2024-02-22T11:22:41Z</time><name>PT2759</name></trkpt>
<trkpt lat="52.087689" lon="05.936867"><ele>162.6</ele><time>2024-02-22T11:22:42Z</time><name>PT2760</name></trkpt>
<trkpt lat="52.087699" lon="05.936871"><ele>162.6</ele><time>2024-02-22T11:22:44Z</time><name>PT2761</name></trkpt>
<trkpt lat="52.087711" lon="05.936877"><ele>162.5</ele><time>2024-02-22T11:22:44Z</time><name>PT2762</name></trkpt>
<trkpt lat="52.087726" lon="05.936883"><ele>162.4</ele><time>2024-02-22T11:22:45Z</time><name>PT2763</name></trkpt>
<trkpt lat="52.087739" lon="05.936887"><ele>162.5</ele><time>2024-02-22T11:22:46Z</time><name>PT2764</name></trkpt>
<trkpt lat="52.087751" lon="05.936893"><ele>162.5</ele><time>2024-02-22T11:22:47Z</time><name>PT2765</name></trkpt>
<trkpt lat="52.087757" lon="05.936895"><ele>162.2</ele><time>2024-02-22T11:22:48Z</time><name>PT2766</name></trkpt>
<trkpt lat="52.087759" lon="05.936894"><ele>162.3</ele><time>2024-02-22T11:22:49Z</time><name>PT2767</name></trkpt>
<trkpt lat="52.087762" lon="05.936893"><ele>162.4</ele><time>2024-02-22T11:22:50Z</time><name>PT2768</name></trkpt>
<trkpt lat="52.087763" lon="05.936893"><ele>162.4</ele><time>2024-02-22T11:22:51Z</time><name>PT2769</name></trkpt>
<trkpt lat="52.087764" lon="05.936894"><ele>162.5</ele><time>2024-02-22T11:22:52Z</time><name>PT2770</name></trkpt>
<trkpt lat="52.087768" lon="05.936893"><ele>162.6</ele><time>2024-02-22T11:23:20Z</time><name>PT2771</name></trkpt>
<trkpt lat="52.087777" lon="05.936893"><ele>162.7</ele><time>2024-02-22T11:23:21Z</time><name>PT2772</name></trkpt>
<trkpt lat="52.087785" lon="05.936899"><ele>162.8</ele><time>2024-02-22T11:23:22Z</time><name>PT2773</name></trkpt>
<trkpt lat="52.087794" lon="05.936901"><ele>162.8</ele><time>2024-02-22T11:23:23Z</time><name>PT2774</name></trkpt>
<trkpt lat="52.087804" lon="05.936902"><ele>162.9</ele><time>2024-02-22T11:23:24Z</time><name>PT2775</name></trkpt>
<trkpt lat="52.087814" lon="05.936905"><ele>163.1</ele><time>2024-02-22T11:23:25Z</time><name>PT2776</name></trkpt>
<trkpt lat="52.087823" lon="05.936907"><ele>163</ele><time>2024-02-22T11:23:26Z</time><name>PT2777</name></trkpt>
<trkpt lat="52.087827" lon="05.936912"><ele>162.9</ele><time>2024-02-22T11:23:27Z</time><name>PT2778</name></trkpt>
<trkpt lat="52.087835" lon="05.936909"><ele>162.7</ele><time>2024-02-22T11:23:28Z</time><name>PT2779</name></trkpt>
<trkpt lat="52.087843" lon="05.936907"><ele>162.7</ele><time>2024-02-22T11:23:29Z</time><name>PT2780</name></trkpt>
<trkpt lat="52.087850" lon="05.936911"><ele>162.6</ele><time>2024-02-22T11:23:30Z</time><name>PT2781</name></trkpt>
<trkpt lat="52.087857" lon="05.936913"><ele>162.5</ele><time>2024-02-22T11:23:31Z</time><name>PT2782</name></trkpt>
<trkpt lat="52.087866" lon="05.936916"><ele>162.5</ele><time>2024-02-22T11:23:32Z</time><name>PT2783</name></trkpt>
<trkpt lat="52.087877" lon="05.936920"><ele>162.3</ele><time>2024-02-22T11:23:33Z</time><name>PT2784</name></trkpt>
<trkpt lat="52.087887" lon="05.936925"><ele>162.3</ele><time>2024-02-22T11:23:34Z</time><name>PT2785</name></trkpt>
<trkpt lat="52.087897" lon="05.936930"><ele>162.3</ele><time>2024-02-22T11:23:35Z</time><name>PT2786</name></trkpt>
<trkpt lat="52.087908" lon="05.936934"><ele>162.3</ele><time>2024-02-22T11:23:36Z</time><name>PT2787</name></trkpt>
<trkpt lat="52.087918" lon="05.936937"><ele>162.3</ele><time>2024-02-22T11:23:37Z</time><name>PT2788</name></trkpt>
<trkpt lat="52.087928" lon="05.936938"><ele>162.3</ele><time>2024-02-22T11:23:38Z</time><name>PT2789</name></trkpt>
<trkpt lat="52.087942" lon="05.936944"><ele>162.3</ele><time>2024-02-22T11:23:39Z</time><name>PT2790</name></trkpt>
<trkpt lat="52.087951" lon="05.936949"><ele>162</ele><time>2024-02-22T11:23:40Z</time><name>PT2791</name></trkpt>
<trkpt lat="52.087962" lon="05.936956"><ele>162</ele><time>2024-02-22T11:23:41Z</time><name>PT2792</name></trkpt>
<trkpt lat="52.087971" lon="05.936960"><ele>161.8</ele><time>2024-02-22T11:23:42Z</time><name>PT2793</name></trkpt>
<trkpt lat="52.087978" lon="05.936963"><ele>161.8</ele><time>2024-02-22T11:23:43Z</time><name>PT2794</name></trkpt>
<trkpt lat="52.087987" lon="05.936963"><ele>161.8</ele><time>2024-02-22T11:23:44Z</time><name>PT2795</name></trkpt>
<trkpt lat="52.087996" lon="05.936964"><ele>161.8</ele><time>2024-02-22T11:23:45Z</time><name>PT2796</name></trkpt>
<trkpt lat="52.088006" lon="05.936967"><ele>161.9</ele><time>2024-02-22T11:23:46Z</time><name>PT2797</name></trkpt>
<trkpt lat="52.088016" lon="05.936972"><ele>162</ele><time>2024-02-22T11:23:47Z</time><name>PT2798</name></trkpt>
<trkpt lat="52.088027" lon="05.936974"><ele>162</ele><time>2024-02-22T11:23:48Z</time><name>PT2799</name></trkpt>
<trkpt lat="52.088035" lon="05.936978"><ele>161.8</ele><time>2024-02-22T11:23:49Z</time><name>PT2800</name></trkpt>
<trkpt lat="52.088044" lon="05.936980"><ele>161.8</ele><time>2024-02-22T11:23:50Z</time><name>PT2801</name></trkpt>
<trkpt lat="52.088054" lon="05.936983"><ele>161.9</ele><time>2024-02-22T11:23:51Z</time><name>PT2802</name></trkpt>
<trkpt lat="52.088065" lon="05.936987"><ele>161.8</ele><time>2024-02-22T11:23:52Z</time><name>PT2803</name></trkpt>
<trkpt lat="52.088075" lon="05.936992"><ele>161.8</ele><time>2024-02-22T11:23:53Z</time><name>PT2804</name></trkpt>
<trkpt lat="52.088084" lon="05.936996"><ele>161.7</ele><time>2024-02-22T11:23:54Z</time><name>PT2805</name></trkpt>
<trkpt lat="52.088094" lon="05.936997"><ele>161.5</ele><time>2024-02-22T11:23:55Z</time><name>PT2806</name></trkpt>
<trkpt lat="52.088103" lon="05.936999"><ele>161.4</ele><time>2024-02-22T11:23:56Z</time><name>PT2807</name></trkpt>
<trkpt lat="52.088111" lon="05.936999"><ele>161.5</ele><time>2024-02-22T11:23:57Z</time><name>PT2808</name></trkpt>
<trkpt lat="52.088121" lon="05.937001"><ele>161.5</ele><time>2024-02-22T11:23:58Z</time><name>PT2809</name></trkpt>
<trkpt lat="52.088131" lon="05.937004"><ele>161.6</ele><time>2024-02-22T11:23:59Z</time><name>PT2810</name></trkpt>
<trkpt lat="52.088139" lon="05.937008"><ele>161.6</ele><time>2024-02-22T11:24:00Z</time><name>PT2811</name></trkpt>
<trkpt lat="52.088148" lon="05.937011"><ele>161.6</ele><time>2024-02-22T11:24:01Z</time><name>PT2812</name></trkpt>
<trkpt lat="52.088156" lon="05.937012"><ele>161.6</ele><time>2024-02-22T11:24:02Z</time><name>PT2813</name></trkpt>
<trkpt lat="52.088164" lon="05.937013"><ele>161.6</ele><time>2024-02-22T11:24:03Z</time><name>PT2814</name></trkpt>
<trkpt lat="52.088173" lon="05.937015"><ele>161.6</ele><time>2024-02-22T11:24:04Z</time><name>PT2815</name></trkpt>
<trkpt lat="52.088185" lon="05.937019"><ele>161.8</ele><time>2024-02-22T11:24:05Z</time><name>PT2816</name></trkpt>
<trkpt lat="52.088197" lon="05.937022"><ele>161.7</ele><time>2024-02-22T11:24:06Z</time><name>PT2817</name></trkpt>
<trkpt lat="52.088208" lon="05.937025"><ele>161.8</ele><time>2024-02-22T11:24:07Z</time><name>PT2818</name></trkpt>
<trkpt lat="52.088213" lon="05.937028"><ele>161.8</ele><time>2024-02-22T11:24:08Z</time><name>PT2819</name></trkpt>
<trkpt lat="52.088216" lon="05.937029"><ele>161.7</ele><time>2024-02-22T11:24:09Z</time><name>PT2820</name></trkpt>
<trkpt lat="52.088218" lon="05.937028"><ele>161.9</ele><time>2024-02-22T11:24:10Z</time><name>PT2821</name></trkpt>
<trkpt lat="52.088222" lon="05.937029"><ele>161.9</ele><time>2024-02-22T11:24:11Z</time><name>PT2822</name></trkpt>
<trkpt lat="52.088226" lon="05.937028"><ele>161.8</ele><time>2024-02-22T11:24:13Z</time><name>PT2823</name></trkpt>
<trkpt lat="52.088237" lon="05.937029"><ele>161.9</ele><time>2024-02-22T11:24:14Z</time><name>PT2824</name></trkpt>
<trkpt lat="52.088247" lon="05.937030"><ele>161.8</ele><time>2024-02-22T11:24:15Z</time><name>PT2825</name></trkpt>
<trkpt lat="52.088256" lon="05.937031"><ele>161.8</ele><time>2024-02-22T11:24:16Z</time><name>PT2826</name></trkpt>
<trkpt lat="52.088265" lon="05.937034"><ele>161.9</ele><time>2024-02-22T11:24:17Z</time><name>PT2827</name></trkpt>
<trkpt lat="52.088271" lon="05.937038"><ele>161.7</ele><time>2024-02-22T11:24:18Z</time><name>PT2828</name></trkpt>
<trkpt lat="52.088277" lon="05.937039"><ele>161.9</ele><time>2024-02-22T11:24:19Z</time><name>PT2829</name></trkpt>
<trkpt lat="52.088284" lon="05.937040"><ele>161.7</ele><time>2024-02-22T11:24:20Z</time><name>PT2830</name></trkpt>
<trkpt lat="52.088292" lon="05.937039"><ele>161.5</ele><time>2024-02-22T11:24:21Z</time><name>PT2831</name></trkpt>
<trkpt lat="52.088301" lon="05.937038"><ele>161.4</ele><time>2024-02-22T11:24:22Z</time><name>PT2832</name></trkpt>
<trkpt lat="52.088305" lon="05.937037"><ele>161.4</ele><time>2024-02-22T11:24:23Z</time><name>PT2833</name></trkpt>
<trkpt lat="52.088308" lon="05.937041"><ele>161.2</ele><time>2024-02-22T11:24:24Z</time><name>PT2834</name></trkpt>
<trkpt lat="52.088309" lon="05.937043"><ele>161.4</ele><time>2024-02-22T11:24:25Z</time><name>PT2835</name></trkpt>
<trkpt lat="52.088311" lon="05.937045"><ele>161.4</ele><time>2024-02-22T11:24:26Z</time><name>PT2836</name></trkpt>
<trkpt lat="52.088313" lon="05.937047"><ele>161.3</ele><time>2024-02-22T11:24:28Z</time><name>PT2837</name></trkpt>
<trkpt lat="52.088325" lon="05.937050"><ele>161.2</ele><time>2024-02-22T11:24:29Z</time><name>PT2838</name></trkpt>
<trkpt lat="52.088338" lon="05.937056"><ele>160.9</ele><time>2024-02-22T11:24:30Z</time><name>PT2839</name></trkpt>
<trkpt lat="52.088350" lon="05.937061"><ele>160.7</ele><time>2024-02-22T11:24:31Z</time><name>PT2840</name></trkpt>
<trkpt lat="52.088362" lon="05.937066"><ele>160.8</ele><time>2024-02-22T11:24:32Z</time><name>PT2841</name></trkpt>
<trkpt lat="52.088374" lon="05.937067"><ele>160.7</ele><time>2024-02-22T11:24:33Z</time><name>PT2842</name></trkpt>
<trkpt lat="52.088386" lon="05.937067"><ele>160.8</ele><time>2024-02-22T11:24:34Z</time><name>PT2843</name></trkpt>
<trkpt lat="52.088396" lon="05.937066"><ele>160.6</ele><time>2024-02-22T11:24:35Z</time><name>PT2844</name></trkpt>
<trkpt lat="52.088405" lon="05.937069"><ele>160.7</ele><time>2024-02-22T11:24:36Z</time><name>PT2845</name></trkpt>
<trkpt lat="52.088413" lon="05.937072"><ele>160.6</ele><time>2024-02-22T11:24:37Z</time><name>PT2846</name></trkpt>
<trkpt lat="52.088422" lon="05.937076"><ele>160.7</ele><time>2024-02-22T11:24:38Z</time><name>PT2847</name></trkpt>
<trkpt lat="52.088432" lon="05.937077"><ele>160.9</ele><time>2024-02-22T11:24:39Z</time><name>PT2848</name></trkpt>
<trkpt lat="52.088444" lon="05.937078"><ele>160.9</ele><time>2024-02-22T11:24:40Z</time><name>PT2849</name></trkpt>
<trkpt lat="52.088455" lon="05.937078"><ele>160.8</ele><time>2024-02-22T11:24:41Z</time><name>PT2850</name></trkpt>
<trkpt lat="52.088466" lon="05.937079"><ele>160.8</ele><time>2024-02-22T11:24:42Z</time><name>PT2851</name></trkpt>
<trkpt lat="52.088477" lon="05.937082"><ele>160.8</ele><time>2024-02-22T11:24:43Z</time><name>PT2852</name></trkpt>
<trkpt lat="52.088488" lon="05.937086"><ele>160.9</ele><time>2024-02-22T11:24:44Z</time><name>PT2853</name></trkpt>
<trkpt lat="52.088500" lon="05.937089"><ele>160.9</ele><time>2024-02-22T11:24:45Z</time><name>PT2854</name></trkpt>
<trkpt lat="52.088513" lon="05.937091"><ele>161.1</ele><time>2024-02-22T11:24:46Z</time><name>PT2855</name></trkpt>
<trkpt lat="52.088526" lon="05.937094"><ele>161.1</ele><time>2024-02-22T11:24:47Z</time><name>PT2856</name></trkpt>
<trkpt lat="52.088539" lon="05.937097"><ele>161</ele><time>2024-02-22T11:24:48Z</time><name>PT2857</name></trkpt>
<trkpt lat="52.088552" lon="05.937102"><ele>160.9</ele><time>2024-02-22T11:24:49Z</time><name>PT2858</name></trkpt>
<trkpt lat="52.088564" lon="05.937107"><ele>160.8</ele><time>2024-02-22T11:24:50Z</time><name>PT2859</name></trkpt>
<trkpt lat="52.088576" lon="05.937112"><ele>160.7</ele><time>2024-02-22T11:24:51Z</time><name>PT2860</name></trkpt>
<trkpt lat="52.088587" lon="05.937113"><ele>160.7</ele><time>2024-02-22T11:24:52Z</time><name>PT2861</name></trkpt>
<trkpt lat="52.088596" lon="05.937117"><ele>160.7</ele><time>2024-02-22T11:24:53Z</time><name>PT2862</name></trkpt>
<trkpt lat="52.088607" lon="05.937118"><ele>160.8</ele><time>2024-02-22T11:24:54Z</time><name>PT2863</name></trkpt>
<trkpt lat="52.088617" lon="05.937123"><ele>160.9</ele><time>2024-02-22T11:24:55Z</time><name>PT2864</name></trkpt>
<trkpt lat="52.088629" lon="05.937124"><ele>160.9</ele><time>2024-02-22T11:24:56Z</time><name>PT2865</name></trkpt>
<trkpt lat="52.088641" lon="05.937127"><ele>160.8</ele><time>2024-02-22T11:24:57Z</time><name>PT2866</name></trkpt>
<trkpt lat="52.088652" lon="05.937131"><ele>160.9</ele><time>2024-02-22T11:24:58Z</time><name>PT2867</name></trkpt>
<trkpt lat="52.088664" lon="05.937135"><ele>160.9</ele><time>2024-02-22T11:24:59Z</time><name>PT2868</name></trkpt>
<trkpt lat="52.088678" lon="05.937138"><ele>160.8</ele><time>2024-02-22T11:25:00Z</time><name>PT2869</name></trkpt>
<trkpt lat="52.088690" lon="05.937141"><ele>160.8</ele><time>2024-02-22T11:25:01Z</time><name>PT2870</name></trkpt>
<trkpt lat="52.088702" lon="05.937142"><ele>160.9</ele><time>2024-02-22T11:25:02Z</time><name>PT2871</name></trkpt>
<trkpt lat="52.088711" lon="05.937146"><ele>160.9</ele><time>2024-02-22T11:25:03Z</time><name>PT2872</name></trkpt>
<trkpt lat="52.088722" lon="05.937150"><ele>160.9</ele><time>2024-02-22T11:25:04Z</time><name>PT2873</name></trkpt>
<trkpt lat="52.088734" lon="05.937154"><ele>161.1</ele><time>2024-02-22T11:25:05Z</time><name>PT2874</name></trkpt>
<trkpt lat="52.088746" lon="05.937155"><ele>161.2</ele><time>2024-02-22T11:25:06Z</time><name>PT2875</name></trkpt>
<trkpt lat="52.088756" lon="05.937160"><ele>161.2</ele><time>2024-02-22T11:25:07Z</time><name>PT2876</name></trkpt>
<trkpt lat="52.088768" lon="05.937162"><ele>161.2</ele><time>2024-02-22T11:25:08Z</time><name>PT2877</name></trkpt>
<trkpt lat="52.088780" lon="05.937167"><ele>161.3</ele><time>2024-02-22T11:25:09Z</time><name>PT2878</name></trkpt>
<trkpt lat="52.088792" lon="05.937170"><ele>161.2</ele><time>2024-02-22T11:25:10Z</time><name>PT2879</name></trkpt>
<trkpt lat="52.088804" lon="05.937172"><ele>161.3</ele><time>2024-02-22T11:25:11Z</time><name>PT2880</name></trkpt>
<trkpt lat="52.088814" lon="05.937175"><ele>161.4</ele><time>2024-02-22T11:25:12Z</time><name>PT2881</name></trkpt>
<trkpt lat="52.088825" lon="05.937180"><ele>161.5</ele><time>2024-02-22T11:25:13Z</time><name>PT2882</name></trkpt>
<trkpt lat="52.088835" lon="05.937185"><ele>161.4</ele><time>2024-02-22T11:25:14Z</time><name>PT2883</name></trkpt>
<trkpt lat="52.088844" lon="05.937187"><ele>161.4</ele><time>2024-02-22T11:25:15Z</time><name>PT2884</name></trkpt>
<trkpt lat="52.088855" lon="05.937188"><ele>161.2</ele><time>2024-02-22T11:25:16Z</time><name>PT2885</name></trkpt>
<trkpt lat="52.088865" lon="05.937191"><ele>161.2</ele><time>2024-02-22T11:25:17Z</time><name>PT2886</name></trkpt>
<trkpt lat="52.088876" lon="05.937194"><ele>161.2</ele><time>2024-02-22T11:25:18Z</time><name>PT2887</name></trkpt>
<trkpt lat="52.088888" lon="05.937196"><ele>161.1</ele><time>2024-02-22T11:25:19Z</time><name>PT2888</name></trkpt>
<trkpt lat="52.088898" lon="05.937200"><ele>161.4</ele><time>2024-02-22T11:25:20Z</time><name>PT2889</name></trkpt>
<trkpt lat="52.088908" lon="05.937203"><ele>161.4</ele><time>2024-02-22T11:25:21Z</time><name>PT2890</name></trkpt>
<trkpt lat="52.088921" lon="05.937207"><ele>161.4</ele><time>2024-02-22T11:25:22Z</time><name>PT2891</name></trkpt>
<trkpt lat="52.088933" lon="05.937211"><ele>161.4</ele><time>2024-02-22T11:25:23Z</time><name>PT2892</name></trkpt>
<trkpt lat="52.088947" lon="05.937214"><ele>161.5</ele><time>2024-02-22T11:25:24Z</time><name>PT2893</name></trkpt>
<trkpt lat="52.088958" lon="05.937216"><ele>161.5</ele><time>2024-02-22T11:25:25Z</time><name>PT2894</name></trkpt>
<trkpt lat="52.088968" lon="05.937219"><ele>161.5</ele><time>2024-02-22T11:25:26Z</time><name>PT2895</name></trkpt>
<trkpt lat="52.088979" lon="05.937226"><ele>161.4</ele><time>2024-02-22T11:25:27Z</time><name>PT2896</name></trkpt>
<trkpt lat="52.088988" lon="05.937231"><ele>161.5</ele><time>2024-02-22T11:25:28Z</time><name>PT2897</name></trkpt>
<trkpt lat="52.088997" lon="05.937233"><ele>161.4</ele><time>2024-02-22T11:25:29Z</time><name>PT2898</name></trkpt>
<trkpt lat="52.089007" lon="05.937234"><ele>161.4</ele><time>2024-02-22T11:25:30Z</time><name>PT2899</name></trkpt>
<trkpt lat="52.089015" lon="05.937236"><ele>161.5</ele><time>2024-02-22T11:25:31Z</time><name>PT2900</name></trkpt>
<trkpt lat="52.089024" lon="05.937239"><ele>161.4</ele><time>2024-02-22T11:25:32Z</time><name>PT2901</name></trkpt>
<trkpt lat="52.089036" lon="05.937242"><ele>161.6</ele><time>2024-02-22T11:25:33Z</time><name>PT2902</name></trkpt>
<trkpt lat="52.089048" lon="05.937245"><ele>161.5</ele><time>2024-02-22T11:25:34Z</time><name>PT2903</name></trkpt>
<trkpt lat="52.089060" lon="05.937249"><ele>161.5</ele><time>2024-02-22T11:25:35Z</time><name>PT2904</name></trkpt>
<trkpt lat="52.089070" lon="05.937255"><ele>161.4</ele><time>2024-02-22T11:25:36Z</time><name>PT2905</name></trkpt>
<trkpt lat="52.089080" lon="05.937258"><ele>161.4</ele><time>2024-02-22T11:25:37Z</time><name>PT2906</name></trkpt>
<trkpt lat="52.089090" lon="05.937260"><ele>161.3</ele><time>2024-02-22T11:25:38Z</time><name>PT2907</name></trkpt>
<trkpt lat="52.089102" lon="05.937262"><ele>161.4</ele><time>2024-02-22T11:25:39Z</time><name>PT2908</name></trkpt>
<trkpt lat="52.089115" lon="05.937263"><ele>161.6</ele><time>2024-02-22T11:25:40Z</time><name>PT2909</name></trkpt>
<trkpt lat="52.089127" lon="05.937266"><ele>161.7</ele><time>2024-02-22T11:25:41Z</time><name>PT2910</name></trkpt>
<trkpt lat="52.089140" lon="05.937269"><ele>161.7</ele><time>2024-02-22T11:25:42Z</time><name>PT2911</name></trkpt>
<trkpt lat="52.089153" lon="05.937272"><ele>161.7</ele><time>2024-02-22T11:25:43Z</time><name>PT2912</name></trkpt>
<trkpt lat="52.089164" lon="05.937277"><ele>161.8</ele><time>2024-02-22T11:25:44Z</time><name>PT2913</name></trkpt>
<trkpt lat="52.089174" lon="05.937281"><ele>161.6</ele><time>2024-02-22T11:25:45Z</time><name>PT2914</name></trkpt>
<trkpt lat="52.089184" lon="05.937284"><ele>161.5</ele><time>2024-02-22T11:25:46Z</time><name>PT2915</name></trkpt>
<trkpt lat="52.089194" lon="05.937286"><ele>161.6</ele><time>2024-02-22T11:25:47Z</time><name>PT2916</name></trkpt>
<trkpt lat="52.089204" lon="05.937288"><ele>161.4</ele><time>2024-02-22T11:25:48Z</time><name>PT2917</name></trkpt>
<trkpt lat="52.089216" lon="05.937290"><ele>161.5</ele><time>2024-02-22T11:25:49Z</time><name>PT2918</name></trkpt>
<trkpt lat="52.089231" lon="05.937291"><ele>161.5</ele><time>2024-02-22T11:25:50Z</time><name>PT2919</name></trkpt>
<trkpt lat="52.089243" lon="05.937292"><ele>161.4</ele><time>2024-02-22T11:25:51Z</time><name>PT2920</name></trkpt>
<trkpt lat="52.089253" lon="05.937294"><ele>161.4</ele><time>2024-02-22T11:25:52Z</time><name>PT2921</name></trkpt>
<trkpt lat="52.089266" lon="05.937298"><ele>161.4</ele><time>2024-02-22T11:25:53Z</time><name>PT2922</name></trkpt>
<trkpt lat="52.089275" lon="05.937301"><ele>161.3</ele><time>2024-02-22T11:25:54Z</time><name>PT2923</name></trkpt>
<trkpt lat="52.089286" lon="05.937305"><ele>161.4</ele><time>2024-02-22T11:25:55Z</time><name>PT2924</name></trkpt>
<trkpt lat="52.089296" lon="05.937309"><ele>161.4</ele><time>2024-02-22T11:25:56Z</time><name>PT2925</name></trkpt>
<trkpt lat="52.089306" lon="05.937313"><ele>161.3</ele><time>2024-02-22T11:25:57Z</time><name>PT2926</name></trkpt>
<trkpt lat="52.089318" lon="05.937317"><ele>161.4</ele><time>2024-02-22T11:25:58Z</time><name>PT2927</name></trkpt>
<trkpt lat="52.089330" lon="05.937321"><ele>161.6</ele><time>2024-02-22T11:25:59Z</time><name>PT2928</name></trkpt>
<trkpt lat="52.089341" lon="05.937324"><ele>161.4</ele><time>2024-02-22T11:26:00Z</time><name>PT2929</name></trkpt>
<trkpt lat="52.089355" lon="05.937324"><ele>161.6</ele><time>2024-02-22T11:26:01Z</time><name>PT2930</name></trkpt>
<trkpt lat="52.089365" lon="05.937320"><ele>161.6</ele><time>2024-02-22T11:26:02Z</time><name>PT2931</name></trkpt>
<trkpt lat="52.089375" lon="05.937321"><ele>161.5</ele><time>2024-02-22T11:26:03Z</time><name>PT2932</name></trkpt>
<trkpt lat="52.089387" lon="05.937323"><ele>161.6</ele><time>2024-02-22T11:26:04Z</time><name>PT2933</name></trkpt>
<trkpt lat="52.089396" lon="05.937327"><ele>161.7</ele><time>2024-02-22T11:26:05Z</time><name>PT2934</name></trkpt>
<trkpt lat="52.089405" lon="05.937328"><ele>161.7</ele><time>2024-02-22T11:26:06Z</time><name>PT2935</name></trkpt>
<trkpt lat="52.089415" lon="05.937327"><ele>161.7</ele><time>2024-02-22T11:26:07Z</time><name>PT2936</name></trkpt>
<trkpt lat="52.089420" lon="05.937325"><ele>161.8</ele><time>2024-02-22T11:26:08Z</time><name>PT2937</name></trkpt>
<trkpt lat="52.089428" lon="05.937328"><ele>161.7</ele><time>2024-02-22T11:26:09Z</time><name>PT2938</name></trkpt>
<trkpt lat="52.089439" lon="05.937334"><ele>161.6</ele><time>2024-02-22T11:26:10Z</time><name>PT2939</name></trkpt>
<trkpt lat="52.089449" lon="05.937337"><ele>161.6</ele><time>2024-02-22T11:26:11Z</time><name>PT2940</name></trkpt>
<trkpt lat="52.089459" lon="05.937341"><ele>161.6</ele><time>2024-02-22T11:26:12Z</time><name>PT2941</name></trkpt>
<trkpt lat="52.089467" lon="05.937343"><ele>161.6</ele><time>2024-02-22T11:26:13Z</time><name>PT2942</name></trkpt>
<trkpt lat="52.089476" lon="05.937346"><ele>161.6</ele><time>2024-02-22T11:26:14Z</time><name>PT2943</name></trkpt>
<trkpt lat="52.089486" lon="05.937350"><ele>161.7</ele><time>2024-02-22T11:26:15Z</time><name>PT2944</name></trkpt>
<trkpt lat="52.089496" lon="05.937352"><ele>162</ele><time>2024-02-22T11:26:16Z</time><name>PT2945</name></trkpt>
<trkpt lat="52.089508" lon="05.937355"><ele>162</ele><time>2024-02-22T11:26:17Z</time><name>PT2946</name></trkpt>
<trkpt lat="52.089519" lon="05.937359"><ele>162</ele><time>2024-02-22T11:26:18Z</time><name>PT2947</name></trkpt>
<trkpt lat="52.089531" lon="05.937362"><ele>162</ele><time>2024-02-22T11:26:19Z</time><name>PT2948</name></trkpt>
<trkpt lat="52.089541" lon="05.937365"><ele>162.2</ele><time>2024-02-22T11:26:20Z</time><name>PT2949</name></trkpt>
<trkpt lat="52.089550" lon="05.937367"><ele>162</ele><time>2024-02-22T11:26:21Z</time><name>PT2950</name></trkpt>
<trkpt lat="52.089559" lon="05.937369"><ele>162.3</ele><time>2024-02-22T11:26:22Z</time><name>PT2951</name></trkpt>
<trkpt lat="52.089569" lon="05.937372"><ele>162.3</ele><time>2024-02-22T11:26:23Z</time><name>PT2952</name></trkpt>
<trkpt lat="52.089580" lon="05.937377"><ele>162.2</ele><time>2024-02-22T11:26:24Z</time><name>PT2953</name></trkpt>
<trkpt lat="52.089590" lon="05.937382"><ele>162.3</ele><time>2024-02-22T11:26:25Z</time><name>PT2954</name></trkpt>
<trkpt lat="52.089599" lon="05.937384"><ele>162.3</ele><time>2024-02-22T11:26:26Z</time><name>PT2955</name></trkpt>
<trkpt lat="52.089609" lon="05.937390"><ele>162</ele><time>2024-02-22T11:26:27Z</time><name>PT2956</name></trkpt>
<trkpt lat="52.089618" lon="05.937394"><ele>162.1</ele><time>2024-02-22T11:26:28Z</time><name>PT2957</name></trkpt>
<trkpt lat="52.089629" lon="05.937395"><ele>162.1</ele><time>2024-02-22T11:26:29Z</time><name>PT2958</name></trkpt>
<trkpt lat="52.089641" lon="05.937398"><ele>162.2</ele><time>2024-02-22T11:26:30Z</time><name>PT2959</name></trkpt>
<trkpt lat="52.089652" lon="05.937402"><ele>162.4</ele><time>2024-02-22T11:26:31Z</time><name>PT2960</name></trkpt>
<trkpt lat="52.089662" lon="05.937405"><ele>162.6</ele><time>2024-02-22T11:26:32Z</time><name>PT2961</name></trkpt>
<trkpt lat="52.089672" lon="05.937410"><ele>162.6</ele><time>2024-02-22T11:26:33Z</time><name>PT2962</name></trkpt>
<trkpt lat="52.089681" lon="05.937415"><ele>162.6</ele><time>2024-02-22T11:26:34Z</time><name>PT2963</name></trkpt>
<trkpt lat="52.089692" lon="05.937418"><ele>162.6</ele><time>2024-02-22T11:26:35Z</time><name>PT2964</name></trkpt>
<trkpt lat="52.089701" lon="05.937420"><ele>162.9</ele><time>2024-02-22T11:26:36Z</time><name>PT2965</name></trkpt>
<trkpt lat="52.089710" lon="05.937421"><ele>162.8</ele><time>2024-02-22T11:26:37Z</time><name>PT2966</name></trkpt>
<trkpt lat="52.089719" lon="05.937424"><ele>162.7</ele><time>2024-02-22T11:26:38Z</time><name>PT2967</name></trkpt>
<trkpt lat="52.089728" lon="05.937429"><ele>162.8</ele><time>2024-02-22T11:26:39Z</time><name>PT2968</name></trkpt>
<trkpt lat="52.089736" lon="05.937435"><ele>162.8</ele><time>2024-02-22T11:26:40Z</time><name>PT2969</name></trkpt>
<trkpt lat="52.089745" lon="05.937440"><ele>162.7</ele><time>2024-02-22T11:26:41Z</time><name>PT2970</name></trkpt>
<trkpt lat="52.089756" lon="05.937444"><ele>162.8</ele><time>2024-02-22T11:26:42Z</time><name>PT2971</name></trkpt>
<trkpt lat="52.089767" lon="05.937447"><ele>163.1</ele><time>2024-02-22T11:26:43Z</time><name>PT2972</name></trkpt>
<trkpt lat="52.089779" lon="05.937450"><ele>163</ele><time>2024-02-22T11:26:44Z</time><name>PT2973</name></trkpt>
<trkpt lat="52.089788" lon="05.937455"><ele>163.1</ele><time>2024-02-22T11:26:45Z</time><name>PT2974</name></trkpt>
<trkpt lat="52.089798" lon="05.937459"><ele>163.1</ele><time>2024-02-22T11:26:46Z</time><name>PT2975</name></trkpt>
<trkpt lat="52.089809" lon="05.937461"><ele>163</ele><time>2024-02-22T11:26:47Z</time><name>PT2976</name></trkpt>
<trkpt lat="52.089819" lon="05.937466"><ele>162.8</ele><time>2024-02-22T11:26:48Z</time><name>PT2977</name></trkpt>
<trkpt lat="52.089828" lon="05.937468"><ele>162.8</ele><time>2024-02-22T11:26:49Z</time><name>PT2978</name></trkpt>
<trkpt lat="52.089838" lon="05.937470"><ele>162.8</ele><time>2024-02-22T11:26:50Z</time><name>PT2979</name></trkpt>
<trkpt lat="52.089850" lon="05.937473"><ele>162.8</ele><time>2024-02-22T11:26:51Z</time><name>PT2980</name></trkpt>
<trkpt lat="52.089860" lon="05.937476"><ele>162.7</ele><time>2024-02-22T11:26:52Z</time><name>PT2981</name></trkpt>
<trkpt lat="52.089870" lon="05.937480"><ele>162.7</ele><time>2024-02-22T11:26:53Z</time><name>PT2982</name></trkpt>
<trkpt lat="52.089880" lon="05.937485"><ele>162.9</ele><time>2024-02-22T11:26:54Z</time><name>PT2983</name></trkpt>
<trkpt lat="52.089888" lon="05.937490"><ele>163.1</ele><time>2024-02-22T11:26:55Z</time><name>PT2984</name></trkpt>
<trkpt lat="52.089899" lon="05.937489"><ele>163.1</ele><time>2024-02-22T11:26:56Z</time><name>PT2985</name></trkpt>
<trkpt lat="52.089907" lon="05.937491"><ele>163.2</ele><time>2024-02-22T11:26:57Z</time><name>PT2986</name></trkpt>
<trkpt lat="52.089915" lon="05.937496"><ele>163.2</ele><time>2024-02-22T11:26:58Z</time><name>PT2987</name></trkpt>
<trkpt lat="52.089922" lon="05.937500"><ele>163.3</ele><time>2024-02-22T11:26:59Z</time><name>PT2988</name></trkpt>
<trkpt lat="52.089929" lon="05.937501"><ele>163.3</ele><time>2024-02-22T11:27:00Z</time><name>PT2989</name></trkpt>
<trkpt lat="52.089935" lon="05.937504"><ele>163.3</ele><time>2024-02-22T11:27:01Z</time><name>PT2990</name></trkpt>
<trkpt lat="52.089939" lon="05.937506"><ele>163.3</ele><time>2024-02-22T11:27:02Z</time><name>PT2991</name></trkpt>
<trkpt lat="52.089940" lon="05.937506"><ele>163.5</ele><time>2024-02-22T11:27:03Z</time><name>PT2992</name></trkpt>
<trkpt lat="52.089941" lon="05.937506"><ele>163.7</ele><time>2024-02-22T11:27:04Z</time><name>PT2993</name></trkpt>
<trkpt lat="52.089943" lon="05.937507"><ele>163.7</ele><time>2024-02-22T11:27:05Z</time><name>PT2994</name></trkpt>
<trkpt lat="52.089948" lon="05.937507"><ele>163.7</ele><time>2024-02-22T11:27:06Z</time><name>PT2995</name></trkpt>
<trkpt lat="52.089955" lon="05.937508"><ele>163.7</ele><time>2024-02-22T11:27:07Z</time><name>PT2996</name></trkpt>
<trkpt lat="52.089962" lon="05.937508"><ele>163.7</ele><time>2024-02-22T11:27:08Z</time><name>PT2997</name></trkpt>
<trkpt lat="52.089970" lon="05.937507"><ele>163.7</ele><time>2024-02-22T11:27:09Z</time><name>PT2998</name></trkpt>
<trkpt lat="52.089978" lon="05.937504"><ele>163.8</ele><time>2024-02-22T11:27:10Z</time><name>PT2999</name></trkpt>
<trkpt lat="52.089986" lon="05.937503"><ele>163.9</ele><time>2024-02-22T11:27:11Z</time><name>PT3000</name></trkpt>
<trkpt lat="52.089992" lon="05.937500"><ele>164.1</ele><time>2024-02-22T11:27:12Z</time><name>PT3001</name></trkpt>
<trkpt lat="52.090000" lon="05.937492"><ele>164.3</ele><time>2024-02-22T11:27:13Z</time><name>PT3002</name></trkpt>
<trkpt lat="52.090005" lon="05.937485"><ele>164.2</ele><time>2024-02-22T11:27:14Z</time><name>PT3003</name></trkpt>
<trkpt lat="52.090011" lon="05.937477"><ele>164.1</ele><time>2024-02-22T11:27:15Z</time><name>PT3004</name></trkpt>
<trkpt lat="52.090015" lon="05.937469"><ele>164.2</ele><time>2024-02-22T11:27:16Z</time><name>PT3005</name></trkpt>
<trkpt lat="52.090017" lon="05.937460"><ele>164.3</ele><time>2024-02-22T11:27:17Z</time><name>PT3006</name></trkpt>
<trkpt lat="52.090019" lon="05.937456"><ele>164.3</ele><time>2024-02-22T11:27:18Z</time><name>PT3007</name></trkpt>
<trkpt lat="52.090021" lon="05.937454"><ele>164.3</ele><time>2024-02-22T11:27:19Z</time><name>PT3008</name></trkpt>
<trkpt lat="52.090022" lon="05.937455"><ele>164.4</ele><time>2024-02-22T11:27:20Z</time><name>PT3009</name></trkpt>
<trkpt lat="52.090025" lon="05.937447"><ele>164</ele><time>2024-02-22T11:27:23Z</time><name>PT3010</name></trkpt>
<trkpt lat="52.090034" lon="05.937430"><ele>163.9</ele><time>2024-02-22T11:27:24Z</time><name>PT3011</name></trkpt>
<trkpt lat="52.090039" lon="05.937418"><ele>164</ele><time>2024-02-22T11:27:25Z</time><name>PT3012</name></trkpt>
<trkpt lat="52.090043" lon="05.937404"><ele>164</ele><time>2024-02-22T11:27:26Z</time><name>PT3013</name></trkpt>
<trkpt lat="52.090047" lon="05.937391"><ele>164</ele><time>2024-02-22T11:27:27Z</time><name>PT3014</name></trkpt>
<trkpt lat="52.090051" lon="05.937374"><ele>163.9</ele><time>2024-02-22T11:27:28Z</time><name>PT3015</name></trkpt>
<trkpt lat="52.090056" lon="05.937359"><ele>164.1</ele><time>2024-02-22T11:27:29Z</time><name>PT3016</name></trkpt>
<trkpt lat="52.090060" lon="05.937346"><ele>163.8</ele><time>2024-02-22T11:27:30Z</time><name>PT3017</name></trkpt>
<trkpt lat="52.090063" lon="05.937331"><ele>163.9</ele><time>2024-02-22T11:27:31Z</time><name>PT3018</name></trkpt>
<trkpt lat="52.090067" lon="05.937318"><ele>163.7</ele><time>2024-02-22T11:27:32Z</time><name>PT3019</name></trkpt>
<trkpt lat="52.090072" lon="05.937302"><ele>163.9</ele><time>2024-02-22T11:27:33Z</time><name>PT3020</name></trkpt>
<trkpt lat="52.090075" lon="05.937288"><ele>163.9</ele><time>2024-02-22T11:27:34Z</time><name>PT3021</name></trkpt>
<trkpt lat="52.090079" lon="05.937273"><ele>164.1</ele><time>2024-02-22T11:27:35Z</time><name>PT3022</name></trkpt>
<trkpt lat="52.090081" lon="05.937258"><ele>164.1</ele><time>2024-02-22T11:27:36Z</time><name>PT3023</name></trkpt>
<trkpt lat="52.090085" lon="05.937238"><ele>164.1</ele><time>2024-02-22T11:27:37Z</time><name>PT3024</name></trkpt>
<trkpt lat="52.090089" lon="05.937219"><ele>164.2</ele><time>2024-02-22T11:27:38Z</time><name>PT3025</name></trkpt>
<trkpt lat="52.090092" lon="05.937206"><ele>164</ele><time>2024-02-22T11:27:39Z</time><name>PT3026</name></trkpt>
<trkpt lat="52.090096" lon="05.937192"><ele>164</ele><time>2024-02-22T11:27:40Z</time><name>PT3027</name></trkpt>
<trkpt lat="52.090100" lon="05.937178"><ele>164</ele><time>2024-02-22T11:27:41Z</time><name>PT3028</name></trkpt>
<trkpt lat="52.090103" lon="05.937166"><ele>164.1</ele><time>2024-02-22T11:27:42Z</time><name>PT3029</name></trkpt>
<trkpt lat="52.090107" lon="05.937151"><ele>164.2</ele><time>2024-02-22T11:27:43Z</time><name>PT3030</name></trkpt>
<trkpt lat="52.090112" lon="05.937136"><ele>164.3</ele><time>2024-02-22T11:27:44Z</time><name>PT3031</name></trkpt>
<trkpt lat="52.090116" lon="05.937124"><ele>164.4</ele><time>2024-02-22T11:27:45Z</time><name>PT3032</name></trkpt>
<trkpt lat="52.090119" lon="05.937114"><ele>164.4</ele><time>2024-02-22T11:27:46Z</time><name>PT3033</name></trkpt>
<trkpt lat="52.090121" lon="05.937109"><ele>164.2</ele><time>2024-02-22T11:27:47Z</time><name>PT3034</name></trkpt>
<trkpt lat="52.090123" lon="05.937104"><ele>163.9</ele><time>2024-02-22T11:27:48Z</time><name>PT3035</name></trkpt>
<trkpt lat="52.090125" lon="05.937099"><ele>163.8</ele><time>2024-02-22T11:27:50Z</time><name>PT3036</name></trkpt>
<trkpt lat="52.090129" lon="05.937090"><ele>163.7</ele><time>2024-02-22T11:27:50Z</time><name>PT3037</name></trkpt>
<trkpt lat="52.090131" lon="05.937080"><ele>163.8</ele><time>2024-02-22T11:27:51Z</time><name>PT3038</name></trkpt>
<trkpt lat="52.090136" lon="05.937068"><ele>163.9</ele><time>2024-02-22T11:27:52Z</time><name>PT3039</name></trkpt>
<trkpt lat="52.090140" lon="05.937052"><ele>164.1</ele><time>2024-02-22T11:27:53Z</time><name>PT3040</name></trkpt>
<trkpt lat="52.090144" lon="05.937036"><ele>164.1</ele><time>2024-02-22T11:27:54Z</time><name>PT3041</name></trkpt>
<trkpt lat="52.090148" lon="05.937023"><ele>164</ele><time>2024-02-22T11:27:55Z</time><name>PT3042</name></trkpt>
<trkpt lat="52.090152" lon="05.937007"><ele>163.9</ele><time>2024-02-22T11:27:56Z</time><name>PT3043</name></trkpt>
<trkpt lat="52.090157" lon="05.936992"><ele>163.9</ele><time>2024-02-22T11:27:57Z</time><name>PT3044</name></trkpt>
<trkpt lat="52.090161" lon="05.936975"><ele>164</ele><time>2024-02-22T11:27:58Z</time><name>PT3045</name></trkpt>
<trkpt lat="52.090164" lon="05.936957"><ele>164</ele><time>2024-02-22T11:27:59Z</time><name>PT3046</name></trkpt>
<trkpt lat="52.090169" lon="05.936938"><ele>164</ele><time>2024-02-22T11:28:00Z</time><name>PT3047</name></trkpt>
<trkpt lat="52.090173" lon="05.936919"><ele>164.2</ele><time>2024-02-22T11:28:01Z</time><name>PT3048</name></trkpt>
<trkpt lat="52.090179" lon="05.936897"><ele>164.2</ele><time>2024-02-22T11:28:02Z</time><name>PT3049</name></trkpt>
<trkpt lat="52.090185" lon="05.936876"><ele>164.1</ele><time>2024-02-22T11:28:03Z</time><name>PT3050</name></trkpt>
<trkpt lat="52.090192" lon="05.936858"><ele>164.2</ele><time>2024-02-22T11:28:04Z</time><name>PT3051</name></trkpt>
<trkpt lat="52.090195" lon="05.936835"><ele>164.3</ele><time>2024-02-22T11:28:05Z</time><name>PT3052</name></trkpt>
<trkpt lat="52.090197" lon="05.936819"><ele>164.4</ele><time>2024-02-22T11:28:06Z</time><name>PT3053</name></trkpt>
<trkpt lat="52.090201" lon="05.936806"><ele>164.5</ele><time>2024-02-22T11:28:07Z</time><name>PT3054</name></trkpt>
<trkpt lat="52.090205" lon="05.936796"><ele>164.5</ele><time>2024-02-22T11:28:08Z</time><name>PT3055</name></trkpt>
<trkpt lat="52.090210" lon="05.936781"><ele>164.6</ele><time>2024-02-22T11:28:09Z</time><name>PT3056</name></trkpt>
<trkpt lat="52.090214" lon="05.936768"><ele>164.4</ele><time>2024-02-22T11:28:10Z</time><name>PT3057</name></trkpt>
<trkpt lat="52.090217" lon="05.936754"><ele>164.3</ele><time>2024-02-22T11:28:11Z</time><name>PT3058</name></trkpt>
<trkpt lat="52.090220" lon="05.936741"><ele>164.1</ele><time>2024-02-22T11:28:12Z</time><name>PT3059</name></trkpt>
<trkpt lat="52.090223" lon="05.936720"><ele>164.2</ele><time>2024-02-22T11:28:14Z</time><name>PT3060</name></trkpt>
<trkpt lat="52.090225" lon="05.936700"><ele>164.1</ele><time>2024-02-22T11:28:14Z</time><name>PT3061</name></trkpt>
<trkpt lat="52.090228" lon="05.936673"><ele>164.1</ele><time>2024-02-22T11:28:15Z</time><name>PT3062</name></trkpt>
<trkpt lat="52.090229" lon="05.936651"><ele>164.1</ele><time>2024-02-22T11:28:16Z</time><name>PT3063</name></trkpt>
<trkpt lat="52.090238" lon="05.936624"><ele>164.1</ele><time>2024-02-22T11:28:17Z</time><name>PT3064</name></trkpt>
<trkpt lat="52.090249" lon="05.936594"><ele>164</ele><time>2024-02-22T11:28:18Z</time><name>PT3065</name></trkpt>
<trkpt lat="52.090254" lon="05.936579"><ele>164</ele><time>2024-02-22T11:28:20Z</time><name>PT3066</name></trkpt>
<trkpt lat="52.090265" lon="05.936561"><ele>163.9</ele><time>2024-02-22T11:28:20Z</time><name>PT3067</name></trkpt>
<trkpt lat="52.090270" lon="05.936539"><ele>164</ele><time>2024-02-22T11:28:21Z</time><name>PT3068</name></trkpt>
<trkpt lat="52.090275" lon="05.936520"><ele>163.9</ele><time>2024-02-22T11:28:22Z</time><name>PT3069</name></trkpt>
<trkpt lat="52.090275" lon="05.936508"><ele>163.9</ele><time>2024-02-22T11:28:23Z</time><name>PT3070</name></trkpt>
<trkpt lat="52.090276" lon="05.936497"><ele>164</ele><time>2024-02-22T11:28:24Z</time><name>PT3071</name></trkpt>
<trkpt lat="52.090274" lon="05.936489"><ele>164.1</ele><time>2024-02-22T11:28:25Z</time><name>PT3072</name></trkpt>
<trkpt lat="52.090273" lon="05.936478"><ele>164.1</ele><time>2024-02-22T11:28:26Z</time><name>PT3073</name></trkpt>
<trkpt lat="52.090277" lon="05.936471"><ele>164.2</ele><time>2024-02-22T11:28:27Z</time><name>PT3074</name></trkpt>
<trkpt lat="52.090279" lon="05.936462"><ele>164.2</ele><time>2024-02-22T11:28:29Z</time><name>PT3075</name></trkpt>
<trkpt lat="52.090280" lon="05.936452"><ele>164.3</ele><time>2024-02-22T11:28:29Z</time><name>PT3076</name></trkpt>
<trkpt lat="52.090285" lon="05.936436"><ele>164.5</ele><time>2024-02-22T11:28:30Z</time><name>PT3077</name></trkpt>
<trkpt lat="52.090288" lon="05.936418"><ele>164.4</ele><time>2024-02-22T11:28:31Z</time><name>PT3078</name></trkpt>
<trkpt lat="52.090291" lon="05.936398"><ele>164.4</ele><time>2024-02-22T11:28:32Z</time><name>PT3079</name></trkpt>
<trkpt lat="52.090292" lon="05.936377"><ele>164.5</ele><time>2024-02-22T11:28:33Z</time><name>PT3080</name></trkpt>
<trkpt lat="52.090296" lon="05.936359"><ele>164.8</ele><time>2024-02-22T11:28:34Z</time><name>PT3081</name></trkpt>
<trkpt lat="52.090299" lon="05.936337"><ele>164.7</ele><time>2024-02-22T11:28:35Z</time><name>PT3082</name></trkpt>
<trkpt lat="52.090304" lon="05.936320"><ele>164.7</ele><time>2024-02-22T11:28:36Z</time><name>PT3083</name></trkpt>
<trkpt lat="52.090306" lon="05.936306"><ele>164.7</ele><time>2024-02-22T11:28:37Z</time><name>PT3084</name></trkpt>
<trkpt lat="52.090310" lon="05.936293"><ele>164.7</ele><time>2024-02-22T11:28:38Z</time><name>PT3085</name></trkpt>
<trkpt lat="52.090315" lon="05.936277"><ele>164.5</ele><time>2024-02-22T11:28:39Z</time><name>PT3086</name></trkpt>
<trkpt lat="52.090320" lon="05.936268"><ele>164.5</ele><time>2024-02-22T11:28:40Z</time><name>PT3087</name></trkpt>
<trkpt lat="52.090322" lon="05.936248"><ele>164.5</ele><time>2024-02-22T11:28:41Z</time><name>PT3088</name></trkpt>
<trkpt lat="52.090328" lon="05.936231"><ele>164.3</ele><time>2024-02-22T11:28:42Z</time><name>PT3089</name></trkpt>
<trkpt lat="52.090329" lon="05.936212"><ele>164.1</ele><time>2024-02-22T11:28:44Z</time><name>PT3090</name></trkpt>
<trkpt lat="52.090328" lon="05.936196"><ele>164.1</ele><time>2024-02-22T11:28:44Z</time><name>PT3091</name></trkpt>
<trkpt lat="52.090332" lon="05.936184"><ele>164</ele><time>2024-02-22T11:28:45Z</time><name>PT3092</name></trkpt>
<trkpt lat="52.090334" lon="05.936170"><ele>164.1</ele><time>2024-02-22T11:28:46Z</time><name>PT3093</name></trkpt>
<trkpt lat="52.090341" lon="05.936157"><ele>164.1</ele><time>2024-02-22T11:28:47Z</time><name>PT3094</name></trkpt>
<trkpt lat="52.090349" lon="05.936136"><ele>164.3</ele><time>2024-02-22T11:28:48Z</time><name>PT3095</name></trkpt>
<trkpt lat="52.090348" lon="05.936124"><ele>164.3</ele><time>2024-02-22T11:28:49Z</time><name>PT3096</name></trkpt>
<trkpt lat="52.090347" lon="05.936118"><ele>164.3</ele><time>2024-02-22T11:28:50Z</time><name>PT3097</name></trkpt>
<trkpt lat="52.090354" lon="05.936090"><ele>164.3</ele><time>2024-02-22T11:28:51Z</time><name>PT3098</name></trkpt>
<trkpt lat="52.090362" lon="05.936062"><ele>164.3</ele><time>2024-02-22T11:28:52Z</time><name>PT3099</name></trkpt>
<trkpt lat="52.090375" lon="05.936035"><ele>164.3</ele><time>2024-02-22T11:28:53Z</time><name>PT3100</name></trkpt>
<trkpt lat="52.090385" lon="05.936009"><ele>164.4</ele><time>2024-02-22T11:28:54Z</time><name>PT3101</name></trkpt>
<trkpt lat="52.090392" lon="05.935988"><ele>164.6</ele><time>2024-02-22T11:28:55Z</time><name>PT3102</name></trkpt>
<trkpt lat="52.090394" lon="05.935974"><ele>164.7</ele><time>2024-02-22T11:28:56Z</time><name>PT3103</name></trkpt>
<trkpt lat="52.090398" lon="05.935959"><ele>164.7</ele><time>2024-02-22T11:28:57Z</time><name>PT3104</name></trkpt>
<trkpt lat="52.090403" lon="05.935954"><ele>164.8</ele><time>2024-02-22T11:28:58Z</time><name>PT3105</name></trkpt>
<trkpt lat="52.090401" lon="05.935945"><ele>164.9</ele><time>2024-02-22T11:28:59Z</time><name>PT3106</name></trkpt>
<trkpt lat="52.090404" lon="05.935934"><ele>164.7</ele><time>2024-02-22T11:29:00Z</time><name>PT3107</name></trkpt>
<trkpt lat="52.090405" lon="05.935916"><ele>164.7</ele><time>2024-02-22T11:29:01Z</time><name>PT3108</name></trkpt>
<trkpt lat="52.090412" lon="05.935892"><ele>164.5</ele><time>2024-02-22T11:29:02Z</time><name>PT3109</name></trkpt>
<trkpt lat="52.090422" lon="05.935864"><ele>164.7</ele><time>2024-02-22T11:29:03Z</time><name>PT3110</name></trkpt>
<trkpt lat="52.090428" lon="05.935827"><ele>164.7</ele><time>2024-02-22T11:29:04Z</time><name>PT3111</name></trkpt>
<trkpt lat="52.090436" lon="05.935796"><ele>164.8</ele><time>2024-02-22T11:29:05Z</time><name>PT3112</name></trkpt>
<trkpt lat="52.090443" lon="05.935776"><ele>164.9</ele><time>2024-02-22T11:29:06Z</time><name>PT3113</name></trkpt>
<trkpt lat="52.090451" lon="05.935761"><ele>164.9</ele><time>2024-02-22T11:29:07Z</time><name>PT3114</name></trkpt>
<trkpt lat="52.090455" lon="05.935742"><ele>164.8</ele><time>2024-02-22T11:29:08Z</time><name>PT3115</name></trkpt>
<trkpt lat="52.090458" lon="05.935728"><ele>164.9</ele><time>2024-02-22T11:29:09Z</time><name>PT3116</name></trkpt>
<trkpt lat="52.090461" lon="05.935715"><ele>164.9</ele><time>2024-02-22T11:29:10Z</time><name>PT3117</name></trkpt>
<trkpt lat="52.090465" lon="05.935698"><ele>165.1</ele><time>2024-02-22T11:29:11Z</time><name>PT3118</name></trkpt>
<trkpt lat="52.090470" lon="05.935679"><ele>165.2</ele><time>2024-02-22T11:29:12Z</time><name>PT3119</name></trkpt>
<trkpt lat="52.090477" lon="05.935653"><ele>165.2</ele><time>2024-02-22T11:29:13Z</time><name>PT3120</name></trkpt>
<trkpt lat="52.090486" lon="05.935631"><ele>165.4</ele><time>2024-02-22T11:29:14Z</time><name>PT3121</name></trkpt>
<trkpt lat="52.090496" lon="05.935617"><ele>165.3</ele><time>2024-02-22T11:29:15Z</time><name>PT3122</name></trkpt>
<trkpt lat="52.090502" lon="05.935606"><ele>165.3</ele><time>2024-02-22T11:29:16Z</time><name>PT3123</name></trkpt>
<trkpt lat="52.090505" lon="05.935593"><ele>165.3</ele><time>2024-02-22T11:29:17Z</time><name>PT3124</name></trkpt>
<trkpt lat="52.090510" lon="05.935582"><ele>165.4</ele><time>2024-02-22T11:29:18Z</time><name>PT3125</name></trkpt>
<trkpt lat="52.090515" lon="05.935572"><ele>165.3</ele><time>2024-02-22T11:29:19Z</time><name>PT3126</name></trkpt>
<trkpt lat="52.090520" lon="05.935560"><ele>165.2</ele><time>2024-02-22T11:29:20Z</time><name>PT3127</name></trkpt>
<trkpt lat="52.090525" lon="05.935542"><ele>165.3</ele><time>2024-02-22T11:29:21Z</time><name>PT3128</name></trkpt>
<trkpt lat="52.090536" lon="05.935510"><ele>165.1</ele><time>2024-02-22T11:29:22Z</time><name>PT3129</name></trkpt>
<trkpt lat="52.090542" lon="05.935489"><ele>165.1</ele><time>2024-02-22T11:29:23Z</time><name>PT3130</name></trkpt>
<trkpt lat="52.090547" lon="05.935474"><ele>165.1</ele><time>2024-02-22T11:29:24Z</time><name>PT3131</name></trkpt>
<trkpt lat="52.090553" lon="05.935460"><ele>165.3</ele><time>2024-02-22T11:29:25Z</time><name>PT3132</name></trkpt>
<trkpt lat="52.090556" lon="05.935443"><ele>165.3</ele><time>2024-02-22T11:29:26Z</time><name>PT3133</name></trkpt>
<trkpt lat="52.090564" lon="05.935435"><ele>165.4</ele><time>2024-02-22T11:29:27Z</time><name>PT3134</name></trkpt>
<trkpt lat="52.090569" lon="05.935424"><ele>165.8</ele><time>2024-02-22T11:29:28Z</time><name>PT3135</name></trkpt>
<trkpt lat="52.090576" lon="05.935413"><ele>165.9</ele><time>2024-02-22T11:29:29Z</time><name>PT3136</name></trkpt>
<trkpt lat="52.090578" lon="05.935401"><ele>165.9</ele><time>2024-02-22T11:29:30Z</time><name>PT3137</name></trkpt>
<trkpt lat="52.090583" lon="05.935392"><ele>165.8</ele><time>2024-02-22T11:29:31Z</time><name>PT3138</name></trkpt>
<trkpt lat="52.090587" lon="05.935379"><ele>165.9</ele><time>2024-02-22T11:29:32Z</time><name>PT3139</name></trkpt>
<trkpt lat="52.090591" lon="05.935368"><ele>165.9</ele><time>2024-02-22T11:29:33Z</time><name>PT3140</name></trkpt>
<trkpt lat="52.090596" lon="05.935353"><ele>166</ele><time>2024-02-22T11:29:34Z</time><name>PT3141</name></trkpt>
<trkpt lat="52.090599" lon="05.935338"><ele>166.1</ele><time>2024-02-22T11:29:35Z</time><name>PT3142</name></trkpt>
<trkpt lat="52.090604" lon="05.935320"><ele>166.3</ele><time>2024-02-22T11:29:36Z</time><name>PT3143</name></trkpt>
<trkpt lat="52.090607" lon="05.935306"><ele>166.5</ele><time>2024-02-22T11:29:37Z</time><name>PT3144</name></trkpt>
<trkpt lat="52.090613" lon="05.935296"><ele>166.6</ele><time>2024-02-22T11:29:38Z</time><name>PT3145</name></trkpt>
<trkpt lat="52.090618" lon="05.935284"><ele>166.7</ele><time>2024-02-22T11:29:39Z</time><name>PT3146</name></trkpt>
<trkpt lat="52.090621" lon="05.935270"><ele>166.6</ele><time>2024-02-22T11:29:40Z</time><name>PT3147</name></trkpt>
<trkpt lat="52.090626" lon="05.935254"><ele>166.8</ele><time>2024-02-22T11:29:41Z</time><name>PT3148</name></trkpt>
<trkpt lat="52.090629" lon="05.935237"><ele>166.8</ele><time>2024-02-22T11:29:42Z</time><name>PT3149</name></trkpt>
<trkpt lat="52.090633" lon="05.935221"><ele>166.8</ele><time>2024-02-22T11:29:43Z</time><name>PT3150</name></trkpt>
<trkpt lat="52.090637" lon="05.935205"><ele>166.8</ele><time>2024-02-22T11:29:44Z</time><name>PT3151</name></trkpt>
<trkpt lat="52.090639" lon="05.935189"><ele>166.8</ele><time>2024-02-22T11:29:45Z</time><name>PT3152</name></trkpt>
<trkpt lat="52.090641" lon="05.935176"><ele>166.7</ele><time>2024-02-22T11:29:46Z</time><name>PT3153</name></trkpt>
<trkpt lat="52.090641" lon="05.935161"><ele>166.7</ele><time>2024-02-22T11:29:47Z</time><name>PT3154</name></trkpt>
<trkpt lat="52.090644" lon="05.935143"><ele>166.7</ele><time>2024-02-22T11:29:48Z</time><name>PT3155</name></trkpt>
<trkpt lat="52.090648" lon="05.935131"><ele>166.6</ele><time>2024-02-22T11:29:49Z</time><name>PT3156</name></trkpt>
<trkpt lat="52.090651" lon="05.935113"><ele>166.8</ele><time>2024-02-22T11:29:50Z</time><name>PT3157</name></trkpt>
<trkpt lat="52.090658" lon="05.935090"><ele>166.8</ele><time>2024-02-22T11:29:51Z</time><name>PT3158</name></trkpt>
<trkpt lat="52.090665" lon="05.935071"><ele>166.9</ele><time>2024-02-22T11:29:52Z</time><name>PT3159</name></trkpt>
<trkpt lat="52.090671" lon="05.935053"><ele>166.9</ele><time>2024-02-22T11:29:53Z</time><name>PT3160</name></trkpt>
<trkpt lat="52.090677" lon="05.935043"><ele>167.1</ele><time>2024-02-22T11:29:54Z</time><name>PT3161</name></trkpt>
<trkpt lat="52.090678" lon="05.935037"><ele>167</ele><time>2024-02-22T11:29:55Z</time><name>PT3162</name></trkpt>
<trkpt lat="52.090680" lon="05.935032"><ele>167.2</ele><time>2024-02-22T11:29:56Z</time><name>PT3163</name></trkpt>
<trkpt lat="52.090684" lon="05.935016"><ele>167.2</ele><time>2024-02-22T11:29:57Z</time><name>PT3164</name></trkpt>
<trkpt lat="52.090691" lon="05.934992"><ele>167.2</ele><time>2024-02-22T11:29:58Z</time><name>PT3165</name></trkpt>
<trkpt lat="52.090697" lon="05.934966"><ele>167.3</ele><time>2024-02-22T11:29:59Z</time><name>PT3166</name></trkpt>
<trkpt lat="52.090704" lon="05.934947"><ele>167.4</ele><time>2024-02-22T11:30:00Z</time><name>PT3167</name></trkpt>
<trkpt lat="52.090712" lon="05.934933"><ele>167.5</ele><time>2024-02-22T11:30:01Z</time><name>PT3168</name></trkpt>
<trkpt lat="52.090714" lon="05.934927"><ele>167.5</ele><time>2024-02-22T11:30:02Z</time><name>PT3169</name></trkpt>
<trkpt lat="52.090715" lon="05.934922"><ele>167.3</ele><time>2024-02-22T11:30:03Z</time><name>PT3170</name></trkpt>
<trkpt lat="52.090722" lon="05.934909"><ele>167.4</ele><time>2024-02-22T11:30:04Z</time><name>PT3171</name></trkpt>
<trkpt lat="52.090728" lon="05.934893"><ele>167.3</ele><time>2024-02-22T11:30:05Z</time><name>PT3172</name></trkpt>
<trkpt lat="52.090730" lon="05.934877"><ele>167.4</ele><time>2024-02-22T11:30:06Z</time><name>PT3173</name></trkpt>
<trkpt lat="52.090733" lon="05.934863"><ele>167.3</ele><time>2024-02-22T11:30:07Z</time><name>PT3174</name></trkpt>
<trkpt lat="52.090736" lon="05.934849"><ele>167.4</ele><time>2024-02-22T11:30:08Z</time><name>PT3175</name></trkpt>
<trkpt lat="52.090737" lon="05.934835"><ele>167.4</ele><time>2024-02-22T11:30:09Z</time><name>PT3176</name></trkpt>
<trkpt lat="52.090737" lon="05.934822"><ele>167.2</ele><time>2024-02-22T11:30:10Z</time><name>PT3177</name></trkpt>
<trkpt lat="52.090748" lon="05.934807"><ele>167.3</ele><time>2024-02-22T11:30:11Z</time><name>PT3178</name></trkpt>
<trkpt lat="52.090754" lon="05.934790"><ele>167.3</ele><time>2024-02-22T11:30:12Z</time><name>PT3179</name></trkpt>
<trkpt lat="52.090759" lon="05.934770"><ele>167.4</ele><time>2024-02-22T11:30:13Z</time><name>PT3180</name></trkpt>
<trkpt lat="52.090764" lon="05.934756"><ele>167.5</ele><time>2024-02-22T11:30:14Z</time><name>PT3181</name></trkpt>
<trkpt lat="52.090763" lon="05.934744"><ele>167.6</ele><time>2024-02-22T11:30:15Z</time><name>PT3182</name></trkpt>
<trkpt lat="52.090763" lon="05.934732"><ele>167.6</ele><time>2024-02-22T11:30:16Z</time><name>PT3183</name></trkpt>
<trkpt lat="52.090769" lon="05.934721"><ele>167.7</ele><time>2024-02-22T11:30:17Z</time><name>PT3184</name></trkpt>
<trkpt lat="52.090772" lon="05.934707"><ele>167.5</ele><time>2024-02-22T11:30:18Z</time><name>PT3185</name></trkpt>
<trkpt lat="52.090775" lon="05.934692"><ele>167.3</ele><time>2024-02-22T11:30:19Z</time><name>PT3186</name></trkpt>
<trkpt lat="52.090779" lon="05.934675"><ele>167.3</ele><time>2024-02-22T11:30:20Z</time><name>PT3187</name></trkpt>
<trkpt lat="52.090787" lon="05.934661"><ele>167.3</ele><time>2024-02-22T11:30:21Z</time><name>PT3188</name></trkpt>
<trkpt lat="52.090789" lon="05.934649"><ele>167.3</ele><time>2024-02-22T11:30:22Z</time><name>PT3189</name></trkpt>
<trkpt lat="52.090790" lon="05.934635"><ele>167.4</ele><time>2024-02-22T11:30:23Z</time><name>PT3190</name></trkpt>
<trkpt lat="52.090793" lon="05.934617"><ele>167.4</ele><time>2024-02-22T11:30:24Z</time><name>PT3191</name></trkpt>
<trkpt lat="52.090796" lon="05.934601"><ele>167.4</ele><time>2024-02-22T11:30:25Z</time><name>PT3192</name></trkpt>
<trkpt lat="52.090800" lon="05.934585"><ele>167.2</ele><time>2024-02-22T11:30:26Z</time><name>PT3193</name></trkpt>
<trkpt lat="52.090803" lon="05.934575"><ele>167.2</ele><time>2024-02-22T11:30:27Z</time><name>PT3194</name></trkpt>
<trkpt lat="52.090807" lon="05.934560"><ele>167.2</ele><time>2024-02-22T11:30:28Z</time><name>PT3195</name></trkpt>
<trkpt lat="52.090811" lon="05.934542"><ele>167.2</ele><time>2024-02-22T11:30:29Z</time><name>PT3196</name></trkpt>
<trkpt lat="52.090818" lon="05.934525"><ele>167.2</ele><time>2024-02-22T11:30:30Z</time><name>PT3197</name></trkpt>
<trkpt lat="52.090823" lon="05.934505"><ele>167.2</ele><time>2024-02-22T11:30:31Z</time><name>PT3198</name></trkpt>
<trkpt lat="52.090819" lon="05.934487"><ele>167.2</ele><time>2024-02-22T11:30:32Z</time><name>PT3199</name></trkpt>
<trkpt lat="52.090822" lon="05.934471"><ele>167</ele><time>2024-02-22T11:30:33Z</time><name>PT3200</name></trkpt>
<trkpt lat="52.090827" lon="05.934455"><ele>166.9</ele><time>2024-02-22T11:30:34Z</time><name>PT3201</name></trkpt>
<trkpt lat="52.090830" lon="05.934441"><ele>166.7</ele><time>2024-02-22T11:30:35Z</time><name>PT3202</name></trkpt>
<trkpt lat="52.090832" lon="05.934431"><ele>166.7</ele><time>2024-02-22T11:30:36Z</time><name>PT3203</name></trkpt>
<trkpt lat="52.090834" lon="05.934416"><ele>166.7</ele><time>2024-02-22T11:30:37Z</time><name>PT3204</name></trkpt>
<trkpt lat="52.090838" lon="05.934399"><ele>166.9</ele><time>2024-02-22T11:30:38Z</time><name>PT3205</name></trkpt>
<trkpt lat="52.090835" lon="05.934385"><ele>166.8</ele><time>2024-02-22T11:30:39Z</time><name>PT3206</name></trkpt>
<trkpt lat="52.090840" lon="05.934373"><ele>166.8</ele><time>2024-02-22T11:30:40Z</time><name>PT3207</name></trkpt>
<trkpt lat="52.090842" lon="05.934365"><ele>166.6</ele><time>2024-02-22T11:30:41Z</time><name>PT3208</name></trkpt>
<trkpt lat="52.090845" lon="05.934357"><ele>166.5</ele><time>2024-02-22T11:30:42Z</time><name>PT3209</name></trkpt>
<trkpt lat="52.090848" lon="05.934343"><ele>166.5</ele><time>2024-02-22T11:30:43Z</time><name>PT3210</name></trkpt>
<trkpt lat="52.090849" lon="05.934321"><ele>166.4</ele><time>2024-02-22T11:30:44Z</time><name>PT3211</name></trkpt>
<trkpt lat="52.090854" lon="05.934304"><ele>166.5</ele><time>2024-02-22T11:30:45Z</time><name>PT3212</name></trkpt>
<trkpt lat="52.090858" lon="05.934284"><ele>166.6</ele><time>2024-02-22T11:30:46Z</time><name>PT3213</name></trkpt>
<trkpt lat="52.090863" lon="05.934269"><ele>166.6</ele><time>2024-02-22T11:30:47Z</time><name>PT3214</name></trkpt>
<trkpt lat="52.090865" lon="05.934259"><ele>166.6</ele><time>2024-02-22T11:30:48Z</time><name>PT3215</name></trkpt>
<trkpt lat="52.090871" lon="05.934250"><ele>166.6</ele><time>2024-02-22T11:30:49Z</time><name>PT3216</name></trkpt>
<trkpt lat="52.090874" lon="05.934243"><ele>166.4</ele><time>2024-02-22T11:30:50Z</time><name>PT3217</name></trkpt>
<trkpt lat="52.090876" lon="05.934226"><ele>166.5</ele><time>2024-02-22T11:30:51Z</time><name>PT3218</name></trkpt>
<trkpt lat="52.090880" lon="05.934209"><ele>166.4</ele><time>2024-02-22T11:30:52Z</time><name>PT3219</name></trkpt>
<trkpt lat="52.090882" lon="05.934203"><ele>166.3</ele><time>2024-02-22T11:30:53Z</time><name>PT3220</name></trkpt>
<trkpt lat="52.090887" lon="05.934192"><ele>166.2</ele><time>2024-02-22T11:30:54Z</time><name>PT3221</name></trkpt>
<trkpt lat="52.090886" lon="05.934179"><ele>166.2</ele><time>2024-02-22T11:30:55Z</time><name>PT3222</name></trkpt>
<trkpt lat="52.090886" lon="05.934169"><ele>166.1</ele><time>2024-02-22T11:30:56Z</time><name>PT3223</name></trkpt>
<trkpt lat="52.090890" lon="05.934159"><ele>166.1</ele><time>2024-02-22T11:30:57Z</time><name>PT3224</name></trkpt>
<trkpt lat="52.090903" lon="05.934146"><ele>166</ele><time>2024-02-22T11:30:58Z</time><name>PT3225</name></trkpt>
<trkpt lat="52.090911" lon="05.934129"><ele>166.1</ele><time>2024-02-22T11:30:59Z</time><name>PT3226</name></trkpt>
<trkpt lat="52.090917" lon="05.934113"><ele>166.1</ele><time>2024-02-22T11:31:00Z</time><name>PT3227</name></trkpt>
<trkpt lat="52.090922" lon="05.934103"><ele>166</ele><time>2024-02-22T11:31:01Z</time><name>PT3228</name></trkpt>
<trkpt lat="52.090924" lon="05.934092"><ele>166</ele><time>2024-02-22T11:31:02Z</time><name>PT3229</name></trkpt>
<trkpt lat="52.090928" lon="05.934072"><ele>166</ele><time>2024-02-22T11:31:03Z</time><name>PT3230</name></trkpt>
<trkpt lat="52.090930" lon="05.934050"><ele>166</ele><time>2024-02-22T11:31:04Z</time><name>PT3231</name></trkpt>
<trkpt lat="52.090932" lon="05.934038"><ele>165.9</ele><time>2024-02-22T11:31:05Z</time><name>PT3232</name></trkpt>
<trkpt lat="52.090936" lon="05.934032"><ele>166</ele><time>2024-02-22T11:31:06Z</time><name>PT3233</name></trkpt>
<trkpt lat="52.090942" lon="05.934027"><ele>165.9</ele><time>2024-02-22T11:31:07Z</time><name>PT3234</name></trkpt>
<trkpt lat="52.090945" lon="05.934011"><ele>165.8</ele><time>2024-02-22T11:31:08Z</time><name>PT3235</name></trkpt>
<trkpt lat="52.090948" lon="05.934001"><ele>165.6</ele><time>2024-02-22T11:31:09Z</time><name>PT3236</name></trkpt>
<trkpt lat="52.090951" lon="05.933984"><ele>165.9</ele><time>2024-02-22T11:31:10Z</time><name>PT3237</name></trkpt>
<trkpt lat="52.090954" lon="05.933964"><ele>165.8</ele><time>2024-02-22T11:31:11Z</time><name>PT3238</name></trkpt>
<trkpt lat="52.090961" lon="05.933941"><ele>165.8</ele><time>2024-02-22T11:31:12Z</time><name>PT3239</name></trkpt>
<trkpt lat="52.090970" lon="05.933919"><ele>165.7</ele><time>2024-02-22T11:31:13Z</time><name>PT3240</name></trkpt>
<trkpt lat="52.090975" lon="05.933905"><ele>165.8</ele><time>2024-02-22T11:31:14Z</time><name>PT3241</name></trkpt>
<trkpt lat="52.090977" lon="05.933891"><ele>165.7</ele><time>2024-02-22T11:31:15Z</time><name>PT3242</name></trkpt>
<trkpt lat="52.090980" lon="05.933871"><ele>165.6</ele><time>2024-02-22T11:31:16Z</time><name>PT3243</name></trkpt>
<trkpt lat="52.090982" lon="05.933862"><ele>165.5</ele><time>2024-02-22T11:31:17Z</time><name>PT3244</name></trkpt>
<trkpt lat="52.090985" lon="05.933849"><ele>165.5</ele><time>2024-02-22T11:31:18Z</time><name>PT3245</name></trkpt>
<trkpt lat="52.090991" lon="05.933830"><ele>165.4</ele><time>2024-02-22T11:31:19Z</time><name>PT3246</name></trkpt>
<trkpt lat="52.091001" lon="05.933810"><ele>165.4</ele><time>2024-02-22T11:31:20Z</time><name>PT3247</name></trkpt>
<trkpt lat="52.091008" lon="05.933790"><ele>165.4</ele><time>2024-02-22T11:31:21Z</time><name>PT3248</name></trkpt>
<trkpt lat="52.091013" lon="05.933776"><ele>165.3</ele><time>2024-02-22T11:31:22Z</time><name>PT3249</name></trkpt>
<trkpt lat="52.091014" lon="05.933759"><ele>165.3</ele><time>2024-02-22T11:31:23Z</time><name>PT3250</name></trkpt>
<trkpt lat="52.091017" lon="05.933745"><ele>165.3</ele><time>2024-02-22T11:31:24Z</time><name>PT3251</name></trkpt>
<trkpt lat="52.091022" lon="05.933730"><ele>165.2</ele><time>2024-02-22T11:31:25Z</time><name>PT3252</name></trkpt>
<trkpt lat="52.091031" lon="05.933710"><ele>165.1</ele><time>2024-02-22T11:31:26Z</time><name>PT3253</name></trkpt>
<trkpt lat="52.091045" lon="05.933682"><ele>165.1</ele><time>2024-02-22T11:31:27Z</time><name>PT3254</name></trkpt>
<trkpt lat="52.091054" lon="05.933663"><ele>165.2</ele><time>2024-02-22T11:31:28Z</time><name>PT3255</name></trkpt>
<trkpt lat="52.091060" lon="05.933642"><ele>165.1</ele><time>2024-02-22T11:31:29Z</time><name>PT3256</name></trkpt>
<trkpt lat="52.091064" lon="05.933628"><ele>165</ele><time>2024-02-22T11:31:30Z</time><name>PT3257</name></trkpt>
<trkpt lat="52.091064" lon="05.933612"><ele>165.4</ele><time>2024-02-22T11:31:31Z</time><name>PT3258</name></trkpt>
<trkpt lat="52.091075" lon="05.933596"><ele>165.4</ele><time>2024-02-22T11:31:32Z</time><name>PT3259</name></trkpt>
<trkpt lat="52.091086" lon="05.933576"><ele>165.4</ele><time>2024-02-22T11:31:33Z</time><name>PT3260</name></trkpt>
<trkpt lat="52.091093" lon="05.933551"><ele>165.4</ele><time>2024-02-22T11:31:34Z</time><name>PT3261</name></trkpt>
<trkpt lat="52.091098" lon="05.933524"><ele>165.5</ele><time>2024-02-22T11:31:35Z</time><name>PT3262</name></trkpt>
<trkpt lat="52.091104" lon="05.933509"><ele>165.3</ele><time>2024-02-22T11:31:36Z</time><name>PT3263</name></trkpt>
<trkpt lat="52.091109" lon="05.933493"><ele>165.3</ele><time>2024-02-22T11:31:37Z</time><name>PT3264</name></trkpt>
<trkpt lat="52.091110" lon="05.933490"><ele>165.3</ele><time>2024-02-22T11:31:38Z</time><name>PT3265</name></trkpt>
<trkpt lat="52.091112" lon="05.933484"><ele>165.3</ele><time>2024-02-22T11:31:39Z</time><name>PT3266</name></trkpt>
<trkpt lat="52.091115" lon="05.933462"><ele>165.3</ele><time>2024-02-22T11:31:40Z</time><name>PT3267</name></trkpt>
<trkpt lat="52.091122" lon="05.933439"><ele>165.4</ele><time>2024-02-22T11:31:41Z</time><name>PT3268</name></trkpt>
<trkpt lat="52.091127" lon="05.933415"><ele>165.4</ele><time>2024-02-22T11:31:42Z</time><name>PT3269</name></trkpt>
<trkpt lat="52.091134" lon="05.933396"><ele>165.5</ele><time>2024-02-22T11:31:43Z</time><name>PT3270</name></trkpt>
<trkpt lat="52.091139" lon="05.933379"><ele>165.6</ele><time>2024-02-22T11:31:44Z</time><name>PT3271</name></trkpt>
<trkpt lat="52.091144" lon="05.933363"><ele>165.6</ele><time>2024-02-22T11:31:45Z</time><name>PT3272</name></trkpt>
<trkpt lat="52.091150" lon="05.933348"><ele>165.7</ele><time>2024-02-22T11:31:46Z</time><name>PT3273</name></trkpt>
<trkpt lat="52.091156" lon="05.933332"><ele>165.7</ele><time>2024-02-22T11:31:47Z</time><name>PT3274</name></trkpt>
<trkpt lat="52.091158" lon="05.933311"><ele>165.7</ele><time>2024-02-22T11:31:48Z</time><name>PT3275</name></trkpt>
<trkpt lat="52.091163" lon="05.933287"><ele>165.7</ele><time>2024-02-22T11:31:49Z</time><name>PT3276</name></trkpt>
<trkpt lat="52.091167" lon="05.933264"><ele>165.6</ele><time>2024-02-22T11:31:50Z</time><name>PT3277</name></trkpt>
<trkpt lat="52.091173" lon="05.933248"><ele>165.4</ele><time>2024-02-22T11:31:51Z</time><name>PT3278</name></trkpt>
<trkpt lat="52.091174" lon="05.933231"><ele>165.5</ele><time>2024-02-22T11:31:52Z</time><name>PT3279</name></trkpt>
<trkpt lat="52.091174" lon="05.933216"><ele>165.5</ele><time>2024-02-22T11:31:53Z</time><name>PT3280</name></trkpt>
<trkpt lat="52.091175" lon="05.933197"><ele>165.4</ele><time>2024-02-22T11:31:54Z</time><name>PT3281</name></trkpt>
<trkpt lat="52.091176" lon="05.933179"><ele>165.4</ele><time>2024-02-22T11:31:55Z</time><name>PT3282</name></trkpt>
<trkpt lat="52.091181" lon="05.933155"><ele>165.5</ele><time>2024-02-22T11:31:56Z</time><name>PT3283</name></trkpt>
<trkpt lat="52.091187" lon="05.933135"><ele>165.4</ele><time>2024-02-22T11:31:57Z</time><name>PT3284</name></trkpt>
<trkpt lat="52.091189" lon="05.933110"><ele>165.3</ele><time>2024-02-22T11:31:58Z</time><name>PT3285</name></trkpt>
<trkpt lat="52.091196" lon="05.933089"><ele>165.4</ele><time>2024-02-22T11:31:59Z</time><name>PT3286</name></trkpt>
<trkpt lat="52.091199" lon="05.933074"><ele>165.4</ele><time>2024-02-22T11:32:00Z</time><name>PT3287</name></trkpt>
<trkpt lat="52.091200" lon="05.933059"><ele>165.4</ele><time>2024-02-22T11:32:01Z</time><name>PT3288</name></trkpt>
<trkpt lat="52.091204" lon="05.933050"><ele>165.5</ele><time>2024-02-22T11:32:02Z</time><name>PT3289</name></trkpt>
<trkpt lat="52.091207" lon="05.933033"><ele>165.4</ele><time>2024-02-22T11:32:03Z</time><name>PT3290</name></trkpt>
<trkpt lat="52.091212" lon="05.933008"><ele>165.2</ele><time>2024-02-22T11:32:04Z</time><name>PT3291</name></trkpt>
<trkpt lat="52.091221" lon="05.932985"><ele>165.2</ele><time>2024-02-22T11:32:05Z</time><name>PT3292</name></trkpt>
<trkpt lat="52.091226" lon="05.932965"><ele>165</ele><time>2024-02-22T11:32:06Z</time><name>PT3293</name></trkpt>
<trkpt lat="52.091232" lon="05.932950"><ele>164.9</ele><time>2024-02-22T11:32:07Z</time><name>PT3294</name></trkpt>
<trkpt lat="52.091237" lon="05.932940"><ele>164.7</ele><time>2024-02-22T11:32:08Z</time><name>PT3295</name></trkpt>
<trkpt lat="52.091239" lon="05.932932"><ele>164.9</ele><time>2024-02-22T11:32:09Z</time><name>PT3296</name></trkpt>
<trkpt lat="52.091241" lon="05.932921"><ele>164.9</ele><time>2024-02-22T11:32:10Z</time><name>PT3297</name></trkpt>
<trkpt lat="52.091239" lon="05.932906"><ele>164.9</ele><time>2024-02-22T11:32:11Z</time><name>PT3298</name></trkpt>
<trkpt lat="52.091241" lon="05.932889"><ele>164.9</ele><time>2024-02-22T11:32:12Z</time><name>PT3299</name></trkpt>
<trkpt lat="52.091245" lon="05.932867"><ele>165</ele><time>2024-02-22T11:32:13Z</time><name>PT3300</name></trkpt>
<trkpt lat="52.091251" lon="05.932850"><ele>164.9</ele><time>2024-02-22T11:32:14Z</time><name>PT3301</name></trkpt>
<trkpt lat="52.091254" lon="05.932835"><ele>164.9</ele><time>2024-02-22T11:32:15Z</time><name>PT3302</name></trkpt>
<trkpt lat="52.091256" lon="05.932825"><ele>165</ele><time>2024-02-22T11:32:16Z</time><name>PT3303</name></trkpt>
<trkpt lat="52.091256" lon="05.932813"><ele>165</ele><time>2024-02-22T11:32:17Z</time><name>PT3304</name></trkpt>
<trkpt lat="52.091258" lon="05.932794"><ele>165</ele><time>2024-02-22T11:32:18Z</time><name>PT3305</name></trkpt>
<trkpt lat="52.091262" lon="05.932770"><ele>165.2</ele><time>2024-02-22T11:32:19Z</time><name>PT3306</name></trkpt>
<trkpt lat="52.091264" lon="05.932743"><ele>165.1</ele><time>2024-02-22T11:32:20Z</time><name>PT3307</name></trkpt>
<trkpt lat="52.091270" lon="05.932728"><ele>165.1</ele><time>2024-02-22T11:32:21Z</time><name>PT3308</name></trkpt>
<trkpt lat="52.091276" lon="05.932716"><ele>165</ele><time>2024-02-22T11:32:22Z</time><name>PT3309</name></trkpt>
<trkpt lat="52.091279" lon="05.932704"><ele>165.1</ele><time>2024-02-22T11:32:23Z</time><name>PT3310</name></trkpt>
<trkpt lat="52.091280" lon="05.932692"><ele>165.1</ele><time>2024-02-22T11:32:24Z</time><name>PT3311</name></trkpt>
<trkpt lat="52.091283" lon="05.932676"><ele>165</ele><time>2024-02-22T11:32:25Z</time><name>PT3312</name></trkpt>
<trkpt lat="52.091288" lon="05.932658"><ele>165</ele><time>2024-02-22T11:32:26Z</time><name>PT3313</name></trkpt>
<trkpt lat="52.091296" lon="05.932637"><ele>165.1</ele><time>2024-02-22T11:32:27Z</time><name>PT3314</name></trkpt>
<trkpt lat="52.091295" lon="05.932621"><ele>164.9</ele><time>2024-02-22T11:32:28Z</time><name>PT3315</name></trkpt>
<trkpt lat="52.091297" lon="05.932607"><ele>164.9</ele><time>2024-02-22T11:32:29Z</time><name>PT3316</name></trkpt>
<trkpt lat="52.091301" lon="05.932596"><ele>165</ele><time>2024-02-22T11:32:30Z</time><name>PT3317</name></trkpt>
<trkpt lat="52.091306" lon="05.932586"><ele>165.1</ele><time>2024-02-22T11:32:31Z</time><name>PT3318</name></trkpt>
<trkpt lat="52.091310" lon="05.932571"><ele>165</ele><time>2024-02-22T11:32:32Z</time><name>PT3319</name></trkpt>
<trkpt lat="52.091316" lon="05.932554"><ele>165.1</ele><time>2024-02-22T11:32:33Z</time><name>PT3320</name></trkpt>
<trkpt lat="52.091322" lon="05.932538"><ele>164.9</ele><time>2024-02-22T11:32:34Z</time><name>PT3321</name></trkpt>
<trkpt lat="52.091326" lon="05.932525"><ele>165</ele><time>2024-02-22T11:32:35Z</time><name>PT3322</name></trkpt>
<trkpt lat="52.091329" lon="05.932512"><ele>165</ele><time>2024-02-22T11:32:36Z</time><name>PT3323</name></trkpt>
<trkpt lat="52.091332" lon="05.932499"><ele>165</ele><time>2024-02-22T11:32:37Z</time><name>PT3324</name></trkpt>
<trkpt lat="52.091334" lon="05.932481"><ele>164.9</ele><time>2024-02-22T11:32:38Z</time><name>PT3325</name></trkpt>
<trkpt lat="52.091338" lon="05.932459"><ele>165.1</ele><time>2024-02-22T11:32:39Z</time><name>PT3326</name></trkpt>
<trkpt lat="52.091347" lon="05.932437"><ele>164.9</ele><time>2024-02-22T11:32:40Z</time><name>PT3327</name></trkpt>
<trkpt lat="52.091355" lon="05.932414"><ele>164.9</ele><time>2024-02-22T11:32:41Z</time><name>PT3328</name></trkpt>
<trkpt lat="52.091363" lon="05.932387"><ele>165</ele><time>2024-02-22T11:32:42Z</time><name>PT3329</name></trkpt>
<trkpt lat="52.091367" lon="05.932368"><ele>164.9</ele><time>2024-02-22T11:32:43Z</time><name>PT3330</name></trkpt>
<trkpt lat="52.091371" lon="05.932353"><ele>164.7</ele><time>2024-02-22T11:32:44Z</time><name>PT3331</name></trkpt>
<trkpt lat="52.091372" lon="05.932341"><ele>164.7</ele><time>2024-02-22T11:32:45Z</time><name>PT3332</name></trkpt>
<trkpt lat="52.091373" lon="05.932331"><ele>164.6</ele><time>2024-02-22T11:32:46Z</time><name>PT3333</name></trkpt>
<trkpt lat="52.091378" lon="05.932314"><ele>164.4</ele><time>2024-02-22T11:32:47Z</time><name>PT3334</name></trkpt>
<trkpt lat="52.091381" lon="05.932295"><ele>164.3</ele><time>2024-02-22T11:32:48Z</time><name>PT3335</name></trkpt>
<trkpt lat="52.091386" lon="05.932274"><ele>164.3</ele><time>2024-02-22T11:32:49Z</time><name>PT3336</name></trkpt>
<trkpt lat="52.091392" lon="05.932253"><ele>164.3</ele><time>2024-02-22T11:32:50Z</time><name>PT3337</name></trkpt>
<trkpt lat="52.091396" lon="05.932238"><ele>164.3</ele><time>2024-02-22T11:32:51Z</time><name>PT3338</name></trkpt>
<trkpt lat="52.091403" lon="05.932227"><ele>164.4</ele><time>2024-02-22T11:32:52Z</time><name>PT3339</name></trkpt>
<trkpt lat="52.091408" lon="05.932218"><ele>164.4</ele><time>2024-02-22T11:32:53Z</time><name>PT3340</name></trkpt>
<trkpt lat="52.091414" lon="05.932210"><ele>164.4</ele><time>2024-02-22T11:32:54Z</time><name>PT3341</name></trkpt>
<trkpt lat="52.091421" lon="05.932191"><ele>164.5</ele><time>2024-02-22T11:32:55Z</time><name>PT3342</name></trkpt>
<trkpt lat="52.091432" lon="05.932172"><ele>164.5</ele><time>2024-02-22T11:32:56Z</time><name>PT3343</name></trkpt>
<trkpt lat="52.091439" lon="05.932157"><ele>164.4</ele><time>2024-02-22T11:32:57Z</time><name>PT3344</name></trkpt>
<trkpt lat="52.091442" lon="05.932144"><ele>164.4</ele><time>2024-02-22T11:32:58Z</time><name>PT3345</name></trkpt>
<trkpt lat="52.091443" lon="05.932132"><ele>164.4</ele><time>2024-02-22T11:32:59Z</time><name>PT3346</name></trkpt>
<trkpt lat="52.091439" lon="05.932117"><ele>164.4</ele><time>2024-02-22T11:33:00Z</time><name>PT3347</name></trkpt>
<trkpt lat="52.091442" lon="05.932104"><ele>164.3</ele><time>2024-02-22T11:33:01Z</time><name>PT3348</name></trkpt>
<trkpt lat="52.091449" lon="05.932086"><ele>164.3</ele><time>2024-02-22T11:33:02Z</time><name>PT3349</name></trkpt>
<trkpt lat="52.091459" lon="05.932068"><ele>164.2</ele><time>2024-02-22T11:33:03Z</time><name>PT3350</name></trkpt>
<trkpt lat="52.091463" lon="05.932051"><ele>164.1</ele><time>2024-02-22T11:33:04Z</time><name>PT3351</name></trkpt>
<trkpt lat="52.091466" lon="05.932035"><ele>164</ele><time>2024-02-22T11:33:05Z</time><name>PT3352</name></trkpt>
<trkpt lat="52.091472" lon="05.932022"><ele>163.9</ele><time>2024-02-22T11:33:06Z</time><name>PT3353</name></trkpt>
<trkpt lat="52.091472" lon="05.932004"><ele>163.9</ele><time>2024-02-22T11:33:07Z</time><name>PT3354</name></trkpt>
<trkpt lat="52.091471" lon="05.931988"><ele>164</ele><time>2024-02-22T11:33:08Z</time><name>PT3355</name></trkpt>
<trkpt lat="52.091471" lon="05.931973"><ele>164.1</ele><time>2024-02-22T11:33:09Z</time><name>PT3356</name></trkpt>
<trkpt lat="52.091472" lon="05.931957"><ele>164.2</ele><time>2024-02-22T11:33:10Z</time><name>PT3357</name></trkpt>
<trkpt lat="52.091475" lon="05.931941"><ele>164.1</ele><time>2024-02-22T11:33:11Z</time><name>PT3358</name></trkpt>
<trkpt lat="52.091480" lon="05.931927"><ele>164.2</ele><time>2024-02-22T11:33:12Z</time><name>PT3359</name></trkpt>
<trkpt lat="52.091483" lon="05.931914"><ele>164.2</ele><time>2024-02-22T11:33:13Z</time><name>PT3360</name></trkpt>
<trkpt lat="52.091483" lon="05.931898"><ele>164.2</ele><time>2024-02-22T11:33:14Z</time><name>PT3361</name></trkpt>
<trkpt lat="52.091486" lon="05.931883"><ele>164.1</ele><time>2024-02-22T11:33:15Z</time><name>PT3362</name></trkpt>
<trkpt lat="52.091489" lon="05.931869"><ele>164</ele><time>2024-02-22T11:33:16Z</time><name>PT3363</name></trkpt>
<trkpt lat="52.091493" lon="05.931858"><ele>163.8</ele><time>2024-02-22T11:33:17Z</time><name>PT3364</name></trkpt>
<trkpt lat="52.091493" lon="05.931852"><ele>163.9</ele><time>2024-02-22T11:33:18Z</time><name>PT3365</name></trkpt>
<trkpt lat="52.091492" lon="05.931845"><ele>163.7</ele><time>2024-02-22T11:33:19Z</time><name>PT3366</name></trkpt>
<trkpt lat="52.091492" lon="05.931841"><ele>163.7</ele><time>2024-02-22T11:33:20Z</time><name>PT3367</name></trkpt>
<trkpt lat="52.091496" lon="05.931834"><ele>163.7</ele><time>2024-02-22T11:33:21Z</time><name>PT3368</name></trkpt>
<trkpt lat="52.091499" lon="05.931829"><ele>163.7</ele><time>2024-02-22T11:33:22Z</time><name>PT3369</name></trkpt>
<trkpt lat="52.091503" lon="05.931825"><ele>163.7</ele><time>2024-02-22T11:33:23Z</time><name>PT3370</name></trkpt>
<trkpt lat="52.091505" lon="05.931815"><ele>163.7</ele><time>2024-02-22T11:33:24Z</time><name>PT3371</name></trkpt>
<trkpt lat="52.091503" lon="05.931805"><ele>163.9</ele><time>2024-02-22T11:33:25Z</time><name>PT3372</name></trkpt>
<trkpt lat="52.091502" lon="05.931794"><ele>164</ele><time>2024-02-22T11:33:26Z</time><name>PT3373</name></trkpt>
<trkpt lat="52.091503" lon="05.931781"><ele>164</ele><time>2024-02-22T11:33:27Z</time><name>PT3374</name></trkpt>
<trkpt lat="52.091504" lon="05.931771"><ele>164.2</ele><time>2024-02-22T11:33:28Z</time><name>PT3375</name></trkpt>
<trkpt lat="52.091506" lon="05.931763"><ele>164.3</ele><time>2024-02-22T11:33:29Z</time><name>PT3376</name></trkpt>
<trkpt lat="52.091510" lon="05.931753"><ele>164</ele><time>2024-02-22T11:33:30Z</time><name>PT3377</name></trkpt>
<trkpt lat="52.091512" lon="05.931743"><ele>163.8</ele><time>2024-02-22T11:33:31Z</time><name>PT3378</name></trkpt>
<trkpt lat="52.091514" lon="05.931732"><ele>163.7</ele><time>2024-02-22T11:33:32Z</time><name>PT3379</name></trkpt>
<trkpt lat="52.091515" lon="05.931725"><ele>163.7</ele><time>2024-02-22T11:33:33Z</time><name>PT3380</name></trkpt>
<trkpt lat="52.091512" lon="05.931712"><ele>163.7</ele><time>2024-02-22T11:33:35Z</time><name>PT3381</name></trkpt>
<trkpt lat="52.091510" lon="05.931704"><ele>163.7</ele><time>2024-02-22T11:33:36Z</time><name>PT3382</name></trkpt>
<trkpt lat="52.091516" lon="05.931691"><ele>163.8</ele><time>2024-02-22T11:33:38Z</time><name>PT3383</name></trkpt>
<trkpt lat="52.091519" lon="05.931692"><ele>163.7</ele><time>2024-02-22T11:33:39Z</time><name>PT3384</name></trkpt>
<trkpt lat="52.091519" lon="05.931683"><ele>163.7</ele><time>2024-02-22T11:33:40Z</time><name>PT3385</name></trkpt>
<trkpt lat="52.091524" lon="05.931679"><ele>163.7</ele><time>2024-02-22T11:33:41Z</time><name>PT3386</name></trkpt>
<trkpt lat="52.091530" lon="05.931673"><ele>163.7</ele><time>2024-02-22T11:33:42Z</time><name>PT3387</name></trkpt>
<trkpt lat="52.091529" lon="05.931678"><ele>163.9</ele><time>2024-02-22T11:33:48Z</time><name>PT3388</name></trkpt>
<trkpt lat="52.091530" lon="05.931673"><ele>163.7</ele><time>2024-02-22T11:33:49Z</time><name>PT3389</name></trkpt>
<trkpt lat="52.091532" lon="05.931667"><ele>163.7</ele><time>2024-02-22T11:33:50Z</time><name>PT3390</name></trkpt>
<trkpt lat="52.091535" lon="05.931662"><ele>163.7</ele><time>2024-02-22T11:33:51Z</time><name>PT3391</name></trkpt>
<trkpt lat="52.091538" lon="05.931649"><ele>163.6</ele><time>2024-02-22T11:33:52Z</time><name>PT3392</name></trkpt>
<trkpt lat="52.091532" lon="05.931633"><ele>163.3</ele><time>2024-02-22T11:34:06Z</time><name>PT3393</name></trkpt>
<trkpt lat="52.091529" lon="05.931628"><ele>163.5</ele><time>2024-02-22T11:34:07Z</time><name>PT3394</name></trkpt>
<trkpt lat="52.091530" lon="05.931630"><ele>163.4</ele><time>2024-02-22T11:34:08Z</time><name>PT3395</name></trkpt>
<trkpt lat="52.091532" lon="05.931633"><ele>163.5</ele><time>2024-02-22T11:34:09Z</time><name>PT3396</name></trkpt>
<trkpt lat="52.091534" lon="05.931642"><ele>163.7</ele><time>2024-02-22T11:34:19Z</time><name>PT3397</name></trkpt>
<trkpt lat="52.091535" lon="05.931641"><ele>163.7</ele><time>2024-02-22T11:34:20Z</time><name>PT3398</name></trkpt>
<trkpt lat="52.091536" lon="05.931641"><ele>163.6</ele><time>2024-02-22T11:34:21Z</time><name>PT3399</name></trkpt>
<trkpt lat="52.091535" lon="05.931641"><ele>163.7</ele><time>2024-02-22T11:34:22Z</time><name>PT3400</name></trkpt>
<trkpt lat="52.091535" lon="05.931639"><ele>163.6</ele><time>2024-02-22T11:34:23Z</time><name>PT3401</name></trkpt>
<trkpt lat="52.091533" lon="05.931640"><ele>163.5</ele><time>2024-02-22T11:34:40Z</time><name>PT3402</name></trkpt>
<trkpt lat="52.091539" lon="05.931643"><ele>163.5</ele><time>2024-02-22T11:34:41Z</time><name>PT3403</name></trkpt>
<trkpt lat="52.091544" lon="05.931650"><ele>163.7</ele><time>2024-02-22T11:34:42Z</time><name>PT3404</name></trkpt>
<trkpt lat="52.091550" lon="05.931659"><ele>163.9</ele><time>2024-02-22T11:34:43Z</time><name>PT3405</name></trkpt>
<trkpt lat="52.091556" lon="05.931668"><ele>163.8</ele><time>2024-02-22T11:34:44Z</time><name>PT3406</name></trkpt>
<trkpt lat="52.091568" lon="05.931680"><ele>164</ele><time>2024-02-22T11:34:45Z</time><name>PT3407</name></trkpt>
<trkpt lat="52.091583" lon="05.931689"><ele>164</ele><time>2024-02-22T11:34:46Z</time><name>PT3408</name></trkpt>
<trkpt lat="52.091588" lon="05.931693"><ele>164.1</ele><time>2024-02-22T11:34:47Z</time><name>PT3409</name></trkpt>
<trkpt lat="52.091588" lon="05.931695"><ele>163.9</ele><time>2024-02-22T11:34:48Z</time><name>PT3410</name></trkpt>
<trkpt lat="52.091587" lon="05.931693"><ele>164</ele><time>2024-02-22T11:34:49Z</time><name>PT3411</name></trkpt>
<trkpt lat="52.091588" lon="05.931693"><ele>164.1</ele><time>2024-02-22T11:34:50Z</time><name>PT3412</name></trkpt>
<trkpt lat="52.091595" lon="05.931699"><ele>163.7</ele><time>2024-02-22T11:34:53Z</time><name>PT3413</name></trkpt>
<trkpt lat="52.091603" lon="05.931716"><ele>163.7</ele><time>2024-02-22T11:34:54Z</time><name>PT3414</name></trkpt>
<trkpt lat="52.091613" lon="05.931733"><ele>163.7</ele><time>2024-02-22T11:34:55Z</time><name>PT3415</name></trkpt>
<trkpt lat="52.091624" lon="05.931745"><ele>163.8</ele><time>2024-02-22T11:34:56Z</time><name>PT3416</name></trkpt>
<trkpt lat="52.091635" lon="05.931759"><ele>163.9</ele><time>2024-02-22T11:34:57Z</time><name>PT3417</name></trkpt>
<trkpt lat="52.091643" lon="05.931771"><ele>163.7</ele><time>2024-02-22T11:34:58Z</time><name>PT3418</name></trkpt>
<trkpt lat="52.091651" lon="05.931779"><ele>163.7</ele><time>2024-02-22T11:34:59Z</time><name>PT3419</name></trkpt>
<trkpt lat="52.091657" lon="05.931786"><ele>163.7</ele><time>2024-02-22T11:35:00Z</time><name>PT3420</name></trkpt>
<trkpt lat="52.091666" lon="05.931799"><ele>163.7</ele><time>2024-02-22T11:35:01Z</time><name>PT3421</name></trkpt>
<trkpt lat="52.091678" lon="05.931814"><ele>163.6</ele><time>2024-02-22T11:35:02Z</time><name>PT3422</name></trkpt>
<trkpt lat="52.091691" lon="05.931826"><ele>163.6</ele><time>2024-02-22T11:35:03Z</time><name>PT3423</name></trkpt>
<trkpt lat="52.091698" lon="05.931836"><ele>163.7</ele><time>2024-02-22T11:35:04Z</time><name>PT3424</name></trkpt>
<trkpt lat="52.091702" lon="05.931844"><ele>163.7</ele><time>2024-02-22T11:35:05Z</time><name>PT3425</name></trkpt>
<trkpt lat="52.091705" lon="05.931847"><ele>163.8</ele><time>2024-02-22T11:35:06Z</time><name>PT3426</name></trkpt>
<trkpt lat="52.091718" lon="05.931854"><ele>163.9</ele><time>2024-02-22T11:35:07Z</time><name>PT3427</name></trkpt>
<trkpt lat="52.091723" lon="05.931863"><ele>164</ele><time>2024-02-22T11:35:08Z</time><name>PT3428</name></trkpt>
<trkpt lat="52.091731" lon="05.931873"><ele>163.9</ele><time>2024-02-22T11:35:09Z</time><name>PT3429</name></trkpt>
<trkpt lat="52.091737" lon="05.931883"><ele>163.9</ele><time>2024-02-22T11:35:10Z</time><name>PT3430</name></trkpt>
<trkpt lat="52.091748" lon="05.931894"><ele>163.7</ele><time>2024-02-22T11:35:11Z</time><name>PT3431</name></trkpt>
<trkpt lat="52.091762" lon="05.931903"><ele>163.8</ele><time>2024-02-22T11:35:12Z</time><name>PT3432</name></trkpt>
<trkpt lat="52.091773" lon="05.931912"><ele>163.7</ele><time>2024-02-22T11:35:13Z</time><name>PT3433</name></trkpt>
<trkpt lat="52.091781" lon="05.931918"><ele>163.8</ele><time>2024-02-22T11:35:14Z</time><name>PT3434</name></trkpt>
<trkpt lat="52.091789" lon="05.931923"><ele>163.8</ele><time>2024-02-22T11:35:15Z</time><name>PT3435</name></trkpt>
<trkpt lat="52.091795" lon="05.931927"><ele>163.6</ele><time>2024-02-22T11:35:16Z</time><name>PT3436</name></trkpt>
<trkpt lat="52.091805" lon="05.931931"><ele>163.6</ele><time>2024-02-22T11:35:17Z</time><name>PT3437</name></trkpt>
<trkpt lat="52.091814" lon="05.931938"><ele>163.6</ele><time>2024-02-22T11:35:18Z</time><name>PT3438</name></trkpt>
<trkpt lat="52.091824" lon="05.931949"><ele>163.7</ele><time>2024-02-22T11:35:19Z</time><name>PT3439</name></trkpt>
<trkpt lat="52.091836" lon="05.931961"><ele>163.7</ele><time>2024-02-22T11:35:20Z</time><name>PT3440</name></trkpt>
<trkpt lat="52.091853" lon="05.931978"><ele>163.8</ele><time>2024-02-22T11:35:21Z</time><name>PT3441</name></trkpt>
<trkpt lat="52.091861" lon="05.931986"><ele>163.8</ele><time>2024-02-22T11:35:22Z</time><name>PT3442</name></trkpt>
<trkpt lat="52.091865" lon="05.931992"><ele>164</ele><time>2024-02-22T11:35:23Z</time><name>PT3443</name></trkpt>
<trkpt lat="52.091870" lon="05.931994"><ele>163.9</ele><time>2024-02-22T11:35:24Z</time><name>PT3444</name></trkpt>
<trkpt lat="52.091873" lon="05.931998"><ele>164</ele><time>2024-02-22T11:35:25Z</time><name>PT3445</name></trkpt>
<trkpt lat="52.091881" lon="05.932001"><ele>164</ele><time>2024-02-22T11:35:26Z</time><name>PT3446</name></trkpt>
<trkpt lat="52.091889" lon="05.932008"><ele>164.1</ele><time>2024-02-22T11:35:27Z</time><name>PT3447</name></trkpt>
<trkpt lat="52.091902" lon="05.932022"><ele>164.2</ele><time>2024-02-22T11:35:28Z</time><name>PT3448</name></trkpt>
<trkpt lat="52.091917" lon="05.932042"><ele>164.3</ele><time>2024-02-22T11:35:29Z</time><name>PT3449</name></trkpt>
<trkpt lat="52.091938" lon="05.932051"><ele>164.3</ele><time>2024-02-22T11:35:30Z</time><name>PT3450</name></trkpt>
<trkpt lat="52.091956" lon="05.932067"><ele>164.3</ele><time>2024-02-22T11:35:31Z</time><name>PT3451</name></trkpt>
<trkpt lat="52.091970" lon="05.932084"><ele>164.3</ele><time>2024-02-22T11:35:32Z</time><name>PT3452</name></trkpt>
<trkpt lat="52.091979" lon="05.932098"><ele>164.3</ele><time>2024-02-22T11:35:33Z</time><name>PT3453</name></trkpt>
<trkpt lat="52.091984" lon="05.932104"><ele>164.4</ele><time>2024-02-22T11:35:34Z</time><name>PT3454</name></trkpt>
<trkpt lat="52.092000" lon="05.932111"><ele>164.3</ele><time>2024-02-22T11:35:35Z</time><name>PT3455</name></trkpt>
<trkpt lat="52.092008" lon="05.932120"><ele>164.3</ele><time>2024-02-22T11:35:36Z</time><name>PT3456</name></trkpt>
<trkpt lat="52.092014" lon="05.932127"><ele>164.2</ele><time>2024-02-22T11:35:37Z</time><name>PT3457</name></trkpt>
<trkpt lat="52.092019" lon="05.932134"><ele>164.2</ele><time>2024-02-22T11:35:38Z</time><name>PT3458</name></trkpt>
<trkpt lat="52.092022" lon="05.932143"><ele>164.3</ele><time>2024-02-22T11:35:39Z</time><name>PT3459</name></trkpt>
<trkpt lat="52.092025" lon="05.932154"><ele>164.4</ele><time>2024-02-22T11:35:41Z</time><name>PT3460</name></trkpt>
<trkpt lat="52.092038" lon="05.932166"><ele>164.4</ele><time>2024-02-22T11:35:42Z</time><name>PT3461</name></trkpt>
<trkpt lat="52.092052" lon="05.932187"><ele>164.3</ele><time>2024-02-22T11:35:43Z</time><name>PT3462</name></trkpt>
<trkpt lat="52.092068" lon="05.932199"><ele>164.2</ele><time>2024-02-22T11:35:44Z</time><name>PT3463</name></trkpt>
<trkpt lat="52.092079" lon="05.932212"><ele>164.4</ele><time>2024-02-22T11:35:45Z</time><name>PT3464</name></trkpt>
<trkpt lat="52.092086" lon="05.932225"><ele>164.5</ele><time>2024-02-22T11:35:46Z</time><name>PT3465</name></trkpt>
<trkpt lat="52.092092" lon="05.932233"><ele>164.6</ele><time>2024-02-22T11:35:47Z</time><name>PT3466</name></trkpt>
<trkpt lat="52.092103" lon="05.932239"><ele>164.7</ele><time>2024-02-22T11:35:48Z</time><name>PT3467</name></trkpt>
<trkpt lat="52.092109" lon="05.932246"><ele>164.9</ele><time>2024-02-22T11:35:49Z</time><name>PT3468</name></trkpt>
<trkpt lat="52.092118" lon="05.932262"><ele>164.8</ele><time>2024-02-22T11:35:50Z</time><name>PT3469</name></trkpt>
<trkpt lat="52.092129" lon="05.932274"><ele>164.9</ele><time>2024-02-22T11:35:51Z</time><name>PT3470</name></trkpt>
<trkpt lat="52.092142" lon="05.932285"><ele>164.7</ele><time>2024-02-22T11:35:52Z</time><name>PT3471</name></trkpt>
<trkpt lat="52.092156" lon="05.932301"><ele>164.7</ele><time>2024-02-22T11:35:53Z</time><name>PT3472</name></trkpt>
<trkpt lat="52.092170" lon="05.932308"><ele>164.7</ele><time>2024-02-22T11:35:54Z</time><name>PT3473</name></trkpt>
<trkpt lat="52.092185" lon="05.932316"><ele>164.9</ele><time>2024-02-22T11:35:55Z</time><name>PT3474</name></trkpt>
<trkpt lat="52.092198" lon="05.932330"><ele>164.9</ele><time>2024-02-22T11:35:56Z</time><name>PT3475</name></trkpt>
<trkpt lat="52.092210" lon="05.932345"><ele>164.9</ele><time>2024-02-22T11:35:57Z</time><name>PT3476</name></trkpt>
<trkpt lat="52.092222" lon="05.932358"><ele>164.9</ele><time>2024-02-22T11:35:58Z</time><name>PT3477</name></trkpt>
<trkpt lat="52.092230" lon="05.932371"><ele>164.9</ele><time>2024-02-22T11:35:59Z</time><name>PT3478</name></trkpt>
<trkpt lat="52.092239" lon="05.932378"><ele>164.9</ele><time>2024-02-22T11:36:00Z</time><name>PT3479</name></trkpt>
<trkpt lat="52.092246" lon="05.932380"><ele>164.9</ele><time>2024-02-22T11:36:01Z</time><name>PT3480</name></trkpt>
<trkpt lat="52.092251" lon="05.932383"><ele>165</ele><time>2024-02-22T11:36:02Z</time><name>PT3481</name></trkpt>
<trkpt lat="52.092255" lon="05.932390"><ele>165</ele><time>2024-02-22T11:36:03Z</time><name>PT3482</name></trkpt>
<trkpt lat="52.092260" lon="05.932390"><ele>164.9</ele><time>2024-02-22T11:36:04Z</time><name>PT3483</name></trkpt>
<trkpt lat="52.092264" lon="05.932391"><ele>165</ele><time>2024-02-22T11:36:05Z</time><name>PT3484</name></trkpt>
<trkpt lat="52.092268" lon="05.932396"><ele>165</ele><time>2024-02-22T11:36:06Z</time><name>PT3485</name></trkpt>
<trkpt lat="52.092266" lon="05.932398"><ele>164.9</ele><time>2024-02-22T11:36:07Z</time><name>PT3486</name></trkpt>
<trkpt lat="52.092276" lon="05.932402"><ele>164.9</ele><time>2024-02-22T11:36:08Z</time><name>PT3487</name></trkpt>
<trkpt lat="52.092289" lon="05.932405"><ele>165</ele><time>2024-02-22T11:36:09Z</time><name>PT3488</name></trkpt>
<trkpt lat="52.092302" lon="05.932405"><ele>164.9</ele><time>2024-02-22T11:36:10Z</time><name>PT3489</name></trkpt>
<trkpt lat="52.092313" lon="05.932416"><ele>164.9</ele><time>2024-02-22T11:36:11Z</time><name>PT3490</name></trkpt>
<trkpt lat="52.092321" lon="05.932435"><ele>164.9</ele><time>2024-02-22T11:36:12Z</time><name>PT3491</name></trkpt>
<trkpt lat="52.092334" lon="05.932448"><ele>165</ele><time>2024-02-22T11:36:13Z</time><name>PT3492</name></trkpt>
<trkpt lat="52.092341" lon="05.932465"><ele>165</ele><time>2024-02-22T11:36:14Z</time><name>PT3493</name></trkpt>
<trkpt lat="52.092348" lon="05.932477"><ele>165</ele><time>2024-02-22T11:36:15Z</time><name>PT3494</name></trkpt>
<trkpt lat="52.092355" lon="05.932483"><ele>165</ele><time>2024-02-22T11:36:16Z</time><name>PT3495</name></trkpt>
<trkpt lat="52.092367" lon="05.932491"><ele>165.2</ele><time>2024-02-22T11:36:17Z</time><name>PT3496</name></trkpt>
<trkpt lat="52.092382" lon="05.932498"><ele>165.3</ele><time>2024-02-22T11:36:18Z</time><name>PT3497</name></trkpt>
<trkpt lat="52.092394" lon="05.932508"><ele>165.5</ele><time>2024-02-22T11:36:19Z</time><name>PT3498</name></trkpt>
<trkpt lat="52.092407" lon="05.932513"><ele>165.6</ele><time>2024-02-22T11:36:20Z</time><name>PT3499</name></trkpt>
<trkpt lat="52.092422" lon="05.932518"><ele>165.9</ele><time>2024-02-22T11:36:21Z</time><name>PT3500</name></trkpt>
<trkpt lat="52.092433" lon="05.932525"><ele>166</ele><time>2024-02-22T11:36:22Z</time><name>PT3501</name></trkpt>
<trkpt lat="52.092444" lon="05.932527"><ele>166</ele><time>2024-02-22T11:36:23Z</time><name>PT3502</name></trkpt>
<trkpt lat="52.092449" lon="05.932530"><ele>166</ele><time>2024-02-22T11:36:24Z</time><name>PT3503</name></trkpt>
<trkpt lat="52.092458" lon="05.932537"><ele>166</ele><time>2024-02-22T11:36:26Z</time><name>PT3504</name></trkpt>
<trkpt lat="52.092465" lon="05.932548"><ele>166</ele><time>2024-02-22T11:36:26Z</time><name>PT3505</name></trkpt>
<trkpt lat="52.092470" lon="05.932550"><ele>165.9</ele><time>2024-02-22T11:36:27Z</time><name>PT3506</name></trkpt>
<trkpt lat="52.092475" lon="05.932552"><ele>165.8</ele><time>2024-02-22T11:36:28Z</time><name>PT3507</name></trkpt>
<trkpt lat="52.092479" lon="05.932553"><ele>166</ele><time>2024-02-22T11:36:33Z</time><name>PT3508</name></trkpt>
<trkpt lat="52.092486" lon="05.932562"><ele>166.2</ele><time>2024-02-22T11:36:34Z</time><name>PT3509</name></trkpt>
<trkpt lat="52.092491" lon="05.932572"><ele>166.2</ele><time>2024-02-22T11:36:35Z</time><name>PT3510</name></trkpt>
<trkpt lat="52.092501" lon="05.932585"><ele>166.1</ele><time>2024-02-22T11:36:36Z</time><name>PT3511</name></trkpt>
<trkpt lat="52.092512" lon="05.932599"><ele>165.9</ele><time>2024-02-22T11:36:37Z</time><name>PT3512</name></trkpt>
<trkpt lat="52.092515" lon="05.932609"><ele>165.8</ele><time>2024-02-22T11:36:38Z</time><name>PT3513</name></trkpt>
<trkpt lat="52.092520" lon="05.932618"><ele>165.7</ele><time>2024-02-22T11:36:39Z</time><name>PT3514</name></trkpt>
<trkpt lat="52.092524" lon="05.932628"><ele>165.7</ele><time>2024-02-22T11:36:40Z</time><name>PT3515</name></trkpt>
<trkpt lat="52.092530" lon="05.932635"><ele>165.8</ele><time>2024-02-22T11:36:41Z</time><name>PT3516</name></trkpt>
<trkpt lat="52.092534" lon="05.932645"><ele>165.9</ele><time>2024-02-22T11:36:42Z</time><name>PT3517</name></trkpt>
<trkpt lat="52.092543" lon="05.932655"><ele>165.9</ele><time>2024-02-22T11:36:43Z</time><name>PT3518</name></trkpt>
<trkpt lat="52.092554" lon="05.932661"><ele>165.7</ele><time>2024-02-22T11:36:44Z</time><name>PT3519</name></trkpt>
<trkpt lat="52.092568" lon="05.932665"><ele>165.5</ele><time>2024-02-22T11:36:45Z</time><name>PT3520</name></trkpt>
<trkpt lat="52.092576" lon="05.932670"><ele>165.7</ele><time>2024-02-22T11:36:46Z</time><name>PT3521</name></trkpt>
<trkpt lat="52.092585" lon="05.932679"><ele>165.8</ele><time>2024-02-22T11:36:47Z</time><name>PT3522</name></trkpt>
<trkpt lat="52.092602" lon="05.932691"><ele>165.9</ele><time>2024-02-22T11:36:48Z</time><name>PT3523</name></trkpt>
<trkpt lat="52.092610" lon="05.932701"><ele>166</ele><time>2024-02-22T11:36:49Z</time><name>PT3524</name></trkpt>
<trkpt lat="52.092619" lon="05.932712"><ele>166</ele><time>2024-02-22T11:36:50Z</time><name>PT3525</name></trkpt>
<trkpt lat="52.092633" lon="05.932723"><ele>165.9</ele><time>2024-02-22T11:36:51Z</time><name>PT3526</name></trkpt>
<trkpt lat="52.092643" lon="05.932734"><ele>165.8</ele><time>2024-02-22T11:36:52Z</time><name>PT3527</name></trkpt>
<trkpt lat="52.092657" lon="05.932746"><ele>165.9</ele><time>2024-02-22T11:36:53Z</time><name>PT3528</name></trkpt>
<trkpt lat="52.092668" lon="05.932760"><ele>165.9</ele><time>2024-02-22T11:36:54Z</time><name>PT3529</name></trkpt>
<trkpt lat="52.092667" lon="05.932775"><ele>166</ele><time>2024-02-22T11:36:55Z</time><name>PT3530</name></trkpt>
<trkpt lat="52.092679" lon="05.932789"><ele>166</ele><time>2024-02-22T11:36:56Z</time><name>PT3531</name></trkpt>
<trkpt lat="52.092690" lon="05.932801"><ele>166</ele><time>2024-02-22T11:36:57Z</time><name>PT3532</name></trkpt>
<trkpt lat="52.092697" lon="05.932810"><ele>165.7</ele><time>2024-02-22T11:36:58Z</time><name>PT3533</name></trkpt>
<trkpt lat="52.092704" lon="05.932820"><ele>165.6</ele><time>2024-02-22T11:36:59Z</time><name>PT3534</name></trkpt>
<trkpt lat="52.092710" lon="05.932824"><ele>165.5</ele><time>2024-02-22T11:37:00Z</time><name>PT3535</name></trkpt>
<trkpt lat="52.092716" lon="05.932831"><ele>165.6</ele><time>2024-02-22T11:37:01Z</time><name>PT3536</name></trkpt>
<trkpt lat="52.092725" lon="05.932837"><ele>165.7</ele><time>2024-02-22T11:37:02Z</time><name>PT3537</name></trkpt>
<trkpt lat="52.092729" lon="05.932845"><ele>165.9</ele><time>2024-02-22T11:37:03Z</time><name>PT3538</name></trkpt>
<trkpt lat="52.092739" lon="05.932855"><ele>165.9</ele><time>2024-02-22T11:37:04Z</time><name>PT3539</name></trkpt>
<trkpt lat="52.092747" lon="05.932873"><ele>165.9</ele><time>2024-02-22T11:37:05Z</time><name>PT3540</name></trkpt>
<trkpt lat="52.092764" lon="05.932885"><ele>166</ele><time>2024-02-22T11:37:06Z</time><name>PT3541</name></trkpt>
<trkpt lat="52.092771" lon="05.932904"><ele>166</ele><time>2024-02-22T11:37:07Z</time><name>PT3542</name></trkpt>
<trkpt lat="52.092778" lon="05.932919"><ele>166</ele><time>2024-02-22T11:37:08Z</time><name>PT3543</name></trkpt>
<trkpt lat="52.092790" lon="05.932936"><ele>166.1</ele><time>2024-02-22T11:37:09Z</time><name>PT3544</name></trkpt>
<trkpt lat="52.092806" lon="05.932950"><ele>166.1</ele><time>2024-02-22T11:37:10Z</time><name>PT3545</name></trkpt>
<trkpt lat="52.092821" lon="05.932964"><ele>166</ele><time>2024-02-22T11:37:11Z</time><name>PT3546</name></trkpt>
<trkpt lat="52.092838" lon="05.932977"><ele>166</ele><time>2024-02-22T11:37:12Z</time><name>PT3547</name></trkpt>
<trkpt lat="52.092853" lon="05.932992"><ele>166</ele><time>2024-02-22T11:37:13Z</time><name>PT3548</name></trkpt>
<trkpt lat="52.092863" lon="05.932999"><ele>166</ele><time>2024-02-22T11:37:14Z</time><name>PT3549</name></trkpt>
<trkpt lat="52.092871" lon="05.933007"><ele>166</ele><time>2024-02-22T11:37:15Z</time><name>PT3550</name></trkpt>
<trkpt lat="52.092881" lon="05.933014"><ele>166</ele><time>2024-02-22T11:37:16Z</time><name>PT3551</name></trkpt>
<trkpt lat="52.092892" lon="05.933019"><ele>166</ele><time>2024-02-22T11:37:17Z</time><name>PT3552</name></trkpt>
<trkpt lat="52.092905" lon="05.933027"><ele>166</ele><time>2024-02-22T11:37:18Z</time><name>PT3553</name></trkpt>
<trkpt lat="52.092914" lon="05.933034"><ele>165.9</ele><time>2024-02-22T11:37:19Z</time><name>PT3554</name></trkpt>
<trkpt lat="52.092930" lon="05.933046"><ele>165.8</ele><time>2024-02-22T11:37:20Z</time><name>PT3555</name></trkpt>
<trkpt lat="52.092945" lon="05.933060"><ele>165.7</ele><time>2024-02-22T11:37:21Z</time><name>PT3556</name></trkpt>
<trkpt lat="52.092959" lon="05.933069"><ele>165.7</ele><time>2024-02-22T11:37:22Z</time><name>PT3557</name></trkpt>
<trkpt lat="52.092976" lon="05.933079"><ele>165.6</ele><time>2024-02-22T11:37:23Z</time><name>PT3558</name></trkpt>
<trkpt lat="52.092990" lon="05.933092"><ele>165.8</ele><time>2024-02-22T11:37:24Z</time><name>PT3559</name></trkpt>
<trkpt lat="52.093003" lon="05.933109"><ele>166</ele><time>2024-02-22T11:37:25Z</time><name>PT3560</name></trkpt>
<trkpt lat="52.093010" lon="05.933120"><ele>166</ele><time>2024-02-22T11:37:26Z</time><name>PT3561</name></trkpt>
<trkpt lat="52.093018" lon="05.933125"><ele>165.8</ele><time>2024-02-22T11:37:27Z</time><name>PT3562</name></trkpt>
<trkpt lat="52.093029" lon="05.933129"><ele>166</ele><time>2024-02-22T11:37:28Z</time><name>PT3563</name></trkpt>
<trkpt lat="52.093044" lon="05.933138"><ele>165.9</ele><time>2024-02-22T11:37:29Z</time><name>PT3564</name></trkpt>
<trkpt lat="52.093056" lon="05.933142"><ele>165.9</ele><time>2024-02-22T11:37:30Z</time><name>PT3565</name></trkpt>
<trkpt lat="52.093064" lon="05.933147"><ele>166</ele><time>2024-02-22T11:37:31Z</time><name>PT3566</name></trkpt>
<trkpt lat="52.093074" lon="05.933157"><ele>166</ele><time>2024-02-22T11:37:32Z</time><name>PT3567</name></trkpt>
<trkpt lat="52.093085" lon="05.933160"><ele>166.1</ele><time>2024-02-22T11:37:33Z</time><name>PT3568</name></trkpt>
<trkpt lat="52.093092" lon="05.933170"><ele>166.1</ele><time>2024-02-22T11:37:34Z</time><name>PT3569</name></trkpt>
<trkpt lat="52.093101" lon="05.933183"><ele>166.1</ele><time>2024-02-22T11:37:35Z</time><name>PT3570</name></trkpt>
<trkpt lat="52.093110" lon="05.933195"><ele>166.2</ele><time>2024-02-22T11:37:36Z</time><name>PT3571</name></trkpt>
<trkpt lat="52.093118" lon="05.933207"><ele>166.1</ele><time>2024-02-22T11:37:37Z</time><name>PT3572</name></trkpt>
<trkpt lat="52.093124" lon="05.933218"><ele>166.3</ele><time>2024-02-22T11:37:38Z</time><name>PT3573</name></trkpt>
<trkpt lat="52.093132" lon="05.933226"><ele>166</ele><time>2024-02-22T11:37:39Z</time><name>PT3574</name></trkpt>
<trkpt lat="52.093144" lon="05.933232"><ele>166.1</ele><time>2024-02-22T11:37:40Z</time><name>PT3575</name></trkpt>
<trkpt lat="52.093155" lon="05.933241"><ele>166.2</ele><time>2024-02-22T11:37:41Z</time><name>PT3576</name></trkpt>
<trkpt lat="52.093166" lon="05.933251"><ele>166.2</ele><time>2024-02-22T11:37:42Z</time><name>PT3577</name></trkpt>
<trkpt lat="52.093184" lon="05.933264"><ele>166.1</ele><time>2024-02-22T11:37:43Z</time><name>PT3578</name></trkpt>
<trkpt lat="52.093196" lon="05.933282"><ele>166.1</ele><time>2024-02-22T11:37:44Z</time><name>PT3579</name></trkpt>
<trkpt lat="52.093209" lon="05.933296"><ele>166</ele><time>2024-02-22T11:37:45Z</time><name>PT3580</name></trkpt>
<trkpt lat="52.093219" lon="05.933311"><ele>166.1</ele><time>2024-02-22T11:37:46Z</time><name>PT3581</name></trkpt>
<trkpt lat="52.093229" lon="05.933322"><ele>166.1</ele><time>2024-02-22T11:37:47Z</time><name>PT3582</name></trkpt>
<trkpt lat="52.093237" lon="05.933328"><ele>166</ele><time>2024-02-22T11:37:48Z</time><name>PT3583</name></trkpt>
<trkpt lat="52.093247" lon="05.933329"><ele>166.1</ele><time>2024-02-22T11:37:49Z</time><name>PT3584</name></trkpt>
<trkpt lat="52.093256" lon="05.933333"><ele>166.1</ele><time>2024-02-22T11:37:50Z</time><name>PT3585</name></trkpt>
<trkpt lat="52.093265" lon="05.933337"><ele>165.9</ele><time>2024-02-22T11:37:51Z</time><name>PT3586</name></trkpt>
<trkpt lat="52.093274" lon="05.933350"><ele>165.8</ele><time>2024-02-22T11:37:52Z</time><name>PT3587</name></trkpt>
<trkpt lat="52.093282" lon="05.933360"><ele>165.9</ele><time>2024-02-22T11:37:53Z</time><name>PT3588</name></trkpt>
<trkpt lat="52.093297" lon="05.933367"><ele>166</ele><time>2024-02-22T11:37:54Z</time><name>PT3589</name></trkpt>
<trkpt lat="52.093312" lon="05.933383"><ele>166</ele><time>2024-02-22T11:37:55Z</time><name>PT3590</name></trkpt>
<trkpt lat="52.093323" lon="05.933397"><ele>166</ele><time>2024-02-22T11:37:56Z</time><name>PT3591</name></trkpt>
<trkpt lat="52.093333" lon="05.933406"><ele>166</ele><time>2024-02-22T11:37:57Z</time><name>PT3592</name></trkpt>
<trkpt lat="52.093339" lon="05.933412"><ele>165.8</ele><time>2024-02-22T11:37:58Z</time><name>PT3593</name></trkpt>
<trkpt lat="52.093348" lon="05.933418"><ele>165.8</ele><time>2024-02-22T11:37:59Z</time><name>PT3594</name></trkpt>
<trkpt lat="52.093361" lon="05.933426"><ele>165.9</ele><time>2024-02-22T11:38:00Z</time><name>PT3595</name></trkpt>
<trkpt lat="52.093364" lon="05.933432"><ele>165.9</ele><time>2024-02-22T11:38:01Z</time><name>PT3596</name></trkpt>
<trkpt lat="52.093378" lon="05.933437"><ele>165.9</ele><time>2024-02-22T11:38:02Z</time><name>PT3597</name></trkpt>
<trkpt lat="52.093388" lon="05.933446"><ele>166</ele><time>2024-02-22T11:38:03Z</time><name>PT3598</name></trkpt>
<trkpt lat="52.093399" lon="05.933461"><ele>165.9</ele><time>2024-02-22T11:38:04Z</time><name>PT3599</name></trkpt>
<trkpt lat="52.093410" lon="05.933471"><ele>165.8</ele><time>2024-02-22T11:38:05Z</time><name>PT3600</name></trkpt>
<trkpt lat="52.093424" lon="05.933481"><ele>165.9</ele><time>2024-02-22T11:38:06Z</time><name>PT3601</name></trkpt>
<trkpt lat="52.093437" lon="05.933493"><ele>165.9</ele><time>2024-02-22T11:38:07Z</time><name>PT3602</name></trkpt>
<trkpt lat="52.093445" lon="05.933502"><ele>165.8</ele><time>2024-02-22T11:38:08Z</time><name>PT3603</name></trkpt>
<trkpt lat="52.093452" lon="05.933510"><ele>165.9</ele><time>2024-02-22T11:38:09Z</time><name>PT3604</name></trkpt>
<trkpt lat="52.093458" lon="05.933518"><ele>165.9</ele><time>2024-02-22T11:38:10Z</time><name>PT3605</name></trkpt>
<trkpt lat="52.093466" lon="05.933528"><ele>165.9</ele><time>2024-02-22T11:38:11Z</time><name>PT3606</name></trkpt>
<trkpt lat="52.093479" lon="05.933538"><ele>165.8</ele><time>2024-02-22T11:38:12Z</time><name>PT3607</name></trkpt>
<trkpt lat="52.093489" lon="05.933550"><ele>165.7</ele><time>2024-02-22T11:38:13Z</time><name>PT3608</name></trkpt>
<trkpt lat="52.093500" lon="05.933558"><ele>165.6</ele><time>2024-02-22T11:38:14Z</time><name>PT3609</name></trkpt>
<trkpt lat="52.093513" lon="05.933575"><ele>165.5</ele><time>2024-02-22T11:38:15Z</time><name>PT3610</name></trkpt>
<trkpt lat="52.093526" lon="05.933587"><ele>165.4</ele><time>2024-02-22T11:38:17Z</time><name>PT3611</name></trkpt>
<trkpt lat="52.093536" lon="05.933589"><ele>165.4</ele><time>2024-02-22T11:38:17Z</time><name>PT3612</name></trkpt>
<trkpt lat="52.093547" lon="05.933593"><ele>165.4</ele><time>2024-02-22T11:38:18Z</time><name>PT3613</name></trkpt>
<trkpt lat="52.093555" lon="05.933601"><ele>165.6</ele><time>2024-02-22T11:38:19Z</time><name>PT3614</name></trkpt>
<trkpt lat="52.093563" lon="05.933610"><ele>165.7</ele><time>2024-02-22T11:38:20Z</time><name>PT3615</name></trkpt>
<trkpt lat="52.093574" lon="05.933622"><ele>165.6</ele><time>2024-02-22T11:38:21Z</time><name>PT3616</name></trkpt>
<trkpt lat="52.093585" lon="05.933635"><ele>165.7</ele><time>2024-02-22T11:38:22Z</time><name>PT3617</name></trkpt>
<trkpt lat="52.093597" lon="05.933653"><ele>165.7</ele><time>2024-02-22T11:38:23Z</time><name>PT3618</name></trkpt>
<trkpt lat="52.093607" lon="05.933670"><ele>165.5</ele><time>2024-02-22T11:38:24Z</time><name>PT3619</name></trkpt>
<trkpt lat="52.093616" lon="05.933681"><ele>165.5</ele><time>2024-02-22T11:38:26Z</time><name>PT3620</name></trkpt>
<trkpt lat="52.093623" lon="05.933689"><ele>165.6</ele><time>2024-02-22T11:38:26Z</time><name>PT3621</name></trkpt>
<trkpt lat="52.093629" lon="05.933698"><ele>165.7</ele><time>2024-02-22T11:38:27Z</time><name>PT3622</name></trkpt>
<trkpt lat="52.093637" lon="05.933707"><ele>165.8</ele><time>2024-02-22T11:38:28Z</time><name>PT3623</name></trkpt>
<trkpt lat="52.093648" lon="05.933718"><ele>165.8</ele><time>2024-02-22T11:38:29Z</time><name>PT3624</name></trkpt>
<trkpt lat="52.093656" lon="05.933734"><ele>165.8</ele><time>2024-02-22T11:38:30Z</time><name>PT3625</name></trkpt>
<trkpt lat="52.093663" lon="05.933749"><ele>165.8</ele><time>2024-02-22T11:38:32Z</time><name>PT3626</name></trkpt>
<trkpt lat="52.093670" lon="05.933761"><ele>165.8</ele><time>2024-02-22T11:38:32Z</time><name>PT3627</name></trkpt>
<trkpt lat="52.093673" lon="05.933766"><ele>165.7</ele><time>2024-02-22T11:38:33Z</time><name>PT3628</name></trkpt>
<trkpt lat="52.093682" lon="05.933769"><ele>165.7</ele><time>2024-02-22T11:38:34Z</time><name>PT3629</name></trkpt>
<trkpt lat="52.093688" lon="05.933773"><ele>165.7</ele><time>2024-02-22T11:38:35Z</time><name>PT3630</name></trkpt>
<trkpt lat="52.093692" lon="05.933774"><ele>165.8</ele><time>2024-02-22T11:38:36Z</time><name>PT3631</name></trkpt>
<trkpt lat="52.093698" lon="05.933780"><ele>165.9</ele><time>2024-02-22T11:38:37Z</time><name>PT3632</name></trkpt>
<trkpt lat="52.093703" lon="05.933787"><ele>165.8</ele><time>2024-02-22T11:38:38Z</time><name>PT3633</name></trkpt>
<trkpt lat="52.093713" lon="05.933800"><ele>165.7</ele><time>2024-02-22T11:38:39Z</time><name>PT3634</name></trkpt>
<trkpt lat="52.093726" lon="05.933812"><ele>165.7</ele><time>2024-02-22T11:38:41Z</time><name>PT3635</name></trkpt>
<trkpt lat="52.093743" lon="05.933824"><ele>165.7</ele><time>2024-02-22T11:38:41Z</time><name>PT3636</name></trkpt>
<trkpt lat="52.093755" lon="05.933838"><ele>165.6</ele><time>2024-02-22T11:38:42Z</time><name>PT3637</name></trkpt>
<trkpt lat="52.093762" lon="05.933849"><ele>165.5</ele><time>2024-02-22T11:38:43Z</time><name>PT3638</name></trkpt>
<trkpt lat="52.093768" lon="05.933854"><ele>165.6</ele><time>2024-02-22T11:38:44Z</time><name>PT3639</name></trkpt>
<trkpt lat="52.093771" lon="05.933857"><ele>165.6</ele><time>2024-02-22T11:38:45Z</time><name>PT3640</name></trkpt>
<trkpt lat="52.093776" lon="05.933863"><ele>165.6</ele><time>2024-02-22T11:38:46Z</time><name>PT3641</name></trkpt>
<trkpt lat="52.093781" lon="05.933869"><ele>165.6</ele><time>2024-02-22T11:38:47Z</time><name>PT3642</name></trkpt>
<trkpt lat="52.093790" lon="05.933882"><ele>165.8</ele><time>2024-02-22T11:38:48Z</time><name>PT3643</name></trkpt>
<trkpt lat="52.093799" lon="05.933900"><ele>165.8</ele><time>2024-02-22T11:38:49Z</time><name>PT3644</name></trkpt>
<trkpt lat="52.093807" lon="05.933911"><ele>165.8</ele><time>2024-02-22T11:38:50Z</time><name>PT3645</name></trkpt>
<trkpt lat="52.093814" lon="05.933923"><ele>165.9</ele><time>2024-02-22T11:38:51Z</time><name>PT3646</name></trkpt>
<trkpt lat="52.093822" lon="05.933925"><ele>165.9</ele><time>2024-02-22T11:38:52Z</time><name>PT3647</name></trkpt>
<trkpt lat="52.093827" lon="05.933930"><ele>165.8</ele><time>2024-02-22T11:38:53Z</time><name>PT3648</name></trkpt>
<trkpt lat="52.093827" lon="05.933932"><ele>165.9</ele><time>2024-02-22T11:38:54Z</time><name>PT3649</name></trkpt>
<trkpt lat="52.093829" lon="05.933934"><ele>165.7</ele><time>2024-02-22T11:38:56Z</time><name>PT3650</name></trkpt>
<trkpt lat="52.093839" lon="05.933941"><ele>165.7</ele><time>2024-02-22T11:38:56Z</time><name>PT3651</name></trkpt>
<trkpt lat="52.093848" lon="05.933950"><ele>165.4</ele><time>2024-02-22T11:38:57Z</time><name>PT3652</name></trkpt>
<trkpt lat="52.093860" lon="05.933961"><ele>165.4</ele><time>2024-02-22T11:38:58Z</time><name>PT3653</name></trkpt>
<trkpt lat="52.093873" lon="05.933973"><ele>165.4</ele><time>2024-02-22T11:38:59Z</time><name>PT3654</name></trkpt>
<trkpt lat="52.093887" lon="05.933983"><ele>165.4</ele><time>2024-02-22T11:39:00Z</time><name>PT3655</name></trkpt>
<trkpt lat="52.093899" lon="05.933990"><ele>165.4</ele><time>2024-02-22T11:39:01Z</time><name>PT3656</name></trkpt>
<trkpt lat="52.093910" lon="05.933999"><ele>165.4</ele><time>2024-02-22T11:39:02Z</time><name>PT3657</name></trkpt>
<trkpt lat="52.093918" lon="05.934002"><ele>165.5</ele><time>2024-02-22T11:39:03Z</time><name>PT3658</name></trkpt>
<trkpt lat="52.093926" lon="05.934003"><ele>165.7</ele><time>2024-02-22T11:39:04Z</time><name>PT3659</name></trkpt>
<trkpt lat="52.093931" lon="05.934020"><ele>165.5</ele><time>2024-02-22T11:39:06Z</time><name>PT3660</name></trkpt>
<trkpt lat="52.093944" lon="05.934041"><ele>165.6</ele><time>2024-02-22T11:39:07Z</time><name>PT3661</name></trkpt>
<trkpt lat="52.093956" lon="05.934062"><ele>165.7</ele><time>2024-02-22T11:39:08Z</time><name>PT3662</name></trkpt>
<trkpt lat="52.093968" lon="05.934076"><ele>165.6</ele><time>2024-02-22T11:39:09Z</time><name>PT3663</name></trkpt>
<trkpt lat="52.093979" lon="05.934087"><ele>165.7</ele><time>2024-02-22T11:39:10Z</time><name>PT3664</name></trkpt>
<trkpt lat="52.093993" lon="05.934089"><ele>165.9</ele><time>2024-02-22T11:39:11Z</time><name>PT3665</name></trkpt>
<trkpt lat="52.094010" lon="05.934092"><ele>165.9</ele><time>2024-02-22T11:39:12Z</time><name>PT3666</name></trkpt>
<trkpt lat="52.094025" lon="05.934086"><ele>166</ele><time>2024-02-22T11:39:13Z</time><name>PT3667</name></trkpt>
<trkpt lat="52.094044" lon="05.934098"><ele>166.1</ele><time>2024-02-22T11:39:14Z</time><name>PT3668</name></trkpt>
<trkpt lat="52.094059" lon="05.934104"><ele>166.2</ele><time>2024-02-22T11:39:15Z</time><name>PT3669</name></trkpt>
<trkpt lat="52.094072" lon="05.934108"><ele>166.2</ele><time>2024-02-22T11:39:16Z</time><name>PT3670</name></trkpt>
<trkpt lat="52.094088" lon="05.934116"><ele>166.3</ele><time>2024-02-22T11:39:17Z</time><name>PT3671</name></trkpt>
<trkpt lat="52.094102" lon="05.934127"><ele>166.1</ele><time>2024-02-22T11:39:18Z</time><name>PT3672</name></trkpt>
<trkpt lat="52.094115" lon="05.934132"><ele>166.1</ele><time>2024-02-22T11:39:19Z</time><name>PT3673</name></trkpt>
<trkpt lat="52.094125" lon="05.934137"><ele>166</ele><time>2024-02-22T11:39:20Z</time><name>PT3674</name></trkpt>
<trkpt lat="52.094133" lon="05.934142"><ele>165.9</ele><time>2024-02-22T11:39:21Z</time><name>PT3675</name></trkpt>
<trkpt lat="52.094137" lon="05.934146"><ele>165.8</ele><time>2024-02-22T11:39:22Z</time><name>PT3676</name></trkpt>
<trkpt lat="52.094143" lon="05.934154"><ele>165.7</ele><time>2024-02-22T11:39:23Z</time><name>PT3677</name></trkpt>
<trkpt lat="52.094152" lon="05.934163"><ele>165.7</ele><time>2024-02-22T11:39:24Z</time><name>PT3678</name></trkpt>
<trkpt lat="52.094152" lon="05.934167"><ele>165.9</ele><time>2024-02-22T11:39:25Z</time><name>PT3679</name></trkpt>
<trkpt lat="52.094162" lon="05.934172"><ele>165.9</ele><time>2024-02-22T11:39:26Z</time><name>PT3680</name></trkpt>
<trkpt lat="52.094171" lon="05.934182"><ele>166</ele><time>2024-02-22T11:39:27Z</time><name>PT3681</name></trkpt>
<trkpt lat="52.094182" lon="05.934197"><ele>166</ele><time>2024-02-22T11:39:28Z</time><name>PT3682</name></trkpt>
<trkpt lat="52.094192" lon="05.934210"><ele>166</ele><time>2024-02-22T11:39:29Z</time><name>PT3683</name></trkpt>
<trkpt lat="52.094197" lon="05.934217"><ele>165.9</ele><time>2024-02-22T11:39:30Z</time><name>PT3684</name></trkpt>
<trkpt lat="52.094207" lon="05.934224"><ele>166</ele><time>2024-02-22T11:39:31Z</time><name>PT3685</name></trkpt>
<trkpt lat="52.094210" lon="05.934236"><ele>166</ele><time>2024-02-22T11:39:32Z</time><name>PT3686</name></trkpt>
<trkpt lat="52.094217" lon="05.934247"><ele>166.2</ele><time>2024-02-22T11:39:33Z</time><name>PT3687</name></trkpt>
<trkpt lat="52.094235" lon="05.934265"><ele>166.2</ele><time>2024-02-22T11:39:34Z</time><name>PT3688</name></trkpt>
<trkpt lat="52.094250" lon="05.934279"><ele>166</ele><time>2024-02-22T11:39:35Z</time><name>PT3689</name></trkpt>
<trkpt lat="52.094260" lon="05.934292"><ele>166</ele><time>2024-02-22T11:39:36Z</time><name>PT3690</name></trkpt>
<trkpt lat="52.094271" lon="05.934303"><ele>165.9</ele><time>2024-02-22T11:39:37Z</time><name>PT3691</name></trkpt>
<trkpt lat="52.094283" lon="05.934315"><ele>165.9</ele><time>2024-02-22T11:39:38Z</time><name>PT3692</name></trkpt>
<trkpt lat="52.094290" lon="05.934321"><ele>166</ele><time>2024-02-22T11:39:39Z</time><name>PT3693</name></trkpt>
<trkpt lat="52.094298" lon="05.934329"><ele>166.2</ele><time>2024-02-22T11:39:40Z</time><name>PT3694</name></trkpt>
<trkpt lat="52.094300" lon="05.934338"><ele>166.1</ele><time>2024-02-22T11:39:41Z</time><name>PT3695</name></trkpt>
<trkpt lat="52.094310" lon="05.934353"><ele>166.1</ele><time>2024-02-22T11:39:42Z</time><name>PT3696</name></trkpt>
<trkpt lat="52.094324" lon="05.934369"><ele>166.1</ele><time>2024-02-22T11:39:43Z</time><name>PT3697</name></trkpt>
<trkpt lat="52.094337" lon="05.934380"><ele>166.1</ele><time>2024-02-22T11:39:44Z</time><name>PT3698</name></trkpt>
<trkpt lat="52.094346" lon="05.934389"><ele>166</ele><time>2024-02-22T11:39:45Z</time><name>PT3699</name></trkpt>
<trkpt lat="52.094354" lon="05.934397"><ele>166</ele><time>2024-02-22T11:39:46Z</time><name>PT3700</name></trkpt>
<trkpt lat="52.094360" lon="05.934402"><ele>166</ele><time>2024-02-22T11:39:47Z</time><name>PT3701</name></trkpt>
<trkpt lat="52.094368" lon="05.934407"><ele>166</ele><time>2024-02-22T11:39:48Z</time><name>PT3702</name></trkpt>
<trkpt lat="52.094377" lon="05.934415"><ele>166.1</ele><time>2024-02-22T11:39:49Z</time><name>PT3703</name></trkpt>
<trkpt lat="52.094387" lon="05.934424"><ele>166.2</ele><time>2024-02-22T11:39:50Z</time><name>PT3704</name></trkpt>
<trkpt lat="52.094399" lon="05.934435"><ele>166.1</ele><time>2024-02-22T11:39:51Z</time><name>PT3705</name></trkpt>
<trkpt lat="52.094407" lon="05.934441"><ele>166.1</ele><time>2024-02-22T11:39:52Z</time><name>PT3706</name></trkpt>
<trkpt lat="52.094417" lon="05.934448"><ele>166.3</ele><time>2024-02-22T11:39:53Z</time><name>PT3707</name></trkpt>
<trkpt lat="52.094425" lon="05.934456"><ele>166.1</ele><time>2024-02-22T11:39:54Z</time><name>PT3708</name></trkpt>
<trkpt lat="52.094433" lon="05.934463"><ele>166.3</ele><time>2024-02-22T11:39:55Z</time><name>PT3709</name></trkpt>
<trkpt lat="52.094444" lon="05.934472"><ele>166.2</ele><time>2024-02-22T11:39:56Z</time><name>PT3710</name></trkpt>
<trkpt lat="52.094454" lon="05.934479"><ele>166.4</ele><time>2024-02-22T11:39:57Z</time><name>PT3711</name></trkpt>
<trkpt lat="52.094463" lon="05.934491"><ele>166.1</ele><time>2024-02-22T11:39:58Z</time><name>PT3712</name></trkpt>
<trkpt lat="52.094470" lon="05.934507"><ele>166.3</ele><time>2024-02-22T11:39:59Z</time><name>PT3713</name></trkpt>
<trkpt lat="52.094480" lon="05.934518"><ele>166.4</ele><time>2024-02-22T11:40:00Z</time><name>PT3714</name></trkpt>
<trkpt lat="52.094489" lon="05.934526"><ele>166.4</ele><time>2024-02-22T11:40:01Z</time><name>PT3715</name></trkpt>
<trkpt lat="52.094500" lon="05.934537"><ele>166.5</ele><time>2024-02-22T11:40:02Z</time><name>PT3716</name></trkpt>
<trkpt lat="52.094509" lon="05.934548"><ele>166.6</ele><time>2024-02-22T11:40:03Z</time><name>PT3717</name></trkpt>
<trkpt lat="52.094517" lon="05.934556"><ele>166.6</ele><time>2024-02-22T11:40:04Z</time><name>PT3718</name></trkpt>
<trkpt lat="52.094528" lon="05.934561"><ele>166.5</ele><time>2024-02-22T11:40:05Z</time><name>PT3719</name></trkpt>
<trkpt lat="52.094538" lon="05.934569"><ele>166.6</ele><time>2024-02-22T11:40:06Z</time><name>PT3720</name></trkpt>
<trkpt lat="52.094551" lon="05.934583"><ele>166.6</ele><time>2024-02-22T11:40:07Z</time><name>PT3721</name></trkpt>
<trkpt lat="52.094561" lon="05.934595"><ele>166.6</ele><time>2024-02-22T11:40:08Z</time><name>PT3722</name></trkpt>
<trkpt lat="52.094567" lon="05.934607"><ele>166.6</ele><time>2024-02-22T11:40:09Z</time><name>PT3723</name></trkpt>
<trkpt lat="52.094572" lon="05.934615"><ele>166.6</ele><time>2024-02-22T11:40:10Z</time><name>PT3724</name></trkpt>
<trkpt lat="52.094581" lon="05.934621"><ele>166.5</ele><time>2024-02-22T11:40:11Z</time><name>PT3725</name></trkpt>
<trkpt lat="52.094590" lon="05.934627"><ele>166.6</ele><time>2024-02-22T11:40:12Z</time><name>PT3726</name></trkpt>
<trkpt lat="52.094599" lon="05.934627"><ele>166.5</ele><time>2024-02-22T11:40:13Z</time><name>PT3727</name></trkpt>
<trkpt lat="52.094610" lon="05.934634"><ele>166.6</ele><time>2024-02-22T11:40:14Z</time><name>PT3728</name></trkpt>
<trkpt lat="52.094623" lon="05.934651"><ele>166.6</ele><time>2024-02-22T11:40:15Z</time><name>PT3729</name></trkpt>
<trkpt lat="52.094632" lon="05.934664"><ele>166.5</ele><time>2024-02-22T11:40:16Z</time><name>PT3730</name></trkpt>
<trkpt lat="52.094642" lon="05.934680"><ele>166.5</ele><time>2024-02-22T11:40:17Z</time><name>PT3731</name></trkpt>
<trkpt lat="52.094656" lon="05.934696"><ele>166.8</ele><time>2024-02-22T11:40:18Z</time><name>PT3732</name></trkpt>
<trkpt lat="52.094667" lon="05.934709"><ele>166.7</ele><time>2024-02-22T11:40:19Z</time><name>PT3733</name></trkpt>
<trkpt lat="52.094681" lon="05.934722"><ele>166.8</ele><time>2024-02-22T11:40:20Z</time><name>PT3734</name></trkpt>
<trkpt lat="52.094689" lon="05.934735"><ele>166.8</ele><time>2024-02-22T11:40:21Z</time><name>PT3735</name></trkpt>
<trkpt lat="52.094694" lon="05.934744"><ele>166.9</ele><time>2024-02-22T11:40:22Z</time><name>PT3736</name></trkpt>
<trkpt lat="52.094699" lon="05.934754"><ele>166.7</ele><time>2024-02-22T11:40:23Z</time><name>PT3737</name></trkpt>
<trkpt lat="52.094705" lon="05.934760"><ele>166.7</ele><time>2024-02-22T11:40:24Z</time><name>PT3738</name></trkpt>
<trkpt lat="52.094713" lon="05.934765"><ele>166.9</ele><time>2024-02-22T11:40:25Z</time><name>PT3739</name></trkpt>
<trkpt lat="52.094724" lon="05.934770"><ele>166.9</ele><time>2024-02-22T11:40:26Z</time><name>PT3740</name></trkpt>
<trkpt lat="52.094733" lon="05.934782"><ele>166.8</ele><time>2024-02-22T11:40:27Z</time><name>PT3741</name></trkpt>
<trkpt lat="52.094740" lon="05.934789"><ele>166.9</ele><time>2024-02-22T11:40:28Z</time><name>PT3742</name></trkpt>
<trkpt lat="52.094752" lon="05.934803"><ele>166.8</ele><time>2024-02-22T11:40:29Z</time><name>PT3743</name></trkpt>
<trkpt lat="52.094762" lon="05.934815"><ele>166.6</ele><time>2024-02-22T11:40:30Z</time><name>PT3744</name></trkpt>
<trkpt lat="52.094773" lon="05.934824"><ele>166.8</ele><time>2024-02-22T11:40:31Z</time><name>PT3745</name></trkpt>
<trkpt lat="52.094779" lon="05.934830"><ele>166.7</ele><time>2024-02-22T11:40:32Z</time><name>PT3746</name></trkpt>
<trkpt lat="52.094790" lon="05.934841"><ele>166.7</ele><time>2024-02-22T11:40:33Z</time><name>PT3747</name></trkpt>
<trkpt lat="52.094797" lon="05.934850"><ele>166.8</ele><time>2024-02-22T11:40:34Z</time><name>PT3748</name></trkpt>
<trkpt lat="52.094808" lon="05.934855"><ele>166.7</ele><time>2024-02-22T11:40:35Z</time><name>PT3749</name></trkpt>
<trkpt lat="52.094815" lon="05.934865"><ele>166.8</ele><time>2024-02-22T11:40:36Z</time><name>PT3750</name></trkpt>
<trkpt lat="52.094827" lon="05.934878"><ele>166.9</ele><time>2024-02-22T11:40:37Z</time><name>PT3751</name></trkpt>
<trkpt lat="52.094838" lon="05.934894"><ele>166.8</ele><time>2024-02-22T11:40:38Z</time><name>PT3752</name></trkpt>
<trkpt lat="52.094850" lon="05.934908"><ele>166.7</ele><time>2024-02-22T11:40:39Z</time><name>PT3753</name></trkpt>
<trkpt lat="52.094858" lon="05.934913"><ele>166.8</ele><time>2024-02-22T11:40:40Z</time><name>PT3754</name></trkpt>
<trkpt lat="52.094863" lon="05.934921"><ele>166.8</ele><time>2024-02-22T11:40:41Z</time><name>PT3755</name></trkpt>
<trkpt lat="52.094866" lon="05.934928"><ele>166.9</ele><time>2024-02-22T11:40:42Z</time><name>PT3756</name></trkpt>
<trkpt lat="52.094876" lon="05.934939"><ele>166.9</ele><time>2024-02-22T11:40:43Z</time><name>PT3757</name></trkpt>
<trkpt lat="52.094884" lon="05.934951"><ele>167</ele><time>2024-02-22T11:40:44Z</time><name>PT3758</name></trkpt>
<trkpt lat="52.094896" lon="05.934963"><ele>166.8</ele><time>2024-02-22T11:40:45Z</time><name>PT3759</name></trkpt>
<trkpt lat="52.094908" lon="05.934978"><ele>166.8</ele><time>2024-02-22T11:40:46Z</time><name>PT3760</name></trkpt>
<trkpt lat="52.094915" lon="05.934988"><ele>166.8</ele><time>2024-02-22T11:40:47Z</time><name>PT3761</name></trkpt>
<trkpt lat="52.094924" lon="05.934995"><ele>167</ele><time>2024-02-22T11:40:48Z</time><name>PT3762</name></trkpt>
<trkpt lat="52.094933" lon="05.935004"><ele>167.2</ele><time>2024-02-22T11:40:49Z</time><name>PT3763</name></trkpt>
<trkpt lat="52.094936" lon="05.935011"><ele>167.2</ele><time>2024-02-22T11:40:50Z</time><name>PT3764</name></trkpt>
<trkpt lat="52.094939" lon="05.935018"><ele>167.2</ele><time>2024-02-22T11:40:51Z</time><name>PT3765</name></trkpt>
<trkpt lat="52.094946" lon="05.935026"><ele>167.1</ele><time>2024-02-22T11:40:52Z</time><name>PT3766</name></trkpt>
<trkpt lat="52.094955" lon="05.935034"><ele>167.1</ele><time>2024-02-22T11:40:53Z</time><name>PT3767</name></trkpt>
<trkpt lat="52.094964" lon="05.935047"><ele>167</ele><time>2024-02-22T11:40:54Z</time><name>PT3768</name></trkpt>
<trkpt lat="52.094973" lon="05.935058"><ele>167.1</ele><time>2024-02-22T11:40:55Z</time><name>PT3769</name></trkpt>
<trkpt lat="52.094984" lon="05.935069"><ele>167</ele><time>2024-02-22T11:40:56Z</time><name>PT3770</name></trkpt>
<trkpt lat="52.094994" lon="05.935080"><ele>167</ele><time>2024-02-22T11:40:57Z</time><name>PT3771</name></trkpt>
<trkpt lat="52.095005" lon="05.935090"><ele>167.1</ele><time>2024-02-22T11:40:58Z</time><name>PT3772</name></trkpt>
<trkpt lat="52.095013" lon="05.935099"><ele>167.1</ele><time>2024-02-22T11:40:59Z</time><name>PT3773</name></trkpt>
<trkpt lat="52.095024" lon="05.935103"><ele>167</ele><time>2024-02-22T11:41:00Z</time><name>PT3774</name></trkpt>
<trkpt lat="52.095032" lon="05.935105"><ele>167.2</ele><time>2024-02-22T11:41:01Z</time><name>PT3775</name></trkpt>
<trkpt lat="52.095043" lon="05.935112"><ele>167.2</ele><time>2024-02-22T11:41:02Z</time><name>PT3776</name></trkpt>
<trkpt lat="52.095055" lon="05.935123"><ele>167.2</ele><time>2024-02-22T11:41:03Z</time><name>PT3777</name></trkpt>
<trkpt lat="52.095067" lon="05.935133"><ele>167.1</ele><time>2024-02-22T11:41:04Z</time><name>PT3778</name></trkpt>
<trkpt lat="52.095078" lon="05.935139"><ele>167</ele><time>2024-02-22T11:41:05Z</time><name>PT3779</name></trkpt>
<trkpt lat="52.095085" lon="05.935148"><ele>166.8</ele><time>2024-02-22T11:41:06Z</time><name>PT3780</name></trkpt>
<trkpt lat="52.095091" lon="05.935151"><ele>166.8</ele><time>2024-02-22T11:41:07Z</time><name>PT3781</name></trkpt>
<trkpt lat="52.095100" lon="05.935155"><ele>166.7</ele><time>2024-02-22T11:41:08Z</time><name>PT3782</name></trkpt>
<trkpt lat="52.095106" lon="05.935160"><ele>166.7</ele><time>2024-02-22T11:41:09Z</time><name>PT3783</name></trkpt>
<trkpt lat="52.095114" lon="05.935173"><ele>166.8</ele><time>2024-02-22T11:41:10Z</time><name>PT3784</name></trkpt>
<trkpt lat="52.095126" lon="05.935185"><ele>166.8</ele><time>2024-02-22T11:41:11Z</time><name>PT3785</name></trkpt>
<trkpt lat="52.095138" lon="05.935196"><ele>167</ele><time>2024-02-22T11:41:12Z</time><name>PT3786</name></trkpt>
<trkpt lat="52.095149" lon="05.935204"><ele>167.1</ele><time>2024-02-22T11:41:13Z</time><name>PT3787</name></trkpt>
<trkpt lat="52.095156" lon="05.935212"><ele>167</ele><time>2024-02-22T11:41:14Z</time><name>PT3788</name></trkpt>
<trkpt lat="52.095164" lon="05.935218"><ele>167.1</ele><time>2024-02-22T11:41:15Z</time><name>PT3789</name></trkpt>
<trkpt lat="52.095170" lon="05.935224"><ele>167.1</ele><time>2024-02-22T11:41:17Z</time><name>PT3790</name></trkpt>
<trkpt lat="52.095177" lon="05.935232"><ele>167.1</ele><time>2024-02-22T11:41:17Z</time><name>PT3791</name></trkpt>
<trkpt lat="52.095191" lon="05.935244"><ele>167.1</ele><time>2024-02-22T11:41:18Z</time><name>PT3792</name></trkpt>
<trkpt lat="52.095206" lon="05.935257"><ele>167.2</ele><time>2024-02-22T11:41:19Z</time><name>PT3793</name></trkpt>
<trkpt lat="52.095217" lon="05.935271"><ele>167.4</ele><time>2024-02-22T11:41:20Z</time><name>PT3794</name></trkpt>
<trkpt lat="52.095228" lon="05.935284"><ele>167.5</ele><time>2024-02-22T11:41:21Z</time><name>PT3795</name></trkpt>
<trkpt lat="52.095236" lon="05.935295"><ele>167.4</ele><time>2024-02-22T11:41:22Z</time><name>PT3796</name></trkpt>
<trkpt lat="52.095243" lon="05.935302"><ele>167.4</ele><time>2024-02-22T11:41:23Z</time><name>PT3797</name></trkpt>
<trkpt lat="52.095250" lon="05.935302"><ele>167.4</ele><time>2024-02-22T11:41:24Z</time><name>PT3798</name></trkpt>
<trkpt lat="52.095259" lon="05.935307"><ele>167.4</ele><time>2024-02-22T11:41:25Z</time><name>PT3799</name></trkpt>
<trkpt lat="52.095267" lon="05.935321"><ele>167.5</ele><time>2024-02-22T11:41:26Z</time><name>PT3800</name></trkpt>
<trkpt lat="52.095283" lon="05.935329"><ele>167.5</ele><time>2024-02-22T11:41:27Z</time><name>PT3801</name></trkpt>
<trkpt lat="52.095297" lon="05.935339"><ele>167.5</ele><time>2024-02-22T11:41:28Z</time><name>PT3802</name></trkpt>
<trkpt lat="52.095310" lon="05.935352"><ele>167.6</ele><time>2024-02-22T11:41:29Z</time><name>PT3803</name></trkpt>
<trkpt lat="52.095320" lon="05.935366"><ele>167.5</ele><time>2024-02-22T11:41:30Z</time><name>PT3804</name></trkpt>
<trkpt lat="52.095325" lon="05.935373"><ele>167.4</ele><time>2024-02-22T11:41:32Z</time><name>PT3805</name></trkpt>
<trkpt lat="52.095330" lon="05.935380"><ele>167.4</ele><time>2024-02-22T11:41:32Z</time><name>PT3806</name></trkpt>
<trkpt lat="52.095335" lon="05.935384"><ele>167.5</ele><time>2024-02-22T11:41:33Z</time><name>PT3807</name></trkpt>
<trkpt lat="52.095344" lon="05.935389"><ele>167.6</ele><time>2024-02-22T11:41:34Z</time><name>PT3808</name></trkpt>
<trkpt lat="52.095349" lon="05.935395"><ele>167.7</ele><time>2024-02-22T11:41:35Z</time><name>PT3809</name></trkpt>
<trkpt lat="52.095355" lon="05.935404"><ele>167.5</ele><time>2024-02-22T11:41:36Z</time><name>PT3810</name></trkpt>
<trkpt lat="52.095366" lon="05.935416"><ele>167.5</ele><time>2024-02-22T11:41:37Z</time><name>PT3811</name></trkpt>
<trkpt lat="52.095374" lon="05.935429"><ele>167.5</ele><time>2024-02-22T11:41:38Z</time><name>PT3812</name></trkpt>
<trkpt lat="52.095386" lon="05.935444"><ele>167.7</ele><time>2024-02-22T11:41:39Z</time><name>PT3813</name></trkpt>
<trkpt lat="52.095398" lon="05.935458"><ele>167.7</ele><time>2024-02-22T11:41:40Z</time><name>PT3814</name></trkpt>
<trkpt lat="52.095410" lon="05.935466"><ele>167.6</ele><time>2024-02-22T11:41:41Z</time><name>PT3815</name></trkpt>
<trkpt lat="52.095421" lon="05.935475"><ele>167.7</ele><time>2024-02-22T11:41:42Z</time><name>PT3816</name></trkpt>
<trkpt lat="52.095430" lon="05.935480"><ele>167.7</ele><time>2024-02-22T11:41:43Z</time><name>PT3817</name></trkpt>
<trkpt lat="52.095440" lon="05.935486"><ele>167.4</ele><time>2024-02-22T11:41:44Z</time><name>PT3818</name></trkpt>
<trkpt lat="52.095447" lon="05.935493"><ele>167.6</ele><time>2024-02-22T11:41:45Z</time><name>PT3819</name></trkpt>
<trkpt lat="52.095453" lon="05.935499"><ele>167.6</ele><time>2024-02-22T11:41:46Z</time><name>PT3820</name></trkpt>
<trkpt lat="52.095461" lon="05.935507"><ele>167.6</ele><time>2024-02-22T11:41:47Z</time><name>PT3821</name></trkpt>
<trkpt lat="52.095470" lon="05.935521"><ele>167.7</ele><time>2024-02-22T11:41:48Z</time><name>PT3822</name></trkpt>
<trkpt lat="52.095484" lon="05.935528"><ele>167.7</ele><time>2024-02-22T11:41:49Z</time><name>PT3823</name></trkpt>
<trkpt lat="52.095495" lon="05.935538"><ele>167.7</ele><time>2024-02-22T11:41:50Z</time><name>PT3824</name></trkpt>
<trkpt lat="52.095503" lon="05.935546"><ele>167.6</ele><time>2024-02-22T11:41:51Z</time><name>PT3825</name></trkpt>
<trkpt lat="52.095509" lon="05.935549"><ele>167.5</ele><time>2024-02-22T11:41:52Z</time><name>PT3826</name></trkpt>
<trkpt lat="52.095517" lon="05.935552"><ele>167.5</ele><time>2024-02-22T11:41:53Z</time><name>PT3827</name></trkpt>
<trkpt lat="52.095527" lon="05.935560"><ele>167.3</ele><time>2024-02-22T11:41:55Z</time><name>PT3828</name></trkpt>
<trkpt lat="52.095539" lon="05.935568"><ele>167.3</ele><time>2024-02-22T11:41:56Z</time><name>PT3829</name></trkpt>
<trkpt lat="52.095548" lon="05.935575"><ele>167.4</ele><time>2024-02-22T11:41:57Z</time><name>PT3830</name></trkpt>
<trkpt lat="52.095557" lon="05.935584"><ele>167.4</ele><time>2024-02-22T11:41:58Z</time><name>PT3831</name></trkpt>
<trkpt lat="52.095563" lon="05.935588"><ele>167.4</ele><time>2024-02-22T11:41:59Z</time><name>PT3832</name></trkpt>
<trkpt lat="52.095575" lon="05.935599"><ele>167.4</ele><time>2024-02-22T11:42:00Z</time><name>PT3833</name></trkpt>
<trkpt lat="52.095585" lon="05.935607"><ele>167.4</ele><time>2024-02-22T11:42:01Z</time><name>PT3834</name></trkpt>
<trkpt lat="52.095595" lon="05.935617"><ele>167.4</ele><time>2024-02-22T11:42:02Z</time><name>PT3835</name></trkpt>
<trkpt lat="52.095606" lon="05.935623"><ele>167.3</ele><time>2024-02-22T11:42:03Z</time><name>PT3836</name></trkpt>
<trkpt lat="52.095615" lon="05.935630"><ele>167.5</ele><time>2024-02-22T11:42:04Z</time><name>PT3837</name></trkpt>
<trkpt lat="52.095625" lon="05.935635"><ele>167.6</ele><time>2024-02-22T11:42:05Z</time><name>PT3838</name></trkpt>
<trkpt lat="52.095638" lon="05.935649"><ele>167.5</ele><time>2024-02-22T11:42:06Z</time><name>PT3839</name></trkpt>
<trkpt lat="52.095649" lon="05.935666"><ele>167.5</ele><time>2024-02-22T11:42:07Z</time><name>PT3840</name></trkpt>
<trkpt lat="52.095661" lon="05.935680"><ele>167.7</ele><time>2024-02-22T11:42:08Z</time><name>PT3841</name></trkpt>
<trkpt lat="52.095673" lon="05.935695"><ele>167.7</ele><time>2024-02-22T11:42:09Z</time><name>PT3842</name></trkpt>
<trkpt lat="52.095686" lon="05.935709"><ele>167.7</ele><time>2024-02-22T11:42:10Z</time><name>PT3843</name></trkpt>
<trkpt lat="52.095692" lon="05.935715"><ele>167.7</ele><time>2024-02-22T11:42:11Z</time><name>PT3844</name></trkpt>
<trkpt lat="52.095700" lon="05.935722"><ele>167.7</ele><time>2024-02-22T11:42:12Z</time><name>PT3845</name></trkpt>
<trkpt lat="52.095709" lon="05.935729"><ele>167.7</ele><time>2024-02-22T11:42:13Z</time><name>PT3846</name></trkpt>
<trkpt lat="52.095717" lon="05.935741"><ele>167.7</ele><time>2024-02-22T11:42:14Z</time><name>PT3847</name></trkpt>
<trkpt lat="52.095728" lon="05.935757"><ele>168</ele><time>2024-02-22T11:42:15Z</time><name>PT3848</name></trkpt>
<trkpt lat="52.095742" lon="05.935774"><ele>168.3</ele><time>2024-02-22T11:42:16Z</time><name>PT3849</name></trkpt>
<trkpt lat="52.095759" lon="05.935786"><ele>168.3</ele><time>2024-02-22T11:42:17Z</time><name>PT3850</name></trkpt>
<trkpt lat="52.095769" lon="05.935806"><ele>168.4</ele><time>2024-02-22T11:42:18Z</time><name>PT3851</name></trkpt>
<trkpt lat="52.095780" lon="05.935820"><ele>168.5</ele><time>2024-02-22T11:42:19Z</time><name>PT3852</name></trkpt>
<trkpt lat="52.095790" lon="05.935828"><ele>168.5</ele><time>2024-02-22T11:42:20Z</time><name>PT3853</name></trkpt>
<trkpt lat="52.095795" lon="05.935834"><ele>168.6</ele><time>2024-02-22T11:42:21Z</time><name>PT3854</name></trkpt>
<trkpt lat="52.095804" lon="05.935838"><ele>168.6</ele><time>2024-02-22T11:42:22Z</time><name>PT3855</name></trkpt>
<trkpt lat="52.095813" lon="05.935847"><ele>168.7</ele><time>2024-02-22T11:42:23Z</time><name>PT3856</name></trkpt>
<trkpt lat="52.095825" lon="05.935858"><ele>168.4</ele><time>2024-02-22T11:42:24Z</time><name>PT3857</name></trkpt>
<trkpt lat="52.095837" lon="05.935868"><ele>168.3</ele><time>2024-02-22T11:42:26Z</time><name>PT3858</name></trkpt>
<trkpt lat="52.095843" lon="05.935878"><ele>168.4</ele><time>2024-02-22T11:42:26Z</time><name>PT3859</name></trkpt>
<trkpt lat="52.095850" lon="05.935881"><ele>168.5</ele><time>2024-02-22T11:42:27Z</time><name>PT3860</name></trkpt>
<trkpt lat="52.095858" lon="05.935882"><ele>168.4</ele><time>2024-02-22T11:42:28Z</time><name>PT3861</name></trkpt>
<trkpt lat="52.095867" lon="05.935887"><ele>168.3</ele><time>2024-02-22T11:42:29Z</time><name>PT3862</name></trkpt>
<trkpt lat="52.095880" lon="05.935897"><ele>168.2</ele><time>2024-02-22T11:42:30Z</time><name>PT3863</name></trkpt>
<trkpt lat="52.095890" lon="05.935910"><ele>168</ele><time>2024-02-22T11:42:31Z</time><name>PT3864</name></trkpt>
<trkpt lat="52.095899" lon="05.935921"><ele>167.9</ele><time>2024-02-22T11:42:32Z</time><name>PT3865</name></trkpt>
<trkpt lat="52.095905" lon="05.935927"><ele>167.8</ele><time>2024-02-22T11:42:33Z</time><name>PT3866</name></trkpt>
<trkpt lat="52.095913" lon="05.935932"><ele>168</ele><time>2024-02-22T11:42:34Z</time><name>PT3867</name></trkpt>
<trkpt lat="52.095927" lon="05.935932"><ele>168</ele><time>2024-02-22T11:42:35Z</time><name>PT3868</name></trkpt>
<trkpt lat="52.095936" lon="05.935933"><ele>168</ele><time>2024-02-22T11:42:36Z</time><name>PT3869</name></trkpt>
<trkpt lat="52.095944" lon="05.935941"><ele>168</ele><time>2024-02-22T11:42:37Z</time><name>PT3870</name></trkpt>
<trkpt lat="52.095954" lon="05.935945"><ele>168</ele><time>2024-02-22T11:42:38Z</time><name>PT3871</name></trkpt>
<trkpt lat="52.095965" lon="05.935956"><ele>167.8</ele><time>2024-02-22T11:42:39Z</time><name>PT3872</name></trkpt>
<trkpt lat="52.095968" lon="05.935966"><ele>167.6</ele><time>2024-02-22T11:42:40Z</time><name>PT3873</name></trkpt>
<trkpt lat="52.095974" lon="05.935966"><ele>167.5</ele><time>2024-02-22T11:42:41Z</time><name>PT3874</name></trkpt>
<trkpt lat="52.095981" lon="05.935967"><ele>167.4</ele><time>2024-02-22T11:42:42Z</time><name>PT3875</name></trkpt>
<trkpt lat="52.095989" lon="05.935971"><ele>167.3</ele><time>2024-02-22T11:42:43Z</time><name>PT3876</name></trkpt>
<trkpt lat="52.095997" lon="05.935976"><ele>167.4</ele><time>2024-02-22T11:42:44Z</time><name>PT3877</name></trkpt>
<trkpt lat="52.096007" lon="05.935981"><ele>167.4</ele><time>2024-02-22T11:42:45Z</time><name>PT3878</name></trkpt>
<trkpt lat="52.096022" lon="05.935997"><ele>167.2</ele><time>2024-02-22T11:42:46Z</time><name>PT3879</name></trkpt>
<trkpt lat="52.096033" lon="05.936010"><ele>167.2</ele><time>2024-02-22T11:42:47Z</time><name>PT3880</name></trkpt>
<trkpt lat="52.096043" lon="05.936017"><ele>167</ele><time>2024-02-22T11:42:48Z</time><name>PT3881</name></trkpt>
<trkpt lat="52.096051" lon="05.936015"><ele>166.9</ele><time>2024-02-22T11:42:49Z</time><name>PT3882</name></trkpt>
<trkpt lat="52.096057" lon="05.936016"><ele>166.9</ele><time>2024-02-22T11:42:50Z</time><name>PT3883</name></trkpt>
<trkpt lat="52.096067" lon="05.936016"><ele>167</ele><time>2024-02-22T11:42:51Z</time><name>PT3884</name></trkpt>
<trkpt lat="52.096072" lon="05.936024"><ele>166.9</ele><time>2024-02-22T11:42:52Z</time><name>PT3885</name></trkpt>
<trkpt lat="52.096080" lon="05.936030"><ele>167</ele><time>2024-02-22T11:42:53Z</time><name>PT3886</name></trkpt>
<trkpt lat="52.096094" lon="05.936039"><ele>167</ele><time>2024-02-22T11:42:54Z</time><name>PT3887</name></trkpt>
<trkpt lat="52.096109" lon="05.936049"><ele>166.8</ele><time>2024-02-22T11:42:55Z</time><name>PT3888</name></trkpt>
<trkpt lat="52.096117" lon="05.936051"><ele>166.9</ele><time>2024-02-22T11:42:56Z</time><name>PT3889</name></trkpt>
<trkpt lat="52.096126" lon="05.936058"><ele>166.7</ele><time>2024-02-22T11:42:57Z</time><name>PT3890</name></trkpt>
<trkpt lat="52.096136" lon="05.936064"><ele>166.6</ele><time>2024-02-22T11:42:58Z</time><name>PT3891</name></trkpt>
<trkpt lat="52.096148" lon="05.936071"><ele>166.5</ele><time>2024-02-22T11:42:59Z</time><name>PT3892</name></trkpt>
<trkpt lat="52.096161" lon="05.936080"><ele>166.5</ele><time>2024-02-22T11:43:00Z</time><name>PT3893</name></trkpt>
<trkpt lat="52.096175" lon="05.936089"><ele>166.5</ele><time>2024-02-22T11:43:01Z</time><name>PT3894</name></trkpt>
<trkpt lat="52.096184" lon="05.936099"><ele>166.5</ele><time>2024-02-22T11:43:02Z</time><name>PT3895</name></trkpt>
<trkpt lat="52.096194" lon="05.936106"><ele>166.5</ele><time>2024-02-22T11:43:03Z</time><name>PT3896</name></trkpt>
<trkpt lat="52.096203" lon="05.936111"><ele>166.6</ele><time>2024-02-22T11:43:04Z</time><name>PT3897</name></trkpt>
<trkpt lat="52.096212" lon="05.936117"><ele>166.6</ele><time>2024-02-22T11:43:05Z</time><name>PT3898</name></trkpt>
<trkpt lat="52.096226" lon="05.936121"><ele>166.7</ele><time>2024-02-22T11:43:06Z</time><name>PT3899</name></trkpt>
<trkpt lat="52.096237" lon="05.936129"><ele>166.7</ele><time>2024-02-22T11:43:07Z</time><name>PT3900</name></trkpt>
<trkpt lat="52.096246" lon="05.936141"><ele>166.8</ele><time>2024-02-22T11:43:08Z</time><name>PT3901</name></trkpt>
<trkpt lat="52.096257" lon="05.936151"><ele>166.9</ele><time>2024-02-22T11:43:09Z</time><name>PT3902</name></trkpt>
<trkpt lat="52.096270" lon="05.936168"><ele>166.8</ele><time>2024-02-22T11:43:10Z</time><name>PT3903</name></trkpt>
<trkpt lat="52.096279" lon="05.936178"><ele>166.8</ele><time>2024-02-22T11:43:11Z</time><name>PT3904</name></trkpt>
<trkpt lat="52.096285" lon="05.936188"><ele>166.8</ele><time>2024-02-22T11:43:12Z</time><name>PT3905</name></trkpt>
<trkpt lat="52.096291" lon="05.936200"><ele>166.9</ele><time>2024-02-22T11:43:13Z</time><name>PT3906</name></trkpt>
<trkpt lat="52.096303" lon="05.936212"><ele>166.8</ele><time>2024-02-22T11:43:14Z</time><name>PT3907</name></trkpt>
<trkpt lat="52.096317" lon="05.936223"><ele>166.9</ele><time>2024-02-22T11:43:15Z</time><name>PT3908</name></trkpt>
<trkpt lat="52.096332" lon="05.936237"><ele>167</ele><time>2024-02-22T11:43:16Z</time><name>PT3909</name></trkpt>
<trkpt lat="52.096347" lon="05.936251"><ele>167.1</ele><time>2024-02-22T11:43:17Z</time><name>PT3910</name></trkpt>
<trkpt lat="52.096360" lon="05.936260"><ele>166.9</ele><time>2024-02-22T11:43:18Z</time><name>PT3911</name></trkpt>
<trkpt lat="52.096369" lon="05.936270"><ele>166.8</ele><time>2024-02-22T11:43:19Z</time><name>PT3912</name></trkpt>
<trkpt lat="52.096377" lon="05.936280"><ele>166.7</ele><time>2024-02-22T11:43:20Z</time><name>PT3913</name></trkpt>
<trkpt lat="52.096383" lon="05.936288"><ele>166.4</ele><time>2024-02-22T11:43:21Z</time><name>PT3914</name></trkpt>
<trkpt lat="52.096390" lon="05.936296"><ele>166.3</ele><time>2024-02-22T11:43:22Z</time><name>PT3915</name></trkpt>
<trkpt lat="52.096402" lon="05.936306"><ele>166.4</ele><time>2024-02-22T11:43:23Z</time><name>PT3916</name></trkpt>
<trkpt lat="52.096414" lon="05.936316"><ele>166.4</ele><time>2024-02-22T11:43:24Z</time><name>PT3917</name></trkpt>
<trkpt lat="52.096426" lon="05.936329"><ele>166.6</ele><time>2024-02-22T11:43:25Z</time><name>PT3918</name></trkpt>
<trkpt lat="52.096434" lon="05.936334"><ele>166.5</ele><time>2024-02-22T11:43:26Z</time><name>PT3919</name></trkpt>
<trkpt lat="52.096442" lon="05.936342"><ele>166.4</ele><time>2024-02-22T11:43:27Z</time><name>PT3920</name></trkpt>
<trkpt lat="52.096449" lon="05.936348"><ele>166.4</ele><time>2024-02-22T11:43:28Z</time><name>PT3921</name></trkpt>
<trkpt lat="52.096456" lon="05.936354"><ele>166.5</ele><time>2024-02-22T11:43:29Z</time><name>PT3922</name></trkpt>
<trkpt lat="52.096460" lon="05.936360"><ele>166.4</ele><time>2024-02-22T11:43:30Z</time><name>PT3923</name></trkpt>
<trkpt lat="52.096469" lon="05.936367"><ele>166.4</ele><time>2024-02-22T11:43:31Z</time><name>PT3924</name></trkpt>
<trkpt lat="52.096481" lon="05.936380"><ele>166.6</ele><time>2024-02-22T11:43:32Z</time><name>PT3925</name></trkpt>
<trkpt lat="52.096491" lon="05.936387"><ele>166.7</ele><time>2024-02-22T11:43:33Z</time><name>PT3926</name></trkpt>
<trkpt lat="52.096496" lon="05.936394"><ele>166.7</ele><time>2024-02-22T11:43:34Z</time><name>PT3927</name></trkpt>
<trkpt lat="52.096506" lon="05.936404"><ele>166.7</ele><time>2024-02-22T11:43:35Z</time><name>PT3928</name></trkpt>
<trkpt lat="52.096514" lon="05.936418"><ele>166.6</ele><time>2024-02-22T11:43:36Z</time><name>PT3929</name></trkpt>
<trkpt lat="52.096522" lon="05.936426"><ele>166.6</ele><time>2024-02-22T11:43:37Z</time><name>PT3930</name></trkpt>
<trkpt lat="52.096530" lon="05.936434"><ele>166.6</ele><time>2024-02-22T11:43:38Z</time><name>PT3931</name></trkpt>
<trkpt lat="52.096539" lon="05.936443"><ele>166.6</ele><time>2024-02-22T11:43:39Z</time><name>PT3932</name></trkpt>
<trkpt lat="52.096552" lon="05.936458"><ele>166.6</ele><time>2024-02-22T11:43:40Z</time><name>PT3933</name></trkpt>
<trkpt lat="52.096564" lon="05.936469"><ele>166.6</ele><time>2024-02-22T11:43:41Z</time><name>PT3934</name></trkpt>
<trkpt lat="52.096576" lon="05.936480"><ele>166.4</ele><time>2024-02-22T11:43:42Z</time><name>PT3935</name></trkpt>
<trkpt lat="52.096585" lon="05.936488"><ele>166.4</ele><time>2024-02-22T11:43:43Z</time><name>PT3936</name></trkpt>
<trkpt lat="52.096591" lon="05.936495"><ele>166.6</ele><time>2024-02-22T11:43:44Z</time><name>PT3937</name></trkpt>
<trkpt lat="52.096599" lon="05.936501"><ele>166.5</ele><time>2024-02-22T11:43:45Z</time><name>PT3938</name></trkpt>
<trkpt lat="52.096607" lon="05.936509"><ele>166.7</ele><time>2024-02-22T11:43:46Z</time><name>PT3939</name></trkpt>
<trkpt lat="52.096618" lon="05.936520"><ele>166.7</ele><time>2024-02-22T11:43:47Z</time><name>PT3940</name></trkpt>
<trkpt lat="52.096630" lon="05.936535"><ele>166.7</ele><time>2024-02-22T11:43:48Z</time><name>PT3941</name></trkpt>
<trkpt lat="52.096639" lon="05.936546"><ele>166.6</ele><time>2024-02-22T11:43:49Z</time><name>PT3942</name></trkpt>
<trkpt lat="52.096649" lon="05.936553"><ele>166.7</ele><time>2024-02-22T11:43:50Z</time><name>PT3943</name></trkpt>
<trkpt lat="52.096651" lon="05.936558"><ele>166.6</ele><time>2024-02-22T11:43:51Z</time><name>PT3944</name></trkpt>
<trkpt lat="52.096659" lon="05.936562"><ele>166.5</ele><time>2024-02-22T11:43:52Z</time><name>PT3945</name></trkpt>
<trkpt lat="52.096668" lon="05.936576"><ele>166.4</ele><time>2024-02-22T11:43:53Z</time><name>PT3946</name></trkpt>
<trkpt lat="52.096675" lon="05.936594"><ele>166.5</ele><time>2024-02-22T11:43:54Z</time><name>PT3947</name></trkpt>
<trkpt lat="52.096682" lon="05.936602"><ele>166.5</ele><time>2024-02-22T11:43:55Z</time><name>PT3948</name></trkpt>
<trkpt lat="52.096691" lon="05.936610"><ele>166.6</ele><time>2024-02-22T11:43:56Z</time><name>PT3949</name></trkpt>
<trkpt lat="52.096698" lon="05.936617"><ele>166.6</ele><time>2024-02-22T11:43:57Z</time><name>PT3950</name></trkpt>
<trkpt lat="52.096706" lon="05.936624"><ele>166.6</ele><time>2024-02-22T11:43:58Z</time><name>PT3951</name></trkpt>
<trkpt lat="52.096717" lon="05.936630"><ele>166.6</ele><time>2024-02-22T11:43:59Z</time><name>PT3952</name></trkpt>
<trkpt lat="52.096726" lon="05.936640"><ele>166.6</ele><time>2024-02-22T11:44:00Z</time><name>PT3953</name></trkpt>
<trkpt lat="52.096733" lon="05.936649"><ele>166.6</ele><time>2024-02-22T11:44:01Z</time><name>PT3954</name></trkpt>
<trkpt lat="52.096744" lon="05.936660"><ele>166.6</ele><time>2024-02-22T11:44:02Z</time><name>PT3955</name></trkpt>
<trkpt lat="52.096753" lon="05.936665"><ele>166.5</ele><time>2024-02-22T11:44:03Z</time><name>PT3956</name></trkpt>
<trkpt lat="52.096757" lon="05.936670"><ele>166.6</ele><time>2024-02-22T11:44:04Z</time><name>PT3957</name></trkpt>
<trkpt lat="52.096766" lon="05.936681"><ele>166.6</ele><time>2024-02-22T11:44:05Z</time><name>PT3958</name></trkpt>
<trkpt lat="52.096775" lon="05.936699"><ele>166.6</ele><time>2024-02-22T11:44:06Z</time><name>PT3959</name></trkpt>
<trkpt lat="52.096783" lon="05.936715"><ele>166.6</ele><time>2024-02-22T11:44:07Z</time><name>PT3960</name></trkpt>
<trkpt lat="52.096789" lon="05.936726"><ele>166.6</ele><time>2024-02-22T11:44:08Z</time><name>PT3961</name></trkpt>
<trkpt lat="52.096795" lon="05.936729"><ele>166.6</ele><time>2024-02-22T11:44:09Z</time><name>PT3962</name></trkpt>
<trkpt lat="52.096800" lon="05.936731"><ele>166.7</ele><time>2024-02-22T11:44:10Z</time><name>PT3963</name></trkpt>
<trkpt lat="52.096810" lon="05.936736"><ele>166.9</ele><time>2024-02-22T11:44:11Z</time><name>PT3964</name></trkpt>
<trkpt lat="52.096825" lon="05.936745"><ele>166.9</ele><time>2024-02-22T11:44:12Z</time><name>PT3965</name></trkpt>
<trkpt lat="52.096838" lon="05.936759"><ele>167</ele><time>2024-02-22T11:44:13Z</time><name>PT3966</name></trkpt>
<trkpt lat="52.096848" lon="05.936772"><ele>167</ele><time>2024-02-22T11:44:14Z</time><name>PT3967</name></trkpt>
<trkpt lat="52.096856" lon="05.936782"><ele>167</ele><time>2024-02-22T11:44:15Z</time><name>PT3968</name></trkpt>
<trkpt lat="52.096865" lon="05.936791"><ele>166.8</ele><time>2024-02-22T11:44:16Z</time><name>PT3969</name></trkpt>
<trkpt lat="52.096870" lon="05.936799"><ele>166.9</ele><time>2024-02-22T11:44:17Z</time><name>PT3970</name></trkpt>
<trkpt lat="52.096884" lon="05.936807"><ele>166.9</ele><time>2024-02-22T11:44:18Z</time><name>PT3971</name></trkpt>
<trkpt lat="52.096896" lon="05.936813"><ele>166.9</ele><time>2024-02-22T11:44:19Z</time><name>PT3972</name></trkpt>
<trkpt lat="52.096903" lon="05.936820"><ele>166.8</ele><time>2024-02-22T11:44:20Z</time><name>PT3973</name></trkpt>
<trkpt lat="52.096910" lon="05.936833"><ele>167</ele><time>2024-02-22T11:44:21Z</time><name>PT3974</name></trkpt>
<trkpt lat="52.096914" lon="05.936841"><ele>167.1</ele><time>2024-02-22T11:44:22Z</time><name>PT3975</name></trkpt>
<trkpt lat="52.096920" lon="05.936845"><ele>167.2</ele><time>2024-02-22T11:44:23Z</time><name>PT3976</name></trkpt>
<trkpt lat="52.096929" lon="05.936851"><ele>167.2</ele><time>2024-02-22T11:44:24Z</time><name>PT3977</name></trkpt>
<trkpt lat="52.096933" lon="05.936857"><ele>167.3</ele><time>2024-02-22T11:44:25Z</time><name>PT3978</name></trkpt>
<trkpt lat="52.096940" lon="05.936865"><ele>167.2</ele><time>2024-02-22T11:44:26Z</time><name>PT3979</name></trkpt>
<trkpt lat="52.096948" lon="05.936870"><ele>167.2</ele><time>2024-02-22T11:44:27Z</time><name>PT3980</name></trkpt>
<trkpt lat="52.096960" lon="05.936875"><ele>167.2</ele><time>2024-02-22T11:44:28Z</time><name>PT3981</name></trkpt>
<trkpt lat="52.096963" lon="05.936879"><ele>167.2</ele><time>2024-02-22T11:44:29Z</time><name>PT3982</name></trkpt>
<trkpt lat="52.096970" lon="05.936883"><ele>167.2</ele><time>2024-02-22T11:44:30Z</time><name>PT3983</name></trkpt>
<trkpt lat="52.096980" lon="05.936892"><ele>167.2</ele><time>2024-02-22T11:44:31Z</time><name>PT3984</name></trkpt>
<trkpt lat="52.096992" lon="05.936902"><ele>167.2</ele><time>2024-02-22T11:44:32Z</time><name>PT3985</name></trkpt>
<trkpt lat="52.097005" lon="05.936910"><ele>167.4</ele><time>2024-02-22T11:44:33Z</time><name>PT3986</name></trkpt>
<trkpt lat="52.097012" lon="05.936915"><ele>167.5</ele><time>2024-02-22T11:44:34Z</time><name>PT3987</name></trkpt>
<trkpt lat="52.097020" lon="05.936921"><ele>167.5</ele><time>2024-02-22T11:44:35Z</time><name>PT3988</name></trkpt>
<trkpt lat="52.097029" lon="05.936926"><ele>167.7</ele><time>2024-02-22T11:44:36Z</time><name>PT3989</name></trkpt>
<trkpt lat="52.097034" lon="05.936935"><ele>167.5</ele><time>2024-02-22T11:44:38Z</time><name>PT3990</name></trkpt>
<trkpt lat="52.097043" lon="05.936947"><ele>167.4</ele><time>2024-02-22T11:44:38Z</time><name>PT3991</name></trkpt>
<trkpt lat="52.097044" lon="05.936953"><ele>167.3</ele><time>2024-02-22T11:44:39Z</time><name>PT3992</name></trkpt>
<trkpt lat="52.097050" lon="05.936957"><ele>167.3</ele><time>2024-02-22T11:44:40Z</time><name>PT3993</name></trkpt>
<trkpt lat="52.097063" lon="05.936949"><ele>167.3</ele><time>2024-02-22T11:44:41Z</time><name>PT3994</name></trkpt>
<trkpt lat="52.097072" lon="05.936948"><ele>167.6</ele><time>2024-02-22T11:44:42Z</time><name>PT3995</name></trkpt>
<trkpt lat="52.097076" lon="05.936947"><ele>167.7</ele><time>2024-02-22T11:44:44Z</time><name>PT3996</name></trkpt>
<trkpt lat="52.097081" lon="05.936942"><ele>167.7</ele><time>2024-02-22T11:44:44Z</time><name>PT3997</name></trkpt>
<trkpt lat="52.097089" lon="05.936939"><ele>167.7</ele><time>2024-02-22T11:44:45Z</time><name>PT3998</name></trkpt>
<trkpt lat="52.097095" lon="05.936937"><ele>167.6</ele><time>2024-02-22T11:44:46Z</time><name>PT3999</name></trkpt>
<trkpt lat="52.097097" lon="05.936933"><ele>167.4</ele><time>2024-02-22T11:44:47Z</time><name>PT4000</name></trkpt>
<trkpt lat="52.097099" lon="05.936936"><ele>167.5</ele><time>2024-02-22T11:44:48Z</time><name>PT4001</name></trkpt>
<trkpt lat="52.097103" lon="05.936943"><ele>167.5</ele><time>2024-02-22T11:44:49Z</time><name>PT4002</name></trkpt>
<trkpt lat="52.097107" lon="05.936950"><ele>167.6</ele><time>2024-02-22T11:44:50Z</time><name>PT4003</name></trkpt>
<trkpt lat="52.097111" lon="05.936960"><ele>167.7</ele><time>2024-02-22T11:44:51Z</time><name>PT4004</name></trkpt>
<trkpt lat="52.097113" lon="05.936969"><ele>167.6</ele><time>2024-02-22T11:44:52Z</time><name>PT4005</name></trkpt>
<trkpt lat="52.097119" lon="05.936979"><ele>167.5</ele><time>2024-02-22T11:44:53Z</time><name>PT4006</name></trkpt>
<trkpt lat="52.097122" lon="05.936981"><ele>167.5</ele><time>2024-02-22T11:44:54Z</time><name>PT4007</name></trkpt>
<trkpt lat="52.097124" lon="05.936982"><ele>167.5</ele><time>2024-02-22T11:44:55Z</time><name>PT4008</name></trkpt>
<trkpt lat="52.097125" lon="05.936982"><ele>167.5</ele><time>2024-02-22T11:44:56Z</time><name>PT4009</name></trkpt>
<trkpt lat="52.097121" lon="05.936984"><ele>167.3</ele><time>2024-02-22T11:45:00Z</time><name>PT4010</name></trkpt>
<trkpt lat="52.097120" lon="05.937000"><ele>167</ele><time>2024-02-22T11:45:01Z</time><name>PT4011</name></trkpt>
<trkpt lat="52.097124" lon="05.937021"><ele>166.8</ele><time>2024-02-22T11:45:02Z</time><name>PT4012</name></trkpt>
<trkpt lat="52.097125" lon="05.937039"><ele>166.8</ele><time>2024-02-22T11:45:03Z</time><name>PT4013</name></trkpt>
<trkpt lat="52.097125" lon="05.937062"><ele>166.9</ele><time>2024-02-22T11:45:04Z</time><name>PT4014</name></trkpt>
<trkpt lat="52.097123" lon="05.937083"><ele>166.9</ele><time>2024-02-22T11:45:05Z</time><name>PT4015</name></trkpt>
<trkpt lat="52.097122" lon="05.937097"><ele>167.2</ele><time>2024-02-22T11:45:06Z</time><name>PT4016</name></trkpt>
<trkpt lat="52.097123" lon="05.937112"><ele>167.2</ele><time>2024-02-22T11:45:07Z</time><name>PT4017</name></trkpt>
<trkpt lat="52.097123" lon="05.937124"><ele>167.2</ele><time>2024-02-22T11:45:08Z</time><name>PT4018</name></trkpt>
<trkpt lat="52.097123" lon="05.937145"><ele>167.2</ele><time>2024-02-22T11:45:09Z</time><name>PT4019</name></trkpt>
<trkpt lat="52.097121" lon="05.937173"><ele>167.2</ele><time>2024-02-22T11:45:10Z</time><name>PT4020</name></trkpt>
<trkpt lat="52.097119" lon="05.937192"><ele>167.1</ele><time>2024-02-22T11:45:11Z</time><name>PT4021</name></trkpt>
<trkpt lat="52.097116" lon="05.937200"><ele>167.2</ele><time>2024-02-22T11:45:12Z</time><name>PT4022</name></trkpt>
<trkpt lat="52.097115" lon="05.937209"><ele>167.2</ele><time>2024-02-22T11:45:13Z</time><name>PT4023</name></trkpt>
<trkpt lat="52.097115" lon="05.937222"><ele>167.1</ele><time>2024-02-22T11:45:14Z</time><name>PT4024</name></trkpt>
<trkpt lat="52.097115" lon="05.937234"><ele>166.9</ele><time>2024-02-22T11:45:15Z</time><name>PT4025</name></trkpt>
<trkpt lat="52.097117" lon="05.937247"><ele>167</ele><time>2024-02-22T11:45:16Z</time><name>PT4026</name></trkpt>
<trkpt lat="52.097119" lon="05.937254"><ele>167.1</ele><time>2024-02-22T11:45:17Z</time><name>PT4027</name></trkpt>
<trkpt lat="52.097119" lon="05.937262"><ele>167</ele><time>2024-02-22T11:45:18Z</time><name>PT4028</name></trkpt>
<trkpt lat="52.097120" lon="05.937267"><ele>167.1</ele><time>2024-02-22T11:45:19Z</time><name>PT4029</name></trkpt>
<trkpt lat="52.097122" lon="05.937271"><ele>167.2</ele><time>2024-02-22T11:45:20Z</time><name>PT4030</name></trkpt>
<trkpt lat="52.097123" lon="05.937271"><ele>167.2</ele><time>2024-02-22T11:45:21Z</time><name>PT4031</name></trkpt>
<trkpt lat="52.097123" lon="05.937275"><ele>167.1</ele><time>2024-02-22T11:45:28Z</time><name>PT4032</name></trkpt>
<trkpt lat="52.097123" lon="05.937287"><ele>166.9</ele><time>2024-02-22T11:45:29Z</time><name>PT4033</name></trkpt>
<trkpt lat="52.097121" lon="05.937302"><ele>166.9</ele><time>2024-02-22T11:45:30Z</time><name>PT4034</name></trkpt>
<trkpt lat="52.097119" lon="05.937317"><ele>166.9</ele><time>2024-02-22T11:45:31Z</time><name>PT4035</name></trkpt>
<trkpt lat="52.097116" lon="05.937340"><ele>166.9</ele><time>2024-02-22T11:45:32Z</time><name>PT4036</name></trkpt>
<trkpt lat="52.097115" lon="05.937364"><ele>166.8</ele><time>2024-02-22T11:45:33Z</time><name>PT4037</name></trkpt>
<trkpt lat="52.097116" lon="05.937388"><ele>166.6</ele><time>2024-02-22T11:45:34Z</time><name>PT4038</name></trkpt>
<trkpt lat="52.097116" lon="05.937406"><ele>166.6</ele><time>2024-02-22T11:45:35Z</time><name>PT4039</name></trkpt>
<trkpt lat="52.097116" lon="05.937427"><ele>166.6</ele><time>2024-02-22T11:45:36Z</time><name>PT4040</name></trkpt>
<trkpt lat="52.097116" lon="05.937444"><ele>166.6</ele><time>2024-02-22T11:45:37Z</time><name>PT4041</name></trkpt>
<trkpt lat="52.097117" lon="05.937462"><ele>166.6</ele><time>2024-02-22T11:45:38Z</time><name>PT4042</name></trkpt>
<trkpt lat="52.097114" lon="05.937482"><ele>166.7</ele><time>2024-02-22T11:45:39Z</time><name>PT4043</name></trkpt>
<trkpt lat="52.097113" lon="05.937502"><ele>166.6</ele><time>2024-02-22T11:45:40Z</time><name>PT4044</name></trkpt>
<trkpt lat="52.097112" lon="05.937518"><ele>166.6</ele><time>2024-02-22T11:45:41Z</time><name>PT4045</name></trkpt>
<trkpt lat="52.097111" lon="05.937534"><ele>166.6</ele><time>2024-02-22T11:45:42Z</time><name>PT4046</name></trkpt>
<trkpt lat="52.097112" lon="05.937553"><ele>166.6</ele><time>2024-02-22T11:45:43Z</time><name>PT4047</name></trkpt>
<trkpt lat="52.097110" lon="05.937570"><ele>166.6</ele><time>2024-02-22T11:45:44Z</time><name>PT4048</name></trkpt>
<trkpt lat="52.097109" lon="05.937586"><ele>166.7</ele><time>2024-02-22T11:45:45Z</time><name>PT4049</name></trkpt>
<trkpt lat="52.097107" lon="05.937600"><ele>166.7</ele><time>2024-02-22T11:45:46Z</time><name>PT4050</name></trkpt>
<trkpt lat="52.097103" lon="05.937618"><ele>166.8</ele><time>2024-02-22T11:45:47Z</time><name>PT4051</name></trkpt>
<trkpt lat="52.097101" lon="05.937635"><ele>166.8</ele><time>2024-02-22T11:45:48Z</time><name>PT4052</name></trkpt>
<trkpt lat="52.097100" lon="05.937651"><ele>166.6</ele><time>2024-02-22T11:45:49Z</time><name>PT4053</name></trkpt>
<trkpt lat="52.097102" lon="05.937668"><ele>166.4</ele><time>2024-02-22T11:45:50Z</time><name>PT4054</name></trkpt>
<trkpt lat="52.097102" lon="05.937685"><ele>166.2</ele><time>2024-02-22T11:45:51Z</time><name>PT4055</name></trkpt>
<trkpt lat="52.097102" lon="05.937701"><ele>166.2</ele><time>2024-02-22T11:45:52Z</time><name>PT4056</name></trkpt>
<trkpt lat="52.097101" lon="05.937720"><ele>166.1</ele><time>2024-02-22T11:45:53Z</time><name>PT4057</name></trkpt>
<trkpt lat="52.097103" lon="05.937741"><ele>166.3</ele><time>2024-02-22T11:45:54Z</time><name>PT4058</name></trkpt>
<trkpt lat="52.097103" lon="05.937762"><ele>166.4</ele><time>2024-02-22T11:45:55Z</time><name>PT4059</name></trkpt>
<trkpt lat="52.097103" lon="05.937784"><ele>166.4</ele><time>2024-02-22T11:45:56Z</time><name>PT4060</name></trkpt>
<trkpt lat="52.097102" lon="05.937802"><ele>166.4</ele><time>2024-02-22T11:45:57Z</time><name>PT4061</name></trkpt>
<trkpt lat="52.097100" lon="05.937820"><ele>166.6</ele><time>2024-02-22T11:45:58Z</time><name>PT4062</name></trkpt>
<trkpt lat="52.097098" lon="05.937837"><ele>166.6</ele><time>2024-02-22T11:45:59Z</time><name>PT4063</name></trkpt>
<trkpt lat="52.097098" lon="05.937855"><ele>166.6</ele><time>2024-02-22T11:46:00Z</time><name>PT4064</name></trkpt>
<trkpt lat="52.097097" lon="05.937874"><ele>166.7</ele><time>2024-02-22T11:46:01Z</time><name>PT4065</name></trkpt>
<trkpt lat="52.097096" lon="05.937890"><ele>166.7</ele><time>2024-02-22T11:46:02Z</time><name>PT4066</name></trkpt>
<trkpt lat="52.097094" lon="05.937910"><ele>166.6</ele><time>2024-02-22T11:46:03Z</time><name>PT4067</name></trkpt>
<trkpt lat="52.097094" lon="05.937931"><ele>166.4</ele><time>2024-02-22T11:46:04Z</time><name>PT4068</name></trkpt>
<trkpt lat="52.097094" lon="05.937946"><ele>166.3</ele><time>2024-02-22T11:46:05Z</time><name>PT4069</name></trkpt>
<trkpt lat="52.097093" lon="05.937963"><ele>166.3</ele><time>2024-02-22T11:46:06Z</time><name>PT4070</name></trkpt>
<trkpt lat="52.097091" lon="05.937975"><ele>166.1</ele><time>2024-02-22T11:46:07Z</time><name>PT4071</name></trkpt>
<trkpt lat="52.097091" lon="05.937988"><ele>166.1</ele><time>2024-02-22T11:46:08Z</time><name>PT4072</name></trkpt>
<trkpt lat="52.097091" lon="05.938000"><ele>166.1</ele><time>2024-02-22T11:46:09Z</time><name>PT4073</name></trkpt>
<trkpt lat="52.097090" lon="05.938018"><ele>166.1</ele><time>2024-02-22T11:46:10Z</time><name>PT4074</name></trkpt>
<trkpt lat="52.097088" lon="05.938037"><ele>166</ele><time>2024-02-22T11:46:11Z</time><name>PT4075</name></trkpt>
<trkpt lat="52.097085" lon="05.938059"><ele>166.2</ele><time>2024-02-22T11:46:12Z</time><name>PT4076</name></trkpt>
<trkpt lat="52.097081" lon="05.938074"><ele>166.2</ele><time>2024-02-22T11:46:13Z</time><name>PT4077</name></trkpt>
<trkpt lat="52.097079" lon="05.938087"><ele>166.1</ele><time>2024-02-22T11:46:14Z</time><name>PT4078</name></trkpt>
<trkpt lat="52.097079" lon="05.938095"><ele>166.1</ele><time>2024-02-22T11:46:15Z</time><name>PT4079</name></trkpt>
<trkpt lat="52.097080" lon="05.938099"><ele>166</ele><time>2024-02-22T11:46:16Z</time><name>PT4080</name></trkpt>
<trkpt lat="52.097080" lon="05.938101"><ele>166</ele><time>2024-02-22T11:46:17Z</time><name>PT4081</name></trkpt>
<trkpt lat="52.097080" lon="05.938102"><ele>166</ele><time>2024-02-22T11:46:18Z</time><name>PT4082</name></trkpt>
<trkpt lat="52.097081" lon="05.938104"><ele>166.1</ele><time>2024-02-22T11:46:19Z</time><name>PT4083</name></trkpt>
<trkpt lat="52.097077" lon="05.938116"><ele>165.9</ele><time>2024-02-22T11:46:25Z</time><name>PT4084</name></trkpt>
<trkpt lat="52.097073" lon="05.938130"><ele>166</ele><time>2024-02-22T11:46:26Z</time><name>PT4085</name></trkpt>
<trkpt lat="52.097070" lon="05.938141"><ele>166</ele><time>2024-02-22T11:46:27Z</time><name>PT4086</name></trkpt>
<trkpt lat="52.097068" lon="05.938152"><ele>166</ele><time>2024-02-22T11:46:28Z</time><name>PT4087</name></trkpt>
<trkpt lat="52.097066" lon="05.938167"><ele>166</ele><time>2024-02-22T11:46:29Z</time><name>PT4088</name></trkpt>
<trkpt lat="52.097069" lon="05.938180"><ele>166.1</ele><time>2024-02-22T11:46:30Z</time><name>PT4089</name></trkpt>
<trkpt lat="52.097069" lon="05.938194"><ele>166.2</ele><time>2024-02-22T11:46:31Z</time><name>PT4090</name></trkpt>
<trkpt lat="52.097067" lon="05.938208"><ele>166</ele><time>2024-02-22T11:46:32Z</time><name>PT4091</name></trkpt>
<trkpt lat="52.097068" lon="05.938214"><ele>166</ele><time>2024-02-22T11:46:33Z</time><name>PT4092</name></trkpt>
<trkpt lat="52.097065" lon="05.938223"><ele>165.8</ele><time>2024-02-22T11:46:34Z</time><name>PT4093</name></trkpt>
<trkpt lat="52.097060" lon="05.938236"><ele>165.6</ele><time>2024-02-22T11:46:35Z</time><name>PT4094</name></trkpt>
<trkpt lat="52.097058" lon="05.938245"><ele>165.6</ele><time>2024-02-22T11:46:36Z</time><name>PT4095</name></trkpt>
<trkpt lat="52.097057" lon="05.938264"><ele>165.7</ele><time>2024-02-22T11:46:37Z</time><name>PT4096</name></trkpt>
<trkpt lat="52.097054" lon="05.938282"><ele>165.9</ele><time>2024-02-22T11:46:38Z</time><name>PT4097</name></trkpt>
<trkpt lat="52.097054" lon="05.938298"><ele>165.9</ele><time>2024-02-22T11:46:39Z</time><name>PT4098</name></trkpt>
<trkpt lat="52.097054" lon="05.938307"><ele>166</ele><time>2024-02-22T11:46:40Z</time><name>PT4099</name></trkpt>
<trkpt lat="52.097057" lon="05.938322"><ele>166</ele><time>2024-02-22T11:46:41Z</time><name>PT4100</name></trkpt>
<trkpt lat="52.097058" lon="05.938333"><ele>166</ele><time>2024-02-22T11:46:42Z</time><name>PT4101</name></trkpt>
<trkpt lat="52.097055" lon="05.938350"><ele>166</ele><time>2024-02-22T11:46:43Z</time><name>PT4102</name></trkpt>
<trkpt lat="52.097051" lon="05.938360"><ele>166.1</ele><time>2024-02-22T11:46:44Z</time><name>PT4103</name></trkpt>
<trkpt lat="52.097047" lon="05.938359"><ele>166.5</ele><time>2024-02-22T11:46:45Z</time><name>PT4104</name></trkpt>
<trkpt lat="52.097045" lon="05.938365"><ele>166.5</ele><time>2024-02-22T11:46:46Z</time><name>PT4105</name></trkpt>
<trkpt lat="52.097042" lon="05.938380"><ele>166.5</ele><time>2024-02-22T11:46:47Z</time><name>PT4106</name></trkpt>
<trkpt lat="52.097041" lon="05.938395"><ele>166.6</ele><time>2024-02-22T11:46:48Z</time><name>PT4107</name></trkpt>
<trkpt lat="52.097041" lon="05.938403"><ele>166.6</ele><time>2024-02-22T11:46:49Z</time><name>PT4108</name></trkpt>
<trkpt lat="52.097043" lon="05.938421"><ele>166.5</ele><time>2024-02-22T11:46:50Z</time><name>PT4109</name></trkpt>
<trkpt lat="52.097044" lon="05.938435"><ele>166.7</ele><time>2024-02-22T11:46:51Z</time><name>PT4110</name></trkpt>
<trkpt lat="52.097043" lon="05.938444"><ele>166.6</ele><time>2024-02-22T11:46:52Z</time><name>PT4111</name></trkpt>
<trkpt lat="52.097042" lon="05.938456"><ele>166.6</ele><time>2024-02-22T11:46:53Z</time><name>PT4112</name></trkpt>
<trkpt lat="52.097039" lon="05.938475"><ele>166.6</ele><time>2024-02-22T11:46:54Z</time><name>PT4113</name></trkpt>
<trkpt lat="52.097037" lon="05.938490"><ele>166.5</ele><time>2024-02-22T11:46:55Z</time><name>PT4114</name></trkpt>
<trkpt lat="52.097038" lon="05.938503"><ele>166.5</ele><time>2024-02-22T11:46:56Z</time><name>PT4115</name></trkpt>
<trkpt lat="52.097038" lon="05.938513"><ele>166.6</ele><time>2024-02-22T11:46:57Z</time><name>PT4116</name></trkpt>
<trkpt lat="52.097036" lon="05.938527"><ele>166.7</ele><time>2024-02-22T11:46:58Z</time><name>PT4117</name></trkpt>
<trkpt lat="52.097034" lon="05.938544"><ele>166.6</ele><time>2024-02-22T11:46:59Z</time><name>PT4118</name></trkpt>
<trkpt lat="52.097032" lon="05.938561"><ele>166.6</ele><time>2024-02-22T11:47:00Z</time><name>PT4119</name></trkpt>
<trkpt lat="52.097031" lon="05.938574"><ele>166.6</ele><time>2024-02-22T11:47:01Z</time><name>PT4120</name></trkpt>
<trkpt lat="52.097031" lon="05.938586"><ele>166.6</ele><time>2024-02-22T11:47:02Z</time><name>PT4121</name></trkpt>
<trkpt lat="52.097031" lon="05.938601"><ele>166.5</ele><time>2024-02-22T11:47:03Z</time><name>PT4122</name></trkpt>
<trkpt lat="52.097031" lon="05.938617"><ele>166.6</ele><time>2024-02-22T11:47:04Z</time><name>PT4123</name></trkpt>
<trkpt lat="52.097031" lon="05.938629"><ele>166.6</ele><time>2024-02-22T11:47:05Z</time><name>PT4124</name></trkpt>
<trkpt lat="52.097031" lon="05.938640"><ele>166.7</ele><time>2024-02-22T11:47:06Z</time><name>PT4125</name></trkpt>
<trkpt lat="52.097031" lon="05.938652"><ele>166.7</ele><time>2024-02-22T11:47:07Z</time><name>PT4126</name></trkpt>
<trkpt lat="52.097030" lon="05.938670"><ele>166.9</ele><time>2024-02-22T11:47:08Z</time><name>PT4127</name></trkpt>
<trkpt lat="52.097027" lon="05.938687"><ele>166.8</ele><time>2024-02-22T11:47:09Z</time><name>PT4128</name></trkpt>
<trkpt lat="52.097026" lon="05.938702"><ele>166.9</ele><time>2024-02-22T11:47:10Z</time><name>PT4129</name></trkpt>
<trkpt lat="52.097026" lon="05.938715"><ele>166.8</ele><time>2024-02-22T11:47:11Z</time><name>PT4130</name></trkpt>
<trkpt lat="52.097026" lon="05.938728"><ele>166.9</ele><time>2024-02-22T11:47:12Z</time><name>PT4131</name></trkpt>
<trkpt lat="52.097024" lon="05.938745"><ele>166.9</ele><time>2024-02-22T11:47:13Z</time><name>PT4132</name></trkpt>
<trkpt lat="52.097022" lon="05.938761"><ele>167</ele><time>2024-02-22T11:47:14Z</time><name>PT4133</name></trkpt>
<trkpt lat="52.097021" lon="05.938776"><ele>166.8</ele><time>2024-02-22T11:47:15Z</time><name>PT4134</name></trkpt>
<trkpt lat="52.097021" lon="05.938786"><ele>167</ele><time>2024-02-22T11:47:16Z</time><name>PT4135</name></trkpt>
<trkpt lat="52.097019" lon="05.938798"><ele>166.9</ele><time>2024-02-22T11:47:17Z</time><name>PT4136</name></trkpt>
<trkpt lat="52.097016" lon="05.938815"><ele>166.9</ele><time>2024-02-22T11:47:18Z</time><name>PT4137</name></trkpt>
<trkpt lat="52.097013" lon="05.938829"><ele>167</ele><time>2024-02-22T11:47:19Z</time><name>PT4138</name></trkpt>
<trkpt lat="52.097012" lon="05.938845"><ele>166.9</ele><time>2024-02-22T11:47:20Z</time><name>PT4139</name></trkpt>
<trkpt lat="52.097011" lon="05.938859"><ele>166.8</ele><time>2024-02-22T11:47:21Z</time><name>PT4140</name></trkpt>
<trkpt lat="52.097008" lon="05.938873"><ele>167</ele><time>2024-02-22T11:47:22Z</time><name>PT4141</name></trkpt>
<trkpt lat="52.097005" lon="05.938879"><ele>167.1</ele><time>2024-02-22T11:47:23Z</time><name>PT4142</name></trkpt>
<trkpt lat="52.097003" lon="05.938886"><ele>167.2</ele><time>2024-02-22T11:47:24Z</time><name>PT4143</name></trkpt>
<trkpt lat="52.096998" lon="05.938901"><ele>167.4</ele><time>2024-02-22T11:47:25Z</time><name>PT4144</name></trkpt>
<trkpt lat="52.096991" lon="05.938916"><ele>167.3</ele><time>2024-02-22T11:47:26Z</time><name>PT4145</name></trkpt>
<trkpt lat="52.096987" lon="05.938929"><ele>167.4</ele><time>2024-02-22T11:47:27Z</time><name>PT4146</name></trkpt>
<trkpt lat="52.096985" lon="05.938940"><ele>167.4</ele><time>2024-02-22T11:47:28Z</time><name>PT4147</name></trkpt>
<trkpt lat="52.096983" lon="05.938948"><ele>167.3</ele><time>2024-02-22T11:47:29Z</time><name>PT4148</name></trkpt>
<trkpt lat="52.096982" lon="05.938950"><ele>167.3</ele><time>2024-02-22T11:47:30Z</time><name>PT4149</name></trkpt>
<trkpt lat="52.096979" lon="05.938952"><ele>167.4</ele><time>2024-02-22T11:47:31Z</time><name>PT4150</name></trkpt>
<trkpt lat="52.096978" lon="05.938952"><ele>167.5</ele><time>2024-02-22T11:47:32Z</time><name>PT4151</name></trkpt>
<trkpt lat="52.096976" lon="05.938953"><ele>167.6</ele><time>2024-02-22T11:47:33Z</time><name>PT4152</name></trkpt>
<trkpt lat="52.096975" lon="05.938974"><ele>167.8</ele><time>2024-02-22T11:47:53Z</time><name>PT4153</name></trkpt>
<trkpt lat="52.096979" lon="05.938998"><ele>167.9</ele><time>2024-02-22T11:47:54Z</time><name>PT4154</name></trkpt>
<trkpt lat="52.096981" lon="05.939019"><ele>167.9</ele><time>2024-02-22T11:47:55Z</time><name>PT4155</name></trkpt>
<trkpt lat="52.096982" lon="05.939034"><ele>167.9</ele><time>2024-02-22T11:47:56Z</time><name>PT4156</name></trkpt>
<trkpt lat="52.096985" lon="05.939046"><ele>168.1</ele><time>2024-02-22T11:47:57Z</time><name>PT4157</name></trkpt>
<trkpt lat="52.096989" lon="05.939062"><ele>168.3</ele><time>2024-02-22T11:48:05Z</time><name>PT4158</name></trkpt>
<trkpt lat="52.096990" lon="05.939086"><ele>168.3</ele><time>2024-02-22T11:48:06Z</time><name>PT4159</name></trkpt>
<trkpt lat="52.096991" lon="05.939109"><ele>168.3</ele><time>2024-02-22T11:48:07Z</time><name>PT4160</name></trkpt>
<trkpt lat="52.096990" lon="05.939134"><ele>168.3</ele><time>2024-02-22T11:48:08Z</time><name>PT4161</name></trkpt>
<trkpt lat="52.096987" lon="05.939150"><ele>168.2</ele><time>2024-02-22T11:48:09Z</time><name>PT4162</name></trkpt>
<trkpt lat="52.096985" lon="05.939168"><ele>168.1</ele><time>2024-02-22T11:48:10Z</time><name>PT4163</name></trkpt>
<trkpt lat="52.096985" lon="05.939183"><ele>168</ele><time>2024-02-22T11:48:11Z</time><name>PT4164</name></trkpt>
<trkpt lat="52.096986" lon="05.939202"><ele>167.9</ele><time>2024-02-22T11:48:12Z</time><name>PT4165</name></trkpt>
<trkpt lat="52.096982" lon="05.939216"><ele>167.9</ele><time>2024-02-22T11:48:13Z</time><name>PT4166</name></trkpt>
<trkpt lat="52.096980" lon="05.939229"><ele>167.9</ele><time>2024-02-22T11:48:14Z</time><name>PT4167</name></trkpt>
<trkpt lat="52.096978" lon="05.939240"><ele>167.9</ele><time>2024-02-22T11:48:15Z</time><name>PT4168</name></trkpt>
<trkpt lat="52.096980" lon="05.939251"><ele>168.1</ele><time>2024-02-22T11:48:16Z</time><name>PT4169</name></trkpt>
<trkpt lat="52.096975" lon="05.939277"><ele>168.1</ele><time>2024-02-22T11:48:17Z</time><name>PT4170</name></trkpt>
<trkpt lat="52.096973" lon="05.939295"><ele>168.1</ele><time>2024-02-22T11:48:18Z</time><name>PT4171</name></trkpt>
<trkpt lat="52.096974" lon="05.939313"><ele>168.1</ele><time>2024-02-22T11:48:19Z</time><name>PT4172</name></trkpt>
<trkpt lat="52.096973" lon="05.939331"><ele>168.1</ele><time>2024-02-22T11:48:20Z</time><name>PT4173</name></trkpt>
<trkpt lat="52.096973" lon="05.939343"><ele>167.9</ele><time>2024-02-22T11:48:21Z</time><name>PT4174</name></trkpt>
<trkpt lat="52.096972" lon="05.939355"><ele>168.2</ele><time>2024-02-22T11:48:22Z</time><name>PT4175</name></trkpt>
<trkpt lat="52.096969" lon="05.939371"><ele>168.2</ele><time>2024-02-22T11:48:23Z</time><name>PT4176</name></trkpt>
<trkpt lat="52.096968" lon="05.939386"><ele>168.2</ele><time>2024-02-22T11:48:24Z</time><name>PT4177</name></trkpt>
<trkpt lat="52.096970" lon="05.939392"><ele>168.1</ele><time>2024-02-22T11:48:25Z</time><name>PT4178</name></trkpt>
<trkpt lat="52.096968" lon="05.939395"><ele>168.1</ele><time>2024-02-22T11:48:26Z</time><name>PT4179</name></trkpt>
<trkpt lat="52.096968" lon="05.939399"><ele>167.9</ele><time>2024-02-22T11:48:27Z</time><name>PT4180</name></trkpt>
<trkpt lat="52.096970" lon="05.939409"><ele>168.2</ele><time>2024-02-22T11:48:42Z</time><name>PT4181</name></trkpt>
<trkpt lat="52.096971" lon="05.939434"><ele>168.2</ele><time>2024-02-22T11:48:43Z</time><name>PT4182</name></trkpt>
<trkpt lat="52.096972" lon="05.939457"><ele>168.1</ele><time>2024-02-22T11:48:44Z</time><name>PT4183</name></trkpt>
<trkpt lat="52.096972" lon="05.939479"><ele>168.2</ele><time>2024-02-22T11:48:45Z</time><name>PT4184</name></trkpt>
<trkpt lat="52.096969" lon="05.939501"><ele>168.3</ele><time>2024-02-22T11:48:46Z</time><name>PT4185</name></trkpt>
<trkpt lat="52.096966" lon="05.939521"><ele>168.3</ele><time>2024-02-22T11:48:47Z</time><name>PT4186</name></trkpt>
<trkpt lat="52.096963" lon="05.939541"><ele>168.3</ele><time>2024-02-22T11:48:48Z</time><name>PT4187</name></trkpt>
<trkpt lat="52.096963" lon="05.939562"><ele>168.3</ele><time>2024-02-22T11:48:49Z</time><name>PT4188</name></trkpt>
<trkpt lat="52.096961" lon="05.939577"><ele>168.2</ele><time>2024-02-22T11:48:50Z</time><name>PT4189</name></trkpt>
<trkpt lat="52.096961" lon="05.939575"><ele>168.2</ele><time>2024-02-22T11:48:51Z</time><name>PT4190</name></trkpt>
<trkpt lat="52.096960" lon="05.939577"><ele>168.2</ele><time>2024-02-22T11:48:52Z</time><name>PT4191</name></trkpt>
<trkpt lat="52.096959" lon="05.939583"><ele>168.3</ele><time>2024-02-22T11:48:53Z</time><name>PT4192</name></trkpt>
<trkpt lat="52.096958" lon="05.939595"><ele>168.4</ele><time>2024-02-22T11:48:54Z</time><name>PT4193</name></trkpt>
<trkpt lat="52.096959" lon="05.939611"><ele>168.5</ele><time>2024-02-22T11:48:55Z</time><name>PT4194</name></trkpt>
<trkpt lat="52.096960" lon="05.939626"><ele>168.6</ele><time>2024-02-22T11:48:56Z</time><name>PT4195</name></trkpt>
<trkpt lat="52.096960" lon="05.939639"><ele>168.6</ele><time>2024-02-22T11:48:57Z</time><name>PT4196</name></trkpt>
<trkpt lat="52.096956" lon="05.939654"><ele>168.4</ele><time>2024-02-22T11:48:58Z</time><name>PT4197</name></trkpt>
<trkpt lat="52.096956" lon="05.939673"><ele>168.3</ele><time>2024-02-22T11:48:59Z</time><name>PT4198</name></trkpt>
<trkpt lat="52.096956" lon="05.939689"><ele>168</ele><time>2024-02-22T11:49:00Z</time><name>PT4199</name></trkpt>
<trkpt lat="52.096956" lon="05.939701"><ele>167.7</ele><time>2024-02-22T11:49:01Z</time><name>PT4200</name></trkpt>
<trkpt lat="52.096954" lon="05.939714"><ele>167.7</ele><time>2024-02-22T11:49:02Z</time><name>PT4201</name></trkpt>
<trkpt lat="52.096953" lon="05.939728"><ele>167.9</ele><time>2024-02-22T11:49:03Z</time><name>PT4202</name></trkpt>
<trkpt lat="52.096952" lon="05.939753"><ele>168.1</ele><time>2024-02-22T11:49:04Z</time><name>PT4203</name></trkpt>
<trkpt lat="52.096951" lon="05.939771"><ele>168.2</ele><time>2024-02-22T11:49:05Z</time><name>PT4204</name></trkpt>
<trkpt lat="52.096947" lon="05.939784"><ele>168.3</ele><time>2024-02-22T11:49:06Z</time><name>PT4205</name></trkpt>
<trkpt lat="52.096947" lon="05.939800"><ele>168.3</ele><time>2024-02-22T11:49:07Z</time><name>PT4206</name></trkpt>
<trkpt lat="52.096948" lon="05.939816"><ele>168.3</ele><time>2024-02-22T11:49:08Z</time><name>PT4207</name></trkpt>
<trkpt lat="52.096950" lon="05.939834"><ele>168.4</ele><time>2024-02-22T11:49:09Z</time><name>PT4208</name></trkpt>
<trkpt lat="52.096949" lon="05.939852"><ele>168.5</ele><time>2024-02-22T11:49:10Z</time><name>PT4209</name></trkpt>
<trkpt lat="52.096947" lon="05.939875"><ele>168.6</ele><time>2024-02-22T11:49:11Z</time><name>PT4210</name></trkpt>
<trkpt lat="52.096945" lon="05.939894"><ele>168.5</ele><time>2024-02-22T11:49:12Z</time><name>PT4211</name></trkpt>
<trkpt lat="52.096941" lon="05.939912"><ele>168.6</ele><time>2024-02-22T11:49:14Z</time><name>PT4212</name></trkpt>
<trkpt lat="52.096936" lon="05.939927"><ele>168.6</ele><time>2024-02-22T11:49:14Z</time><name>PT4213</name></trkpt>
<trkpt lat="52.096934" lon="05.939943"><ele>168.6</ele><time>2024-02-22T11:49:15Z</time><name>PT4214</name></trkpt>
<trkpt lat="52.096931" lon="05.939960"><ele>168.8</ele><time>2024-02-22T11:49:16Z</time><name>PT4215</name></trkpt>
<trkpt lat="52.096926" lon="05.939978"><ele>168.7</ele><time>2024-02-22T11:49:17Z</time><name>PT4216</name></trkpt>
<trkpt lat="52.096922" lon="05.939994"><ele>168.7</ele><time>2024-02-22T11:49:18Z</time><name>PT4217</name></trkpt>
<trkpt lat="52.096923" lon="05.940009"><ele>168.8</ele><time>2024-02-22T11:49:20Z</time><name>PT4218</name></trkpt>
<trkpt lat="52.096925" lon="05.940027"><ele>168.7</ele><time>2024-02-22T11:49:20Z</time><name>PT4219</name></trkpt>
<trkpt lat="52.096925" lon="05.940049"><ele>168.6</ele><time>2024-02-22T11:49:21Z</time><name>PT4220</name></trkpt>
<trkpt lat="52.096923" lon="05.940068"><ele>168.6</ele><time>2024-02-22T11:49:22Z</time><name>PT4221</name></trkpt>
<trkpt lat="52.096922" lon="05.940087"><ele>168.6</ele><time>2024-02-22T11:49:23Z</time><name>PT4222</name></trkpt>
<trkpt lat="52.096923" lon="05.940106"><ele>168.7</ele><time>2024-02-22T11:49:24Z</time><name>PT4223</name></trkpt>
<trkpt lat="52.096922" lon="05.940123"><ele>168.8</ele><time>2024-02-22T11:49:25Z</time><name>PT4224</name></trkpt>
<trkpt lat="52.096920" lon="05.940139"><ele>168.9</ele><time>2024-02-22T11:49:26Z</time><name>PT4225</name></trkpt>
<trkpt lat="52.096918" lon="05.940156"><ele>168.7</ele><time>2024-02-22T11:49:27Z</time><name>PT4226</name></trkpt>
<trkpt lat="52.096918" lon="05.940172"><ele>168.7</ele><time>2024-02-22T11:49:28Z</time><name>PT4227</name></trkpt>
<trkpt lat="52.096912" lon="05.940186"><ele>168.5</ele><time>2024-02-22T11:49:29Z</time><name>PT4228</name></trkpt>
<trkpt lat="52.096907" lon="05.940195"><ele>168.4</ele><time>2024-02-22T11:49:30Z</time><name>PT4229</name></trkpt>
<trkpt lat="52.096905" lon="05.940210"><ele>168.3</ele><time>2024-02-22T11:49:31Z</time><name>PT4230</name></trkpt>
<trkpt lat="52.096906" lon="05.940227"><ele>168.3</ele><time>2024-02-22T11:49:32Z</time><name>PT4231</name></trkpt>
<trkpt lat="52.096905" lon="05.940243"><ele>168</ele><time>2024-02-22T11:49:33Z</time><name>PT4232</name></trkpt>
<trkpt lat="52.096901" lon="05.940263"><ele>167.9</ele><time>2024-02-22T11:49:34Z</time><name>PT4233</name></trkpt>
<trkpt lat="52.096898" lon="05.940290"><ele>167.8</ele><time>2024-02-22T11:49:35Z</time><name>PT4234</name></trkpt>
<trkpt lat="52.096897" lon="05.940317"><ele>167.8</ele><time>2024-02-22T11:49:36Z</time><name>PT4235</name></trkpt>
<trkpt lat="52.096896" lon="05.940338"><ele>167.8</ele><time>2024-02-22T11:49:37Z</time><name>PT4236</name></trkpt>
<trkpt lat="52.096896" lon="05.940360"><ele>167.8</ele><time>2024-02-22T11:49:38Z</time><name>PT4237</name></trkpt>
<trkpt lat="52.096895" lon="05.940373"><ele>167.8</ele><time>2024-02-22T11:49:39Z</time><name>PT4238</name></trkpt>
<trkpt lat="52.096892" lon="05.940387"><ele>167.9</ele><time>2024-02-22T11:49:40Z</time><name>PT4239</name></trkpt>
<trkpt lat="52.096890" lon="05.940400"><ele>167.8</ele><time>2024-02-22T11:49:41Z</time><name>PT4240</name></trkpt>
<trkpt lat="52.096888" lon="05.940413"><ele>167.8</ele><time>2024-02-22T11:49:42Z</time><name>PT4241</name></trkpt>
<trkpt lat="52.096886" lon="05.940431"><ele>168</ele><time>2024-02-22T11:49:43Z</time><name>PT4242</name></trkpt>
<trkpt lat="52.096887" lon="05.940456"><ele>167.9</ele><time>2024-02-22T11:49:44Z</time><name>PT4243</name></trkpt>
<trkpt lat="52.096887" lon="05.940485"><ele>167.7</ele><time>2024-02-22T11:49:45Z</time><name>PT4244</name></trkpt>
<trkpt lat="52.096883" lon="05.940508"><ele>167.7</ele><time>2024-02-22T11:49:46Z</time><name>PT4245</name></trkpt>
<trkpt lat="52.096874" lon="05.940529"><ele>167.7</ele><time>2024-02-22T11:49:47Z</time><name>PT4246</name></trkpt>
<trkpt lat="52.096867" lon="05.940544"><ele>167.6</ele><time>2024-02-22T11:49:48Z</time><name>PT4247</name></trkpt>
<trkpt lat="52.096864" lon="05.940558"><ele>167.7</ele><time>2024-02-22T11:49:49Z</time><name>PT4248</name></trkpt>
<trkpt lat="52.096865" lon="05.940574"><ele>167.7</ele><time>2024-02-22T11:49:50Z</time><name>PT4249</name></trkpt>
<trkpt lat="52.096865" lon="05.940593"><ele>167.7</ele><time>2024-02-22T11:49:51Z</time><name>PT4250</name></trkpt>
<trkpt lat="52.096863" lon="05.940606"><ele>167.7</ele><time>2024-02-22T11:49:52Z</time><name>PT4251</name></trkpt>
<trkpt lat="52.096861" lon="05.940626"><ele>167.7</ele><time>2024-02-22T11:49:53Z</time><name>PT4252</name></trkpt>
<trkpt lat="52.096859" lon="05.940651"><ele>167.8</ele><time>2024-02-22T11:49:54Z</time><name>PT4253</name></trkpt>
<trkpt lat="52.096857" lon="05.940677"><ele>168</ele><time>2024-02-22T11:49:55Z</time><name>PT4254</name></trkpt>
<trkpt lat="52.096855" lon="05.940697"><ele>168.2</ele><time>2024-02-22T11:49:56Z</time><name>PT4255</name></trkpt>
<trkpt lat="52.096854" lon="05.940717"><ele>168.2</ele><time>2024-02-22T11:49:57Z</time><name>PT4256</name></trkpt>
<trkpt lat="52.096854" lon="05.940736"><ele>167.9</ele><time>2024-02-22T11:49:58Z</time><name>PT4257</name></trkpt>
<trkpt lat="52.096855" lon="05.940751"><ele>167.9</ele><time>2024-02-22T11:49:59Z</time><name>PT4258</name></trkpt>
<trkpt lat="52.096858" lon="05.940765"><ele>167.8</ele><time>2024-02-22T11:50:00Z</time><name>PT4259</name></trkpt>
<trkpt lat="52.096857" lon="05.940781"><ele>167.7</ele><time>2024-02-22T11:50:01Z</time><name>PT4260</name></trkpt>
<trkpt lat="52.096854" lon="05.940802"><ele>167.7</ele><time>2024-02-22T11:50:02Z</time><name>PT4261</name></trkpt>
<trkpt lat="52.096854" lon="05.940831"><ele>167.8</ele><time>2024-02-22T11:50:03Z</time><name>PT4262</name></trkpt>
<trkpt lat="52.096851" lon="05.940850"><ele>167.8</ele><time>2024-02-22T11:50:04Z</time><name>PT4263</name></trkpt>
<trkpt lat="52.096850" lon="05.940870"><ele>167.9</ele><time>2024-02-22T11:50:05Z</time><name>PT4264</name></trkpt>
<trkpt lat="52.096849" lon="05.940888"><ele>168.1</ele><time>2024-02-22T11:50:06Z</time><name>PT4265</name></trkpt>
<trkpt lat="52.096846" lon="05.940903"><ele>168.2</ele><time>2024-02-22T11:50:07Z</time><name>PT4266</name></trkpt>
<trkpt lat="52.096845" lon="05.940917"><ele>168.1</ele><time>2024-02-22T11:50:08Z</time><name>PT4267</name></trkpt>
<trkpt lat="52.096847" lon="05.940932"><ele>168.3</ele><time>2024-02-22T11:50:09Z</time><name>PT4268</name></trkpt>
<trkpt lat="52.096847" lon="05.940946"><ele>168.2</ele><time>2024-02-22T11:50:10Z</time><name>PT4269</name></trkpt>
<trkpt lat="52.096839" lon="05.940957"><ele>168.1</ele><time>2024-02-22T11:50:11Z</time><name>PT4270</name></trkpt>
<trkpt lat="52.096837" lon="05.940971"><ele>168</ele><time>2024-02-22T11:50:12Z</time><name>PT4271</name></trkpt>
<trkpt lat="52.096838" lon="05.940991"><ele>167.9</ele><time>2024-02-22T11:50:13Z</time><name>PT4272</name></trkpt>
<trkpt lat="52.096836" lon="05.941012"><ele>167.8</ele><time>2024-02-22T11:50:14Z</time><name>PT4273</name></trkpt>
<trkpt lat="52.096834" lon="05.941032"><ele>167.8</ele><time>2024-02-22T11:50:15Z</time><name>PT4274</name></trkpt>
<trkpt lat="52.096829" lon="05.941059"><ele>167.9</ele><time>2024-02-22T11:50:16Z</time><name>PT4275</name></trkpt>
<trkpt lat="52.096824" lon="05.941085"><ele>167.9</ele><time>2024-02-22T11:50:17Z</time><name>PT4276</name></trkpt>
<trkpt lat="52.096819" lon="05.941103"><ele>168</ele><time>2024-02-22T11:50:18Z</time><name>PT4277</name></trkpt>
<trkpt lat="52.096818" lon="05.941119"><ele>167.9</ele><time>2024-02-22T11:50:19Z</time><name>PT4278</name></trkpt>
<trkpt lat="52.096817" lon="05.941130"><ele>167.8</ele><time>2024-02-22T11:50:20Z</time><name>PT4279</name></trkpt>
<trkpt lat="52.096816" lon="05.941138"><ele>167.8</ele><time>2024-02-22T11:50:21Z</time><name>PT4280</name></trkpt>
<trkpt lat="52.096813" lon="05.941152"><ele>167.9</ele><time>2024-02-22T11:50:22Z</time><name>PT4281</name></trkpt>
<trkpt lat="52.096810" lon="05.941176"><ele>167.9</ele><time>2024-02-22T11:50:23Z</time><name>PT4282</name></trkpt>
<trkpt lat="52.096810" lon="05.941202"><ele>167.7</ele><time>2024-02-22T11:50:24Z</time><name>PT4283</name></trkpt>
<trkpt lat="52.096807" lon="05.941229"><ele>167.8</ele><time>2024-02-22T11:50:25Z</time><name>PT4284</name></trkpt>
<trkpt lat="52.096804" lon="05.941249"><ele>167.7</ele><time>2024-02-22T11:50:26Z</time><name>PT4285</name></trkpt>
<trkpt lat="52.096803" lon="05.941269"><ele>167.7</ele><time>2024-02-22T11:50:27Z</time><name>PT4286</name></trkpt>
<trkpt lat="52.096802" lon="05.941288"><ele>167.7</ele><time>2024-02-22T11:50:28Z</time><name>PT4287</name></trkpt>
<trkpt lat="52.096801" lon="05.941302"><ele>167.7</ele><time>2024-02-22T11:50:29Z</time><name>PT4288</name></trkpt>
<trkpt lat="52.096799" lon="05.941317"><ele>167.7</ele><time>2024-02-22T11:50:30Z</time><name>PT4289</name></trkpt>
<trkpt lat="52.096800" lon="05.941334"><ele>167.6</ele><time>2024-02-22T11:50:31Z</time><name>PT4290</name></trkpt>
<trkpt lat="52.096800" lon="05.941352"><ele>167.5</ele><time>2024-02-22T11:50:32Z</time><name>PT4291</name></trkpt>
<trkpt lat="52.096796" lon="05.941372"><ele>167.3</ele><time>2024-02-22T11:50:33Z</time><name>PT4292</name></trkpt>
<trkpt lat="52.096793" lon="05.941392"><ele>167.4</ele><time>2024-02-22T11:50:34Z</time><name>PT4293</name></trkpt>
<trkpt lat="52.096790" lon="05.941415"><ele>167.3</ele><time>2024-02-22T11:50:35Z</time><name>PT4294</name></trkpt>
<trkpt lat="52.096786" lon="05.941433"><ele>167.4</ele><time>2024-02-22T11:50:36Z</time><name>PT4295</name></trkpt>
<trkpt lat="52.096788" lon="05.941456"><ele>167.5</ele><time>2024-02-22T11:50:37Z</time><name>PT4296</name></trkpt>
<trkpt lat="52.096787" lon="05.941476"><ele>167.5</ele><time>2024-02-22T11:50:38Z</time><name>PT4297</name></trkpt>
<trkpt lat="52.096779" lon="05.941486"><ele>167.6</ele><time>2024-02-22T11:50:39Z</time><name>PT4298</name></trkpt>
<trkpt lat="52.096777" lon="05.941502"><ele>167.5</ele><time>2024-02-22T11:50:40Z</time><name>PT4299</name></trkpt>
<trkpt lat="52.096775" lon="05.941529"><ele>167.4</ele><time>2024-02-22T11:50:41Z</time><name>PT4300</name></trkpt>
<trkpt lat="52.096774" lon="05.941556"><ele>167.4</ele><time>2024-02-22T11:50:42Z</time><name>PT4301</name></trkpt>
<trkpt lat="52.096773" lon="05.941578"><ele>167.3</ele><time>2024-02-22T11:50:43Z</time><name>PT4302</name></trkpt>
<trkpt lat="52.096776" lon="05.941602"><ele>167.2</ele><time>2024-02-22T11:50:44Z</time><name>PT4303</name></trkpt>
<trkpt lat="52.096777" lon="05.941618"><ele>167.2</ele><time>2024-02-22T11:50:45Z</time><name>PT4304</name></trkpt>
<trkpt lat="52.096775" lon="05.941630"><ele>167.2</ele><time>2024-02-22T11:50:46Z</time><name>PT4305</name></trkpt>
<trkpt lat="52.096775" lon="05.941640"><ele>167.2</ele><time>2024-02-22T11:50:47Z</time><name>PT4306</name></trkpt>
<trkpt lat="52.096774" lon="05.941650"><ele>167.2</ele><time>2024-02-22T11:50:48Z</time><name>PT4307</name></trkpt>
<trkpt lat="52.096776" lon="05.941665"><ele>167.2</ele><time>2024-02-22T11:50:49Z</time><name>PT4308</name></trkpt>
<trkpt lat="52.096777" lon="05.941682"><ele>167</ele><time>2024-02-22T11:50:50Z</time><name>PT4309</name></trkpt>
<trkpt lat="52.096775" lon="05.941708"><ele>167</ele><time>2024-02-22T11:50:51Z</time><name>PT4310</name></trkpt>
<trkpt lat="52.096773" lon="05.941724"><ele>166.9</ele><time>2024-02-22T11:50:52Z</time><name>PT4311</name></trkpt>
<trkpt lat="52.096770" lon="05.941740"><ele>167</ele><time>2024-02-22T11:50:53Z</time><name>PT4312</name></trkpt>
<trkpt lat="52.096768" lon="05.941763"><ele>167.2</ele><time>2024-02-22T11:50:54Z</time><name>PT4313</name></trkpt>
<trkpt lat="52.096765" lon="05.941783"><ele>167.2</ele><time>2024-02-22T11:50:55Z</time><name>PT4314</name></trkpt>
<trkpt lat="52.096763" lon="05.941801"><ele>167.2</ele><time>2024-02-22T11:50:56Z</time><name>PT4315</name></trkpt>
<trkpt lat="52.096760" lon="05.941819"><ele>167.3</ele><time>2024-02-22T11:50:57Z</time><name>PT4316</name></trkpt>
<trkpt lat="52.096759" lon="05.941828"><ele>167.3</ele><time>2024-02-22T11:50:58Z</time><name>PT4317</name></trkpt>
<trkpt lat="52.096759" lon="05.941841"><ele>167.3</ele><time>2024-02-22T11:50:59Z</time><name>PT4318</name></trkpt>
<trkpt lat="52.096756" lon="05.941862"><ele>167.4</ele><time>2024-02-22T11:51:00Z</time><name>PT4319</name></trkpt>
<trkpt lat="52.096752" lon="05.941884"><ele>167.4</ele><time>2024-02-22T11:51:01Z</time><name>PT4320</name></trkpt>
<trkpt lat="52.096749" lon="05.941906"><ele>167.4</ele><time>2024-02-22T11:51:02Z</time><name>PT4321</name></trkpt>
<trkpt lat="52.096749" lon="05.941926"><ele>167.3</ele><time>2024-02-22T11:51:03Z</time><name>PT4322</name></trkpt>
<trkpt lat="52.096753" lon="05.941941"><ele>167.3</ele><time>2024-02-22T11:51:04Z</time><name>PT4323</name></trkpt>
<trkpt lat="52.096754" lon="05.941941"><ele>167.4</ele><time>2024-02-22T11:51:05Z</time><name>PT4324</name></trkpt>
<trkpt lat="52.096755" lon="05.941942"><ele>167.4</ele><time>2024-02-22T11:51:06Z</time><name>PT4325</name></trkpt>
<trkpt lat="52.096757" lon="05.941940"><ele>167.3</ele><time>2024-02-22T11:51:07Z</time><name>PT4326</name></trkpt>
<trkpt lat="52.096758" lon="05.941941"><ele>167.3</ele><time>2024-02-22T11:51:08Z</time><name>PT4327</name></trkpt>
<trkpt lat="52.096757" lon="05.941945"><ele>167.4</ele><time>2024-02-22T11:51:09Z</time><name>PT4328</name></trkpt>
<trkpt lat="52.096757" lon="05.941949"><ele>167.3</ele><time>2024-02-22T11:51:10Z</time><name>PT4329</name></trkpt>
<trkpt lat="52.096754" lon="05.941954"><ele>167.2</ele><time>2024-02-22T11:51:11Z</time><name>PT4330</name></trkpt>
<trkpt lat="52.096752" lon="05.941964"><ele>167.3</ele><time>2024-02-22T11:51:12Z</time><name>PT4331</name></trkpt>
<trkpt lat="52.096749" lon="05.941982"><ele>167.4</ele><time>2024-02-22T11:51:13Z</time><name>PT4332</name></trkpt>
<trkpt lat="52.096746" lon="05.942002"><ele>167.5</ele><time>2024-02-22T11:51:14Z</time><name>PT4333</name></trkpt>
<trkpt lat="52.096743" lon="05.942018"><ele>167.4</ele><time>2024-02-22T11:51:15Z</time><name>PT4334</name></trkpt>
<trkpt lat="52.096743" lon="05.942032"><ele>167.4</ele><time>2024-02-22T11:51:16Z</time><name>PT4335</name></trkpt>
<trkpt lat="52.096742" lon="05.942043"><ele>167.4</ele><time>2024-02-22T11:51:17Z</time><name>PT4336</name></trkpt>
<trkpt lat="52.096740" lon="05.942061"><ele>167.3</ele><time>2024-02-22T11:51:18Z</time><name>PT4337</name></trkpt>
<trkpt lat="52.096739" lon="05.942080"><ele>167.3</ele><time>2024-02-22T11:51:19Z</time><name>PT4338</name></trkpt>
<trkpt lat="52.096737" lon="05.942102"><ele>167.5</ele><time>2024-02-22T11:51:20Z</time><name>PT4339</name></trkpt>
<trkpt lat="52.096732" lon="05.942123"><ele>167.4</ele><time>2024-02-22T11:51:21Z</time><name>PT4340</name></trkpt>
<trkpt lat="52.096731" lon="05.942144"><ele>167.7</ele><time>2024-02-22T11:51:22Z</time><name>PT4341</name></trkpt>
<trkpt lat="52.096729" lon="05.942161"><ele>167.6</ele><time>2024-02-22T11:51:23Z</time><name>PT4342</name></trkpt>
<trkpt lat="52.096727" lon="05.942176"><ele>167.6</ele><time>2024-02-22T11:51:24Z</time><name>PT4343</name></trkpt>
<trkpt lat="52.096726" lon="05.942190"><ele>167.7</ele><time>2024-02-22T11:51:25Z</time><name>PT4344</name></trkpt>
<trkpt lat="52.096726" lon="05.942207"><ele>167.7</ele><time>2024-02-22T11:51:26Z</time><name>PT4345</name></trkpt>
<trkpt lat="52.096727" lon="05.942228"><ele>167.7</ele><time>2024-02-22T11:51:27Z</time><name>PT4346</name></trkpt>
<trkpt lat="52.096726" lon="05.942248"><ele>167.7</ele><time>2024-02-22T11:51:28Z</time><name>PT4347</name></trkpt>
<trkpt lat="52.096725" lon="05.942265"><ele>167.7</ele><time>2024-02-22T11:51:29Z</time><name>PT4348</name></trkpt>
<trkpt lat="52.096722" lon="05.942282"><ele>167.6</ele><time>2024-02-22T11:51:30Z</time><name>PT4349</name></trkpt>
<trkpt lat="52.096720" lon="05.942294"><ele>167.3</ele><time>2024-02-22T11:51:31Z</time><name>PT4350</name></trkpt>
<trkpt lat="52.096718" lon="05.942309"><ele>167.3</ele><time>2024-02-22T11:51:32Z</time><name>PT4351</name></trkpt>
<trkpt lat="52.096718" lon="05.942326"><ele>167.2</ele><time>2024-02-22T11:51:33Z</time><name>PT4352</name></trkpt>
<trkpt lat="52.096716" lon="05.942345"><ele>167.3</ele><time>2024-02-22T11:51:34Z</time><name>PT4353</name></trkpt>
<trkpt lat="52.096716" lon="05.942358"><ele>167.4</ele><time>2024-02-22T11:51:35Z</time><name>PT4354</name></trkpt>
<trkpt lat="52.096716" lon="05.942371"><ele>167.4</ele><time>2024-02-22T11:51:36Z</time><name>PT4355</name></trkpt>
<trkpt lat="52.096718" lon="05.942383"><ele>167.2</ele><time>2024-02-22T11:51:37Z</time><name>PT4356</name></trkpt>
<trkpt lat="52.096721" lon="05.942400"><ele>167.2</ele><time>2024-02-22T11:51:38Z</time><name>PT4357</name></trkpt>
<trkpt lat="52.096720" lon="05.942417"><ele>167.2</ele><time>2024-02-22T11:51:39Z</time><name>PT4358</name></trkpt>
<trkpt lat="52.096716" lon="05.942435"><ele>167.2</ele><time>2024-02-22T11:51:40Z</time><name>PT4359</name></trkpt>
<trkpt lat="52.096714" lon="05.942453"><ele>167.2</ele><time>2024-02-22T11:51:41Z</time><name>PT4360</name></trkpt>
<trkpt lat="52.096713" lon="05.942471"><ele>167.3</ele><time>2024-02-22T11:51:42Z</time><name>PT4361</name></trkpt>
<trkpt lat="52.096713" lon="05.942485"><ele>167</ele><time>2024-02-22T11:51:43Z</time><name>PT4362</name></trkpt>
<trkpt lat="52.096712" lon="05.942500"><ele>167.1</ele><time>2024-02-22T11:51:44Z</time><name>PT4363</name></trkpt>
<trkpt lat="52.096707" lon="05.942521"><ele>167.2</ele><time>2024-02-22T11:51:45Z</time><name>PT4364</name></trkpt>
<trkpt lat="52.096708" lon="05.942551"><ele>167.2</ele><time>2024-02-22T11:51:46Z</time><name>PT4365</name></trkpt>
<trkpt lat="52.096712" lon="05.942573"><ele>167.3</ele><time>2024-02-22T11:51:47Z</time><name>PT4366</name></trkpt>
<trkpt lat="52.096712" lon="05.942593"><ele>167.6</ele><time>2024-02-22T11:51:48Z</time><name>PT4367</name></trkpt>
<trkpt lat="52.096711" lon="05.942613"><ele>167.7</ele><time>2024-02-22T11:51:49Z</time><name>PT4368</name></trkpt>
<trkpt lat="52.096710" lon="05.942631"><ele>167.6</ele><time>2024-02-22T11:51:50Z</time><name>PT4369</name></trkpt>
<trkpt lat="52.096711" lon="05.942647"><ele>167.7</ele><time>2024-02-22T11:51:51Z</time><name>PT4370</name></trkpt>
<trkpt lat="52.096713" lon="05.942662"><ele>167.5</ele><time>2024-02-22T11:51:52Z</time><name>PT4371</name></trkpt>
<trkpt lat="52.096712" lon="05.942677"><ele>167.4</ele><time>2024-02-22T11:51:53Z</time><name>PT4372</name></trkpt>
<trkpt lat="52.096710" lon="05.942697"><ele>167.5</ele><time>2024-02-22T11:51:54Z</time><name>PT4373</name></trkpt>
<trkpt lat="52.096708" lon="05.942717"><ele>167.5</ele><time>2024-02-22T11:51:56Z</time><name>PT4374</name></trkpt>
<trkpt lat="52.096703" lon="05.942739"><ele>167.5</ele><time>2024-02-22T11:51:56Z</time><name>PT4375</name></trkpt>
<trkpt lat="52.096699" lon="05.942757"><ele>167.6</ele><time>2024-02-22T11:51:57Z</time><name>PT4376</name></trkpt>
<trkpt lat="52.096695" lon="05.942774"><ele>167.6</ele><time>2024-02-22T11:51:58Z</time><name>PT4377</name></trkpt>
<trkpt lat="52.096694" lon="05.942789"><ele>167.5</ele><time>2024-02-22T11:51:59Z</time><name>PT4378</name></trkpt>
<trkpt lat="52.096693" lon="05.942803"><ele>167.3</ele><time>2024-02-22T11:52:00Z</time><name>PT4379</name></trkpt>
<trkpt lat="52.096693" lon="05.942815"><ele>167.2</ele><time>2024-02-22T11:52:01Z</time><name>PT4380</name></trkpt>
<trkpt lat="52.096692" lon="05.942831"><ele>167.1</ele><time>2024-02-22T11:52:02Z</time><name>PT4381</name></trkpt>
<trkpt lat="52.096688" lon="05.942851"><ele>167</ele><time>2024-02-22T11:52:03Z</time><name>PT4382</name></trkpt>
<trkpt lat="52.096681" lon="05.942871"><ele>166.8</ele><time>2024-02-22T11:52:04Z</time><name>PT4383</name></trkpt>
<trkpt lat="52.096676" lon="05.942883"><ele>166.8</ele><time>2024-02-22T11:52:05Z</time><name>PT4384</name></trkpt>
<trkpt lat="52.096674" lon="05.942897"><ele>166.9</ele><time>2024-02-22T11:52:06Z</time><name>PT4385</name></trkpt>
<trkpt lat="52.096675" lon="05.942910"><ele>166.8</ele><time>2024-02-22T11:52:07Z</time><name>PT4386</name></trkpt>
<trkpt lat="52.096677" lon="05.942918"><ele>166.8</ele><time>2024-02-22T11:52:08Z</time><name>PT4387</name></trkpt>
<trkpt lat="52.096678" lon="05.942934"><ele>166.9</ele><time>2024-02-22T11:52:09Z</time><name>PT4388</name></trkpt>
<trkpt lat="52.096681" lon="05.942943"><ele>167.1</ele><time>2024-02-22T11:52:10Z</time><name>PT4389</name></trkpt>
<trkpt lat="52.096682" lon="05.942946"><ele>167.1</ele><time>2024-02-22T11:52:11Z</time><name>PT4390</name></trkpt>
<trkpt lat="52.096681" lon="05.942949"><ele>167.2</ele><time>2024-02-22T11:52:12Z</time><name>PT4391</name></trkpt>
<trkpt lat="52.096678" lon="05.942949"><ele>167.3</ele><time>2024-02-22T11:52:13Z</time><name>PT4392</name></trkpt>
<trkpt lat="52.096680" lon="05.942954"><ele>167.3</ele><time>2024-02-22T11:52:14Z</time><name>PT4393</name></trkpt>
<trkpt lat="52.096682" lon="05.942969"><ele>167.3</ele><time>2024-02-22T11:52:15Z</time><name>PT4394</name></trkpt>
<trkpt lat="52.096684" lon="05.942978"><ele>167.2</ele><time>2024-02-22T11:52:16Z</time><name>PT4395</name></trkpt>
<trkpt lat="52.096683" lon="05.942983"><ele>167.1</ele><time>2024-02-22T11:52:17Z</time><name>PT4396</name></trkpt>
<trkpt lat="52.096680" lon="05.942991"><ele>167</ele><time>2024-02-22T11:52:18Z</time><name>PT4397</name></trkpt>
<trkpt lat="52.096677" lon="05.943006"><ele>166.9</ele><time>2024-02-22T11:52:19Z</time><name>PT4398</name></trkpt>
<trkpt lat="52.096675" lon="05.943021"><ele>166.8</ele><time>2024-02-22T11:52:20Z</time><name>PT4399</name></trkpt>
<trkpt lat="52.096676" lon="05.943035"><ele>166.7</ele><time>2024-02-22T11:52:21Z</time><name>PT4400</name></trkpt>
<trkpt lat="52.096676" lon="05.943044"><ele>166.7</ele><time>2024-02-22T11:52:22Z</time><name>PT4401</name></trkpt>
<trkpt lat="52.096674" lon="05.943051"><ele>166.7</ele><time>2024-02-22T11:52:23Z</time><name>PT4402</name></trkpt>
<trkpt lat="52.096669" lon="05.943062"><ele>166.6</ele><time>2024-02-22T11:52:24Z</time><name>PT4403</name></trkpt>
<trkpt lat="52.096664" lon="05.943076"><ele>166.6</ele><time>2024-02-22T11:52:25Z</time><name>PT4404</name></trkpt>
<trkpt lat="52.096661" lon="05.943089"><ele>166.7</ele><time>2024-02-22T11:52:26Z</time><name>PT4405</name></trkpt>
<trkpt lat="52.096661" lon="05.943101"><ele>167</ele><time>2024-02-22T11:52:27Z</time><name>PT4406</name></trkpt>
<trkpt lat="52.096661" lon="05.943114"><ele>167</ele><time>2024-02-22T11:52:28Z</time><name>PT4407</name></trkpt>
<trkpt lat="52.096661" lon="05.943130"><ele>167</ele><time>2024-02-22T11:52:29Z</time><name>PT4408</name></trkpt>
<trkpt lat="52.096660" lon="05.943152"><ele>167</ele><time>2024-02-22T11:52:30Z</time><name>PT4409</name></trkpt>
<trkpt lat="52.096659" lon="05.943169"><ele>166.9</ele><time>2024-02-22T11:52:31Z</time><name>PT4410</name></trkpt>
<trkpt lat="52.096658" lon="05.943179"><ele>166.7</ele><time>2024-02-22T11:52:32Z</time><name>PT4411</name></trkpt>
<trkpt lat="52.096657" lon="05.943197"><ele>89</ele><time>2024-02-22T11:52:33Z</time><name>PT4412</name></trkpt>
<trkpt lat="52.096657" lon="05.943215"><ele>89.2</ele><time>2024-02-22T11:52:34Z</time><name>PT4413</name></trkpt>
<trkpt lat="52.096650" lon="05.943229"><ele>89.2</ele><time>2024-02-22T11:52:35Z</time><name>PT4414</name></trkpt>
<trkpt lat="52.096645" lon="05.943247"><ele>89.2</ele><time>2024-02-22T11:52:36Z</time><name>PT4415</name></trkpt>
<trkpt lat="52.096640" lon="05.943268"><ele>89.4</ele><time>2024-02-22T11:52:37Z</time><name>PT4416</name></trkpt>
<trkpt lat="52.096638" lon="05.943285"><ele>89.4</ele><time>2024-02-22T11:52:38Z</time><name>PT4417</name></trkpt>
<trkpt lat="52.096636" lon="05.943299"><ele>89.3</ele><time>2024-02-22T11:52:39Z</time><name>PT4418</name></trkpt>
<trkpt lat="52.096631" lon="05.943313"><ele>89.2</ele><time>2024-02-22T11:52:40Z</time><name>PT4419</name></trkpt>
<trkpt lat="52.096631" lon="05.943326"><ele>89.2</ele><time>2024-02-22T11:52:41Z</time><name>PT4420</name></trkpt>
<trkpt lat="52.096631" lon="05.943343"><ele>89</ele><time>2024-02-22T11:52:42Z</time><name>PT4421</name></trkpt>
<trkpt lat="52.096628" lon="05.943357"><ele>89</ele><time>2024-02-22T11:52:43Z</time><name>PT4422</name></trkpt>
<trkpt lat="52.096625" lon="05.943373"><ele>89</ele><time>2024-02-22T11:52:44Z</time><name>PT4423</name></trkpt>
<trkpt lat="52.096624" lon="05.943383"><ele>89.2</ele><time>2024-02-22T11:52:45Z</time><name>PT4424</name></trkpt>
<trkpt lat="52.096622" lon="05.943391"><ele>89.3</ele><time>2024-02-22T11:52:46Z</time><name>PT4425</name></trkpt>
<trkpt lat="52.096622" lon="05.943402"><ele>89.4</ele><time>2024-02-22T11:52:47Z</time><name>PT4426</name></trkpt>
<trkpt lat="52.096623" lon="05.943413"><ele>89.4</ele><time>2024-02-22T11:52:48Z</time><name>PT4427</name></trkpt>
<trkpt lat="52.096621" lon="05.943428"><ele>89.1</ele><time>2024-02-22T11:52:49Z</time><name>PT4428</name></trkpt>
<trkpt lat="52.096622" lon="05.943442"><ele>89</ele><time>2024-02-22T11:52:50Z</time><name>PT4429</name></trkpt>
<trkpt lat="52.096623" lon="05.943462"><ele>88.9</ele><time>2024-02-22T11:52:51Z</time><name>PT4430</name></trkpt>
<trkpt lat="52.096625" lon="05.943475"><ele>88.6</ele><time>2024-02-22T11:52:52Z</time><name>PT4431</name></trkpt>
<trkpt lat="52.096624" lon="05.943490"><ele>88.7</ele><time>2024-02-22T11:52:53Z</time><name>PT4432</name></trkpt>
<trkpt lat="52.096622" lon="05.943502"><ele>88.7</ele><time>2024-02-22T11:52:54Z</time><name>PT4433</name></trkpt>
<trkpt lat="52.096622" lon="05.943514"><ele>88.7</ele><time>2024-02-22T11:52:55Z</time><name>PT4434</name></trkpt>
<trkpt lat="52.096622" lon="05.943534"><ele>88.7</ele><time>2024-02-22T11:52:56Z</time><name>PT4435</name></trkpt>
<trkpt lat="52.096619" lon="05.943553"><ele>88.7</ele><time>2024-02-22T11:52:57Z</time><name>PT4436</name></trkpt>
<trkpt lat="52.096616" lon="05.943575"><ele>88.4</ele><time>2024-02-22T11:52:58Z</time><name>PT4437</name></trkpt>
<trkpt lat="52.096612" lon="05.943597"><ele>88.4</ele><time>2024-02-22T11:52:59Z</time><name>PT4438</name></trkpt>
<trkpt lat="52.096610" lon="05.943614"><ele>88.3</ele><time>2024-02-22T11:53:00Z</time><name>PT4439</name></trkpt>
<trkpt lat="52.096612" lon="05.943629"><ele>88.1</ele><time>2024-02-22T11:53:01Z</time><name>PT4440</name></trkpt>
<trkpt lat="52.096614" lon="05.943646"><ele>88.1</ele><time>2024-02-22T11:53:02Z</time><name>PT4441</name></trkpt>
<trkpt lat="52.096616" lon="05.943658"><ele>88.2</ele><time>2024-02-22T11:53:03Z</time><name>PT4442</name></trkpt>
<trkpt lat="52.096611" lon="05.943678"><ele>88.1</ele><time>2024-02-22T11:53:04Z</time><name>PT4443</name></trkpt>
<trkpt lat="52.096603" lon="05.943697"><ele>88.1</ele><time>2024-02-22T11:53:05Z</time><name>PT4444</name></trkpt>
<trkpt lat="52.096599" lon="05.943718"><ele>88.2</ele><time>2024-02-22T11:53:06Z</time><name>PT4445</name></trkpt>
<trkpt lat="52.096597" lon="05.943735"><ele>88</ele><time>2024-02-22T11:53:07Z</time><name>PT4446</name></trkpt>
<trkpt lat="52.096600" lon="05.943750"><ele>88</ele><time>2024-02-22T11:53:08Z</time><name>PT4447</name></trkpt>
<trkpt lat="52.096603" lon="05.943761"><ele>87.9</ele><time>2024-02-22T11:53:09Z</time><name>PT4448</name></trkpt>
<trkpt lat="52.096605" lon="05.943775"><ele>88.1</ele><time>2024-02-22T11:53:10Z</time><name>PT4449</name></trkpt>
<trkpt lat="52.096609" lon="05.943793"><ele>88</ele><time>2024-02-22T11:53:11Z</time><name>PT4450</name></trkpt>
<trkpt lat="52.096611" lon="05.943813"><ele>87.8</ele><time>2024-02-22T11:53:12Z</time><name>PT4451</name></trkpt>
<trkpt lat="52.096607" lon="05.943834"><ele>87.8</ele><time>2024-02-22T11:53:13Z</time><name>PT4452</name></trkpt>
<trkpt lat="52.096603" lon="05.943856"><ele>87.8</ele><time>2024-02-22T11:53:14Z</time><name>PT4453</name></trkpt>
<trkpt lat="52.096602" lon="05.943875"><ele>87.8</ele><time>2024-02-22T11:53:15Z</time><name>PT4454</name></trkpt>
<trkpt lat="52.096602" lon="05.943890"><ele>87.7</ele><time>2024-02-22T11:53:16Z</time><name>PT4455</name></trkpt>
<trkpt lat="52.096604" lon="05.943905"><ele>87.8</ele><time>2024-02-22T11:53:17Z</time><name>PT4456</name></trkpt>
<trkpt lat="52.096604" lon="05.943920"><ele>87.8</ele><time>2024-02-22T11:53:18Z</time><name>PT4457</name></trkpt>
<trkpt lat="52.096602" lon="05.943942"><ele>87.8</ele><time>2024-02-22T11:53:19Z</time><name>PT4458</name></trkpt>
<trkpt lat="52.096601" lon="05.943962"><ele>87.8</ele><time>2024-02-22T11:53:20Z</time><name>PT4459</name></trkpt>
<trkpt lat="52.096599" lon="05.943983"><ele>87.9</ele><time>2024-02-22T11:53:21Z</time><name>PT4460</name></trkpt>
<trkpt lat="52.096595" lon="05.944004"><ele>87.9</ele><time>2024-02-22T11:53:22Z</time><name>PT4461</name></trkpt>
<trkpt lat="52.096590" lon="05.944021"><ele>87.8</ele><time>2024-02-22T11:53:23Z</time><name>PT4462</name></trkpt>
<trkpt lat="52.096589" lon="05.944034"><ele>87.8</ele><time>2024-02-22T11:53:24Z</time><name>PT4463</name></trkpt>
<trkpt lat="52.096588" lon="05.944050"><ele>87.8</ele><time>2024-02-22T11:53:25Z</time><name>PT4464</name></trkpt>
<trkpt lat="52.096588" lon="05.944071"><ele>87.8</ele><time>2024-02-22T11:53:26Z</time><name>PT4465</name></trkpt>
<trkpt lat="52.096586" lon="05.944093"><ele>87.7</ele><time>2024-02-22T11:53:27Z</time><name>PT4466</name></trkpt>
<trkpt lat="52.096582" lon="05.944110"><ele>87.8</ele><time>2024-02-22T11:53:28Z</time><name>PT4467</name></trkpt>
<trkpt lat="52.096579" lon="05.944124"><ele>87.9</ele><time>2024-02-22T11:53:29Z</time><name>PT4468</name></trkpt>
<trkpt lat="52.096582" lon="05.944141"><ele>88</ele><time>2024-02-22T11:53:30Z</time><name>PT4469</name></trkpt>
<trkpt lat="52.096586" lon="05.944159"><ele>88.1</ele><time>2024-02-22T11:53:31Z</time><name>PT4470</name></trkpt>
<trkpt lat="52.096590" lon="05.944168"><ele>88.2</ele><time>2024-02-22T11:53:32Z</time><name>PT4471</name></trkpt>
<trkpt lat="52.096591" lon="05.944181"><ele>88.2</ele><time>2024-02-22T11:53:33Z</time><name>PT4472</name></trkpt>
<trkpt lat="52.096589" lon="05.944202"><ele>88</ele><time>2024-02-22T11:53:34Z</time><name>PT4473</name></trkpt>
<trkpt lat="52.096588" lon="05.944223"><ele>88.1</ele><time>2024-02-22T11:53:35Z</time><name>PT4474</name></trkpt>
<trkpt lat="52.096588" lon="05.944244"><ele>87.9</ele><time>2024-02-22T11:53:36Z</time><name>PT4475</name></trkpt>
<trkpt lat="52.096589" lon="05.944265"><ele>87.9</ele><time>2024-02-22T11:53:37Z</time><name>PT4476</name></trkpt>
<trkpt lat="52.096589" lon="05.944285"><ele>87.9</ele><time>2024-02-22T11:53:38Z</time><name>PT4477</name></trkpt>
<trkpt lat="52.096591" lon="05.944301"><ele>88</ele><time>2024-02-22T11:53:39Z</time><name>PT4478</name></trkpt>
<trkpt lat="52.096590" lon="05.944316"><ele>88</ele><time>2024-02-22T11:53:40Z</time><name>PT4479</name></trkpt>
<trkpt lat="52.096587" lon="05.944334"><ele>88.1</ele><time>2024-02-22T11:53:41Z</time><name>PT4480</name></trkpt>
<trkpt lat="52.096587" lon="05.944350"><ele>88.1</ele><time>2024-02-22T11:53:42Z</time><name>PT4481</name></trkpt>
<trkpt lat="52.096588" lon="05.944367"><ele>88.1</ele><time>2024-02-22T11:53:43Z</time><name>PT4482</name></trkpt>
<trkpt lat="52.096586" lon="05.944384"><ele>88</ele><time>2024-02-22T11:53:44Z</time><name>PT4483</name></trkpt>
<trkpt lat="52.096586" lon="05.944401"><ele>88</ele><time>2024-02-22T11:53:45Z</time><name>PT4484</name></trkpt>
<trkpt lat="52.096585" lon="05.944418"><ele>88.1</ele><time>2024-02-22T11:53:46Z</time><name>PT4485</name></trkpt>
<trkpt lat="52.096581" lon="05.944431"><ele>88</ele><time>2024-02-22T11:53:47Z</time><name>PT4486</name></trkpt>
<trkpt lat="52.096581" lon="05.944447"><ele>87.9</ele><time>2024-02-22T11:53:48Z</time><name>PT4487</name></trkpt>
<trkpt lat="52.096580" lon="05.944462"><ele>87.8</ele><time>2024-02-22T11:53:49Z</time><name>PT4488</name></trkpt>
<trkpt lat="52.096581" lon="05.944478"><ele>87.7</ele><time>2024-02-22T11:53:50Z</time><name>PT4489</name></trkpt>
<trkpt lat="52.096577" lon="05.944505"><ele>87.6</ele><time>2024-02-22T11:53:51Z</time><name>PT4490</name></trkpt>
<trkpt lat="52.096575" lon="05.944537"><ele>87.6</ele><time>2024-02-22T11:53:52Z</time><name>PT4491</name></trkpt>
<trkpt lat="52.096575" lon="05.944561"><ele>87.8</ele><time>2024-02-22T11:53:53Z</time><name>PT4492</name></trkpt>
<trkpt lat="52.096573" lon="05.944581"><ele>88.1</ele><time>2024-02-22T11:53:54Z</time><name>PT4493</name></trkpt>
<trkpt lat="52.096569" lon="05.944600"><ele>88.3</ele><time>2024-02-22T11:53:55Z</time><name>PT4494</name></trkpt>
<trkpt lat="52.096562" lon="05.944615"><ele>88.3</ele><time>2024-02-22T11:53:56Z</time><name>PT4495</name></trkpt>
<trkpt lat="52.096559" lon="05.944628"><ele>88.2</ele><time>2024-02-22T11:53:57Z</time><name>PT4496</name></trkpt>
<trkpt lat="52.096558" lon="05.944638"><ele>88</ele><time>2024-02-22T11:53:58Z</time><name>PT4497</name></trkpt>
<trkpt lat="52.096558" lon="05.944645"><ele>87.9</ele><time>2024-02-22T11:53:59Z</time><name>PT4498</name></trkpt>
<trkpt lat="52.096559" lon="05.944655"><ele>87.8</ele><time>2024-02-22T11:54:00Z</time><name>PT4499</name></trkpt>
<trkpt lat="52.096559" lon="05.944672"><ele>87.9</ele><time>2024-02-22T11:54:01Z</time><name>PT4500</name></trkpt>
<trkpt lat="52.096552" lon="05.944693"><ele>88</ele><time>2024-02-22T11:54:02Z</time><name>PT4501</name></trkpt>
<trkpt lat="52.096549" lon="05.944710"><ele>88</ele><time>2024-02-22T11:54:03Z</time><name>PT4502</name></trkpt>
<trkpt lat="52.096546" lon="05.944723"><ele>87.8</ele><time>2024-02-22T11:54:04Z</time><name>PT4503</name></trkpt>
<trkpt lat="52.096544" lon="05.944732"><ele>87.8</ele><time>2024-02-22T11:54:05Z</time><name>PT4504</name></trkpt>
<trkpt lat="52.096543" lon="05.944742"><ele>87.8</ele><time>2024-02-22T11:54:06Z</time><name>PT4505</name></trkpt>
<trkpt lat="52.096542" lon="05.944755"><ele>87.8</ele><time>2024-02-22T11:54:08Z</time><name>PT4506</name></trkpt>
<trkpt lat="52.096543" lon="05.944769"><ele>87.8</ele><time>2024-02-22T11:54:08Z</time><name>PT4507</name></trkpt>
<trkpt lat="52.096544" lon="05.944782"><ele>87.7</ele><time>2024-02-22T11:54:09Z</time><name>PT4508</name></trkpt>
<trkpt lat="52.096539" lon="05.944803"><ele>87.6</ele><time>2024-02-22T11:54:10Z</time><name>PT4509</name></trkpt>
<trkpt lat="52.096537" lon="05.944823"><ele>87.6</ele><time>2024-02-22T11:54:11Z</time><name>PT4510</name></trkpt>
<trkpt lat="52.096535" lon="05.944846"><ele>87.6</ele><time>2024-02-22T11:54:12Z</time><name>PT4511</name></trkpt>
<trkpt lat="52.096532" lon="05.944865"><ele>87.6</ele><time>2024-02-22T11:54:13Z</time><name>PT4512</name></trkpt>
<trkpt lat="52.096530" lon="05.944881"><ele>87.6</ele><time>2024-02-22T11:54:14Z</time><name>PT4513</name></trkpt>
<trkpt lat="52.096531" lon="05.944896"><ele>87.7</ele><time>2024-02-22T11:54:15Z</time><name>PT4514</name></trkpt>
<trkpt lat="52.096531" lon="05.944911"><ele>87.8</ele><time>2024-02-22T11:54:16Z</time><name>PT4515</name></trkpt>
<trkpt lat="52.096529" lon="05.944927"><ele>87.7</ele><time>2024-02-22T11:54:17Z</time><name>PT4516</name></trkpt>
<trkpt lat="52.096529" lon="05.944948"><ele>87.8</ele><time>2024-02-22T11:54:18Z</time><name>PT4517</name></trkpt>
<trkpt lat="52.096530" lon="05.944969"><ele>87.9</ele><time>2024-02-22T11:54:19Z</time><name>PT4518</name></trkpt>
<trkpt lat="52.096526" lon="05.944992"><ele>88.1</ele><time>2024-02-22T11:54:20Z</time><name>PT4519</name></trkpt>
<trkpt lat="52.096524" lon="05.945009"><ele>88.2</ele><time>2024-02-22T11:54:21Z</time><name>PT4520</name></trkpt>
<trkpt lat="52.096520" lon="05.945027"><ele>88</ele><time>2024-02-22T11:54:22Z</time><name>PT4521</name></trkpt>
<trkpt lat="52.096516" lon="05.945044"><ele>87.8</ele><time>2024-02-22T11:54:23Z</time><name>PT4522</name></trkpt>
<trkpt lat="52.096514" lon="05.945060"><ele>87.7</ele><time>2024-02-22T11:54:24Z</time><name>PT4523</name></trkpt>
<trkpt lat="52.096513" lon="05.945076"><ele>87.4</ele><time>2024-02-22T11:54:25Z</time><name>PT4524</name></trkpt>
<trkpt lat="52.096512" lon="05.945092"><ele>87.3</ele><time>2024-02-22T11:54:26Z</time><name>PT4525</name></trkpt>
<trkpt lat="52.096509" lon="05.945112"><ele>87.2</ele><time>2024-02-22T11:54:27Z</time><name>PT4526</name></trkpt>
<trkpt lat="52.096506" lon="05.945132"><ele>87.2</ele><time>2024-02-22T11:54:28Z</time><name>PT4527</name></trkpt>
<trkpt lat="52.096503" lon="05.945152"><ele>87</ele><time>2024-02-22T11:54:29Z</time><name>PT4528</name></trkpt>
<trkpt lat="52.096504" lon="05.945169"><ele>86.8</ele><time>2024-02-22T11:54:30Z</time><name>PT4529</name></trkpt>
<trkpt lat="52.096506" lon="05.945185"><ele>86.8</ele><time>2024-02-22T11:54:31Z</time><name>PT4530</name></trkpt>
<trkpt lat="52.096504" lon="05.945202"><ele>87</ele><time>2024-02-22T11:54:32Z</time><name>PT4531</name></trkpt>
<trkpt lat="52.096504" lon="05.945218"><ele>86.9</ele><time>2024-02-22T11:54:33Z</time><name>PT4532</name></trkpt>
<trkpt lat="52.096501" lon="05.945237"><ele>86.9</ele><time>2024-02-22T11:54:34Z</time><name>PT4533</name></trkpt>
<trkpt lat="52.096498" lon="05.945256"><ele>86.9</ele><time>2024-02-22T11:54:35Z</time><name>PT4534</name></trkpt>
<trkpt lat="52.096497" lon="05.945275"><ele>86.8</ele><time>2024-02-22T11:54:36Z</time><name>PT4535</name></trkpt>
<trkpt lat="52.096495" lon="05.945292"><ele>86.7</ele><time>2024-02-22T11:54:37Z</time><name>PT4536</name></trkpt>
<trkpt lat="52.096493" lon="05.945308"><ele>86.7</ele><time>2024-02-22T11:54:38Z</time><name>PT4537</name></trkpt>
<trkpt lat="52.096492" lon="05.945324"><ele>86.7</ele><time>2024-02-22T11:54:39Z</time><name>PT4538</name></trkpt>
<trkpt lat="52.096492" lon="05.945336"><ele>86.6</ele><time>2024-02-22T11:54:40Z</time><name>PT4539</name></trkpt>
<trkpt lat="52.096491" lon="05.945351"><ele>86.6</ele><time>2024-02-22T11:54:41Z</time><name>PT4540</name></trkpt>
<trkpt lat="52.096493" lon="05.945362"><ele>86.6</ele><time>2024-02-22T11:54:42Z</time><name>PT4541</name></trkpt>
<trkpt lat="52.096492" lon="05.945377"><ele>86.5</ele><time>2024-02-22T11:54:43Z</time><name>PT4542</name></trkpt>
<trkpt lat="52.096489" lon="05.945394"><ele>86.3</ele><time>2024-02-22T11:54:44Z</time><name>PT4543</name></trkpt>
<trkpt lat="52.096491" lon="05.945417"><ele>86.4</ele><time>2024-02-22T11:54:45Z</time><name>PT4544</name></trkpt>
<trkpt lat="52.096492" lon="05.945440"><ele>86.2</ele><time>2024-02-22T11:54:46Z</time><name>PT4545</name></trkpt>
<trkpt lat="52.096491" lon="05.945459"><ele>86.2</ele><time>2024-02-22T11:54:47Z</time><name>PT4546</name></trkpt>
<trkpt lat="52.096490" lon="05.945476"><ele>86.2</ele><time>2024-02-22T11:54:48Z</time><name>PT4547</name></trkpt>
<trkpt lat="52.096488" lon="05.945496"><ele>86.2</ele><time>2024-02-22T11:54:49Z</time><name>PT4548</name></trkpt>
<trkpt lat="52.096486" lon="05.945509"><ele>86.1</ele><time>2024-02-22T11:54:50Z</time><name>PT4549</name></trkpt>
<trkpt lat="52.096487" lon="05.945523"><ele>86.2</ele><time>2024-02-22T11:54:51Z</time><name>PT4550</name></trkpt>
<trkpt lat="52.096487" lon="05.945535"><ele>86.2</ele><time>2024-02-22T11:54:52Z</time><name>PT4551</name></trkpt>
<trkpt lat="52.096488" lon="05.945549"><ele>86.2</ele><time>2024-02-22T11:54:53Z</time><name>PT4552</name></trkpt>
<trkpt lat="52.096484" lon="05.945567"><ele>86.1</ele><time>2024-02-22T11:54:54Z</time><name>PT4553</name></trkpt>
<trkpt lat="52.096482" lon="05.945579"><ele>86.1</ele><time>2024-02-22T11:54:55Z</time><name>PT4554</name></trkpt>
<trkpt lat="52.096481" lon="05.945595"><ele>86.1</ele><time>2024-02-22T11:54:56Z</time><name>PT4555</name></trkpt>
<trkpt lat="52.096481" lon="05.945609"><ele>86</ele><time>2024-02-22T11:54:57Z</time><name>PT4556</name></trkpt>
<trkpt lat="52.096481" lon="05.945622"><ele>86.1</ele><time>2024-02-22T11:54:58Z</time><name>PT4557</name></trkpt>
<trkpt lat="52.096477" lon="05.945636"><ele>86.1</ele><time>2024-02-22T11:54:59Z</time><name>PT4558</name></trkpt>
<trkpt lat="52.096473" lon="05.945660"><ele>85.9</ele><time>2024-02-22T11:55:00Z</time><name>PT4559</name></trkpt>
<trkpt lat="52.096472" lon="05.945676"><ele>85.8</ele><time>2024-02-22T11:55:01Z</time><name>PT4560</name></trkpt>
<trkpt lat="52.096470" lon="05.945693"><ele>85.9</ele><time>2024-02-22T11:55:02Z</time><name>PT4561</name></trkpt>
<trkpt lat="52.096470" lon="05.945706"><ele>85.9</ele><time>2024-02-22T11:55:03Z</time><name>PT4562</name></trkpt>
<trkpt lat="52.096469" lon="05.945722"><ele>86.1</ele><time>2024-02-22T11:55:04Z</time><name>PT4563</name></trkpt>
<trkpt lat="52.096470" lon="05.945737"><ele>86</ele><time>2024-02-22T11:55:05Z</time><name>PT4564</name></trkpt>
<trkpt lat="52.096470" lon="05.945757"><ele>85.9</ele><time>2024-02-22T11:55:06Z</time><name>PT4565</name></trkpt>
<trkpt lat="52.096471" lon="05.945777"><ele>85.8</ele><time>2024-02-22T11:55:07Z</time><name>PT4566</name></trkpt>
<trkpt lat="52.096470" lon="05.945788"><ele>85.5</ele><time>2024-02-22T11:55:08Z</time><name>PT4567</name></trkpt>
<trkpt lat="52.096468" lon="05.945802"><ele>85.5</ele><time>2024-02-22T11:55:09Z</time><name>PT4568</name></trkpt>
<trkpt lat="52.096466" lon="05.945821"><ele>85.2</ele><time>2024-02-22T11:55:10Z</time><name>PT4569</name></trkpt>
<trkpt lat="52.096461" lon="05.945840"><ele>85.2</ele><time>2024-02-22T11:55:11Z</time><name>PT4570</name></trkpt>
<trkpt lat="52.096457" lon="05.945854"><ele>85</ele><time>2024-02-22T11:55:12Z</time><name>PT4571</name></trkpt>
<trkpt lat="52.096455" lon="05.945865"><ele>85</ele><time>2024-02-22T11:55:13Z</time><name>PT4572</name></trkpt>
<trkpt lat="52.096458" lon="05.945876"><ele>84.9</ele><time>2024-02-22T11:55:14Z</time><name>PT4573</name></trkpt>
<trkpt lat="52.096453" lon="05.945895"><ele>84.9</ele><time>2024-02-22T11:55:15Z</time><name>PT4574</name></trkpt>
<trkpt lat="52.096453" lon="05.945917"><ele>84.9</ele><time>2024-02-22T11:55:16Z</time><name>PT4575</name></trkpt>
<trkpt lat="52.096450" lon="05.945937"><ele>84.9</ele><time>2024-02-22T11:55:17Z</time><name>PT4576</name></trkpt>
<trkpt lat="52.096448" lon="05.945953"><ele>84.8</ele><time>2024-02-22T11:55:18Z</time><name>PT4577</name></trkpt>
<trkpt lat="52.096446" lon="05.945971"><ele>84.8</ele><time>2024-02-22T11:55:19Z</time><name>PT4578</name></trkpt>
<trkpt lat="52.096446" lon="05.945983"><ele>84.7</ele><time>2024-02-22T11:55:20Z</time><name>PT4579</name></trkpt>
<trkpt lat="52.096444" lon="05.946001"><ele>84.6</ele><time>2024-02-22T11:55:21Z</time><name>PT4580</name></trkpt>
<trkpt lat="52.096439" lon="05.946023"><ele>84.4</ele><time>2024-02-22T11:55:22Z</time><name>PT4581</name></trkpt>
<trkpt lat="52.096430" lon="05.946049"><ele>84.5</ele><time>2024-02-22T11:55:23Z</time><name>PT4582</name></trkpt>
<trkpt lat="52.096424" lon="05.946069"><ele>84.4</ele><time>2024-02-22T11:55:24Z</time><name>PT4583</name></trkpt>
<trkpt lat="52.096417" lon="05.946088"><ele>84.4</ele><time>2024-02-22T11:55:25Z</time><name>PT4584</name></trkpt>
<trkpt lat="52.096414" lon="05.946099"><ele>84.2</ele><time>2024-02-22T11:55:26Z</time><name>PT4585</name></trkpt>
<trkpt lat="52.096409" lon="05.946111"><ele>84</ele><time>2024-02-22T11:55:27Z</time><name>PT4586</name></trkpt>
<trkpt lat="52.096408" lon="05.946129"><ele>83.9</ele><time>2024-02-22T11:55:28Z</time><name>PT4587</name></trkpt>
<trkpt lat="52.096406" lon="05.946152"><ele>83.8</ele><time>2024-02-22T11:55:29Z</time><name>PT4588</name></trkpt>
<trkpt lat="52.096399" lon="05.946172"><ele>83.8</ele><time>2024-02-22T11:55:30Z</time><name>PT4589</name></trkpt>
<trkpt lat="52.096394" lon="05.946191"><ele>83.8</ele><time>2024-02-22T11:55:31Z</time><name>PT4590</name></trkpt>
<trkpt lat="52.096391" lon="05.946207"><ele>83.8</ele><time>2024-02-22T11:55:32Z</time><name>PT4591</name></trkpt>
<trkpt lat="52.096389" lon="05.946218"><ele>83.7</ele><time>2024-02-22T11:55:33Z</time><name>PT4592</name></trkpt>
<trkpt lat="52.096386" lon="05.946231"><ele>83.8</ele><time>2024-02-22T11:55:34Z</time><name>PT4593</name></trkpt>
<trkpt lat="52.096385" lon="05.946251"><ele>83.9</ele><time>2024-02-22T11:55:35Z</time><name>PT4594</name></trkpt>
<trkpt lat="52.096384" lon="05.946271"><ele>83.9</ele><time>2024-02-22T11:55:36Z</time><name>PT4595</name></trkpt>
<trkpt lat="52.096380" lon="05.946285"><ele>83.9</ele><time>2024-02-22T11:55:37Z</time><name>PT4596</name></trkpt>
<trkpt lat="52.096378" lon="05.946293"><ele>84</ele><time>2024-02-22T11:55:38Z</time><name>PT4597</name></trkpt>
<trkpt lat="52.096373" lon="05.946302"><ele>83.8</ele><time>2024-02-22T11:55:39Z</time><name>PT4598</name></trkpt>
<trkpt lat="52.096371" lon="05.946311"><ele>83.6</ele><time>2024-02-22T11:55:40Z</time><name>PT4599</name></trkpt>
<trkpt lat="52.096371" lon="05.946315"><ele>83.6</ele><time>2024-02-22T11:55:41Z</time><name>PT4600</name></trkpt>
<trkpt lat="52.096375" lon="05.946315"><ele>83.5</ele><time>2024-02-22T11:55:42Z</time><name>PT4601</name></trkpt>
<trkpt lat="52.096374" lon="05.946316"><ele>83.4</ele><time>2024-02-22T11:55:43Z</time><name>PT4602</name></trkpt>
<trkpt lat="52.096373" lon="05.946319"><ele>83.4</ele><time>2024-02-22T11:55:44Z</time><name>PT4603</name></trkpt>
<trkpt lat="52.096372" lon="05.946325"><ele>83.4</ele><time>2024-02-22T11:55:45Z</time><name>PT4604</name></trkpt>
<trkpt lat="52.096374" lon="05.946335"><ele>83.3</ele><time>2024-02-22T11:55:46Z</time><name>PT4605</name></trkpt>
<trkpt lat="52.096376" lon="05.946347"><ele>83.3</ele><time>2024-02-22T11:55:47Z</time><name>PT4606</name></trkpt>
<trkpt lat="52.096378" lon="05.946355"><ele>83.5</ele><time>2024-02-22T11:55:48Z</time><name>PT4607</name></trkpt>
<trkpt lat="52.096378" lon="05.946363"><ele>83.6</ele><time>2024-02-22T11:55:49Z</time><name>PT4608</name></trkpt>
<trkpt lat="52.096379" lon="05.946368"><ele>83.6</ele><time>2024-02-22T11:55:50Z</time><name>PT4609</name></trkpt>
<trkpt lat="52.096380" lon="05.946369"><ele>83.7</ele><time>2024-02-22T11:55:51Z</time><name>PT4610</name></trkpt>
<trkpt lat="52.096379" lon="05.946372"><ele>83.2</ele><time>2024-02-22T11:56:03Z</time><name>PT4611</name></trkpt>
<trkpt lat="52.096378" lon="05.946375"><ele>83.2</ele><time>2024-02-22T11:56:04Z</time><name>PT4612</name></trkpt>
<trkpt lat="52.096378" lon="05.946378"><ele>83.2</ele><time>2024-02-22T11:56:05Z</time><name>PT4613</name></trkpt>
<trkpt lat="52.096380" lon="05.946383"><ele>83.4</ele><time>2024-02-22T11:56:10Z</time><name>PT4614</name></trkpt>
<trkpt lat="52.096380" lon="05.946383"><ele>83.4</ele><time>2024-02-22T11:56:11Z</time><name>PT4615</name></trkpt>
<trkpt lat="52.096377" lon="05.946384"><ele>83.3</ele><time>2024-02-22T11:56:12Z</time><name>PT4616</name></trkpt>
<trkpt lat="52.096372" lon="05.946382"><ele>83.3</ele><time>2024-02-22T11:56:13Z</time><name>PT4617</name></trkpt>
<trkpt lat="52.096370" lon="05.946389"><ele>83.2</ele><time>2024-02-22T11:56:14Z</time><name>PT4618</name></trkpt>
<trkpt lat="52.096367" lon="05.946396"><ele>83.4</ele><time>2024-02-22T11:56:25Z</time><name>PT4619</name></trkpt>
<trkpt lat="52.096369" lon="05.946406"><ele>83.3</ele><time>2024-02-22T11:56:26Z</time><name>PT4620</name></trkpt>
<trkpt lat="52.096370" lon="05.946418"><ele>83.3</ele><time>2024-02-22T11:56:27Z</time><name>PT4621</name></trkpt>
<trkpt lat="52.096370" lon="05.946422"><ele>83.1</ele><time>2024-02-22T11:56:28Z</time><name>PT4622</name></trkpt>
<trkpt lat="52.096365" lon="05.946432"><ele>82.7</ele><time>2024-02-22T11:56:33Z</time><name>PT4623</name></trkpt>
<trkpt lat="52.096355" lon="05.946431"><ele>82.5</ele><time>2024-02-22T11:56:34Z</time><name>PT4624</name></trkpt>
<trkpt lat="52.096345" lon="05.946431"><ele>82.4</ele><time>2024-02-22T11:56:35Z</time><name>PT4625</name></trkpt>
<trkpt lat="52.096340" lon="05.946441"><ele>82.3</ele><time>2024-02-22T11:56:36Z</time><name>PT4626</name></trkpt>
<trkpt lat="52.096333" lon="05.946451"><ele>82.3</ele><time>2024-02-22T11:56:37Z</time><name>PT4627</name></trkpt>
<trkpt lat="52.096333" lon="05.946462"><ele>82.4</ele><time>2024-02-22T11:56:38Z</time><name>PT4628</name></trkpt>
<trkpt lat="52.096329" lon="05.946465"><ele>82.6</ele><time>2024-02-22T11:56:39Z</time><name>PT4629</name></trkpt>
<trkpt lat="52.096326" lon="05.946464"><ele>82.5</ele><time>2024-02-22T11:56:40Z</time><name>PT4630</name></trkpt>
<trkpt lat="52.096322" lon="05.946461"><ele>82.7</ele><time>2024-02-22T11:56:41Z</time><name>PT4631</name></trkpt>
<trkpt lat="52.096316" lon="05.946454"><ele>82.7</ele><time>2024-02-22T11:56:42Z</time><name>PT4632</name></trkpt>
<trkpt lat="52.096308" lon="05.946453"><ele>82.8</ele><time>2024-02-22T11:56:43Z</time><name>PT4633</name></trkpt>
<trkpt lat="52.096297" lon="05.946454"><ele>82.7</ele><time>2024-02-22T11:56:44Z</time><name>PT4634</name></trkpt>
<trkpt lat="52.096293" lon="05.946451"><ele>82.8</ele><time>2024-02-22T11:56:45Z</time><name>PT4635</name></trkpt>
<trkpt lat="52.096290" lon="05.946448"><ele>82.5</ele><time>2024-02-22T11:56:46Z</time><name>PT4636</name></trkpt>
<trkpt lat="52.096285" lon="05.946450"><ele>82.5</ele><time>2024-02-22T11:56:47Z</time><name>PT4637</name></trkpt>
<trkpt lat="52.096280" lon="05.946447"><ele>82.3</ele><time>2024-02-22T11:56:48Z</time><name>PT4638</name></trkpt>
<trkpt lat="52.096279" lon="05.946442"><ele>82.2</ele><time>2024-02-22T11:56:49Z</time><name>PT4639</name></trkpt>
<trkpt lat="52.096276" lon="05.946438"><ele>82.3</ele><time>2024-02-22T11:56:50Z</time><name>PT4640</name></trkpt>
<trkpt lat="52.096276" lon="05.946429"><ele>82.5</ele><time>2024-02-22T11:56:51Z</time><name>PT4641</name></trkpt>
<trkpt lat="52.096277" lon="05.946424"><ele>82.6</ele><time>2024-02-22T11:56:52Z</time><name>PT4642</name></trkpt>
<trkpt lat="52.096283" lon="05.946410"><ele>82.2</ele><time>2024-02-22T11:56:59Z</time><name>PT4643</name></trkpt>
<trkpt lat="52.096281" lon="05.946396"><ele>82.2</ele><time>2024-02-22T11:57:00Z</time><name>PT4644</name></trkpt>
<trkpt lat="52.096273" lon="05.946384"><ele>82.4</ele><time>2024-02-22T11:57:01Z</time><name>PT4645</name></trkpt>
<trkpt lat="52.096270" lon="05.946376"><ele>82.6</ele><time>2024-02-22T11:57:02Z</time><name>PT4646</name></trkpt>
<trkpt lat="52.096266" lon="05.946374"><ele>82.7</ele><time>2024-02-22T11:57:03Z</time><name>PT4647</name></trkpt>
<trkpt lat="52.096262" lon="05.946375"><ele>82.8</ele><time>2024-02-22T11:57:04Z</time><name>PT4648</name></trkpt>
<trkpt lat="52.096261" lon="05.946378"><ele>82.9</ele><time>2024-02-22T11:57:05Z</time><name>PT4649</name></trkpt>
<trkpt lat="52.096260" lon="05.946375"><ele>82.8</ele><time>2024-02-22T11:57:06Z</time><name>PT4650</name></trkpt>
<trkpt lat="52.096263" lon="05.946375"><ele>82.6</ele><time>2024-02-22T11:57:07Z</time><name>PT4651</name></trkpt>
<trkpt lat="52.096263" lon="05.946373"><ele>82.5</ele><time>2024-02-22T11:57:08Z</time><name>PT4652</name></trkpt>
<trkpt lat="52.096264" lon="05.946362"><ele>83.4</ele><time>2024-02-22T11:57:18Z</time><name>PT4653</name></trkpt>
<trkpt lat="52.096266" lon="05.946353"><ele>83.4</ele><time>2024-02-22T11:57:19Z</time><name>PT4654</name></trkpt>
<trkpt lat="52.096268" lon="05.946351"><ele>83.5</ele><time>2024-02-22T11:57:20Z</time><name>PT4655</name></trkpt>
<trkpt lat="52.096263" lon="05.946355"><ele>83.3</ele><time>2024-02-22T11:57:27Z</time><name>PT4656</name></trkpt>
<trkpt lat="52.096256" lon="05.946357"><ele>83.3</ele><time>2024-02-22T11:57:28Z</time><name>PT4657</name></trkpt>
<trkpt lat="52.096250" lon="05.946356"><ele>83.3</ele><time>2024-02-22T11:57:29Z</time><name>PT4658</name></trkpt>
<trkpt lat="52.096242" lon="05.946364"><ele>83.2</ele><time>2024-02-22T11:57:30Z</time><name>PT4659</name></trkpt>
<trkpt lat="52.096232" lon="05.946371"><ele>83.1</ele><time>2024-02-22T11:57:31Z</time><name>PT4660</name></trkpt>
<trkpt lat="52.096226" lon="05.946372"><ele>83.1</ele><time>2024-02-22T11:57:32Z</time><name>PT4661</name></trkpt>
<trkpt lat="52.096227" lon="05.946370"><ele>83</ele><time>2024-02-22T11:57:33Z</time><name>PT4662</name></trkpt>
<trkpt lat="52.096222" lon="05.946373"><ele>83</ele><time>2024-02-22T11:57:34Z</time><name>PT4663</name></trkpt>
<trkpt lat="52.096217" lon="05.946378"><ele>83.1</ele><time>2024-02-22T11:57:35Z</time><name>PT4664</name></trkpt>
<trkpt lat="52.096214" lon="05.946387"><ele>83.1</ele><time>2024-02-22T11:57:36Z</time><name>PT4665</name></trkpt>
<trkpt lat="52.096212" lon="05.946394"><ele>83</ele><time>2024-02-22T11:57:37Z</time><name>PT4666</name></trkpt>
<trkpt lat="52.096211" lon="05.946399"><ele>82.9</ele><time>2024-02-22T11:57:38Z</time><name>PT4667</name></trkpt>
<trkpt lat="52.096211" lon="05.946400"><ele>82.9</ele><time>2024-02-22T11:57:39Z</time><name>PT4668</name></trkpt>
<trkpt lat="52.096212" lon="05.946404"><ele>82.7</ele><time>2024-02-22T11:57:40Z</time><name>PT4669</name></trkpt>
<trkpt lat="52.096211" lon="05.946414"><ele>82.8</ele><time>2024-02-22T11:57:41Z</time><name>PT4670</name></trkpt>
<trkpt lat="52.096211" lon="05.946420"><ele>82.7</ele><time>2024-02-22T11:57:42Z</time><name>PT4671</name></trkpt>
<trkpt lat="52.096211" lon="05.946422"><ele>82.7</ele><time>2024-02-22T11:57:43Z</time><name>PT4672</name></trkpt>
<trkpt lat="52.096208" lon="05.946425"><ele>82.7</ele><time>2024-02-22T11:57:44Z</time><name>PT4673</name></trkpt>
<trkpt lat="52.096205" lon="05.946430"><ele>82.7</ele><time>2024-02-22T11:57:45Z</time><name>PT4674</name></trkpt>
<trkpt lat="52.096205" lon="05.946425"><ele>83.1</ele><time>2024-02-22T11:57:52Z</time><name>PT4675</name></trkpt>
<trkpt lat="52.096195" lon="05.946433"><ele>83.1</ele><time>2024-02-22T11:57:53Z</time><name>PT4676</name></trkpt>
<trkpt lat="52.096188" lon="05.946435"><ele>83.1</ele><time>2024-02-22T11:57:54Z</time><name>PT4677</name></trkpt>
<trkpt lat="52.096180" lon="05.946437"><ele>83.3</ele><time>2024-02-22T11:57:55Z</time><name>PT4678</name></trkpt>
<trkpt lat="52.096171" lon="05.946436"><ele>83.5</ele><time>2024-02-22T11:57:56Z</time><name>PT4679</name></trkpt>
<trkpt lat="52.096164" lon="05.946432"><ele>83.6</ele><time>2024-02-22T11:57:57Z</time><name>PT4680</name></trkpt>
<trkpt lat="52.096154" lon="05.946434"><ele>83.8</ele><time>2024-02-22T11:57:58Z</time><name>PT4681</name></trkpt>
<trkpt lat="52.096143" lon="05.946434"><ele>84</ele><time>2024-02-22T11:57:59Z</time><name>PT4682</name></trkpt>
<trkpt lat="52.096133" lon="05.946431"><ele>84.1</ele><time>2024-02-22T11:58:00Z</time><name>PT4683</name></trkpt>
<trkpt lat="52.096120" lon="05.946423"><ele>84</ele><time>2024-02-22T11:58:01Z</time><name>PT4684</name></trkpt>
<trkpt lat="52.096110" lon="05.946421"><ele>84.1</ele><time>2024-02-22T11:58:02Z</time><name>PT4685</name></trkpt>
<trkpt lat="52.096101" lon="05.946415"><ele>84.2</ele><time>2024-02-22T11:58:03Z</time><name>PT4686</name></trkpt>
<trkpt lat="52.096092" lon="05.946413"><ele>84.2</ele><time>2024-02-22T11:58:04Z</time><name>PT4687</name></trkpt>
<trkpt lat="52.096083" lon="05.946412"><ele>84.1</ele><time>2024-02-22T11:58:05Z</time><name>PT4688</name></trkpt>
<trkpt lat="52.096072" lon="05.946409"><ele>84.3</ele><time>2024-02-22T11:58:06Z</time><name>PT4689</name></trkpt>
<trkpt lat="52.096062" lon="05.946409"><ele>84.3</ele><time>2024-02-22T11:58:07Z</time><name>PT4690</name></trkpt>
<trkpt lat="52.096053" lon="05.946407"><ele>84.3</ele><time>2024-02-22T11:58:08Z</time><name>PT4691</name></trkpt>
<trkpt lat="52.096047" lon="05.946407"><ele>84.3</ele><time>2024-02-22T11:58:09Z</time><name>PT4692</name></trkpt>
<trkpt lat="52.096044" lon="05.946406"><ele>84.3</ele><time>2024-02-22T11:58:10Z</time><name>PT4693</name></trkpt>
<trkpt lat="52.096038" lon="05.946410"><ele>84.2</ele><time>2024-02-22T11:58:11Z</time><name>PT4694</name></trkpt>
<trkpt lat="52.096029" lon="05.946411"><ele>84</ele><time>2024-02-22T11:58:12Z</time><name>PT4695</name></trkpt>
<trkpt lat="52.096020" lon="05.946409"><ele>84</ele><time>2024-02-22T11:58:13Z</time><name>PT4696</name></trkpt>
<trkpt lat="52.096008" lon="05.946407"><ele>84</ele><time>2024-02-22T11:58:14Z</time><name>PT4697</name></trkpt>
<trkpt lat="52.095997" lon="05.946402"><ele>84</ele><time>2024-02-22T11:58:15Z</time><name>PT4698</name></trkpt>
<trkpt lat="52.095985" lon="05.946399"><ele>84</ele><time>2024-02-22T11:58:16Z</time><name>PT4699</name></trkpt>
<trkpt lat="52.095974" lon="05.946396"><ele>84</ele><time>2024-02-22T11:58:17Z</time><name>PT4700</name></trkpt>
<trkpt lat="52.095963" lon="05.946393"><ele>83.8</ele><time>2024-02-22T11:58:18Z</time><name>PT4701</name></trkpt>
<trkpt lat="52.095952" lon="05.946390"><ele>83.8</ele><time>2024-02-22T11:58:19Z</time><name>PT4702</name></trkpt>
<trkpt lat="52.095941" lon="05.946388"><ele>83.8</ele><time>2024-02-22T11:58:20Z</time><name>PT4703</name></trkpt>
<trkpt lat="52.095929" lon="05.946387"><ele>83.8</ele><time>2024-02-22T11:58:21Z</time><name>PT4704</name></trkpt>
<trkpt lat="52.095915" lon="05.946383"><ele>83.6</ele><time>2024-02-22T11:58:22Z</time><name>PT4705</name></trkpt>
<trkpt lat="52.095903" lon="05.946379"><ele>83.6</ele><time>2024-02-22T11:58:23Z</time><name>PT4706</name></trkpt>
<trkpt lat="52.095896" lon="05.946378"><ele>83.5</ele><time>2024-02-22T11:58:24Z</time><name>PT4707</name></trkpt>
<trkpt lat="52.095890" lon="05.946378"><ele>83.4</ele><time>2024-02-22T11:58:25Z</time><name>PT4708</name></trkpt>
<trkpt lat="52.095881" lon="05.946375"><ele>83.3</ele><time>2024-02-22T11:58:26Z</time><name>PT4709</name></trkpt>
<trkpt lat="52.095865" lon="05.946373"><ele>83.6</ele><time>2024-02-22T11:58:27Z</time><name>PT4710</name></trkpt>
<trkpt lat="52.095853" lon="05.946375"><ele>83.5</ele><time>2024-02-22T11:58:28Z</time><name>PT4711</name></trkpt>
<trkpt lat="52.095843" lon="05.946372"><ele>83.3</ele><time>2024-02-22T11:58:29Z</time><name>PT4712</name></trkpt>
<trkpt lat="52.095833" lon="05.946359"><ele>83.5</ele><time>2024-02-22T11:58:30Z</time><name>PT4713</name></trkpt>
<trkpt lat="52.095828" lon="05.946355"><ele>83.4</ele><time>2024-02-22T11:58:31Z</time><name>PT4714</name></trkpt>
<trkpt lat="52.095822" lon="05.946358"><ele>83.3</ele><time>2024-02-22T11:58:32Z</time><name>PT4715</name></trkpt>
<trkpt lat="52.095817" lon="05.946360"><ele>83.4</ele><time>2024-02-22T11:58:33Z</time><name>PT4716</name></trkpt>
<trkpt lat="52.095809" lon="05.946357"><ele>83.7</ele><time>2024-02-22T11:58:34Z</time><name>PT4717</name></trkpt>
<trkpt lat="52.095798" lon="05.946353"><ele>83.5</ele><time>2024-02-22T11:58:35Z</time><name>PT4718</name></trkpt>
<trkpt lat="52.095790" lon="05.946350"><ele>83.5</ele><time>2024-02-22T11:58:36Z</time><name>PT4719</name></trkpt>
<trkpt lat="52.095780" lon="05.946346"><ele>83.7</ele><time>2024-02-22T11:58:38Z</time><name>PT4720</name></trkpt>
<trkpt lat="52.095772" lon="05.946347"><ele>83.7</ele><time>2024-02-22T11:58:38Z</time><name>PT4721</name></trkpt>
<trkpt lat="52.095765" lon="05.946346"><ele>83.8</ele><time>2024-02-22T11:58:39Z</time><name>PT4722</name></trkpt>
<trkpt lat="52.095756" lon="05.946344"><ele>83.8</ele><time>2024-02-22T11:58:40Z</time><name>PT4723</name></trkpt>
<trkpt lat="52.095747" lon="05.946339"><ele>83.8</ele><time>2024-02-22T11:58:41Z</time><name>PT4724</name></trkpt>
<trkpt lat="52.095735" lon="05.946332"><ele>83.8</ele><time>2024-02-22T11:58:42Z</time><name>PT4725</name></trkpt>
<trkpt lat="52.095726" lon="05.946331"><ele>83.7</ele><time>2024-02-22T11:58:43Z</time><name>PT4726</name></trkpt>
<trkpt lat="52.095718" lon="05.946332"><ele>83.6</ele><time>2024-02-22T11:58:44Z</time><name>PT4727</name></trkpt>
<trkpt lat="52.095710" lon="05.946327"><ele>83.7</ele><time>2024-02-22T11:58:45Z</time><name>PT4728</name></trkpt>
<trkpt lat="52.095700" lon="05.946325"><ele>83.8</ele><time>2024-02-22T11:58:46Z</time><name>PT4729</name></trkpt>
<trkpt lat="52.095688" lon="05.946322"><ele>83.7</ele><time>2024-02-22T11:58:47Z</time><name>PT4730</name></trkpt>
<trkpt lat="52.095679" lon="05.946315"><ele>83.8</ele><time>2024-02-22T11:58:48Z</time><name>PT4731</name></trkpt>
<trkpt lat="52.095670" lon="05.946311"><ele>83.8</ele><time>2024-02-22T11:58:49Z</time><name>PT4732</name></trkpt>
<trkpt lat="52.095661" lon="05.946313"><ele>83.8</ele><time>2024-02-22T11:58:50Z</time><name>PT4733</name></trkpt>
<trkpt lat="52.095654" lon="05.946315"><ele>83.8</ele><time>2024-02-22T11:58:51Z</time><name>PT4734</name></trkpt>
<trkpt lat="52.095643" lon="05.946308"><ele>83.8</ele><time>2024-02-22T11:58:52Z</time><name>PT4735</name></trkpt>
<trkpt lat="52.095631" lon="05.946301"><ele>83.9</ele><time>2024-02-22T11:58:53Z</time><name>PT4736</name></trkpt>
<trkpt lat="52.095620" lon="05.946297"><ele>83.9</ele><time>2024-02-22T11:58:54Z</time><name>PT4737</name></trkpt>
<trkpt lat="52.095609" lon="05.946293"><ele>84</ele><time>2024-02-22T11:58:55Z</time><name>PT4738</name></trkpt>
<trkpt lat="52.095600" lon="05.946295"><ele>84.1</ele><time>2024-02-22T11:58:56Z</time><name>PT4739</name></trkpt>
<trkpt lat="52.095591" lon="05.946296"><ele>84.1</ele><time>2024-02-22T11:58:57Z</time><name>PT4740</name></trkpt>
<trkpt lat="52.095581" lon="05.946298"><ele>84</ele><time>2024-02-22T11:58:58Z</time><name>PT4741</name></trkpt>
<trkpt lat="52.095570" lon="05.946298"><ele>84</ele><time>2024-02-22T11:58:59Z</time><name>PT4742</name></trkpt>
<trkpt lat="52.095559" lon="05.946291"><ele>83.9</ele><time>2024-02-22T11:59:00Z</time><name>PT4743</name></trkpt>
<trkpt lat="52.095543" lon="05.946289"><ele>84</ele><time>2024-02-22T11:59:01Z</time><name>PT4744</name></trkpt>
<trkpt lat="52.095531" lon="05.946287"><ele>84</ele><time>2024-02-22T11:59:02Z</time><name>PT4745</name></trkpt>
<trkpt lat="52.095521" lon="05.946284"><ele>84.1</ele><time>2024-02-22T11:59:03Z</time><name>PT4746</name></trkpt>
<trkpt lat="52.095507" lon="05.946281"><ele>84.2</ele><time>2024-02-22T11:59:04Z</time><name>PT4747</name></trkpt>
<trkpt lat="52.095498" lon="05.946281"><ele>84.2</ele><time>2024-02-22T11:59:05Z</time><name>PT4748</name></trkpt>
<trkpt lat="52.095490" lon="05.946281"><ele>84</ele><time>2024-02-22T11:59:06Z</time><name>PT4749</name></trkpt>
<trkpt lat="52.095484" lon="05.946278"><ele>83.9</ele><time>2024-02-22T11:59:07Z</time><name>PT4750</name></trkpt>
<trkpt lat="52.095471" lon="05.946275"><ele>83.8</ele><time>2024-02-22T11:59:08Z</time><name>PT4751</name></trkpt>
<trkpt lat="52.095451" lon="05.946271"><ele>83.7</ele><time>2024-02-22T11:59:09Z</time><name>PT4752</name></trkpt>
<trkpt lat="52.095437" lon="05.946267"><ele>83.8</ele><time>2024-02-22T11:59:10Z</time><name>PT4753</name></trkpt>
<trkpt lat="52.095424" lon="05.946266"><ele>83.8</ele><time>2024-02-22T11:59:11Z</time><name>PT4754</name></trkpt>
<trkpt lat="52.095413" lon="05.946263"><ele>83.8</ele><time>2024-02-22T11:59:12Z</time><name>PT4755</name></trkpt>
<trkpt lat="52.095403" lon="05.946264"><ele>84</ele><time>2024-02-22T11:59:13Z</time><name>PT4756</name></trkpt>
<trkpt lat="52.095399" lon="05.946266"><ele>83.9</ele><time>2024-02-22T11:59:14Z</time><name>PT4757</name></trkpt>
<trkpt lat="52.095395" lon="05.946266"><ele>84.1</ele><time>2024-02-22T11:59:15Z</time><name>PT4758</name></trkpt>
<trkpt lat="52.095393" lon="05.946267"><ele>84.2</ele><time>2024-02-22T11:59:16Z</time><name>PT4759</name></trkpt>
<trkpt lat="52.095387" lon="05.946277"><ele>84.4</ele><time>2024-02-22T11:59:18Z</time><name>PT4760</name></trkpt>
<trkpt lat="52.095374" lon="05.946278"><ele>84.5</ele><time>2024-02-22T11:59:19Z</time><name>PT4761</name></trkpt>
<trkpt lat="52.095362" lon="05.946278"><ele>84.5</ele><time>2024-02-22T11:59:20Z</time><name>PT4762</name></trkpt>
<trkpt lat="52.095355" lon="05.946272"><ele>84.6</ele><time>2024-02-22T11:59:21Z</time><name>PT4763</name></trkpt>
<trkpt lat="52.095350" lon="05.946274"><ele>84.8</ele><time>2024-02-22T11:59:22Z</time><name>PT4764</name></trkpt>
<trkpt lat="52.095346" lon="05.946273"><ele>84.9</ele><time>2024-02-22T11:59:23Z</time><name>PT4765</name></trkpt>
<trkpt lat="52.095344" lon="05.946274"><ele>85.1</ele><time>2024-02-22T11:59:24Z</time><name>PT4766</name></trkpt>
<trkpt lat="52.095340" lon="05.946271"><ele>84.8</ele><time>2024-02-22T11:59:28Z</time><name>PT4767</name></trkpt>
<trkpt lat="52.095328" lon="05.946270"><ele>84.9</ele><time>2024-02-22T11:59:29Z</time><name>PT4768</name></trkpt>
<trkpt lat="52.095318" lon="05.946267"><ele>84.8</ele><time>2024-02-22T11:59:30Z</time><name>PT4769</name></trkpt>
<trkpt lat="52.095307" lon="05.946260"><ele>84.7</ele><time>2024-02-22T11:59:31Z</time><name>PT4770</name></trkpt>
<trkpt lat="52.095293" lon="05.946256"><ele>84.7</ele><time>2024-02-22T11:59:32Z</time><name>PT4771</name></trkpt>
<trkpt lat="52.095280" lon="05.946254"><ele>84.7</ele><time>2024-02-22T11:59:33Z</time><name>PT4772</name></trkpt>
<trkpt lat="52.095270" lon="05.946250"><ele>84.6</ele><time>2024-02-22T11:59:34Z</time><name>PT4773</name></trkpt>
<trkpt lat="52.095259" lon="05.946250"><ele>84.6</ele><time>2024-02-22T11:59:35Z</time><name>PT4774</name></trkpt>
<trkpt lat="52.095250" lon="05.946247"><ele>84.7</ele><time>2024-02-22T11:59:36Z</time><name>PT4775</name></trkpt>
<trkpt lat="52.095243" lon="05.946243"><ele>84.5</ele><time>2024-02-22T11:59:37Z</time><name>PT4776</name></trkpt>
<trkpt lat="52.095235" lon="05.946240"><ele>84.4</ele><time>2024-02-22T11:59:38Z</time><name>PT4777</name></trkpt>
<trkpt lat="52.095225" lon="05.946234"><ele>84.5</ele><time>2024-02-22T11:59:39Z</time><name>PT4778</name></trkpt>
<trkpt lat="52.095217" lon="05.946228"><ele>84.4</ele><time>2024-02-22T11:59:40Z</time><name>PT4779</name></trkpt>
<trkpt lat="52.095208" lon="05.946225"><ele>84.4</ele><time>2024-02-22T11:59:41Z</time><name>PT4780</name></trkpt>
<trkpt lat="52.095198" lon="05.946225"><ele>84.4</ele><time>2024-02-22T11:59:42Z</time><name>PT4781</name></trkpt>
<trkpt lat="52.095185" lon="05.946226"><ele>84.5</ele><time>2024-02-22T11:59:43Z</time><name>PT4782</name></trkpt>
<trkpt lat="52.095176" lon="05.946225"><ele>84.7</ele><time>2024-02-22T11:59:44Z</time><name>PT4783</name></trkpt>
<trkpt lat="52.095166" lon="05.946224"><ele>84.9</ele><time>2024-02-22T11:59:45Z</time><name>PT4784</name></trkpt>
<trkpt lat="52.095156" lon="05.946222"><ele>85</ele><time>2024-02-22T11:59:46Z</time><name>PT4785</name></trkpt>
<trkpt lat="52.095146" lon="05.946218"><ele>84.8</ele><time>2024-02-22T11:59:47Z</time><name>PT4786</name></trkpt>
<trkpt lat="52.095135" lon="05.946216"><ele>84.6</ele><time>2024-02-22T11:59:48Z</time><name>PT4787</name></trkpt>
<trkpt lat="52.095122" lon="05.946212"><ele>84.5</ele><time>2024-02-22T11:59:49Z</time><name>PT4788</name></trkpt>
<trkpt lat="52.095110" lon="05.946209"><ele>84.6</ele><time>2024-02-22T11:59:50Z</time><name>PT4789</name></trkpt>
<trkpt lat="52.095106" lon="05.946209"><ele>84.6</ele><time>2024-02-22T11:59:51Z</time><name>PT4790</name></trkpt>
<trkpt lat="52.095100" lon="05.946209"><ele>84.8</ele><time>2024-02-22T11:59:52Z</time><name>PT4791</name></trkpt>
<trkpt lat="52.095091" lon="05.946207"><ele>84.9</ele><time>2024-02-22T11:59:53Z</time><name>PT4792</name></trkpt>
<trkpt lat="52.095083" lon="05.946207"><ele>84.8</ele><time>2024-02-22T11:59:54Z</time><name>PT4793</name></trkpt>
<trkpt lat="52.095077" lon="05.946202"><ele>84.9</ele><time>2024-02-22T11:59:55Z</time><name>PT4794</name></trkpt>
<trkpt lat="52.095072" lon="05.946201"><ele>84.7</ele><time>2024-02-22T11:59:56Z</time><name>PT4795</name></trkpt>
<trkpt lat="52.095061" lon="05.946203"><ele>84.7</ele><time>2024-02-22T11:59:57Z</time><name>PT4796</name></trkpt>
<trkpt lat="52.095046" lon="05.946202"><ele>84.7</ele><time>2024-02-22T11:59:58Z</time><name>PT4797</name></trkpt>
<trkpt lat="52.095035" lon="05.946196"><ele>84.6</ele><time>2024-02-22T11:59:59Z</time><name>PT4798</name></trkpt>
<trkpt lat="52.095024" lon="05.946189"><ele>84.6</ele><time>2024-02-22T12:00:00Z</time><name>PT4799</name></trkpt>
<trkpt lat="52.095012" lon="05.946189"><ele>84.7</ele><time>2024-02-22T12:00:01Z</time><name>PT4800</name></trkpt>
<trkpt lat="52.095000" lon="05.946183"><ele>84.5</ele><time>2024-02-22T12:00:02Z</time><name>PT4801</name></trkpt>
<trkpt lat="52.094996" lon="05.946175"><ele>84.4</ele><time>2024-02-22T12:00:03Z</time><name>PT4802</name></trkpt>
<trkpt lat="52.094993" lon="05.946174"><ele>84.5</ele><time>2024-02-22T12:00:04Z</time><name>PT4803</name></trkpt>
<trkpt lat="52.094980" lon="05.946174"><ele>84.4</ele><time>2024-02-22T12:00:05Z</time><name>PT4804</name></trkpt>
<trkpt lat="52.094964" lon="05.946171"><ele>84.6</ele><time>2024-02-22T12:00:06Z</time><name>PT4805</name></trkpt>
<trkpt lat="52.094956" lon="05.946169"><ele>84.9</ele><time>2024-02-22T12:00:07Z</time><name>PT4806</name></trkpt>
<trkpt lat="52.094943" lon="05.946166"><ele>84.8</ele><time>2024-02-22T12:00:08Z</time><name>PT4807</name></trkpt>
<trkpt lat="52.094929" lon="05.946162"><ele>85</ele><time>2024-02-22T12:00:09Z</time><name>PT4808</name></trkpt>
<trkpt lat="52.094917" lon="05.946158"><ele>85.2</ele><time>2024-02-22T12:00:10Z</time><name>PT4809</name></trkpt>
<trkpt lat="52.094905" lon="05.946156"><ele>85.2</ele><time>2024-02-22T12:00:11Z</time><name>PT4810</name></trkpt>
<trkpt lat="52.094892" lon="05.946155"><ele>85.3</ele><time>2024-02-22T12:00:12Z</time><name>PT4811</name></trkpt>
<trkpt lat="52.094880" lon="05.946154"><ele>85.4</ele><time>2024-02-22T12:00:13Z</time><name>PT4812</name></trkpt>
<trkpt lat="52.094863" lon="05.946150"><ele>85.4</ele><time>2024-02-22T12:00:14Z</time><name>PT4813</name></trkpt>
<trkpt lat="52.094847" lon="05.946148"><ele>85.2</ele><time>2024-02-22T12:00:15Z</time><name>PT4814</name></trkpt>
<trkpt lat="52.094836" lon="05.946145"><ele>85.1</ele><time>2024-02-22T12:00:16Z</time><name>PT4815</name></trkpt>
<trkpt lat="52.094824" lon="05.946143"><ele>85.1</ele><time>2024-02-22T12:00:17Z</time><name>PT4816</name></trkpt>
<trkpt lat="52.094811" lon="05.946140"><ele>85</ele><time>2024-02-22T12:00:18Z</time><name>PT4817</name></trkpt>
<trkpt lat="52.094801" lon="05.946140"><ele>84.9</ele><time>2024-02-22T12:00:19Z</time><name>PT4818</name></trkpt>
<trkpt lat="52.094795" lon="05.946137"><ele>85</ele><time>2024-02-22T12:00:20Z</time><name>PT4819</name></trkpt>
<trkpt lat="52.094789" lon="05.946136"><ele>84.8</ele><time>2024-02-22T12:00:21Z</time><name>PT4820</name></trkpt>
<trkpt lat="52.094783" lon="05.946137"><ele>84.9</ele><time>2024-02-22T12:00:22Z</time><name>PT4821</name></trkpt>
<trkpt lat="52.094775" lon="05.946141"><ele>84.9</ele><time>2024-02-22T12:00:23Z</time><name>PT4822</name></trkpt>
<trkpt lat="52.094765" lon="05.946142"><ele>85</ele><time>2024-02-22T12:00:24Z</time><name>PT4823</name></trkpt>
<trkpt lat="52.094754" lon="05.946140"><ele>85.1</ele><time>2024-02-22T12:00:25Z</time><name>PT4824</name></trkpt>
<trkpt lat="52.094742" lon="05.946134"><ele>85.1</ele><time>2024-02-22T12:00:26Z</time><name>PT4825</name></trkpt>
<trkpt lat="52.094726" lon="05.946125"><ele>85</ele><time>2024-02-22T12:00:27Z</time><name>PT4826</name></trkpt>
<trkpt lat="52.094711" lon="05.946119"><ele>84.9</ele><time>2024-02-22T12:00:28Z</time><name>PT4827</name></trkpt>
<trkpt lat="52.094695" lon="05.946110"><ele>84.9</ele><time>2024-02-22T12:00:29Z</time><name>PT4828</name></trkpt>
<trkpt lat="52.094682" lon="05.946104"><ele>85</ele><time>2024-02-22T12:00:30Z</time><name>PT4829</name></trkpt>
<trkpt lat="52.094670" lon="05.946099"><ele>85</ele><time>2024-02-22T12:00:31Z</time><name>PT4830</name></trkpt>
<trkpt lat="52.094660" lon="05.946095"><ele>85.1</ele><time>2024-02-22T12:00:32Z</time><name>PT4831</name></trkpt>
<trkpt lat="52.094651" lon="05.946090"><ele>85.2</ele><time>2024-02-22T12:00:33Z</time><name>PT4832</name></trkpt>
<trkpt lat="52.094640" lon="05.946085"><ele>85.1</ele><time>2024-02-22T12:00:34Z</time><name>PT4833</name></trkpt>
<trkpt lat="52.094634" lon="05.946084"><ele>85.1</ele><time>2024-02-22T12:00:35Z</time><name>PT4834</name></trkpt>
<trkpt lat="52.094627" lon="05.946082"><ele>85.2</ele><time>2024-02-22T12:00:36Z</time><name>PT4835</name></trkpt>
<trkpt lat="52.094614" lon="05.946075"><ele>85</ele><time>2024-02-22T12:00:37Z</time><name>PT4836</name></trkpt>
<trkpt lat="52.094595" lon="05.946073"><ele>85.2</ele><time>2024-02-22T12:00:38Z</time><name>PT4837</name></trkpt>
<trkpt lat="52.094585" lon="05.946075"><ele>85.5</ele><time>2024-02-22T12:00:39Z</time><name>PT4838</name></trkpt>
<trkpt lat="52.094572" lon="05.946068"><ele>85.5</ele><time>2024-02-22T12:00:40Z</time><name>PT4839</name></trkpt>
<trkpt lat="52.094559" lon="05.946065"><ele>85.5</ele><time>2024-02-22T12:00:41Z</time><name>PT4840</name></trkpt>
<trkpt lat="52.094556" lon="05.946065"><ele>85.5</ele><time>2024-02-22T12:00:42Z</time><name>PT4841</name></trkpt>
<trkpt lat="52.094551" lon="05.946064"><ele>85.5</ele><time>2024-02-22T12:00:43Z</time><name>PT4842</name></trkpt>
<trkpt lat="52.094545" lon="05.946066"><ele>85.5</ele><time>2024-02-22T12:00:44Z</time><name>PT4843</name></trkpt>
<trkpt lat="52.094535" lon="05.946065"><ele>85.5</ele><time>2024-02-22T12:00:45Z</time><name>PT4844</name></trkpt>
<trkpt lat="52.094527" lon="05.946066"><ele>85.7</ele><time>2024-02-22T12:00:46Z</time><name>PT4845</name></trkpt>
<trkpt lat="52.094512" lon="05.946058"><ele>85.8</ele><time>2024-02-22T12:00:47Z</time><name>PT4846</name></trkpt>
<trkpt lat="52.094500" lon="05.946051"><ele>85.7</ele><time>2024-02-22T12:00:48Z</time><name>PT4847</name></trkpt>
<trkpt lat="52.094485" lon="05.946042"><ele>85.8</ele><time>2024-02-22T12:00:49Z</time><name>PT4848</name></trkpt>
<trkpt lat="52.094468" lon="05.946033"><ele>85.9</ele><time>2024-02-22T12:00:50Z</time><name>PT4849</name></trkpt>
<trkpt lat="52.094451" lon="05.946029"><ele>85.7</ele><time>2024-02-22T12:00:51Z</time><name>PT4850</name></trkpt>
<trkpt lat="52.094438" lon="05.946026"><ele>85.7</ele><time>2024-02-22T12:00:52Z</time><name>PT4851</name></trkpt>
<trkpt lat="52.094426" lon="05.946022"><ele>85.7</ele><time>2024-02-22T12:00:53Z</time><name>PT4852</name></trkpt>
<trkpt lat="52.094414" lon="05.946018"><ele>85.9</ele><time>2024-02-22T12:00:54Z</time><name>PT4853</name></trkpt>
<trkpt lat="52.094403" lon="05.946016"><ele>86</ele><time>2024-02-22T12:00:55Z</time><name>PT4854</name></trkpt>
<trkpt lat="52.094392" lon="05.946013"><ele>86</ele><time>2024-02-22T12:00:56Z</time><name>PT4855</name></trkpt>
<trkpt lat="52.094381" lon="05.946011"><ele>86.2</ele><time>2024-02-22T12:00:57Z</time><name>PT4856</name></trkpt>
<trkpt lat="52.094372" lon="05.946004"><ele>86.1</ele><time>2024-02-22T12:00:58Z</time><name>PT4857</name></trkpt>
<trkpt lat="52.094361" lon="05.945999"><ele>86.1</ele><time>2024-02-22T12:00:59Z</time><name>PT4858</name></trkpt>
<trkpt lat="52.094347" lon="05.945997"><ele>86.2</ele><time>2024-02-22T12:01:00Z</time><name>PT4859</name></trkpt>
<trkpt lat="52.094336" lon="05.945996"><ele>86.2</ele><time>2024-02-22T12:01:01Z</time><name>PT4860</name></trkpt>
<trkpt lat="52.094323" lon="05.945993"><ele>86.1</ele><time>2024-02-22T12:01:02Z</time><name>PT4861</name></trkpt>
<trkpt lat="52.094312" lon="05.945989"><ele>86.2</ele><time>2024-02-22T12:01:03Z</time><name>PT4862</name></trkpt>
<trkpt lat="52.094301" lon="05.945985"><ele>86.2</ele><time>2024-02-22T12:01:04Z</time><name>PT4863</name></trkpt>
<trkpt lat="52.094289" lon="05.945983"><ele>86.3</ele><time>2024-02-22T12:01:05Z</time><name>PT4864</name></trkpt>
<trkpt lat="52.094280" lon="05.945982"><ele>86.5</ele><time>2024-02-22T12:01:06Z</time><name>PT4865</name></trkpt>
<trkpt lat="52.094270" lon="05.945979"><ele>86.6</ele><time>2024-02-22T12:01:07Z</time><name>PT4866</name></trkpt>
<trkpt lat="52.094258" lon="05.945974"><ele>86.8</ele><time>2024-02-22T12:01:08Z</time><name>PT4867</name></trkpt>
<trkpt lat="52.094249" lon="05.945970"><ele>86.9</ele><time>2024-02-22T12:01:09Z</time><name>PT4868</name></trkpt>
<trkpt lat="52.094239" lon="05.945969"><ele>87</ele><time>2024-02-22T12:01:10Z</time><name>PT4869</name></trkpt>
<trkpt lat="52.094228" lon="05.945962"><ele>87.1</ele><time>2024-02-22T12:01:11Z</time><name>PT4870</name></trkpt>
<trkpt lat="52.094217" lon="05.945956"><ele>87.3</ele><time>2024-02-22T12:01:12Z</time><name>PT4871</name></trkpt>
<trkpt lat="52.094206" lon="05.945953"><ele>87.3</ele><time>2024-02-22T12:01:13Z</time><name>PT4872</name></trkpt>
<trkpt lat="52.094196" lon="05.945951"><ele>87.4</ele><time>2024-02-22T12:01:14Z</time><name>PT4873</name></trkpt>
<trkpt lat="52.094184" lon="05.945947"><ele>87.3</ele><time>2024-02-22T12:01:15Z</time><name>PT4874</name></trkpt>
<trkpt lat="52.094173" lon="05.945945"><ele>87.2</ele><time>2024-02-22T12:01:16Z</time><name>PT4875</name></trkpt>
<trkpt lat="52.094163" lon="05.945944"><ele>87.2</ele><time>2024-02-22T12:01:17Z</time><name>PT4876</name></trkpt>
<trkpt lat="52.094154" lon="05.945941"><ele>87.2</ele><time>2024-02-22T12:01:18Z</time><name>PT4877</name></trkpt>
<trkpt lat="52.094144" lon="05.945935"><ele>87</ele><time>2024-02-22T12:01:19Z</time><name>PT4878</name></trkpt>
<trkpt lat="52.094134" lon="05.945932"><ele>87.2</ele><time>2024-02-22T12:01:20Z</time><name>PT4879</name></trkpt>
<trkpt lat="52.094127" lon="05.945928"><ele>87.3</ele><time>2024-02-22T12:01:21Z</time><name>PT4880</name></trkpt>
<trkpt lat="52.094118" lon="05.945930"><ele>87.3</ele><time>2024-02-22T12:01:22Z</time><name>PT4881</name></trkpt>
<trkpt lat="52.094109" lon="05.945931"><ele>87.3</ele><time>2024-02-22T12:01:23Z</time><name>PT4882</name></trkpt>
<trkpt lat="52.094096" lon="05.945930"><ele>87.5</ele><time>2024-02-22T12:01:24Z</time><name>PT4883</name></trkpt>
<trkpt lat="52.094084" lon="05.945930"><ele>87.6</ele><time>2024-02-22T12:01:25Z</time><name>PT4884</name></trkpt>
<trkpt lat="52.094074" lon="05.945928"><ele>87.5</ele><time>2024-02-22T12:01:26Z</time><name>PT4885</name></trkpt>
<trkpt lat="52.094064" lon="05.945926"><ele>87.7</ele><time>2024-02-22T12:01:27Z</time><name>PT4886</name></trkpt>
<trkpt lat="52.094054" lon="05.945921"><ele>87.6</ele><time>2024-02-22T12:01:28Z</time><name>PT4887</name></trkpt>
<trkpt lat="52.094043" lon="05.945916"><ele>87.5</ele><time>2024-02-22T12:01:29Z</time><name>PT4888</name></trkpt>
<trkpt lat="52.094033" lon="05.945915"><ele>87.6</ele><time>2024-02-22T12:01:30Z</time><name>PT4889</name></trkpt>
<trkpt lat="52.094023" lon="05.945914"><ele>87.6</ele><time>2024-02-22T12:01:31Z</time><name>PT4890</name></trkpt>
<trkpt lat="52.094012" lon="05.945914"><ele>87.5</ele><time>2024-02-22T12:01:32Z</time><name>PT4891</name></trkpt>
<trkpt lat="52.094003" lon="05.945912"><ele>87.6</ele><time>2024-02-22T12:01:33Z</time><name>PT4892</name></trkpt>
<trkpt lat="52.093991" lon="05.945912"><ele>87.8</ele><time>2024-02-22T12:01:34Z</time><name>PT4893</name></trkpt>
<trkpt lat="52.093981" lon="05.945912"><ele>87.7</ele><time>2024-02-22T12:01:35Z</time><name>PT4894</name></trkpt>
<trkpt lat="52.093971" lon="05.945909"><ele>87.6</ele><time>2024-02-22T12:01:36Z</time><name>PT4895</name></trkpt>
<trkpt lat="52.093963" lon="05.945908"><ele>87.5</ele><time>2024-02-22T12:01:37Z</time><name>PT4896</name></trkpt>
<trkpt lat="52.093955" lon="05.945903"><ele>87.4</ele><time>2024-02-22T12:01:38Z</time><name>PT4897</name></trkpt>
<trkpt lat="52.093946" lon="05.945899"><ele>87.3</ele><time>2024-02-22T12:01:39Z</time><name>PT4898</name></trkpt>
<trkpt lat="52.093934" lon="05.945895"><ele>87.2</ele><time>2024-02-22T12:01:40Z</time><name>PT4899</name></trkpt>
<trkpt lat="52.093923" lon="05.945891"><ele>87.3</ele><time>2024-02-22T12:01:41Z</time><name>PT4900</name></trkpt>
<trkpt lat="52.093912" lon="05.945889"><ele>87.3</ele><time>2024-02-22T12:01:42Z</time><name>PT4901</name></trkpt>
<trkpt lat="52.093903" lon="05.945886"><ele>87.3</ele><time>2024-02-22T12:01:43Z</time><name>PT4902</name></trkpt>
<trkpt lat="52.093891" lon="05.945885"><ele>87.3</ele><time>2024-02-22T12:01:44Z</time><name>PT4903</name></trkpt>
<trkpt lat="52.093882" lon="05.945883"><ele>87.2</ele><time>2024-02-22T12:01:45Z</time><name>PT4904</name></trkpt>
<trkpt lat="52.093870" lon="05.945879"><ele>87</ele><time>2024-02-22T12:01:46Z</time><name>PT4905</name></trkpt>
<trkpt lat="52.093862" lon="05.945879"><ele>87.1</ele><time>2024-02-22T12:01:47Z</time><name>PT4906</name></trkpt>
<trkpt lat="52.093855" lon="05.945877"><ele>86.9</ele><time>2024-02-22T12:01:48Z</time><name>PT4907</name></trkpt>
<trkpt lat="52.093848" lon="05.945874"><ele>86.8</ele><time>2024-02-22T12:01:49Z</time><name>PT4908</name></trkpt>
<trkpt lat="52.093838" lon="05.945872"><ele>86.9</ele><time>2024-02-22T12:01:50Z</time><name>PT4909</name></trkpt>
<trkpt lat="52.093827" lon="05.945867"><ele>86.8</ele><time>2024-02-22T12:01:51Z</time><name>PT4910</name></trkpt>
<trkpt lat="52.093818" lon="05.945864"><ele>86.7</ele><time>2024-02-22T12:01:52Z</time><name>PT4911</name></trkpt>
<trkpt lat="52.093809" lon="05.945862"><ele>86.7</ele><time>2024-02-22T12:01:53Z</time><name>PT4912</name></trkpt>
<trkpt lat="52.093801" lon="05.945859"><ele>86.8</ele><time>2024-02-22T12:01:54Z</time><name>PT4913</name></trkpt>
<trkpt lat="52.093794" lon="05.945859"><ele>86.9</ele><time>2024-02-22T12:01:55Z</time><name>PT4914</name></trkpt>
<trkpt lat="52.093784" lon="05.945857"><ele>86.8</ele><time>2024-02-22T12:01:56Z</time><name>PT4915</name></trkpt>
<trkpt lat="52.093775" lon="05.945854"><ele>86.9</ele><time>2024-02-22T12:01:57Z</time><name>PT4916</name></trkpt>
<trkpt lat="52.093763" lon="05.945850"><ele>86.8</ele><time>2024-02-22T12:01:58Z</time><name>PT4917</name></trkpt>
<trkpt lat="52.093755" lon="05.945844"><ele>86.8</ele><time>2024-02-22T12:01:59Z</time><name>PT4918</name></trkpt>
<trkpt lat="52.093747" lon="05.945841"><ele>86.7</ele><time>2024-02-22T12:02:00Z</time><name>PT4919</name></trkpt>
<trkpt lat="52.093738" lon="05.945839"><ele>86.9</ele><time>2024-02-22T12:02:01Z</time><name>PT4920</name></trkpt>
<trkpt lat="52.093730" lon="05.945836"><ele>86.8</ele><time>2024-02-22T12:02:02Z</time><name>PT4921</name></trkpt>
<trkpt lat="52.093721" lon="05.945831"><ele>86.7</ele><time>2024-02-22T12:02:03Z</time><name>PT4922</name></trkpt>
<trkpt lat="52.093714" lon="05.945831"><ele>86.7</ele><time>2024-02-22T12:02:04Z</time><name>PT4923</name></trkpt>
<trkpt lat="52.093707" lon="05.945830"><ele>86.7</ele><time>2024-02-22T12:02:05Z</time><name>PT4924</name></trkpt>
<trkpt lat="52.093700" lon="05.945827"><ele>86.5</ele><time>2024-02-22T12:02:06Z</time><name>PT4925</name></trkpt>
<trkpt lat="52.093693" lon="05.945824"><ele>86.5</ele><time>2024-02-22T12:02:07Z</time><name>PT4926</name></trkpt>
<trkpt lat="52.093687" lon="05.945825"><ele>86.6</ele><time>2024-02-22T12:02:08Z</time><name>PT4927</name></trkpt>
<trkpt lat="52.093678" lon="05.945821"><ele>86.5</ele><time>2024-02-22T12:02:09Z</time><name>PT4928</name></trkpt>
<trkpt lat="52.093668" lon="05.945816"><ele>86.6</ele><time>2024-02-22T12:02:10Z</time><name>PT4929</name></trkpt>
<trkpt lat="52.093660" lon="05.945812"><ele>86.7</ele><time>2024-02-22T12:02:11Z</time><name>PT4930</name></trkpt>
<trkpt lat="52.093651" lon="05.945810"><ele>86.7</ele><time>2024-02-22T12:02:12Z</time><name>PT4931</name></trkpt>
<trkpt lat="52.093641" lon="05.945809"><ele>86.9</ele><time>2024-02-22T12:02:13Z</time><name>PT4932</name></trkpt>
<trkpt lat="52.093633" lon="05.945808"><ele>87</ele><time>2024-02-22T12:02:14Z</time><name>PT4933</name></trkpt>
<trkpt lat="52.093625" lon="05.945806"><ele>87.1</ele><time>2024-02-22T12:02:15Z</time><name>PT4934</name></trkpt>
<trkpt lat="52.093616" lon="05.945803"><ele>87.1</ele><time>2024-02-22T12:02:16Z</time><name>PT4935</name></trkpt>
<trkpt lat="52.093603" lon="05.945799"><ele>86.9</ele><time>2024-02-22T12:02:17Z</time><name>PT4936</name></trkpt>
<trkpt lat="52.093592" lon="05.945796"><ele>87</ele><time>2024-02-22T12:02:18Z</time><name>PT4937</name></trkpt>
<trkpt lat="52.093582" lon="05.945794"><ele>87</ele><time>2024-02-22T12:02:19Z</time><name>PT4938</name></trkpt>
<trkpt lat="52.093572" lon="05.945791"><ele>86.8</ele><time>2024-02-22T12:02:20Z</time><name>PT4939</name></trkpt>
<trkpt lat="52.093562" lon="05.945787"><ele>86.9</ele><time>2024-02-22T12:02:21Z</time><name>PT4940</name></trkpt>
<trkpt lat="52.093553" lon="05.945786"><ele>87.2</ele><time>2024-02-22T12:02:22Z</time><name>PT4941</name></trkpt>
<trkpt lat="52.093541" lon="05.945784"><ele>87</ele><time>2024-02-22T12:02:23Z</time><name>PT4942</name></trkpt>
<trkpt lat="52.093529" lon="05.945782"><ele>87.1</ele><time>2024-02-22T12:02:24Z</time><name>PT4943</name></trkpt>
<trkpt lat="52.093521" lon="05.945781"><ele>87</ele><time>2024-02-22T12:02:25Z</time><name>PT4944</name></trkpt>
<trkpt lat="52.093511" lon="05.945781"><ele>87.1</ele><time>2024-02-22T12:02:26Z</time><name>PT4945</name></trkpt>
<trkpt lat="52.093499" lon="05.945780"><ele>87.1</ele><time>2024-02-22T12:02:27Z</time><name>PT4946</name></trkpt>
<trkpt lat="52.093487" lon="05.945781"><ele>87.2</ele><time>2024-02-22T12:02:28Z</time><name>PT4947</name></trkpt>
<trkpt lat="52.093476" lon="05.945777"><ele>87.2</ele><time>2024-02-22T12:02:29Z</time><name>PT4948</name></trkpt>
<trkpt lat="52.093463" lon="05.945772"><ele>87.5</ele><time>2024-02-22T12:02:30Z</time><name>PT4949</name></trkpt>
<trkpt lat="52.093452" lon="05.945768"><ele>87.4</ele><time>2024-02-22T12:02:31Z</time><name>PT4950</name></trkpt>
<trkpt lat="52.093440" lon="05.945763"><ele>87.3</ele><time>2024-02-22T12:02:32Z</time><name>PT4951</name></trkpt>
<trkpt lat="52.093429" lon="05.945760"><ele>87.5</ele><time>2024-02-22T12:02:33Z</time><name>PT4952</name></trkpt>
<trkpt lat="52.093418" lon="05.945755"><ele>87.4</ele><time>2024-02-22T12:02:34Z</time><name>PT4953</name></trkpt>
<trkpt lat="52.093408" lon="05.945752"><ele>87.4</ele><time>2024-02-22T12:02:35Z</time><name>PT4954</name></trkpt>
<trkpt lat="52.093398" lon="05.945751"><ele>87.4</ele><time>2024-02-22T12:02:36Z</time><name>PT4955</name></trkpt>
<trkpt lat="52.093388" lon="05.945749"><ele>87.7</ele><time>2024-02-22T12:02:37Z</time><name>PT4956</name></trkpt>
<trkpt lat="52.093376" lon="05.945746"><ele>87.8</ele><time>2024-02-22T12:02:38Z</time><name>PT4957</name></trkpt>
<trkpt lat="52.093363" lon="05.945743"><ele>88</ele><time>2024-02-22T12:02:39Z</time><name>PT4958</name></trkpt>
<trkpt lat="52.093352" lon="05.945739"><ele>88.2</ele><time>2024-02-22T12:02:40Z</time><name>PT4959</name></trkpt>
<trkpt lat="52.093341" lon="05.945737"><ele>88.2</ele><time>2024-02-22T12:02:41Z</time><name>PT4960</name></trkpt>
<trkpt lat="52.093331" lon="05.945733"><ele>88.2</ele><time>2024-02-22T12:02:42Z</time><name>PT4961</name></trkpt>
<trkpt lat="52.093320" lon="05.945733"><ele>88.2</ele><time>2024-02-22T12:02:43Z</time><name>PT4962</name></trkpt>
<trkpt lat="52.093310" lon="05.945732"><ele>88.2</ele><time>2024-02-22T12:02:44Z</time><name>PT4963</name></trkpt>
<trkpt lat="52.093299" lon="05.945729"><ele>88.3</ele><time>2024-02-22T12:02:45Z</time><name>PT4964</name></trkpt>
<trkpt lat="52.093288" lon="05.945728"><ele>88.2</ele><time>2024-02-22T12:02:46Z</time><name>PT4965</name></trkpt>
<trkpt lat="52.093278" lon="05.945724"><ele>88.2</ele><time>2024-02-22T12:02:47Z</time><name>PT4966</name></trkpt>
<trkpt lat="52.093267" lon="05.945720"><ele>88.2</ele><time>2024-02-22T12:02:48Z</time><name>PT4967</name></trkpt>
<trkpt lat="52.093258" lon="05.945719"><ele>88</ele><time>2024-02-22T12:02:49Z</time><name>PT4968</name></trkpt>
<trkpt lat="52.093248" lon="05.945717"><ele>88.1</ele><time>2024-02-22T12:02:50Z</time><name>PT4969</name></trkpt>
<trkpt lat="52.093239" lon="05.945713"><ele>88.1</ele><time>2024-02-22T12:02:51Z</time><name>PT4970</name></trkpt>
<trkpt lat="52.093229" lon="05.945710"><ele>88.1</ele><time>2024-02-22T12:02:52Z</time><name>PT4971</name></trkpt>
<trkpt lat="52.093219" lon="05.945708"><ele>87.9</ele><time>2024-02-22T12:02:53Z</time><name>PT4972</name></trkpt>
<trkpt lat="52.093210" lon="05.945705"><ele>87.9</ele><time>2024-02-22T12:02:54Z</time><name>PT4973</name></trkpt>
<trkpt lat="52.093202" lon="05.945702"><ele>87.8</ele><time>2024-02-22T12:02:55Z</time><name>PT4974</name></trkpt>
<trkpt lat="52.093194" lon="05.945695"><ele>87.8</ele><time>2024-02-22T12:02:56Z</time><name>PT4975</name></trkpt>
<trkpt lat="52.093185" lon="05.945692"><ele>88</ele><time>2024-02-22T12:02:57Z</time><name>PT4976</name></trkpt>
<trkpt lat="52.093177" lon="05.945687"><ele>88</ele><time>2024-02-22T12:02:58Z</time><name>PT4977</name></trkpt>
<trkpt lat="52.093169" lon="05.945685"><ele>88</ele><time>2024-02-22T12:02:59Z</time><name>PT4978</name></trkpt>
<trkpt lat="52.093159" lon="05.945685"><ele>87.9</ele><time>2024-02-22T12:03:00Z</time><name>PT4979</name></trkpt>
<trkpt lat="52.093150" lon="05.945686"><ele>88.3</ele><time>2024-02-22T12:03:01Z</time><name>PT4980</name></trkpt>
<trkpt lat="52.093140" lon="05.945682"><ele>88.3</ele><time>2024-02-22T12:03:02Z</time><name>PT4981</name></trkpt>
<trkpt lat="52.093130" lon="05.945675"><ele>88.4</ele><time>2024-02-22T12:03:03Z</time><name>PT4982</name></trkpt>
<trkpt lat="52.093121" lon="05.945670"><ele>88.7</ele><time>2024-02-22T12:03:04Z</time><name>PT4983</name></trkpt>
<trkpt lat="52.093112" lon="05.945667"><ele>88.9</ele><time>2024-02-22T12:03:05Z</time><name>PT4984</name></trkpt>
<trkpt lat="52.093102" lon="05.945663"><ele>89</ele><time>2024-02-22T12:03:06Z</time><name>PT4985</name></trkpt>
<trkpt lat="52.093091" lon="05.945660"><ele>88.9</ele><time>2024-02-22T12:03:07Z</time><name>PT4986</name></trkpt>
<trkpt lat="52.093079" lon="05.945655"><ele>89</ele><time>2024-02-22T12:03:08Z</time><name>PT4987</name></trkpt>
<trkpt lat="52.093068" lon="05.945653"><ele>88.9</ele><time>2024-02-22T12:03:09Z</time><name>PT4988</name></trkpt>
<trkpt lat="52.093057" lon="05.945651"><ele>88.8</ele><time>2024-02-22T12:03:10Z</time><name>PT4989</name></trkpt>
<trkpt lat="52.093047" lon="05.945651"><ele>88.6</ele><time>2024-02-22T12:03:11Z</time><name>PT4990</name></trkpt>
<trkpt lat="52.093036" lon="05.945649"><ele>88.6</ele><time>2024-02-22T12:03:12Z</time><name>PT4991</name></trkpt>
<trkpt lat="52.093026" lon="05.945647"><ele>88.7</ele><time>2024-02-22T12:03:13Z</time><name>PT4992</name></trkpt>
<trkpt lat="52.093017" lon="05.945643"><ele>88.7</ele><time>2024-02-22T12:03:14Z</time><name>PT4993</name></trkpt>
<trkpt lat="52.093007" lon="05.945638"><ele>88.5</ele><time>2024-02-22T12:03:15Z</time><name>PT4994</name></trkpt>
<trkpt lat="52.092995" lon="05.945636"><ele>88.8</ele><time>2024-02-22T12:03:16Z</time><name>PT4995</name></trkpt>
<trkpt lat="52.092984" lon="05.945633"><ele>89</ele><time>2024-02-22T12:03:17Z</time><name>PT4996</name></trkpt>
<trkpt lat="52.092973" lon="05.945630"><ele>89.1</ele><time>2024-02-22T12:03:18Z</time><name>PT4997</name></trkpt>
<trkpt lat="52.092964" lon="05.945629"><ele>89.4</ele><time>2024-02-22T12:03:19Z</time><name>PT4998</name></trkpt>
<trkpt lat="52.092954" lon="05.945626"><ele>89.6</ele><time>2024-02-22T12:03:20Z</time><name>PT4999</name></trkpt>
<trkpt lat="52.092943" lon="05.945623"><ele>89.7</ele><time>2024-02-22T12:03:21Z</time><name>PT5000</name></trkpt>
<trkpt lat="52.092933" lon="05.945622"><ele>89.6</ele><time>2024-02-22T12:03:22Z</time><name>PT5001</name></trkpt>
<trkpt lat="52.092922" lon="05.945620"><ele>89.6</ele><time>2024-02-22T12:03:23Z</time><name>PT5002</name></trkpt>
<trkpt lat="52.092915" lon="05.945619"><ele>89.6</ele><time>2024-02-22T12:03:24Z</time><name>PT5003</name></trkpt>
<trkpt lat="52.092905" lon="05.945616"><ele>89.7</ele><time>2024-02-22T12:03:25Z</time><name>PT5004</name></trkpt>
<trkpt lat="52.092894" lon="05.945608"><ele>89.7</ele><time>2024-02-22T12:03:26Z</time><name>PT5005</name></trkpt>
<trkpt lat="52.092884" lon="05.945603"><ele>89.9</ele><time>2024-02-22T12:03:27Z</time><name>PT5006</name></trkpt>
<trkpt lat="52.092873" lon="05.945600"><ele>90.1</ele><time>2024-02-22T12:03:28Z</time><name>PT5007</name></trkpt>
<trkpt lat="52.092864" lon="05.945597"><ele>90.3</ele><time>2024-02-22T12:03:29Z</time><name>PT5008</name></trkpt>
<trkpt lat="52.092858" lon="05.945595"><ele>90.6</ele><time>2024-02-22T12:03:30Z</time><name>PT5009</name></trkpt>
<trkpt lat="52.092852" lon="05.945593"><ele>90.7</ele><time>2024-02-22T12:03:31Z</time><name>PT5010</name></trkpt>
<trkpt lat="52.092846" lon="05.945587"><ele>90.7</ele><time>2024-02-22T12:03:32Z</time><name>PT5011</name></trkpt>
<trkpt lat="52.092841" lon="05.945583"><ele>90.7</ele><time>2024-02-22T12:03:33Z</time><name>PT5012</name></trkpt>
<trkpt lat="52.092834" lon="05.945583"><ele>90.9</ele><time>2024-02-22T12:03:34Z</time><name>PT5013</name></trkpt>
<trkpt lat="52.092827" lon="05.945581"><ele>90.8</ele><time>2024-02-22T12:03:35Z</time><name>PT5014</name></trkpt>
<trkpt lat="52.092818" lon="05.945579"><ele>91.1</ele><time>2024-02-22T12:03:36Z</time><name>PT5015</name></trkpt>
<trkpt lat="52.092807" lon="05.945578"><ele>91.2</ele><time>2024-02-22T12:03:37Z</time><name>PT5016</name></trkpt>
<trkpt lat="52.092796" lon="05.945575"><ele>91.2</ele><time>2024-02-22T12:03:38Z</time><name>PT5017</name></trkpt>
<trkpt lat="52.092787" lon="05.945571"><ele>91.2</ele><time>2024-02-22T12:03:39Z</time><name>PT5018</name></trkpt>
<trkpt lat="52.092781" lon="05.945568"><ele>91.1</ele><time>2024-02-22T12:03:40Z</time><name>PT5019</name></trkpt>
<trkpt lat="52.092771" lon="05.945564"><ele>91</ele><time>2024-02-22T12:03:41Z</time><name>PT5020</name></trkpt>
<trkpt lat="52.092760" lon="05.945561"><ele>90.9</ele><time>2024-02-22T12:03:42Z</time><name>PT5021</name></trkpt>
<trkpt lat="52.092749" lon="05.945560"><ele>91.1</ele><time>2024-02-22T12:03:43Z</time><name>PT5022</name></trkpt>
<trkpt lat="52.092738" lon="05.945560"><ele>91.2</ele><time>2024-02-22T12:03:44Z</time><name>PT5023</name></trkpt>
<trkpt lat="52.092728" lon="05.945559"><ele>91.3</ele><time>2024-02-22T12:03:45Z</time><name>PT5024</name></trkpt>
<trkpt lat="52.092718" lon="05.945558"><ele>91.4</ele><time>2024-02-22T12:03:46Z</time><name>PT5025</name></trkpt>
<trkpt lat="52.092709" lon="05.945555"><ele>91.7</ele><time>2024-02-22T12:03:47Z</time><name>PT5026</name></trkpt>
<trkpt lat="52.092697" lon="05.945552"><ele>91.9</ele><time>2024-02-22T12:03:48Z</time><name>PT5027</name></trkpt>
<trkpt lat="52.092685" lon="05.945549"><ele>91.9</ele><time>2024-02-22T12:03:49Z</time><name>PT5028</name></trkpt>
<trkpt lat="52.092675" lon="05.945549"><ele>92</ele><time>2024-02-22T12:03:50Z</time><name>PT5029</name></trkpt>
<trkpt lat="52.092665" lon="05.945548"><ele>92.1</ele><time>2024-02-22T12:03:51Z</time><name>PT5030</name></trkpt>
<trkpt lat="52.092656" lon="05.945546"><ele>92.1</ele><time>2024-02-22T12:03:52Z</time><name>PT5031</name></trkpt>
<trkpt lat="52.092646" lon="05.945546"><ele>92.2</ele><time>2024-02-22T12:03:53Z</time><name>PT5032</name></trkpt>
<trkpt lat="52.092636" lon="05.945546"><ele>92.2</ele><time>2024-02-22T12:03:54Z</time><name>PT5033</name></trkpt>
<trkpt lat="52.092625" lon="05.945542"><ele>92</ele><time>2024-02-22T12:03:55Z</time><name>PT5034</name></trkpt>
<trkpt lat="52.092617" lon="05.945544"><ele>92</ele><time>2024-02-22T12:03:56Z</time><name>PT5035</name></trkpt>
<trkpt lat="52.092608" lon="05.945540"><ele>91.9</ele><time>2024-02-22T12:03:57Z</time><name>PT5036</name></trkpt>
<trkpt lat="52.092600" lon="05.945533"><ele>91.9</ele><time>2024-02-22T12:03:58Z</time><name>PT5037</name></trkpt>
<trkpt lat="52.092590" lon="05.945529"><ele>91.9</ele><time>2024-02-22T12:03:59Z</time><name>PT5038</name></trkpt>
<trkpt lat="52.092580" lon="05.945524"><ele>92</ele><time>2024-02-22T12:04:00Z</time><name>PT5039</name></trkpt>
<trkpt lat="52.092572" lon="05.945524"><ele>92.2</ele><time>2024-02-22T12:04:01Z</time><name>PT5040</name></trkpt>
<trkpt lat="52.092562" lon="05.945526"><ele>92.3</ele><time>2024-02-22T12:04:02Z</time><name>PT5041</name></trkpt>
<trkpt lat="52.092552" lon="05.945527"><ele>92.4</ele><time>2024-02-22T12:04:03Z</time><name>PT5042</name></trkpt>
<trkpt lat="52.092544" lon="05.945525"><ele>92.4</ele><time>2024-02-22T12:04:04Z</time><name>PT5043</name></trkpt>
<trkpt lat="52.092533" lon="05.945518"><ele>92.4</ele><time>2024-02-22T12:04:05Z</time><name>PT5044</name></trkpt>
<trkpt lat="52.092523" lon="05.945514"><ele>92.4</ele><time>2024-02-22T12:04:06Z</time><name>PT5045</name></trkpt>
<trkpt lat="52.092511" lon="05.945510"><ele>92.4</ele><time>2024-02-22T12:04:07Z</time><name>PT5046</name></trkpt>
<trkpt lat="52.092500" lon="05.945510"><ele>92.4</ele><time>2024-02-22T12:04:08Z</time><name>PT5047</name></trkpt>
<trkpt lat="52.092487" lon="05.945508"><ele>92.1</ele><time>2024-02-22T12:04:09Z</time><name>PT5048</name></trkpt>
<trkpt lat="52.092475" lon="05.945506"><ele>92</ele><time>2024-02-22T12:04:10Z</time><name>PT5049</name></trkpt>
<trkpt lat="52.092463" lon="05.945504"><ele>92</ele><time>2024-02-22T12:04:11Z</time><name>PT5050</name></trkpt>
<trkpt lat="52.092450" lon="05.945503"><ele>92.1</ele><time>2024-02-22T12:04:12Z</time><name>PT5051</name></trkpt>
<trkpt lat="52.092439" lon="05.945503"><ele>92.2</ele><time>2024-02-22T12:04:13Z</time><name>PT5052</name></trkpt>
<trkpt lat="52.092429" lon="05.945503"><ele>92.2</ele><time>2024-02-22T12:04:14Z</time><name>PT5053</name></trkpt>
<trkpt lat="52.092417" lon="05.945500"><ele>92.4</ele><time>2024-02-22T12:04:15Z</time><name>PT5054</name></trkpt>
<trkpt lat="52.092409" lon="05.945493"><ele>92.4</ele><time>2024-02-22T12:04:16Z</time><name>PT5055</name></trkpt>
<trkpt lat="52.092399" lon="05.945489"><ele>92.5</ele><time>2024-02-22T12:04:17Z</time><name>PT5056</name></trkpt>
<trkpt lat="52.092390" lon="05.945487"><ele>92.7</ele><time>2024-02-22T12:04:18Z</time><name>PT5057</name></trkpt>
<trkpt lat="52.092379" lon="05.945485"><ele>93.1</ele><time>2024-02-22T12:04:19Z</time><name>PT5058</name></trkpt>
<trkpt lat="52.092368" lon="05.945482"><ele>93</ele><time>2024-02-22T12:04:20Z</time><name>PT5059</name></trkpt>
<trkpt lat="52.092357" lon="05.945480"><ele>93.1</ele><time>2024-02-22T12:04:21Z</time><name>PT5060</name></trkpt>
<trkpt lat="52.092346" lon="05.945480"><ele>93.3</ele><time>2024-02-22T12:04:22Z</time><name>PT5061</name></trkpt>
<trkpt lat="52.092338" lon="05.945478"><ele>93.1</ele><time>2024-02-22T12:04:23Z</time><name>PT5062</name></trkpt>
<trkpt lat="52.092330" lon="05.945474"><ele>93</ele><time>2024-02-22T12:04:24Z</time><name>PT5063</name></trkpt>
<trkpt lat="52.092321" lon="05.945471"><ele>93</ele><time>2024-02-22T12:04:25Z</time><name>PT5064</name></trkpt>
<trkpt lat="52.092311" lon="05.945468"><ele>93</ele><time>2024-02-22T12:04:26Z</time><name>PT5065</name></trkpt>
<trkpt lat="52.092305" lon="05.945465"><ele>93.1</ele><time>2024-02-22T12:04:27Z</time><name>PT5066</name></trkpt>
<trkpt lat="52.092299" lon="05.945465"><ele>93.3</ele><time>2024-02-22T12:04:28Z</time><name>PT5067</name></trkpt>
<trkpt lat="52.092293" lon="05.945467"><ele>93.4</ele><time>2024-02-22T12:04:29Z</time><name>PT5068</name></trkpt>
<trkpt lat="52.092282" lon="05.945468"><ele>93.6</ele><time>2024-02-22T12:04:30Z</time><name>PT5069</name></trkpt>
<trkpt lat="52.092273" lon="05.945467"><ele>93.7</ele><time>2024-02-22T12:04:31Z</time><name>PT5070</name></trkpt>
<trkpt lat="52.092262" lon="05.945469"><ele>93.8</ele><time>2024-02-22T12:04:32Z</time><name>PT5071</name></trkpt>
<trkpt lat="52.092250" lon="05.945463"><ele>93.8</ele><time>2024-02-22T12:04:33Z</time><name>PT5072</name></trkpt>
<trkpt lat="52.092237" lon="05.945458"><ele>94</ele><time>2024-02-22T12:04:34Z</time><name>PT5073</name></trkpt>
<trkpt lat="52.092224" lon="05.945456"><ele>94</ele><time>2024-02-22T12:04:35Z</time><name>PT5074</name></trkpt>
<trkpt lat="52.092213" lon="05.945452"><ele>94.2</ele><time>2024-02-22T12:04:36Z</time><name>PT5075</name></trkpt>
<trkpt lat="52.092200" lon="05.945449"><ele>93.9</ele><time>2024-02-22T12:04:37Z</time><name>PT5076</name></trkpt>
<trkpt lat="52.092189" lon="05.945446"><ele>93.9</ele><time>2024-02-22T12:04:38Z</time><name>PT5077</name></trkpt>
<trkpt lat="52.092178" lon="05.945442"><ele>93.8</ele><time>2024-02-22T12:04:39Z</time><name>PT5078</name></trkpt>
<trkpt lat="52.092170" lon="05.945437"><ele>93.8</ele><time>2024-02-22T12:04:40Z</time><name>PT5079</name></trkpt>
<trkpt lat="52.092162" lon="05.945433"><ele>93.9</ele><time>2024-02-22T12:04:41Z</time><name>PT5080</name></trkpt>
<trkpt lat="52.092158" lon="05.945429"><ele>93.8</ele><time>2024-02-22T12:04:42Z</time><name>PT5081</name></trkpt>
<trkpt lat="52.092149" lon="05.945427"><ele>93.7</ele><time>2024-02-22T12:04:43Z</time><name>PT5082</name></trkpt>
<trkpt lat="52.092139" lon="05.945427"><ele>93.8</ele><time>2024-02-22T12:04:44Z</time><name>PT5083</name></trkpt>
<trkpt lat="52.092128" lon="05.945426"><ele>93.8</ele><time>2024-02-22T12:04:45Z</time><name>PT5084</name></trkpt>
<trkpt lat="52.092117" lon="05.945425"><ele>93.7</ele><time>2024-02-22T12:04:46Z</time><name>PT5085</name></trkpt>
<trkpt lat="52.092107" lon="05.945422"><ele>93.8</ele><time>2024-02-22T12:04:47Z</time><name>PT5086</name></trkpt>
<trkpt lat="52.092095" lon="05.945415"><ele>94.1</ele><time>2024-02-22T12:04:48Z</time><name>PT5087</name></trkpt>
<trkpt lat="52.092085" lon="05.945409"><ele>94.2</ele><time>2024-02-22T12:04:49Z</time><name>PT5088</name></trkpt>
<trkpt lat="52.092077" lon="05.945408"><ele>94.2</ele><time>2024-02-22T12:04:50Z</time><name>PT5089</name></trkpt>
<trkpt lat="52.092064" lon="05.945405"><ele>94.2</ele><time>2024-02-22T12:04:51Z</time><name>PT5090</name></trkpt>
<trkpt lat="52.092051" lon="05.945405"><ele>94.3</ele><time>2024-02-22T12:04:52Z</time><name>PT5091</name></trkpt>
<trkpt lat="52.092039" lon="05.945403"><ele>94.2</ele><time>2024-02-22T12:04:53Z</time><name>PT5092</name></trkpt>
<trkpt lat="52.092029" lon="05.945396"><ele>94.3</ele><time>2024-02-22T12:04:54Z</time><name>PT5093</name></trkpt>
<trkpt lat="52.092016" lon="05.945388"><ele>94.5</ele><time>2024-02-22T12:04:55Z</time><name>PT5094</name></trkpt>
<trkpt lat="52.092004" lon="05.945385"><ele>94.3</ele><time>2024-02-22T12:04:56Z</time><name>PT5095</name></trkpt>
<trkpt lat="52.091994" lon="05.945384"><ele>94.4</ele><time>2024-02-22T12:04:57Z</time><name>PT5096</name></trkpt>
<trkpt lat="52.091983" lon="05.945382"><ele>94.5</ele><time>2024-02-22T12:04:58Z</time><name>PT5097</name></trkpt>
<trkpt lat="52.091972" lon="05.945382"><ele>94.6</ele><time>2024-02-22T12:04:59Z</time><name>PT5098</name></trkpt>
<trkpt lat="52.091961" lon="05.945380"><ele>94.7</ele><time>2024-02-22T12:05:00Z</time><name>PT5099</name></trkpt>
<trkpt lat="52.091952" lon="05.945375"><ele>95</ele><time>2024-02-22T12:05:01Z</time><name>PT5100</name></trkpt>
<trkpt lat="52.091942" lon="05.945372"><ele>95.2</ele><time>2024-02-22T12:05:02Z</time><name>PT5101</name></trkpt>
<trkpt lat="52.091930" lon="05.945366"><ele>95.3</ele><time>2024-02-22T12:05:03Z</time><name>PT5102</name></trkpt>
<trkpt lat="52.091922" lon="05.945363"><ele>95.4</ele><time>2024-02-22T12:05:04Z</time><name>PT5103</name></trkpt>
<trkpt lat="52.091913" lon="05.945360"><ele>95.4</ele><time>2024-02-22T12:05:05Z</time><name>PT5104</name></trkpt>
<trkpt lat="52.091900" lon="05.945360"><ele>95.5</ele><time>2024-02-22T12:05:06Z</time><name>PT5105</name></trkpt>
<trkpt lat="52.091886" lon="05.945362"><ele>95.4</ele><time>2024-02-22T12:05:07Z</time><name>PT5106</name></trkpt>
<trkpt lat="52.091875" lon="05.945362"><ele>95.3</ele><time>2024-02-22T12:05:08Z</time><name>PT5107</name></trkpt>
<trkpt lat="52.091864" lon="05.945360"><ele>95.4</ele><time>2024-02-22T12:05:09Z</time><name>PT5108</name></trkpt>
<trkpt lat="52.091852" lon="05.945356"><ele>95.4</ele><time>2024-02-22T12:05:10Z</time><name>PT5109</name></trkpt>
<trkpt lat="52.091840" lon="05.945354"><ele>95.3</ele><time>2024-02-22T12:05:11Z</time><name>PT5110</name></trkpt>
<trkpt lat="52.091829" lon="05.945352"><ele>95.3</ele><time>2024-02-22T12:05:12Z</time><name>PT5111</name></trkpt>
<trkpt lat="52.091817" lon="05.945351"><ele>95.5</ele><time>2024-02-22T12:05:13Z</time><name>PT5112</name></trkpt>
<trkpt lat="52.091806" lon="05.945350"><ele>95.4</ele><time>2024-02-22T12:05:14Z</time><name>PT5113</name></trkpt>
<trkpt lat="52.091795" lon="05.945345"><ele>95.4</ele><time>2024-02-22T12:05:15Z</time><name>PT5114</name></trkpt>
<trkpt lat="52.091784" lon="05.945345"><ele>95.3</ele><time>2024-02-22T12:05:16Z</time><name>PT5115</name></trkpt>
<trkpt lat="52.091772" lon="05.945346"><ele>95.3</ele><time>2024-02-22T12:05:17Z</time><name>PT5116</name></trkpt>
<trkpt lat="52.091759" lon="05.945345"><ele>95.3</ele><time>2024-02-22T12:05:18Z</time><name>PT5117</name></trkpt>
<trkpt lat="52.091748" lon="05.945343"><ele>95.3</ele><time>2024-02-22T12:05:19Z</time><name>PT5118</name></trkpt>
<trkpt lat="52.091737" lon="05.945339"><ele>95.3</ele><time>2024-02-22T12:05:20Z</time><name>PT5119</name></trkpt>
<trkpt lat="52.091728" lon="05.945334"><ele>95.2</ele><time>2024-02-22T12:05:21Z</time><name>PT5120</name></trkpt>
<trkpt lat="52.091717" lon="05.945331"><ele>95.3</ele><time>2024-02-22T12:05:22Z</time><name>PT5121</name></trkpt>
<trkpt lat="52.091706" lon="05.945329"><ele>95.3</ele><time>2024-02-22T12:05:23Z</time><name>PT5122</name></trkpt>
<trkpt lat="52.091695" lon="05.945326"><ele>95.1</ele><time>2024-02-22T12:05:24Z</time><name>PT5123</name></trkpt>
<trkpt lat="52.091689" lon="05.945324"><ele>95.3</ele><time>2024-02-22T12:05:25Z</time><name>PT5124</name></trkpt>
<trkpt lat="52.091677" lon="05.945322"><ele>95.4</ele><time>2024-02-22T12:05:26Z</time><name>PT5125</name></trkpt>
<trkpt lat="52.091666" lon="05.945320"><ele>95.3</ele><time>2024-02-22T12:05:27Z</time><name>PT5126</name></trkpt>
<trkpt lat="52.091653" lon="05.945319"><ele>95.7</ele><time>2024-02-22T12:05:28Z</time><name>PT5127</name></trkpt>
<trkpt lat="52.091640" lon="05.945318"><ele>95.8</ele><time>2024-02-22T12:05:29Z</time><name>PT5128</name></trkpt>
<trkpt lat="52.091629" lon="05.945314"><ele>95.7</ele><time>2024-02-22T12:05:30Z</time><name>PT5129</name></trkpt>
<trkpt lat="52.091620" lon="05.945314"><ele>95.6</ele><time>2024-02-22T12:05:31Z</time><name>PT5130</name></trkpt>
<trkpt lat="52.091610" lon="05.945314"><ele>95.7</ele><time>2024-02-22T12:05:32Z</time><name>PT5131</name></trkpt>
<trkpt lat="52.091602" lon="05.945319"><ele>95.7</ele><time>2024-02-22T12:05:33Z</time><name>PT5132</name></trkpt>
<trkpt lat="52.091592" lon="05.945320"><ele>95.7</ele><time>2024-02-22T12:05:34Z</time><name>PT5133</name></trkpt>
<trkpt lat="52.091577" lon="05.945316"><ele>95.9</ele><time>2024-02-22T12:05:35Z</time><name>PT5134</name></trkpt>
<trkpt lat="52.091566" lon="05.945314"><ele>95.9</ele><time>2024-02-22T12:05:36Z</time><name>PT5135</name></trkpt>
<trkpt lat="52.091556" lon="05.945307"><ele>95.9</ele><time>2024-02-22T12:05:37Z</time><name>PT5136</name></trkpt>
<trkpt lat="52.091545" lon="05.945301"><ele>95.9</ele><time>2024-02-22T12:05:38Z</time><name>PT5137</name></trkpt>
<trkpt lat="52.091536" lon="05.945296"><ele>95.7</ele><time>2024-02-22T12:05:39Z</time><name>PT5138</name></trkpt>
<trkpt lat="52.091529" lon="05.945295"><ele>95.5</ele><time>2024-02-22T12:05:40Z</time><name>PT5139</name></trkpt>
<trkpt lat="52.091519" lon="05.945295"><ele>95.4</ele><time>2024-02-22T12:05:41Z</time><name>PT5140</name></trkpt>
<trkpt lat="52.091510" lon="05.945293"><ele>95.3</ele><time>2024-02-22T12:05:42Z</time><name>PT5141</name></trkpt>
<trkpt lat="52.091498" lon="05.945290"><ele>95.2</ele><time>2024-02-22T12:05:43Z</time><name>PT5142</name></trkpt>
<trkpt lat="52.091484" lon="05.945286"><ele>95</ele><time>2024-02-22T12:05:44Z</time><name>PT5143</name></trkpt>
<trkpt lat="52.091471" lon="05.945280"><ele>95</ele><time>2024-02-22T12:05:45Z</time><name>PT5144</name></trkpt>
<trkpt lat="52.091460" lon="05.945276"><ele>95</ele><time>2024-02-22T12:05:46Z</time><name>PT5145</name></trkpt>
<trkpt lat="52.091451" lon="05.945273"><ele>95.1</ele><time>2024-02-22T12:05:47Z</time><name>PT5146</name></trkpt>
<trkpt lat="52.091443" lon="05.945270"><ele>95.2</ele><time>2024-02-22T12:05:48Z</time><name>PT5147</name></trkpt>
<trkpt lat="52.091433" lon="05.945266"><ele>95.3</ele><time>2024-02-22T12:05:49Z</time><name>PT5148</name></trkpt>
<trkpt lat="52.091422" lon="05.945260"><ele>95.4</ele><time>2024-02-22T12:05:50Z</time><name>PT5149</name></trkpt>
<trkpt lat="52.091411" lon="05.945255"><ele>95.7</ele><time>2024-02-22T12:05:51Z</time><name>PT5150</name></trkpt>
<trkpt lat="52.091399" lon="05.945252"><ele>95.8</ele><time>2024-02-22T12:05:52Z</time><name>PT5151</name></trkpt>
<trkpt lat="52.091388" lon="05.945246"><ele>95.9</ele><time>2024-02-22T12:05:53Z</time><name>PT5152</name></trkpt>
<trkpt lat="52.091376" lon="05.945241"><ele>95.9</ele><time>2024-02-22T12:05:54Z</time><name>PT5153</name></trkpt>
<trkpt lat="52.091367" lon="05.945239"><ele>95.8</ele><time>2024-02-22T12:05:55Z</time><name>PT5154</name></trkpt>
<trkpt lat="52.091357" lon="05.945237"><ele>95.9</ele><time>2024-02-22T12:05:56Z</time><name>PT5155</name></trkpt>
<trkpt lat="52.091344" lon="05.945235"><ele>95.9</ele><time>2024-02-22T12:05:57Z</time><name>PT5156</name></trkpt>
<trkpt lat="52.091330" lon="05.945231"><ele>95.9</ele><time>2024-02-22T12:05:58Z</time><name>PT5157</name></trkpt>
<trkpt lat="52.091317" lon="05.945228"><ele>96</ele><time>2024-02-22T12:05:59Z</time><name>PT5158</name></trkpt>
<trkpt lat="52.091307" lon="05.945226"><ele>96</ele><time>2024-02-22T12:06:00Z</time><name>PT5159</name></trkpt>
<trkpt lat="52.091300" lon="05.945224"><ele>96</ele><time>2024-02-22T12:06:01Z</time><name>PT5160</name></trkpt>
<trkpt lat="52.091292" lon="05.945220"><ele>96</ele><time>2024-02-22T12:06:02Z</time><name>PT5161</name></trkpt>
<trkpt lat="52.091281" lon="05.945216"><ele>96.2</ele><time>2024-02-22T12:06:03Z</time><name>PT5162</name></trkpt>
<trkpt lat="52.091272" lon="05.945215"><ele>96.2</ele><time>2024-02-22T12:06:04Z</time><name>PT5163</name></trkpt>
<trkpt lat="52.091261" lon="05.945214"><ele>96.3</ele><time>2024-02-22T12:06:05Z</time><name>PT5164</name></trkpt>
<trkpt lat="52.091249" lon="05.945210"><ele>96.3</ele><time>2024-02-22T12:06:06Z</time><name>PT5165</name></trkpt>
<trkpt lat="52.091236" lon="05.945208"><ele>96.1</ele><time>2024-02-22T12:06:07Z</time><name>PT5166</name></trkpt>
<trkpt lat="52.091222" lon="05.945204"><ele>96</ele><time>2024-02-22T12:06:08Z</time><name>PT5167</name></trkpt>
<trkpt lat="52.091208" lon="05.945199"><ele>96.2</ele><time>2024-02-22T12:06:09Z</time><name>PT5168</name></trkpt>
<trkpt lat="52.091197" lon="05.945196"><ele>96.1</ele><time>2024-02-22T12:06:10Z</time><name>PT5169</name></trkpt>
<trkpt lat="52.091186" lon="05.945190"><ele>96</ele><time>2024-02-22T12:06:11Z</time><name>PT5170</name></trkpt>
<trkpt lat="52.091173" lon="05.945186"><ele>96</ele><time>2024-02-22T12:06:12Z</time><name>PT5171</name></trkpt>
<trkpt lat="52.091163" lon="05.945182"><ele>96</ele><time>2024-02-22T12:06:13Z</time><name>PT5172</name></trkpt>
<trkpt lat="52.091152" lon="05.945181"><ele>96</ele><time>2024-02-22T12:06:14Z</time><name>PT5173</name></trkpt>
<trkpt lat="52.091143" lon="05.945179"><ele>96.1</ele><time>2024-02-22T12:06:15Z</time><name>PT5174</name></trkpt>
<trkpt lat="52.091132" lon="05.945177"><ele>96.3</ele><time>2024-02-22T12:06:16Z</time><name>PT5175</name></trkpt>
<trkpt lat="52.091124" lon="05.945173"><ele>96.3</ele><time>2024-02-22T12:06:17Z</time><name>PT5176</name></trkpt>
<trkpt lat="52.091113" lon="05.945169"><ele>96.4</ele><time>2024-02-22T12:06:18Z</time><name>PT5177</name></trkpt>
<trkpt lat="52.091100" lon="05.945167"><ele>96.3</ele><time>2024-02-22T12:06:19Z</time><name>PT5178</name></trkpt>
<trkpt lat="52.091087" lon="05.945164"><ele>96.3</ele><time>2024-02-22T12:06:20Z</time><name>PT5179</name></trkpt>
<trkpt lat="52.091076" lon="05.945163"><ele>96.1</ele><time>2024-02-22T12:06:21Z</time><name>PT5180</name></trkpt>
<trkpt lat="52.091066" lon="05.945160"><ele>96.2</ele><time>2024-02-22T12:06:22Z</time><name>PT5181</name></trkpt>
<trkpt lat="52.091056" lon="05.945158"><ele>96.2</ele><time>2024-02-22T12:06:23Z</time><name>PT5182</name></trkpt>
<trkpt lat="52.091049" lon="05.945156"><ele>96.1</ele><time>2024-02-22T12:06:24Z</time><name>PT5183</name></trkpt>
<trkpt lat="52.091039" lon="05.945152"><ele>96.1</ele><time>2024-02-22T12:06:25Z</time><name>PT5184</name></trkpt>
<trkpt lat="52.091030" lon="05.945147"><ele>96.3</ele><time>2024-02-22T12:06:26Z</time><name>PT5185</name></trkpt>
<trkpt lat="52.091021" lon="05.945144"><ele>96.2</ele><time>2024-02-22T12:06:27Z</time><name>PT5186</name></trkpt>
<trkpt lat="52.091012" lon="05.945141"><ele>96.2</ele><time>2024-02-22T12:06:28Z</time><name>PT5187</name></trkpt>
<trkpt lat="52.091007" lon="05.945143"><ele>96.3</ele><time>2024-02-22T12:06:29Z</time><name>PT5188</name></trkpt>
<trkpt lat="52.091001" lon="05.945139"><ele>96.4</ele><time>2024-02-22T12:06:30Z</time><name>PT5189</name></trkpt>
<trkpt lat="52.090990" lon="05.945134"><ele>96.5</ele><time>2024-02-22T12:06:31Z</time><name>PT5190</name></trkpt>
<trkpt lat="52.090978" lon="05.945131"><ele>96.4</ele><time>2024-02-22T12:06:32Z</time><name>PT5191</name></trkpt>
<trkpt lat="52.090964" lon="05.945127"><ele>96.4</ele><time>2024-02-22T12:06:33Z</time><name>PT5192</name></trkpt>
<trkpt lat="52.090954" lon="05.945125"><ele>96.2</ele><time>2024-02-22T12:06:34Z</time><name>PT5193</name></trkpt>
<trkpt lat="52.090942" lon="05.945121"><ele>96</ele><time>2024-02-22T12:06:35Z</time><name>PT5194</name></trkpt>
<trkpt lat="52.090929" lon="05.945116"><ele>95.8</ele><time>2024-02-22T12:06:36Z</time><name>PT5195</name></trkpt>
<trkpt lat="52.090919" lon="05.945114"><ele>95.9</ele><time>2024-02-22T12:06:37Z</time><name>PT5196</name></trkpt>
<trkpt lat="52.090909" lon="05.945111"><ele>95.8</ele><time>2024-02-22T12:06:38Z</time><name>PT5197</name></trkpt>
<trkpt lat="52.090899" lon="05.945109"><ele>96</ele><time>2024-02-22T12:06:39Z</time><name>PT5198</name></trkpt>
<trkpt lat="52.090885" lon="05.945104"><ele>96.4</ele><time>2024-02-22T12:06:40Z</time><name>PT5199</name></trkpt>
<trkpt lat="52.090875" lon="05.945106"><ele>96.4</ele><time>2024-02-22T12:06:41Z</time><name>PT5200</name></trkpt>
<trkpt lat="52.090861" lon="05.945103"><ele>96.4</ele><time>2024-02-22T12:06:42Z</time><name>PT5201</name></trkpt>
<trkpt lat="52.090848" lon="05.945100"><ele>96.5</ele><time>2024-02-22T12:06:43Z</time><name>PT5202</name></trkpt>
<trkpt lat="52.090836" lon="05.945095"><ele>96.6</ele><time>2024-02-22T12:06:44Z</time><name>PT5203</name></trkpt>
<trkpt lat="52.090824" lon="05.945093"><ele>96.5</ele><time>2024-02-22T12:06:45Z</time><name>PT5204</name></trkpt>
<trkpt lat="52.090814" lon="05.945088"><ele>96.3</ele><time>2024-02-22T12:06:46Z</time><name>PT5205</name></trkpt>
<trkpt lat="52.090806" lon="05.945084"><ele>96.4</ele><time>2024-02-22T12:06:47Z</time><name>PT5206</name></trkpt>
<trkpt lat="52.090792" lon="05.945080"><ele>96.2</ele><time>2024-02-22T12:06:48Z</time><name>PT5207</name></trkpt>
<trkpt lat="52.090782" lon="05.945076"><ele>96</ele><time>2024-02-22T12:06:49Z</time><name>PT5208</name></trkpt>
<trkpt lat="52.090769" lon="05.945073"><ele>96</ele><time>2024-02-22T12:06:50Z</time><name>PT5209</name></trkpt>
<trkpt lat="52.090761" lon="05.945069"><ele>96</ele><time>2024-02-22T12:06:51Z</time><name>PT5210</name></trkpt>
<trkpt lat="52.090752" lon="05.945068"><ele>95.9</ele><time>2024-02-22T12:06:52Z</time><name>PT5211</name></trkpt>
<trkpt lat="52.090741" lon="05.945065"><ele>95.9</ele><time>2024-02-22T12:06:53Z</time><name>PT5212</name></trkpt>
<trkpt lat="52.090733" lon="05.945061"><ele>95.9</ele><time>2024-02-22T12:06:54Z</time><name>PT5213</name></trkpt>
<trkpt lat="52.090726" lon="05.945057"><ele>96.1</ele><time>2024-02-22T12:06:55Z</time><name>PT5214</name></trkpt>
<trkpt lat="52.090718" lon="05.945058"><ele>96.1</ele><time>2024-02-22T12:06:56Z</time><name>PT5215</name></trkpt>
<trkpt lat="52.090710" lon="05.945060"><ele>96.2</ele><time>2024-02-22T12:06:57Z</time><name>PT5216</name></trkpt>
<trkpt lat="52.090699" lon="05.945061"><ele>96.2</ele><time>2024-02-22T12:06:58Z</time><name>PT5217</name></trkpt>
<trkpt lat="52.090689" lon="05.945059"><ele>96.2</ele><time>2024-02-22T12:06:59Z</time><name>PT5218</name></trkpt>
<trkpt lat="52.090683" lon="05.945061"><ele>96</ele><time>2024-02-22T12:07:00Z</time><name>PT5219</name></trkpt>
<trkpt lat="52.090674" lon="05.945059"><ele>96.2</ele><time>2024-02-22T12:07:01Z</time><name>PT5220</name></trkpt>
<trkpt lat="52.090661" lon="05.945057"><ele>96.1</ele><time>2024-02-22T12:07:02Z</time><name>PT5221</name></trkpt>
<trkpt lat="52.090646" lon="05.945056"><ele>96.2</ele><time>2024-02-22T12:07:03Z</time><name>PT5222</name></trkpt>
<trkpt lat="52.090635" lon="05.945054"><ele>96.2</ele><time>2024-02-22T12:07:04Z</time><name>PT5223</name></trkpt>
<trkpt lat="52.090623" lon="05.945050"><ele>96.4</ele><time>2024-02-22T12:07:05Z</time><name>PT5224</name></trkpt>
<trkpt lat="52.090611" lon="05.945047"><ele>96.3</ele><time>2024-02-22T12:07:06Z</time><name>PT5225</name></trkpt>
<trkpt lat="52.090598" lon="05.945040"><ele>96.4</ele><time>2024-02-22T12:07:07Z</time><name>PT5226</name></trkpt>
<trkpt lat="52.090584" lon="05.945035"><ele>96.4</ele><time>2024-02-22T12:07:08Z</time><name>PT5227</name></trkpt>
<trkpt lat="52.090572" lon="05.945033"><ele>96.3</ele><time>2024-02-22T12:07:09Z</time><name>PT5228</name></trkpt>
<trkpt lat="52.090560" lon="05.945032"><ele>96.1</ele><time>2024-02-22T12:07:10Z</time><name>PT5229</name></trkpt>
<trkpt lat="52.090554" lon="05.945030"><ele>96.1</ele><time>2024-02-22T12:07:11Z</time><name>PT5230</name></trkpt>
<trkpt lat="52.090545" lon="05.945028"><ele>96</ele><time>2024-02-22T12:07:12Z</time><name>PT5231</name></trkpt>
<trkpt lat="52.090536" lon="05.945029"><ele>96</ele><time>2024-02-22T12:07:13Z</time><name>PT5232</name></trkpt>
<trkpt lat="52.090529" lon="05.945027"><ele>96.1</ele><time>2024-02-22T12:07:14Z</time><name>PT5233</name></trkpt>
<trkpt lat="52.090520" lon="05.945018"><ele>96.1</ele><time>2024-02-22T12:07:15Z</time><name>PT5234</name></trkpt>
<trkpt lat="52.090512" lon="05.945013"><ele>95.9</ele><time>2024-02-22T12:07:16Z</time><name>PT5235</name></trkpt>
<trkpt lat="52.090501" lon="05.945010"><ele>95.9</ele><time>2024-02-22T12:07:17Z</time><name>PT5236</name></trkpt>
<trkpt lat="52.090494" lon="05.945002"><ele>95.9</ele><time>2024-02-22T12:07:18Z</time><name>PT5237</name></trkpt>
<trkpt lat="52.090488" lon="05.944996"><ele>95.9</ele><time>2024-02-22T12:07:19Z</time><name>PT5238</name></trkpt>
<trkpt lat="52.090478" lon="05.944991"><ele>95.9</ele><time>2024-02-22T12:07:20Z</time><name>PT5239</name></trkpt>
<trkpt lat="52.090467" lon="05.944990"><ele>96</ele><time>2024-02-22T12:07:21Z</time><name>PT5240</name></trkpt>
<trkpt lat="52.090458" lon="05.944988"><ele>96</ele><time>2024-02-22T12:07:22Z</time><name>PT5241</name></trkpt>
<trkpt lat="52.090446" lon="05.944985"><ele>96.1</ele><time>2024-02-22T12:07:23Z</time><name>PT5242</name></trkpt>
<trkpt lat="52.090437" lon="05.944983"><ele>96.1</ele><time>2024-02-22T12:07:24Z</time><name>PT5243</name></trkpt>
<trkpt lat="52.090430" lon="05.944981"><ele>95.9</ele><time>2024-02-22T12:07:25Z</time><name>PT5244</name></trkpt>
<trkpt lat="52.090418" lon="05.944979"><ele>95.7</ele><time>2024-02-22T12:07:26Z</time><name>PT5245</name></trkpt>
<trkpt lat="52.090407" lon="05.944975"><ele>95.4</ele><time>2024-02-22T12:07:27Z</time><name>PT5246</name></trkpt>
<trkpt lat="52.090395" lon="05.944974"><ele>95.5</ele><time>2024-02-22T12:07:28Z</time><name>PT5247</name></trkpt>
<trkpt lat="52.090384" lon="05.944971"><ele>95.6</ele><time>2024-02-22T12:07:29Z</time><name>PT5248</name></trkpt>
<trkpt lat="52.090377" lon="05.944970"><ele>95.8</ele><time>2024-02-22T12:07:30Z</time><name>PT5249</name></trkpt>
<trkpt lat="52.090366" lon="05.944968"><ele>95.9</ele><time>2024-02-22T12:07:31Z</time><name>PT5250</name></trkpt>
<trkpt lat="52.090353" lon="05.944965"><ele>95.9</ele><time>2024-02-22T12:07:32Z</time><name>PT5251</name></trkpt>
<trkpt lat="52.090344" lon="05.944961"><ele>95.9</ele><time>2024-02-22T12:07:33Z</time><name>PT5252</name></trkpt>
<trkpt lat="52.090332" lon="05.944963"><ele>95.9</ele><time>2024-02-22T12:07:34Z</time><name>PT5253</name></trkpt>
<trkpt lat="52.090322" lon="05.944963"><ele>96</ele><time>2024-02-22T12:07:35Z</time><name>PT5254</name></trkpt>
<trkpt lat="52.090309" lon="05.944963"><ele>96</ele><time>2024-02-22T12:07:36Z</time><name>PT5255</name></trkpt>
<trkpt lat="52.090297" lon="05.944962"><ele>96.1</ele><time>2024-02-22T12:07:37Z</time><name>PT5256</name></trkpt>
<trkpt lat="52.090287" lon="05.944959"><ele>95.9</ele><time>2024-02-22T12:07:38Z</time><name>PT5257</name></trkpt>
<trkpt lat="52.090276" lon="05.944957"><ele>95.7</ele><time>2024-02-22T12:07:39Z</time><name>PT5258</name></trkpt>
<trkpt lat="52.090263" lon="05.944956"><ele>95.4</ele><time>2024-02-22T12:07:40Z</time><name>PT5259</name></trkpt>
<trkpt lat="52.090252" lon="05.944952"><ele>95.4</ele><time>2024-02-22T12:07:41Z</time><name>PT5260</name></trkpt>
<trkpt lat="52.090240" lon="05.944948"><ele>95.5</ele><time>2024-02-22T12:07:42Z</time><name>PT5261</name></trkpt>
<trkpt lat="52.090230" lon="05.944945"><ele>95.7</ele><time>2024-02-22T12:07:43Z</time><name>PT5262</name></trkpt>
<trkpt lat="52.090223" lon="05.944941"><ele>95.8</ele><time>2024-02-22T12:07:44Z</time><name>PT5263</name></trkpt>
<trkpt lat="52.090214" lon="05.944932"><ele>95.9</ele><time>2024-02-22T12:07:45Z</time><name>PT5264</name></trkpt>
<trkpt lat="52.090202" lon="05.944928"><ele>96</ele><time>2024-02-22T12:07:46Z</time><name>PT5265</name></trkpt>
<trkpt lat="52.090193" lon="05.944925"><ele>96</ele><time>2024-02-22T12:07:47Z</time><name>PT5266</name></trkpt>
<trkpt lat="52.090186" lon="05.944925"><ele>96.1</ele><time>2024-02-22T12:07:48Z</time><name>PT5267</name></trkpt>
<trkpt lat="52.090176" lon="05.944923"><ele>96</ele><time>2024-02-22T12:07:49Z</time><name>PT5268</name></trkpt>
<trkpt lat="52.090168" lon="05.944920"><ele>95.9</ele><time>2024-02-22T12:07:50Z</time><name>PT5269</name></trkpt>
<trkpt lat="52.090154" lon="05.944916"><ele>95.9</ele><time>2024-02-22T12:07:51Z</time><name>PT5270</name></trkpt>
<trkpt lat="52.090145" lon="05.944918"><ele>95.9</ele><time>2024-02-22T12:07:52Z</time><name>PT5271</name></trkpt>
<trkpt lat="52.090137" lon="05.944919"><ele>95.9</ele><time>2024-02-22T12:07:53Z</time><name>PT5272</name></trkpt>
<trkpt lat="52.090129" lon="05.944918"><ele>96.1</ele><time>2024-02-22T12:07:54Z</time><name>PT5273</name></trkpt>
<trkpt lat="52.090118" lon="05.944916"><ele>96.2</ele><time>2024-02-22T12:07:55Z</time><name>PT5274</name></trkpt>
<trkpt lat="52.090108" lon="05.944916"><ele>96.3</ele><time>2024-02-22T12:07:56Z</time><name>PT5275</name></trkpt>
<trkpt lat="52.090096" lon="05.944918"><ele>96.5</ele><time>2024-02-22T12:07:57Z</time><name>PT5276</name></trkpt>
<trkpt lat="52.090085" lon="05.944921"><ele>96.4</ele><time>2024-02-22T12:07:58Z</time><name>PT5277</name></trkpt>
<trkpt lat="52.090073" lon="05.944921"><ele>96.4</ele><time>2024-02-22T12:07:59Z</time><name>PT5278</name></trkpt>
<trkpt lat="52.090062" lon="05.944922"><ele>96.4</ele><time>2024-02-22T12:08:00Z</time><name>PT5279</name></trkpt>
<trkpt lat="52.090052" lon="05.944920"><ele>96.4</ele><time>2024-02-22T12:08:01Z</time><name>PT5280</name></trkpt>
<trkpt lat="52.090040" lon="05.944921"><ele>96.3</ele><time>2024-02-22T12:08:02Z</time><name>PT5281</name></trkpt>
<trkpt lat="52.090029" lon="05.944920"><ele>96.5</ele><time>2024-02-22T12:08:03Z</time><name>PT5282</name></trkpt>
<trkpt lat="52.090015" lon="05.944918"><ele>96.5</ele><time>2024-02-22T12:08:04Z</time><name>PT5283</name></trkpt>
<trkpt lat="52.090004" lon="05.944919"><ele>96.5</ele><time>2024-02-22T12:08:05Z</time><name>PT5284</name></trkpt>
<trkpt lat="52.089992" lon="05.944918"><ele>96.5</ele><time>2024-02-22T12:08:06Z</time><name>PT5285</name></trkpt>
<trkpt lat="52.089982" lon="05.944917"><ele>96.5</ele><time>2024-02-22T12:08:07Z</time><name>PT5286</name></trkpt>
<trkpt lat="52.089971" lon="05.944915"><ele>96.6</ele><time>2024-02-22T12:08:08Z</time><name>PT5287</name></trkpt>
<trkpt lat="52.089960" lon="05.944914"><ele>96.7</ele><time>2024-02-22T12:08:09Z</time><name>PT5288</name></trkpt>
<trkpt lat="52.089946" lon="05.944912"><ele>96.7</ele><time>2024-02-22T12:08:10Z</time><name>PT5289</name></trkpt>
<trkpt lat="52.089933" lon="05.944909"><ele>96.8</ele><time>2024-02-22T12:08:11Z</time><name>PT5290</name></trkpt>
<trkpt lat="52.089923" lon="05.944906"><ele>96.9</ele><time>2024-02-22T12:08:12Z</time><name>PT5291</name></trkpt>
<trkpt lat="52.089913" lon="05.944904"><ele>96.8</ele><time>2024-02-22T12:08:13Z</time><name>PT5292</name></trkpt>
<trkpt lat="52.089908" lon="05.944904"><ele>96.8</ele><time>2024-02-22T12:08:14Z</time><name>PT5293</name></trkpt>
<trkpt lat="52.089895" lon="05.944900"><ele>97</ele><time>2024-02-22T12:08:15Z</time><name>PT5294</name></trkpt>
<trkpt lat="52.089886" lon="05.944898"><ele>97</ele><time>2024-02-22T12:08:16Z</time><name>PT5295</name></trkpt>
<trkpt lat="52.089875" lon="05.944896"><ele>97</ele><time>2024-02-22T12:08:17Z</time><name>PT5296</name></trkpt>
<trkpt lat="52.089862" lon="05.944894"><ele>97.1</ele><time>2024-02-22T12:08:18Z</time><name>PT5297</name></trkpt>
<trkpt lat="52.089853" lon="05.944896"><ele>97.1</ele><time>2024-02-22T12:08:19Z</time><name>PT5298</name></trkpt>
<trkpt lat="52.089842" lon="05.944891"><ele>97.1</ele><time>2024-02-22T12:08:20Z</time><name>PT5299</name></trkpt>
<trkpt lat="52.089831" lon="05.944889"><ele>97.1</ele><time>2024-02-22T12:08:21Z</time><name>PT5300</name></trkpt>
<trkpt lat="52.089821" lon="05.944885"><ele>97.3</ele><time>2024-02-22T12:08:22Z</time><name>PT5301</name></trkpt>
<trkpt lat="52.089811" lon="05.944882"><ele>97.3</ele><time>2024-02-22T12:08:23Z</time><name>PT5302</name></trkpt>
<trkpt lat="52.089802" lon="05.944879"><ele>97.3</ele><time>2024-02-22T12:08:24Z</time><name>PT5303</name></trkpt>
<trkpt lat="52.089791" lon="05.944871"><ele>97.4</ele><time>2024-02-22T12:08:25Z</time><name>PT5304</name></trkpt>
<trkpt lat="52.089777" lon="05.944867"><ele>97.4</ele><time>2024-02-22T12:08:26Z</time><name>PT5305</name></trkpt>
<trkpt lat="52.089763" lon="05.944861"><ele>97.5</ele><time>2024-02-22T12:08:27Z</time><name>PT5306</name></trkpt>
<trkpt lat="52.089749" lon="05.944860"><ele>97.5</ele><time>2024-02-22T12:08:28Z</time><name>PT5307</name></trkpt>
<trkpt lat="52.089735" lon="05.944856"><ele>97.5</ele><time>2024-02-22T12:08:29Z</time><name>PT5308</name></trkpt>
<trkpt lat="52.089724" lon="05.944854"><ele>97.4</ele><time>2024-02-22T12:08:30Z</time><name>PT5309</name></trkpt>
<trkpt lat="52.089715" lon="05.944853"><ele>97.5</ele><time>2024-02-22T12:08:31Z</time><name>PT5310</name></trkpt>
<trkpt lat="52.089707" lon="05.944852"><ele>97.3</ele><time>2024-02-22T12:08:32Z</time><name>PT5311</name></trkpt>
<trkpt lat="52.089700" lon="05.944847"><ele>97.2</ele><time>2024-02-22T12:08:33Z</time><name>PT5312</name></trkpt>
<trkpt lat="52.089690" lon="05.944842"><ele>97.1</ele><time>2024-02-22T12:08:34Z</time><name>PT5313</name></trkpt>
<trkpt lat="52.089679" lon="05.944839"><ele>97.2</ele><time>2024-02-22T12:08:35Z</time><name>PT5314</name></trkpt>
<trkpt lat="52.089668" lon="05.944836"><ele>97.1</ele><time>2024-02-22T12:08:36Z</time><name>PT5315</name></trkpt>
<trkpt lat="52.089657" lon="05.944833"><ele>97</ele><time>2024-02-22T12:08:37Z</time><name>PT5316</name></trkpt>
<trkpt lat="52.089644" lon="05.944830"><ele>97.1</ele><time>2024-02-22T12:08:38Z</time><name>PT5317</name></trkpt>
<trkpt lat="52.089630" lon="05.944826"><ele>97</ele><time>2024-02-22T12:08:39Z</time><name>PT5318</name></trkpt>
<trkpt lat="52.089617" lon="05.944825"><ele>97</ele><time>2024-02-22T12:08:40Z</time><name>PT5319</name></trkpt>
<trkpt lat="52.089606" lon="05.944825"><ele>96.9</ele><time>2024-02-22T12:08:41Z</time><name>PT5320</name></trkpt>
<trkpt lat="52.089594" lon="05.944823"><ele>96.9</ele><time>2024-02-22T12:08:42Z</time><name>PT5321</name></trkpt>
<trkpt lat="52.089583" lon="05.944821"><ele>96.9</ele><time>2024-02-22T12:08:43Z</time><name>PT5322</name></trkpt>
<trkpt lat="52.089570" lon="05.944816"><ele>96.8</ele><time>2024-02-22T12:08:44Z</time><name>PT5323</name></trkpt>
<trkpt lat="52.089560" lon="05.944812"><ele>96.6</ele><time>2024-02-22T12:08:45Z</time><name>PT5324</name></trkpt>
<trkpt lat="52.089548" lon="05.944810"><ele>96.6</ele><time>2024-02-22T12:08:46Z</time><name>PT5325</name></trkpt>
<trkpt lat="52.089535" lon="05.944807"><ele>96.6</ele><time>2024-02-22T12:08:47Z</time><name>PT5326</name></trkpt>
<trkpt lat="52.089524" lon="05.944802"><ele>96.5</ele><time>2024-02-22T12:08:48Z</time><name>PT5327</name></trkpt>
<trkpt lat="52.089513" lon="05.944799"><ele>96.5</ele><time>2024-02-22T12:08:49Z</time><name>PT5328</name></trkpt>
<trkpt lat="52.089504" lon="05.944800"><ele>96.5</ele><time>2024-02-22T12:08:50Z</time><name>PT5329</name></trkpt>
<trkpt lat="52.089495" lon="05.944798"><ele>96.6</ele><time>2024-02-22T12:08:51Z</time><name>PT5330</name></trkpt>
<trkpt lat="52.089484" lon="05.944798"><ele>96.6</ele><time>2024-02-22T12:08:52Z</time><name>PT5331</name></trkpt>
<trkpt lat="52.089473" lon="05.944798"><ele>96.5</ele><time>2024-02-22T12:08:53Z</time><name>PT5332</name></trkpt>
<trkpt lat="52.089463" lon="05.944800"><ele>96.7</ele><time>2024-02-22T12:08:54Z</time><name>PT5333</name></trkpt>
<trkpt lat="52.089450" lon="05.944797"><ele>96.9</ele><time>2024-02-22T12:08:55Z</time><name>PT5334</name></trkpt>
<trkpt lat="52.089437" lon="05.944790"><ele>96.9</ele><time>2024-02-22T12:08:56Z</time><name>PT5335</name></trkpt>
<trkpt lat="52.089426" lon="05.944785"><ele>97.1</ele><time>2024-02-22T12:08:57Z</time><name>PT5336</name></trkpt>
<trkpt lat="52.089417" lon="05.944783"><ele>97</ele><time>2024-02-22T12:08:58Z</time><name>PT5337</name></trkpt>
<trkpt lat="52.089408" lon="05.944782"><ele>96.9</ele><time>2024-02-22T12:08:59Z</time><name>PT5338</name></trkpt>
<trkpt lat="52.089397" lon="05.944781"><ele>96.9</ele><time>2024-02-22T12:09:00Z</time><name>PT5339</name></trkpt>
<trkpt lat="52.089387" lon="05.944779"><ele>96.9</ele><time>2024-02-22T12:09:01Z</time><name>PT5340</name></trkpt>
<trkpt lat="52.089376" lon="05.944774"><ele>96.9</ele><time>2024-02-22T12:09:02Z</time><name>PT5341</name></trkpt>
<trkpt lat="52.089368" lon="05.944769"><ele>97</ele><time>2024-02-22T12:09:03Z</time><name>PT5342</name></trkpt>
<trkpt lat="52.089358" lon="05.944763"><ele>97.1</ele><time>2024-02-22T12:09:04Z</time><name>PT5343</name></trkpt>
<trkpt lat="52.089350" lon="05.944759"><ele>97.1</ele><time>2024-02-22T12:09:05Z</time><name>PT5344</name></trkpt>
<trkpt lat="52.089341" lon="05.944759"><ele>97.1</ele><time>2024-02-22T12:09:06Z</time><name>PT5345</name></trkpt>
<trkpt lat="52.089329" lon="05.944754"><ele>97.1</ele><time>2024-02-22T12:09:07Z</time><name>PT5346</name></trkpt>
<trkpt lat="52.089317" lon="05.944750"><ele>97.1</ele><time>2024-02-22T12:09:08Z</time><name>PT5347</name></trkpt>
<trkpt lat="52.089305" lon="05.944749"><ele>97.1</ele><time>2024-02-22T12:09:09Z</time><name>PT5348</name></trkpt>
<trkpt lat="52.089293" lon="05.944748"><ele>97</ele><time>2024-02-22T12:09:10Z</time><name>PT5349</name></trkpt>
<trkpt lat="52.089285" lon="05.944743"><ele>96.8</ele><time>2024-02-22T12:09:11Z</time><name>PT5350</name></trkpt>
<trkpt lat="52.089277" lon="05.944738"><ele>96.9</ele><time>2024-02-22T12:09:12Z</time><name>PT5351</name></trkpt>
<trkpt lat="52.089267" lon="05.944733"><ele>97</ele><time>2024-02-22T12:09:13Z</time><name>PT5352</name></trkpt>
<trkpt lat="52.089255" lon="05.944729"><ele>97</ele><time>2024-02-22T12:09:14Z</time><name>PT5353</name></trkpt>
<trkpt lat="52.089246" lon="05.944726"><ele>97.1</ele><time>2024-02-22T12:09:15Z</time><name>PT5354</name></trkpt>
<trkpt lat="52.089240" lon="05.944724"><ele>97</ele><time>2024-02-22T12:09:16Z</time><name>PT5355</name></trkpt>
<trkpt lat="52.089230" lon="05.944723"><ele>97</ele><time>2024-02-22T12:09:17Z</time><name>PT5356</name></trkpt>
<trkpt lat="52.089221" lon="05.944723"><ele>96.8</ele><time>2024-02-22T12:09:18Z</time><name>PT5357</name></trkpt>
<trkpt lat="52.089210" lon="05.944719"><ele>96.9</ele><time>2024-02-22T12:09:19Z</time><name>PT5358</name></trkpt>
<trkpt lat="52.089198" lon="05.944715"><ele>96.9</ele><time>2024-02-22T12:09:20Z</time><name>PT5359</name></trkpt>
<trkpt lat="52.089187" lon="05.944713"><ele>97.1</ele><time>2024-02-22T12:09:21Z</time><name>PT5360</name></trkpt>
<trkpt lat="52.089178" lon="05.944711"><ele>97.1</ele><time>2024-02-22T12:09:22Z</time><name>PT5361</name></trkpt>
<trkpt lat="52.089167" lon="05.944708"><ele>97.2</ele><time>2024-02-22T12:09:23Z</time><name>PT5362</name></trkpt>
<trkpt lat="52.089158" lon="05.944706"><ele>97.5</ele><time>2024-02-22T12:09:24Z</time><name>PT5363</name></trkpt>
<trkpt lat="52.089147" lon="05.944703"><ele>97.5</ele><time>2024-02-22T12:09:25Z</time><name>PT5364</name></trkpt>
<trkpt lat="52.089136" lon="05.944700"><ele>97.3</ele><time>2024-02-22T12:09:26Z</time><name>PT5365</name></trkpt>
<trkpt lat="52.089128" lon="05.944700"><ele>97.3</ele><time>2024-02-22T12:09:27Z</time><name>PT5366</name></trkpt>
<trkpt lat="52.089123" lon="05.944697"><ele>97.2</ele><time>2024-02-22T12:09:28Z</time><name>PT5367</name></trkpt>
<trkpt lat="52.089114" lon="05.944695"><ele>97.1</ele><time>2024-02-22T12:09:29Z</time><name>PT5368</name></trkpt>
<trkpt lat="52.089107" lon="05.944693"><ele>97.1</ele><time>2024-02-22T12:09:30Z</time><name>PT5369</name></trkpt>
<trkpt lat="52.089098" lon="05.944688"><ele>97.1</ele><time>2024-02-22T12:09:31Z</time><name>PT5370</name></trkpt>
<trkpt lat="52.089090" lon="05.944686"><ele>97.1</ele><time>2024-02-22T12:09:32Z</time><name>PT5371</name></trkpt>
<trkpt lat="52.089083" lon="05.944685"><ele>97.1</ele><time>2024-02-22T12:09:33Z</time><name>PT5372</name></trkpt>
<trkpt lat="52.089075" lon="05.944682"><ele>97.1</ele><time>2024-02-22T12:09:34Z</time><name>PT5373</name></trkpt>
<trkpt lat="52.089064" lon="05.944680"><ele>97.3</ele><time>2024-02-22T12:09:35Z</time><name>PT5374</name></trkpt>
<trkpt lat="52.089054" lon="05.944679"><ele>97.6</ele><time>2024-02-22T12:09:36Z</time><name>PT5375</name></trkpt>
<trkpt lat="52.089043" lon="05.944676"><ele>97.8</ele><time>2024-02-22T12:09:37Z</time><name>PT5376</name></trkpt>
<trkpt lat="52.089033" lon="05.944674"><ele>97.9</ele><time>2024-02-22T12:09:38Z</time><name>PT5377</name></trkpt>
<trkpt lat="52.089022" lon="05.944672"><ele>97.7</ele><time>2024-02-22T12:09:39Z</time><name>PT5378</name></trkpt>
<trkpt lat="52.089012" lon="05.944671"><ele>97.6</ele><time>2024-02-22T12:09:40Z</time><name>PT5379</name></trkpt>
<trkpt lat="52.088997" lon="05.944666"><ele>97.5</ele><time>2024-02-22T12:09:41Z</time><name>PT5380</name></trkpt>
<trkpt lat="52.088989" lon="05.944662"><ele>97.3</ele><time>2024-02-22T12:09:42Z</time><name>PT5381</name></trkpt>
<trkpt lat="52.088979" lon="05.944657"><ele>97.1</ele><time>2024-02-22T12:09:43Z</time><name>PT5382</name></trkpt>
<trkpt lat="52.088969" lon="05.944655"><ele>97</ele><time>2024-02-22T12:09:44Z</time><name>PT5383</name></trkpt>
<trkpt lat="52.088959" lon="05.944652"><ele>97.1</ele><time>2024-02-22T12:09:45Z</time><name>PT5384</name></trkpt>
<trkpt lat="52.088950" lon="05.944652"><ele>97.1</ele><time>2024-02-22T12:09:46Z</time><name>PT5385</name></trkpt>
<trkpt lat="52.088937" lon="05.944651"><ele>97.1</ele><time>2024-02-22T12:09:47Z</time><name>PT5386</name></trkpt>
<trkpt lat="52.088926" lon="05.944647"><ele>97.3</ele><time>2024-02-22T12:09:48Z</time><name>PT5387</name></trkpt>
<trkpt lat="52.088916" lon="05.944641"><ele>97.3</ele><time>2024-02-22T12:09:49Z</time><name>PT5388</name></trkpt>
<trkpt lat="52.088906" lon="05.944637"><ele>97.4</ele><time>2024-02-22T12:09:50Z</time><name>PT5389</name></trkpt>
<trkpt lat="52.088895" lon="05.944636"><ele>97.3</ele><time>2024-02-22T12:09:51Z</time><name>PT5390</name></trkpt>
<trkpt lat="52.088882" lon="05.944634"><ele>97.3</ele><time>2024-02-22T12:09:52Z</time><name>PT5391</name></trkpt>
<trkpt lat="52.088868" lon="05.944628"><ele>97.5</ele><time>2024-02-22T12:09:53Z</time><name>PT5392</name></trkpt>
<trkpt lat="52.088857" lon="05.944627"><ele>97.6</ele><time>2024-02-22T12:09:54Z</time><name>PT5393</name></trkpt>
<trkpt lat="52.088846" lon="05.944626"><ele>97.6</ele><time>2024-02-22T12:09:55Z</time><name>PT5394</name></trkpt>
<trkpt lat="52.088835" lon="05.944622"><ele>97.6</ele><time>2024-02-22T12:09:56Z</time><name>PT5395</name></trkpt>
<trkpt lat="52.088823" lon="05.944619"><ele>97.6</ele><time>2024-02-22T12:09:57Z</time><name>PT5396</name></trkpt>
<trkpt lat="52.088812" lon="05.944615"><ele>97.6</ele><time>2024-02-22T12:09:58Z</time><name>PT5397</name></trkpt>
<trkpt lat="52.088802" lon="05.944612"><ele>97.4</ele><time>2024-02-22T12:09:59Z</time><name>PT5398</name></trkpt>
<trkpt lat="52.088790" lon="05.944612"><ele>97.6</ele><time>2024-02-22T12:10:00Z</time><name>PT5399</name></trkpt>
<trkpt lat="52.088778" lon="05.944612"><ele>97.6</ele><time>2024-02-22T12:10:01Z</time><name>PT5400</name></trkpt>
<trkpt lat="52.088767" lon="05.944608"><ele>97.6</ele><time>2024-02-22T12:10:02Z</time><name>PT5401</name></trkpt>
<trkpt lat="52.088756" lon="05.944606"><ele>97.6</ele><time>2024-02-22T12:10:03Z</time><name>PT5402</name></trkpt>
<trkpt lat="52.088745" lon="05.944602"><ele>97.8</ele><time>2024-02-22T12:10:04Z</time><name>PT5403</name></trkpt>
<trkpt lat="52.088734" lon="05.944597"><ele>97.8</ele><time>2024-02-22T12:10:05Z</time><name>PT5404</name></trkpt>
<trkpt lat="52.088723" lon="05.944593"><ele>97.7</ele><time>2024-02-22T12:10:06Z</time><name>PT5405</name></trkpt>
<trkpt lat="52.088709" lon="05.944591"><ele>97.7</ele><time>2024-02-22T12:10:07Z</time><name>PT5406</name></trkpt>
<trkpt lat="52.088696" lon="05.944587"><ele>97.8</ele><time>2024-02-22T12:10:08Z</time><name>PT5407</name></trkpt>
<trkpt lat="52.088683" lon="05.944584"><ele>97.8</ele><time>2024-02-22T12:10:09Z</time><name>PT5408</name></trkpt>
<trkpt lat="52.088670" lon="05.944583"><ele>97.9</ele><time>2024-02-22T12:10:10Z</time><name>PT5409</name></trkpt>
<trkpt lat="52.088660" lon="05.944581"><ele>97.9</ele><time>2024-02-22T12:10:11Z</time><name>PT5410</name></trkpt>
<trkpt lat="52.088651" lon="05.944580"><ele>97.7</ele><time>2024-02-22T12:10:12Z</time><name>PT5411</name></trkpt>
<trkpt lat="52.088643" lon="05.944575"><ele>97.6</ele><time>2024-02-22T12:10:13Z</time><name>PT5412</name></trkpt>
<trkpt lat="52.088634" lon="05.944573"><ele>97.6</ele><time>2024-02-22T12:10:14Z</time><name>PT5413</name></trkpt>
<trkpt lat="52.088626" lon="05.944574"><ele>97.6</ele><time>2024-02-22T12:10:15Z</time><name>PT5414</name></trkpt>
<trkpt lat="52.088617" lon="05.944568"><ele>97.6</ele><time>2024-02-22T12:10:16Z</time><name>PT5415</name></trkpt>
<trkpt lat="52.088611" lon="05.944564"><ele>97.9</ele><time>2024-02-22T12:10:17Z</time><name>PT5416</name></trkpt>
<trkpt lat="52.088600" lon="05.944565"><ele>97.9</ele><time>2024-02-22T12:10:18Z</time><name>PT5417</name></trkpt>
<trkpt lat="52.088588" lon="05.944564"><ele>98</ele><time>2024-02-22T12:10:19Z</time><name>PT5418</name></trkpt>
<trkpt lat="52.088574" lon="05.944560"><ele>97.9</ele><time>2024-02-22T12:10:20Z</time><name>PT5419</name></trkpt>
<trkpt lat="52.088564" lon="05.944556"><ele>97.8</ele><time>2024-02-22T12:10:21Z</time><name>PT5420</name></trkpt>
<trkpt lat="52.088553" lon="05.944552"><ele>97.7</ele><time>2024-02-22T12:10:22Z</time><name>PT5421</name></trkpt>
<trkpt lat="52.088541" lon="05.944548"><ele>97.7</ele><time>2024-02-22T12:10:23Z</time><name>PT5422</name></trkpt>
<trkpt lat="52.088529" lon="05.944545"><ele>97.7</ele><time>2024-02-22T12:10:24Z</time><name>PT5423</name></trkpt>
<trkpt lat="52.088518" lon="05.944543"><ele>97.8</ele><time>2024-02-22T12:10:25Z</time><name>PT5424</name></trkpt>
<trkpt lat="52.088507" lon="05.944542"><ele>98</ele><time>2024-02-22T12:10:26Z</time><name>PT5425</name></trkpt>
<trkpt lat="52.088495" lon="05.944539"><ele>97.8</ele><time>2024-02-22T12:10:27Z</time><name>PT5426</name></trkpt>
<trkpt lat="52.088485" lon="05.944537"><ele>97.6</ele><time>2024-02-22T12:10:28Z</time><name>PT5427</name></trkpt>
<trkpt lat="52.088474" lon="05.944534"><ele>97.6</ele><time>2024-02-22T12:10:29Z</time><name>PT5428</name></trkpt>
<trkpt lat="52.088464" lon="05.944532"><ele>97.7</ele><time>2024-02-22T12:10:30Z</time><name>PT5429</name></trkpt>
<trkpt lat="52.088455" lon="05.944529"><ele>97.8</ele><time>2024-02-22T12:10:31Z</time><name>PT5430</name></trkpt>
<trkpt lat="52.088444" lon="05.944525"><ele>97.8</ele><time>2024-02-22T12:10:32Z</time><name>PT5431</name></trkpt>
<trkpt lat="52.088433" lon="05.944526"><ele>97.8</ele><time>2024-02-22T12:10:33Z</time><name>PT5432</name></trkpt>
<trkpt lat="52.088423" lon="05.944526"><ele>97.7</ele><time>2024-02-22T12:10:34Z</time><name>PT5433</name></trkpt>
<trkpt lat="52.088412" lon="05.944530"><ele>97.6</ele><time>2024-02-22T12:10:35Z</time><name>PT5434</name></trkpt>
<trkpt lat="52.088402" lon="05.944533"><ele>97.6</ele><time>2024-02-22T12:10:36Z</time><name>PT5435</name></trkpt>
<trkpt lat="52.088390" lon="05.944532"><ele>97.6</ele><time>2024-02-22T12:10:37Z</time><name>PT5436</name></trkpt>
<trkpt lat="52.088377" lon="05.944528"><ele>97.6</ele><time>2024-02-22T12:10:38Z</time><name>PT5437</name></trkpt>
<trkpt lat="52.088368" lon="05.944524"><ele>97.6</ele><time>2024-02-22T12:10:39Z</time><name>PT5438</name></trkpt>
<trkpt lat="52.088355" lon="05.944521"><ele>97.7</ele><time>2024-02-22T12:10:40Z</time><name>PT5439</name></trkpt>
<trkpt lat="52.088343" lon="05.944520"><ele>97.7</ele><time>2024-02-22T12:10:41Z</time><name>PT5440</name></trkpt>
<trkpt lat="52.088330" lon="05.944516"><ele>98.1</ele><time>2024-02-22T12:10:42Z</time><name>PT5441</name></trkpt>
<trkpt lat="52.088320" lon="05.944515"><ele>98.2</ele><time>2024-02-22T12:10:43Z</time><name>PT5442</name></trkpt>
<trkpt lat="52.088308" lon="05.944513"><ele>98.2</ele><time>2024-02-22T12:10:44Z</time><name>PT5443</name></trkpt>
<trkpt lat="52.088295" lon="05.944509"><ele>98.2</ele><time>2024-02-22T12:10:45Z</time><name>PT5444</name></trkpt>
<trkpt lat="52.088282" lon="05.944507"><ele>98.1</ele><time>2024-02-22T12:10:46Z</time><name>PT5445</name></trkpt>
<trkpt lat="52.088271" lon="05.944506"><ele>97.9</ele><time>2024-02-22T12:10:47Z</time><name>PT5446</name></trkpt>
<trkpt lat="52.088259" lon="05.944504"><ele>97.9</ele><time>2024-02-22T12:10:48Z</time><name>PT5447</name></trkpt>
<trkpt lat="52.088246" lon="05.944503"><ele>97.8</ele><time>2024-02-22T12:10:49Z</time><name>PT5448</name></trkpt>
<trkpt lat="52.088235" lon="05.944503"><ele>97.7</ele><time>2024-02-22T12:10:50Z</time><name>PT5449</name></trkpt>
<trkpt lat="52.088224" lon="05.944499"><ele>97.8</ele><time>2024-02-22T12:10:51Z</time><name>PT5450</name></trkpt>
<trkpt lat="52.088211" lon="05.944493"><ele>97.9</ele><time>2024-02-22T12:10:52Z</time><name>PT5451</name></trkpt>
<trkpt lat="52.088199" lon="05.944491"><ele>97.9</ele><time>2024-02-22T12:10:53Z</time><name>PT5452</name></trkpt>
<trkpt lat="52.088189" lon="05.944490"><ele>98</ele><time>2024-02-22T12:10:54Z</time><name>PT5453</name></trkpt>
<trkpt lat="52.088177" lon="05.944490"><ele>98.1</ele><time>2024-02-22T12:10:55Z</time><name>PT5454</name></trkpt>
<trkpt lat="52.088166" lon="05.944491"><ele>98</ele><time>2024-02-22T12:10:56Z</time><name>PT5455</name></trkpt>
<trkpt lat="52.088156" lon="05.944488"><ele>98</ele><time>2024-02-22T12:10:57Z</time><name>PT5456</name></trkpt>
<trkpt lat="52.088144" lon="05.944485"><ele>98.1</ele><time>2024-02-22T12:10:58Z</time><name>PT5457</name></trkpt>
<trkpt lat="52.088132" lon="05.944483"><ele>98.1</ele><time>2024-02-22T12:10:59Z</time><name>PT5458</name></trkpt>
<trkpt lat="52.088122" lon="05.944480"><ele>98.2</ele><time>2024-02-22T12:11:00Z</time><name>PT5459</name></trkpt>
<trkpt lat="52.088114" lon="05.944478"><ele>98.2</ele><time>2024-02-22T12:11:01Z</time><name>PT5460</name></trkpt>
<trkpt lat="52.088103" lon="05.944474"><ele>98.2</ele><time>2024-02-22T12:11:02Z</time><name>PT5461</name></trkpt>
<trkpt lat="52.088092" lon="05.944469"><ele>98.3</ele><time>2024-02-22T12:11:03Z</time><name>PT5462</name></trkpt>
<trkpt lat="52.088081" lon="05.944467"><ele>98.1</ele><time>2024-02-22T12:11:04Z</time><name>PT5463</name></trkpt>
<trkpt lat="52.088071" lon="05.944466"><ele>98.1</ele><time>2024-02-22T12:11:05Z</time><name>PT5464</name></trkpt>
<trkpt lat="52.088062" lon="05.944464"><ele>98</ele><time>2024-02-22T12:11:06Z</time><name>PT5465</name></trkpt>
<trkpt lat="52.088054" lon="05.944462"><ele>98</ele><time>2024-02-22T12:11:07Z</time><name>PT5466</name></trkpt>
<trkpt lat="52.088047" lon="05.944457"><ele>98.1</ele><time>2024-02-22T12:11:08Z</time><name>PT5467</name></trkpt>
<trkpt lat="52.088039" lon="05.944453"><ele>98.2</ele><time>2024-02-22T12:11:09Z</time><name>PT5468</name></trkpt>
<trkpt lat="52.088031" lon="05.944449"><ele>98.3</ele><time>2024-02-22T12:11:10Z</time><name>PT5469</name></trkpt>
<trkpt lat="52.088021" lon="05.944445"><ele>98.4</ele><time>2024-02-22T12:11:11Z</time><name>PT5470</name></trkpt>
<trkpt lat="52.088012" lon="05.944441"><ele>98.3</ele><time>2024-02-22T12:11:12Z</time><name>PT5471</name></trkpt>
<trkpt lat="52.088003" lon="05.944437"><ele>98.5</ele><time>2024-02-22T12:11:13Z</time><name>PT5472</name></trkpt>
<trkpt lat="52.087994" lon="05.944433"><ele>98.3</ele><time>2024-02-22T12:11:14Z</time><name>PT5473</name></trkpt>
<trkpt lat="52.087985" lon="05.944429"><ele>98.4</ele><time>2024-02-22T12:11:15Z</time><name>PT5474</name></trkpt>
<trkpt lat="52.087976" lon="05.944427"><ele>98.3</ele><time>2024-02-22T12:11:16Z</time><name>PT5475</name></trkpt>
<trkpt lat="52.087968" lon="05.944426"><ele>98.2</ele><time>2024-02-22T12:11:17Z</time><name>PT5476</name></trkpt>
<trkpt lat="52.087961" lon="05.944423"><ele>98.2</ele><time>2024-02-22T12:11:18Z</time><name>PT5477</name></trkpt>
<trkpt lat="52.087950" lon="05.944419"><ele>98</ele><time>2024-02-22T12:11:19Z</time><name>PT5478</name></trkpt>
<trkpt lat="52.087940" lon="05.944419"><ele>97.8</ele><time>2024-02-22T12:11:20Z</time><name>PT5479</name></trkpt>
<trkpt lat="52.087932" lon="05.944417"><ele>97.7</ele><time>2024-02-22T12:11:21Z</time><name>PT5480</name></trkpt>
<trkpt lat="52.087926" lon="05.944413"><ele>97.8</ele><time>2024-02-22T12:11:22Z</time><name>PT5481</name></trkpt>
<trkpt lat="52.087918" lon="05.944409"><ele>97.6</ele><time>2024-02-22T12:11:23Z</time><name>PT5482</name></trkpt>
<trkpt lat="52.087911" lon="05.944406"><ele>97.7</ele><time>2024-02-22T12:11:24Z</time><name>PT5483</name></trkpt>
<trkpt lat="52.087901" lon="05.944399"><ele>97.7</ele><time>2024-02-22T12:11:25Z</time><name>PT5484</name></trkpt>
<trkpt lat="52.087892" lon="05.944396"><ele>97.6</ele><time>2024-02-22T12:11:26Z</time><name>PT5485</name></trkpt>
<trkpt lat="52.087883" lon="05.944393"><ele>97.4</ele><time>2024-02-22T12:11:27Z</time><name>PT5486</name></trkpt>
<trkpt lat="52.087875" lon="05.944393"><ele>97.5</ele><time>2024-02-22T12:11:28Z</time><name>PT5487</name></trkpt>
<trkpt lat="52.087865" lon="05.944392"><ele>97.5</ele><time>2024-02-22T12:11:29Z</time><name>PT5488</name></trkpt>
<trkpt lat="52.087858" lon="05.944394"><ele>97.5</ele><time>2024-02-22T12:11:30Z</time><name>PT5489</name></trkpt>
<trkpt lat="52.087849" lon="05.944393"><ele>97.6</ele><time>2024-02-22T12:11:31Z</time><name>PT5490</name></trkpt>
<trkpt lat="52.087837" lon="05.944386"><ele>97.6</ele><time>2024-02-22T12:11:32Z</time><name>PT5491</name></trkpt>
<trkpt lat="52.087825" lon="05.944384"><ele>97.5</ele><time>2024-02-22T12:11:33Z</time><name>PT5492</name></trkpt>
<trkpt lat="52.087814" lon="05.944380"><ele>97.3</ele><time>2024-02-22T12:11:34Z</time><name>PT5493</name></trkpt>
<trkpt lat="52.087801" lon="05.944378"><ele>97.2</ele><time>2024-02-22T12:11:35Z</time><name>PT5494</name></trkpt>
<trkpt lat="52.087790" lon="05.944377"><ele>97.2</ele><time>2024-02-22T12:11:36Z</time><name>PT5495</name></trkpt>
<trkpt lat="52.087779" lon="05.944376"><ele>97.2</ele><time>2024-02-22T12:11:37Z</time><name>PT5496</name></trkpt>
<trkpt lat="52.087769" lon="05.944375"><ele>97.3</ele><time>2024-02-22T12:11:38Z</time><name>PT5497</name></trkpt>
<trkpt lat="52.087758" lon="05.944373"><ele>97.3</ele><time>2024-02-22T12:11:39Z</time><name>PT5498</name></trkpt>
<trkpt lat="52.087747" lon="05.944366"><ele>97.3</ele><time>2024-02-22T12:11:40Z</time><name>PT5499</name></trkpt>
<trkpt lat="52.087736" lon="05.944361"><ele>97.3</ele><time>2024-02-22T12:11:41Z</time><name>PT5500</name></trkpt>
<trkpt lat="52.087725" lon="05.944358"><ele>97.2</ele><time>2024-02-22T12:11:42Z</time><name>PT5501</name></trkpt>
<trkpt lat="52.087714" lon="05.944356"><ele>97.1</ele><time>2024-02-22T12:11:43Z</time><name>PT5502</name></trkpt>
<trkpt lat="52.087706" lon="05.944355"><ele>97.1</ele><time>2024-02-22T12:11:44Z</time><name>PT5503</name></trkpt>
<trkpt lat="52.087697" lon="05.944352"><ele>97.3</ele><time>2024-02-22T12:11:45Z</time><name>PT5504</name></trkpt>
<trkpt lat="52.087686" lon="05.944350"><ele>97.4</ele><time>2024-02-22T12:11:46Z</time><name>PT5505</name></trkpt>
<trkpt lat="52.087676" lon="05.944347"><ele>97.5</ele><time>2024-02-22T12:11:47Z</time><name>PT5506</name></trkpt>
<trkpt lat="52.087670" lon="05.944344"><ele>97.6</ele><time>2024-02-22T12:11:48Z</time><name>PT5507</name></trkpt>
<trkpt lat="52.087660" lon="05.944347"><ele>97.4</ele><time>2024-02-22T12:11:49Z</time><name>PT5508</name></trkpt>
<trkpt lat="52.087651" lon="05.944348"><ele>97.3</ele><time>2024-02-22T12:11:50Z</time><name>PT5509</name></trkpt>
<trkpt lat="52.087636" lon="05.944346"><ele>97.3</ele><time>2024-02-22T12:11:51Z</time><name>PT5510</name></trkpt>
<trkpt lat="52.087624" lon="05.944343"><ele>97.2</ele><time>2024-02-22T12:11:52Z</time><name>PT5511</name></trkpt>
<trkpt lat="52.087615" lon="05.944342"><ele>97.3</ele><time>2024-02-22T12:11:53Z</time><name>PT5512</name></trkpt>
<trkpt lat="52.087604" lon="05.944342"><ele>97.4</ele><time>2024-02-22T12:11:54Z</time><name>PT5513</name></trkpt>
<trkpt lat="52.087596" lon="05.944341"><ele>97.4</ele><time>2024-02-22T12:11:55Z</time><name>PT5514</name></trkpt>
<trkpt lat="52.087584" lon="05.944339"><ele>97.4</ele><time>2024-02-22T12:11:56Z</time><name>PT5515</name></trkpt>
<trkpt lat="52.087575" lon="05.944335"><ele>97.6</ele><time>2024-02-22T12:11:57Z</time><name>PT5516</name></trkpt>
<trkpt lat="52.087567" lon="05.944331"><ele>97.6</ele><time>2024-02-22T12:11:58Z</time><name>PT5517</name></trkpt>
<trkpt lat="52.087558" lon="05.944329"><ele>97.6</ele><time>2024-02-22T12:11:59Z</time><name>PT5518</name></trkpt>
<trkpt lat="52.087548" lon="05.944329"><ele>97.6</ele><time>2024-02-22T12:12:00Z</time><name>PT5519</name></trkpt>
<trkpt lat="52.087537" lon="05.944328"><ele>97.2</ele><time>2024-02-22T12:12:01Z</time><name>PT5520</name></trkpt>
<trkpt lat="52.087530" lon="05.944331"><ele>97.2</ele><time>2024-02-22T12:12:02Z</time><name>PT5521</name></trkpt>
<trkpt lat="52.087523" lon="05.944333"><ele>97.1</ele><time>2024-02-22T12:12:03Z</time><name>PT5522</name></trkpt>
<trkpt lat="52.087516" lon="05.944326"><ele>97</ele><time>2024-02-22T12:12:04Z</time><name>PT5523</name></trkpt>
<trkpt lat="52.087509" lon="05.944322"><ele>97.1</ele><time>2024-02-22T12:12:05Z</time><name>PT5524</name></trkpt>
<trkpt lat="52.087502" lon="05.944325"><ele>97.1</ele><time>2024-02-22T12:12:06Z</time><name>PT5525</name></trkpt>
<trkpt lat="52.087504" lon="05.944329"><ele>97.2</ele><time>2024-02-22T12:12:07Z</time><name>PT5526</name></trkpt>
<trkpt lat="52.087495" lon="05.944328"><ele>97.2</ele><time>2024-02-22T12:12:08Z</time><name>PT5527</name></trkpt>
<trkpt lat="52.087478" lon="05.944318"><ele>97.1</ele><time>2024-02-22T12:12:09Z</time><name>PT5528</name></trkpt>
<trkpt lat="52.087467" lon="05.944315"><ele>97.1</ele><time>2024-02-22T12:12:10Z</time><name>PT5529</name></trkpt>
<trkpt lat="52.087455" lon="05.944314"><ele>97.1</ele><time>2024-02-22T12:12:11Z</time><name>PT5530</name></trkpt>
<trkpt lat="52.087447" lon="05.944310"><ele>97.1</ele><time>2024-02-22T12:12:12Z</time><name>PT5531</name></trkpt>
<trkpt lat="52.087435" lon="05.944308"><ele>97.1</ele><time>2024-02-22T12:12:13Z</time><name>PT5532</name></trkpt>
<trkpt lat="52.087422" lon="05.944303"><ele>97.1</ele><time>2024-02-22T12:12:14Z</time><name>PT5533</name></trkpt>
<trkpt lat="52.087413" lon="05.944293"><ele>97.1</ele><time>2024-02-22T12:12:15Z</time><name>PT5534</name></trkpt>
<trkpt lat="52.087402" lon="05.944288"><ele>97.3</ele><time>2024-02-22T12:12:16Z</time><name>PT5535</name></trkpt>
<trkpt lat="52.087390" lon="05.944281"><ele>97.2</ele><time>2024-02-22T12:12:17Z</time><name>PT5536</name></trkpt>
<trkpt lat="52.087383" lon="05.944275"><ele>97.1</ele><time>2024-02-22T12:12:18Z</time><name>PT5537</name></trkpt>
<trkpt lat="52.087374" lon="05.944268"><ele>97.1</ele><time>2024-02-22T12:12:19Z</time><name>PT5538</name></trkpt>
<trkpt lat="52.087363" lon="05.944266"><ele>97</ele><time>2024-02-22T12:12:20Z</time><name>PT5539</name></trkpt>
<trkpt lat="52.087354" lon="05.944264"><ele>97</ele><time>2024-02-22T12:12:21Z</time><name>PT5540</name></trkpt>
<trkpt lat="52.087341" lon="05.944261"><ele>97</ele><time>2024-02-22T12:12:22Z</time><name>PT5541</name></trkpt>
<trkpt lat="52.087330" lon="05.944256"><ele>97</ele><time>2024-02-22T12:12:23Z</time><name>PT5542</name></trkpt>
<trkpt lat="52.087319" lon="05.944249"><ele>97.1</ele><time>2024-02-22T12:12:24Z</time><name>PT5543</name></trkpt>
<trkpt lat="52.087308" lon="05.944242"><ele>97.2</ele><time>2024-02-22T12:12:25Z</time><name>PT5544</name></trkpt>
<trkpt lat="52.087298" lon="05.944239"><ele>97.1</ele><time>2024-02-22T12:12:26Z</time><name>PT5545</name></trkpt>
<trkpt lat="52.087290" lon="05.944237"><ele>97.4</ele><time>2024-02-22T12:12:27Z</time><name>PT5546</name></trkpt>
<trkpt lat="52.087276" lon="05.944235"><ele>97.6</ele><time>2024-02-22T12:12:28Z</time><name>PT5547</name></trkpt>
<trkpt lat="52.087268" lon="05.944233"><ele>97.6</ele><time>2024-02-22T12:12:29Z</time><name>PT5548</name></trkpt>
<trkpt lat="52.087260" lon="05.944229"><ele>97.6</ele><time>2024-02-22T12:12:30Z</time><name>PT5549</name></trkpt>
<trkpt lat="52.087255" lon="05.944227"><ele>97.7</ele><time>2024-02-22T12:12:31Z</time><name>PT5550</name></trkpt>
<trkpt lat="52.087245" lon="05.944222"><ele>97.8</ele><time>2024-02-22T12:12:32Z</time><name>PT5551</name></trkpt>
<trkpt lat="52.087233" lon="05.944215"><ele>97.6</ele><time>2024-02-22T12:12:33Z</time><name>PT5552</name></trkpt>
<trkpt lat="52.087224" lon="05.944212"><ele>97.6</ele><time>2024-02-22T12:12:34Z</time><name>PT5553</name></trkpt>
<trkpt lat="52.087210" lon="05.944208"><ele>97.6</ele><time>2024-02-22T12:12:35Z</time><name>PT5554</name></trkpt>
<trkpt lat="52.087196" lon="05.944205"><ele>97.6</ele><time>2024-02-22T12:12:36Z</time><name>PT5555</name></trkpt>
<trkpt lat="52.087183" lon="05.944204"><ele>97.7</ele><time>2024-02-22T12:12:37Z</time><name>PT5556</name></trkpt>
<trkpt lat="52.087170" lon="05.944201"><ele>97.7</ele><time>2024-02-22T12:12:38Z</time><name>PT5557</name></trkpt>
<trkpt lat="52.087158" lon="05.944201"><ele>97.6</ele><time>2024-02-22T12:12:39Z</time><name>PT5558</name></trkpt>
<trkpt lat="52.087147" lon="05.944194"><ele>97.6</ele><time>2024-02-22T12:12:40Z</time><name>PT5559</name></trkpt>
<trkpt lat="52.087137" lon="05.944191"><ele>97.6</ele><time>2024-02-22T12:12:41Z</time><name>PT5560</name></trkpt>
<trkpt lat="52.087125" lon="05.944188"><ele>97.6</ele><time>2024-02-22T12:12:42Z</time><name>PT5561</name></trkpt>
<trkpt lat="52.087111" lon="05.944185"><ele>97.6</ele><time>2024-02-22T12:12:43Z</time><name>PT5562</name></trkpt>
<trkpt lat="52.087102" lon="05.944183"><ele>97.6</ele><time>2024-02-22T12:12:44Z</time><name>PT5563</name></trkpt>
<trkpt lat="52.087090" lon="05.944182"><ele>97.6</ele><time>2024-02-22T12:12:45Z</time><name>PT5564</name></trkpt>
<trkpt lat="52.087077" lon="05.944176"><ele>97.6</ele><time>2024-02-22T12:12:46Z</time><name>PT5565</name></trkpt>
<trkpt lat="52.087064" lon="05.944170"><ele>97.6</ele><time>2024-02-22T12:12:47Z</time><name>PT5566</name></trkpt>
<trkpt lat="52.087053" lon="05.944164"><ele>97.6</ele><time>2024-02-22T12:12:48Z</time><name>PT5567</name></trkpt>
<trkpt lat="52.087042" lon="05.944157"><ele>97.6</ele><time>2024-02-22T12:12:49Z</time><name>PT5568</name></trkpt>
<trkpt lat="52.087031" lon="05.944155"><ele>97.7</ele><time>2024-02-22T12:12:50Z</time><name>PT5569</name></trkpt>
<trkpt lat="52.087017" lon="05.944150"><ele>97.5</ele><time>2024-02-22T12:12:51Z</time><name>PT5570</name></trkpt>
<trkpt lat="52.087008" lon="05.944147"><ele>97.4</ele><time>2024-02-22T12:12:52Z</time><name>PT5571</name></trkpt>
<trkpt lat="52.086998" lon="05.944146"><ele>97.3</ele><time>2024-02-22T12:12:53Z</time><name>PT5572</name></trkpt>
<trkpt lat="52.086987" lon="05.944143"><ele>97.2</ele><time>2024-02-22T12:12:54Z</time><name>PT5573</name></trkpt>
<trkpt lat="52.086977" lon="05.944140"><ele>97.3</ele><time>2024-02-22T12:12:55Z</time><name>PT5574</name></trkpt>
<trkpt lat="52.086969" lon="05.944137"><ele>97.2</ele><time>2024-02-22T12:12:56Z</time><name>PT5575</name></trkpt>
<trkpt lat="52.086955" lon="05.944132"><ele>97.3</ele><time>2024-02-22T12:12:57Z</time><name>PT5576</name></trkpt>
<trkpt lat="52.086944" lon="05.944129"><ele>97.3</ele><time>2024-02-22T12:12:58Z</time><name>PT5577</name></trkpt>
<trkpt lat="52.086938" lon="05.944138"><ele>97.4</ele><time>2024-02-22T12:12:59Z</time><name>PT5578</name></trkpt>
<trkpt lat="52.086929" lon="05.944139"><ele>97.5</ele><time>2024-02-22T12:13:00Z</time><name>PT5579</name></trkpt>
<trkpt lat="52.086919" lon="05.944139"><ele>97.4</ele><time>2024-02-22T12:13:01Z</time><name>PT5580</name></trkpt>
<trkpt lat="52.086910" lon="05.944135"><ele>97.4</ele><time>2024-02-22T12:13:02Z</time><name>PT5581</name></trkpt>
<trkpt lat="52.086900" lon="05.944132"><ele>97.2</ele><time>2024-02-22T12:13:03Z</time><name>PT5582</name></trkpt>
<trkpt lat="52.086888" lon="05.944130"><ele>97.1</ele><time>2024-02-22T12:13:04Z</time><name>PT5583</name></trkpt>
<trkpt lat="52.086879" lon="05.944128"><ele>97.1</ele><time>2024-02-22T12:13:05Z</time><name>PT5584</name></trkpt>
<trkpt lat="52.086867" lon="05.944125"><ele>97.2</ele><time>2024-02-22T12:13:06Z</time><name>PT5585</name></trkpt>
<trkpt lat="52.086855" lon="05.944123"><ele>97.5</ele><time>2024-02-22T12:13:07Z</time><name>PT5586</name></trkpt>
<trkpt lat="52.086844" lon="05.944122"><ele>97.4</ele><time>2024-02-22T12:13:08Z</time><name>PT5587</name></trkpt>
<trkpt lat="52.086833" lon="05.944119"><ele>97.4</ele><time>2024-02-22T12:13:09Z</time><name>PT5588</name></trkpt>
<trkpt lat="52.086825" lon="05.944114"><ele>97.4</ele><time>2024-02-22T12:13:10Z</time><name>PT5589</name></trkpt>
<trkpt lat="52.086819" lon="05.944112"><ele>97.4</ele><time>2024-02-22T12:13:11Z</time><name>PT5590</name></trkpt>
<trkpt lat="52.086811" lon="05.944110"><ele>97.4</ele><time>2024-02-22T12:13:12Z</time><name>PT5591</name></trkpt>
<trkpt lat="52.086801" lon="05.944107"><ele>97.3</ele><time>2024-02-22T12:13:13Z</time><name>PT5592</name></trkpt>
<trkpt lat="52.086790" lon="05.944106"><ele>97.1</ele><time>2024-02-22T12:13:14Z</time><name>PT5593</name></trkpt>
<trkpt lat="52.086781" lon="05.944106"><ele>97.1</ele><time>2024-02-22T12:13:15Z</time><name>PT5594</name></trkpt>
<trkpt lat="52.086771" lon="05.944106"><ele>97.1</ele><time>2024-02-22T12:13:16Z</time><name>PT5595</name></trkpt>
<trkpt lat="52.086760" lon="05.944105"><ele>97.1</ele><time>2024-02-22T12:13:17Z</time><name>PT5596</name></trkpt>
<trkpt lat="52.086749" lon="05.944105"><ele>97.2</ele><time>2024-02-22T12:13:18Z</time><name>PT5597</name></trkpt>
<trkpt lat="52.086740" lon="05.944105"><ele>97.2</ele><time>2024-02-22T12:13:19Z</time><name>PT5598</name></trkpt>
<trkpt lat="52.086728" lon="05.944105"><ele>97.2</ele><time>2024-02-22T12:13:20Z</time><name>PT5599</name></trkpt>
<trkpt lat="52.086717" lon="05.944105"><ele>97.2</ele><time>2024-02-22T12:13:21Z</time><name>PT5600</name></trkpt>
<trkpt lat="52.086709" lon="05.944104"><ele>97.1</ele><time>2024-02-22T12:13:22Z</time><name>PT5601</name></trkpt>
<trkpt lat="52.086700" lon="05.944101"><ele>97.2</ele><time>2024-02-22T12:13:23Z</time><name>PT5602</name></trkpt>
<trkpt lat="52.086688" lon="05.944100"><ele>97.2</ele><time>2024-02-22T12:13:24Z</time><name>PT5603</name></trkpt>
<trkpt lat="52.086677" lon="05.944099"><ele>97.4</ele><time>2024-02-22T12:13:25Z</time><name>PT5604</name></trkpt>
<trkpt lat="52.086669" lon="05.944094"><ele>97.4</ele><time>2024-02-22T12:13:26Z</time><name>PT5605</name></trkpt>
<trkpt lat="52.086656" lon="05.944089"><ele>97.5</ele><time>2024-02-22T12:13:27Z</time><name>PT5606</name></trkpt>
<trkpt lat="52.086647" lon="05.944086"><ele>97.6</ele><time>2024-02-22T12:13:28Z</time><name>PT5607</name></trkpt>
<trkpt lat="52.086628" lon="05.944080"><ele>97.5</ele><time>2024-02-22T12:13:29Z</time><name>PT5608</name></trkpt>
<trkpt lat="52.086615" lon="05.944077"><ele>97.5</ele><time>2024-02-22T12:13:30Z</time><name>PT5609</name></trkpt>
<trkpt lat="52.086604" lon="05.944075"><ele>97.5</ele><time>2024-02-22T12:13:31Z</time><name>PT5610</name></trkpt>
<trkpt lat="52.086592" lon="05.944073"><ele>97.4</ele><time>2024-02-22T12:13:32Z</time><name>PT5611</name></trkpt>
<trkpt lat="52.086581" lon="05.944072"><ele>97.5</ele><time>2024-02-22T12:13:33Z</time><name>PT5612</name></trkpt>
<trkpt lat="52.086572" lon="05.944074"><ele>97.4</ele><time>2024-02-22T12:13:34Z</time><name>PT5613</name></trkpt>
<trkpt lat="52.086561" lon="05.944074"><ele>97.4</ele><time>2024-02-22T12:13:35Z</time><name>PT5614</name></trkpt>
<trkpt lat="52.086550" lon="05.944073"><ele>97.5</ele><time>2024-02-22T12:13:36Z</time><name>PT5615</name></trkpt>
<trkpt lat="52.086537" lon="05.944070"><ele>97.6</ele><time>2024-02-22T12:13:37Z</time><name>PT5616</name></trkpt>
<trkpt lat="52.086526" lon="05.944068"><ele>97.5</ele><time>2024-02-22T12:13:38Z</time><name>PT5617</name></trkpt>
<trkpt lat="52.086519" lon="05.944067"><ele>97.6</ele><time>2024-02-22T12:13:39Z</time><name>PT5618</name></trkpt>
<trkpt lat="52.086506" lon="05.944063"><ele>97.5</ele><time>2024-02-22T12:13:40Z</time><name>PT5619</name></trkpt>
<trkpt lat="52.086493" lon="05.944061"><ele>97.5</ele><time>2024-02-22T12:13:41Z</time><name>PT5620</name></trkpt>
<trkpt lat="52.086481" lon="05.944061"><ele>97.5</ele><time>2024-02-22T12:13:42Z</time><name>PT5621</name></trkpt>
<trkpt lat="52.086470" lon="05.944060"><ele>97.3</ele><time>2024-02-22T12:13:43Z</time><name>PT5622</name></trkpt>
<trkpt lat="52.086459" lon="05.944058"><ele>97.3</ele><time>2024-02-22T12:13:44Z</time><name>PT5623</name></trkpt>
<trkpt lat="52.086462" lon="05.944054"><ele>97.3</ele><time>2024-02-22T12:13:45Z</time><name>PT5624</name></trkpt>
<trkpt lat="52.086456" lon="05.944050"><ele>97.1</ele><time>2024-02-22T12:13:46Z</time><name>PT5625</name></trkpt>
<trkpt lat="52.086445" lon="05.944046"><ele>97.1</ele><time>2024-02-22T12:13:47Z</time><name>PT5626</name></trkpt>
<trkpt lat="52.086436" lon="05.944043"><ele>97.1</ele><time>2024-02-22T12:13:48Z</time><name>PT5627</name></trkpt>
<trkpt lat="52.086426" lon="05.944043"><ele>96.9</ele><time>2024-02-22T12:13:49Z</time><name>PT5628</name></trkpt>
<trkpt lat="52.086417" lon="05.944041"><ele>96.9</ele><time>2024-02-22T12:13:50Z</time><name>PT5629</name></trkpt>
<trkpt lat="52.086404" lon="05.944040"><ele>96.6</ele><time>2024-02-22T12:13:51Z</time><name>PT5630</name></trkpt>
<trkpt lat="52.086392" lon="05.944040"><ele>96.6</ele><time>2024-02-22T12:13:52Z</time><name>PT5631</name></trkpt>
<trkpt lat="52.086379" lon="05.944034"><ele>96.6</ele><time>2024-02-22T12:13:53Z</time><name>PT5632</name></trkpt>
<trkpt lat="52.086370" lon="05.944032"><ele>96.6</ele><time>2024-02-22T12:13:54Z</time><name>PT5633</name></trkpt>
<trkpt lat="52.086358" lon="05.944031"><ele>96.8</ele><time>2024-02-22T12:13:55Z</time><name>PT5634</name></trkpt>
<trkpt lat="52.086346" lon="05.944027"><ele>96.8</ele><time>2024-02-22T12:13:56Z</time><name>PT5635</name></trkpt>
<trkpt lat="52.086335" lon="05.944025"><ele>96.9</ele><time>2024-02-22T12:13:57Z</time><name>PT5636</name></trkpt>
<trkpt lat="52.086328" lon="05.944023"><ele>96.9</ele><time>2024-02-22T12:13:58Z</time><name>PT5637</name></trkpt>
<trkpt lat="52.086317" lon="05.944020"><ele>96.8</ele><time>2024-02-22T12:13:59Z</time><name>PT5638</name></trkpt>
<trkpt lat="52.086304" lon="05.944018"><ele>96.9</ele><time>2024-02-22T12:14:00Z</time><name>PT5639</name></trkpt>
<trkpt lat="52.086292" lon="05.944016"><ele>96.9</ele><time>2024-02-22T12:14:01Z</time><name>PT5640</name></trkpt>
<trkpt lat="52.086283" lon="05.944013"><ele>96.9</ele><time>2024-02-22T12:14:02Z</time><name>PT5641</name></trkpt>
<trkpt lat="52.086270" lon="05.944010"><ele>97.1</ele><time>2024-02-22T12:14:03Z</time><name>PT5642</name></trkpt>
<trkpt lat="52.086260" lon="05.944006"><ele>97</ele><time>2024-02-22T12:14:04Z</time><name>PT5643</name></trkpt>
<trkpt lat="52.086248" lon="05.944002"><ele>97.1</ele><time>2024-02-22T12:14:05Z</time><name>PT5644</name></trkpt>
<trkpt lat="52.086237" lon="05.943999"><ele>97.1</ele><time>2024-02-22T12:14:06Z</time><name>PT5645</name></trkpt>
<trkpt lat="52.086223" lon="05.943995"><ele>97.4</ele><time>2024-02-22T12:14:07Z</time><name>PT5646</name></trkpt>
<trkpt lat="52.086211" lon="05.943990"><ele>97.6</ele><time>2024-02-22T12:14:08Z</time><name>PT5647</name></trkpt>
<trkpt lat="52.086199" lon="05.943985"><ele>97.6</ele><time>2024-02-22T12:14:09Z</time><name>PT5648</name></trkpt>
<trkpt lat="52.086185" lon="05.943983"><ele>97.6</ele><time>2024-02-22T12:14:10Z</time><name>PT5649</name></trkpt>
<trkpt lat="52.086171" lon="05.943981"><ele>97.5</ele><time>2024-02-22T12:14:11Z</time><name>PT5650</name></trkpt>
<trkpt lat="52.086157" lon="05.943973"><ele>97.1</ele><time>2024-02-22T12:14:12Z</time><name>PT5651</name></trkpt>
<trkpt lat="52.086144" lon="05.943968"><ele>97.1</ele><time>2024-02-22T12:14:13Z</time><name>PT5652</name></trkpt>
<trkpt lat="52.086132" lon="05.943968"><ele>97</ele><time>2024-02-22T12:14:14Z</time><name>PT5653</name></trkpt>
<trkpt lat="52.086120" lon="05.943964"><ele>97.1</ele><time>2024-02-22T12:14:15Z</time><name>PT5654</name></trkpt>
<trkpt lat="52.086108" lon="05.943957"><ele>97.2</ele><time>2024-02-22T12:14:16Z</time><name>PT5655</name></trkpt>
<trkpt lat="52.086096" lon="05.943949"><ele>97.1</ele><time>2024-02-22T12:14:17Z</time><name>PT5656</name></trkpt>
<trkpt lat="52.086085" lon="05.943948"><ele>97.1</ele><time>2024-02-22T12:14:18Z</time><name>PT5657</name></trkpt>
<trkpt lat="52.086074" lon="05.943947"><ele>97</ele><time>2024-02-22T12:14:19Z</time><name>PT5658</name></trkpt>
<trkpt lat="52.086062" lon="05.943947"><ele>97</ele><time>2024-02-22T12:14:20Z</time><name>PT5659</name></trkpt>
<trkpt lat="52.086054" lon="05.943946"><ele>96.9</ele><time>2024-02-22T12:14:21Z</time><name>PT5660</name></trkpt>
<trkpt lat="52.086046" lon="05.943944"><ele>96.9</ele><time>2024-02-22T12:14:22Z</time><name>PT5661</name></trkpt>
<trkpt lat="52.086036" lon="05.943940"><ele>97</ele><time>2024-02-22T12:14:23Z</time><name>PT5662</name></trkpt>
<trkpt lat="52.086027" lon="05.943937"><ele>97.3</ele><time>2024-02-22T12:14:24Z</time><name>PT5663</name></trkpt>
<trkpt lat="52.086020" lon="05.943934"><ele>97.6</ele><time>2024-02-22T12:14:25Z</time><name>PT5664</name></trkpt>
<trkpt lat="52.086012" lon="05.943934"><ele>97.7</ele><time>2024-02-22T12:14:26Z</time><name>PT5665</name></trkpt>
<trkpt lat="52.086001" lon="05.943933"><ele>97.6</ele><time>2024-02-22T12:14:27Z</time><name>PT5666</name></trkpt>
<trkpt lat="52.085988" lon="05.943932"><ele>97.6</ele><time>2024-02-22T12:14:28Z</time><name>PT5667</name></trkpt>
<trkpt lat="52.085976" lon="05.943929"><ele>97.5</ele><time>2024-02-22T12:14:29Z</time><name>PT5668</name></trkpt>
<trkpt lat="52.085966" lon="05.943926"><ele>97.4</ele><time>2024-02-22T12:14:30Z</time><name>PT5669</name></trkpt>
<trkpt lat="52.085958" lon="05.943924"><ele>97.5</ele><time>2024-02-22T12:14:31Z</time><name>PT5670</name></trkpt>
<trkpt lat="52.085949" lon="05.943923"><ele>97.4</ele><time>2024-02-22T12:14:32Z</time><name>PT5671</name></trkpt>
<trkpt lat="52.085939" lon="05.943921"><ele>97.3</ele><time>2024-02-22T12:14:33Z</time><name>PT5672</name></trkpt>
<trkpt lat="52.085928" lon="05.943919"><ele>97.4</ele><time>2024-02-22T12:14:34Z</time><name>PT5673</name></trkpt>
<trkpt lat="52.085918" lon="05.943921"><ele>97.3</ele><time>2024-02-22T12:14:35Z</time><name>PT5674</name></trkpt>
<trkpt lat="52.085906" lon="05.943921"><ele>97.4</ele><time>2024-02-22T12:14:36Z</time><name>PT5675</name></trkpt>
<trkpt lat="52.085898" lon="05.943922"><ele>97.5</ele><time>2024-02-22T12:14:37Z</time><name>PT5676</name></trkpt>
<trkpt lat="52.085885" lon="05.943917"><ele>97.5</ele><time>2024-02-22T12:14:38Z</time><name>PT5677</name></trkpt>
<trkpt lat="52.085875" lon="05.943913"><ele>97.5</ele><time>2024-02-22T12:14:39Z</time><name>PT5678</name></trkpt>
<trkpt lat="52.085863" lon="05.943908"><ele>97.6</ele><time>2024-02-22T12:14:40Z</time><name>PT5679</name></trkpt>
<trkpt lat="52.085852" lon="05.943906"><ele>97.5</ele><time>2024-02-22T12:14:41Z</time><name>PT5680</name></trkpt>
<trkpt lat="52.085843" lon="05.943906"><ele>97.6</ele><time>2024-02-22T12:14:42Z</time><name>PT5681</name></trkpt>
<trkpt lat="52.085830" lon="05.943902"><ele>97.5</ele><time>2024-02-22T12:14:43Z</time><name>PT5682</name></trkpt>
<trkpt lat="52.085820" lon="05.943901"><ele>97.4</ele><time>2024-02-22T12:14:44Z</time><name>PT5683</name></trkpt>
<trkpt lat="52.085806" lon="05.943896"><ele>97.5</ele><time>2024-02-22T12:14:45Z</time><name>PT5684</name></trkpt>
<trkpt lat="52.085796" lon="05.943889"><ele>97.5</ele><time>2024-02-22T12:14:46Z</time><name>PT5685</name></trkpt>
<trkpt lat="52.085787" lon="05.943882"><ele>97.5</ele><time>2024-02-22T12:14:47Z</time><name>PT5686</name></trkpt>
<trkpt lat="52.085778" lon="05.943882"><ele>97.5</ele><time>2024-02-22T12:14:48Z</time><name>PT5687</name></trkpt>
<trkpt lat="52.085768" lon="05.943881"><ele>97.6</ele><time>2024-02-22T12:14:49Z</time><name>PT5688</name></trkpt>
<trkpt lat="52.085755" lon="05.943876"><ele>97.5</ele><time>2024-02-22T12:14:50Z</time><name>PT5689</name></trkpt>
<trkpt lat="52.085743" lon="05.943875"><ele>97.5</ele><time>2024-02-22T12:14:51Z</time><name>PT5690</name></trkpt>
<trkpt lat="52.085734" lon="05.943875"><ele>97.5</ele><time>2024-02-22T12:14:52Z</time><name>PT5691</name></trkpt>
<trkpt lat="52.085722" lon="05.943870"><ele>97.5</ele><time>2024-02-22T12:14:53Z</time><name>PT5692</name></trkpt>
<trkpt lat="52.085710" lon="05.943866"><ele>97.5</ele><time>2024-02-22T12:14:54Z</time><name>PT5693</name></trkpt>
<trkpt lat="52.085698" lon="05.943862"><ele>97.8</ele><time>2024-02-22T12:14:55Z</time><name>PT5694</name></trkpt>
<trkpt lat="52.085686" lon="05.943859"><ele>97.6</ele><time>2024-02-22T12:14:56Z</time><name>PT5695</name></trkpt>
<trkpt lat="52.085676" lon="05.943857"><ele>97.7</ele><time>2024-02-22T12:14:57Z</time><name>PT5696</name></trkpt>
<trkpt lat="52.085665" lon="05.943853"><ele>97.8</ele><time>2024-02-22T12:14:58Z</time><name>PT5697</name></trkpt>
<trkpt lat="52.085655" lon="05.943853"><ele>97.6</ele><time>2024-02-22T12:14:59Z</time><name>PT5698</name></trkpt>
<trkpt lat="52.085643" lon="05.943852"><ele>97.7</ele><time>2024-02-22T12:15:00Z</time><name>PT5699</name></trkpt>
<trkpt lat="52.085633" lon="05.943851"><ele>97.7</ele><time>2024-02-22T12:15:01Z</time><name>PT5700</name></trkpt>
<trkpt lat="52.085624" lon="05.943850"><ele>97.8</ele><time>2024-02-22T12:15:02Z</time><name>PT5701</name></trkpt>
<trkpt lat="52.085616" lon="05.943846"><ele>98</ele><time>2024-02-22T12:15:03Z</time><name>PT5702</name></trkpt>
<trkpt lat="52.085606" lon="05.943842"><ele>97.9</ele><time>2024-02-22T12:15:04Z</time><name>PT5703</name></trkpt>
<trkpt lat="52.085597" lon="05.943837"><ele>98</ele><time>2024-02-22T12:15:05Z</time><name>PT5704</name></trkpt>
<trkpt lat="52.085587" lon="05.943834"><ele>97.9</ele><time>2024-02-22T12:15:06Z</time><name>PT5705</name></trkpt>
<trkpt lat="52.085580" lon="05.943830"><ele>97.8</ele><time>2024-02-22T12:15:07Z</time><name>PT5706</name></trkpt>
<trkpt lat="52.085573" lon="05.943826"><ele>97.9</ele><time>2024-02-22T12:15:08Z</time><name>PT5707</name></trkpt>
<trkpt lat="52.085564" lon="05.943823"><ele>97.9</ele><time>2024-02-22T12:15:09Z</time><name>PT5708</name></trkpt>
<trkpt lat="52.085555" lon="05.943824"><ele>98</ele><time>2024-02-22T12:15:10Z</time><name>PT5709</name></trkpt>
<trkpt lat="52.085545" lon="05.943823"><ele>98.1</ele><time>2024-02-22T12:15:11Z</time><name>PT5710</name></trkpt>
<trkpt lat="52.085534" lon="05.943820"><ele>98.2</ele><time>2024-02-22T12:15:12Z</time><name>PT5711</name></trkpt>
<trkpt lat="52.085526" lon="05.943813"><ele>98.2</ele><time>2024-02-22T12:15:13Z</time><name>PT5712</name></trkpt>
<trkpt lat="52.085518" lon="05.943807"><ele>98.2</ele><time>2024-02-22T12:15:14Z</time><name>PT5713</name></trkpt>
<trkpt lat="52.085507" lon="05.943805"><ele>98.2</ele><time>2024-02-22T12:15:15Z</time><name>PT5714</name></trkpt>
<trkpt lat="52.085494" lon="05.943805"><ele>98.1</ele><time>2024-02-22T12:15:16Z</time><name>PT5715</name></trkpt>
<trkpt lat="52.085486" lon="05.943807"><ele>98.2</ele><time>2024-02-22T12:15:17Z</time><name>PT5716</name></trkpt>
<trkpt lat="52.085477" lon="05.943806"><ele>98.2</ele><time>2024-02-22T12:15:18Z</time><name>PT5717</name></trkpt>
<trkpt lat="52.085466" lon="05.943804"><ele>98.2</ele><time>2024-02-22T12:15:19Z</time><name>PT5718</name></trkpt>
<trkpt lat="52.085457" lon="05.943800"><ele>98.2</ele><time>2024-02-22T12:15:20Z</time><name>PT5719</name></trkpt>
<trkpt lat="52.085445" lon="05.943794"><ele>98.2</ele><time>2024-02-22T12:15:21Z</time><name>PT5720</name></trkpt>
<trkpt lat="52.085435" lon="05.943790"><ele>98.7</ele><time>2024-02-22T12:15:22Z</time><name>PT5721</name></trkpt>
<trkpt lat="52.085421" lon="05.943787"><ele>98.8</ele><time>2024-02-22T12:15:23Z</time><name>PT5722</name></trkpt>
<trkpt lat="52.085413" lon="05.943784"><ele>98.8</ele><time>2024-02-22T12:15:24Z</time><name>PT5723</name></trkpt>
<trkpt lat="52.085407" lon="05.943779"><ele>98.8</ele><time>2024-02-22T12:15:25Z</time><name>PT5724</name></trkpt>
<trkpt lat="52.085398" lon="05.943777"><ele>98.8</ele><time>2024-02-22T12:15:26Z</time><name>PT5725</name></trkpt>
<trkpt lat="52.085391" lon="05.943772"><ele>98.6</ele><time>2024-02-22T12:15:27Z</time><name>PT5726</name></trkpt>
<trkpt lat="52.085386" lon="05.943772"><ele>98.6</ele><time>2024-02-22T12:15:28Z</time><name>PT5727</name></trkpt>
<trkpt lat="52.085375" lon="05.943767"><ele>98.6</ele><time>2024-02-22T12:15:29Z</time><name>PT5728</name></trkpt>
<trkpt lat="52.085367" lon="05.943771"><ele>98.6</ele><time>2024-02-22T12:15:30Z</time><name>PT5729</name></trkpt>
<trkpt lat="52.085356" lon="05.943769"><ele>98.6</ele><time>2024-02-22T12:15:31Z</time><name>PT5730</name></trkpt>
<trkpt lat="52.085347" lon="05.943770"><ele>98.4</ele><time>2024-02-22T12:15:32Z</time><name>PT5731</name></trkpt>
<trkpt lat="52.085342" lon="05.943773"><ele>98.5</ele><time>2024-02-22T12:15:33Z</time><name>PT5732</name></trkpt>
<trkpt lat="52.085336" lon="05.943774"><ele>98.5</ele><time>2024-02-22T12:15:34Z</time><name>PT5733</name></trkpt>
<trkpt lat="52.085336" lon="05.943772"><ele>98.6</ele><time>2024-02-22T12:15:35Z</time><name>PT5734</name></trkpt>
<trkpt lat="52.085330" lon="05.943765"><ele>98.7</ele><time>2024-02-22T12:15:36Z</time><name>PT5735</name></trkpt>
<trkpt lat="52.085321" lon="05.943761"><ele>98.9</ele><time>2024-02-22T12:15:37Z</time><name>PT5736</name></trkpt>
<trkpt lat="52.085313" lon="05.943757"><ele>99</ele><time>2024-02-22T12:15:38Z</time><name>PT5737</name></trkpt>
<trkpt lat="52.085308" lon="05.943755"><ele>99</ele><time>2024-02-22T12:15:39Z</time><name>PT5738</name></trkpt>
<trkpt lat="52.085304" lon="05.943754"><ele>99.2</ele><time>2024-02-22T12:15:40Z</time><name>PT5739</name></trkpt>
<trkpt lat="52.085303" lon="05.943752"><ele>99.1</ele><time>2024-02-22T12:15:41Z</time><name>PT5740</name></trkpt>
<trkpt lat="52.085304" lon="05.943751"><ele>99.1</ele><time>2024-02-22T12:15:42Z</time><name>PT5741</name></trkpt>
<trkpt lat="52.085300" lon="05.943741"><ele>99</ele><time>2024-02-22T12:15:46Z</time><name>PT5742</name></trkpt>
<trkpt lat="52.085291" lon="05.943737"><ele>99</ele><time>2024-02-22T12:15:47Z</time><name>PT5743</name></trkpt>
<trkpt lat="52.085280" lon="05.943737"><ele>99.1</ele><time>2024-02-22T12:15:48Z</time><name>PT5744</name></trkpt>
<trkpt lat="52.085270" lon="05.943734"><ele>99.1</ele><time>2024-02-22T12:15:49Z</time><name>PT5745</name></trkpt>
<trkpt lat="52.085259" lon="05.943731"><ele>99.2</ele><time>2024-02-22T12:15:50Z</time><name>PT5746</name></trkpt>
<trkpt lat="52.085247" lon="05.943725"><ele>98.8</ele><time>2024-02-22T12:15:51Z</time><name>PT5747</name></trkpt>
<trkpt lat="52.085237" lon="05.943724"><ele>98.8</ele><time>2024-02-22T12:15:52Z</time><name>PT5748</name></trkpt>
<trkpt lat="52.085225" lon="05.943722"><ele>98.8</ele><time>2024-02-22T12:15:53Z</time><name>PT5749</name></trkpt>
<trkpt lat="52.085212" lon="05.943718"><ele>98.8</ele><time>2024-02-22T12:15:54Z</time><name>PT5750</name></trkpt>
<trkpt lat="52.085201" lon="05.943717"><ele>99.1</ele><time>2024-02-22T12:15:55Z</time><name>PT5751</name></trkpt>
<trkpt lat="52.085191" lon="05.943716"><ele>99.3</ele><time>2024-02-22T12:15:56Z</time><name>PT5752</name></trkpt>
<trkpt lat="52.085183" lon="05.943714"><ele>99.2</ele><time>2024-02-22T12:15:57Z</time><name>PT5753</name></trkpt>
<trkpt lat="52.085172" lon="05.943713"><ele>99</ele><time>2024-02-22T12:15:58Z</time><name>PT5754</name></trkpt>
<trkpt lat="52.085161" lon="05.943713"><ele>98.9</ele><time>2024-02-22T12:15:59Z</time><name>PT5755</name></trkpt>
<trkpt lat="52.085151" lon="05.943711"><ele>98.8</ele><time>2024-02-22T12:16:00Z</time><name>PT5756</name></trkpt>
<trkpt lat="52.085140" lon="05.943708"><ele>98.8</ele><time>2024-02-22T12:16:01Z</time><name>PT5757</name></trkpt>
<trkpt lat="52.085128" lon="05.943706"><ele>98.8</ele><time>2024-02-22T12:16:02Z</time><name>PT5758</name></trkpt>
<trkpt lat="52.085116" lon="05.943703"><ele>98.8</ele><time>2024-02-22T12:16:03Z</time><name>PT5759</name></trkpt>
<trkpt lat="52.085105" lon="05.943698"><ele>99</ele><time>2024-02-22T12:16:04Z</time><name>PT5760</name></trkpt>
<trkpt lat="52.085094" lon="05.943693"><ele>99.1</ele><time>2024-02-22T12:16:05Z</time><name>PT5761</name></trkpt>
<trkpt lat="52.085088" lon="05.943686"><ele>99.3</ele><time>2024-02-22T12:16:06Z</time><name>PT5762</name></trkpt>
<trkpt lat="52.085078" lon="05.943681"><ele>99.1</ele><time>2024-02-22T12:16:07Z</time><name>PT5763</name></trkpt>
<trkpt lat="52.085063" lon="05.943679"><ele>99.2</ele><time>2024-02-22T12:16:08Z</time><name>PT5764</name></trkpt>
<trkpt lat="52.085048" lon="05.943676"><ele>99</ele><time>2024-02-22T12:16:09Z</time><name>PT5765</name></trkpt>
<trkpt lat="52.085034" lon="05.943668"><ele>99</ele><time>2024-02-22T12:16:10Z</time><name>PT5766</name></trkpt>
<trkpt lat="52.085024" lon="05.943663"><ele>98.9</ele><time>2024-02-22T12:16:11Z</time><name>PT5767</name></trkpt>
<trkpt lat="52.085015" lon="05.943664"><ele>98.9</ele><time>2024-02-22T12:16:12Z</time><name>PT5768</name></trkpt>
<trkpt lat="52.085006" lon="05.943664"><ele>98.8</ele><time>2024-02-22T12:16:13Z</time><name>PT5769</name></trkpt>
<trkpt lat="52.085000" lon="05.943663"><ele>98.6</ele><time>2024-02-22T12:16:14Z</time><name>PT5770</name></trkpt>
<trkpt lat="52.084992" lon="05.943665"><ele>98.6</ele><time>2024-02-22T12:16:15Z</time><name>PT5771</name></trkpt>
<trkpt lat="52.084982" lon="05.943662"><ele>98.4</ele><time>2024-02-22T12:16:16Z</time><name>PT5772</name></trkpt>
<trkpt lat="52.084967" lon="05.943657"><ele>98.5</ele><time>2024-02-22T12:16:17Z</time><name>PT5773</name></trkpt>
<trkpt lat="52.084948" lon="05.943650"><ele>98.7</ele><time>2024-02-22T12:16:18Z</time><name>PT5774</name></trkpt>
<trkpt lat="52.084936" lon="05.943644"><ele>98.8</ele><time>2024-02-22T12:16:19Z</time><name>PT5775</name></trkpt>
<trkpt lat="52.084926" lon="05.943643"><ele>98.8</ele><time>2024-02-22T12:16:20Z</time><name>PT5776</name></trkpt>
<trkpt lat="52.084921" lon="05.943638"><ele>98.9</ele><time>2024-02-22T12:16:21Z</time><name>PT5777</name></trkpt>
<trkpt lat="52.084915" lon="05.943634"><ele>98.8</ele><time>2024-02-22T12:16:22Z</time><name>PT5778</name></trkpt>
<trkpt lat="52.084905" lon="05.943634"><ele>98.9</ele><time>2024-02-22T12:16:23Z</time><name>PT5779</name></trkpt>
<trkpt lat="52.084887" lon="05.943635"><ele>98.9</ele><time>2024-02-22T12:16:24Z</time><name>PT5780</name></trkpt>
<trkpt lat="52.084869" lon="05.943634"><ele>99</ele><time>2024-02-22T12:16:25Z</time><name>PT5781</name></trkpt>
<trkpt lat="52.084855" lon="05.943630"><ele>99</ele><time>2024-02-22T12:16:26Z</time><name>PT5782</name></trkpt>
<trkpt lat="52.084845" lon="05.943627"><ele>99.1</ele><time>2024-02-22T12:16:27Z</time><name>PT5783</name></trkpt>
<trkpt lat="52.084838" lon="05.943625"><ele>99.2</ele><time>2024-02-22T12:16:28Z</time><name>PT5784</name></trkpt>
<trkpt lat="52.084830" lon="05.943625"><ele>99.2</ele><time>2024-02-22T12:16:29Z</time><name>PT5785</name></trkpt>
<trkpt lat="52.084816" lon="05.943625"><ele>98.9</ele><time>2024-02-22T12:16:30Z</time><name>PT5786</name></trkpt>
<trkpt lat="52.084800" lon="05.943625"><ele>98.8</ele><time>2024-02-22T12:16:31Z</time><name>PT5787</name></trkpt>
<trkpt lat="52.084786" lon="05.943627"><ele>98.8</ele><time>2024-02-22T12:16:32Z</time><name>PT5788</name></trkpt>
<trkpt lat="52.084772" lon="05.943619"><ele>98.8</ele><time>2024-02-22T12:16:33Z</time><name>PT5789</name></trkpt>
<trkpt lat="52.084760" lon="05.943608"><ele>98.9</ele><time>2024-02-22T12:16:34Z</time><name>PT5790</name></trkpt>
<trkpt lat="52.084749" lon="05.943600"><ele>99</ele><time>2024-02-22T12:16:35Z</time><name>PT5791</name></trkpt>
<trkpt lat="52.084740" lon="05.943598"><ele>99.1</ele><time>2024-02-22T12:16:36Z</time><name>PT5792</name></trkpt>
<trkpt lat="52.084729" lon="05.943595"><ele>99</ele><time>2024-02-22T12:16:37Z</time><name>PT5793</name></trkpt>
<trkpt lat="52.084721" lon="05.943594"><ele>99</ele><time>2024-02-22T12:16:38Z</time><name>PT5794</name></trkpt>
<trkpt lat="52.084711" lon="05.943593"><ele>98.9</ele><time>2024-02-22T12:16:39Z</time><name>PT5795</name></trkpt>
<trkpt lat="52.084700" lon="05.943589"><ele>98.9</ele><time>2024-02-22T12:16:40Z</time><name>PT5796</name></trkpt>
<trkpt lat="52.084689" lon="05.943582"><ele>98.9</ele><time>2024-02-22T12:16:41Z</time><name>PT5797</name></trkpt>
<trkpt lat="52.084675" lon="05.943577"><ele>99.1</ele><time>2024-02-22T12:16:42Z</time><name>PT5798</name></trkpt>
<trkpt lat="52.084664" lon="05.943572"><ele>99.1</ele><time>2024-02-22T12:16:43Z</time><name>PT5799</name></trkpt>
<trkpt lat="52.084654" lon="05.943568"><ele>99.2</ele><time>2024-02-22T12:16:44Z</time><name>PT5800</name></trkpt>
<trkpt lat="52.084644" lon="05.943566"><ele>99.1</ele><time>2024-02-22T12:16:45Z</time><name>PT5801</name></trkpt>
<trkpt lat="52.084636" lon="05.943565"><ele>99.1</ele><time>2024-02-22T12:16:46Z</time><name>PT5802</name></trkpt>
<trkpt lat="52.084630" lon="05.943564"><ele>99</ele><time>2024-02-22T12:16:47Z</time><name>PT5803</name></trkpt>
<trkpt lat="52.084620" lon="05.943560"><ele>99.1</ele><time>2024-02-22T12:16:48Z</time><name>PT5804</name></trkpt>
<trkpt lat="52.084610" lon="05.943556"><ele>99.2</ele><time>2024-02-22T12:16:49Z</time><name>PT5805</name></trkpt>
<trkpt lat="52.084597" lon="05.943550"><ele>99.2</ele><time>2024-02-22T12:16:50Z</time><name>PT5806</name></trkpt>
<trkpt lat="52.084584" lon="05.943547"><ele>99.4</ele><time>2024-02-22T12:16:51Z</time><name>PT5807</name></trkpt>
<trkpt lat="52.084573" lon="05.943545"><ele>99.5</ele><time>2024-02-22T12:16:52Z</time><name>PT5808</name></trkpt>
<trkpt lat="52.084565" lon="05.943543"><ele>99.5</ele><time>2024-02-22T12:16:53Z</time><name>PT5809</name></trkpt>
<trkpt lat="52.084557" lon="05.943541"><ele>99.4</ele><time>2024-02-22T12:16:54Z</time><name>PT5810</name></trkpt>
<trkpt lat="52.084550" lon="05.943541"><ele>99.4</ele><time>2024-02-22T12:16:55Z</time><name>PT5811</name></trkpt>
<trkpt lat="52.084541" lon="05.943541"><ele>99.4</ele><time>2024-02-22T12:16:56Z</time><name>PT5812</name></trkpt>
<trkpt lat="52.084533" lon="05.943540"><ele>99.4</ele><time>2024-02-22T12:16:57Z</time><name>PT5813</name></trkpt>
<trkpt lat="52.084518" lon="05.943534"><ele>99.3</ele><time>2024-02-22T12:16:58Z</time><name>PT5814</name></trkpt>
<trkpt lat="52.084504" lon="05.943530"><ele>99.3</ele><time>2024-02-22T12:16:59Z</time><name>PT5815</name></trkpt>
<trkpt lat="52.084490" lon="05.943524"><ele>99.2</ele><time>2024-02-22T12:17:00Z</time><name>PT5816</name></trkpt>
<trkpt lat="52.084477" lon="05.943518"><ele>99.2</ele><time>2024-02-22T12:17:01Z</time><name>PT5817</name></trkpt>
<trkpt lat="52.084465" lon="05.943514"><ele>99.3</ele><time>2024-02-22T12:17:02Z</time><name>PT5818</name></trkpt>
<trkpt lat="52.084456" lon="05.943511"><ele>99.4</ele><time>2024-02-22T12:17:03Z</time><name>PT5819</name></trkpt>
<trkpt lat="52.084448" lon="05.943510"><ele>99.3</ele><time>2024-02-22T12:17:04Z</time><name>PT5820</name></trkpt>
<trkpt lat="52.084437" lon="05.943498"><ele>99.3</ele><time>2024-02-22T12:17:05Z</time><name>PT5821</name></trkpt>
<trkpt lat="52.084425" lon="05.943491"><ele>99.4</ele><time>2024-02-22T12:17:06Z</time><name>PT5822</name></trkpt>
<trkpt lat="52.084411" lon="05.943485"><ele>99.4</ele><time>2024-02-22T12:17:07Z</time><name>PT5823</name></trkpt>
<trkpt lat="52.084398" lon="05.943479"><ele>99.4</ele><time>2024-02-22T12:17:08Z</time><name>PT5824</name></trkpt>
<trkpt lat="52.084387" lon="05.943475"><ele>99.6</ele><time>2024-02-22T12:17:09Z</time><name>PT5825</name></trkpt>
<trkpt lat="52.084378" lon="05.943473"><ele>99.8</ele><time>2024-02-22T12:17:10Z</time><name>PT5826</name></trkpt>
<trkpt lat="52.084376" lon="05.943472"><ele>99.7</ele><time>2024-02-22T12:17:11Z</time><name>PT5827</name></trkpt>
<trkpt lat="52.084374" lon="05.943470"><ele>99.8</ele><time>2024-02-22T12:17:12Z</time><name>PT5828</name></trkpt>
<trkpt lat="52.084365" lon="05.943467"><ele>99.8</ele><time>2024-02-22T12:17:13Z</time><name>PT5829</name></trkpt>
<trkpt lat="52.084352" lon="05.943465"><ele>99.7</ele><time>2024-02-22T12:17:14Z</time><name>PT5830</name></trkpt>
<trkpt lat="52.084340" lon="05.943462"><ele>99.6</ele><time>2024-02-22T12:17:15Z</time><name>PT5831</name></trkpt>
<trkpt lat="52.084333" lon="05.943459"><ele>99.8</ele><time>2024-02-22T12:17:16Z</time><name>PT5832</name></trkpt>
<trkpt lat="52.084323" lon="05.943455"><ele>99.8</ele><time>2024-02-22T12:17:17Z</time><name>PT5833</name></trkpt>
<trkpt lat="52.084314" lon="05.943451"><ele>99.7</ele><time>2024-02-22T12:17:18Z</time><name>PT5834</name></trkpt>
<trkpt lat="52.084304" lon="05.943447"><ele>99.8</ele><time>2024-02-22T12:17:19Z</time><name>PT5835</name></trkpt>
<trkpt lat="52.084291" lon="05.943444"><ele>99.9</ele><time>2024-02-22T12:17:20Z</time><name>PT5836</name></trkpt>
<trkpt lat="52.084279" lon="05.943441"><ele>99.8</ele><time>2024-02-22T12:17:21Z</time><name>PT5837</name></trkpt>
<trkpt lat="52.084270" lon="05.943440"><ele>99.9</ele><time>2024-02-22T12:17:22Z</time><name>PT5838</name></trkpt>
<trkpt lat="52.084263" lon="05.943440"><ele>100</ele><time>2024-02-22T12:17:23Z</time><name>PT5839</name></trkpt>
<trkpt lat="52.084254" lon="05.943442"><ele>100</ele><time>2024-02-22T12:17:24Z</time><name>PT5840</name></trkpt>
<trkpt lat="52.084244" lon="05.943444"><ele>100.1</ele><time>2024-02-22T12:17:25Z</time><name>PT5841</name></trkpt>
<trkpt lat="52.084234" lon="05.943445"><ele>100.2</ele><time>2024-02-22T12:17:26Z</time><name>PT5842</name></trkpt>
<trkpt lat="52.084224" lon="05.943445"><ele>100.1</ele><time>2024-02-22T12:17:27Z</time><name>PT5843</name></trkpt>
<trkpt lat="52.084217" lon="05.943440"><ele>100.2</ele><time>2024-02-22T12:17:28Z</time><name>PT5844</name></trkpt>
<trkpt lat="52.084219" lon="05.943444"><ele>100.1</ele><time>2024-02-22T12:17:29Z</time><name>PT5845</name></trkpt>
<trkpt lat="52.084214" lon="05.943448"><ele>100.2</ele><time>2024-02-22T12:17:30Z</time><name>PT5846</name></trkpt>
<trkpt lat="52.084205" lon="05.943447"><ele>100.4</ele><time>2024-02-22T12:17:32Z</time><name>PT5847</name></trkpt>
<trkpt lat="52.084201" lon="05.943445"><ele>100.5</ele><time>2024-02-22T12:17:32Z</time><name>PT5848</name></trkpt>
<trkpt lat="52.084196" lon="05.943446"><ele>100.5</ele><time>2024-02-22T12:17:33Z</time><name>PT5849</name></trkpt>
<trkpt lat="52.084189" lon="05.943446"><ele>100.3</ele><time>2024-02-22T12:17:34Z</time><name>PT5850</name></trkpt>
<trkpt lat="52.084180" lon="05.943444"><ele>100.2</ele><time>2024-02-22T12:17:35Z</time><name>PT5851</name></trkpt>
<trkpt lat="52.084170" lon="05.943443"><ele>100</ele><time>2024-02-22T12:17:36Z</time><name>PT5852</name></trkpt>
<trkpt lat="52.084160" lon="05.943441"><ele>100</ele><time>2024-02-22T12:17:37Z</time><name>PT5853</name></trkpt>
<trkpt lat="52.084149" lon="05.943439"><ele>100</ele><time>2024-02-22T12:17:38Z</time><name>PT5854</name></trkpt>
<trkpt lat="52.084138" lon="05.943435"><ele>100.1</ele><time>2024-02-22T12:17:39Z</time><name>PT5855</name></trkpt>
<trkpt lat="52.084131" lon="05.943430"><ele>100.3</ele><time>2024-02-22T12:17:40Z</time><name>PT5856</name></trkpt>
<trkpt lat="52.084120" lon="05.943430"><ele>100.4</ele><time>2024-02-22T12:17:41Z</time><name>PT5857</name></trkpt>
<trkpt lat="52.084109" lon="05.943432"><ele>100.5</ele><time>2024-02-22T12:17:42Z</time><name>PT5858</name></trkpt>
<trkpt lat="52.084098" lon="05.943431"><ele>100.6</ele><time>2024-02-22T12:17:43Z</time><name>PT5859</name></trkpt>
<trkpt lat="52.084088" lon="05.943433"><ele>100.6</ele><time>2024-02-22T12:17:44Z</time><name>PT5860</name></trkpt>
<trkpt lat="52.084078" lon="05.943435"><ele>100.7</ele><time>2024-02-22T12:17:45Z</time><name>PT5861</name></trkpt>
<trkpt lat="52.084070" lon="05.943436"><ele>100.6</ele><time>2024-02-22T12:17:46Z</time><name>PT5862</name></trkpt>
<trkpt lat="52.084060" lon="05.943432"><ele>100.7</ele><time>2024-02-22T12:17:47Z</time><name>PT5863</name></trkpt>
<trkpt lat="52.084051" lon="05.943430"><ele>100.8</ele><time>2024-02-22T12:17:48Z</time><name>PT5864</name></trkpt>
<trkpt lat="52.084041" lon="05.943429"><ele>100.9</ele><time>2024-02-22T12:17:49Z</time><name>PT5865</name></trkpt>
<trkpt lat="52.084032" lon="05.943431"><ele>100.7</ele><time>2024-02-22T12:17:50Z</time><name>PT5866</name></trkpt>
<trkpt lat="52.084019" lon="05.943429"><ele>100.6</ele><time>2024-02-22T12:17:51Z</time><name>PT5867</name></trkpt>
<trkpt lat="52.084008" lon="05.943426"><ele>100.5</ele><time>2024-02-22T12:17:52Z</time><name>PT5868</name></trkpt>
<trkpt lat="52.083998" lon="05.943422"><ele>100.6</ele><time>2024-02-22T12:17:53Z</time><name>PT5869</name></trkpt>
<trkpt lat="52.083992" lon="05.943420"><ele>100.7</ele><time>2024-02-22T12:17:54Z</time><name>PT5870</name></trkpt>
<trkpt lat="52.083983" lon="05.943421"><ele>101</ele><time>2024-02-22T12:17:55Z</time><name>PT5871</name></trkpt>
<trkpt lat="52.083972" lon="05.943419"><ele>101.1</ele><time>2024-02-22T12:17:56Z</time><name>PT5872</name></trkpt>
<trkpt lat="52.083960" lon="05.943416"><ele>101.1</ele><time>2024-02-22T12:17:57Z</time><name>PT5873</name></trkpt>
<trkpt lat="52.083947" lon="05.943415"><ele>101.1</ele><time>2024-02-22T12:17:58Z</time><name>PT5874</name></trkpt>
<trkpt lat="52.083935" lon="05.943414"><ele>101.1</ele><time>2024-02-22T12:17:59Z</time><name>PT5875</name></trkpt>
<trkpt lat="52.083924" lon="05.943407"><ele>100.9</ele><time>2024-02-22T12:18:00Z</time><name>PT5876</name></trkpt>
<trkpt lat="52.083916" lon="05.943402"><ele>100.7</ele><time>2024-02-22T12:18:01Z</time><name>PT5877</name></trkpt>
<trkpt lat="52.083909" lon="05.943400"><ele>100.7</ele><time>2024-02-22T12:18:02Z</time><name>PT5878</name></trkpt>
<trkpt lat="52.083901" lon="05.943398"><ele>100.5</ele><time>2024-02-22T12:18:03Z</time><name>PT5879</name></trkpt>
<trkpt lat="52.083891" lon="05.943395"><ele>100.5</ele><time>2024-02-22T12:18:04Z</time><name>PT5880</name></trkpt>
<trkpt lat="52.083882" lon="05.943390"><ele>100.6</ele><time>2024-02-22T12:18:05Z</time><name>PT5881</name></trkpt>
<trkpt lat="52.083875" lon="05.943387"><ele>100.7</ele><time>2024-02-22T12:18:06Z</time><name>PT5882</name></trkpt>
<trkpt lat="52.083871" lon="05.943388"><ele>100.9</ele><time>2024-02-22T12:18:07Z</time><name>PT5883</name></trkpt>
<trkpt lat="52.083864" lon="05.943388"><ele>100.9</ele><time>2024-02-22T12:18:08Z</time><name>PT5884</name></trkpt>
<trkpt lat="52.083854" lon="05.943385"><ele>100.9</ele><time>2024-02-22T12:18:09Z</time><name>PT5885</name></trkpt>
<trkpt lat="52.083846" lon="05.943383"><ele>101</ele><time>2024-02-22T12:18:10Z</time><name>PT5886</name></trkpt>
<trkpt lat="52.083839" lon="05.943383"><ele>100.9</ele><time>2024-02-22T12:18:11Z</time><name>PT5887</name></trkpt>
<trkpt lat="52.083829" lon="05.943385"><ele>100.9</ele><time>2024-02-22T12:18:12Z</time><name>PT5888</name></trkpt>
<trkpt lat="52.083818" lon="05.943387"><ele>100.9</ele><time>2024-02-22T12:18:13Z</time><name>PT5889</name></trkpt>
<trkpt lat="52.083808" lon="05.943392"><ele>100.7</ele><time>2024-02-22T12:18:14Z</time><name>PT5890</name></trkpt>
<trkpt lat="52.083802" lon="05.943396"><ele>100.7</ele><time>2024-02-22T12:18:15Z</time><name>PT5891</name></trkpt>
<trkpt lat="52.083795" lon="05.943404"><ele>100.7</ele><time>2024-02-22T12:18:16Z</time><name>PT5892</name></trkpt>
<trkpt lat="52.083786" lon="05.943414"><ele>100.7</ele><time>2024-02-22T12:18:17Z</time><name>PT5893</name></trkpt>
<trkpt lat="52.083777" lon="05.943427"><ele>100.7</ele><time>2024-02-22T12:18:18Z</time><name>PT5894</name></trkpt>
<trkpt lat="52.083768" lon="05.943437"><ele>101</ele><time>2024-02-22T12:18:19Z</time><name>PT5895</name></trkpt>
<trkpt lat="52.083760" lon="05.943444"><ele>101.1</ele><time>2024-02-22T12:18:20Z</time><name>PT5896</name></trkpt>
<trkpt lat="52.083756" lon="05.943448"><ele>101.4</ele><time>2024-02-22T12:18:21Z</time><name>PT5897</name></trkpt>
<trkpt lat="52.083752" lon="05.943454"><ele>101.7</ele><time>2024-02-22T12:18:22Z</time><name>PT5898</name></trkpt>
<trkpt lat="52.083746" lon="05.943469"><ele>101.7</ele><time>2024-02-22T12:18:23Z</time><name>PT5899</name></trkpt>
<trkpt lat="52.083743" lon="05.943487"><ele>101.5</ele><time>2024-02-22T12:18:24Z</time><name>PT5900</name></trkpt>
<trkpt lat="52.083739" lon="05.943508"><ele>101.5</ele><time>2024-02-22T12:18:25Z</time><name>PT5901</name></trkpt>
<trkpt lat="52.083731" lon="05.943526"><ele>101.5</ele><time>2024-02-22T12:18:26Z</time><name>PT5902</name></trkpt>
<trkpt lat="52.083728" lon="05.943539"><ele>101.5</ele><time>2024-02-22T12:18:27Z</time><name>PT5903</name></trkpt>
<trkpt lat="52.083726" lon="05.943551"><ele>101.6</ele><time>2024-02-22T12:18:28Z</time><name>PT5904</name></trkpt>
<trkpt lat="52.083721" lon="05.943564"><ele>101.7</ele><time>2024-02-22T12:18:29Z</time><name>PT5905</name></trkpt>
<trkpt lat="52.083718" lon="05.943574"><ele>101.7</ele><time>2024-02-22T12:18:30Z</time><name>PT5906</name></trkpt>
<trkpt lat="52.083714" lon="05.943588"><ele>101.8</ele><time>2024-02-22T12:18:31Z</time><name>PT5907</name></trkpt>
<trkpt lat="52.083709" lon="05.943608"><ele>101.7</ele><time>2024-02-22T12:18:32Z</time><name>PT5908</name></trkpt>
<trkpt lat="52.083700" lon="05.943630"><ele>101.6</ele><time>2024-02-22T12:18:33Z</time><name>PT5909</name></trkpt>
<trkpt lat="52.083693" lon="05.943645"><ele>101.5</ele><time>2024-02-22T12:18:34Z</time><name>PT5910</name></trkpt>
<trkpt lat="52.083683" lon="05.943660"><ele>101.6</ele><time>2024-02-22T12:18:35Z</time><name>PT5911</name></trkpt>
<trkpt lat="52.083678" lon="05.943674"><ele>101.7</ele><time>2024-02-22T12:18:36Z</time><name>PT5912</name></trkpt>
<trkpt lat="52.083674" lon="05.943679"><ele>101.6</ele><time>2024-02-22T12:18:37Z</time><name>PT5913</name></trkpt>
<trkpt lat="52.083672" lon="05.943684"><ele>101.4</ele><time>2024-02-22T12:18:38Z</time><name>PT5914</name></trkpt>
<trkpt lat="52.083665" lon="05.943699"><ele>101.3</ele><time>2024-02-22T12:18:39Z</time><name>PT5915</name></trkpt>
<trkpt lat="52.083660" lon="05.943718"><ele>101.1</ele><time>2024-02-22T12:18:40Z</time><name>PT5916</name></trkpt>
<trkpt lat="52.083654" lon="05.943735"><ele>101.1</ele><time>2024-02-22T12:18:41Z</time><name>PT5917</name></trkpt>
<trkpt lat="52.083646" lon="05.943748"><ele>101</ele><time>2024-02-22T12:18:42Z</time><name>PT5918</name></trkpt>
<trkpt lat="52.083642" lon="05.943761"><ele>101</ele><time>2024-02-22T12:18:43Z</time><name>PT5919</name></trkpt>
<trkpt lat="52.083638" lon="05.943775"><ele>100.9</ele><time>2024-02-22T12:18:44Z</time><name>PT5920</name></trkpt>
<trkpt lat="52.083634" lon="05.943787"><ele>101.1</ele><time>2024-02-22T12:18:45Z</time><name>PT5921</name></trkpt>
<trkpt lat="52.083632" lon="05.943797"><ele>101.2</ele><time>2024-02-22T12:18:46Z</time><name>PT5922</name></trkpt>
<trkpt lat="52.083629" lon="05.943808"><ele>101.3</ele><time>2024-02-22T12:18:47Z</time><name>PT5923</name></trkpt>
<trkpt lat="52.083626" lon="05.943826"><ele>101.3</ele><time>2024-02-22T12:18:48Z</time><name>PT5924</name></trkpt>
<trkpt lat="52.083621" lon="05.943845"><ele>101.2</ele><time>2024-02-22T12:18:49Z</time><name>PT5925</name></trkpt>
<trkpt lat="52.083615" lon="05.943865"><ele>101.1</ele><time>2024-02-22T12:18:50Z</time><name>PT5926</name></trkpt>
<trkpt lat="52.083605" lon="05.943883"><ele>100.9</ele><time>2024-02-22T12:18:51Z</time><name>PT5927</name></trkpt>
<trkpt lat="52.083600" lon="05.943894"><ele>100.8</ele><time>2024-02-22T12:18:52Z</time><name>PT5928</name></trkpt>
<trkpt lat="52.083592" lon="05.943908"><ele>100.7</ele><time>2024-02-22T12:18:53Z</time><name>PT5929</name></trkpt>
<trkpt lat="52.083588" lon="05.943920"><ele>100.7</ele><time>2024-02-22T12:18:54Z</time><name>PT5930</name></trkpt>
<trkpt lat="52.083585" lon="05.943932"><ele>100.8</ele><time>2024-02-22T12:18:55Z</time><name>PT5931</name></trkpt>
<trkpt lat="52.083580" lon="05.943949"><ele>100.7</ele><time>2024-02-22T12:18:56Z</time><name>PT5932</name></trkpt>
<trkpt lat="52.083577" lon="05.943965"><ele>100.6</ele><time>2024-02-22T12:18:57Z</time><name>PT5933</name></trkpt>
<trkpt lat="52.083571" lon="05.943984"><ele>100.6</ele><time>2024-02-22T12:18:58Z</time><name>PT5934</name></trkpt>
<trkpt lat="52.083561" lon="05.944006"><ele>100.7</ele><time>2024-02-22T12:18:59Z</time><name>PT5935</name></trkpt>
<trkpt lat="52.083551" lon="05.944027"><ele>100.8</ele><time>2024-02-22T12:19:00Z</time><name>PT5936</name></trkpt>
<trkpt lat="52.083544" lon="05.944043"><ele>101.1</ele><time>2024-02-22T12:19:01Z</time><name>PT5937</name></trkpt>
<trkpt lat="52.083537" lon="05.944056"><ele>101.1</ele><time>2024-02-22T12:19:02Z</time><name>PT5938</name></trkpt>
<trkpt lat="52.083529" lon="05.944069"><ele>101.1</ele><time>2024-02-22T12:19:03Z</time><name>PT5939</name></trkpt>
<trkpt lat="52.083523" lon="05.944086"><ele>101.3</ele><time>2024-02-22T12:19:04Z</time><name>PT5940</name></trkpt>
<trkpt lat="52.083516" lon="05.944106"><ele>101.2</ele><time>2024-02-22T12:19:05Z</time><name>PT5941</name></trkpt>
<trkpt lat="52.083508" lon="05.944128"><ele>101.1</ele><time>2024-02-22T12:19:06Z</time><name>PT5942</name></trkpt>
<trkpt lat="52.083498" lon="05.944150"><ele>101.1</ele><time>2024-02-22T12:19:07Z</time><name>PT5943</name></trkpt>
<trkpt lat="52.083490" lon="05.944170"><ele>101.1</ele><time>2024-02-22T12:19:08Z</time><name>PT5944</name></trkpt>
<trkpt lat="52.083483" lon="05.944186"><ele>101</ele><time>2024-02-22T12:19:09Z</time><name>PT5945</name></trkpt>
<trkpt lat="52.083480" lon="05.944198"><ele>101.1</ele><time>2024-02-22T12:19:10Z</time><name>PT5946</name></trkpt>
<trkpt lat="52.083476" lon="05.944210"><ele>101.2</ele><time>2024-02-22T12:19:11Z</time><name>PT5947</name></trkpt>
<trkpt lat="52.083472" lon="05.944223"><ele>101</ele><time>2024-02-22T12:19:12Z</time><name>PT5948</name></trkpt>
<trkpt lat="52.083464" lon="05.944242"><ele>100.7</ele><time>2024-02-22T12:19:13Z</time><name>PT5949</name></trkpt>
<trkpt lat="52.083457" lon="05.944260"><ele>100.7</ele><time>2024-02-22T12:19:14Z</time><name>PT5950</name></trkpt>
<trkpt lat="52.083447" lon="05.944276"><ele>100.5</ele><time>2024-02-22T12:19:15Z</time><name>PT5951</name></trkpt>
<trkpt lat="52.083439" lon="05.944292"><ele>100.5</ele><time>2024-02-22T12:19:16Z</time><name>PT5952</name></trkpt>
<trkpt lat="52.083432" lon="05.944305"><ele>100.6</ele><time>2024-02-22T12:19:17Z</time><name>PT5953</name></trkpt>
<trkpt lat="52.083427" lon="05.944319"><ele>100.6</ele><time>2024-02-22T12:19:18Z</time><name>PT5954</name></trkpt>
<trkpt lat="52.083423" lon="05.944335"><ele>100.6</ele><time>2024-02-22T12:19:19Z</time><name>PT5955</name></trkpt>
<trkpt lat="52.083415" lon="05.944351"><ele>100.5</ele><time>2024-02-22T12:19:20Z</time><name>PT5956</name></trkpt>
<trkpt lat="52.083405" lon="05.944368"><ele>100.6</ele><time>2024-02-22T12:19:21Z</time><name>PT5957</name></trkpt>
<trkpt lat="52.083397" lon="05.944384"><ele>100.7</ele><time>2024-02-22T12:19:22Z</time><name>PT5958</name></trkpt>
<trkpt lat="52.083391" lon="05.944398"><ele>100.6</ele><time>2024-02-22T12:19:23Z</time><name>PT5959</name></trkpt>
<trkpt lat="52.083387" lon="05.944414"><ele>100.8</ele><time>2024-02-22T12:19:24Z</time><name>PT5960</name></trkpt>
<trkpt lat="52.083382" lon="05.944426"><ele>100.7</ele><time>2024-02-22T12:19:25Z</time><name>PT5961</name></trkpt>
<trkpt lat="52.083376" lon="05.944438"><ele>100.7</ele><time>2024-02-22T12:19:26Z</time><name>PT5962</name></trkpt>
<trkpt lat="52.083368" lon="05.944456"><ele>100.7</ele><time>2024-02-22T12:19:27Z</time><name>PT5963</name></trkpt>
<trkpt lat="52.083360" lon="05.944474"><ele>100.7</ele><time>2024-02-22T12:19:28Z</time><name>PT5964</name></trkpt>
<trkpt lat="52.083353" lon="05.944488"><ele>100.7</ele><time>2024-02-22T12:19:29Z</time><name>PT5965</name></trkpt>
<trkpt lat="52.083344" lon="05.944505"><ele>100.6</ele><time>2024-02-22T12:19:30Z</time><name>PT5966</name></trkpt>
<trkpt lat="52.083339" lon="05.944519"><ele>100.6</ele><time>2024-02-22T12:19:31Z</time><name>PT5967</name></trkpt>
<trkpt lat="52.083335" lon="05.944532"><ele>100.6</ele><time>2024-02-22T12:19:32Z</time><name>PT5968</name></trkpt>
<trkpt lat="52.083331" lon="05.944545"><ele>100.5</ele><time>2024-02-22T12:19:33Z</time><name>PT5969</name></trkpt>
<trkpt lat="52.083326" lon="05.944560"><ele>100.4</ele><time>2024-02-22T12:19:34Z</time><name>PT5970</name></trkpt>
<trkpt lat="52.083318" lon="05.944578"><ele>100.5</ele><time>2024-02-22T12:19:35Z</time><name>PT5971</name></trkpt>
<trkpt lat="52.083313" lon="05.944594"><ele>100.5</ele><time>2024-02-22T12:19:36Z</time><name>PT5972</name></trkpt>
<trkpt lat="52.083308" lon="05.944610"><ele>100.5</ele><time>2024-02-22T12:19:37Z</time><name>PT5973</name></trkpt>
<trkpt lat="52.083304" lon="05.944624"><ele>100.5</ele><time>2024-02-22T12:19:38Z</time><name>PT5974</name></trkpt>
<trkpt lat="52.083299" lon="05.944637"><ele>100.5</ele><time>2024-02-22T12:19:39Z</time><name>PT5975</name></trkpt>
<trkpt lat="52.083295" lon="05.944652"><ele>100.5</ele><time>2024-02-22T12:19:40Z</time><name>PT5976</name></trkpt>
<trkpt lat="52.083291" lon="05.944666"><ele>100.4</ele><time>2024-02-22T12:19:41Z</time><name>PT5977</name></trkpt>
<trkpt lat="52.083287" lon="05.944678"><ele>100.4</ele><time>2024-02-22T12:19:42Z</time><name>PT5978</name></trkpt>
<trkpt lat="52.083282" lon="05.944692"><ele>100.1</ele><time>2024-02-22T12:19:43Z</time><name>PT5979</name></trkpt>
<trkpt lat="52.083278" lon="05.944708"><ele>100.1</ele><time>2024-02-22T12:19:44Z</time><name>PT5980</name></trkpt>
<trkpt lat="52.083273" lon="05.944726"><ele>100</ele><time>2024-02-22T12:19:45Z</time><name>PT5981</name></trkpt>
<trkpt lat="52.083268" lon="05.944747"><ele>100</ele><time>2024-02-22T12:19:46Z</time><name>PT5982</name></trkpt>
<trkpt lat="52.083262" lon="05.944768"><ele>100</ele><time>2024-02-22T12:19:47Z</time><name>PT5983</name></trkpt>
<trkpt lat="52.083254" lon="05.944787"><ele>100</ele><time>2024-02-22T12:19:48Z</time><name>PT5984</name></trkpt>
<trkpt lat="52.083248" lon="05.944803"><ele>100</ele><time>2024-02-22T12:19:49Z</time><name>PT5985</name></trkpt>
<trkpt lat="52.083242" lon="05.944817"><ele>100</ele><time>2024-02-22T12:19:50Z</time><name>PT5986</name></trkpt>
<trkpt lat="52.083238" lon="05.944828"><ele>100</ele><time>2024-02-22T12:19:51Z</time><name>PT5987</name></trkpt>
<trkpt lat="52.083233" lon="05.944838"><ele>99.9</ele><time>2024-02-22T12:19:52Z</time><name>PT5988</name></trkpt>
<trkpt lat="52.083228" lon="05.944850"><ele>99.9</ele><time>2024-02-22T12:19:53Z</time><name>PT5989</name></trkpt>
<trkpt lat="52.083223" lon="05.944861"><ele>99.8</ele><time>2024-02-22T12:19:54Z</time><name>PT5990</name></trkpt>
<trkpt lat="52.083218" lon="05.944874"><ele>99.7</ele><time>2024-02-22T12:19:55Z</time><name>PT5991</name></trkpt>
<trkpt lat="52.083211" lon="05.944893"><ele>99.8</ele><time>2024-02-22T12:19:56Z</time><name>PT5992</name></trkpt>
<trkpt lat="52.083204" lon="05.944914"><ele>99.9</ele><time>2024-02-22T12:19:57Z</time><name>PT5993</name></trkpt>
<trkpt lat="52.083198" lon="05.944932"><ele>100</ele><time>2024-02-22T12:19:58Z</time><name>PT5994</name></trkpt>
<trkpt lat="52.083194" lon="05.944946"><ele>100.1</ele><time>2024-02-22T12:19:59Z</time><name>PT5995</name></trkpt>
<trkpt lat="52.083194" lon="05.944959"><ele>100.4</ele><time>2024-02-22T12:20:00Z</time><name>PT5996</name></trkpt>
<trkpt lat="52.083195" lon="05.944974"><ele>100.2</ele><time>2024-02-22T12:20:01Z</time><name>PT5997</name></trkpt>
<trkpt lat="52.083192" lon="05.944995"><ele>100.1</ele><time>2024-02-22T12:20:02Z</time><name>PT5998</name></trkpt>
<trkpt lat="52.083184" lon="05.945012"><ele>100</ele><time>2024-02-22T12:20:03Z</time><name>PT5999</name></trkpt>
<trkpt lat="52.083181" lon="05.945024"><ele>100</ele><time>2024-02-22T12:20:04Z</time><name>PT6000</name></trkpt>
<trkpt lat="52.083178" lon="05.945033"><ele>100.2</ele><time>2024-02-22T12:20:05Z</time><name>PT6001</name></trkpt>
<trkpt lat="52.083175" lon="05.945042"><ele>100.2</ele><time>2024-02-22T12:20:06Z</time><name>PT6002</name></trkpt>
<trkpt lat="52.083172" lon="05.945052"><ele>100.1</ele><time>2024-02-22T12:20:07Z</time><name>PT6003</name></trkpt>
<trkpt lat="52.083164" lon="05.945067"><ele>100</ele><time>2024-02-22T12:20:08Z</time><name>PT6004</name></trkpt>
<trkpt lat="52.083158" lon="05.945081"><ele>99.9</ele><time>2024-02-22T12:20:09Z</time><name>PT6005</name></trkpt>
<trkpt lat="52.083153" lon="05.945094"><ele>99.9</ele><time>2024-02-22T12:20:10Z</time><name>PT6006</name></trkpt>
<trkpt lat="52.083150" lon="05.945104"><ele>100</ele><time>2024-02-22T12:20:11Z</time><name>PT6007</name></trkpt>
<trkpt lat="52.083146" lon="05.945117"><ele>100</ele><time>2024-02-22T12:20:12Z</time><name>PT6008</name></trkpt>
<trkpt lat="52.083137" lon="05.945134"><ele>100.3</ele><time>2024-02-22T12:20:13Z</time><name>PT6009</name></trkpt>
<trkpt lat="52.083129" lon="05.945149"><ele>100.2</ele><time>2024-02-22T12:20:14Z</time><name>PT6010</name></trkpt>
<trkpt lat="52.083123" lon="05.945163"><ele>100.3</ele><time>2024-02-22T12:20:15Z</time><name>PT6011</name></trkpt>
<trkpt lat="52.083115" lon="05.945175"><ele>100.1</ele><time>2024-02-22T12:20:16Z</time><name>PT6012</name></trkpt>
<trkpt lat="52.083109" lon="05.945190"><ele>100</ele><time>2024-02-22T12:20:17Z</time><name>PT6013</name></trkpt>
<trkpt lat="52.083103" lon="05.945200"><ele>100</ele><time>2024-02-22T12:20:18Z</time><name>PT6014</name></trkpt>
<trkpt lat="52.083099" lon="05.945212"><ele>100</ele><time>2024-02-22T12:20:19Z</time><name>PT6015</name></trkpt>
<trkpt lat="52.083096" lon="05.945230"><ele>100</ele><time>2024-02-22T12:20:20Z</time><name>PT6016</name></trkpt>
<trkpt lat="52.083092" lon="05.945250"><ele>100</ele><time>2024-02-22T12:20:21Z</time><name>PT6017</name></trkpt>
<trkpt lat="52.083085" lon="05.945268"><ele>99.9</ele><time>2024-02-22T12:20:22Z</time><name>PT6018</name></trkpt>
<trkpt lat="52.083078" lon="05.945282"><ele>99.8</ele><time>2024-02-22T12:20:23Z</time><name>PT6019</name></trkpt>
<trkpt lat="52.083070" lon="05.945296"><ele>99.7</ele><time>2024-02-22T12:20:24Z</time><name>PT6020</name></trkpt>
<trkpt lat="52.083065" lon="05.945307"><ele>100</ele><time>2024-02-22T12:20:25Z</time><name>PT6021</name></trkpt>
<trkpt lat="52.083062" lon="05.945319"><ele>100.2</ele><time>2024-02-22T12:20:26Z</time><name>PT6022</name></trkpt>
<trkpt lat="52.083061" lon="05.945330"><ele>100.3</ele><time>2024-02-22T12:20:27Z</time><name>PT6023</name></trkpt>
<trkpt lat="52.083060" lon="05.945336"><ele>100.4</ele><time>2024-02-22T12:20:28Z</time><name>PT6024</name></trkpt>
<trkpt lat="52.083058" lon="05.945346"><ele>100.4</ele><time>2024-02-22T12:20:29Z</time><name>PT6025</name></trkpt>
<trkpt lat="52.083053" lon="05.945359"><ele>100.2</ele><time>2024-02-22T12:20:30Z</time><name>PT6026</name></trkpt>
<trkpt lat="52.083051" lon="05.945370"><ele>100.2</ele><time>2024-02-22T12:20:31Z</time><name>PT6027</name></trkpt>
<trkpt lat="52.083048" lon="05.945379"><ele>100.1</ele><time>2024-02-22T12:20:32Z</time><name>PT6028</name></trkpt>
<trkpt lat="52.083044" lon="05.945394"><ele>100.3</ele><time>2024-02-22T12:20:33Z</time><name>PT6029</name></trkpt>
<trkpt lat="52.083040" lon="05.945406"><ele>100.3</ele><time>2024-02-22T12:20:34Z</time><name>PT6030</name></trkpt>
<trkpt lat="52.083037" lon="05.945416"><ele>100.3</ele><time>2024-02-22T12:20:35Z</time><name>PT6031</name></trkpt>
<trkpt lat="52.083030" lon="05.945429"><ele>100.1</ele><time>2024-02-22T12:20:36Z</time><name>PT6032</name></trkpt>
<trkpt lat="52.083026" lon="05.945443"><ele>100</ele><time>2024-02-22T12:20:37Z</time><name>PT6033</name></trkpt>
<trkpt lat="52.083027" lon="05.945446"><ele>99.9</ele><time>2024-02-22T12:20:38Z</time><name>PT6034</name></trkpt>
<trkpt lat="52.083027" lon="05.945443"><ele>99.9</ele><time>2024-02-22T12:20:39Z</time><name>PT6035</name></trkpt>
<trkpt lat="52.083028" lon="05.945443"><ele>100</ele><time>2024-02-22T12:20:40Z</time><name>PT6036</name></trkpt>
<trkpt lat="52.083029" lon="05.945446"><ele>100.2</ele><time>2024-02-22T12:20:42Z</time><name>PT6037</name></trkpt>
<trkpt lat="52.083034" lon="05.945450"><ele>100.2</ele><time>2024-02-22T12:20:43Z</time><name>PT6038</name></trkpt>
<trkpt lat="52.083037" lon="05.945457"><ele>100.4</ele><time>2024-02-22T12:20:44Z</time><name>PT6039</name></trkpt>
<trkpt lat="52.083038" lon="05.945449"><ele>100.4</ele><time>2024-02-22T12:20:45Z</time><name>PT6040</name></trkpt>
<trkpt lat="52.083036" lon="05.945444"><ele>100.5</ele><time>2024-02-22T12:20:46Z</time><name>PT6041</name></trkpt>
<trkpt lat="52.083033" lon="05.945445"><ele>100.5</ele><time>2024-02-22T12:20:47Z</time><name>PT6042</name></trkpt>
<trkpt lat="52.083032" lon="05.945455"><ele>100.3</ele><time>2024-02-22T12:20:48Z</time><name>PT6043</name></trkpt>
<trkpt lat="52.083030" lon="05.945466"><ele>100.3</ele><time>2024-02-22T12:20:49Z</time><name>PT6044</name></trkpt>
<trkpt lat="52.083028" lon="05.945474"><ele>100.3</ele><time>2024-02-22T12:20:50Z</time><name>PT6045</name></trkpt>
<trkpt lat="52.083025" lon="05.945486"><ele>100.1</ele><time>2024-02-22T12:20:51Z</time><name>PT6046</name></trkpt>
<trkpt lat="52.083022" lon="05.945502"><ele>100.2</ele><time>2024-02-22T12:20:52Z</time><name>PT6047</name></trkpt>
<trkpt lat="52.083018" lon="05.945517"><ele>100.1</ele><time>2024-02-22T12:20:53Z</time><name>PT6048</name></trkpt>
<trkpt lat="52.083012" lon="05.945529"><ele>100.2</ele><time>2024-02-22T12:20:54Z</time><name>PT6049</name></trkpt>
<trkpt lat="52.083009" lon="05.945538"><ele>100.4</ele><time>2024-02-22T12:20:55Z</time><name>PT6050</name></trkpt>
<trkpt lat="52.083006" lon="05.945552"><ele>100.5</ele><time>2024-02-22T12:20:56Z</time><name>PT6051</name></trkpt>
<trkpt lat="52.083005" lon="05.945574"><ele>100.5</ele><time>2024-02-22T12:20:57Z</time><name>PT6052</name></trkpt>
<trkpt lat="52.083000" lon="05.945598"><ele>100.5</ele><time>2024-02-22T12:20:58Z</time><name>PT6053</name></trkpt>
<trkpt lat="52.082995" lon="05.945615"><ele>100.5</ele><time>2024-02-22T12:20:59Z</time><name>PT6054</name></trkpt>
<trkpt lat="52.082992" lon="05.945628"><ele>100.4</ele><time>2024-02-22T12:21:00Z</time><name>PT6055</name></trkpt>
<trkpt lat="52.082986" lon="05.945643"><ele>100.3</ele><time>2024-02-22T12:21:01Z</time><name>PT6056</name></trkpt>
<trkpt lat="52.082981" lon="05.945654"><ele>100.3</ele><time>2024-02-22T12:21:02Z</time><name>PT6057</name></trkpt>
<trkpt lat="52.082971" lon="05.945663"><ele>100.1</ele><time>2024-02-22T12:21:03Z</time><name>PT6058</name></trkpt>
<trkpt lat="52.082962" lon="05.945678"><ele>100.2</ele><time>2024-02-22T12:21:04Z</time><name>PT6059</name></trkpt>
<trkpt lat="52.082957" lon="05.945691"><ele>100.2</ele><time>2024-02-22T12:21:05Z</time><name>PT6060</name></trkpt>
<trkpt lat="52.082952" lon="05.945702"><ele>100.5</ele><time>2024-02-22T12:21:06Z</time><name>PT6061</name></trkpt>
<trkpt lat="52.082949" lon="05.945713"><ele>100.5</ele><time>2024-02-22T12:21:07Z</time><name>PT6062</name></trkpt>
<trkpt lat="52.082946" lon="05.945722"><ele>100.4</ele><time>2024-02-22T12:21:08Z</time><name>PT6063</name></trkpt>
<trkpt lat="52.082940" lon="05.945734"><ele>100.5</ele><time>2024-02-22T12:21:09Z</time><name>PT6064</name></trkpt>
<trkpt lat="52.082935" lon="05.945755"><ele>100.4</ele><time>2024-02-22T12:21:10Z</time><name>PT6065</name></trkpt>
<trkpt lat="52.082932" lon="05.945763"><ele>100.4</ele><time>2024-02-22T12:21:11Z</time><name>PT6066</name></trkpt>
<trkpt lat="52.082929" lon="05.945770"><ele>100.5</ele><time>2024-02-22T12:21:12Z</time><name>PT6067</name></trkpt>
<trkpt lat="52.082926" lon="05.945778"><ele>100.6</ele><time>2024-02-22T12:21:13Z</time><name>PT6068</name></trkpt>
<trkpt lat="52.082922" lon="05.945786"><ele>100.5</ele><time>2024-02-22T12:21:14Z</time><name>PT6069</name></trkpt>
<trkpt lat="52.082920" lon="05.945797"><ele>100.6</ele><time>2024-02-22T12:21:15Z</time><name>PT6070</name></trkpt>
<trkpt lat="52.082913" lon="05.945814"><ele>100.8</ele><time>2024-02-22T12:21:16Z</time><name>PT6071</name></trkpt>
<trkpt lat="52.082908" lon="05.945830"><ele>100.6</ele><time>2024-02-22T12:21:17Z</time><name>PT6072</name></trkpt>
<trkpt lat="52.082902" lon="05.945842"><ele>100.5</ele><time>2024-02-22T12:21:18Z</time><name>PT6073</name></trkpt>
<trkpt lat="52.082898" lon="05.945854"><ele>100.5</ele><time>2024-02-22T12:21:19Z</time><name>PT6074</name></trkpt>
<trkpt lat="52.082893" lon="05.945870"><ele>100.5</ele><time>2024-02-22T12:21:20Z</time><name>PT6075</name></trkpt>
<trkpt lat="52.082892" lon="05.945887"><ele>100.4</ele><time>2024-02-22T12:21:21Z</time><name>PT6076</name></trkpt>
<trkpt lat="52.082885" lon="05.945902"><ele>100.2</ele><time>2024-02-22T12:21:22Z</time><name>PT6077</name></trkpt>
<trkpt lat="52.082879" lon="05.945915"><ele>100.3</ele><time>2024-02-22T12:21:23Z</time><name>PT6078</name></trkpt>
<trkpt lat="52.082874" lon="05.945927"><ele>100.4</ele><time>2024-02-22T12:21:24Z</time><name>PT6079</name></trkpt>
<trkpt lat="52.082867" lon="05.945934"><ele>100.4</ele><time>2024-02-22T12:21:25Z</time><name>PT6080</name></trkpt>
<trkpt lat="52.082861" lon="05.945946"><ele>100.6</ele><time>2024-02-22T12:21:26Z</time><name>PT6081</name></trkpt>
<trkpt lat="52.082852" lon="05.945962"><ele>100.7</ele><time>2024-02-22T12:21:27Z</time><name>PT6082</name></trkpt>
<trkpt lat="52.082846" lon="05.945976"><ele>100.5</ele><time>2024-02-22T12:21:28Z</time><name>PT6083</name></trkpt>
<trkpt lat="52.082840" lon="05.945987"><ele>100.4</ele><time>2024-02-22T12:21:29Z</time><name>PT6084</name></trkpt>
<trkpt lat="52.082835" lon="05.946000"><ele>100.6</ele><time>2024-02-22T12:21:30Z</time><name>PT6085</name></trkpt>
<trkpt lat="52.082829" lon="05.946015"><ele>100.6</ele><time>2024-02-22T12:21:31Z</time><name>PT6086</name></trkpt>
<trkpt lat="52.082823" lon="05.946029"><ele>100.7</ele><time>2024-02-22T12:21:32Z</time><name>PT6087</name></trkpt>
<trkpt lat="52.082816" lon="05.946042"><ele>100.9</ele><time>2024-02-22T12:21:33Z</time><name>PT6088</name></trkpt>
<trkpt lat="52.082808" lon="05.946056"><ele>100.6</ele><time>2024-02-22T12:21:34Z</time><name>PT6089</name></trkpt>
<trkpt lat="52.082799" lon="05.946068"><ele>100.5</ele><time>2024-02-22T12:21:35Z</time><name>PT6090</name></trkpt>
<trkpt lat="52.082792" lon="05.946080"><ele>100.7</ele><time>2024-02-22T12:21:36Z</time><name>PT6091</name></trkpt>
<trkpt lat="52.082786" lon="05.946093"><ele>100.8</ele><time>2024-02-22T12:21:37Z</time><name>PT6092</name></trkpt>
<trkpt lat="52.082780" lon="05.946104"><ele>100.8</ele><time>2024-02-22T12:21:38Z</time><name>PT6093</name></trkpt>
<trkpt lat="52.082772" lon="05.946117"><ele>101</ele><time>2024-02-22T12:21:39Z</time><name>PT6094</name></trkpt>
<trkpt lat="52.082764" lon="05.946127"><ele>101.1</ele><time>2024-02-22T12:21:40Z</time><name>PT6095</name></trkpt>
<trkpt lat="52.082756" lon="05.946139"><ele>100.9</ele><time>2024-02-22T12:21:41Z</time><name>PT6096</name></trkpt>
<trkpt lat="52.082751" lon="05.946140"><ele>100.7</ele><time>2024-02-22T12:21:42Z</time><name>PT6097</name></trkpt>
<trkpt lat="52.082744" lon="05.946148"><ele>100.5</ele><time>2024-02-22T12:21:43Z</time><name>PT6098</name></trkpt>
<trkpt lat="52.082734" lon="05.946162"><ele>100.5</ele><time>2024-02-22T12:21:44Z</time><name>PT6099</name></trkpt>
<trkpt lat="52.082726" lon="05.946172"><ele>100.5</ele><time>2024-02-22T12:21:45Z</time><name>PT6100</name></trkpt>
<trkpt lat="52.082721" lon="05.946180"><ele>100.1</ele><time>2024-02-22T12:21:46Z</time><name>PT6101</name></trkpt>
<trkpt lat="52.082716" lon="05.946188"><ele>100.2</ele><time>2024-02-22T12:21:47Z</time><name>PT6102</name></trkpt>
<trkpt lat="52.082710" lon="05.946201"><ele>100</ele><time>2024-02-22T12:21:48Z</time><name>PT6103</name></trkpt>
<trkpt lat="52.082700" lon="05.946221"><ele>100.1</ele><time>2024-02-22T12:21:49Z</time><name>PT6104</name></trkpt>
<trkpt lat="52.082690" lon="05.946234"><ele>100.2</ele><time>2024-02-22T12:21:50Z</time><name>PT6105</name></trkpt>
<trkpt lat="52.082683" lon="05.946242"><ele>100.3</ele><time>2024-02-22T12:21:51Z</time><name>PT6106</name></trkpt>
<trkpt lat="52.082675" lon="05.946254"><ele>100.3</ele><time>2024-02-22T12:21:52Z</time><name>PT6107</name></trkpt>
<trkpt lat="52.082668" lon="05.946267"><ele>100.2</ele><time>2024-02-22T12:21:53Z</time><name>PT6108</name></trkpt>
<trkpt lat="52.082661" lon="05.946279"><ele>100.1</ele><time>2024-02-22T12:21:54Z</time><name>PT6109</name></trkpt>
<trkpt lat="52.082653" lon="05.946290"><ele>100</ele><time>2024-02-22T12:21:55Z</time><name>PT6110</name></trkpt>
<trkpt lat="52.082646" lon="05.946299"><ele>99.8</ele><time>2024-02-22T12:21:56Z</time><name>PT6111</name></trkpt>
<trkpt lat="52.082642" lon="05.946308"><ele>99.7</ele><time>2024-02-22T12:21:57Z</time><name>PT6112</name></trkpt>
<trkpt lat="52.082636" lon="05.946321"><ele>99.5</ele><time>2024-02-22T12:21:58Z</time><name>PT6113</name></trkpt>
<trkpt lat="52.082627" lon="05.946336"><ele>99.4</ele><time>2024-02-22T12:21:59Z</time><name>PT6114</name></trkpt>
<trkpt lat="52.082620" lon="05.946348"><ele>99.3</ele><time>2024-02-22T12:22:00Z</time><name>PT6115</name></trkpt>
<trkpt lat="52.082614" lon="05.946358"><ele>99.3</ele><time>2024-02-22T12:22:01Z</time><name>PT6116</name></trkpt>
<trkpt lat="52.082610" lon="05.946364"><ele>99.1</ele><time>2024-02-22T12:22:02Z</time><name>PT6117</name></trkpt>
<trkpt lat="52.082606" lon="05.946374"><ele>98.9</ele><time>2024-02-22T12:22:03Z</time><name>PT6118</name></trkpt>
<trkpt lat="52.082599" lon="05.946386"><ele>98.9</ele><time>2024-02-22T12:22:04Z</time><name>PT6119</name></trkpt>
<trkpt lat="52.082590" lon="05.946399"><ele>98.8</ele><time>2024-02-22T12:22:05Z</time><name>PT6120</name></trkpt>
<trkpt lat="52.082583" lon="05.946411"><ele>98.7</ele><time>2024-02-22T12:22:06Z</time><name>PT6121</name></trkpt>
<trkpt lat="52.082576" lon="05.946421"><ele>98.6</ele><time>2024-02-22T12:22:07Z</time><name>PT6122</name></trkpt>
<trkpt lat="52.082572" lon="05.946430"><ele>98.7</ele><time>2024-02-22T12:22:08Z</time><name>PT6123</name></trkpt>
<trkpt lat="52.082563" lon="05.946442"><ele>98.8</ele><time>2024-02-22T12:22:09Z</time><name>PT6124</name></trkpt>
<trkpt lat="52.082553" lon="05.946461"><ele>98.8</ele><time>2024-02-22T12:22:10Z</time><name>PT6125</name></trkpt>
<trkpt lat="52.082547" lon="05.946475"><ele>98.9</ele><time>2024-02-22T12:22:11Z</time><name>PT6126</name></trkpt>
<trkpt lat="52.082543" lon="05.946487"><ele>99.1</ele><time>2024-02-22T12:22:12Z</time><name>PT6127</name></trkpt>
<trkpt lat="52.082537" lon="05.946496"><ele>98.9</ele><time>2024-02-22T12:22:13Z</time><name>PT6128</name></trkpt>
<trkpt lat="52.082528" lon="05.946515"><ele>98.9</ele><time>2024-02-22T12:22:14Z</time><name>PT6129</name></trkpt>
<trkpt lat="52.082515" lon="05.946538"><ele>98.8</ele><time>2024-02-22T12:22:15Z</time><name>PT6130</name></trkpt>
<trkpt lat="52.082508" lon="05.946551"><ele>98.8</ele><time>2024-02-22T12:22:16Z</time><name>PT6131</name></trkpt>
<trkpt lat="52.082505" lon="05.946563"><ele>98.8</ele><time>2024-02-22T12:22:17Z</time><name>PT6132</name></trkpt>
<trkpt lat="52.082499" lon="05.946574"><ele>98.8</ele><time>2024-02-22T12:22:18Z</time><name>PT6133</name></trkpt>
<trkpt lat="52.082490" lon="05.946589"><ele>98.8</ele><time>2024-02-22T12:22:19Z</time><name>PT6134</name></trkpt>
<trkpt lat="52.082484" lon="05.946609"><ele>98.8</ele><time>2024-02-22T12:22:20Z</time><name>PT6135</name></trkpt>
<trkpt lat="52.082479" lon="05.946625"><ele>98.6</ele><time>2024-02-22T12:22:21Z</time><name>PT6136</name></trkpt>
<trkpt lat="52.082475" lon="05.946636"><ele>98.4</ele><time>2024-02-22T12:22:22Z</time><name>PT6137</name></trkpt>
<trkpt lat="52.082472" lon="05.946645"><ele>98.4</ele><time>2024-02-22T12:22:23Z</time><name>PT6138</name></trkpt>
<trkpt lat="52.082468" lon="05.946656"><ele>98.3</ele><time>2024-02-22T12:22:24Z</time><name>PT6139</name></trkpt>
<trkpt lat="52.082463" lon="05.946671"><ele>98.3</ele><time>2024-02-22T12:22:25Z</time><name>PT6140</name></trkpt>
<trkpt lat="52.082458" lon="05.946690"><ele>98.4</ele><time>2024-02-22T12:22:26Z</time><name>PT6141</name></trkpt>
<trkpt lat="52.082454" lon="05.946706"><ele>98.4</ele><time>2024-02-22T12:22:27Z</time><name>PT6142</name></trkpt>
<trkpt lat="52.082452" lon="05.946719"><ele>98.2</ele><time>2024-02-22T12:22:28Z</time><name>PT6143</name></trkpt>
<trkpt lat="52.082456" lon="05.946723"><ele>98.2</ele><time>2024-02-22T12:22:29Z</time><name>PT6144</name></trkpt>
<trkpt lat="52.082455" lon="05.946724"><ele>98.2</ele><time>2024-02-22T12:22:30Z</time><name>PT6145</name></trkpt>
<trkpt lat="52.082451" lon="05.946731"><ele>98.2</ele><time>2024-02-22T12:22:31Z</time><name>PT6146</name></trkpt>
<trkpt lat="52.082446" lon="05.946740"><ele>98</ele><time>2024-02-22T12:22:32Z</time><name>PT6147</name></trkpt>
<trkpt lat="52.082443" lon="05.946751"><ele>98.1</ele><time>2024-02-22T12:22:33Z</time><name>PT6148</name></trkpt>
<trkpt lat="52.082439" lon="05.946764"><ele>98</ele><time>2024-02-22T12:22:34Z</time><name>PT6149</name></trkpt>
<trkpt lat="52.082433" lon="05.946780"><ele>97.8</ele><time>2024-02-22T12:22:35Z</time><name>PT6150</name></trkpt>
<trkpt lat="52.082426" lon="05.946794"><ele>97.8</ele><time>2024-02-22T12:22:36Z</time><name>PT6151</name></trkpt>
<trkpt lat="52.082420" lon="05.946809"><ele>97.7</ele><time>2024-02-22T12:22:37Z</time><name>PT6152</name></trkpt>
<trkpt lat="52.082414" lon="05.946822"><ele>97.6</ele><time>2024-02-22T12:22:38Z</time><name>PT6153</name></trkpt>
<trkpt lat="52.082410" lon="05.946835"><ele>97.7</ele><time>2024-02-22T12:22:39Z</time><name>PT6154</name></trkpt>
<trkpt lat="52.082404" lon="05.946845"><ele>97.7</ele><time>2024-02-22T12:22:40Z</time><name>PT6155</name></trkpt>
<trkpt lat="52.082399" lon="05.946857"><ele>97.7</ele><time>2024-02-22T12:22:41Z</time><name>PT6156</name></trkpt>
<trkpt lat="52.082394" lon="05.946872"><ele>97.8</ele><time>2024-02-22T12:22:42Z</time><name>PT6157</name></trkpt>
<trkpt lat="52.082389" lon="05.946886"><ele>97.7</ele><time>2024-02-22T12:22:43Z</time><name>PT6158</name></trkpt>
<trkpt lat="52.082384" lon="05.946896"><ele>97.7</ele><time>2024-02-22T12:22:44Z</time><name>PT6159</name></trkpt>
<trkpt lat="52.082382" lon="05.946901"><ele>97.6</ele><time>2024-02-22T12:22:45Z</time><name>PT6160</name></trkpt>
<trkpt lat="52.082382" lon="05.946906"><ele>97.6</ele><time>2024-02-22T12:22:46Z</time><name>PT6161</name></trkpt>
<trkpt lat="52.082381" lon="05.946917"><ele>97.4</ele><time>2024-02-22T12:22:47Z</time><name>PT6162</name></trkpt>
<trkpt lat="52.082379" lon="05.946926"><ele>97.3</ele><time>2024-02-22T12:22:48Z</time><name>PT6163</name></trkpt>
<trkpt lat="52.082379" lon="05.946937"><ele>97.3</ele><time>2024-02-22T12:22:49Z</time><name>PT6164</name></trkpt>
<trkpt lat="52.082378" lon="05.946947"><ele>97.1</ele><time>2024-02-22T12:22:50Z</time><name>PT6165</name></trkpt>
<trkpt lat="52.082379" lon="05.946960"><ele>97.2</ele><time>2024-02-22T12:22:51Z</time><name>PT6166</name></trkpt>
<trkpt lat="52.082381" lon="05.946970"><ele>97.3</ele><time>2024-02-22T12:22:52Z</time><name>PT6167</name></trkpt>
<trkpt lat="52.082385" lon="05.946983"><ele>97.3</ele><time>2024-02-22T12:22:53Z</time><name>PT6168</name></trkpt>
<trkpt lat="52.082388" lon="05.946999"><ele>97.2</ele><time>2024-02-22T12:22:54Z</time><name>PT6169</name></trkpt>
<trkpt lat="52.082386" lon="05.947013"><ele>97.1</ele><time>2024-02-22T12:22:55Z</time><name>PT6170</name></trkpt>
<trkpt lat="52.082385" lon="05.947029"><ele>97</ele><time>2024-02-22T12:22:56Z</time><name>PT6171</name></trkpt>
<trkpt lat="52.082385" lon="05.947043"><ele>96.8</ele><time>2024-02-22T12:22:57Z</time><name>PT6172</name></trkpt>
<trkpt lat="52.082385" lon="05.947054"><ele>96.9</ele><time>2024-02-22T12:22:58Z</time><name>PT6173</name></trkpt>
<trkpt lat="52.082383" lon="05.947065"><ele>96.9</ele><time>2024-02-22T12:22:59Z</time><name>PT6174</name></trkpt>
<trkpt lat="52.082381" lon="05.947082"><ele>96.6</ele><time>2024-02-22T12:23:00Z</time><name>PT6175</name></trkpt>
<trkpt lat="52.082379" lon="05.947099"><ele>96.5</ele><time>2024-02-22T12:23:01Z</time><name>PT6176</name></trkpt>
<trkpt lat="52.082378" lon="05.947114"><ele>96.3</ele><time>2024-02-22T12:23:02Z</time><name>PT6177</name></trkpt>
<trkpt lat="52.082377" lon="05.947123"><ele>96.1</ele><time>2024-02-22T12:23:03Z</time><name>PT6178</name></trkpt>
<trkpt lat="52.082378" lon="05.947130"><ele>96.5</ele><time>2024-02-22T12:23:04Z</time><name>PT6179</name></trkpt>
<trkpt lat="52.082379" lon="05.947139"><ele>96.4</ele><time>2024-02-22T12:23:05Z</time><name>PT6180</name></trkpt>
<trkpt lat="52.082377" lon="05.947135"><ele>96.5</ele><time>2024-02-22T12:23:06Z</time><name>PT6181</name></trkpt>
<trkpt lat="52.082376" lon="05.947135"><ele>96.5</ele><time>2024-02-22T12:23:07Z</time><name>PT6182</name></trkpt>
<trkpt lat="52.082372" lon="05.947136"><ele>96.3</ele><time>2024-02-22T12:23:08Z</time><name>PT6183</name></trkpt>
<trkpt lat="52.082374" lon="05.947142"><ele>96.3</ele><time>2024-02-22T12:23:09Z</time><name>PT6184</name></trkpt>
<trkpt lat="52.082376" lon="05.947151"><ele>96.2</ele><time>2024-02-22T12:23:10Z</time><name>PT6185</name></trkpt>
<trkpt lat="52.082365" lon="05.947157"><ele>96.3</ele><time>2024-02-22T12:23:11Z</time><name>PT6186</name></trkpt>
<trkpt lat="52.082377" lon="05.947165"><ele>96.3</ele><time>2024-02-22T12:23:12Z</time><name>PT6187</name></trkpt>
<trkpt lat="52.082386" lon="05.947160"><ele>96.5</ele><time>2024-02-22T12:23:13Z</time><name>PT6188</name></trkpt>
<trkpt lat="52.082393" lon="05.947157"><ele>96.4</ele><time>2024-02-22T12:23:14Z</time><name>PT6189</name></trkpt>
<trkpt lat="52.082382" lon="05.947157"><ele>96.3</ele><time>2024-02-22T12:23:15Z</time><name>PT6190</name></trkpt>
<trkpt lat="52.082398" lon="05.947169"><ele>96.2</ele><time>2024-02-22T12:23:16Z</time><name>PT6191</name></trkpt>
<trkpt lat="52.082382" lon="05.947186"><ele>96.1</ele><time>2024-02-22T12:23:17Z</time><name>PT6192</name></trkpt>
<trkpt lat="52.082378" lon="05.947191"><ele>96.1</ele><time>2024-02-22T12:23:18Z</time><name>PT6193</name></trkpt>
<trkpt lat="52.082368" lon="05.947199"><ele>96.1</ele><time>2024-02-22T12:23:19Z</time><name>PT6194</name></trkpt>
<trkpt lat="52.082352" lon="05.947208"><ele>96.2</ele><time>2024-02-22T12:23:20Z</time><name>PT6195</name></trkpt>
<trkpt lat="52.082358" lon="05.947213"><ele>96.3</ele><time>2024-02-22T12:23:21Z</time><name>PT6196</name></trkpt>
<trkpt lat="52.082364" lon="05.947224"><ele>96.3</ele><time>2024-02-22T12:23:22Z</time><name>PT6197</name></trkpt>
<trkpt lat="52.082342" lon="05.947234"><ele>96.4</ele><time>2024-02-22T12:23:23Z</time><name>PT6198</name></trkpt>
<trkpt lat="52.082332" lon="05.947238"><ele>96.4</ele><time>2024-02-22T12:23:24Z</time><name>PT6199</name></trkpt>
<trkpt lat="52.082314" lon="05.947233"><ele>96.5</ele><time>2024-02-22T12:23:25Z</time><name>PT6200</name></trkpt>
<trkpt lat="52.082339" lon="05.947242"><ele>96.6</ele><time>2024-02-22T12:23:26Z</time><name>PT6201</name></trkpt>
<trkpt lat="52.082337" lon="05.947251"><ele>96.6</ele><time>2024-02-22T12:23:27Z</time><name>PT6202</name></trkpt>
<trkpt lat="52.082333" lon="05.947263"><ele>96.6</ele><time>2024-02-22T12:23:28Z</time><name>PT6203</name></trkpt>
<trkpt lat="52.082343" lon="05.947289"><ele>96.5</ele><time>2024-02-22T12:23:29Z</time><name>PT6204</name></trkpt>
<trkpt lat="52.082339" lon="05.947301"><ele>96.5</ele><time>2024-02-22T12:23:30Z</time><name>PT6205</name></trkpt>
<trkpt lat="52.082319" lon="05.947330"><ele>96.5</ele><time>2024-02-22T12:23:31Z</time><name>PT6206</name></trkpt>
<trkpt lat="52.082316" lon="05.947360"><ele>96.5</ele><time>2024-02-22T12:23:32Z</time><name>PT6207</name></trkpt>
<trkpt lat="52.082310" lon="05.947374"><ele>96.5</ele><time>2024-02-22T12:23:33Z</time><name>PT6208</name></trkpt>
<trkpt lat="52.082302" lon="05.947391"><ele>96.6</ele><time>2024-02-22T12:23:34Z</time><name>PT6209</name></trkpt>
<trkpt lat="52.082355" lon="05.947432"><ele>96.5</ele><time>2024-02-22T12:23:35Z</time><name>PT6210</name></trkpt>
<trkpt lat="52.082401" lon="05.947441"><ele>96.5</ele><time>2024-02-22T12:23:36Z</time><name>PT6211</name></trkpt>
<trkpt lat="52.082440" lon="05.947474"><ele>96.5</ele><time>2024-02-22T12:23:37Z</time><name>PT6212</name></trkpt>
<trkpt lat="52.082451" lon="05.947509"><ele>96.4</ele><time>2024-02-22T12:23:38Z</time><name>PT6213</name></trkpt>
<trkpt lat="52.082457" lon="05.947540"><ele>96.5</ele><time>2024-02-22T12:23:39Z</time><name>PT6214</name></trkpt>
<trkpt lat="52.082466" lon="05.947560"><ele>96.3</ele><time>2024-02-22T12:23:40Z</time><name>PT6215</name></trkpt>
<trkpt lat="52.082473" lon="05.947587"><ele>96.2</ele><time>2024-02-22T12:23:41Z</time><name>PT6216</name></trkpt>
<trkpt lat="52.082470" lon="05.947613"><ele>96.4</ele><time>2024-02-22T12:23:42Z</time><name>PT6217</name></trkpt>
<trkpt lat="52.082451" lon="05.947641"><ele>96.2</ele><time>2024-02-22T12:23:43Z</time><name>PT6218</name></trkpt>
<trkpt lat="52.082447" lon="05.947671"><ele>96.2</ele><time>2024-02-22T12:23:44Z</time><name>PT6219</name></trkpt>
<trkpt lat="52.082449" lon="05.947695"><ele>96.5</ele><time>2024-02-22T12:23:45Z</time><name>PT6220</name></trkpt>
<trkpt lat="52.082419" lon="05.947730"><ele>96.4</ele><time>2024-02-22T12:23:46Z</time><name>PT6221</name></trkpt>
<trkpt lat="52.082401" lon="05.947757"><ele>96.5</ele><time>2024-02-22T12:23:47Z</time><name>PT6222</name></trkpt>
<trkpt lat="52.082384" lon="05.947785"><ele>96.7</ele><time>2024-02-22T12:23:48Z</time><name>PT6223</name></trkpt>
<trkpt lat="52.082370" lon="05.947804"><ele>96.7</ele><time>2024-02-22T12:23:49Z</time><name>PT6224</name></trkpt>
<trkpt lat="52.082366" lon="05.947817"><ele>96.7</ele><time>2024-02-22T12:23:50Z</time><name>PT6225</name></trkpt>
<trkpt lat="52.082360" lon="05.947847"><ele>96.6</ele><time>2024-02-22T12:23:51Z</time><name>PT6226</name></trkpt>
<trkpt lat="52.082360" lon="05.947871"><ele>96.7</ele><time>2024-02-22T12:23:52Z</time><name>PT6227</name></trkpt>
<trkpt lat="52.082353" lon="05.947883"><ele>96.6</ele><time>2024-02-22T12:23:53Z</time><name>PT6228</name></trkpt>
<trkpt lat="52.082348" lon="05.947892"><ele>96.6</ele><time>2024-02-22T12:23:54Z</time><name>PT6229</name></trkpt>
<trkpt lat="52.082346" lon="05.947907"><ele>96.8</ele><time>2024-02-22T12:23:55Z</time><name>PT6230</name></trkpt>
<trkpt lat="52.082341" lon="05.947923"><ele>96.8</ele><time>2024-02-22T12:23:56Z</time><name>PT6231</name></trkpt>
<trkpt lat="52.082338" lon="05.947936"><ele>96.7</ele><time>2024-02-22T12:23:57Z</time><name>PT6232</name></trkpt>
<trkpt lat="52.082337" lon="05.947947"><ele>96.8</ele><time>2024-02-22T12:23:58Z</time><name>PT6233</name></trkpt>
<trkpt lat="52.082335" lon="05.947954"><ele>96.7</ele><time>2024-02-22T12:23:59Z</time><name>PT6234</name></trkpt>
<trkpt lat="52.082331" lon="05.947964"><ele>96.5</ele><time>2024-02-22T12:24:00Z</time><name>PT6235</name></trkpt>
<trkpt lat="52.082331" lon="05.947968"><ele>96.4</ele><time>2024-02-22T12:24:01Z</time><name>PT6236</name></trkpt>
<trkpt lat="52.082330" lon="05.947979"><ele>96.5</ele><time>2024-02-22T12:24:02Z</time><name>PT6237</name></trkpt>
<trkpt lat="52.082328" lon="05.947984"><ele>96.3</ele><time>2024-02-22T12:24:03Z</time><name>PT6238</name></trkpt>
<trkpt lat="52.082324" lon="05.947989"><ele>96.3</ele><time>2024-02-22T12:24:04Z</time><name>PT6239</name></trkpt>
<trkpt lat="52.082323" lon="05.947996"><ele>96.2</ele><time>2024-02-22T12:24:05Z</time><name>PT6240</name></trkpt>
<trkpt lat="52.082322" lon="05.948001"><ele>96.1</ele><time>2024-02-22T12:24:06Z</time><name>PT6241</name></trkpt>
<trkpt lat="52.082322" lon="05.948004"><ele>96.2</ele><time>2024-02-22T12:24:07Z</time><name>PT6242</name></trkpt>
<trkpt lat="52.082314" lon="05.948022"><ele>96.5</ele><time>2024-02-22T12:24:10Z</time><name>PT6243</name></trkpt>
<trkpt lat="52.082308" lon="05.948046"><ele>96.5</ele><time>2024-02-22T12:24:11Z</time><name>PT6244</name></trkpt>
<trkpt lat="52.082304" lon="05.948063"><ele>96.6</ele><time>2024-02-22T12:24:12Z</time><name>PT6245</name></trkpt>
<trkpt lat="52.082303" lon="05.948081"><ele>96.9</ele><time>2024-02-22T12:24:13Z</time><name>PT6246</name></trkpt>
<trkpt lat="52.082298" lon="05.948104"><ele>97.1</ele><time>2024-02-22T12:24:14Z</time><name>PT6247</name></trkpt>
<trkpt lat="52.082295" lon="05.948129"><ele>97.1</ele><time>2024-02-22T12:24:15Z</time><name>PT6248</name></trkpt>
<trkpt lat="52.082291" lon="05.948145"><ele>97.1</ele><time>2024-02-22T12:24:16Z</time><name>PT6249</name></trkpt>
<trkpt lat="52.082283" lon="05.948151"><ele>97.1</ele><time>2024-02-22T12:24:17Z</time><name>PT6250</name></trkpt>
<trkpt lat="52.082279" lon="05.948172"><ele>97</ele><time>2024-02-22T12:24:18Z</time><name>PT6251</name></trkpt>
<trkpt lat="52.082275" lon="05.948188"><ele>97</ele><time>2024-02-22T12:24:19Z</time><name>PT6252</name></trkpt>
<trkpt lat="52.082271" lon="05.948201"><ele>97.1</ele><time>2024-02-22T12:24:20Z</time><name>PT6253</name></trkpt>
<trkpt lat="52.082265" lon="05.948208"><ele>97.4</ele><time>2024-02-22T12:24:21Z</time><name>PT6254</name></trkpt>
<trkpt lat="52.082259" lon="05.948211"><ele>97.6</ele><time>2024-02-22T12:24:22Z</time><name>PT6255</name></trkpt>
<trkpt lat="52.082253" lon="05.948212"><ele>97.5</ele><time>2024-02-22T12:24:23Z</time><name>PT6256</name></trkpt>
<trkpt lat="52.082250" lon="05.948222"><ele>97.6</ele><time>2024-02-22T12:24:24Z</time><name>PT6257</name></trkpt>
<trkpt lat="52.082245" lon="05.948232"><ele>97.8</ele><time>2024-02-22T12:24:25Z</time><name>PT6258</name></trkpt>
<trkpt lat="52.082239" lon="05.948229"><ele>97.8</ele><time>2024-02-22T12:24:26Z</time><name>PT6259</name></trkpt>
<trkpt lat="52.082235" lon="05.948231"><ele>98</ele><time>2024-02-22T12:24:27Z</time><name>PT6260</name></trkpt>
<trkpt lat="52.082230" lon="05.948240"><ele>98.2</ele><time>2024-02-22T12:24:28Z</time><name>PT6261</name></trkpt>
<trkpt lat="52.082222" lon="05.948252"><ele>98.2</ele><time>2024-02-22T12:24:29Z</time><name>PT6262</name></trkpt>
<trkpt lat="52.082213" lon="05.948263"><ele>98.2</ele><time>2024-02-22T12:24:30Z</time><name>PT6263</name></trkpt>
<trkpt lat="52.082205" lon="05.948270"><ele>98.4</ele><time>2024-02-22T12:24:31Z</time><name>PT6264</name></trkpt>
<trkpt lat="52.082199" lon="05.948274"><ele>98.3</ele><time>2024-02-22T12:24:32Z</time><name>PT6265</name></trkpt>
<trkpt lat="52.082192" lon="05.948273"><ele>98.2</ele><time>2024-02-22T12:24:33Z</time><name>PT6266</name></trkpt>
<trkpt lat="52.082188" lon="05.948278"><ele>98.2</ele><time>2024-02-22T12:24:34Z</time><name>PT6267</name></trkpt>
<trkpt lat="52.082179" lon="05.948287"><ele>98.3</ele><time>2024-02-22T12:24:35Z</time><name>PT6268</name></trkpt>
<trkpt lat="52.082167" lon="05.948288"><ele>98.5</ele><time>2024-02-22T12:24:36Z</time><name>PT6269</name></trkpt>
<trkpt lat="52.082156" lon="05.948283"><ele>98.5</ele><time>2024-02-22T12:24:37Z</time><name>PT6270</name></trkpt>
<trkpt lat="52.082150" lon="05.948281"><ele>98.5</ele><time>2024-02-22T12:24:38Z</time><name>PT6271</name></trkpt>
<trkpt lat="52.082145" lon="05.948280"><ele>98.6</ele><time>2024-02-22T12:24:39Z</time><name>PT6272</name></trkpt>
<trkpt lat="52.082140" lon="05.948278"><ele>98.6</ele><time>2024-02-22T12:24:40Z</time><name>PT6273</name></trkpt>
<trkpt lat="52.082134" lon="05.948270"><ele>98.5</ele><time>2024-02-22T12:24:41Z</time><name>PT6274</name></trkpt>
<trkpt lat="52.082122" lon="05.948261"><ele>98.4</ele><time>2024-02-22T12:24:42Z</time><name>PT6275</name></trkpt>
<trkpt lat="52.082108" lon="05.948254"><ele>98.4</ele><time>2024-02-22T12:24:43Z</time><name>PT6276</name></trkpt>
<trkpt lat="52.082094" lon="05.948248"><ele>98.5</ele><time>2024-02-22T12:24:44Z</time><name>PT6277</name></trkpt>
<trkpt lat="52.082086" lon="05.948240"><ele>98.4</ele><time>2024-02-22T12:24:45Z</time><name>PT6278</name></trkpt>
<trkpt lat="52.082081" lon="05.948239"><ele>98.5</ele><time>2024-02-22T12:24:46Z</time><name>PT6279</name></trkpt>
<trkpt lat="52.082078" lon="05.948239"><ele>98.5</ele><time>2024-02-22T12:24:47Z</time><name>PT6280</name></trkpt>
<trkpt lat="52.082076" lon="05.948238"><ele>98.3</ele><time>2024-02-22T12:24:48Z</time><name>PT6281</name></trkpt>
<trkpt lat="52.082070" lon="05.948235"><ele>98.3</ele><time>2024-02-22T12:24:49Z</time><name>PT6282</name></trkpt>
<trkpt lat="52.082060" lon="05.948229"><ele>98.3</ele><time>2024-02-22T12:24:50Z</time><name>PT6283</name></trkpt>
<trkpt lat="52.082042" lon="05.948220"><ele>98.3</ele><time>2024-02-22T12:24:51Z</time><name>PT6284</name></trkpt>
<trkpt lat="52.082031" lon="05.948213"><ele>98.4</ele><time>2024-02-22T12:24:52Z</time><name>PT6285</name></trkpt>
<trkpt lat="52.082023" lon="05.948207"><ele>98.6</ele><time>2024-02-22T12:24:53Z</time><name>PT6286</name></trkpt>
<trkpt lat="52.082018" lon="05.948206"><ele>98.6</ele><time>2024-02-22T12:24:54Z</time><name>PT6287</name></trkpt>
<trkpt lat="52.082011" lon="05.948206"><ele>98.7</ele><time>2024-02-22T12:24:55Z</time><name>PT6288</name></trkpt>
<trkpt lat="52.082002" lon="05.948204"><ele>98.8</ele><time>2024-02-22T12:24:56Z</time><name>PT6289</name></trkpt>
<trkpt lat="52.081994" lon="05.948196"><ele>98.7</ele><time>2024-02-22T12:24:57Z</time><name>PT6290</name></trkpt>
<trkpt lat="52.081991" lon="05.948196"><ele>98.8</ele><time>2024-02-22T12:24:58Z</time><name>PT6291</name></trkpt>
<trkpt lat="52.081988" lon="05.948196"><ele>98.8</ele><time>2024-02-22T12:24:59Z</time><name>PT6292</name></trkpt>
<trkpt lat="52.081983" lon="05.948195"><ele>98.9</ele><time>2024-02-22T12:25:00Z</time><name>PT6293</name></trkpt>
<trkpt lat="52.081971" lon="05.948192"><ele>98.9</ele><time>2024-02-22T12:25:01Z</time><name>PT6294</name></trkpt>
<trkpt lat="52.081958" lon="05.948186"><ele>99</ele><time>2024-02-22T12:25:02Z</time><name>PT6295</name></trkpt>
<trkpt lat="52.081948" lon="05.948178"><ele>99</ele><time>2024-02-22T12:25:03Z</time><name>PT6296</name></trkpt>
<trkpt lat="52.081941" lon="05.948175"><ele>99</ele><time>2024-02-22T12:25:04Z</time><name>PT6297</name></trkpt>
<trkpt lat="52.081938" lon="05.948178"><ele>99</ele><time>2024-02-22T12:25:05Z</time><name>PT6298</name></trkpt>
<trkpt lat="52.081934" lon="05.948179"><ele>99.1</ele><time>2024-02-22T12:25:06Z</time><name>PT6299</name></trkpt>
<trkpt lat="52.081923" lon="05.948172"><ele>99.1</ele><time>2024-02-22T12:25:07Z</time><name>PT6300</name></trkpt>
<trkpt lat="52.081912" lon="05.948164"><ele>99.2</ele><time>2024-02-22T12:25:08Z</time><name>PT6301</name></trkpt>
<trkpt lat="52.081902" lon="05.948153"><ele>99</ele><time>2024-02-22T12:25:09Z</time><name>PT6302</name></trkpt>
<trkpt lat="52.081894" lon="05.948152"><ele>99.1</ele><time>2024-02-22T12:25:10Z</time><name>PT6303</name></trkpt>
<trkpt lat="52.081888" lon="05.948148"><ele>99.2</ele><time>2024-02-22T12:25:11Z</time><name>PT6304</name></trkpt>
<trkpt lat="52.081883" lon="05.948145"><ele>99.2</ele><time>2024-02-22T12:25:12Z</time><name>PT6305</name></trkpt>
<trkpt lat="52.081874" lon="05.948140"><ele>99.2</ele><time>2024-02-22T12:25:13Z</time><name>PT6306</name></trkpt>
<trkpt lat="52.081862" lon="05.948130"><ele>99.2</ele><time>2024-02-22T12:25:14Z</time><name>PT6307</name></trkpt>
<trkpt lat="52.081846" lon="05.948109"><ele>99.2</ele><time>2024-02-22T12:25:15Z</time><name>PT6308</name></trkpt>
<trkpt lat="52.081830" lon="05.948092"><ele>99</ele><time>2024-02-22T12:25:16Z</time><name>PT6309</name></trkpt>
<trkpt lat="52.081818" lon="05.948082"><ele>99</ele><time>2024-02-22T12:25:17Z</time><name>PT6310</name></trkpt>
<trkpt lat="52.081813" lon="05.948072"><ele>99</ele><time>2024-02-22T12:25:18Z</time><name>PT6311</name></trkpt>
<trkpt lat="52.081807" lon="05.948067"><ele>99</ele><time>2024-02-22T12:25:19Z</time><name>PT6312</name></trkpt>
<trkpt lat="52.081799" lon="05.948063"><ele>99.3</ele><time>2024-02-22T12:25:20Z</time><name>PT6313</name></trkpt>
<trkpt lat="52.081789" lon="05.948058"><ele>99.6</ele><time>2024-02-22T12:25:21Z</time><name>PT6314</name></trkpt>
<trkpt lat="52.081781" lon="05.948058"><ele>99.8</ele><time>2024-02-22T12:25:22Z</time><name>PT6315</name></trkpt>
<trkpt lat="52.081773" lon="05.948056"><ele>99.7</ele><time>2024-02-22T12:25:23Z</time><name>PT6316</name></trkpt>
<trkpt lat="52.081765" lon="05.948049"><ele>99.9</ele><time>2024-02-22T12:25:24Z</time><name>PT6317</name></trkpt>
<trkpt lat="52.081760" lon="05.948044"><ele>100</ele><time>2024-02-22T12:25:25Z</time><name>PT6318</name></trkpt>
<trkpt lat="52.081755" lon="05.948042"><ele>100.2</ele><time>2024-02-22T12:25:26Z</time><name>PT6319</name></trkpt>
<trkpt lat="52.081753" lon="05.948043"><ele>100.2</ele><time>2024-02-22T12:25:27Z</time><name>PT6320</name></trkpt>
<trkpt lat="52.081754" lon="05.948045"><ele>100.2</ele><time>2024-02-22T12:25:28Z</time><name>PT6321</name></trkpt>
<trkpt lat="52.081753" lon="05.948045"><ele>100</ele><time>2024-02-22T12:25:29Z</time><name>PT6322</name></trkpt>
<trkpt lat="52.081755" lon="05.948043"><ele>99.8</ele><time>2024-02-22T12:25:31Z</time><name>PT6323</name></trkpt>
<trkpt lat="52.081752" lon="05.948038"><ele>99.7</ele><time>2024-02-22T12:25:32Z</time><name>PT6324</name></trkpt>
<trkpt lat="52.081742" lon="05.948019"><ele>99.8</ele><time>2024-02-22T12:25:33Z</time><name>PT6325</name></trkpt>
<trkpt lat="52.081726" lon="05.947997"><ele>99.6</ele><time>2024-02-22T12:25:34Z</time><name>PT6326</name></trkpt>
<trkpt lat="52.081711" lon="05.947980"><ele>99.5</ele><time>2024-02-22T12:25:35Z</time><name>PT6327</name></trkpt>
<trkpt lat="52.081700" lon="05.947978"><ele>99.7</ele><time>2024-02-22T12:25:36Z</time><name>PT6328</name></trkpt>
<trkpt lat="52.081690" lon="05.947973"><ele>99.8</ele><time>2024-02-22T12:25:37Z</time><name>PT6329</name></trkpt>
<trkpt lat="52.081681" lon="05.947968"><ele>100</ele><time>2024-02-22T12:25:38Z</time><name>PT6330</name></trkpt>
<trkpt lat="52.081673" lon="05.947963"><ele>100</ele><time>2024-02-22T12:25:39Z</time><name>PT6331</name></trkpt>
<trkpt lat="52.081665" lon="05.947956"><ele>100</ele><time>2024-02-22T12:25:40Z</time><name>PT6332</name></trkpt>
<trkpt lat="52.081661" lon="05.947948"><ele>100</ele><time>2024-02-22T12:25:41Z</time><name>PT6333</name></trkpt>
<trkpt lat="52.081654" lon="05.947942"><ele>100</ele><time>2024-02-22T12:25:42Z</time><name>PT6334</name></trkpt>
<trkpt lat="52.081643" lon="05.947934"><ele>99.9</ele><time>2024-02-22T12:25:43Z</time><name>PT6335</name></trkpt>
<trkpt lat="52.081633" lon="05.947925"><ele>100</ele><time>2024-02-22T12:25:44Z</time><name>PT6336</name></trkpt>
<trkpt lat="52.081624" lon="05.947917"><ele>100.1</ele><time>2024-02-22T12:25:45Z</time><name>PT6337</name></trkpt>
<trkpt lat="52.081616" lon="05.947907"><ele>99.9</ele><time>2024-02-22T12:25:46Z</time><name>PT6338</name></trkpt>
<trkpt lat="52.081610" lon="05.947900"><ele>99.9</ele><time>2024-02-22T12:25:47Z</time><name>PT6339</name></trkpt>
<trkpt lat="52.081602" lon="05.947895"><ele>100</ele><time>2024-02-22T12:25:48Z</time><name>PT6340</name></trkpt>
<trkpt lat="52.081595" lon="05.947892"><ele>100.1</ele><time>2024-02-22T12:25:49Z</time><name>PT6341</name></trkpt>
<trkpt lat="52.081586" lon="05.947887"><ele>100.1</ele><time>2024-02-22T12:25:50Z</time><name>PT6342</name></trkpt>
<trkpt lat="52.081580" lon="05.947876"><ele>100</ele><time>2024-02-22T12:25:51Z</time><name>PT6343</name></trkpt>
<trkpt lat="52.081567" lon="05.947860"><ele>100</ele><time>2024-02-22T12:25:52Z</time><name>PT6344</name></trkpt>
<trkpt lat="52.081551" lon="05.947847"><ele>100</ele><time>2024-02-22T12:25:53Z</time><name>PT6345</name></trkpt>
<trkpt lat="52.081538" lon="05.947836"><ele>100</ele><time>2024-02-22T12:25:54Z</time><name>PT6346</name></trkpt>
<trkpt lat="52.081528" lon="05.947831"><ele>100</ele><time>2024-02-22T12:25:55Z</time><name>PT6347</name></trkpt>
<trkpt lat="52.081520" lon="05.947826"><ele>100</ele><time>2024-02-22T12:25:56Z</time><name>PT6348</name></trkpt>
<trkpt lat="52.081511" lon="05.947824"><ele>100.1</ele><time>2024-02-22T12:25:57Z</time><name>PT6349</name></trkpt>
<trkpt lat="52.081504" lon="05.947821"><ele>100.4</ele><time>2024-02-22T12:25:58Z</time><name>PT6350</name></trkpt>
<trkpt lat="52.081492" lon="05.947814"><ele>100.5</ele><time>2024-02-22T12:25:59Z</time><name>PT6351</name></trkpt>
<trkpt lat="52.081480" lon="05.947804"><ele>100.8</ele><time>2024-02-22T12:26:00Z</time><name>PT6352</name></trkpt>
<trkpt lat="52.081468" lon="05.947797"><ele>100.7</ele><time>2024-02-22T12:26:01Z</time><name>PT6353</name></trkpt>
<trkpt lat="52.081459" lon="05.947790"><ele>100.6</ele><time>2024-02-22T12:26:02Z</time><name>PT6354</name></trkpt>
<trkpt lat="52.081449" lon="05.947782"><ele>100.6</ele><time>2024-02-22T12:26:03Z</time><name>PT6355</name></trkpt>
<trkpt lat="52.081443" lon="05.947779"><ele>100.5</ele><time>2024-02-22T12:26:04Z</time><name>PT6356</name></trkpt>
<trkpt lat="52.081432" lon="05.947775"><ele>100.2</ele><time>2024-02-22T12:26:05Z</time><name>PT6357</name></trkpt>
<trkpt lat="52.081423" lon="05.947772"><ele>100.3</ele><time>2024-02-22T12:26:06Z</time><name>PT6358</name></trkpt>
<trkpt lat="52.081410" lon="05.947765"><ele>100.5</ele><time>2024-02-22T12:26:08Z</time><name>PT6359</name></trkpt>
<trkpt lat="52.081398" lon="05.947756"><ele>100.5</ele><time>2024-02-22T12:26:08Z</time><name>PT6360</name></trkpt>
<trkpt lat="52.081389" lon="05.947749"><ele>100.6</ele><time>2024-02-22T12:26:09Z</time><name>PT6361</name></trkpt>
<trkpt lat="52.081381" lon="05.947747"><ele>100.8</ele><time>2024-02-22T12:26:10Z</time><name>PT6362</name></trkpt>
<trkpt lat="52.081369" lon="05.947745"><ele>100.6</ele><time>2024-02-22T12:26:11Z</time><name>PT6363</name></trkpt>
<trkpt lat="52.081357" lon="05.947749"><ele>100.8</ele><time>2024-02-22T12:26:12Z</time><name>PT6364</name></trkpt>
<trkpt lat="52.081347" lon="05.947759"><ele>100.6</ele><time>2024-02-22T12:26:13Z</time><name>PT6365</name></trkpt>
<trkpt lat="52.081336" lon="05.947770"><ele>100.5</ele><time>2024-02-22T12:26:14Z</time><name>PT6366</name></trkpt>
<trkpt lat="52.081324" lon="05.947779"><ele>100.8</ele><time>2024-02-22T12:26:15Z</time><name>PT6367</name></trkpt>
<trkpt lat="52.081315" lon="05.947789"><ele>100.7</ele><time>2024-02-22T12:26:16Z</time><name>PT6368</name></trkpt>
<trkpt lat="52.081308" lon="05.947801"><ele>100.6</ele><time>2024-02-22T12:26:17Z</time><name>PT6369</name></trkpt>
<trkpt lat="52.081302" lon="05.947812"><ele>100.7</ele><time>2024-02-22T12:26:18Z</time><name>PT6370</name></trkpt>
<trkpt lat="52.081300" lon="05.947823"><ele>100.8</ele><time>2024-02-22T12:26:19Z</time><name>PT6371</name></trkpt>
<trkpt lat="52.081295" lon="05.947844"><ele>100.7</ele><time>2024-02-22T12:26:20Z</time><name>PT6372</name></trkpt>
<trkpt lat="52.081293" lon="05.947872"><ele>100.7</ele><time>2024-02-22T12:26:21Z</time><name>PT6373</name></trkpt>
<trkpt lat="52.081290" lon="05.947893"><ele>100.9</ele><time>2024-02-22T12:26:22Z</time><name>PT6374</name></trkpt>
<trkpt lat="52.081286" lon="05.947909"><ele>100.8</ele><time>2024-02-22T12:26:23Z</time><name>PT6375</name></trkpt>
<trkpt lat="52.081280" lon="05.947923"><ele>100.6</ele><time>2024-02-22T12:26:24Z</time><name>PT6376</name></trkpt>
<trkpt lat="52.081275" lon="05.947937"><ele>100.7</ele><time>2024-02-22T12:26:25Z</time><name>PT6377</name></trkpt>
<trkpt lat="52.081270" lon="05.947952"><ele>100.7</ele><time>2024-02-22T12:26:26Z</time><name>PT6378</name></trkpt>
<trkpt lat="52.081263" lon="05.947964"><ele>100.7</ele><time>2024-02-22T12:26:27Z</time><name>PT6379</name></trkpt>
<trkpt lat="52.081254" lon="05.947973"><ele>101</ele><time>2024-02-22T12:26:28Z</time><name>PT6380</name></trkpt>
<trkpt lat="52.081244" lon="05.947978"><ele>101</ele><time>2024-02-22T12:26:29Z</time><name>PT6381</name></trkpt>
<trkpt lat="52.081235" lon="05.947982"><ele>100.9</ele><time>2024-02-22T12:26:30Z</time><name>PT6382</name></trkpt>
<trkpt lat="52.081227" lon="05.947985"><ele>101</ele><time>2024-02-22T12:26:31Z</time><name>PT6383</name></trkpt>
<trkpt lat="52.081221" lon="05.947985"><ele>101.1</ele><time>2024-02-22T12:26:32Z</time><name>PT6384</name></trkpt>
<trkpt lat="52.081215" lon="05.947984"><ele>101.1</ele><time>2024-02-22T12:26:33Z</time><name>PT6385</name></trkpt>
<trkpt lat="52.081213" lon="05.947984"><ele>101.4</ele><time>2024-02-22T12:26:34Z</time><name>PT6386</name></trkpt>
<trkpt lat="52.081212" lon="05.947984"><ele>101.6</ele><time>2024-02-22T12:26:35Z</time><name>PT6387</name></trkpt>
<trkpt lat="52.081211" lon="05.947984"><ele>101.5</ele><time>2024-02-22T12:26:36Z</time><name>PT6388</name></trkpt></trkseg></trk></gpx>